<?xml version="1.0" encoding="UTF-8"?><gpx version="1.1" creator="Exported from Strava via extension e-ivanov.ru"  xsi:schemaLocation="http://www.topografix.com/GPX/1/1 http://www.topografix.com/GPX/1/1/gpx.xsd http://www.garmin.com/xmlschemas/GpxExtensions/v3 http://www.garmin.com/xmlschemas/GpxExtensionsv3.xsd http://www.garmin.com/xmlschemas/TrackPointExtension/v1 http://www.garmin.com/xmlschemas/TrackPointExtensionv1.xsd"  xmlns="http://www.topografix.com/GPX/1/1"  xmlns:gpxtpx="http://www.garmin.com/xmlschemas/TrackPointExtension/v1"  xmlns:gpxx="http://www.garmin.com/xmlschemas/GpxExtensions/v3" xmlns:xsi="http://www.w3.org/2001/XMLSchema-instance"><metadata><link href="http://e-ivanov.ru/projects/strava-export-gpx/"><text>Strava gpx export</text></link><time>2022-06-19T11:04:18.086Z</time></metadata><trk><name>RR 22/19 - Kessel | Fietsrit | Strava</name><trkseg><trkpt lon="5.742363" lat="51.145191"><ele>20.4</ele><time>2022-06-19T06:00:00.000Z</time></trkpt><trkpt lon="5.742324" lat="51.145219"><ele>20.4</ele><time>2022-06-19T06:00:01.000Z</time></trkpt><trkpt lon="5.742281" lat="51.145254"><ele>20.4</ele><time>2022-06-19T06:00:02.000Z</time></trkpt><trkpt lon="5.742236" lat="51.145286"><ele>20.4</ele><time>2022-06-19T06:00:03.000Z</time></trkpt><trkpt lon="5.742194" lat="51.145316"><ele>20.4</ele><time>2022-06-19T06:00:04.000Z</time></trkpt><trkpt lon="5.74216" lat="51.145346"><ele>20.4</ele><time>2022-06-19T06:00:05.000Z</time></trkpt><trkpt lon="5.742128" lat="51.145377"><ele>20.4</ele><time>2022-06-19T06:00:06.000Z</time></trkpt><trkpt lon="5.742112" lat="51.145408"><ele>20.4</ele><time>2022-06-19T06:00:07.000Z</time></trkpt><trkpt lon="5.742125" lat="51.145442"><ele>20.4</ele><time>2022-06-19T06:00:08.000Z</time></trkpt><trkpt lon="5.742158" lat="51.145465"><ele>20.4</ele><time>2022-06-19T06:00:09.000Z</time></trkpt><trkpt lon="5.742212" lat="51.145481"><ele>20.2</ele><time>2022-06-19T06:00:10.000Z</time></trkpt><trkpt lon="5.742277" lat="51.145496"><ele>20.2</ele><time>2022-06-19T06:00:11.000Z</time></trkpt><trkpt lon="5.742347" lat="51.145511"><ele>20.2</ele><time>2022-06-19T06:00:12.000Z</time></trkpt><trkpt lon="5.742423" lat="51.145527"><ele>20.2</ele><time>2022-06-19T06:00:13.000Z</time></trkpt><trkpt lon="5.7425" lat="51.145541"><ele>20.2</ele><time>2022-06-19T06:00:14.000Z</time></trkpt><trkpt lon="5.742583" lat="51.145553"><ele>20.2</ele><time>2022-06-19T06:00:15.000Z</time></trkpt><trkpt lon="5.742663" lat="51.145572"><ele>20.2</ele><time>2022-06-19T06:00:16.000Z</time></trkpt><trkpt lon="5.742739" lat="51.145591"><ele>20.2</ele><time>2022-06-19T06:00:17.000Z</time></trkpt><trkpt lon="5.742818" lat="51.145603"><ele>20.2</ele><time>2022-06-19T06:00:18.000Z</time></trkpt><trkpt lon="5.742896" lat="51.145621"><ele>20.2</ele><time>2022-06-19T06:00:19.000Z</time></trkpt><trkpt lon="5.742977" lat="51.145633"><ele>20.2</ele><time>2022-06-19T06:00:20.000Z</time></trkpt><trkpt lon="5.743057" lat="51.145645"><ele>20.2</ele><time>2022-06-19T06:00:21.000Z</time></trkpt><trkpt lon="5.743136" lat="51.145649"><ele>20.2</ele><time>2022-06-19T06:00:22.000Z</time></trkpt><trkpt lon="5.743216" lat="51.145656"><ele>20.2</ele><time>2022-06-19T06:00:23.000Z</time></trkpt><trkpt lon="5.743296" lat="51.145657"><ele>20</ele><time>2022-06-19T06:00:24.000Z</time></trkpt><trkpt lon="5.743373" lat="51.145664"><ele>20</ele><time>2022-06-19T06:00:25.000Z</time></trkpt><trkpt lon="5.74345" lat="51.145668"><ele>20</ele><time>2022-06-19T06:00:26.000Z</time></trkpt><trkpt lon="5.74353" lat="51.145668"><ele>20</ele><time>2022-06-19T06:00:27.000Z</time></trkpt><trkpt lon="5.743615" lat="51.145668"><ele>20</ele><time>2022-06-19T06:00:28.000Z</time></trkpt><trkpt lon="5.743701" lat="51.145664"><ele>20</ele><time>2022-06-19T06:00:29.000Z</time></trkpt><trkpt lon="5.743792" lat="51.145668"><ele>20</ele><time>2022-06-19T06:00:30.000Z</time></trkpt><trkpt lon="5.743882" lat="51.145664"><ele>20</ele><time>2022-06-19T06:00:31.000Z</time></trkpt><trkpt lon="5.743973" lat="51.145657"><ele>19.8</ele><time>2022-06-19T06:00:32.000Z</time></trkpt><trkpt lon="5.744066" lat="51.145649"><ele>19.8</ele><time>2022-06-19T06:00:33.000Z</time></trkpt><trkpt lon="5.744154" lat="51.145642"><ele>19.8</ele><time>2022-06-19T06:00:34.000Z</time></trkpt><trkpt lon="5.744249" lat="51.145634"><ele>19.8</ele><time>2022-06-19T06:00:35.000Z</time></trkpt><trkpt lon="5.744343" lat="51.145626"><ele>19.6</ele><time>2022-06-19T06:00:36.000Z</time></trkpt><trkpt lon="5.744433" lat="51.145619"><ele>19.6</ele><time>2022-06-19T06:00:37.000Z</time></trkpt><trkpt lon="5.744526" lat="51.145611"><ele>19.6</ele><time>2022-06-19T06:00:38.000Z</time></trkpt><trkpt lon="5.744619" lat="51.145603"><ele>19.6</ele><time>2022-06-19T06:00:39.000Z</time></trkpt><trkpt lon="5.744713" lat="51.145599"><ele>19.6</ele><time>2022-06-19T06:00:40.000Z</time></trkpt><trkpt lon="5.744803" lat="51.145592"><ele>19.6</ele><time>2022-06-19T06:00:41.000Z</time></trkpt><trkpt lon="5.744888" lat="51.145582"><ele>19.6</ele><time>2022-06-19T06:00:42.000Z</time></trkpt><trkpt lon="5.744989" lat="51.145577"><ele>19.6</ele><time>2022-06-19T06:00:43.000Z</time></trkpt><trkpt lon="5.745079" lat="51.145569"><ele>19.6</ele><time>2022-06-19T06:00:44.000Z</time></trkpt><trkpt lon="5.74517" lat="51.145565"><ele>19.6</ele><time>2022-06-19T06:00:45.000Z</time></trkpt><trkpt lon="5.74527" lat="51.145554"><ele>19.6</ele><time>2022-06-19T06:00:46.000Z</time></trkpt><trkpt lon="5.745363" lat="51.14555"><ele>19.6</ele><time>2022-06-19T06:00:47.000Z</time></trkpt><trkpt lon="5.745455" lat="51.145542"><ele>19.6</ele><time>2022-06-19T06:00:48.000Z</time></trkpt><trkpt lon="5.745546" lat="51.145531"><ele>19.6</ele><time>2022-06-19T06:00:49.000Z</time></trkpt><trkpt lon="5.745628" lat="51.145524"><ele>19.4</ele><time>2022-06-19T06:00:50.000Z</time></trkpt><trkpt lon="5.745731" lat="51.145516"><ele>19.4</ele><time>2022-06-19T06:00:51.000Z</time></trkpt><trkpt lon="5.745822" lat="51.145512"><ele>19.4</ele><time>2022-06-19T06:00:52.000Z</time></trkpt><trkpt lon="5.745913" lat="51.145501"><ele>19.4</ele><time>2022-06-19T06:00:53.000Z</time></trkpt><trkpt lon="5.746013" lat="51.145493"><ele>19.4</ele><time>2022-06-19T06:00:54.000Z</time></trkpt><trkpt lon="5.746102" lat="51.145486"><ele>19.4</ele><time>2022-06-19T06:00:55.000Z</time></trkpt><trkpt lon="5.746199" lat="51.145478"><ele>19.2</ele><time>2022-06-19T06:00:56.000Z</time></trkpt><trkpt lon="5.746295" lat="51.14547"><ele>19.2</ele><time>2022-06-19T06:00:57.000Z</time></trkpt><trkpt lon="5.74639" lat="51.145459"><ele>19.2</ele><time>2022-06-19T06:00:58.000Z</time></trkpt><trkpt lon="5.746484" lat="51.145454"><ele>19.2</ele><time>2022-06-19T06:00:59.000Z</time></trkpt><trkpt lon="5.746578" lat="51.145447"><ele>19</ele><time>2022-06-19T06:01:00.000Z</time></trkpt><trkpt lon="5.746672" lat="51.145439"><ele>19</ele><time>2022-06-19T06:01:01.000Z</time></trkpt><trkpt lon="5.746764" lat="51.145432"><ele>19</ele><time>2022-06-19T06:01:02.000Z</time></trkpt><trkpt lon="5.746862" lat="51.145424"><ele>19</ele><time>2022-06-19T06:01:03.000Z</time></trkpt><trkpt lon="5.746959" lat="51.145416"><ele>19</ele><time>2022-06-19T06:01:04.000Z</time></trkpt><trkpt lon="5.747054" lat="51.145405"><ele>19.2</ele><time>2022-06-19T06:01:05.000Z</time></trkpt><trkpt lon="5.74715" lat="51.145397"><ele>19.2</ele><time>2022-06-19T06:01:06.000Z</time></trkpt><trkpt lon="5.747246" lat="51.145393"><ele>19</ele><time>2022-06-19T06:01:07.000Z</time></trkpt><trkpt lon="5.747336" lat="51.145382"><ele>19</ele><time>2022-06-19T06:01:08.000Z</time></trkpt><trkpt lon="5.747431" lat="51.145374"><ele>19</ele><time>2022-06-19T06:01:09.000Z</time></trkpt><trkpt lon="5.747524" lat="51.145367"><ele>19</ele><time>2022-06-19T06:01:10.000Z</time></trkpt><trkpt lon="5.747621" lat="51.145359"><ele>18.8</ele><time>2022-06-19T06:01:11.000Z</time></trkpt><trkpt lon="5.747711" lat="51.145352"><ele>18.8</ele><time>2022-06-19T06:01:12.000Z</time></trkpt><trkpt lon="5.747809" lat="51.145344"><ele>18.8</ele><time>2022-06-19T06:01:13.000Z</time></trkpt><trkpt lon="5.747904" lat="51.145336"><ele>18.8</ele><time>2022-06-19T06:01:14.000Z</time></trkpt><trkpt lon="5.747996" lat="51.145329"><ele>18.8</ele><time>2022-06-19T06:01:15.000Z</time></trkpt><trkpt lon="5.74809" lat="51.145321"><ele>18.8</ele><time>2022-06-19T06:01:16.000Z</time></trkpt><trkpt lon="5.74818" lat="51.145314"><ele>19</ele><time>2022-06-19T06:01:17.000Z</time></trkpt><trkpt lon="5.748271" lat="51.145306"><ele>18.8</ele><time>2022-06-19T06:01:18.000Z</time></trkpt><trkpt lon="5.748365" lat="51.145298"><ele>18.8</ele><time>2022-06-19T06:01:19.000Z</time></trkpt><trkpt lon="5.748459" lat="51.145291"><ele>18.8</ele><time>2022-06-19T06:01:20.000Z</time></trkpt><trkpt lon="5.74856" lat="51.145283"><ele>19</ele><time>2022-06-19T06:01:21.000Z</time></trkpt><trkpt lon="5.748668" lat="51.145275"><ele>19</ele><time>2022-06-19T06:01:22.000Z</time></trkpt><trkpt lon="5.748771" lat="51.145268"><ele>19</ele><time>2022-06-19T06:01:23.000Z</time></trkpt><trkpt lon="5.748873" lat="51.14526"><ele>18.8</ele><time>2022-06-19T06:01:24.000Z</time></trkpt><trkpt lon="5.748973" lat="51.145256"><ele>18.8</ele><time>2022-06-19T06:01:25.000Z</time></trkpt><trkpt lon="5.74908" lat="51.145252"><ele>18.8</ele><time>2022-06-19T06:01:26.000Z</time></trkpt><trkpt lon="5.749184" lat="51.145245"><ele>18.8</ele><time>2022-06-19T06:01:27.000Z</time></trkpt><trkpt lon="5.749289" lat="51.145237"><ele>18.8</ele><time>2022-06-19T06:01:28.000Z</time></trkpt><trkpt lon="5.74935" lat="51.145235"><ele>18.8</ele><time>2022-06-19T06:01:29.000Z</time></trkpt><trkpt lon="5.74949" lat="51.145226"><ele>18.8</ele><time>2022-06-19T06:01:30.000Z</time></trkpt><trkpt lon="5.749603" lat="51.145222"><ele>18.8</ele><time>2022-06-19T06:01:31.000Z</time></trkpt><trkpt lon="5.749706" lat="51.145214"><ele>18.8</ele><time>2022-06-19T06:01:32.000Z</time></trkpt><trkpt lon="5.749815" lat="51.145207"><ele>18.6</ele><time>2022-06-19T06:01:33.000Z</time></trkpt><trkpt lon="5.749923" lat="51.145199"><ele>18.6</ele><time>2022-06-19T06:01:34.000Z</time></trkpt><trkpt lon="5.750029" lat="51.145191"><ele>18.6</ele><time>2022-06-19T06:01:35.000Z</time></trkpt><trkpt lon="5.750134" lat="51.145184"><ele>18.6</ele><time>2022-06-19T06:01:36.000Z</time></trkpt><trkpt lon="5.750237" lat="51.14518"><ele>18.6</ele><time>2022-06-19T06:01:37.000Z</time></trkpt><trkpt lon="5.750341" lat="51.145172"><ele>18.6</ele><time>2022-06-19T06:01:38.000Z</time></trkpt><trkpt lon="5.750448" lat="51.145168"><ele>18.4</ele><time>2022-06-19T06:01:39.000Z</time></trkpt><trkpt lon="5.750551" lat="51.145161"><ele>18.4</ele><time>2022-06-19T06:01:40.000Z</time></trkpt><trkpt lon="5.750653" lat="51.145153"><ele>18.4</ele><time>2022-06-19T06:01:41.000Z</time></trkpt><trkpt lon="5.750753" lat="51.145146"><ele>18.4</ele><time>2022-06-19T06:01:42.000Z</time></trkpt><trkpt lon="5.750848" lat="51.145134"><ele>18.4</ele><time>2022-06-19T06:01:43.000Z</time></trkpt><trkpt lon="5.750935" lat="51.145121"><ele>18.4</ele><time>2022-06-19T06:01:44.000Z</time></trkpt><trkpt lon="5.751034" lat="51.145112"><ele>18.4</ele><time>2022-06-19T06:01:45.000Z</time></trkpt><trkpt lon="5.751135" lat="51.145104"><ele>18.4</ele><time>2022-06-19T06:01:46.000Z</time></trkpt><trkpt lon="5.751241" lat="51.145096"><ele>18.4</ele><time>2022-06-19T06:01:47.000Z</time></trkpt><trkpt lon="5.751344" lat="51.145088"><ele>18.2</ele><time>2022-06-19T06:01:48.000Z</time></trkpt><trkpt lon="5.751448" lat="51.145084"><ele>18.2</ele><time>2022-06-19T06:01:49.000Z</time></trkpt><trkpt lon="5.751548" lat="51.145077"><ele>18.2</ele><time>2022-06-19T06:01:50.000Z</time></trkpt><trkpt lon="5.751649" lat="51.145077"><ele>18.2</ele><time>2022-06-19T06:01:51.000Z</time></trkpt><trkpt lon="5.751748" lat="51.145069"><ele>18.2</ele><time>2022-06-19T06:01:52.000Z</time></trkpt><trkpt lon="5.751848" lat="51.145062"><ele>18.2</ele><time>2022-06-19T06:01:53.000Z</time></trkpt><trkpt lon="5.751941" lat="51.145058"><ele>18.2</ele><time>2022-06-19T06:01:54.000Z</time></trkpt><trkpt lon="5.752036" lat="51.14505"><ele>18.2</ele><time>2022-06-19T06:01:55.000Z</time></trkpt><trkpt lon="5.752126" lat="51.145046"><ele>18.2</ele><time>2022-06-19T06:01:56.000Z</time></trkpt><trkpt lon="5.752213" lat="51.145039"><ele>18.2</ele><time>2022-06-19T06:01:57.000Z</time></trkpt><trkpt lon="5.7523" lat="51.145035"><ele>18.2</ele><time>2022-06-19T06:01:58.000Z</time></trkpt><trkpt lon="5.752382" lat="51.145027"><ele>18.2</ele><time>2022-06-19T06:01:59.000Z</time></trkpt><trkpt lon="5.752466" lat="51.145023"><ele>18.2</ele><time>2022-06-19T06:02:00.000Z</time></trkpt><trkpt lon="5.752546" lat="51.14502"><ele>18.2</ele><time>2022-06-19T06:02:01.000Z</time></trkpt><trkpt lon="5.752626" lat="51.145012"><ele>18.2</ele><time>2022-06-19T06:02:02.000Z</time></trkpt><trkpt lon="5.752704" lat="51.145008"><ele>18.2</ele><time>2022-06-19T06:02:03.000Z</time></trkpt><trkpt lon="5.752777" lat="51.145004"><ele>18.2</ele><time>2022-06-19T06:02:04.000Z</time></trkpt><trkpt lon="5.75285" lat="51.145001"><ele>18.2</ele><time>2022-06-19T06:02:05.000Z</time></trkpt><trkpt lon="5.752913" lat="51.144997"><ele>18.2</ele><time>2022-06-19T06:02:06.000Z</time></trkpt><trkpt lon="5.752966" lat="51.144993"><ele>18.2</ele><time>2022-06-19T06:02:07.000Z</time></trkpt><trkpt lon="5.753004" lat="51.144989"><ele>18.2</ele><time>2022-06-19T06:02:08.000Z</time></trkpt><trkpt lon="5.75304" lat="51.144985"><ele>18.2</ele><time>2022-06-19T06:02:09.000Z</time></trkpt><trkpt lon="5.753071" lat="51.144978"><ele>18.2</ele><time>2022-06-19T06:02:10.000Z</time></trkpt><trkpt lon="5.753097" lat="51.144978"><ele>18.2</ele><time>2022-06-19T06:02:11.000Z</time></trkpt><trkpt lon="5.753119" lat="51.144985"><ele>18.2</ele><time>2022-06-19T06:02:12.000Z</time></trkpt><trkpt lon="5.753138" lat="51.145"><ele>18.2</ele><time>2022-06-19T06:02:13.000Z</time></trkpt><trkpt lon="5.753156" lat="51.145023"><ele>18</ele><time>2022-06-19T06:02:14.000Z</time></trkpt><trkpt lon="5.753177" lat="51.145053"><ele>18</ele><time>2022-06-19T06:02:15.000Z</time></trkpt><trkpt lon="5.753204" lat="51.145087"><ele>18</ele><time>2022-06-19T06:02:16.000Z</time></trkpt><trkpt lon="5.753245" lat="51.145129"><ele>18</ele><time>2022-06-19T06:02:17.000Z</time></trkpt><trkpt lon="5.753308" lat="51.145167"><ele>18</ele><time>2022-06-19T06:02:18.000Z</time></trkpt><trkpt lon="5.753393" lat="51.145191"><ele>18</ele><time>2022-06-19T06:02:19.000Z</time></trkpt><trkpt lon="5.753489" lat="51.145206"><ele>18</ele><time>2022-06-19T06:02:20.000Z</time></trkpt><trkpt lon="5.753567" lat="51.145218"><ele>18</ele><time>2022-06-19T06:02:21.000Z</time></trkpt><trkpt lon="5.75369" lat="51.145236"><ele>18</ele><time>2022-06-19T06:02:22.000Z</time></trkpt><trkpt lon="5.753754" lat="51.145244"><ele>18</ele><time>2022-06-19T06:02:23.000Z</time></trkpt><trkpt lon="5.753887" lat="51.145265"><ele>18</ele><time>2022-06-19T06:02:24.000Z</time></trkpt><trkpt lon="5.753944" lat="51.145273"><ele>18</ele><time>2022-06-19T06:02:25.000Z</time></trkpt><trkpt lon="5.753992" lat="51.145278"><ele>18</ele><time>2022-06-19T06:02:26.000Z</time></trkpt><trkpt lon="5.754137" lat="51.145297"><ele>17.8</ele><time>2022-06-19T06:02:27.000Z</time></trkpt><trkpt lon="5.754283" lat="51.145317"><ele>17.8</ele><time>2022-06-19T06:02:28.000Z</time></trkpt><trkpt lon="5.754407" lat="51.145335"><ele>17.6</ele><time>2022-06-19T06:02:29.000Z</time></trkpt><trkpt lon="5.754459" lat="51.145343"><ele>17.6</ele><time>2022-06-19T06:02:30.000Z</time></trkpt><trkpt lon="5.754508" lat="51.14535"><ele>17.6</ele><time>2022-06-19T06:02:31.000Z</time></trkpt><trkpt lon="5.754645" lat="51.145368"><ele>17.6</ele><time>2022-06-19T06:02:32.000Z</time></trkpt><trkpt lon="5.754782" lat="51.145386"><ele>17.6</ele><time>2022-06-19T06:02:33.000Z</time></trkpt><trkpt lon="5.754887" lat="51.145404"><ele>17.6</ele><time>2022-06-19T06:02:34.000Z</time></trkpt><trkpt lon="5.754971" lat="51.145418"><ele>17.4</ele><time>2022-06-19T06:02:35.000Z</time></trkpt><trkpt lon="5.755012" lat="51.145424"><ele>17.4</ele><time>2022-06-19T06:02:36.000Z</time></trkpt><trkpt lon="5.755149" lat="51.145448"><ele>17.4</ele><time>2022-06-19T06:02:37.000Z</time></trkpt><trkpt lon="5.755286" lat="51.145472"><ele>17.4</ele><time>2022-06-19T06:02:38.000Z</time></trkpt><trkpt lon="5.755331" lat="51.145482"><ele>17.4</ele><time>2022-06-19T06:02:39.000Z</time></trkpt><trkpt lon="5.755469" lat="51.145524"><ele>17.2</ele><time>2022-06-19T06:02:40.000Z</time></trkpt><trkpt lon="5.755607" lat="51.145566"><ele>17.2</ele><time>2022-06-19T06:02:41.000Z</time></trkpt><trkpt lon="5.755721" lat="51.145617"><ele>17</ele><time>2022-06-19T06:02:42.000Z</time></trkpt><trkpt lon="5.755765" lat="51.145638"><ele>17</ele><time>2022-06-19T06:02:43.000Z</time></trkpt><trkpt lon="5.755805" lat="51.145657"><ele>17</ele><time>2022-06-19T06:02:44.000Z</time></trkpt><trkpt lon="5.75591" lat="51.145716"><ele>17</ele><time>2022-06-19T06:02:45.000Z</time></trkpt><trkpt lon="5.756015" lat="51.145775"><ele>17</ele><time>2022-06-19T06:02:46.000Z</time></trkpt><trkpt lon="5.756115" lat="51.145839"><ele>17</ele><time>2022-06-19T06:02:47.000Z</time></trkpt><trkpt lon="5.756153" lat="51.145865"><ele>17</ele><time>2022-06-19T06:02:48.000Z</time></trkpt><trkpt lon="5.756185" lat="51.145886"><ele>17</ele><time>2022-06-19T06:02:49.000Z</time></trkpt><trkpt lon="5.756288" lat="51.14595"><ele>17</ele><time>2022-06-19T06:02:50.000Z</time></trkpt><trkpt lon="5.756392" lat="51.146013"><ele>16.8</ele><time>2022-06-19T06:02:51.000Z</time></trkpt><trkpt lon="5.756489" lat="51.14607"><ele>16.8</ele><time>2022-06-19T06:02:52.000Z</time></trkpt><trkpt lon="5.756525" lat="51.146091"><ele>16.8</ele><time>2022-06-19T06:02:53.000Z</time></trkpt><trkpt lon="5.756558" lat="51.14611"><ele>16.8</ele><time>2022-06-19T06:02:54.000Z</time></trkpt><trkpt lon="5.756669" lat="51.146172"><ele>16.8</ele><time>2022-06-19T06:02:55.000Z</time></trkpt><trkpt lon="5.756779" lat="51.146233"><ele>16.8</ele><time>2022-06-19T06:02:56.000Z</time></trkpt><trkpt lon="5.756884" lat="51.146285"><ele>16.8</ele><time>2022-06-19T06:02:57.000Z</time></trkpt><trkpt lon="5.756928" lat="51.146308"><ele>16.8</ele><time>2022-06-19T06:02:58.000Z</time></trkpt><trkpt lon="5.757022" lat="51.146355"><ele>16.8</ele><time>2022-06-19T06:02:59.000Z</time></trkpt><trkpt lon="5.757079" lat="51.146383"><ele>16.8</ele><time>2022-06-19T06:03:00.000Z</time></trkpt><trkpt lon="5.757115" lat="51.1464"><ele>16.8</ele><time>2022-06-19T06:03:01.000Z</time></trkpt><trkpt lon="5.757271" lat="51.146471"><ele>16.8</ele><time>2022-06-19T06:03:02.000Z</time></trkpt><trkpt lon="5.757307" lat="51.146492"><ele>16.8</ele><time>2022-06-19T06:03:03.000Z</time></trkpt><trkpt lon="5.757339" lat="51.14651"><ele>16.8</ele><time>2022-06-19T06:03:04.000Z</time></trkpt><trkpt lon="5.757404" lat="51.146584"><ele>16.8</ele><time>2022-06-19T06:03:05.000Z</time></trkpt><trkpt lon="5.757418" lat="51.146624"><ele>16.8</ele><time>2022-06-19T06:03:06.000Z</time></trkpt><trkpt lon="5.757418" lat="51.146659"><ele>16.8</ele><time>2022-06-19T06:03:07.000Z</time></trkpt><trkpt lon="5.757403" lat="51.146688"><ele>16.8</ele><time>2022-06-19T06:03:08.000Z</time></trkpt><trkpt lon="5.757342" lat="51.146768"><ele>16.6</ele><time>2022-06-19T06:03:09.000Z</time></trkpt><trkpt lon="5.757281" lat="51.146847"><ele>16.6</ele><time>2022-06-19T06:03:10.000Z</time></trkpt><trkpt lon="5.757223" lat="51.146924"><ele>16.6</ele><time>2022-06-19T06:03:11.000Z</time></trkpt><trkpt lon="5.757194" lat="51.146965"><ele>16.6</ele><time>2022-06-19T06:03:12.000Z</time></trkpt><trkpt lon="5.757176" lat="51.146994"><ele>16.6</ele><time>2022-06-19T06:03:13.000Z</time></trkpt><trkpt lon="5.757134" lat="51.147085"><ele>16.4</ele><time>2022-06-19T06:03:14.000Z</time></trkpt><trkpt lon="5.757092" lat="51.147176"><ele>16.4</ele><time>2022-06-19T06:03:15.000Z</time></trkpt><trkpt lon="5.757068" lat="51.147253"><ele>16.4</ele><time>2022-06-19T06:03:16.000Z</time></trkpt><trkpt lon="5.757064" lat="51.147285"><ele>16.2</ele><time>2022-06-19T06:03:17.000Z</time></trkpt><trkpt lon="5.75706" lat="51.147313"><ele>16.2</ele><time>2022-06-19T06:03:18.000Z</time></trkpt><trkpt lon="5.757063" lat="51.147416"><ele>16.2</ele><time>2022-06-19T06:03:19.000Z</time></trkpt><trkpt lon="5.757068" lat="51.147453"><ele>16.2</ele><time>2022-06-19T06:03:20.000Z</time></trkpt><trkpt lon="5.757091" lat="51.147531"><ele>16.2</ele><time>2022-06-19T06:03:21.000Z</time></trkpt><trkpt lon="5.757106" lat="51.14757"><ele>16.2</ele><time>2022-06-19T06:03:22.000Z</time></trkpt><trkpt lon="5.757139" lat="51.147656"><ele>16.2</ele><time>2022-06-19T06:03:23.000Z</time></trkpt><trkpt lon="5.757154" lat="51.14769"><ele>16.4</ele><time>2022-06-19T06:03:24.000Z</time></trkpt><trkpt lon="5.757166" lat="51.147718"><ele>16.4</ele><time>2022-06-19T06:03:25.000Z</time></trkpt><trkpt lon="5.757231" lat="51.147836"><ele>16.4</ele><time>2022-06-19T06:03:26.000Z</time></trkpt><trkpt lon="5.757263" lat="51.147885"><ele>16.4</ele><time>2022-06-19T06:03:27.000Z</time></trkpt><trkpt lon="5.757322" lat="51.14797"><ele>16.6</ele><time>2022-06-19T06:03:28.000Z</time></trkpt><trkpt lon="5.757373" lat="51.14803"><ele>16.6</ele><time>2022-06-19T06:03:29.000Z</time></trkpt><trkpt lon="5.757424" lat="51.148089"><ele>16.6</ele><time>2022-06-19T06:03:30.000Z</time></trkpt><trkpt lon="5.757445" lat="51.148114"><ele>16.6</ele><time>2022-06-19T06:03:31.000Z</time></trkpt><trkpt lon="5.757465" lat="51.148138"><ele>16.6</ele><time>2022-06-19T06:03:32.000Z</time></trkpt><trkpt lon="5.757529" lat="51.14822"><ele>16.6</ele><time>2022-06-19T06:03:33.000Z</time></trkpt><trkpt lon="5.757593" lat="51.148302"><ele>16.6</ele><time>2022-06-19T06:03:34.000Z</time></trkpt><trkpt lon="5.757612" lat="51.148332"><ele>16.6</ele><time>2022-06-19T06:03:35.000Z</time></trkpt><trkpt lon="5.757675" lat="51.148453"><ele>16.6</ele><time>2022-06-19T06:03:36.000Z</time></trkpt><trkpt lon="5.757692" lat="51.1485"><ele>16.6</ele><time>2022-06-19T06:03:37.000Z</time></trkpt><trkpt lon="5.757719" lat="51.148591"><ele>16.4</ele><time>2022-06-19T06:03:38.000Z</time></trkpt><trkpt lon="5.757727" lat="51.148622"><ele>16.4</ele><time>2022-06-19T06:03:39.000Z</time></trkpt><trkpt lon="5.757735" lat="51.14865"><ele>16.4</ele><time>2022-06-19T06:03:40.000Z</time></trkpt><trkpt lon="5.757753" lat="51.148743"><ele>16.4</ele><time>2022-06-19T06:03:41.000Z</time></trkpt><trkpt lon="5.757772" lat="51.148835"><ele>16.4</ele><time>2022-06-19T06:03:42.000Z</time></trkpt><trkpt lon="5.757784" lat="51.148925"><ele>16.4</ele><time>2022-06-19T06:03:43.000Z</time></trkpt><trkpt lon="5.757788" lat="51.148956"><ele>16.4</ele><time>2022-06-19T06:03:44.000Z</time></trkpt><trkpt lon="5.757792" lat="51.148982"><ele>16.4</ele><time>2022-06-19T06:03:45.000Z</time></trkpt><trkpt lon="5.757803" lat="51.14907"><ele>16.4</ele><time>2022-06-19T06:03:46.000Z</time></trkpt><trkpt lon="5.757815" lat="51.149158"><ele>16.4</ele><time>2022-06-19T06:03:47.000Z</time></trkpt><trkpt lon="5.757823" lat="51.149203"><ele>16.4</ele><time>2022-06-19T06:03:48.000Z</time></trkpt><trkpt lon="5.757849" lat="51.149311"><ele>16.6</ele><time>2022-06-19T06:03:49.000Z</time></trkpt><trkpt lon="5.757874" lat="51.149369"><ele>16.6</ele><time>2022-06-19T06:03:50.000Z</time></trkpt><trkpt lon="5.757907" lat="51.149435"><ele>16.6</ele><time>2022-06-19T06:03:51.000Z</time></trkpt><trkpt lon="5.757927" lat="51.149468"><ele>16.6</ele><time>2022-06-19T06:03:52.000Z</time></trkpt><trkpt lon="5.757961" lat="51.149519"><ele>16.6</ele><time>2022-06-19T06:03:53.000Z</time></trkpt><trkpt lon="5.758006" lat="51.149576"><ele>16.8</ele><time>2022-06-19T06:03:54.000Z</time></trkpt><trkpt lon="5.758025" lat="51.149599"><ele>16.8</ele><time>2022-06-19T06:03:55.000Z</time></trkpt><trkpt lon="5.758089" lat="51.149675"><ele>16.8</ele><time>2022-06-19T06:03:56.000Z</time></trkpt><trkpt lon="5.758152" lat="51.149752"><ele>16.8</ele><time>2022-06-19T06:03:57.000Z</time></trkpt><trkpt lon="5.758173" lat="51.149778"><ele>16.8</ele><time>2022-06-19T06:03:58.000Z</time></trkpt><trkpt lon="5.758263" lat="51.149891"><ele>16.8</ele><time>2022-06-19T06:03:59.000Z</time></trkpt><trkpt lon="5.758291" lat="51.149925"><ele>16.8</ele><time>2022-06-19T06:04:00.000Z</time></trkpt><trkpt lon="5.758313" lat="51.149952"><ele>16.8</ele><time>2022-06-19T06:04:01.000Z</time></trkpt><trkpt lon="5.75841" lat="51.150067"><ele>16.8</ele><time>2022-06-19T06:04:02.000Z</time></trkpt><trkpt lon="5.75844" lat="51.150099"><ele>16.8</ele><time>2022-06-19T06:04:03.000Z</time></trkpt><trkpt lon="5.758472" lat="51.150133"><ele>16.8</ele><time>2022-06-19T06:04:04.000Z</time></trkpt><trkpt lon="5.758577" lat="51.150232"><ele>16.6</ele><time>2022-06-19T06:04:05.000Z</time></trkpt><trkpt lon="5.75865" lat="51.15029"><ele>16.6</ele><time>2022-06-19T06:04:06.000Z</time></trkpt><trkpt lon="5.758719" lat="51.150343"><ele>16.6</ele><time>2022-06-19T06:04:07.000Z</time></trkpt><trkpt lon="5.758747" lat="51.150362"><ele>16.6</ele><time>2022-06-19T06:04:08.000Z</time></trkpt><trkpt lon="5.758774" lat="51.150381"><ele>16.6</ele><time>2022-06-19T06:04:09.000Z</time></trkpt><trkpt lon="5.758915" lat="51.150461"><ele>16.6</ele><time>2022-06-19T06:04:10.000Z</time></trkpt><trkpt lon="5.758979" lat="51.150494"><ele>16.6</ele><time>2022-06-19T06:04:11.000Z</time></trkpt><trkpt lon="5.759012" lat="51.150511"><ele>16.6</ele><time>2022-06-19T06:04:12.000Z</time></trkpt><trkpt lon="5.759145" lat="51.150572"><ele>16.6</ele><time>2022-06-19T06:04:13.000Z</time></trkpt><trkpt lon="5.759224" lat="51.150606"><ele>16.6</ele><time>2022-06-19T06:04:14.000Z</time></trkpt><trkpt lon="5.759298" lat="51.150638"><ele>16.6</ele><time>2022-06-19T06:04:15.000Z</time></trkpt><trkpt lon="5.75935" lat="51.150657"><ele>16.6</ele><time>2022-06-19T06:04:16.000Z</time></trkpt><trkpt lon="5.759477" lat="51.150703"><ele>16.6</ele><time>2022-06-19T06:04:17.000Z</time></trkpt><trkpt lon="5.759605" lat="51.15075"><ele>16.6</ele><time>2022-06-19T06:04:18.000Z</time></trkpt><trkpt lon="5.759647" lat="51.150766"><ele>16.6</ele><time>2022-06-19T06:04:19.000Z</time></trkpt><trkpt lon="5.759768" lat="51.150809"><ele>16.6</ele><time>2022-06-19T06:04:20.000Z</time></trkpt><trkpt lon="5.759888" lat="51.150852"><ele>16.6</ele><time>2022-06-19T06:04:21.000Z</time></trkpt><trkpt lon="5.760011" lat="51.150898"><ele>16.6</ele><time>2022-06-19T06:04:22.000Z</time></trkpt><trkpt lon="5.760063" lat="51.150918"><ele>16.6</ele><time>2022-06-19T06:04:23.000Z</time></trkpt><trkpt lon="5.760105" lat="51.150936"><ele>16.6</ele><time>2022-06-19T06:04:24.000Z</time></trkpt><trkpt lon="5.76023" lat="51.15099"><ele>16.6</ele><time>2022-06-19T06:04:25.000Z</time></trkpt><trkpt lon="5.760355" lat="51.151044"><ele>16.6</ele><time>2022-06-19T06:04:26.000Z</time></trkpt><trkpt lon="5.760483" lat="51.151101"><ele>16.6</ele><time>2022-06-19T06:04:27.000Z</time></trkpt><trkpt lon="5.760528" lat="51.151124"><ele>16.4</ele><time>2022-06-19T06:04:28.000Z</time></trkpt><trkpt lon="5.760568" lat="51.151145"><ele>16.4</ele><time>2022-06-19T06:04:29.000Z</time></trkpt><trkpt lon="5.760678" lat="51.151201"><ele>16.4</ele><time>2022-06-19T06:04:30.000Z</time></trkpt><trkpt lon="5.760788" lat="51.151257"><ele>16.2</ele><time>2022-06-19T06:04:31.000Z</time></trkpt><trkpt lon="5.760828" lat="51.151278"><ele>16.2</ele><time>2022-06-19T06:04:32.000Z</time></trkpt><trkpt lon="5.760939" lat="51.151326"><ele>16.2</ele><time>2022-06-19T06:04:33.000Z</time></trkpt><trkpt lon="5.761049" lat="51.151374"><ele>16</ele><time>2022-06-19T06:04:34.000Z</time></trkpt><trkpt lon="5.761163" lat="51.151416"><ele>16</ele><time>2022-06-19T06:04:35.000Z</time></trkpt><trkpt lon="5.76123" lat="51.151439"><ele>16</ele><time>2022-06-19T06:04:36.000Z</time></trkpt><trkpt lon="5.761278" lat="51.151454"><ele>16</ele><time>2022-06-19T06:04:37.000Z</time></trkpt><trkpt lon="5.761414" lat="51.151489"><ele>16</ele><time>2022-06-19T06:04:38.000Z</time></trkpt><trkpt lon="5.761551" lat="51.151524"><ele>16</ele><time>2022-06-19T06:04:39.000Z</time></trkpt><trkpt lon="5.76168" lat="51.151553"><ele>16.2</ele><time>2022-06-19T06:04:40.000Z</time></trkpt><trkpt lon="5.761734" lat="51.151565"><ele>16.2</ele><time>2022-06-19T06:04:41.000Z</time></trkpt><trkpt lon="5.761785" lat="51.151577"><ele>16.2</ele><time>2022-06-19T06:04:42.000Z</time></trkpt><trkpt lon="5.761919" lat="51.15161"><ele>16.2</ele><time>2022-06-19T06:04:43.000Z</time></trkpt><trkpt lon="5.762053" lat="51.151642"><ele>16.2</ele><time>2022-06-19T06:04:44.000Z</time></trkpt><trkpt lon="5.762187" lat="51.151674"><ele>16</ele><time>2022-06-19T06:04:45.000Z</time></trkpt><trkpt lon="5.762251" lat="51.151688"><ele>16</ele><time>2022-06-19T06:04:46.000Z</time></trkpt><trkpt lon="5.762376" lat="51.151716"><ele>16</ele><time>2022-06-19T06:04:47.000Z</time></trkpt><trkpt lon="5.76244" lat="51.151731"><ele>16</ele><time>2022-06-19T06:04:48.000Z</time></trkpt><trkpt lon="5.762481" lat="51.15174"><ele>16</ele><time>2022-06-19T06:04:49.000Z</time></trkpt><trkpt lon="5.76262" lat="51.151773"><ele>15.8</ele><time>2022-06-19T06:04:50.000Z</time></trkpt><trkpt lon="5.76276" lat="51.151805"><ele>15.8</ele><time>2022-06-19T06:04:51.000Z</time></trkpt><trkpt lon="5.76281" lat="51.151817"><ele>15.6</ele><time>2022-06-19T06:04:52.000Z</time></trkpt><trkpt lon="5.763006" lat="51.151858"><ele>15.4</ele><time>2022-06-19T06:04:53.000Z</time></trkpt><trkpt lon="5.763067" lat="51.151871"><ele>15.4</ele><time>2022-06-19T06:04:54.000Z</time></trkpt><trkpt lon="5.763189" lat="51.151893"><ele>15.2</ele><time>2022-06-19T06:04:55.000Z</time></trkpt><trkpt lon="5.763234" lat="51.151904"><ele>15.2</ele><time>2022-06-19T06:04:56.000Z</time></trkpt><trkpt lon="5.763276" lat="51.151915"><ele>15.2</ele><time>2022-06-19T06:04:57.000Z</time></trkpt><trkpt lon="5.763444" lat="51.151949"><ele>15.2</ele><time>2022-06-19T06:04:58.000Z</time></trkpt><trkpt lon="5.763492" lat="51.151961"><ele>15.2</ele><time>2022-06-19T06:04:59.000Z</time></trkpt><trkpt lon="5.763586" lat="51.151984"><ele>15.2</ele><time>2022-06-19T06:05:00.000Z</time></trkpt><trkpt lon="5.763642" lat="51.151997"><ele>15.4</ele><time>2022-06-19T06:05:01.000Z</time></trkpt><trkpt lon="5.763679" lat="51.152005"><ele>15.4</ele><time>2022-06-19T06:05:02.000Z</time></trkpt><trkpt lon="5.763812" lat="51.152023"><ele>15.4</ele><time>2022-06-19T06:05:03.000Z</time></trkpt><trkpt lon="5.763946" lat="51.152042"><ele>15.6</ele><time>2022-06-19T06:05:04.000Z</time></trkpt><trkpt lon="5.764068" lat="51.152065"><ele>15.6</ele><time>2022-06-19T06:05:05.000Z</time></trkpt><trkpt lon="5.764145" lat="51.152082"><ele>15.6</ele><time>2022-06-19T06:05:06.000Z</time></trkpt><trkpt lon="5.764263" lat="51.152107"><ele>15.6</ele><time>2022-06-19T06:05:07.000Z</time></trkpt><trkpt lon="5.764337" lat="51.152118"><ele>15.8</ele><time>2022-06-19T06:05:08.000Z</time></trkpt><trkpt lon="5.764457" lat="51.152141"><ele>15.8</ele><time>2022-06-19T06:05:09.000Z</time></trkpt><trkpt lon="5.764527" lat="51.152155"><ele>15.8</ele><time>2022-06-19T06:05:10.000Z</time></trkpt><trkpt lon="5.764655" lat="51.152182"><ele>15.8</ele><time>2022-06-19T06:05:11.000Z</time></trkpt><trkpt lon="5.764734" lat="51.152203"><ele>15.8</ele><time>2022-06-19T06:05:12.000Z</time></trkpt><trkpt lon="5.764867" lat="51.152228"><ele>15.8</ele><time>2022-06-19T06:05:13.000Z</time></trkpt><trkpt lon="5.764955" lat="51.152242"><ele>15.6</ele><time>2022-06-19T06:05:14.000Z</time></trkpt><trkpt lon="5.765074" lat="51.152266"><ele>15.4</ele><time>2022-06-19T06:05:15.000Z</time></trkpt><trkpt lon="5.765148" lat="51.15228"><ele>15.4</ele><time>2022-06-19T06:05:16.000Z</time></trkpt><trkpt lon="5.765293" lat="51.152312"><ele>15.4</ele><time>2022-06-19T06:05:17.000Z</time></trkpt><trkpt lon="5.765379" lat="51.152327"><ele>15.4</ele><time>2022-06-19T06:05:18.000Z</time></trkpt><trkpt lon="5.765512" lat="51.152354"><ele>15.4</ele><time>2022-06-19T06:05:19.000Z</time></trkpt><trkpt lon="5.765594" lat="51.152364"><ele>15.4</ele><time>2022-06-19T06:05:20.000Z</time></trkpt><trkpt lon="5.765726" lat="51.152385"><ele>15.4</ele><time>2022-06-19T06:05:21.000Z</time></trkpt><trkpt lon="5.765806" lat="51.152399"><ele>15.4</ele><time>2022-06-19T06:05:22.000Z</time></trkpt><trkpt lon="5.765939" lat="51.152423"><ele>15.4</ele><time>2022-06-19T06:05:23.000Z</time></trkpt><trkpt lon="5.766016" lat="51.152434"><ele>15.4</ele><time>2022-06-19T06:05:24.000Z</time></trkpt><trkpt lon="5.766147" lat="51.152457"><ele>15.4</ele><time>2022-06-19T06:05:25.000Z</time></trkpt><trkpt lon="5.766222" lat="51.152471"><ele>15.6</ele><time>2022-06-19T06:05:26.000Z</time></trkpt><trkpt lon="5.766348" lat="51.152499"><ele>15.6</ele><time>2022-06-19T06:05:27.000Z</time></trkpt><trkpt lon="5.766434" lat="51.152515"><ele>15.6</ele><time>2022-06-19T06:05:28.000Z</time></trkpt><trkpt lon="5.766539" lat="51.152542"><ele>15.4</ele><time>2022-06-19T06:05:29.000Z</time></trkpt><trkpt lon="5.766614" lat="51.152564"><ele>15.4</ele><time>2022-06-19T06:05:30.000Z</time></trkpt><trkpt lon="5.766753" lat="51.152605"><ele>15.4</ele><time>2022-06-19T06:05:31.000Z</time></trkpt><trkpt lon="5.766824" lat="51.152629"><ele>15.4</ele><time>2022-06-19T06:05:32.000Z</time></trkpt><trkpt lon="5.766959" lat="51.152674"><ele>15.4</ele><time>2022-06-19T06:05:33.000Z</time></trkpt><trkpt lon="5.767023" lat="51.152696"><ele>15.4</ele><time>2022-06-19T06:05:34.000Z</time></trkpt><trkpt lon="5.767146" lat="51.152733"><ele>15.4</ele><time>2022-06-19T06:05:35.000Z</time></trkpt><trkpt lon="5.767223" lat="51.152762"><ele>15.4</ele><time>2022-06-19T06:05:36.000Z</time></trkpt><trkpt lon="5.767345" lat="51.152804"><ele>15.6</ele><time>2022-06-19T06:05:37.000Z</time></trkpt><trkpt lon="5.767411" lat="51.152828"><ele>15.6</ele><time>2022-06-19T06:05:38.000Z</time></trkpt><trkpt lon="5.767536" lat="51.152873"><ele>15.6</ele><time>2022-06-19T06:05:39.000Z</time></trkpt><trkpt lon="5.7676" lat="51.152894"><ele>15.6</ele><time>2022-06-19T06:05:40.000Z</time></trkpt><trkpt lon="5.767722" lat="51.152937"><ele>15.8</ele><time>2022-06-19T06:05:41.000Z</time></trkpt><trkpt lon="5.767789" lat="51.152963"><ele>15.8</ele><time>2022-06-19T06:05:42.000Z</time></trkpt><trkpt lon="5.767904" lat="51.153006"><ele>15.8</ele><time>2022-06-19T06:05:43.000Z</time></trkpt><trkpt lon="5.767969" lat="51.15303"><ele>16</ele><time>2022-06-19T06:05:44.000Z</time></trkpt><trkpt lon="5.768092" lat="51.153071"><ele>16</ele><time>2022-06-19T06:05:45.000Z</time></trkpt><trkpt lon="5.76816" lat="51.153093"><ele>16</ele><time>2022-06-19T06:05:46.000Z</time></trkpt><trkpt lon="5.768285" lat="51.153132"><ele>16.2</ele><time>2022-06-19T06:05:47.000Z</time></trkpt><trkpt lon="5.768331" lat="51.153146"><ele>16.2</ele><time>2022-06-19T06:05:48.000Z</time></trkpt><trkpt lon="5.768374" lat="51.15316"><ele>16.4</ele><time>2022-06-19T06:05:49.000Z</time></trkpt><trkpt lon="5.768525" lat="51.1532"><ele>16.4</ele><time>2022-06-19T06:05:50.000Z</time></trkpt><trkpt lon="5.768677" lat="51.153241"><ele>16.6</ele><time>2022-06-19T06:05:51.000Z</time></trkpt><trkpt lon="5.768788" lat="51.153266"><ele>16.6</ele><time>2022-06-19T06:05:52.000Z</time></trkpt><trkpt lon="5.768893" lat="51.153293"><ele>16.6</ele><time>2022-06-19T06:05:53.000Z</time></trkpt><trkpt lon="5.768994" lat="51.153316"><ele>16.6</ele><time>2022-06-19T06:05:54.000Z</time></trkpt><trkpt lon="5.769089" lat="51.153337"><ele>16.6</ele><time>2022-06-19T06:05:55.000Z</time></trkpt><trkpt lon="5.769201" lat="51.153358"><ele>16.4</ele><time>2022-06-19T06:05:56.000Z</time></trkpt><trkpt lon="5.76929" lat="51.153378"><ele>16.2</ele><time>2022-06-19T06:05:57.000Z</time></trkpt><trkpt lon="5.769405" lat="51.1534"><ele>16.2</ele><time>2022-06-19T06:05:58.000Z</time></trkpt><trkpt lon="5.769476" lat="51.153413"><ele>16</ele><time>2022-06-19T06:05:59.000Z</time></trkpt><trkpt lon="5.769602" lat="51.153438"><ele>16</ele><time>2022-06-19T06:06:00.000Z</time></trkpt><trkpt lon="5.76968" lat="51.15345"><ele>15.8</ele><time>2022-06-19T06:06:01.000Z</time></trkpt><trkpt lon="5.769805" lat="51.153469"><ele>15.8</ele><time>2022-06-19T06:06:02.000Z</time></trkpt><trkpt lon="5.769894" lat="51.153485"><ele>15.8</ele><time>2022-06-19T06:06:03.000Z</time></trkpt><trkpt lon="5.770005" lat="51.153499"><ele>15.8</ele><time>2022-06-19T06:06:04.000Z</time></trkpt><trkpt lon="5.770097" lat="51.153513"><ele>15.8</ele><time>2022-06-19T06:06:05.000Z</time></trkpt><trkpt lon="5.770211" lat="51.153526"><ele>15.8</ele><time>2022-06-19T06:06:06.000Z</time></trkpt><trkpt lon="5.770285" lat="51.153534"><ele>15.8</ele><time>2022-06-19T06:06:07.000Z</time></trkpt><trkpt lon="5.770413" lat="51.153552"><ele>16</ele><time>2022-06-19T06:06:08.000Z</time></trkpt><trkpt lon="5.770504" lat="51.153566"><ele>16</ele><time>2022-06-19T06:06:09.000Z</time></trkpt><trkpt lon="5.770619" lat="51.153583"><ele>16.2</ele><time>2022-06-19T06:06:10.000Z</time></trkpt><trkpt lon="5.770706" lat="51.153596"><ele>16.2</ele><time>2022-06-19T06:06:11.000Z</time></trkpt><trkpt lon="5.770824" lat="51.153617"><ele>16.4</ele><time>2022-06-19T06:06:12.000Z</time></trkpt><trkpt lon="5.770908" lat="51.15363"><ele>16.4</ele><time>2022-06-19T06:06:13.000Z</time></trkpt><trkpt lon="5.771031" lat="51.153655"><ele>16.4</ele><time>2022-06-19T06:06:14.000Z</time></trkpt><trkpt lon="5.771108" lat="51.15367"><ele>16.4</ele><time>2022-06-19T06:06:15.000Z</time></trkpt><trkpt lon="5.771235" lat="51.153697"><ele>16.4</ele><time>2022-06-19T06:06:16.000Z</time></trkpt><trkpt lon="5.771324" lat="51.153714"><ele>16.4</ele><time>2022-06-19T06:06:17.000Z</time></trkpt><trkpt lon="5.77144" lat="51.153739"><ele>16.6</ele><time>2022-06-19T06:06:18.000Z</time></trkpt><trkpt lon="5.771512" lat="51.153753"><ele>16.6</ele><time>2022-06-19T06:06:19.000Z</time></trkpt><trkpt lon="5.771641" lat="51.153781"><ele>16.4</ele><time>2022-06-19T06:06:20.000Z</time></trkpt><trkpt lon="5.771718" lat="51.153795"><ele>16.4</ele><time>2022-06-19T06:06:21.000Z</time></trkpt><trkpt lon="5.771846" lat="51.153823"><ele>16.4</ele><time>2022-06-19T06:06:22.000Z</time></trkpt><trkpt lon="5.771928" lat="51.153841"><ele>16.2</ele><time>2022-06-19T06:06:23.000Z</time></trkpt><trkpt lon="5.772053" lat="51.153868"><ele>16.2</ele><time>2022-06-19T06:06:24.000Z</time></trkpt><trkpt lon="5.772145" lat="51.153889"><ele>16</ele><time>2022-06-19T06:06:25.000Z</time></trkpt><trkpt lon="5.772264" lat="51.153915"><ele>15.8</ele><time>2022-06-19T06:06:26.000Z</time></trkpt><trkpt lon="5.772334" lat="51.153933"><ele>15.8</ele><time>2022-06-19T06:06:27.000Z</time></trkpt><trkpt lon="5.772463" lat="51.153968"><ele>15.6</ele><time>2022-06-19T06:06:28.000Z</time></trkpt><trkpt lon="5.772536" lat="51.153988"><ele>15.6</ele><time>2022-06-19T06:06:29.000Z</time></trkpt><trkpt lon="5.772659" lat="51.154021"><ele>15.6</ele><time>2022-06-19T06:06:30.000Z</time></trkpt><trkpt lon="5.772733" lat="51.154042"><ele>15.6</ele><time>2022-06-19T06:06:31.000Z</time></trkpt><trkpt lon="5.772853" lat="51.154079"><ele>15.6</ele><time>2022-06-19T06:06:32.000Z</time></trkpt><trkpt lon="5.772924" lat="51.154101"><ele>15.4</ele><time>2022-06-19T06:06:33.000Z</time></trkpt><trkpt lon="5.773045" lat="51.154139"><ele>15.6</ele><time>2022-06-19T06:06:34.000Z</time></trkpt><trkpt lon="5.773125" lat="51.154168"><ele>15.6</ele><time>2022-06-19T06:06:35.000Z</time></trkpt><trkpt lon="5.77323" lat="51.154204"><ele>15.6</ele><time>2022-06-19T06:06:36.000Z</time></trkpt><trkpt lon="5.773306" lat="51.154233"><ele>15.6</ele><time>2022-06-19T06:06:37.000Z</time></trkpt><trkpt lon="5.773409" lat="51.154269"><ele>15.4</ele><time>2022-06-19T06:06:38.000Z</time></trkpt><trkpt lon="5.773481" lat="51.15429"><ele>15.4</ele><time>2022-06-19T06:06:39.000Z</time></trkpt><trkpt lon="5.773594" lat="51.154326"><ele>15.4</ele><time>2022-06-19T06:06:40.000Z</time></trkpt><trkpt lon="5.773664" lat="51.15435"><ele>15.6</ele><time>2022-06-19T06:06:41.000Z</time></trkpt><trkpt lon="5.773768" lat="51.154383"><ele>15.6</ele><time>2022-06-19T06:06:42.000Z</time></trkpt><trkpt lon="5.773858" lat="51.154407"><ele>15.6</ele><time>2022-06-19T06:06:43.000Z</time></trkpt><trkpt lon="5.773944" lat="51.154434"><ele>15.6</ele><time>2022-06-19T06:06:44.000Z</time></trkpt><trkpt lon="5.774031" lat="51.154463"><ele>15.6</ele><time>2022-06-19T06:06:45.000Z</time></trkpt><trkpt lon="5.774126" lat="51.154494"><ele>15.6</ele><time>2022-06-19T06:06:46.000Z</time></trkpt><trkpt lon="5.774226" lat="51.154518"><ele>15.8</ele><time>2022-06-19T06:06:47.000Z</time></trkpt><trkpt lon="5.774324" lat="51.154544"><ele>15.8</ele><time>2022-06-19T06:06:48.000Z</time></trkpt><trkpt lon="5.77442" lat="51.154571"><ele>15.8</ele><time>2022-06-19T06:06:49.000Z</time></trkpt><trkpt lon="5.774513" lat="51.154597"><ele>15.8</ele><time>2022-06-19T06:06:50.000Z</time></trkpt><trkpt lon="5.774604" lat="51.154624"><ele>15.8</ele><time>2022-06-19T06:06:51.000Z</time></trkpt><trkpt lon="5.774687" lat="51.154665"><ele>16</ele><time>2022-06-19T06:06:52.000Z</time></trkpt><trkpt lon="5.774767" lat="51.154708"><ele>16</ele><time>2022-06-19T06:06:53.000Z</time></trkpt><trkpt lon="5.774837" lat="51.154761"><ele>16</ele><time>2022-06-19T06:06:54.000Z</time></trkpt><trkpt lon="5.7749" lat="51.154818"><ele>15.8</ele><time>2022-06-19T06:06:55.000Z</time></trkpt><trkpt lon="5.774959" lat="51.154874"><ele>15.6</ele><time>2022-06-19T06:06:56.000Z</time></trkpt><trkpt lon="5.775018" lat="51.15494"><ele>15.6</ele><time>2022-06-19T06:06:57.000Z</time></trkpt><trkpt lon="5.775077" lat="51.154997"><ele>15.4</ele><time>2022-06-19T06:06:58.000Z</time></trkpt><trkpt lon="5.775134" lat="51.155057"><ele>15.4</ele><time>2022-06-19T06:06:59.000Z</time></trkpt><trkpt lon="5.77519" lat="51.155114"><ele>15.4</ele><time>2022-06-19T06:07:00.000Z</time></trkpt><trkpt lon="5.775248" lat="51.155173"><ele>15.2</ele><time>2022-06-19T06:07:01.000Z</time></trkpt><trkpt lon="5.775304" lat="51.155229"><ele>15.2</ele><time>2022-06-19T06:07:02.000Z</time></trkpt><trkpt lon="5.775363" lat="51.155287"><ele>15.2</ele><time>2022-06-19T06:07:03.000Z</time></trkpt><trkpt lon="5.77542" lat="51.155344"><ele>15.2</ele><time>2022-06-19T06:07:04.000Z</time></trkpt><trkpt lon="5.775474" lat="51.155402"><ele>15.2</ele><time>2022-06-19T06:07:05.000Z</time></trkpt><trkpt lon="5.775527" lat="51.155459"><ele>15.2</ele><time>2022-06-19T06:07:06.000Z</time></trkpt><trkpt lon="5.775582" lat="51.155516"><ele>15.2</ele><time>2022-06-19T06:07:07.000Z</time></trkpt><trkpt lon="5.775634" lat="51.155572"><ele>15.2</ele><time>2022-06-19T06:07:08.000Z</time></trkpt><trkpt lon="5.775687" lat="51.155632"><ele>15.2</ele><time>2022-06-19T06:07:09.000Z</time></trkpt><trkpt lon="5.775743" lat="51.155688"><ele>15.2</ele><time>2022-06-19T06:07:10.000Z</time></trkpt><trkpt lon="5.775795" lat="51.155737"><ele>15.2</ele><time>2022-06-19T06:07:11.000Z</time></trkpt><trkpt lon="5.775848" lat="51.155791"><ele>15.2</ele><time>2022-06-19T06:07:12.000Z</time></trkpt><trkpt lon="5.7759" lat="51.155843"><ele>15.2</ele><time>2022-06-19T06:07:13.000Z</time></trkpt><trkpt lon="5.775953" lat="51.155901"><ele>15.2</ele><time>2022-06-19T06:07:14.000Z</time></trkpt><trkpt lon="5.776003" lat="51.155958"><ele>15.4</ele><time>2022-06-19T06:07:15.000Z</time></trkpt><trkpt lon="5.776051" lat="51.156015"><ele>15.4</ele><time>2022-06-19T06:07:16.000Z</time></trkpt><trkpt lon="5.776102" lat="51.156069"><ele>15.4</ele><time>2022-06-19T06:07:17.000Z</time></trkpt><trkpt lon="5.776155" lat="51.156126"><ele>15.2</ele><time>2022-06-19T06:07:18.000Z</time></trkpt><trkpt lon="5.776205" lat="51.156183"><ele>15.2</ele><time>2022-06-19T06:07:19.000Z</time></trkpt><trkpt lon="5.776257" lat="51.15624"><ele>15.4</ele><time>2022-06-19T06:07:20.000Z</time></trkpt><trkpt lon="5.776309" lat="51.156298"><ele>15.4</ele><time>2022-06-19T06:07:21.000Z</time></trkpt><trkpt lon="5.77636" lat="51.156355"><ele>15.2</ele><time>2022-06-19T06:07:22.000Z</time></trkpt><trkpt lon="5.776409" lat="51.156415"><ele>15.2</ele><time>2022-06-19T06:07:23.000Z</time></trkpt><trkpt lon="5.77646" lat="51.156473"><ele>15.4</ele><time>2022-06-19T06:07:24.000Z</time></trkpt><trkpt lon="5.77651" lat="51.156534"><ele>15.6</ele><time>2022-06-19T06:07:25.000Z</time></trkpt><trkpt lon="5.776561" lat="51.156591"><ele>15.8</ele><time>2022-06-19T06:07:26.000Z</time></trkpt><trkpt lon="5.776612" lat="51.156652"><ele>15.6</ele><time>2022-06-19T06:07:27.000Z</time></trkpt><trkpt lon="5.776661" lat="51.156709"><ele>15.6</ele><time>2022-06-19T06:07:28.000Z</time></trkpt><trkpt lon="5.776707" lat="51.156761"><ele>15.6</ele><time>2022-06-19T06:07:29.000Z</time></trkpt><trkpt lon="5.77676" lat="51.156828"><ele>15.6</ele><time>2022-06-19T06:07:30.000Z</time></trkpt><trkpt lon="5.77681" lat="51.156886"><ele>15.6</ele><time>2022-06-19T06:07:31.000Z</time></trkpt><trkpt lon="5.77686" lat="51.156942"><ele>15.6</ele><time>2022-06-19T06:07:32.000Z</time></trkpt><trkpt lon="5.77691" lat="51.157"><ele>15.8</ele><time>2022-06-19T06:07:33.000Z</time></trkpt><trkpt lon="5.77696" lat="51.157055"><ele>15.8</ele><time>2022-06-19T06:07:34.000Z</time></trkpt><trkpt lon="5.777012" lat="51.157118"><ele>16</ele><time>2022-06-19T06:07:35.000Z</time></trkpt><trkpt lon="5.77706" lat="51.157172"><ele>16</ele><time>2022-06-19T06:07:36.000Z</time></trkpt><trkpt lon="5.777112" lat="51.157232"><ele>16</ele><time>2022-06-19T06:07:37.000Z</time></trkpt><trkpt lon="5.77716" lat="51.15729"><ele>15.8</ele><time>2022-06-19T06:07:38.000Z</time></trkpt><trkpt lon="5.777207" lat="51.157351"><ele>15.8</ele><time>2022-06-19T06:07:39.000Z</time></trkpt><trkpt lon="5.777254" lat="51.157412"><ele>15.8</ele><time>2022-06-19T06:07:40.000Z</time></trkpt><trkpt lon="5.777299" lat="51.157473"><ele>15.8</ele><time>2022-06-19T06:07:41.000Z</time></trkpt><trkpt lon="5.77734" lat="51.157537"><ele>15.8</ele><time>2022-06-19T06:07:42.000Z</time></trkpt><trkpt lon="5.77738" lat="51.157598"><ele>15.8</ele><time>2022-06-19T06:07:43.000Z</time></trkpt><trkpt lon="5.777424" lat="51.15766"><ele>15.8</ele><time>2022-06-19T06:07:44.000Z</time></trkpt><trkpt lon="5.777465" lat="51.157724"><ele>15.8</ele><time>2022-06-19T06:07:45.000Z</time></trkpt><trkpt lon="5.777509" lat="51.157785"><ele>15.8</ele><time>2022-06-19T06:07:46.000Z</time></trkpt><trkpt lon="5.777549" lat="51.157846"><ele>15.8</ele><time>2022-06-19T06:07:47.000Z</time></trkpt><trkpt lon="5.777589" lat="51.157911"><ele>15.8</ele><time>2022-06-19T06:07:48.000Z</time></trkpt><trkpt lon="5.777629" lat="51.157976"><ele>15.8</ele><time>2022-06-19T06:07:49.000Z</time></trkpt><trkpt lon="5.77767" lat="51.158037"><ele>16</ele><time>2022-06-19T06:07:50.000Z</time></trkpt><trkpt lon="5.777712" lat="51.158101"><ele>15.8</ele><time>2022-06-19T06:07:51.000Z</time></trkpt><trkpt lon="5.777753" lat="51.158166"><ele>15.8</ele><time>2022-06-19T06:07:52.000Z</time></trkpt><trkpt lon="5.777795" lat="51.158228"><ele>15.8</ele><time>2022-06-19T06:07:53.000Z</time></trkpt><trkpt lon="5.777836" lat="51.158289"><ele>15.8</ele><time>2022-06-19T06:07:54.000Z</time></trkpt><trkpt lon="5.777876" lat="51.15835"><ele>15.6</ele><time>2022-06-19T06:07:55.000Z</time></trkpt><trkpt lon="5.777923" lat="51.15841"><ele>15.6</ele><time>2022-06-19T06:07:56.000Z</time></trkpt><trkpt lon="5.777978" lat="51.158464"><ele>15.8</ele><time>2022-06-19T06:07:57.000Z</time></trkpt><trkpt lon="5.778043" lat="51.15851"><ele>16</ele><time>2022-06-19T06:07:58.000Z</time></trkpt><trkpt lon="5.778115" lat="51.158555"><ele>16.4</ele><time>2022-06-19T06:07:59.000Z</time></trkpt><trkpt lon="5.778193" lat="51.158595"><ele>16.6</ele><time>2022-06-19T06:08:00.000Z</time></trkpt><trkpt lon="5.778273" lat="51.158637"><ele>16.6</ele><time>2022-06-19T06:08:01.000Z</time></trkpt><trkpt lon="5.778353" lat="51.158679"><ele>16.8</ele><time>2022-06-19T06:08:02.000Z</time></trkpt><trkpt lon="5.77843" lat="51.158716"><ele>16.8</ele><time>2022-06-19T06:08:03.000Z</time></trkpt><trkpt lon="5.778509" lat="51.158756"><ele>17</ele><time>2022-06-19T06:08:04.000Z</time></trkpt><trkpt lon="5.778596" lat="51.158801"><ele>17</ele><time>2022-06-19T06:08:05.000Z</time></trkpt><trkpt lon="5.778673" lat="51.158842"><ele>17.2</ele><time>2022-06-19T06:08:06.000Z</time></trkpt><trkpt lon="5.778744" lat="51.158884"><ele>17.2</ele><time>2022-06-19T06:08:07.000Z</time></trkpt><trkpt lon="5.778813" lat="51.158923"><ele>17.2</ele><time>2022-06-19T06:08:08.000Z</time></trkpt><trkpt lon="5.778874" lat="51.158961"><ele>17.2</ele><time>2022-06-19T06:08:09.000Z</time></trkpt><trkpt lon="5.778928" lat="51.159003"><ele>17.4</ele><time>2022-06-19T06:08:10.000Z</time></trkpt><trkpt lon="5.778963" lat="51.159049"><ele>17.4</ele><time>2022-06-19T06:08:11.000Z</time></trkpt><trkpt lon="5.778975" lat="51.159102"><ele>17.4</ele><time>2022-06-19T06:08:12.000Z</time></trkpt><trkpt lon="5.778961" lat="51.159152"><ele>17.4</ele><time>2022-06-19T06:08:13.000Z</time></trkpt><trkpt lon="5.778925" lat="51.159201"><ele>17.4</ele><time>2022-06-19T06:08:14.000Z</time></trkpt><trkpt lon="5.778874" lat="51.159257"><ele>17.4</ele><time>2022-06-19T06:08:15.000Z</time></trkpt><trkpt lon="5.778813" lat="51.159315"><ele>17.4</ele><time>2022-06-19T06:08:16.000Z</time></trkpt><trkpt lon="5.778751" lat="51.159372"><ele>17.4</ele><time>2022-06-19T06:08:17.000Z</time></trkpt><trkpt lon="5.778687" lat="51.15943"><ele>17.4</ele><time>2022-06-19T06:08:18.000Z</time></trkpt><trkpt lon="5.778624" lat="51.159483"><ele>17.2</ele><time>2022-06-19T06:08:19.000Z</time></trkpt><trkpt lon="5.778562" lat="51.15954"><ele>17</ele><time>2022-06-19T06:08:20.000Z</time></trkpt><trkpt lon="5.778498" lat="51.159596"><ele>17</ele><time>2022-06-19T06:08:21.000Z</time></trkpt><trkpt lon="5.778429" lat="51.159651"><ele>16.8</ele><time>2022-06-19T06:08:22.000Z</time></trkpt><trkpt lon="5.778356" lat="51.159704"><ele>16.8</ele><time>2022-06-19T06:08:23.000Z</time></trkpt><trkpt lon="5.778279" lat="51.159758"><ele>16.8</ele><time>2022-06-19T06:08:24.000Z</time></trkpt><trkpt lon="5.778203" lat="51.159807"><ele>16.8</ele><time>2022-06-19T06:08:25.000Z</time></trkpt><trkpt lon="5.778122" lat="51.159857"><ele>16.8</ele><time>2022-06-19T06:08:26.000Z</time></trkpt><trkpt lon="5.778045" lat="51.159906"><ele>16.8</ele><time>2022-06-19T06:08:27.000Z</time></trkpt><trkpt lon="5.777965" lat="51.159956"><ele>16.6</ele><time>2022-06-19T06:08:28.000Z</time></trkpt><trkpt lon="5.777889" lat="51.160005"><ele>16.6</ele><time>2022-06-19T06:08:29.000Z</time></trkpt><trkpt lon="5.777809" lat="51.160052"><ele>16.6</ele><time>2022-06-19T06:08:30.000Z</time></trkpt><trkpt lon="5.777732" lat="51.160105"><ele>16.6</ele><time>2022-06-19T06:08:31.000Z</time></trkpt><trkpt lon="5.777651" lat="51.160151"><ele>16.4</ele><time>2022-06-19T06:08:32.000Z</time></trkpt><trkpt lon="5.777573" lat="51.160199"><ele>16.4</ele><time>2022-06-19T06:08:33.000Z</time></trkpt><trkpt lon="5.777503" lat="51.160249"><ele>16.4</ele><time>2022-06-19T06:08:34.000Z</time></trkpt><trkpt lon="5.777423" lat="51.160304"><ele>16.4</ele><time>2022-06-19T06:08:35.000Z</time></trkpt><trkpt lon="5.777362" lat="51.160364"><ele>16.4</ele><time>2022-06-19T06:08:36.000Z</time></trkpt><trkpt lon="5.777312" lat="51.160425"><ele>16.2</ele><time>2022-06-19T06:08:37.000Z</time></trkpt><trkpt lon="5.777273" lat="51.160494"><ele>16.2</ele><time>2022-06-19T06:08:38.000Z</time></trkpt><trkpt lon="5.777241" lat="51.160558"><ele>16.4</ele><time>2022-06-19T06:08:39.000Z</time></trkpt><trkpt lon="5.777213" lat="51.160623"><ele>16.4</ele><time>2022-06-19T06:08:40.000Z</time></trkpt><trkpt lon="5.777183" lat="51.160688"><ele>16.4</ele><time>2022-06-19T06:08:41.000Z</time></trkpt><trkpt lon="5.777153" lat="51.160756"><ele>16.4</ele><time>2022-06-19T06:08:42.000Z</time></trkpt><trkpt lon="5.777127" lat="51.160818"><ele>16.4</ele><time>2022-06-19T06:08:43.000Z</time></trkpt><trkpt lon="5.777106" lat="51.160887"><ele>16.4</ele><time>2022-06-19T06:08:44.000Z</time></trkpt><trkpt lon="5.77709" lat="51.160955"><ele>16.4</ele><time>2022-06-19T06:08:45.000Z</time></trkpt><trkpt lon="5.777082" lat="51.161023"><ele>16.4</ele><time>2022-06-19T06:08:46.000Z</time></trkpt><trkpt lon="5.777082" lat="51.161089"><ele>16.2</ele><time>2022-06-19T06:08:47.000Z</time></trkpt><trkpt lon="5.77709" lat="51.161158"><ele>16.2</ele><time>2022-06-19T06:08:48.000Z</time></trkpt><trkpt lon="5.777104" lat="51.161223"><ele>16.2</ele><time>2022-06-19T06:08:49.000Z</time></trkpt><trkpt lon="5.777123" lat="51.161291"><ele>16</ele><time>2022-06-19T06:08:50.000Z</time></trkpt><trkpt lon="5.777144" lat="51.161359"><ele>16</ele><time>2022-06-19T06:08:51.000Z</time></trkpt><trkpt lon="5.777166" lat="51.161425"><ele>16</ele><time>2022-06-19T06:08:52.000Z</time></trkpt><trkpt lon="5.777189" lat="51.161485"><ele>16.2</ele><time>2022-06-19T06:08:53.000Z</time></trkpt><trkpt lon="5.777211" lat="51.16155"><ele>16.4</ele><time>2022-06-19T06:08:54.000Z</time></trkpt><trkpt lon="5.777231" lat="51.161614"><ele>16.6</ele><time>2022-06-19T06:08:55.000Z</time></trkpt><trkpt lon="5.777252" lat="51.161679"><ele>16.8</ele><time>2022-06-19T06:08:56.000Z</time></trkpt><trkpt lon="5.777276" lat="51.161748"><ele>16.8</ele><time>2022-06-19T06:08:57.000Z</time></trkpt><trkpt lon="5.777301" lat="51.161821"><ele>16.8</ele><time>2022-06-19T06:08:58.000Z</time></trkpt><trkpt lon="5.777332" lat="51.161889"><ele>16.6</ele><time>2022-06-19T06:08:59.000Z</time></trkpt><trkpt lon="5.777369" lat="51.161959"><ele>16.6</ele><time>2022-06-19T06:09:00.000Z</time></trkpt><trkpt lon="5.777412" lat="51.162023"><ele>16.6</ele><time>2022-06-19T06:09:01.000Z</time></trkpt><trkpt lon="5.777456" lat="51.162084"><ele>16.6</ele><time>2022-06-19T06:09:02.000Z</time></trkpt><trkpt lon="5.777507" lat="51.162153"><ele>16.6</ele><time>2022-06-19T06:09:03.000Z</time></trkpt><trkpt lon="5.777556" lat="51.162214"><ele>16.6</ele><time>2022-06-19T06:09:04.000Z</time></trkpt><trkpt lon="5.777602" lat="51.162276"><ele>16.6</ele><time>2022-06-19T06:09:05.000Z</time></trkpt><trkpt lon="5.777642" lat="51.162337"><ele>16.6</ele><time>2022-06-19T06:09:06.000Z</time></trkpt><trkpt lon="5.777666" lat="51.162402"><ele>16.8</ele><time>2022-06-19T06:09:07.000Z</time></trkpt><trkpt lon="5.777665" lat="51.162459"><ele>16.8</ele><time>2022-06-19T06:09:08.000Z</time></trkpt><trkpt lon="5.777639" lat="51.162516"><ele>17</ele><time>2022-06-19T06:09:09.000Z</time></trkpt><trkpt lon="5.777588" lat="51.162569"><ele>17</ele><time>2022-06-19T06:09:10.000Z</time></trkpt><trkpt lon="5.777521" lat="51.162615"><ele>17.2</ele><time>2022-06-19T06:09:11.000Z</time></trkpt><trkpt lon="5.777437" lat="51.16265"><ele>17.4</ele><time>2022-06-19T06:09:12.000Z</time></trkpt><trkpt lon="5.777349" lat="51.162684"><ele>17.4</ele><time>2022-06-19T06:09:13.000Z</time></trkpt><trkpt lon="5.777256" lat="51.162719"><ele>17.6</ele><time>2022-06-19T06:09:14.000Z</time></trkpt><trkpt lon="5.777162" lat="51.162749"><ele>17.6</ele><time>2022-06-19T06:09:15.000Z</time></trkpt><trkpt lon="5.777066" lat="51.16278"><ele>17.8</ele><time>2022-06-19T06:09:16.000Z</time></trkpt><trkpt lon="5.776969" lat="51.162807"><ele>18</ele><time>2022-06-19T06:09:17.000Z</time></trkpt><trkpt lon="5.776874" lat="51.162829"><ele>18</ele><time>2022-06-19T06:09:18.000Z</time></trkpt><trkpt lon="5.77678" lat="51.162852"><ele>18.2</ele><time>2022-06-19T06:09:19.000Z</time></trkpt><trkpt lon="5.776679" lat="51.162875"><ele>18.4</ele><time>2022-06-19T06:09:20.000Z</time></trkpt><trkpt lon="5.776581" lat="51.162895"><ele>18.4</ele><time>2022-06-19T06:09:21.000Z</time></trkpt><trkpt lon="5.776487" lat="51.162917"><ele>18.6</ele><time>2022-06-19T06:09:22.000Z</time></trkpt><trkpt lon="5.776391" lat="51.16294"><ele>18.6</ele><time>2022-06-19T06:09:23.000Z</time></trkpt><trkpt lon="5.7763" lat="51.162959"><ele>18.8</ele><time>2022-06-19T06:09:24.000Z</time></trkpt><trkpt lon="5.776211" lat="51.162978"><ele>18.8</ele><time>2022-06-19T06:09:25.000Z</time></trkpt><trkpt lon="5.776119" lat="51.162997"><ele>19</ele><time>2022-06-19T06:09:26.000Z</time></trkpt><trkpt lon="5.77603" lat="51.163017"><ele>19</ele><time>2022-06-19T06:09:27.000Z</time></trkpt><trkpt lon="5.775952" lat="51.163042"><ele>19</ele><time>2022-06-19T06:09:28.000Z</time></trkpt><trkpt lon="5.775885" lat="51.163079"><ele>19</ele><time>2022-06-19T06:09:29.000Z</time></trkpt><trkpt lon="5.775846" lat="51.16313"><ele>19</ele><time>2022-06-19T06:09:30.000Z</time></trkpt><trkpt lon="5.775856" lat="51.16318"><ele>19.2</ele><time>2022-06-19T06:09:31.000Z</time></trkpt><trkpt lon="5.775909" lat="51.163215"><ele>19.2</ele><time>2022-06-19T06:09:32.000Z</time></trkpt><trkpt lon="5.775992" lat="51.163234"><ele>19.2</ele><time>2022-06-19T06:09:33.000Z</time></trkpt><trkpt lon="5.776091" lat="51.163238"><ele>19.2</ele><time>2022-06-19T06:09:34.000Z</time></trkpt><trkpt lon="5.776197" lat="51.163239"><ele>19.2</ele><time>2022-06-19T06:09:35.000Z</time></trkpt><trkpt lon="5.776301" lat="51.163242"><ele>19</ele><time>2022-06-19T06:09:36.000Z</time></trkpt><trkpt lon="5.776404" lat="51.163242"><ele>19</ele><time>2022-06-19T06:09:37.000Z</time></trkpt><trkpt lon="5.776508" lat="51.16325"><ele>19</ele><time>2022-06-19T06:09:38.000Z</time></trkpt><trkpt lon="5.77661" lat="51.163257"><ele>19</ele><time>2022-06-19T06:09:39.000Z</time></trkpt><trkpt lon="5.776708" lat="51.163265"><ele>19</ele><time>2022-06-19T06:09:40.000Z</time></trkpt><trkpt lon="5.776803" lat="51.163284"><ele>19</ele><time>2022-06-19T06:09:41.000Z</time></trkpt><trkpt lon="5.776896" lat="51.16331"><ele>18.8</ele><time>2022-06-19T06:09:42.000Z</time></trkpt><trkpt lon="5.776977" lat="51.163344"><ele>18.8</ele><time>2022-06-19T06:09:43.000Z</time></trkpt><trkpt lon="5.777056" lat="51.163382"><ele>18.8</ele><time>2022-06-19T06:09:44.000Z</time></trkpt><trkpt lon="5.777135" lat="51.163424"><ele>18.8</ele><time>2022-06-19T06:09:45.000Z</time></trkpt><trkpt lon="5.777214" lat="51.163466"><ele>19</ele><time>2022-06-19T06:09:46.000Z</time></trkpt><trkpt lon="5.777295" lat="51.163511"><ele>19</ele><time>2022-06-19T06:09:47.000Z</time></trkpt><trkpt lon="5.777379" lat="51.163554"><ele>19</ele><time>2022-06-19T06:09:48.000Z</time></trkpt><trkpt lon="5.777463" lat="51.163592"><ele>18.8</ele><time>2022-06-19T06:09:49.000Z</time></trkpt><trkpt lon="5.777548" lat="51.163633"><ele>18.8</ele><time>2022-06-19T06:09:50.000Z</time></trkpt><trkpt lon="5.777633" lat="51.163676"><ele>18.8</ele><time>2022-06-19T06:09:51.000Z</time></trkpt><trkpt lon="5.777719" lat="51.163714"><ele>18.6</ele><time>2022-06-19T06:09:52.000Z</time></trkpt><trkpt lon="5.777805" lat="51.163756"><ele>18.6</ele><time>2022-06-19T06:09:53.000Z</time></trkpt><trkpt lon="5.777893" lat="51.163798"><ele>18.4</ele><time>2022-06-19T06:09:54.000Z</time></trkpt><trkpt lon="5.777977" lat="51.163836"><ele>18.4</ele><time>2022-06-19T06:09:55.000Z</time></trkpt><trkpt lon="5.778064" lat="51.163878"><ele>18.4</ele><time>2022-06-19T06:09:56.000Z</time></trkpt><trkpt lon="5.778147" lat="51.163919"><ele>18.4</ele><time>2022-06-19T06:09:57.000Z</time></trkpt><trkpt lon="5.778234" lat="51.163962"><ele>18.4</ele><time>2022-06-19T06:09:58.000Z</time></trkpt><trkpt lon="5.778319" lat="51.164"><ele>18.4</ele><time>2022-06-19T06:09:59.000Z</time></trkpt><trkpt lon="5.778405" lat="51.164042"><ele>18.4</ele><time>2022-06-19T06:10:00.000Z</time></trkpt><trkpt lon="5.778486" lat="51.164078"><ele>18.4</ele><time>2022-06-19T06:10:01.000Z</time></trkpt><trkpt lon="5.778576" lat="51.164123"><ele>18.4</ele><time>2022-06-19T06:10:02.000Z</time></trkpt><trkpt lon="5.77866" lat="51.164164"><ele>18.4</ele><time>2022-06-19T06:10:03.000Z</time></trkpt><trkpt lon="5.778744" lat="51.164203"><ele>18.4</ele><time>2022-06-19T06:10:04.000Z</time></trkpt><trkpt lon="5.778829" lat="51.164244"><ele>18.4</ele><time>2022-06-19T06:10:05.000Z</time></trkpt><trkpt lon="5.778913" lat="51.164286"><ele>18.4</ele><time>2022-06-19T06:10:06.000Z</time></trkpt><trkpt lon="5.778995" lat="51.164324"><ele>18.4</ele><time>2022-06-19T06:10:07.000Z</time></trkpt><trkpt lon="5.77908" lat="51.164362"><ele>18.4</ele><time>2022-06-19T06:10:08.000Z</time></trkpt><trkpt lon="5.779168" lat="51.164405"><ele>18.4</ele><time>2022-06-19T06:10:09.000Z</time></trkpt><trkpt lon="5.77925" lat="51.164443"><ele>18.4</ele><time>2022-06-19T06:10:10.000Z</time></trkpt><trkpt lon="5.779332" lat="51.164484"><ele>18.4</ele><time>2022-06-19T06:10:11.000Z</time></trkpt><trkpt lon="5.779414" lat="51.164523"><ele>18.4</ele><time>2022-06-19T06:10:12.000Z</time></trkpt><trkpt lon="5.779496" lat="51.164565"><ele>18.6</ele><time>2022-06-19T06:10:13.000Z</time></trkpt><trkpt lon="5.779579" lat="51.164603"><ele>18.4</ele><time>2022-06-19T06:10:14.000Z</time></trkpt><trkpt lon="5.779664" lat="51.164645"><ele>18.4</ele><time>2022-06-19T06:10:15.000Z</time></trkpt><trkpt lon="5.779747" lat="51.164683"><ele>18.6</ele><time>2022-06-19T06:10:16.000Z</time></trkpt><trkpt lon="5.779831" lat="51.164725"><ele>18.6</ele><time>2022-06-19T06:10:17.000Z</time></trkpt><trkpt lon="5.779911" lat="51.164763"><ele>18.6</ele><time>2022-06-19T06:10:18.000Z</time></trkpt><trkpt lon="5.779985" lat="51.164805"><ele>18.6</ele><time>2022-06-19T06:10:19.000Z</time></trkpt><trkpt lon="5.78006" lat="51.164843"><ele>18.6</ele><time>2022-06-19T06:10:20.000Z</time></trkpt><trkpt lon="5.780138" lat="51.164881"><ele>18.6</ele><time>2022-06-19T06:10:21.000Z</time></trkpt><trkpt lon="5.780216" lat="51.16492"><ele>18.6</ele><time>2022-06-19T06:10:22.000Z</time></trkpt><trkpt lon="5.780295" lat="51.164957"><ele>18.6</ele><time>2022-06-19T06:10:23.000Z</time></trkpt><trkpt lon="5.780379" lat="51.164992"><ele>18.6</ele><time>2022-06-19T06:10:24.000Z</time></trkpt><trkpt lon="5.780469" lat="51.165023"><ele>18.6</ele><time>2022-06-19T06:10:25.000Z</time></trkpt><trkpt lon="5.780555" lat="51.16505"><ele>18.8</ele><time>2022-06-19T06:10:26.000Z</time></trkpt><trkpt lon="5.780639" lat="51.165073"><ele>18.8</ele><time>2022-06-19T06:10:27.000Z</time></trkpt><trkpt lon="5.780718" lat="51.165084"><ele>19</ele><time>2022-06-19T06:10:28.000Z</time></trkpt><trkpt lon="5.7808" lat="51.165088"><ele>19</ele><time>2022-06-19T06:10:29.000Z</time></trkpt><trkpt lon="5.780893" lat="51.165089"><ele>19</ele><time>2022-06-19T06:10:30.000Z</time></trkpt><trkpt lon="5.780987" lat="51.165085"><ele>19</ele><time>2022-06-19T06:10:31.000Z</time></trkpt><trkpt lon="5.781077" lat="51.165074"><ele>19</ele><time>2022-06-19T06:10:32.000Z</time></trkpt><trkpt lon="5.781163" lat="51.16507"><ele>19</ele><time>2022-06-19T06:10:33.000Z</time></trkpt><trkpt lon="5.781242" lat="51.165062"><ele>19</ele><time>2022-06-19T06:10:34.000Z</time></trkpt><trkpt lon="5.781328" lat="51.165058"><ele>19</ele><time>2022-06-19T06:10:35.000Z</time></trkpt><trkpt lon="5.781415" lat="51.165051"><ele>19</ele><time>2022-06-19T06:10:36.000Z</time></trkpt><trkpt lon="5.781513" lat="51.165051"><ele>19</ele><time>2022-06-19T06:10:37.000Z</time></trkpt><trkpt lon="5.781606" lat="51.165047"><ele>19.2</ele><time>2022-06-19T06:10:38.000Z</time></trkpt><trkpt lon="5.781696" lat="51.165039"><ele>19.2</ele><time>2022-06-19T06:10:39.000Z</time></trkpt><trkpt lon="5.781784" lat="51.165032"><ele>19.2</ele><time>2022-06-19T06:10:40.000Z</time></trkpt><trkpt lon="5.781871" lat="51.165028"><ele>19.4</ele><time>2022-06-19T06:10:41.000Z</time></trkpt><trkpt lon="5.781961" lat="51.165024"><ele>19.4</ele><time>2022-06-19T06:10:42.000Z</time></trkpt><trkpt lon="5.782054" lat="51.165024"><ele>19.4</ele><time>2022-06-19T06:10:43.000Z</time></trkpt><trkpt lon="5.782145" lat="51.165017"><ele>19.4</ele><time>2022-06-19T06:10:44.000Z</time></trkpt><trkpt lon="5.78224" lat="51.165009"><ele>19.6</ele><time>2022-06-19T06:10:45.000Z</time></trkpt><trkpt lon="5.782327" lat="51.165005"><ele>19.6</ele><time>2022-06-19T06:10:46.000Z</time></trkpt><trkpt lon="5.782416" lat="51.165001"><ele>19.8</ele><time>2022-06-19T06:10:47.000Z</time></trkpt><trkpt lon="5.782529" lat="51.164994"><ele>19.8</ele><time>2022-06-19T06:10:48.000Z</time></trkpt><trkpt lon="5.782638" lat="51.164986"><ele>19.6</ele><time>2022-06-19T06:10:49.000Z</time></trkpt><trkpt lon="5.782756" lat="51.164975"><ele>19.4</ele><time>2022-06-19T06:10:50.000Z</time></trkpt><trkpt lon="5.78287" lat="51.164967"><ele>19.4</ele><time>2022-06-19T06:10:51.000Z</time></trkpt><trkpt lon="5.782985" lat="51.164959"><ele>19.4</ele><time>2022-06-19T06:10:52.000Z</time></trkpt><trkpt lon="5.783084" lat="51.164955"><ele>19.2</ele><time>2022-06-19T06:10:53.000Z</time></trkpt><trkpt lon="5.783171" lat="51.164952"><ele>19.4</ele><time>2022-06-19T06:10:54.000Z</time></trkpt><trkpt lon="5.783265" lat="51.164944"><ele>19.4</ele><time>2022-06-19T06:10:55.000Z</time></trkpt><trkpt lon="5.783351" lat="51.16494"><ele>19.2</ele><time>2022-06-19T06:10:56.000Z</time></trkpt><trkpt lon="5.783433" lat="51.16494"><ele>19.2</ele><time>2022-06-19T06:10:57.000Z</time></trkpt><trkpt lon="5.783511" lat="51.16494"><ele>19</ele><time>2022-06-19T06:10:58.000Z</time></trkpt><trkpt lon="5.783592" lat="51.16494"><ele>18.8</ele><time>2022-06-19T06:10:59.000Z</time></trkpt><trkpt lon="5.783671" lat="51.164936"><ele>18.8</ele><time>2022-06-19T06:11:00.000Z</time></trkpt><trkpt lon="5.783753" lat="51.164932"><ele>18.8</ele><time>2022-06-19T06:11:01.000Z</time></trkpt><trkpt lon="5.783852" lat="51.164932"><ele>18.8</ele><time>2022-06-19T06:11:02.000Z</time></trkpt><trkpt lon="5.783957" lat="51.164925"><ele>18.8</ele><time>2022-06-19T06:11:03.000Z</time></trkpt><trkpt lon="5.784104" lat="51.164902"><ele>18.8</ele><time>2022-06-19T06:11:04.000Z</time></trkpt><trkpt lon="5.784257" lat="51.164872"><ele>18.8</ele><time>2022-06-19T06:11:05.000Z</time></trkpt><trkpt lon="5.784381" lat="51.164856"><ele>18.8</ele><time>2022-06-19T06:11:06.000Z</time></trkpt><trkpt lon="5.784505" lat="51.164841"><ele>18.8</ele><time>2022-06-19T06:11:07.000Z</time></trkpt><trkpt lon="5.784641" lat="51.164822"><ele>18.8</ele><time>2022-06-19T06:11:08.000Z</time></trkpt><trkpt lon="5.784757" lat="51.164807"><ele>18.8</ele><time>2022-06-19T06:11:09.000Z</time></trkpt><trkpt lon="5.784861" lat="51.164788"><ele>18.8</ele><time>2022-06-19T06:11:10.000Z</time></trkpt><trkpt lon="5.784968" lat="51.164765"><ele>18.8</ele><time>2022-06-19T06:11:11.000Z</time></trkpt><trkpt lon="5.785076" lat="51.164738"><ele>18.8</ele><time>2022-06-19T06:11:12.000Z</time></trkpt><trkpt lon="5.785173" lat="51.164719"><ele>18.8</ele><time>2022-06-19T06:11:13.000Z</time></trkpt><trkpt lon="5.785284" lat="51.164693"><ele>18.8</ele><time>2022-06-19T06:11:14.000Z</time></trkpt><trkpt lon="5.785394" lat="51.164666"><ele>18.8</ele><time>2022-06-19T06:11:15.000Z</time></trkpt><trkpt lon="5.78551" lat="51.164636"><ele>18.8</ele><time>2022-06-19T06:11:16.000Z</time></trkpt><trkpt lon="5.785632" lat="51.164601"><ele>19</ele><time>2022-06-19T06:11:17.000Z</time></trkpt><trkpt lon="5.785738" lat="51.164572"><ele>19</ele><time>2022-06-19T06:11:18.000Z</time></trkpt><trkpt lon="5.785836" lat="51.164552"><ele>19</ele><time>2022-06-19T06:11:19.000Z</time></trkpt><trkpt lon="5.785937" lat="51.164529"><ele>19</ele><time>2022-06-19T06:11:20.000Z</time></trkpt><trkpt lon="5.786038" lat="51.16451"><ele>19</ele><time>2022-06-19T06:11:21.000Z</time></trkpt><trkpt lon="5.786133" lat="51.164494"><ele>19</ele><time>2022-06-19T06:11:22.000Z</time></trkpt><trkpt lon="5.786218" lat="51.164482"><ele>19</ele><time>2022-06-19T06:11:23.000Z</time></trkpt><trkpt lon="5.786293" lat="51.164475"><ele>19</ele><time>2022-06-19T06:11:24.000Z</time></trkpt><trkpt lon="5.786364" lat="51.164471"><ele>19.2</ele><time>2022-06-19T06:11:25.000Z</time></trkpt><trkpt lon="5.786449" lat="51.164467"><ele>19.2</ele><time>2022-06-19T06:11:26.000Z</time></trkpt><trkpt lon="5.786526" lat="51.164471"><ele>19.2</ele><time>2022-06-19T06:11:27.000Z</time></trkpt><trkpt lon="5.786593" lat="51.164478"><ele>19.2</ele><time>2022-06-19T06:11:28.000Z</time></trkpt><trkpt lon="5.786654" lat="51.164482"><ele>19</ele><time>2022-06-19T06:11:29.000Z</time></trkpt><trkpt lon="5.786717" lat="51.164489"><ele>19</ele><time>2022-06-19T06:11:30.000Z</time></trkpt><trkpt lon="5.786791" lat="51.16449"><ele>19.2</ele><time>2022-06-19T06:11:31.000Z</time></trkpt><trkpt lon="5.786861" lat="51.164493"><ele>19.2</ele><time>2022-06-19T06:11:32.000Z</time></trkpt><trkpt lon="5.786946" lat="51.164501"><ele>19.2</ele><time>2022-06-19T06:11:33.000Z</time></trkpt><trkpt lon="5.787026" lat="51.164505"><ele>19.2</ele><time>2022-06-19T06:11:34.000Z</time></trkpt><trkpt lon="5.787117" lat="51.164512"><ele>19.2</ele><time>2022-06-19T06:11:35.000Z</time></trkpt><trkpt lon="5.787198" lat="51.164531"><ele>19.2</ele><time>2022-06-19T06:11:36.000Z</time></trkpt><trkpt lon="5.787323" lat="51.164517"><ele>19.2</ele><time>2022-06-19T06:11:37.000Z</time></trkpt><trkpt lon="5.787414" lat="51.164538"><ele>19.2</ele><time>2022-06-19T06:11:38.000Z</time></trkpt><trkpt lon="5.787516" lat="51.164562"><ele>19.2</ele><time>2022-06-19T06:11:39.000Z</time></trkpt><trkpt lon="5.787584" lat="51.164606"><ele>19.2</ele><time>2022-06-19T06:11:40.000Z</time></trkpt><trkpt lon="5.787676" lat="51.164652"><ele>19.2</ele><time>2022-06-19T06:11:41.000Z</time></trkpt><trkpt lon="5.787747" lat="51.164701"><ele>19.2</ele><time>2022-06-19T06:11:42.000Z</time></trkpt><trkpt lon="5.787795" lat="51.164747"><ele>19.2</ele><time>2022-06-19T06:11:43.000Z</time></trkpt><trkpt lon="5.787867" lat="51.164782"><ele>19.2</ele><time>2022-06-19T06:11:44.000Z</time></trkpt><trkpt lon="5.787931" lat="51.16482"><ele>19.2</ele><time>2022-06-19T06:11:45.000Z</time></trkpt><trkpt lon="5.788003" lat="51.164859"><ele>19.2</ele><time>2022-06-19T06:11:46.000Z</time></trkpt><trkpt lon="5.788063" lat="51.164897"><ele>19.2</ele><time>2022-06-19T06:11:47.000Z</time></trkpt><trkpt lon="5.788143" lat="51.164923"><ele>19.2</ele><time>2022-06-19T06:11:48.000Z</time></trkpt><trkpt lon="5.788212" lat="51.164957"><ele>19.2</ele><time>2022-06-19T06:11:49.000Z</time></trkpt><trkpt lon="5.788284" lat="51.164988"><ele>19.4</ele><time>2022-06-19T06:11:50.000Z</time></trkpt><trkpt lon="5.788355" lat="51.16503"><ele>19.4</ele><time>2022-06-19T06:11:51.000Z</time></trkpt><trkpt lon="5.788422" lat="51.165082"><ele>19.4</ele><time>2022-06-19T06:11:52.000Z</time></trkpt><trkpt lon="5.788481" lat="51.165129"><ele>19.4</ele><time>2022-06-19T06:11:53.000Z</time></trkpt><trkpt lon="5.788534" lat="51.165179"><ele>19.6</ele><time>2022-06-19T06:11:54.000Z</time></trkpt><trkpt lon="5.788587" lat="51.165228"><ele>19.6</ele><time>2022-06-19T06:11:55.000Z</time></trkpt><trkpt lon="5.788642" lat="51.165288"><ele>19.6</ele><time>2022-06-19T06:11:56.000Z</time></trkpt><trkpt lon="5.788686" lat="51.165347"><ele>19.6</ele><time>2022-06-19T06:11:57.000Z</time></trkpt><trkpt lon="5.788717" lat="51.1654"><ele>19.6</ele><time>2022-06-19T06:11:58.000Z</time></trkpt><trkpt lon="5.788757" lat="51.16546"><ele>19.6</ele><time>2022-06-19T06:11:59.000Z</time></trkpt><trkpt lon="5.788784" lat="51.165525"><ele>19.4</ele><time>2022-06-19T06:12:00.000Z</time></trkpt><trkpt lon="5.788809" lat="51.165589"><ele>19.4</ele><time>2022-06-19T06:12:01.000Z</time></trkpt><trkpt lon="5.788832" lat="51.165654"><ele>19.4</ele><time>2022-06-19T06:12:02.000Z</time></trkpt><trkpt lon="5.788862" lat="51.165719"><ele>19.4</ele><time>2022-06-19T06:12:03.000Z</time></trkpt><trkpt lon="5.788891" lat="51.165785"><ele>19.4</ele><time>2022-06-19T06:12:04.000Z</time></trkpt><trkpt lon="5.788918" lat="51.165853"><ele>19.4</ele><time>2022-06-19T06:12:05.000Z</time></trkpt><trkpt lon="5.788948" lat="51.165926"><ele>19.4</ele><time>2022-06-19T06:12:06.000Z</time></trkpt><trkpt lon="5.788971" lat="51.165995"><ele>19.4</ele><time>2022-06-19T06:12:07.000Z</time></trkpt><trkpt lon="5.789005" lat="51.166062"><ele>19.4</ele><time>2022-06-19T06:12:08.000Z</time></trkpt><trkpt lon="5.789043" lat="51.166129"><ele>19.4</ele><time>2022-06-19T06:12:09.000Z</time></trkpt><trkpt lon="5.789082" lat="51.1662"><ele>19.2</ele><time>2022-06-19T06:12:10.000Z</time></trkpt><trkpt lon="5.789113" lat="51.166273"><ele>19.2</ele><time>2022-06-19T06:12:11.000Z</time></trkpt><trkpt lon="5.789137" lat="51.166341"><ele>19.2</ele><time>2022-06-19T06:12:12.000Z</time></trkpt><trkpt lon="5.789162" lat="51.16641"><ele>19</ele><time>2022-06-19T06:12:13.000Z</time></trkpt><trkpt lon="5.789188" lat="51.16648"><ele>19</ele><time>2022-06-19T06:12:14.000Z</time></trkpt><trkpt lon="5.789228" lat="51.166555"><ele>19</ele><time>2022-06-19T06:12:15.000Z</time></trkpt><trkpt lon="5.78927" lat="51.166627"><ele>18.8</ele><time>2022-06-19T06:12:16.000Z</time></trkpt><trkpt lon="5.789319" lat="51.166699"><ele>18.8</ele><time>2022-06-19T06:12:17.000Z</time></trkpt><trkpt lon="5.789382" lat="51.166769"><ele>18.8</ele><time>2022-06-19T06:12:18.000Z</time></trkpt><trkpt lon="5.789447" lat="51.166829"><ele>18.6</ele><time>2022-06-19T06:12:19.000Z</time></trkpt><trkpt lon="5.789516" lat="51.166888"><ele>18.6</ele><time>2022-06-19T06:12:20.000Z</time></trkpt><trkpt lon="5.78959" lat="51.166944"><ele>18.6</ele><time>2022-06-19T06:12:21.000Z</time></trkpt><trkpt lon="5.78966" lat="51.167005"><ele>18.6</ele><time>2022-06-19T06:12:22.000Z</time></trkpt><trkpt lon="5.789727" lat="51.167062"><ele>18.6</ele><time>2022-06-19T06:12:23.000Z</time></trkpt><trkpt lon="5.789793" lat="51.167116"><ele>18.6</ele><time>2022-06-19T06:12:24.000Z</time></trkpt><trkpt lon="5.789861" lat="51.167172"><ele>18.4</ele><time>2022-06-19T06:12:25.000Z</time></trkpt><trkpt lon="5.789921" lat="51.167231"><ele>18.4</ele><time>2022-06-19T06:12:26.000Z</time></trkpt><trkpt lon="5.789983" lat="51.167288"><ele>18.4</ele><time>2022-06-19T06:12:27.000Z</time></trkpt><trkpt lon="5.790045" lat="51.167342"><ele>18.2</ele><time>2022-06-19T06:12:28.000Z</time></trkpt><trkpt lon="5.790102" lat="51.16739"><ele>18.2</ele><time>2022-06-19T06:12:29.000Z</time></trkpt><trkpt lon="5.790171" lat="51.167452"><ele>18</ele><time>2022-06-19T06:12:30.000Z</time></trkpt><trkpt lon="5.79024" lat="51.167512"><ele>18</ele><time>2022-06-19T06:12:31.000Z</time></trkpt><trkpt lon="5.79032" lat="51.16757"><ele>18</ele><time>2022-06-19T06:12:32.000Z</time></trkpt><trkpt lon="5.790385" lat="51.167623"><ele>17.8</ele><time>2022-06-19T06:12:33.000Z</time></trkpt><trkpt lon="5.790448" lat="51.167677"><ele>17.8</ele><time>2022-06-19T06:12:34.000Z</time></trkpt><trkpt lon="5.790513" lat="51.167726"><ele>17.8</ele><time>2022-06-19T06:12:35.000Z</time></trkpt><trkpt lon="5.790577" lat="51.167781"><ele>18</ele><time>2022-06-19T06:12:36.000Z</time></trkpt><trkpt lon="5.790638" lat="51.167826"><ele>18</ele><time>2022-06-19T06:12:37.000Z</time></trkpt><trkpt lon="5.790707" lat="51.167871"><ele>18</ele><time>2022-06-19T06:12:38.000Z</time></trkpt><trkpt lon="5.790765" lat="51.167902"><ele>18.2</ele><time>2022-06-19T06:12:39.000Z</time></trkpt><trkpt lon="5.790826" lat="51.167926"><ele>18.2</ele><time>2022-06-19T06:12:40.000Z</time></trkpt><trkpt lon="5.790877" lat="51.167945"><ele>18.4</ele><time>2022-06-19T06:12:41.000Z</time></trkpt><trkpt lon="5.79092" lat="51.16796"><ele>18.4</ele><time>2022-06-19T06:12:42.000Z</time></trkpt><trkpt lon="5.790955" lat="51.167972"><ele>18.6</ele><time>2022-06-19T06:12:43.000Z</time></trkpt><trkpt lon="5.790989" lat="51.16798"><ele>18.6</ele><time>2022-06-19T06:12:44.000Z</time></trkpt><trkpt lon="5.791026" lat="51.167991"><ele>18.6</ele><time>2022-06-19T06:12:45.000Z</time></trkpt><trkpt lon="5.791062" lat="51.16801"><ele>18.8</ele><time>2022-06-19T06:12:46.000Z</time></trkpt><trkpt lon="5.791099" lat="51.168029"><ele>18.8</ele><time>2022-06-19T06:12:47.000Z</time></trkpt><trkpt lon="5.791126" lat="51.168055"><ele>18.8</ele><time>2022-06-19T06:12:48.000Z</time></trkpt><trkpt lon="5.791127" lat="51.16809"><ele>18.8</ele><time>2022-06-19T06:12:49.000Z</time></trkpt><trkpt lon="5.791103" lat="51.168127"><ele>18.8</ele><time>2022-06-19T06:12:50.000Z</time></trkpt><trkpt lon="5.791067" lat="51.168177"><ele>18.6</ele><time>2022-06-19T06:12:51.000Z</time></trkpt><trkpt lon="5.791037" lat="51.168235"><ele>18.4</ele><time>2022-06-19T06:12:52.000Z</time></trkpt><trkpt lon="5.791008" lat="51.168294"><ele>18.2</ele><time>2022-06-19T06:12:53.000Z</time></trkpt><trkpt lon="5.790987" lat="51.168356"><ele>18</ele><time>2022-06-19T06:12:54.000Z</time></trkpt><trkpt lon="5.790974" lat="51.168416"><ele>18</ele><time>2022-06-19T06:12:55.000Z</time></trkpt><trkpt lon="5.790965" lat="51.168481"><ele>17.8</ele><time>2022-06-19T06:12:56.000Z</time></trkpt><trkpt lon="5.790957" lat="51.168543"><ele>17.6</ele><time>2022-06-19T06:12:57.000Z</time></trkpt><trkpt lon="5.790955" lat="51.168611"><ele>17.4</ele><time>2022-06-19T06:12:58.000Z</time></trkpt><trkpt lon="5.790953" lat="51.168676"><ele>17.4</ele><time>2022-06-19T06:12:59.000Z</time></trkpt><trkpt lon="5.790955" lat="51.168744"><ele>17.4</ele><time>2022-06-19T06:13:00.000Z</time></trkpt><trkpt lon="5.790958" lat="51.168808"><ele>17.2</ele><time>2022-06-19T06:13:01.000Z</time></trkpt><trkpt lon="5.790963" lat="51.168878"><ele>17.2</ele><time>2022-06-19T06:13:02.000Z</time></trkpt><trkpt lon="5.790968" lat="51.168947"><ele>17</ele><time>2022-06-19T06:13:03.000Z</time></trkpt><trkpt lon="5.790968" lat="51.16901"><ele>17</ele><time>2022-06-19T06:13:04.000Z</time></trkpt><trkpt lon="5.79097" lat="51.16908"><ele>17</ele><time>2022-06-19T06:13:05.000Z</time></trkpt><trkpt lon="5.790972" lat="51.169149"><ele>17</ele><time>2022-06-19T06:13:06.000Z</time></trkpt><trkpt lon="5.790976" lat="51.169217"><ele>17</ele><time>2022-06-19T06:13:07.000Z</time></trkpt><trkpt lon="5.790983" lat="51.169286"><ele>17</ele><time>2022-06-19T06:13:08.000Z</time></trkpt><trkpt lon="5.790988" lat="51.169358"><ele>17</ele><time>2022-06-19T06:13:09.000Z</time></trkpt><trkpt lon="5.790998" lat="51.169427"><ele>16.8</ele><time>2022-06-19T06:13:10.000Z</time></trkpt><trkpt lon="5.791005" lat="51.169499"><ele>16.8</ele><time>2022-06-19T06:13:11.000Z</time></trkpt><trkpt lon="5.79101" lat="51.16957"><ele>16.8</ele><time>2022-06-19T06:13:12.000Z</time></trkpt><trkpt lon="5.791018" lat="51.16964"><ele>16.8</ele><time>2022-06-19T06:13:13.000Z</time></trkpt><trkpt lon="5.791026" lat="51.169709"><ele>16.8</ele><time>2022-06-19T06:13:14.000Z</time></trkpt><trkpt lon="5.791038" lat="51.169782"><ele>16.8</ele><time>2022-06-19T06:13:15.000Z</time></trkpt><trkpt lon="5.791048" lat="51.16985"><ele>16.8</ele><time>2022-06-19T06:13:16.000Z</time></trkpt><trkpt lon="5.791058" lat="51.16992"><ele>16.8</ele><time>2022-06-19T06:13:17.000Z</time></trkpt><trkpt lon="5.791066" lat="51.169988"><ele>16.8</ele><time>2022-06-19T06:13:18.000Z</time></trkpt><trkpt lon="5.791073" lat="51.170057"><ele>16.8</ele><time>2022-06-19T06:13:19.000Z</time></trkpt><trkpt lon="5.79108" lat="51.170129"><ele>16.8</ele><time>2022-06-19T06:13:20.000Z</time></trkpt><trkpt lon="5.791085" lat="51.170198"><ele>16.8</ele><time>2022-06-19T06:13:21.000Z</time></trkpt><trkpt lon="5.791088" lat="51.170266"><ele>16.8</ele><time>2022-06-19T06:13:22.000Z</time></trkpt><trkpt lon="5.791093" lat="51.170339"><ele>16.8</ele><time>2022-06-19T06:13:23.000Z</time></trkpt><trkpt lon="5.791097" lat="51.170408"><ele>17</ele><time>2022-06-19T06:13:24.000Z</time></trkpt><trkpt lon="5.791098" lat="51.170476"><ele>17</ele><time>2022-06-19T06:13:25.000Z</time></trkpt><trkpt lon="5.791101" lat="51.170543"><ele>17</ele><time>2022-06-19T06:13:26.000Z</time></trkpt><trkpt lon="5.791105" lat="51.170614"><ele>17</ele><time>2022-06-19T06:13:27.000Z</time></trkpt><trkpt lon="5.791108" lat="51.170683"><ele>17</ele><time>2022-06-19T06:13:28.000Z</time></trkpt><trkpt lon="5.791111" lat="51.170751"><ele>17</ele><time>2022-06-19T06:13:29.000Z</time></trkpt><trkpt lon="5.791113" lat="51.170822"><ele>17</ele><time>2022-06-19T06:13:30.000Z</time></trkpt><trkpt lon="5.791115" lat="51.170895"><ele>17</ele><time>2022-06-19T06:13:31.000Z</time></trkpt><trkpt lon="5.791117" lat="51.170964"><ele>17</ele><time>2022-06-19T06:13:32.000Z</time></trkpt><trkpt lon="5.79112" lat="51.171034"><ele>17</ele><time>2022-06-19T06:13:33.000Z</time></trkpt><trkpt lon="5.791121" lat="51.171101"><ele>17</ele><time>2022-06-19T06:13:34.000Z</time></trkpt><trkpt lon="5.791125" lat="51.171169"><ele>17</ele><time>2022-06-19T06:13:35.000Z</time></trkpt><trkpt lon="5.79113" lat="51.17124"><ele>17</ele><time>2022-06-19T06:13:36.000Z</time></trkpt><trkpt lon="5.791131" lat="51.171307"><ele>16.8</ele><time>2022-06-19T06:13:37.000Z</time></trkpt><trkpt lon="5.791133" lat="51.171377"><ele>16.8</ele><time>2022-06-19T06:13:38.000Z</time></trkpt><trkpt lon="5.791133" lat="51.171449"><ele>16.8</ele><time>2022-06-19T06:13:39.000Z</time></trkpt><trkpt lon="5.791132" lat="51.171518"><ele>16.8</ele><time>2022-06-19T06:13:40.000Z</time></trkpt><trkpt lon="5.791132" lat="51.17159"><ele>16.8</ele><time>2022-06-19T06:13:41.000Z</time></trkpt><trkpt lon="5.79113" lat="51.171662"><ele>16.8</ele><time>2022-06-19T06:13:42.000Z</time></trkpt><trkpt lon="5.791125" lat="51.171736"><ele>16.8</ele><time>2022-06-19T06:13:43.000Z</time></trkpt><trkpt lon="5.791123" lat="51.171808"><ele>17</ele><time>2022-06-19T06:13:44.000Z</time></trkpt><trkpt lon="5.791115" lat="51.171877"><ele>17.2</ele><time>2022-06-19T06:13:45.000Z</time></trkpt><trkpt lon="5.791112" lat="51.171924"><ele>17.4</ele><time>2022-06-19T06:13:46.000Z</time></trkpt><trkpt lon="5.791105" lat="51.172015"><ele>17.4</ele><time>2022-06-19T06:13:47.000Z</time></trkpt><trkpt lon="5.791093" lat="51.172085"><ele>17.4</ele><time>2022-06-19T06:13:48.000Z</time></trkpt><trkpt lon="5.791082" lat="51.172152"><ele>17.2</ele><time>2022-06-19T06:13:49.000Z</time></trkpt><trkpt lon="5.791069" lat="51.172217"><ele>17.2</ele><time>2022-06-19T06:13:50.000Z</time></trkpt><trkpt lon="5.791056" lat="51.17228"><ele>17.2</ele><time>2022-06-19T06:13:51.000Z</time></trkpt><trkpt lon="5.791045" lat="51.172339"><ele>17.4</ele><time>2022-06-19T06:13:52.000Z</time></trkpt><trkpt lon="5.791039" lat="51.172392"><ele>17.4</ele><time>2022-06-19T06:13:53.000Z</time></trkpt><trkpt lon="5.79104" lat="51.172438"><ele>17.6</ele><time>2022-06-19T06:13:54.000Z</time></trkpt><trkpt lon="5.791066" lat="51.172477"><ele>17.6</ele><time>2022-06-19T06:13:55.000Z</time></trkpt><trkpt lon="5.79112" lat="51.172504"><ele>17.6</ele><time>2022-06-19T06:13:56.000Z</time></trkpt><trkpt lon="5.791185" lat="51.172534"><ele>17.6</ele><time>2022-06-19T06:13:57.000Z</time></trkpt><trkpt lon="5.791253" lat="51.172563"><ele>17.6</ele><time>2022-06-19T06:13:58.000Z</time></trkpt><trkpt lon="5.791336" lat="51.172603"><ele>17.4</ele><time>2022-06-19T06:13:59.000Z</time></trkpt><trkpt lon="5.791418" lat="51.172641"><ele>17.4</ele><time>2022-06-19T06:14:00.000Z</time></trkpt><trkpt lon="5.791499" lat="51.172683"><ele>17.4</ele><time>2022-06-19T06:14:01.000Z</time></trkpt><trkpt lon="5.791583" lat="51.172721"><ele>17.4</ele><time>2022-06-19T06:14:02.000Z</time></trkpt><trkpt lon="5.791668" lat="51.172762"><ele>17.6</ele><time>2022-06-19T06:14:03.000Z</time></trkpt><trkpt lon="5.791752" lat="51.1728"><ele>17.6</ele><time>2022-06-19T06:14:04.000Z</time></trkpt><trkpt lon="5.791838" lat="51.172839"><ele>17.8</ele><time>2022-06-19T06:14:05.000Z</time></trkpt><trkpt lon="5.791925" lat="51.172881"><ele>18</ele><time>2022-06-19T06:14:06.000Z</time></trkpt><trkpt lon="5.792011" lat="51.172923"><ele>18</ele><time>2022-06-19T06:14:07.000Z</time></trkpt><trkpt lon="5.792096" lat="51.172965"><ele>17.8</ele><time>2022-06-19T06:14:08.000Z</time></trkpt><trkpt lon="5.792184" lat="51.173007"><ele>17.6</ele><time>2022-06-19T06:14:09.000Z</time></trkpt><trkpt lon="5.792272" lat="51.173045"><ele>17.6</ele><time>2022-06-19T06:14:10.000Z</time></trkpt><trkpt lon="5.792358" lat="51.173087"><ele>17.6</ele><time>2022-06-19T06:14:11.000Z</time></trkpt><trkpt lon="5.792444" lat="51.173129"><ele>17.4</ele><time>2022-06-19T06:14:12.000Z</time></trkpt><trkpt lon="5.792529" lat="51.173167"><ele>17.4</ele><time>2022-06-19T06:14:13.000Z</time></trkpt><trkpt lon="5.792616" lat="51.173209"><ele>17.4</ele><time>2022-06-19T06:14:14.000Z</time></trkpt><trkpt lon="5.792704" lat="51.173251"><ele>17.4</ele><time>2022-06-19T06:14:15.000Z</time></trkpt><trkpt lon="5.79279" lat="51.173289"><ele>17.4</ele><time>2022-06-19T06:14:16.000Z</time></trkpt><trkpt lon="5.792874" lat="51.173331"><ele>17.4</ele><time>2022-06-19T06:14:17.000Z</time></trkpt><trkpt lon="5.79296" lat="51.173374"><ele>17.4</ele><time>2022-06-19T06:14:18.000Z</time></trkpt><trkpt lon="5.793041" lat="51.173414"><ele>17.4</ele><time>2022-06-19T06:14:19.000Z</time></trkpt><trkpt lon="5.793131" lat="51.173453"><ele>17.4</ele><time>2022-06-19T06:14:20.000Z</time></trkpt><trkpt lon="5.793213" lat="51.173495"><ele>17.4</ele><time>2022-06-19T06:14:21.000Z</time></trkpt><trkpt lon="5.793294" lat="51.17354"><ele>17.2</ele><time>2022-06-19T06:14:22.000Z</time></trkpt><trkpt lon="5.793372" lat="51.173591"><ele>17.2</ele><time>2022-06-19T06:14:23.000Z</time></trkpt><trkpt lon="5.793443" lat="51.173639"><ele>17.2</ele><time>2022-06-19T06:14:24.000Z</time></trkpt><trkpt lon="5.793515" lat="51.173697"><ele>17</ele><time>2022-06-19T06:14:25.000Z</time></trkpt><trkpt lon="5.79358" lat="51.173751"><ele>16.8</ele><time>2022-06-19T06:14:26.000Z</time></trkpt><trkpt lon="5.79364" lat="51.173812"><ele>16.8</ele><time>2022-06-19T06:14:27.000Z</time></trkpt><trkpt lon="5.793695" lat="51.173867"><ele>16.6</ele><time>2022-06-19T06:14:28.000Z</time></trkpt><trkpt lon="5.793743" lat="51.173925"><ele>16.6</ele><time>2022-06-19T06:14:29.000Z</time></trkpt><trkpt lon="5.793793" lat="51.173988"><ele>16.6</ele><time>2022-06-19T06:14:30.000Z</time></trkpt><trkpt lon="5.793843" lat="51.174052"><ele>16.6</ele><time>2022-06-19T06:14:31.000Z</time></trkpt><trkpt lon="5.793887" lat="51.174119"><ele>16.6</ele><time>2022-06-19T06:14:32.000Z</time></trkpt><trkpt lon="5.793929" lat="51.174186"><ele>16.6</ele><time>2022-06-19T06:14:33.000Z</time></trkpt><trkpt lon="5.793968" lat="51.174249"><ele>16.6</ele><time>2022-06-19T06:14:34.000Z</time></trkpt><trkpt lon="5.79401" lat="51.174311"><ele>16.6</ele><time>2022-06-19T06:14:35.000Z</time></trkpt><trkpt lon="5.794051" lat="51.174372"><ele>16.6</ele><time>2022-06-19T06:14:36.000Z</time></trkpt><trkpt lon="5.794091" lat="51.174437"><ele>16.8</ele><time>2022-06-19T06:14:37.000Z</time></trkpt><trkpt lon="5.794127" lat="51.174501"><ele>16.6</ele><time>2022-06-19T06:14:38.000Z</time></trkpt><trkpt lon="5.794168" lat="51.174567"><ele>16.6</ele><time>2022-06-19T06:14:39.000Z</time></trkpt><trkpt lon="5.794204" lat="51.174628"><ele>16.6</ele><time>2022-06-19T06:14:40.000Z</time></trkpt><trkpt lon="5.794242" lat="51.174688"><ele>16.6</ele><time>2022-06-19T06:14:41.000Z</time></trkpt><trkpt lon="5.794281" lat="51.174754"><ele>16.8</ele><time>2022-06-19T06:14:42.000Z</time></trkpt><trkpt lon="5.794319" lat="51.174819"><ele>16.8</ele><time>2022-06-19T06:14:43.000Z</time></trkpt><trkpt lon="5.794356" lat="51.17488"><ele>16.8</ele><time>2022-06-19T06:14:44.000Z</time></trkpt><trkpt lon="5.794394" lat="51.174944"><ele>16.8</ele><time>2022-06-19T06:14:45.000Z</time></trkpt><trkpt lon="5.794432" lat="51.175005"><ele>16.8</ele><time>2022-06-19T06:14:46.000Z</time></trkpt><trkpt lon="5.794468" lat="51.175068"><ele>16.8</ele><time>2022-06-19T06:14:47.000Z</time></trkpt><trkpt lon="5.794507" lat="51.175131"><ele>16.8</ele><time>2022-06-19T06:14:48.000Z</time></trkpt><trkpt lon="5.794545" lat="51.175195"><ele>16.8</ele><time>2022-06-19T06:14:49.000Z</time></trkpt><trkpt lon="5.794586" lat="51.175261"><ele>16.8</ele><time>2022-06-19T06:14:50.000Z</time></trkpt><trkpt lon="5.794625" lat="51.175321"><ele>16.8</ele><time>2022-06-19T06:14:51.000Z</time></trkpt><trkpt lon="5.794662" lat="51.175384"><ele>16.8</ele><time>2022-06-19T06:14:52.000Z</time></trkpt><trkpt lon="5.794698" lat="51.175438"><ele>17</ele><time>2022-06-19T06:14:53.000Z</time></trkpt><trkpt lon="5.794742" lat="51.175509"><ele>17</ele><time>2022-06-19T06:14:54.000Z</time></trkpt><trkpt lon="5.794781" lat="51.175567"><ele>17</ele><time>2022-06-19T06:14:55.000Z</time></trkpt><trkpt lon="5.794824" lat="51.175633"><ele>17</ele><time>2022-06-19T06:14:56.000Z</time></trkpt><trkpt lon="5.794869" lat="51.175703"><ele>17</ele><time>2022-06-19T06:14:57.000Z</time></trkpt><trkpt lon="5.794909" lat="51.175765"><ele>17</ele><time>2022-06-19T06:14:58.000Z</time></trkpt><trkpt lon="5.79495" lat="51.175825"><ele>17</ele><time>2022-06-19T06:14:59.000Z</time></trkpt><trkpt lon="5.794992" lat="51.17589"><ele>17</ele><time>2022-06-19T06:15:00.000Z</time></trkpt><trkpt lon="5.795034" lat="51.175955"><ele>17</ele><time>2022-06-19T06:15:01.000Z</time></trkpt><trkpt lon="5.795075" lat="51.176015"><ele>17</ele><time>2022-06-19T06:15:02.000Z</time></trkpt><trkpt lon="5.795119" lat="51.176081"><ele>17</ele><time>2022-06-19T06:15:03.000Z</time></trkpt><trkpt lon="5.795161" lat="51.176142"><ele>17</ele><time>2022-06-19T06:15:04.000Z</time></trkpt><trkpt lon="5.795198" lat="51.176201"><ele>17</ele><time>2022-06-19T06:15:05.000Z</time></trkpt><trkpt lon="5.795244" lat="51.176268"><ele>17</ele><time>2022-06-19T06:15:06.000Z</time></trkpt><trkpt lon="5.795285" lat="51.176332"><ele>17.2</ele><time>2022-06-19T06:15:07.000Z</time></trkpt><trkpt lon="5.795327" lat="51.176394"><ele>17.2</ele><time>2022-06-19T06:15:08.000Z</time></trkpt><trkpt lon="5.79537" lat="51.176455"><ele>17.2</ele><time>2022-06-19T06:15:09.000Z</time></trkpt><trkpt lon="5.795419" lat="51.176516"><ele>17.2</ele><time>2022-06-19T06:15:10.000Z</time></trkpt><trkpt lon="5.795474" lat="51.176573"><ele>17.2</ele><time>2022-06-19T06:15:11.000Z</time></trkpt><trkpt lon="5.795532" lat="51.176625"><ele>17.2</ele><time>2022-06-19T06:15:12.000Z</time></trkpt><trkpt lon="5.795597" lat="51.17668"><ele>17.2</ele><time>2022-06-19T06:15:13.000Z</time></trkpt><trkpt lon="5.795663" lat="51.176734"><ele>17.2</ele><time>2022-06-19T06:15:14.000Z</time></trkpt><trkpt lon="5.795733" lat="51.176783"><ele>17.2</ele><time>2022-06-19T06:15:15.000Z</time></trkpt><trkpt lon="5.795804" lat="51.176832"><ele>17.2</ele><time>2022-06-19T06:15:16.000Z</time></trkpt><trkpt lon="5.795877" lat="51.176882"><ele>17.4</ele><time>2022-06-19T06:15:17.000Z</time></trkpt><trkpt lon="5.795951" lat="51.176932"><ele>17.4</ele><time>2022-06-19T06:15:18.000Z</time></trkpt><trkpt lon="5.796021" lat="51.17698"><ele>17.4</ele><time>2022-06-19T06:15:19.000Z</time></trkpt><trkpt lon="5.796091" lat="51.177028"><ele>17.4</ele><time>2022-06-19T06:15:20.000Z</time></trkpt><trkpt lon="5.79616" lat="51.177076"><ele>17.4</ele><time>2022-06-19T06:15:21.000Z</time></trkpt><trkpt lon="5.796232" lat="51.177126"><ele>17.4</ele><time>2022-06-19T06:15:22.000Z</time></trkpt><trkpt lon="5.796311" lat="51.17718"><ele>17.2</ele><time>2022-06-19T06:15:23.000Z</time></trkpt><trkpt lon="5.796386" lat="51.17723"><ele>17.2</ele><time>2022-06-19T06:15:24.000Z</time></trkpt><trkpt lon="5.796458" lat="51.177278"><ele>17.2</ele><time>2022-06-19T06:15:25.000Z</time></trkpt><trkpt lon="5.796535" lat="51.177329"><ele>17.2</ele><time>2022-06-19T06:15:26.000Z</time></trkpt><trkpt lon="5.796606" lat="51.177373"><ele>17.2</ele><time>2022-06-19T06:15:27.000Z</time></trkpt><trkpt lon="5.796681" lat="51.177423"><ele>17.2</ele><time>2022-06-19T06:15:28.000Z</time></trkpt><trkpt lon="5.796755" lat="51.177473"><ele>17.4</ele><time>2022-06-19T06:15:29.000Z</time></trkpt><trkpt lon="5.796828" lat="51.177522"><ele>17.6</ele><time>2022-06-19T06:15:30.000Z</time></trkpt><trkpt lon="5.796906" lat="51.177573"><ele>17.6</ele><time>2022-06-19T06:15:31.000Z</time></trkpt><trkpt lon="5.796974" lat="51.17762"><ele>17.6</ele><time>2022-06-19T06:15:32.000Z</time></trkpt><trkpt lon="5.797052" lat="51.177676"><ele>17.6</ele><time>2022-06-19T06:15:33.000Z</time></trkpt><trkpt lon="5.797126" lat="51.177725"><ele>17.6</ele><time>2022-06-19T06:15:34.000Z</time></trkpt><trkpt lon="5.7972" lat="51.177771"><ele>17.4</ele><time>2022-06-19T06:15:35.000Z</time></trkpt><trkpt lon="5.797274" lat="51.177817"><ele>17.4</ele><time>2022-06-19T06:15:36.000Z</time></trkpt><trkpt lon="5.79735" lat="51.17787"><ele>17.4</ele><time>2022-06-19T06:15:37.000Z</time></trkpt><trkpt lon="5.797424" lat="51.177919"><ele>17.6</ele><time>2022-06-19T06:15:38.000Z</time></trkpt><trkpt lon="5.797504" lat="51.177966"><ele>17.4</ele><time>2022-06-19T06:15:39.000Z</time></trkpt><trkpt lon="5.797584" lat="51.178015"><ele>17.6</ele><time>2022-06-19T06:15:40.000Z</time></trkpt><trkpt lon="5.797664" lat="51.17806"><ele>17.6</ele><time>2022-06-19T06:15:41.000Z</time></trkpt><trkpt lon="5.797749" lat="51.178107"><ele>17.6</ele><time>2022-06-19T06:15:42.000Z</time></trkpt><trkpt lon="5.797835" lat="51.178149"><ele>17.4</ele><time>2022-06-19T06:15:43.000Z</time></trkpt><trkpt lon="5.797917" lat="51.178194"><ele>17.4</ele><time>2022-06-19T06:15:44.000Z</time></trkpt><trkpt lon="5.798003" lat="51.178241"><ele>17.4</ele><time>2022-06-19T06:15:45.000Z</time></trkpt><trkpt lon="5.798088" lat="51.178283"><ele>17.2</ele><time>2022-06-19T06:15:46.000Z</time></trkpt><trkpt lon="5.798167" lat="51.178328"><ele>17.4</ele><time>2022-06-19T06:15:47.000Z</time></trkpt><trkpt lon="5.798237" lat="51.178372"><ele>17.2</ele><time>2022-06-19T06:15:48.000Z</time></trkpt><trkpt lon="5.798319" lat="51.17843"><ele>17.2</ele><time>2022-06-19T06:15:49.000Z</time></trkpt><trkpt lon="5.798388" lat="51.178488"><ele>17.4</ele><time>2022-06-19T06:15:50.000Z</time></trkpt><trkpt lon="5.798453" lat="51.178545"><ele>17.4</ele><time>2022-06-19T06:15:51.000Z</time></trkpt><trkpt lon="5.798514" lat="51.178601"><ele>17.4</ele><time>2022-06-19T06:15:52.000Z</time></trkpt><trkpt lon="5.798576" lat="51.178658"><ele>17.4</ele><time>2022-06-19T06:15:53.000Z</time></trkpt><trkpt lon="5.798641" lat="51.178716"><ele>17.4</ele><time>2022-06-19T06:15:54.000Z</time></trkpt><trkpt lon="5.798704" lat="51.178773"><ele>17.2</ele><time>2022-06-19T06:15:55.000Z</time></trkpt><trkpt lon="5.798768" lat="51.178835"><ele>17.2</ele><time>2022-06-19T06:15:56.000Z</time></trkpt><trkpt lon="5.798833" lat="51.178889"><ele>17.2</ele><time>2022-06-19T06:15:57.000Z</time></trkpt><trkpt lon="5.798898" lat="51.178948"><ele>17.2</ele><time>2022-06-19T06:15:58.000Z</time></trkpt><trkpt lon="5.798967" lat="51.179007"><ele>17.2</ele><time>2022-06-19T06:15:59.000Z</time></trkpt><trkpt lon="5.799034" lat="51.17906"><ele>17.2</ele><time>2022-06-19T06:16:00.000Z</time></trkpt><trkpt lon="5.799104" lat="51.179118"><ele>17</ele><time>2022-06-19T06:16:01.000Z</time></trkpt><trkpt lon="5.799173" lat="51.179171"><ele>17</ele><time>2022-06-19T06:16:02.000Z</time></trkpt><trkpt lon="5.799243" lat="51.179225"><ele>17.2</ele><time>2022-06-19T06:16:03.000Z</time></trkpt><trkpt lon="5.799315" lat="51.179278"><ele>17.2</ele><time>2022-06-19T06:16:04.000Z</time></trkpt><trkpt lon="5.799386" lat="51.179331"><ele>17.2</ele><time>2022-06-19T06:16:05.000Z</time></trkpt><trkpt lon="5.799456" lat="51.179383"><ele>17.2</ele><time>2022-06-19T06:16:06.000Z</time></trkpt><trkpt lon="5.79953" lat="51.179438"><ele>17.2</ele><time>2022-06-19T06:16:07.000Z</time></trkpt><trkpt lon="5.799598" lat="51.179489"><ele>17.4</ele><time>2022-06-19T06:16:08.000Z</time></trkpt><trkpt lon="5.799669" lat="51.179538"><ele>17.6</ele><time>2022-06-19T06:16:09.000Z</time></trkpt><trkpt lon="5.799737" lat="51.179589"><ele>17.6</ele><time>2022-06-19T06:16:10.000Z</time></trkpt><trkpt lon="5.799809" lat="51.179639"><ele>17.6</ele><time>2022-06-19T06:16:11.000Z</time></trkpt><trkpt lon="5.799885" lat="51.179694"><ele>17.4</ele><time>2022-06-19T06:16:12.000Z</time></trkpt><trkpt lon="5.799962" lat="51.179747"><ele>17.4</ele><time>2022-06-19T06:16:13.000Z</time></trkpt><trkpt lon="5.800035" lat="51.179801"><ele>17.4</ele><time>2022-06-19T06:16:14.000Z</time></trkpt><trkpt lon="5.800107" lat="51.179849"><ele>17.4</ele><time>2022-06-19T06:16:15.000Z</time></trkpt><trkpt lon="5.800178" lat="51.179902"><ele>17.4</ele><time>2022-06-19T06:16:16.000Z</time></trkpt><trkpt lon="5.800248" lat="51.179953"><ele>17.4</ele><time>2022-06-19T06:16:17.000Z</time></trkpt><trkpt lon="5.800328" lat="51.180006"><ele>17.6</ele><time>2022-06-19T06:16:18.000Z</time></trkpt><trkpt lon="5.8004" lat="51.180059"><ele>17.6</ele><time>2022-06-19T06:16:19.000Z</time></trkpt><trkpt lon="5.800476" lat="51.18011"><ele>17.6</ele><time>2022-06-19T06:16:20.000Z</time></trkpt><trkpt lon="5.800551" lat="51.180159"><ele>17.8</ele><time>2022-06-19T06:16:21.000Z</time></trkpt><trkpt lon="5.800628" lat="51.180209"><ele>17.8</ele><time>2022-06-19T06:16:22.000Z</time></trkpt><trkpt lon="5.800704" lat="51.180262"><ele>17.8</ele><time>2022-06-19T06:16:23.000Z</time></trkpt><trkpt lon="5.800783" lat="51.180312"><ele>17.8</ele><time>2022-06-19T06:16:24.000Z</time></trkpt><trkpt lon="5.800861" lat="51.180358"><ele>17.8</ele><time>2022-06-19T06:16:25.000Z</time></trkpt><trkpt lon="5.800942" lat="51.180403"><ele>17.6</ele><time>2022-06-19T06:16:26.000Z</time></trkpt><trkpt lon="5.801023" lat="51.180448"><ele>17.6</ele><time>2022-06-19T06:16:27.000Z</time></trkpt><trkpt lon="5.801108" lat="51.180495"><ele>17.6</ele><time>2022-06-19T06:16:28.000Z</time></trkpt><trkpt lon="5.801196" lat="51.180537"><ele>17.4</ele><time>2022-06-19T06:16:29.000Z</time></trkpt><trkpt lon="5.801284" lat="51.180579"><ele>17.4</ele><time>2022-06-19T06:16:30.000Z</time></trkpt><trkpt lon="5.801372" lat="51.180617"><ele>17.6</ele><time>2022-06-19T06:16:31.000Z</time></trkpt><trkpt lon="5.801453" lat="51.180659"><ele>17.6</ele><time>2022-06-19T06:16:32.000Z</time></trkpt><trkpt lon="5.80155" lat="51.180701"><ele>17.6</ele><time>2022-06-19T06:16:33.000Z</time></trkpt><trkpt lon="5.801639" lat="51.180746"><ele>17.8</ele><time>2022-06-19T06:16:34.000Z</time></trkpt><trkpt lon="5.801731" lat="51.180789"><ele>17.8</ele><time>2022-06-19T06:16:35.000Z</time></trkpt><trkpt lon="5.801814" lat="51.180829"><ele>17.8</ele><time>2022-06-19T06:16:36.000Z</time></trkpt><trkpt lon="5.801901" lat="51.180875"><ele>17.6</ele><time>2022-06-19T06:16:37.000Z</time></trkpt><trkpt lon="5.801987" lat="51.180922"><ele>17.4</ele><time>2022-06-19T06:16:38.000Z</time></trkpt><trkpt lon="5.802073" lat="51.180972"><ele>17.2</ele><time>2022-06-19T06:16:39.000Z</time></trkpt><trkpt lon="5.802156" lat="51.181018"><ele>17.2</ele><time>2022-06-19T06:16:40.000Z</time></trkpt><trkpt lon="5.802241" lat="51.181067"><ele>17.2</ele><time>2022-06-19T06:16:41.000Z</time></trkpt><trkpt lon="5.802323" lat="51.181111"><ele>17.2</ele><time>2022-06-19T06:16:42.000Z</time></trkpt><trkpt lon="5.802411" lat="51.181159"><ele>17</ele><time>2022-06-19T06:16:43.000Z</time></trkpt><trkpt lon="5.802496" lat="51.181208"><ele>17</ele><time>2022-06-19T06:16:44.000Z</time></trkpt><trkpt lon="5.802581" lat="51.181254"><ele>17</ele><time>2022-06-19T06:16:45.000Z</time></trkpt><trkpt lon="5.802667" lat="51.1813"><ele>16.8</ele><time>2022-06-19T06:16:46.000Z</time></trkpt><trkpt lon="5.802752" lat="51.181345"><ele>16.8</ele><time>2022-06-19T06:16:47.000Z</time></trkpt><trkpt lon="5.802838" lat="51.181388"><ele>16.8</ele><time>2022-06-19T06:16:48.000Z</time></trkpt><trkpt lon="5.802924" lat="51.181433"><ele>17</ele><time>2022-06-19T06:16:49.000Z</time></trkpt><trkpt lon="5.803012" lat="51.181475"><ele>17</ele><time>2022-06-19T06:16:50.000Z</time></trkpt><trkpt lon="5.803101" lat="51.181518"><ele>17.2</ele><time>2022-06-19T06:16:51.000Z</time></trkpt><trkpt lon="5.803188" lat="51.181559"><ele>17.4</ele><time>2022-06-19T06:16:52.000Z</time></trkpt><trkpt lon="5.803279" lat="51.181601"><ele>17.4</ele><time>2022-06-19T06:16:53.000Z</time></trkpt><trkpt lon="5.803371" lat="51.181643"><ele>17.2</ele><time>2022-06-19T06:16:54.000Z</time></trkpt><trkpt lon="5.80346" lat="51.181685"><ele>17.2</ele><time>2022-06-19T06:16:55.000Z</time></trkpt><trkpt lon="5.803553" lat="51.181724"><ele>17</ele><time>2022-06-19T06:16:56.000Z</time></trkpt><trkpt lon="5.803645" lat="51.181765"><ele>17</ele><time>2022-06-19T06:16:57.000Z</time></trkpt><trkpt lon="5.803739" lat="51.181804"><ele>17.2</ele><time>2022-06-19T06:16:58.000Z</time></trkpt><trkpt lon="5.803824" lat="51.181839"><ele>17.2</ele><time>2022-06-19T06:16:59.000Z</time></trkpt><trkpt lon="5.803925" lat="51.18188"><ele>17.4</ele><time>2022-06-19T06:17:00.000Z</time></trkpt><trkpt lon="5.804021" lat="51.181918"><ele>17.4</ele><time>2022-06-19T06:17:01.000Z</time></trkpt><trkpt lon="5.804114" lat="51.181956"><ele>17.4</ele><time>2022-06-19T06:17:02.000Z</time></trkpt><trkpt lon="5.804212" lat="51.181991"><ele>17.4</ele><time>2022-06-19T06:17:03.000Z</time></trkpt><trkpt lon="5.804308" lat="51.182032"><ele>17.4</ele><time>2022-06-19T06:17:04.000Z</time></trkpt><trkpt lon="5.804403" lat="51.182066"><ele>17.6</ele><time>2022-06-19T06:17:05.000Z</time></trkpt><trkpt lon="5.804501" lat="51.182105"><ele>17.6</ele><time>2022-06-19T06:17:06.000Z</time></trkpt><trkpt lon="5.804593" lat="51.182143"><ele>17.4</ele><time>2022-06-19T06:17:07.000Z</time></trkpt><trkpt lon="5.804688" lat="51.182181"><ele>17.4</ele><time>2022-06-19T06:17:08.000Z</time></trkpt><trkpt lon="5.804784" lat="51.182216"><ele>17.4</ele><time>2022-06-19T06:17:09.000Z</time></trkpt><trkpt lon="5.804879" lat="51.182254"><ele>17.4</ele><time>2022-06-19T06:17:10.000Z</time></trkpt><trkpt lon="5.804974" lat="51.182292"><ele>17.4</ele><time>2022-06-19T06:17:11.000Z</time></trkpt><trkpt lon="5.80507" lat="51.182326"><ele>17.4</ele><time>2022-06-19T06:17:12.000Z</time></trkpt><trkpt lon="5.805161" lat="51.18236"><ele>17.4</ele><time>2022-06-19T06:17:13.000Z</time></trkpt><trkpt lon="5.80526" lat="51.182398"><ele>17.4</ele><time>2022-06-19T06:17:14.000Z</time></trkpt><trkpt lon="5.805357" lat="51.182433"><ele>17.6</ele><time>2022-06-19T06:17:15.000Z</time></trkpt><trkpt lon="5.805451" lat="51.182468"><ele>17.6</ele><time>2022-06-19T06:17:16.000Z</time></trkpt><trkpt lon="5.805548" lat="51.182506"><ele>17.4</ele><time>2022-06-19T06:17:17.000Z</time></trkpt><trkpt lon="5.805642" lat="51.182544"><ele>17.2</ele><time>2022-06-19T06:17:18.000Z</time></trkpt><trkpt lon="5.805736" lat="51.182578"><ele>17.2</ele><time>2022-06-19T06:17:19.000Z</time></trkpt><trkpt lon="5.805831" lat="51.182612"><ele>17.4</ele><time>2022-06-19T06:17:20.000Z</time></trkpt><trkpt lon="5.805928" lat="51.182651"><ele>17.4</ele><time>2022-06-19T06:17:21.000Z</time></trkpt><trkpt lon="5.80602" lat="51.182684"><ele>17.4</ele><time>2022-06-19T06:17:22.000Z</time></trkpt><trkpt lon="5.806117" lat="51.182719"><ele>17.2</ele><time>2022-06-19T06:17:23.000Z</time></trkpt><trkpt lon="5.806216" lat="51.182757"><ele>17.2</ele><time>2022-06-19T06:17:24.000Z</time></trkpt><trkpt lon="5.806313" lat="51.182788"><ele>17.2</ele><time>2022-06-19T06:17:25.000Z</time></trkpt><trkpt lon="5.806406" lat="51.18282"><ele>17.2</ele><time>2022-06-19T06:17:26.000Z</time></trkpt><trkpt lon="5.806509" lat="51.182853"><ele>17.2</ele><time>2022-06-19T06:17:27.000Z</time></trkpt><trkpt lon="5.806606" lat="51.182884"><ele>17.2</ele><time>2022-06-19T06:17:28.000Z</time></trkpt><trkpt lon="5.806704" lat="51.182912"><ele>17.2</ele><time>2022-06-19T06:17:29.000Z</time></trkpt><trkpt lon="5.806803" lat="51.182941"><ele>17</ele><time>2022-06-19T06:17:30.000Z</time></trkpt><trkpt lon="5.806903" lat="51.182964"><ele>17</ele><time>2022-06-19T06:17:31.000Z</time></trkpt><trkpt lon="5.807009" lat="51.182987"><ele>16.8</ele><time>2022-06-19T06:17:32.000Z</time></trkpt><trkpt lon="5.807114" lat="51.183006"><ele>16.8</ele><time>2022-06-19T06:17:33.000Z</time></trkpt><trkpt lon="5.80722" lat="51.183021"><ele>16.6</ele><time>2022-06-19T06:17:34.000Z</time></trkpt><trkpt lon="5.807327" lat="51.183033"><ele>16.4</ele><time>2022-06-19T06:17:35.000Z</time></trkpt><trkpt lon="5.807437" lat="51.18304"><ele>16.4</ele><time>2022-06-19T06:17:36.000Z</time></trkpt><trkpt lon="5.807545" lat="51.183048"><ele>16.6</ele><time>2022-06-19T06:17:37.000Z</time></trkpt><trkpt lon="5.807654" lat="51.183056"><ele>16.8</ele><time>2022-06-19T06:17:38.000Z</time></trkpt><trkpt lon="5.807764" lat="51.18306"><ele>17</ele><time>2022-06-19T06:17:39.000Z</time></trkpt><trkpt lon="5.807872" lat="51.183063"><ele>17.2</ele><time>2022-06-19T06:17:40.000Z</time></trkpt><trkpt lon="5.807982" lat="51.183071"><ele>17.2</ele><time>2022-06-19T06:17:41.000Z</time></trkpt><trkpt lon="5.808089" lat="51.183078"><ele>17.2</ele><time>2022-06-19T06:17:42.000Z</time></trkpt><trkpt lon="5.808198" lat="51.183082"><ele>17.2</ele><time>2022-06-19T06:17:43.000Z</time></trkpt><trkpt lon="5.808305" lat="51.183086"><ele>17.2</ele><time>2022-06-19T06:17:44.000Z</time></trkpt><trkpt lon="5.808412" lat="51.18309"><ele>17.2</ele><time>2022-06-19T06:17:45.000Z</time></trkpt><trkpt lon="5.808522" lat="51.18309"><ele>17</ele><time>2022-06-19T06:17:46.000Z</time></trkpt><trkpt lon="5.80863" lat="51.18309"><ele>16.8</ele><time>2022-06-19T06:17:47.000Z</time></trkpt><trkpt lon="5.808738" lat="51.183083"><ele>16.8</ele><time>2022-06-19T06:17:48.000Z</time></trkpt><trkpt lon="5.808841" lat="51.183076"><ele>16.8</ele><time>2022-06-19T06:17:49.000Z</time></trkpt><trkpt lon="5.808954" lat="51.183068"><ele>16.8</ele><time>2022-06-19T06:17:50.000Z</time></trkpt><trkpt lon="5.80905" lat="51.183058"><ele>16.8</ele><time>2022-06-19T06:17:51.000Z</time></trkpt><trkpt lon="5.809171" lat="51.183049"><ele>17</ele><time>2022-06-19T06:17:52.000Z</time></trkpt><trkpt lon="5.809289" lat="51.183037"><ele>16.8</ele><time>2022-06-19T06:17:53.000Z</time></trkpt><trkpt lon="5.809397" lat="51.183037"><ele>16.8</ele><time>2022-06-19T06:17:54.000Z</time></trkpt><trkpt lon="5.809509" lat="51.183037"><ele>16.8</ele><time>2022-06-19T06:17:55.000Z</time></trkpt><trkpt lon="5.809617" lat="51.183044"><ele>16.8</ele><time>2022-06-19T06:17:56.000Z</time></trkpt><trkpt lon="5.809725" lat="51.183052"><ele>16.8</ele><time>2022-06-19T06:17:57.000Z</time></trkpt><trkpt lon="5.809838" lat="51.183063"><ele>16.8</ele><time>2022-06-19T06:17:58.000Z</time></trkpt><trkpt lon="5.809945" lat="51.183078"><ele>16.8</ele><time>2022-06-19T06:17:59.000Z</time></trkpt><trkpt lon="5.810052" lat="51.183094"><ele>16.8</ele><time>2022-06-19T06:18:00.000Z</time></trkpt><trkpt lon="5.810155" lat="51.183109"><ele>16.8</ele><time>2022-06-19T06:18:01.000Z</time></trkpt><trkpt lon="5.810256" lat="51.183124"><ele>17</ele><time>2022-06-19T06:18:02.000Z</time></trkpt><trkpt lon="5.81035" lat="51.183139"><ele>17</ele><time>2022-06-19T06:18:03.000Z</time></trkpt><trkpt lon="5.810438" lat="51.183151"><ele>17</ele><time>2022-06-19T06:18:04.000Z</time></trkpt><trkpt lon="5.810525" lat="51.183166"><ele>17</ele><time>2022-06-19T06:18:05.000Z</time></trkpt><trkpt lon="5.81061" lat="51.183181"><ele>16.8</ele><time>2022-06-19T06:18:06.000Z</time></trkpt><trkpt lon="5.810696" lat="51.183193"><ele>16.6</ele><time>2022-06-19T06:18:07.000Z</time></trkpt><trkpt lon="5.810782" lat="51.183204"><ele>16.6</ele><time>2022-06-19T06:18:08.000Z</time></trkpt><trkpt lon="5.810875" lat="51.183216"><ele>16.4</ele><time>2022-06-19T06:18:09.000Z</time></trkpt><trkpt lon="5.810976" lat="51.183231"><ele>16.6</ele><time>2022-06-19T06:18:10.000Z</time></trkpt><trkpt lon="5.81108" lat="51.183246"><ele>16.6</ele><time>2022-06-19T06:18:11.000Z</time></trkpt><trkpt lon="5.811189" lat="51.183258"><ele>16.6</ele><time>2022-06-19T06:18:12.000Z</time></trkpt><trkpt lon="5.811299" lat="51.183269"><ele>16.6</ele><time>2022-06-19T06:18:13.000Z</time></trkpt><trkpt lon="5.811409" lat="51.183284"><ele>16.8</ele><time>2022-06-19T06:18:14.000Z</time></trkpt><trkpt lon="5.811514" lat="51.183299"><ele>16.8</ele><time>2022-06-19T06:18:15.000Z</time></trkpt><trkpt lon="5.811617" lat="51.18331"><ele>16.8</ele><time>2022-06-19T06:18:16.000Z</time></trkpt><trkpt lon="5.811727" lat="51.183322"><ele>16.8</ele><time>2022-06-19T06:18:17.000Z</time></trkpt><trkpt lon="5.811838" lat="51.18333"><ele>16.8</ele><time>2022-06-19T06:18:18.000Z</time></trkpt><trkpt lon="5.811954" lat="51.183341"><ele>16.8</ele><time>2022-06-19T06:18:19.000Z</time></trkpt><trkpt lon="5.812072" lat="51.183357"><ele>17</ele><time>2022-06-19T06:18:20.000Z</time></trkpt><trkpt lon="5.812186" lat="51.183372"><ele>17</ele><time>2022-06-19T06:18:21.000Z</time></trkpt><trkpt lon="5.812298" lat="51.183387"><ele>17</ele><time>2022-06-19T06:18:22.000Z</time></trkpt><trkpt lon="5.812406" lat="51.183402"><ele>17</ele><time>2022-06-19T06:18:23.000Z</time></trkpt><trkpt lon="5.812517" lat="51.183418"><ele>17</ele><time>2022-06-19T06:18:24.000Z</time></trkpt><trkpt lon="5.812629" lat="51.183433"><ele>17</ele><time>2022-06-19T06:18:25.000Z</time></trkpt><trkpt lon="5.812734" lat="51.183444"><ele>17</ele><time>2022-06-19T06:18:26.000Z</time></trkpt><trkpt lon="5.812841" lat="51.18346"><ele>17</ele><time>2022-06-19T06:18:27.000Z</time></trkpt><trkpt lon="5.812944" lat="51.183475"><ele>17</ele><time>2022-06-19T06:18:28.000Z</time></trkpt><trkpt lon="5.813046" lat="51.18349"><ele>17</ele><time>2022-06-19T06:18:29.000Z</time></trkpt><trkpt lon="5.813149" lat="51.183506"><ele>17</ele><time>2022-06-19T06:18:30.000Z</time></trkpt><trkpt lon="5.813246" lat="51.183525"><ele>17</ele><time>2022-06-19T06:18:31.000Z</time></trkpt><trkpt lon="5.81334" lat="51.183547"><ele>17</ele><time>2022-06-19T06:18:32.000Z</time></trkpt><trkpt lon="5.813431" lat="51.183567"><ele>16.8</ele><time>2022-06-19T06:18:33.000Z</time></trkpt><trkpt lon="5.813515" lat="51.183597"><ele>16.8</ele><time>2022-06-19T06:18:34.000Z</time></trkpt><trkpt lon="5.813577" lat="51.183646"><ele>16.6</ele><time>2022-06-19T06:18:35.000Z</time></trkpt><trkpt lon="5.813611" lat="51.183707"><ele>16.6</ele><time>2022-06-19T06:18:36.000Z</time></trkpt><trkpt lon="5.813618" lat="51.183771"><ele>16.4</ele><time>2022-06-19T06:18:37.000Z</time></trkpt><trkpt lon="5.813596" lat="51.183829"><ele>16.2</ele><time>2022-06-19T06:18:38.000Z</time></trkpt><trkpt lon="5.813558" lat="51.183894"><ele>16</ele><time>2022-06-19T06:18:39.000Z</time></trkpt><trkpt lon="5.813513" lat="51.183958"><ele>16</ele><time>2022-06-19T06:18:40.000Z</time></trkpt><trkpt lon="5.813469" lat="51.184023"><ele>15.8</ele><time>2022-06-19T06:18:41.000Z</time></trkpt><trkpt lon="5.813435" lat="51.184085"><ele>15.8</ele><time>2022-06-19T06:18:42.000Z</time></trkpt><trkpt lon="5.813399" lat="51.184157"><ele>16</ele><time>2022-06-19T06:18:43.000Z</time></trkpt><trkpt lon="5.813376" lat="51.184229"><ele>16</ele><time>2022-06-19T06:18:44.000Z</time></trkpt><trkpt lon="5.813364" lat="51.184298"><ele>16</ele><time>2022-06-19T06:18:45.000Z</time></trkpt><trkpt lon="5.813358" lat="51.184366"><ele>16</ele><time>2022-06-19T06:18:46.000Z</time></trkpt><trkpt lon="5.813354" lat="51.184434"><ele>16</ele><time>2022-06-19T06:18:47.000Z</time></trkpt><trkpt lon="5.813348" lat="51.184508"><ele>16</ele><time>2022-06-19T06:18:48.000Z</time></trkpt><trkpt lon="5.81334" lat="51.184577"><ele>16</ele><time>2022-06-19T06:18:49.000Z</time></trkpt><trkpt lon="5.813334" lat="51.184642"><ele>16</ele><time>2022-06-19T06:18:50.000Z</time></trkpt><trkpt lon="5.813325" lat="51.184718"><ele>16</ele><time>2022-06-19T06:18:51.000Z</time></trkpt><trkpt lon="5.813317" lat="51.184786"><ele>16</ele><time>2022-06-19T06:18:52.000Z</time></trkpt><trkpt lon="5.813305" lat="51.184854"><ele>16</ele><time>2022-06-19T06:18:53.000Z</time></trkpt><trkpt lon="5.813292" lat="51.184923"><ele>16.2</ele><time>2022-06-19T06:18:54.000Z</time></trkpt><trkpt lon="5.813279" lat="51.184988"><ele>16.4</ele><time>2022-06-19T06:18:55.000Z</time></trkpt><trkpt lon="5.813265" lat="51.185053"><ele>16.4</ele><time>2022-06-19T06:18:56.000Z</time></trkpt><trkpt lon="5.813254" lat="51.185122"><ele>16.4</ele><time>2022-06-19T06:18:57.000Z</time></trkpt><trkpt lon="5.813239" lat="51.185186"><ele>16.6</ele><time>2022-06-19T06:18:58.000Z</time></trkpt><trkpt lon="5.813224" lat="51.185255"><ele>16.6</ele><time>2022-06-19T06:18:59.000Z</time></trkpt><trkpt lon="5.813212" lat="51.185324"><ele>16.6</ele><time>2022-06-19T06:19:00.000Z</time></trkpt><trkpt lon="5.8132" lat="51.185389"><ele>16.4</ele><time>2022-06-19T06:19:01.000Z</time></trkpt><trkpt lon="5.813189" lat="51.185458"><ele>16.4</ele><time>2022-06-19T06:19:02.000Z</time></trkpt><trkpt lon="5.813179" lat="51.185522"><ele>16.4</ele><time>2022-06-19T06:19:03.000Z</time></trkpt><trkpt lon="5.813167" lat="51.18559"><ele>16.4</ele><time>2022-06-19T06:19:04.000Z</time></trkpt><trkpt lon="5.813156" lat="51.185658"><ele>16.4</ele><time>2022-06-19T06:19:05.000Z</time></trkpt><trkpt lon="5.813144" lat="51.185728"><ele>16.4</ele><time>2022-06-19T06:19:06.000Z</time></trkpt><trkpt lon="5.813134" lat="51.185784"><ele>16.4</ele><time>2022-06-19T06:19:07.000Z</time></trkpt><trkpt lon="5.813121" lat="51.185853"><ele>16.4</ele><time>2022-06-19T06:19:08.000Z</time></trkpt><trkpt lon="5.813107" lat="51.18593"><ele>16</ele><time>2022-06-19T06:19:09.000Z</time></trkpt><trkpt lon="5.813094" lat="51.185999"><ele>16</ele><time>2022-06-19T06:19:10.000Z</time></trkpt><trkpt lon="5.813082" lat="51.186068"><ele>15.8</ele><time>2022-06-19T06:19:11.000Z</time></trkpt><trkpt lon="5.81307" lat="51.186136"><ele>15.6</ele><time>2022-06-19T06:19:12.000Z</time></trkpt><trkpt lon="5.813059" lat="51.186205"><ele>15.6</ele><time>2022-06-19T06:19:13.000Z</time></trkpt><trkpt lon="5.813047" lat="51.186274"><ele>15.6</ele><time>2022-06-19T06:19:14.000Z</time></trkpt><trkpt lon="5.813037" lat="51.186345"><ele>15.8</ele><time>2022-06-19T06:19:15.000Z</time></trkpt><trkpt lon="5.813025" lat="51.186415"><ele>16</ele><time>2022-06-19T06:19:16.000Z</time></trkpt><trkpt lon="5.813015" lat="51.186483"><ele>16.2</ele><time>2022-06-19T06:19:17.000Z</time></trkpt><trkpt lon="5.813004" lat="51.186551"><ele>16.2</ele><time>2022-06-19T06:19:18.000Z</time></trkpt><trkpt lon="5.812992" lat="51.186617"><ele>16.2</ele><time>2022-06-19T06:19:19.000Z</time></trkpt><trkpt lon="5.812977" lat="51.186685"><ele>16.2</ele><time>2022-06-19T06:19:20.000Z</time></trkpt><trkpt lon="5.812955" lat="51.186754"><ele>16.2</ele><time>2022-06-19T06:19:21.000Z</time></trkpt><trkpt lon="5.812924" lat="51.186816"><ele>16.4</ele><time>2022-06-19T06:19:22.000Z</time></trkpt><trkpt lon="5.812876" lat="51.186877"><ele>16.4</ele><time>2022-06-19T06:19:23.000Z</time></trkpt><trkpt lon="5.812811" lat="51.18693"><ele>16.4</ele><time>2022-06-19T06:19:24.000Z</time></trkpt><trkpt lon="5.812737" lat="51.18698"><ele>16.4</ele><time>2022-06-19T06:19:25.000Z</time></trkpt><trkpt lon="5.812655" lat="51.187026"><ele>16.4</ele><time>2022-06-19T06:19:26.000Z</time></trkpt><trkpt lon="5.812572" lat="51.187064"><ele>16.4</ele><time>2022-06-19T06:19:27.000Z</time></trkpt><trkpt lon="5.812489" lat="51.187106"><ele>16.4</ele><time>2022-06-19T06:19:28.000Z</time></trkpt><trkpt lon="5.812426" lat="51.187138"><ele>16.4</ele><time>2022-06-19T06:19:29.000Z</time></trkpt><trkpt lon="5.812331" lat="51.187188"><ele>16.4</ele><time>2022-06-19T06:19:30.000Z</time></trkpt><trkpt lon="5.812257" lat="51.187234"><ele>16.4</ele><time>2022-06-19T06:19:31.000Z</time></trkpt><trkpt lon="5.81219" lat="51.187284"><ele>16.4</ele><time>2022-06-19T06:19:32.000Z</time></trkpt><trkpt lon="5.812136" lat="51.187344"><ele>16.4</ele><time>2022-06-19T06:19:33.000Z</time></trkpt><trkpt lon="5.812102" lat="51.187397"><ele>16.4</ele><time>2022-06-19T06:19:34.000Z</time></trkpt><trkpt lon="5.812071" lat="51.187474"><ele>16.4</ele><time>2022-06-19T06:19:35.000Z</time></trkpt><trkpt lon="5.812055" lat="51.187537"><ele>16.2</ele><time>2022-06-19T06:19:36.000Z</time></trkpt><trkpt lon="5.812044" lat="51.187605"><ele>16.4</ele><time>2022-06-19T06:19:37.000Z</time></trkpt><trkpt lon="5.812035" lat="51.18767"><ele>16.4</ele><time>2022-06-19T06:19:38.000Z</time></trkpt><trkpt lon="5.812029" lat="51.187738"><ele>16.4</ele><time>2022-06-19T06:19:39.000Z</time></trkpt><trkpt lon="5.812022" lat="51.187804"><ele>16.4</ele><time>2022-06-19T06:19:40.000Z</time></trkpt><trkpt lon="5.812019" lat="51.187868"><ele>16.4</ele><time>2022-06-19T06:19:41.000Z</time></trkpt><trkpt lon="5.812015" lat="51.18793"><ele>16.4</ele><time>2022-06-19T06:19:42.000Z</time></trkpt><trkpt lon="5.812012" lat="51.187988"><ele>16.4</ele><time>2022-06-19T06:19:43.000Z</time></trkpt><trkpt lon="5.812015" lat="51.188051"><ele>16.4</ele><time>2022-06-19T06:19:44.000Z</time></trkpt><trkpt lon="5.812023" lat="51.188104"><ele>16.4</ele><time>2022-06-19T06:19:45.000Z</time></trkpt><trkpt lon="5.812028" lat="51.188158"><ele>16.4</ele><time>2022-06-19T06:19:46.000Z</time></trkpt><trkpt lon="5.812022" lat="51.188212"><ele>16.4</ele><time>2022-06-19T06:19:47.000Z</time></trkpt><trkpt lon="5.81199" lat="51.188257"><ele>16.4</ele><time>2022-06-19T06:19:48.000Z</time></trkpt><trkpt lon="5.811928" lat="51.188293"><ele>16.2</ele><time>2022-06-19T06:19:49.000Z</time></trkpt><trkpt lon="5.811852" lat="51.188318"><ele>16.2</ele><time>2022-06-19T06:19:50.000Z</time></trkpt><trkpt lon="5.811754" lat="51.188346"><ele>16.2</ele><time>2022-06-19T06:19:51.000Z</time></trkpt><trkpt lon="5.811659" lat="51.188373"><ele>16.2</ele><time>2022-06-19T06:19:52.000Z</time></trkpt><trkpt lon="5.811563" lat="51.188399"><ele>16.2</ele><time>2022-06-19T06:19:53.000Z</time></trkpt><trkpt lon="5.811467" lat="51.188434"><ele>16.2</ele><time>2022-06-19T06:19:54.000Z</time></trkpt><trkpt lon="5.811374" lat="51.188464"><ele>16.2</ele><time>2022-06-19T06:19:55.000Z</time></trkpt><trkpt lon="5.811284" lat="51.188495"><ele>16.2</ele><time>2022-06-19T06:19:56.000Z</time></trkpt><trkpt lon="5.811192" lat="51.188529"><ele>16.2</ele><time>2022-06-19T06:19:57.000Z</time></trkpt><trkpt lon="5.811101" lat="51.188555"><ele>16.4</ele><time>2022-06-19T06:19:58.000Z</time></trkpt><trkpt lon="5.811005" lat="51.188586"><ele>16.2</ele><time>2022-06-19T06:19:59.000Z</time></trkpt><trkpt lon="5.810914" lat="51.188612"><ele>16</ele><time>2022-06-19T06:20:00.000Z</time></trkpt><trkpt lon="5.810817" lat="51.18864"><ele>16</ele><time>2022-06-19T06:20:01.000Z</time></trkpt><trkpt lon="5.810727" lat="51.188666"><ele>16</ele><time>2022-06-19T06:20:02.000Z</time></trkpt><trkpt lon="5.810634" lat="51.188697"><ele>16</ele><time>2022-06-19T06:20:03.000Z</time></trkpt><trkpt lon="5.810541" lat="51.188727"><ele>16</ele><time>2022-06-19T06:20:04.000Z</time></trkpt><trkpt lon="5.810447" lat="51.188758"><ele>16</ele><time>2022-06-19T06:20:05.000Z</time></trkpt><trkpt lon="5.810354" lat="51.188792"><ele>16</ele><time>2022-06-19T06:20:06.000Z</time></trkpt><trkpt lon="5.810265" lat="51.188826"><ele>16.2</ele><time>2022-06-19T06:20:07.000Z</time></trkpt><trkpt lon="5.810174" lat="51.188861"><ele>16.2</ele><time>2022-06-19T06:20:08.000Z</time></trkpt><trkpt lon="5.810085" lat="51.188892"><ele>16.4</ele><time>2022-06-19T06:20:09.000Z</time></trkpt><trkpt lon="5.810003" lat="51.188925"><ele>16.4</ele><time>2022-06-19T06:20:10.000Z</time></trkpt><trkpt lon="5.809919" lat="51.188956"><ele>16.4</ele><time>2022-06-19T06:20:11.000Z</time></trkpt><trkpt lon="5.809845" lat="51.188983"><ele>16.6</ele><time>2022-06-19T06:20:12.000Z</time></trkpt><trkpt lon="5.809754" lat="51.189017"><ele>16.6</ele><time>2022-06-19T06:20:13.000Z</time></trkpt><trkpt lon="5.809679" lat="51.189043"><ele>16.4</ele><time>2022-06-19T06:20:14.000Z</time></trkpt><trkpt lon="5.809605" lat="51.189067"><ele>16.4</ele><time>2022-06-19T06:20:15.000Z</time></trkpt><trkpt lon="5.809537" lat="51.18909"><ele>16.6</ele><time>2022-06-19T06:20:16.000Z</time></trkpt><trkpt lon="5.809472" lat="51.189109"><ele>16.6</ele><time>2022-06-19T06:20:17.000Z</time></trkpt><trkpt lon="5.809414" lat="51.189136"><ele>16.8</ele><time>2022-06-19T06:20:18.000Z</time></trkpt><trkpt lon="5.809363" lat="51.189166"><ele>16.8</ele><time>2022-06-19T06:20:19.000Z</time></trkpt><trkpt lon="5.809333" lat="51.189204"><ele>16.8</ele><time>2022-06-19T06:20:20.000Z</time></trkpt><trkpt lon="5.809333" lat="51.189242"><ele>17</ele><time>2022-06-19T06:20:21.000Z</time></trkpt><trkpt lon="5.809363" lat="51.189275"><ele>17</ele><time>2022-06-19T06:20:22.000Z</time></trkpt><trkpt lon="5.809423" lat="51.189315"><ele>17</ele><time>2022-06-19T06:20:23.000Z</time></trkpt><trkpt lon="5.809497" lat="51.189357"><ele>17</ele><time>2022-06-19T06:20:24.000Z</time></trkpt><trkpt lon="5.809573" lat="51.189402"><ele>16.8</ele><time>2022-06-19T06:20:25.000Z</time></trkpt><trkpt lon="5.80965" lat="51.189448"><ele>17</ele><time>2022-06-19T06:20:26.000Z</time></trkpt><trkpt lon="5.809726" lat="51.189494"><ele>17</ele><time>2022-06-19T06:20:27.000Z</time></trkpt><trkpt lon="5.809804" lat="51.189539"><ele>17</ele><time>2022-06-19T06:20:28.000Z</time></trkpt><trkpt lon="5.809881" lat="51.189585"><ele>17</ele><time>2022-06-19T06:20:29.000Z</time></trkpt><trkpt lon="5.809954" lat="51.189631"><ele>16.8</ele><time>2022-06-19T06:20:30.000Z</time></trkpt><trkpt lon="5.810018" lat="51.189673"><ele>16.8</ele><time>2022-06-19T06:20:31.000Z</time></trkpt><trkpt lon="5.810093" lat="51.189717"><ele>17</ele><time>2022-06-19T06:20:32.000Z</time></trkpt><trkpt lon="5.810168" lat="51.189761"><ele>17</ele><time>2022-06-19T06:20:33.000Z</time></trkpt><trkpt lon="5.810238" lat="51.189799"><ele>16.8</ele><time>2022-06-19T06:20:34.000Z</time></trkpt><trkpt lon="5.81031" lat="51.189841"><ele>16.8</ele><time>2022-06-19T06:20:35.000Z</time></trkpt><trkpt lon="5.810382" lat="51.189876"><ele>16.8</ele><time>2022-06-19T06:20:36.000Z</time></trkpt><trkpt lon="5.810458" lat="51.189918"><ele>16.8</ele><time>2022-06-19T06:20:37.000Z</time></trkpt><trkpt lon="5.810532" lat="51.189955"><ele>17</ele><time>2022-06-19T06:20:38.000Z</time></trkpt><trkpt lon="5.810608" lat="51.189998"><ele>17</ele><time>2022-06-19T06:20:39.000Z</time></trkpt><trkpt lon="5.810683" lat="51.190043"><ele>17</ele><time>2022-06-19T06:20:40.000Z</time></trkpt><trkpt lon="5.810762" lat="51.190082"><ele>17</ele><time>2022-06-19T06:20:41.000Z</time></trkpt><trkpt lon="5.810839" lat="51.190119"><ele>17</ele><time>2022-06-19T06:20:42.000Z</time></trkpt><trkpt lon="5.81092" lat="51.190154"><ele>17</ele><time>2022-06-19T06:20:43.000Z</time></trkpt><trkpt lon="5.811001" lat="51.190191"><ele>17</ele><time>2022-06-19T06:20:44.000Z</time></trkpt><trkpt lon="5.811086" lat="51.190222"><ele>17</ele><time>2022-06-19T06:20:45.000Z</time></trkpt><trkpt lon="5.811175" lat="51.190257"><ele>17</ele><time>2022-06-19T06:20:46.000Z</time></trkpt><trkpt lon="5.811261" lat="51.190288"><ele>16.8</ele><time>2022-06-19T06:20:47.000Z</time></trkpt><trkpt lon="5.81135" lat="51.190311"><ele>16.8</ele><time>2022-06-19T06:20:48.000Z</time></trkpt><trkpt lon="5.811433" lat="51.190328"><ele>16.8</ele><time>2022-06-19T06:20:49.000Z</time></trkpt><trkpt lon="5.811528" lat="51.19034"><ele>16.8</ele><time>2022-06-19T06:20:50.000Z</time></trkpt><trkpt lon="5.811641" lat="51.190345"><ele>16.8</ele><time>2022-06-19T06:20:51.000Z</time></trkpt><trkpt lon="5.811751" lat="51.190349"><ele>16.6</ele><time>2022-06-19T06:20:52.000Z</time></trkpt><trkpt lon="5.811854" lat="51.190346"><ele>16.6</ele><time>2022-06-19T06:20:53.000Z</time></trkpt><trkpt lon="5.811956" lat="51.190338"><ele>16.6</ele><time>2022-06-19T06:20:54.000Z</time></trkpt><trkpt lon="5.812053" lat="51.190327"><ele>16.6</ele><time>2022-06-19T06:20:55.000Z</time></trkpt><trkpt lon="5.812137" lat="51.190312"><ele>16.6</ele><time>2022-06-19T06:20:56.000Z</time></trkpt><trkpt lon="5.812231" lat="51.190311"><ele>16.6</ele><time>2022-06-19T06:20:57.000Z</time></trkpt><trkpt lon="5.812324" lat="51.190326"><ele>16.6</ele><time>2022-06-19T06:20:58.000Z</time></trkpt><trkpt lon="5.812408" lat="51.19036"><ele>16.6</ele><time>2022-06-19T06:20:59.000Z</time></trkpt><trkpt lon="5.812479" lat="51.190402"><ele>16.6</ele><time>2022-06-19T06:21:00.000Z</time></trkpt><trkpt lon="5.81255" lat="51.190444"><ele>16.6</ele><time>2022-06-19T06:21:01.000Z</time></trkpt><trkpt lon="5.812636" lat="51.190475"><ele>16.4</ele><time>2022-06-19T06:21:02.000Z</time></trkpt><trkpt lon="5.812736" lat="51.190487"><ele>16.4</ele><time>2022-06-19T06:21:03.000Z</time></trkpt><trkpt lon="5.812844" lat="51.190502"><ele>16.4</ele><time>2022-06-19T06:21:04.000Z</time></trkpt><trkpt lon="5.812954" lat="51.190524"><ele>16.4</ele><time>2022-06-19T06:21:05.000Z</time></trkpt><trkpt lon="5.813058" lat="51.190558"><ele>16.2</ele><time>2022-06-19T06:21:06.000Z</time></trkpt><trkpt lon="5.813156" lat="51.190593"><ele>16.2</ele><time>2022-06-19T06:21:07.000Z</time></trkpt><trkpt lon="5.813246" lat="51.190631"><ele>16</ele><time>2022-06-19T06:21:08.000Z</time></trkpt><trkpt lon="5.813332" lat="51.190669"><ele>16</ele><time>2022-06-19T06:21:09.000Z</time></trkpt><trkpt lon="5.813413" lat="51.190703"><ele>16</ele><time>2022-06-19T06:21:10.000Z</time></trkpt><trkpt lon="5.81349" lat="51.190734"><ele>16</ele><time>2022-06-19T06:21:11.000Z</time></trkpt><trkpt lon="5.813569" lat="51.190764"><ele>15.8</ele><time>2022-06-19T06:21:12.000Z</time></trkpt><trkpt lon="5.813652" lat="51.190799"><ele>15.8</ele><time>2022-06-19T06:21:13.000Z</time></trkpt><trkpt lon="5.813728" lat="51.19083"><ele>15.8</ele><time>2022-06-19T06:21:14.000Z</time></trkpt><trkpt lon="5.813813" lat="51.190864"><ele>15.8</ele><time>2022-06-19T06:21:15.000Z</time></trkpt><trkpt lon="5.813894" lat="51.190896"><ele>15.8</ele><time>2022-06-19T06:21:16.000Z</time></trkpt><trkpt lon="5.813991" lat="51.190932"><ele>15.8</ele><time>2022-06-19T06:21:17.000Z</time></trkpt><trkpt lon="5.814073" lat="51.190965"><ele>15.8</ele><time>2022-06-19T06:21:18.000Z</time></trkpt><trkpt lon="5.814166" lat="51.190997"><ele>15.8</ele><time>2022-06-19T06:21:19.000Z</time></trkpt><trkpt lon="5.814262" lat="51.19102"><ele>16</ele><time>2022-06-19T06:21:20.000Z</time></trkpt><trkpt lon="5.814358" lat="51.191043"><ele>16</ele><time>2022-06-19T06:21:21.000Z</time></trkpt><trkpt lon="5.814454" lat="51.191066"><ele>16</ele><time>2022-06-19T06:21:22.000Z</time></trkpt><trkpt lon="5.814553" lat="51.191089"><ele>16</ele><time>2022-06-19T06:21:23.000Z</time></trkpt><trkpt lon="5.814653" lat="51.191104"><ele>16</ele><time>2022-06-19T06:21:24.000Z</time></trkpt><trkpt lon="5.814754" lat="51.191131"><ele>15.8</ele><time>2022-06-19T06:21:25.000Z</time></trkpt><trkpt lon="5.814856" lat="51.191158"><ele>15.8</ele><time>2022-06-19T06:21:26.000Z</time></trkpt><trkpt lon="5.814956" lat="51.19118"><ele>15.8</ele><time>2022-06-19T06:21:27.000Z</time></trkpt><trkpt lon="5.815058" lat="51.1912"><ele>15.8</ele><time>2022-06-19T06:21:28.000Z</time></trkpt><trkpt lon="5.815135" lat="51.191215"><ele>15.6</ele><time>2022-06-19T06:21:29.000Z</time></trkpt><trkpt lon="5.815254" lat="51.191234"><ele>15.6</ele><time>2022-06-19T06:21:30.000Z</time></trkpt><trkpt lon="5.815355" lat="51.191245"><ele>15.6</ele><time>2022-06-19T06:21:31.000Z</time></trkpt><trkpt lon="5.815461" lat="51.191257"><ele>15.6</ele><time>2022-06-19T06:21:32.000Z</time></trkpt><trkpt lon="5.815569" lat="51.191276"><ele>15.6</ele><time>2022-06-19T06:21:33.000Z</time></trkpt><trkpt lon="5.815672" lat="51.191295"><ele>15.6</ele><time>2022-06-19T06:21:34.000Z</time></trkpt><trkpt lon="5.815779" lat="51.191322"><ele>15.6</ele><time>2022-06-19T06:21:35.000Z</time></trkpt><trkpt lon="5.81588" lat="51.191356"><ele>15.6</ele><time>2022-06-19T06:21:36.000Z</time></trkpt><trkpt lon="5.81597" lat="51.191394"><ele>15.6</ele><time>2022-06-19T06:21:37.000Z</time></trkpt><trkpt lon="5.816049" lat="51.191436"><ele>15.6</ele><time>2022-06-19T06:21:38.000Z</time></trkpt><trkpt lon="5.816119" lat="51.191481"><ele>15.6</ele><time>2022-06-19T06:21:39.000Z</time></trkpt><trkpt lon="5.81618" lat="51.191525"><ele>15.4</ele><time>2022-06-19T06:21:40.000Z</time></trkpt><trkpt lon="5.816232" lat="51.19158"><ele>15.4</ele><time>2022-06-19T06:21:41.000Z</time></trkpt><trkpt lon="5.816273" lat="51.191632"><ele>15.4</ele><time>2022-06-19T06:21:42.000Z</time></trkpt><trkpt lon="5.816304" lat="51.191688"><ele>15.2</ele><time>2022-06-19T06:21:43.000Z</time></trkpt><trkpt lon="5.816334" lat="51.191752"><ele>15.2</ele><time>2022-06-19T06:21:44.000Z</time></trkpt><trkpt lon="5.816362" lat="51.191805"><ele>15.2</ele><time>2022-06-19T06:21:45.000Z</time></trkpt><trkpt lon="5.816389" lat="51.191859"><ele>15</ele><time>2022-06-19T06:21:46.000Z</time></trkpt><trkpt lon="5.816414" lat="51.191918"><ele>15</ele><time>2022-06-19T06:21:47.000Z</time></trkpt><trkpt lon="5.816437" lat="51.191976"><ele>14.8</ele><time>2022-06-19T06:21:48.000Z</time></trkpt><trkpt lon="5.816458" lat="51.192042"><ele>14.6</ele><time>2022-06-19T06:21:49.000Z</time></trkpt><trkpt lon="5.816478" lat="51.192103"><ele>14.6</ele><time>2022-06-19T06:21:50.000Z</time></trkpt><trkpt lon="5.816504" lat="51.192175"><ele>14.4</ele><time>2022-06-19T06:21:51.000Z</time></trkpt><trkpt lon="5.816531" lat="51.192247"><ele>14.4</ele><time>2022-06-19T06:21:52.000Z</time></trkpt><trkpt lon="5.816553" lat="51.192309"><ele>14.4</ele><time>2022-06-19T06:21:53.000Z</time></trkpt><trkpt lon="5.816576" lat="51.192376"><ele>14.6</ele><time>2022-06-19T06:21:54.000Z</time></trkpt><trkpt lon="5.816596" lat="51.192442"><ele>14.6</ele><time>2022-06-19T06:21:55.000Z</time></trkpt><trkpt lon="5.816619" lat="51.192515"><ele>14.6</ele><time>2022-06-19T06:21:56.000Z</time></trkpt><trkpt lon="5.816646" lat="51.192583"><ele>15</ele><time>2022-06-19T06:21:57.000Z</time></trkpt><trkpt lon="5.816668" lat="51.192648"><ele>15</ele><time>2022-06-19T06:21:58.000Z</time></trkpt><trkpt lon="5.816691" lat="51.192712"><ele>15.2</ele><time>2022-06-19T06:21:59.000Z</time></trkpt><trkpt lon="5.816716" lat="51.192781"><ele>15.2</ele><time>2022-06-19T06:22:00.000Z</time></trkpt><trkpt lon="5.816739" lat="51.19285"><ele>15.2</ele><time>2022-06-19T06:22:01.000Z</time></trkpt><trkpt lon="5.816767" lat="51.192923"><ele>15.2</ele><time>2022-06-19T06:22:02.000Z</time></trkpt><trkpt lon="5.816796" lat="51.192992"><ele>15.2</ele><time>2022-06-19T06:22:03.000Z</time></trkpt><trkpt lon="5.816823" lat="51.193058"><ele>15</ele><time>2022-06-19T06:22:04.000Z</time></trkpt><trkpt lon="5.816853" lat="51.193116"><ele>15</ele><time>2022-06-19T06:22:05.000Z</time></trkpt><trkpt lon="5.816889" lat="51.19319"><ele>15</ele><time>2022-06-19T06:22:06.000Z</time></trkpt><trkpt lon="5.816922" lat="51.193257"><ele>15.2</ele><time>2022-06-19T06:22:07.000Z</time></trkpt><trkpt lon="5.816951" lat="51.193321"><ele>15.2</ele><time>2022-06-19T06:22:08.000Z</time></trkpt><trkpt lon="5.816984" lat="51.193384"><ele>15.2</ele><time>2022-06-19T06:22:09.000Z</time></trkpt><trkpt lon="5.817014" lat="51.193446"><ele>15.2</ele><time>2022-06-19T06:22:10.000Z</time></trkpt><trkpt lon="5.817051" lat="51.193514"><ele>15.4</ele><time>2022-06-19T06:22:11.000Z</time></trkpt><trkpt lon="5.817087" lat="51.193575"><ele>15.4</ele><time>2022-06-19T06:22:12.000Z</time></trkpt><trkpt lon="5.817127" lat="51.19364"><ele>15.4</ele><time>2022-06-19T06:22:13.000Z</time></trkpt><trkpt lon="5.817171" lat="51.193705"><ele>15.4</ele><time>2022-06-19T06:22:14.000Z</time></trkpt><trkpt lon="5.817209" lat="51.193767"><ele>15.4</ele><time>2022-06-19T06:22:15.000Z</time></trkpt><trkpt lon="5.817252" lat="51.193834"><ele>15.4</ele><time>2022-06-19T06:22:16.000Z</time></trkpt><trkpt lon="5.817292" lat="51.193896"><ele>15.4</ele><time>2022-06-19T06:22:17.000Z</time></trkpt><trkpt lon="5.817338" lat="51.19396"><ele>15.4</ele><time>2022-06-19T06:22:18.000Z</time></trkpt><trkpt lon="5.817393" lat="51.194021"><ele>15.4</ele><time>2022-06-19T06:22:19.000Z</time></trkpt><trkpt lon="5.817449" lat="51.194083"><ele>15.4</ele><time>2022-06-19T06:22:20.000Z</time></trkpt><trkpt lon="5.817508" lat="51.19414"><ele>15.4</ele><time>2022-06-19T06:22:21.000Z</time></trkpt><trkpt lon="5.81757" lat="51.194193"><ele>15.2</ele><time>2022-06-19T06:22:22.000Z</time></trkpt><trkpt lon="5.817636" lat="51.194246"><ele>15.2</ele><time>2022-06-19T06:22:23.000Z</time></trkpt><trkpt lon="5.817704" lat="51.1943"><ele>15.2</ele><time>2022-06-19T06:22:24.000Z</time></trkpt><trkpt lon="5.817774" lat="51.194353"><ele>15.2</ele><time>2022-06-19T06:22:25.000Z</time></trkpt><trkpt lon="5.817845" lat="51.194403"><ele>15.2</ele><time>2022-06-19T06:22:26.000Z</time></trkpt><trkpt lon="5.817917" lat="51.194453"><ele>15.2</ele><time>2022-06-19T06:22:27.000Z</time></trkpt><trkpt lon="5.817987" lat="51.194503"><ele>15.4</ele><time>2022-06-19T06:22:28.000Z</time></trkpt><trkpt lon="5.818058" lat="51.194552"><ele>15.4</ele><time>2022-06-19T06:22:29.000Z</time></trkpt><trkpt lon="5.818125" lat="51.194597"><ele>15.4</ele><time>2022-06-19T06:22:30.000Z</time></trkpt><trkpt lon="5.818192" lat="51.194647"><ele>15.6</ele><time>2022-06-19T06:22:31.000Z</time></trkpt><trkpt lon="5.818252" lat="51.194695"><ele>15.6</ele><time>2022-06-19T06:22:32.000Z</time></trkpt><trkpt lon="5.818321" lat="51.194747"><ele>15.6</ele><time>2022-06-19T06:22:33.000Z</time></trkpt><trkpt lon="5.818389" lat="51.194795"><ele>15.6</ele><time>2022-06-19T06:22:34.000Z</time></trkpt><trkpt lon="5.818457" lat="51.194846"><ele>15.6</ele><time>2022-06-19T06:22:35.000Z</time></trkpt><trkpt lon="5.818524" lat="51.194891"><ele>15.8</ele><time>2022-06-19T06:22:36.000Z</time></trkpt><trkpt lon="5.818593" lat="51.19494"><ele>15.8</ele><time>2022-06-19T06:22:37.000Z</time></trkpt><trkpt lon="5.818666" lat="51.194987"><ele>15.8</ele><time>2022-06-19T06:22:38.000Z</time></trkpt><trkpt lon="5.818738" lat="51.19504"><ele>15.8</ele><time>2022-06-19T06:22:39.000Z</time></trkpt><trkpt lon="5.818808" lat="51.195086"><ele>15.8</ele><time>2022-06-19T06:22:40.000Z</time></trkpt><trkpt lon="5.818878" lat="51.195134"><ele>15.8</ele><time>2022-06-19T06:22:41.000Z</time></trkpt><trkpt lon="5.818948" lat="51.195185"><ele>16</ele><time>2022-06-19T06:22:42.000Z</time></trkpt><trkpt lon="5.819018" lat="51.195231"><ele>16</ele><time>2022-06-19T06:22:43.000Z</time></trkpt><trkpt lon="5.819084" lat="51.19528"><ele>16</ele><time>2022-06-19T06:22:44.000Z</time></trkpt><trkpt lon="5.819154" lat="51.19533"><ele>16</ele><time>2022-06-19T06:22:45.000Z</time></trkpt><trkpt lon="5.819223" lat="51.19538"><ele>16</ele><time>2022-06-19T06:22:46.000Z</time></trkpt><trkpt lon="5.819292" lat="51.195429"><ele>16.2</ele><time>2022-06-19T06:22:47.000Z</time></trkpt><trkpt lon="5.819358" lat="51.195479"><ele>16.2</ele><time>2022-06-19T06:22:48.000Z</time></trkpt><trkpt lon="5.819422" lat="51.195529"><ele>16.2</ele><time>2022-06-19T06:22:49.000Z</time></trkpt><trkpt lon="5.819484" lat="51.195575"><ele>16.2</ele><time>2022-06-19T06:22:50.000Z</time></trkpt><trkpt lon="5.819541" lat="51.19562"><ele>16.4</ele><time>2022-06-19T06:22:51.000Z</time></trkpt><trkpt lon="5.819596" lat="51.19567"><ele>16.4</ele><time>2022-06-19T06:22:52.000Z</time></trkpt><trkpt lon="5.819644" lat="51.19571"><ele>16.4</ele><time>2022-06-19T06:22:53.000Z</time></trkpt><trkpt lon="5.819692" lat="51.195746"><ele>16.2</ele><time>2022-06-19T06:22:54.000Z</time></trkpt><trkpt lon="5.819748" lat="51.195792"><ele>16.2</ele><time>2022-06-19T06:22:55.000Z</time></trkpt><trkpt lon="5.819805" lat="51.195834"><ele>16.4</ele><time>2022-06-19T06:22:56.000Z</time></trkpt><trkpt lon="5.819864" lat="51.195872"><ele>16.2</ele><time>2022-06-19T06:22:57.000Z</time></trkpt><trkpt lon="5.819918" lat="51.195918"><ele>16.2</ele><time>2022-06-19T06:22:58.000Z</time></trkpt><trkpt lon="5.819963" lat="51.195978"><ele>16.2</ele><time>2022-06-19T06:22:59.000Z</time></trkpt><trkpt lon="5.819981" lat="51.196043"><ele>16</ele><time>2022-06-19T06:23:00.000Z</time></trkpt><trkpt lon="5.819967" lat="51.196104"><ele>15.8</ele><time>2022-06-19T06:23:01.000Z</time></trkpt><trkpt lon="5.819931" lat="51.196166"><ele>15.6</ele><time>2022-06-19T06:23:02.000Z</time></trkpt><trkpt lon="5.819876" lat="51.196223"><ele>15.6</ele><time>2022-06-19T06:23:03.000Z</time></trkpt><trkpt lon="5.819818" lat="51.196275"><ele>15.6</ele><time>2022-06-19T06:23:04.000Z</time></trkpt><trkpt lon="5.819762" lat="51.196331"><ele>15.6</ele><time>2022-06-19T06:23:05.000Z</time></trkpt><trkpt lon="5.819706" lat="51.196387"><ele>15.8</ele><time>2022-06-19T06:23:06.000Z</time></trkpt><trkpt lon="5.819655" lat="51.196444"><ele>16</ele><time>2022-06-19T06:23:07.000Z</time></trkpt><trkpt lon="5.819606" lat="51.196501"><ele>16.2</ele><time>2022-06-19T06:23:08.000Z</time></trkpt><trkpt lon="5.819556" lat="51.196566"><ele>16.4</ele><time>2022-06-19T06:23:09.000Z</time></trkpt><trkpt lon="5.819503" lat="51.196625"><ele>16.6</ele><time>2022-06-19T06:23:10.000Z</time></trkpt><trkpt lon="5.819448" lat="51.196688"><ele>16.8</ele><time>2022-06-19T06:23:11.000Z</time></trkpt><trkpt lon="5.819398" lat="51.196749"><ele>17</ele><time>2022-06-19T06:23:12.000Z</time></trkpt><trkpt lon="5.819347" lat="51.196809"><ele>17</ele><time>2022-06-19T06:23:13.000Z</time></trkpt><trkpt lon="5.819293" lat="51.196869"><ele>17.2</ele><time>2022-06-19T06:23:14.000Z</time></trkpt><trkpt lon="5.819236" lat="51.196932"><ele>17.2</ele><time>2022-06-19T06:23:15.000Z</time></trkpt><trkpt lon="5.819183" lat="51.196993"><ele>17.2</ele><time>2022-06-19T06:23:16.000Z</time></trkpt><trkpt lon="5.819134" lat="51.197052"><ele>17.2</ele><time>2022-06-19T06:23:17.000Z</time></trkpt><trkpt lon="5.819078" lat="51.197114"><ele>17</ele><time>2022-06-19T06:23:18.000Z</time></trkpt><trkpt lon="5.81902" lat="51.197176"><ele>17</ele><time>2022-06-19T06:23:19.000Z</time></trkpt><trkpt lon="5.818963" lat="51.197237"><ele>17</ele><time>2022-06-19T06:23:20.000Z</time></trkpt><trkpt lon="5.818907" lat="51.197298"><ele>16.8</ele><time>2022-06-19T06:23:21.000Z</time></trkpt><trkpt lon="5.818851" lat="51.197358"><ele>16.8</ele><time>2022-06-19T06:23:22.000Z</time></trkpt><trkpt lon="5.818795" lat="51.19742"><ele>16.8</ele><time>2022-06-19T06:23:23.000Z</time></trkpt><trkpt lon="5.818738" lat="51.197477"><ele>16.8</ele><time>2022-06-19T06:23:24.000Z</time></trkpt><trkpt lon="5.818683" lat="51.197535"><ele>16.6</ele><time>2022-06-19T06:23:25.000Z</time></trkpt><trkpt lon="5.81863" lat="51.197588"><ele>16.6</ele><time>2022-06-19T06:23:26.000Z</time></trkpt><trkpt lon="5.818581" lat="51.197646"><ele>16.4</ele><time>2022-06-19T06:23:27.000Z</time></trkpt><trkpt lon="5.818549" lat="51.197702"><ele>16.4</ele><time>2022-06-19T06:23:28.000Z</time></trkpt><trkpt lon="5.818546" lat="51.197751"><ele>16.2</ele><time>2022-06-19T06:23:29.000Z</time></trkpt><trkpt lon="5.818581" lat="51.197816"><ele>16.2</ele><time>2022-06-19T06:23:30.000Z</time></trkpt><trkpt lon="5.818658" lat="51.19786"><ele>16.2</ele><time>2022-06-19T06:23:31.000Z</time></trkpt><trkpt lon="5.818751" lat="51.197894"><ele>16</ele><time>2022-06-19T06:23:32.000Z</time></trkpt><trkpt lon="5.818856" lat="51.197921"><ele>16</ele><time>2022-06-19T06:23:33.000Z</time></trkpt><trkpt lon="5.818964" lat="51.197947"><ele>16</ele><time>2022-06-19T06:23:34.000Z</time></trkpt><trkpt lon="5.819076" lat="51.197978"><ele>15.8</ele><time>2022-06-19T06:23:35.000Z</time></trkpt><trkpt lon="5.819183" lat="51.198009"><ele>15.8</ele><time>2022-06-19T06:23:36.000Z</time></trkpt><trkpt lon="5.819289" lat="51.198043"><ele>15.8</ele><time>2022-06-19T06:23:37.000Z</time></trkpt><trkpt lon="5.819391" lat="51.198078"><ele>15.8</ele><time>2022-06-19T06:23:38.000Z</time></trkpt><trkpt lon="5.819489" lat="51.198115"><ele>15.6</ele><time>2022-06-19T06:23:39.000Z</time></trkpt><trkpt lon="5.819586" lat="51.198157"><ele>15.6</ele><time>2022-06-19T06:23:40.000Z</time></trkpt><trkpt lon="5.819669" lat="51.198194"><ele>15.6</ele><time>2022-06-19T06:23:41.000Z</time></trkpt><trkpt lon="5.819771" lat="51.198237"><ele>15.6</ele><time>2022-06-19T06:23:42.000Z</time></trkpt><trkpt lon="5.819862" lat="51.19828"><ele>15.6</ele><time>2022-06-19T06:23:43.000Z</time></trkpt><trkpt lon="5.819942" lat="51.198321"><ele>15.6</ele><time>2022-06-19T06:23:44.000Z</time></trkpt><trkpt lon="5.820036" lat="51.198368"><ele>15.4</ele><time>2022-06-19T06:23:45.000Z</time></trkpt><trkpt lon="5.820132" lat="51.198409"><ele>15.4</ele><time>2022-06-19T06:23:46.000Z</time></trkpt><trkpt lon="5.820223" lat="51.198455"><ele>15.4</ele><time>2022-06-19T06:23:47.000Z</time></trkpt><trkpt lon="5.820315" lat="51.198493"><ele>15.2</ele><time>2022-06-19T06:23:48.000Z</time></trkpt><trkpt lon="5.820406" lat="51.198535"><ele>15.2</ele><time>2022-06-19T06:23:49.000Z</time></trkpt><trkpt lon="5.820498" lat="51.198577"><ele>15.2</ele><time>2022-06-19T06:23:50.000Z</time></trkpt><trkpt lon="5.820588" lat="51.198615"><ele>15</ele><time>2022-06-19T06:23:51.000Z</time></trkpt><trkpt lon="5.820681" lat="51.198657"><ele>15</ele><time>2022-06-19T06:23:52.000Z</time></trkpt><trkpt lon="5.820769" lat="51.198698"><ele>14.8</ele><time>2022-06-19T06:23:53.000Z</time></trkpt><trkpt lon="5.820859" lat="51.198736"><ele>14.8</ele><time>2022-06-19T06:23:54.000Z</time></trkpt><trkpt lon="5.820952" lat="51.198779"><ele>14.8</ele><time>2022-06-19T06:23:55.000Z</time></trkpt><trkpt lon="5.821043" lat="51.198817"><ele>14.8</ele><time>2022-06-19T06:23:56.000Z</time></trkpt><trkpt lon="5.821132" lat="51.198858"><ele>14.8</ele><time>2022-06-19T06:23:57.000Z</time></trkpt><trkpt lon="5.821224" lat="51.198897"><ele>14.8</ele><time>2022-06-19T06:23:58.000Z</time></trkpt><trkpt lon="5.821315" lat="51.198935"><ele>14.8</ele><time>2022-06-19T06:23:59.000Z</time></trkpt><trkpt lon="5.821406" lat="51.198977"><ele>14.8</ele><time>2022-06-19T06:24:00.000Z</time></trkpt><trkpt lon="5.821495" lat="51.199019"><ele>15</ele><time>2022-06-19T06:24:01.000Z</time></trkpt><trkpt lon="5.821586" lat="51.199058"><ele>15</ele><time>2022-06-19T06:24:02.000Z</time></trkpt><trkpt lon="5.821676" lat="51.199099"><ele>15</ele><time>2022-06-19T06:24:03.000Z</time></trkpt><trkpt lon="5.821766" lat="51.199138"><ele>15</ele><time>2022-06-19T06:24:04.000Z</time></trkpt><trkpt lon="5.821858" lat="51.19918"><ele>15</ele><time>2022-06-19T06:24:05.000Z</time></trkpt><trkpt lon="5.821947" lat="51.199218"><ele>14.8</ele><time>2022-06-19T06:24:06.000Z</time></trkpt><trkpt lon="5.822035" lat="51.199255"><ele>15</ele><time>2022-06-19T06:24:07.000Z</time></trkpt><trkpt lon="5.82212" lat="51.199293"><ele>15</ele><time>2022-06-19T06:24:08.000Z</time></trkpt><trkpt lon="5.8222" lat="51.199329"><ele>14.8</ele><time>2022-06-19T06:24:09.000Z</time></trkpt><trkpt lon="5.822277" lat="51.199369"><ele>14.8</ele><time>2022-06-19T06:24:10.000Z</time></trkpt><trkpt lon="5.822362" lat="51.199412"><ele>14.6</ele><time>2022-06-19T06:24:11.000Z</time></trkpt><trkpt lon="5.822425" lat="51.199462"><ele>14.6</ele><time>2022-06-19T06:24:12.000Z</time></trkpt><trkpt lon="5.822463" lat="51.199519"><ele>14.4</ele><time>2022-06-19T06:24:13.000Z</time></trkpt><trkpt lon="5.82247" lat="51.199583"><ele>14</ele><time>2022-06-19T06:24:14.000Z</time></trkpt><trkpt lon="5.822445" lat="51.199651"><ele>13.8</ele><time>2022-06-19T06:24:15.000Z</time></trkpt><trkpt lon="5.822399" lat="51.199717"><ele>13.4</ele><time>2022-06-19T06:24:16.000Z</time></trkpt><trkpt lon="5.822345" lat="51.199785"><ele>13.4</ele><time>2022-06-19T06:24:17.000Z</time></trkpt><trkpt lon="5.822288" lat="51.199849"><ele>13.4</ele><time>2022-06-19T06:24:18.000Z</time></trkpt><trkpt lon="5.822228" lat="51.199919"><ele>13.4</ele><time>2022-06-19T06:24:19.000Z</time></trkpt><trkpt lon="5.822174" lat="51.199988"><ele>13.4</ele><time>2022-06-19T06:24:20.000Z</time></trkpt><trkpt lon="5.822123" lat="51.20006"><ele>13.2</ele><time>2022-06-19T06:24:21.000Z</time></trkpt><trkpt lon="5.82207" lat="51.200125"><ele>13</ele><time>2022-06-19T06:24:22.000Z</time></trkpt><trkpt lon="5.822019" lat="51.20019"><ele>12.8</ele><time>2022-06-19T06:24:23.000Z</time></trkpt><trkpt lon="5.821974" lat="51.200251"><ele>12.6</ele><time>2022-06-19T06:24:24.000Z</time></trkpt><trkpt lon="5.82193" lat="51.200308"><ele>12.6</ele><time>2022-06-19T06:24:25.000Z</time></trkpt><trkpt lon="5.821886" lat="51.20037"><ele>12.4</ele><time>2022-06-19T06:24:26.000Z</time></trkpt><trkpt lon="5.82184" lat="51.20043"><ele>12.6</ele><time>2022-06-19T06:24:27.000Z</time></trkpt><trkpt lon="5.821798" lat="51.200495"><ele>12.6</ele><time>2022-06-19T06:24:28.000Z</time></trkpt><trkpt lon="5.821763" lat="51.200542"><ele>12.6</ele><time>2022-06-19T06:24:29.000Z</time></trkpt><trkpt lon="5.821707" lat="51.200617"><ele>12.6</ele><time>2022-06-19T06:24:30.000Z</time></trkpt><trkpt lon="5.821657" lat="51.200677"><ele>12.6</ele><time>2022-06-19T06:24:31.000Z</time></trkpt><trkpt lon="5.821596" lat="51.200728"><ele>12.4</ele><time>2022-06-19T06:24:32.000Z</time></trkpt><trkpt lon="5.821525" lat="51.20077"><ele>12.2</ele><time>2022-06-19T06:24:33.000Z</time></trkpt><trkpt lon="5.821436" lat="51.200797"><ele>12.2</ele><time>2022-06-19T06:24:34.000Z</time></trkpt><trkpt lon="5.821346" lat="51.200805"><ele>12.2</ele><time>2022-06-19T06:24:35.000Z</time></trkpt><trkpt lon="5.821254" lat="51.200812"><ele>12.4</ele><time>2022-06-19T06:24:36.000Z</time></trkpt><trkpt lon="5.82116" lat="51.200835"><ele>12.6</ele><time>2022-06-19T06:24:37.000Z</time></trkpt><trkpt lon="5.821095" lat="51.200885"><ele>12.6</ele><time>2022-06-19T06:24:38.000Z</time></trkpt><trkpt lon="5.821054" lat="51.200942"><ele>12.6</ele><time>2022-06-19T06:24:39.000Z</time></trkpt><trkpt lon="5.821029" lat="51.201005"><ele>12.6</ele><time>2022-06-19T06:24:40.000Z</time></trkpt><trkpt lon="5.821005" lat="51.201075"><ele>12.8</ele><time>2022-06-19T06:24:41.000Z</time></trkpt><trkpt lon="5.820982" lat="51.201143"><ele>12.8</ele><time>2022-06-19T06:24:42.000Z</time></trkpt><trkpt lon="5.820959" lat="51.201211"><ele>13</ele><time>2022-06-19T06:24:43.000Z</time></trkpt><trkpt lon="5.820937" lat="51.201274"><ele>13.2</ele><time>2022-06-19T06:24:44.000Z</time></trkpt><trkpt lon="5.820916" lat="51.201338"><ele>13.4</ele><time>2022-06-19T06:24:45.000Z</time></trkpt><trkpt lon="5.820897" lat="51.201399"><ele>13.4</ele><time>2022-06-19T06:24:46.000Z</time></trkpt><trkpt lon="5.820878" lat="51.201459"><ele>13.4</ele><time>2022-06-19T06:24:47.000Z</time></trkpt><trkpt lon="5.820857" lat="51.201525"><ele>13.6</ele><time>2022-06-19T06:24:48.000Z</time></trkpt><trkpt lon="5.820836" lat="51.20159"><ele>13.6</ele><time>2022-06-19T06:24:49.000Z</time></trkpt><trkpt lon="5.820816" lat="51.201651"><ele>13.6</ele><time>2022-06-19T06:24:50.000Z</time></trkpt><trkpt lon="5.820794" lat="51.201716"><ele>13.8</ele><time>2022-06-19T06:24:51.000Z</time></trkpt><trkpt lon="5.820776" lat="51.201777"><ele>14</ele><time>2022-06-19T06:24:52.000Z</time></trkpt><trkpt lon="5.820757" lat="51.201841"><ele>14</ele><time>2022-06-19T06:24:53.000Z</time></trkpt><trkpt lon="5.82074" lat="51.201896"><ele>14</ele><time>2022-06-19T06:24:54.000Z</time></trkpt><trkpt lon="5.820721" lat="51.20196"><ele>14</ele><time>2022-06-19T06:24:55.000Z</time></trkpt><trkpt lon="5.820701" lat="51.202024"><ele>14.2</ele><time>2022-06-19T06:24:56.000Z</time></trkpt><trkpt lon="5.820682" lat="51.202089"><ele>14.2</ele><time>2022-06-19T06:24:57.000Z</time></trkpt><trkpt lon="5.820661" lat="51.202151"><ele>14.2</ele><time>2022-06-19T06:24:58.000Z</time></trkpt><trkpt lon="5.820643" lat="51.202209"><ele>14.2</ele><time>2022-06-19T06:24:59.000Z</time></trkpt><trkpt lon="5.820621" lat="51.202276"><ele>14.2</ele><time>2022-06-19T06:25:00.000Z</time></trkpt><trkpt lon="5.820602" lat="51.202341"><ele>14</ele><time>2022-06-19T06:25:01.000Z</time></trkpt><trkpt lon="5.820585" lat="51.2024"><ele>14</ele><time>2022-06-19T06:25:02.000Z</time></trkpt><trkpt lon="5.820562" lat="51.202467"><ele>14.2</ele><time>2022-06-19T06:25:03.000Z</time></trkpt><trkpt lon="5.820543" lat="51.202527"><ele>14.2</ele><time>2022-06-19T06:25:04.000Z</time></trkpt><trkpt lon="5.820527" lat="51.202593"><ele>14.2</ele><time>2022-06-19T06:25:05.000Z</time></trkpt><trkpt lon="5.82051" lat="51.202654"><ele>14.2</ele><time>2022-06-19T06:25:06.000Z</time></trkpt><trkpt lon="5.820489" lat="51.202719"><ele>14.2</ele><time>2022-06-19T06:25:07.000Z</time></trkpt><trkpt lon="5.820464" lat="51.202783"><ele>14.2</ele><time>2022-06-19T06:25:08.000Z</time></trkpt><trkpt lon="5.820439" lat="51.202845"><ele>14.4</ele><time>2022-06-19T06:25:09.000Z</time></trkpt><trkpt lon="5.820417" lat="51.202907"><ele>14.4</ele><time>2022-06-19T06:25:10.000Z</time></trkpt><trkpt lon="5.820394" lat="51.202975"><ele>14.4</ele><time>2022-06-19T06:25:11.000Z</time></trkpt><trkpt lon="5.820374" lat="51.203036"><ele>14.4</ele><time>2022-06-19T06:25:12.000Z</time></trkpt><trkpt lon="5.820351" lat="51.203099"><ele>14.6</ele><time>2022-06-19T06:25:13.000Z</time></trkpt><trkpt lon="5.820327" lat="51.203165"><ele>14.6</ele><time>2022-06-19T06:25:14.000Z</time></trkpt><trkpt lon="5.820301" lat="51.20323"><ele>14.6</ele><time>2022-06-19T06:25:15.000Z</time></trkpt><trkpt lon="5.820273" lat="51.203293"><ele>14.4</ele><time>2022-06-19T06:25:16.000Z</time></trkpt><trkpt lon="5.820242" lat="51.20336"><ele>14.4</ele><time>2022-06-19T06:25:17.000Z</time></trkpt><trkpt lon="5.820214" lat="51.203421"><ele>14.2</ele><time>2022-06-19T06:25:18.000Z</time></trkpt><trkpt lon="5.820184" lat="51.203486"><ele>14</ele><time>2022-06-19T06:25:19.000Z</time></trkpt><trkpt lon="5.820156" lat="51.203547"><ele>14</ele><time>2022-06-19T06:25:20.000Z</time></trkpt><trkpt lon="5.820127" lat="51.203604"><ele>13.8</ele><time>2022-06-19T06:25:21.000Z</time></trkpt><trkpt lon="5.820099" lat="51.203669"><ele>13.6</ele><time>2022-06-19T06:25:22.000Z</time></trkpt><trkpt lon="5.820069" lat="51.20373"><ele>13.6</ele><time>2022-06-19T06:25:23.000Z</time></trkpt><trkpt lon="5.82004" lat="51.203789"><ele>13.6</ele><time>2022-06-19T06:25:24.000Z</time></trkpt><trkpt lon="5.82001" lat="51.203844"><ele>13.4</ele><time>2022-06-19T06:25:25.000Z</time></trkpt><trkpt lon="5.819985" lat="51.203895"><ele>13.4</ele><time>2022-06-19T06:25:26.000Z</time></trkpt><trkpt lon="5.819967" lat="51.203955"><ele>13.4</ele><time>2022-06-19T06:25:27.000Z</time></trkpt><trkpt lon="5.819958" lat="51.204012"><ele>13.4</ele><time>2022-06-19T06:25:28.000Z</time></trkpt><trkpt lon="5.819976" lat="51.204062"><ele>13.4</ele><time>2022-06-19T06:25:29.000Z</time></trkpt><trkpt lon="5.820024" lat="51.204101"><ele>13.4</ele><time>2022-06-19T06:25:30.000Z</time></trkpt><trkpt lon="5.820092" lat="51.204124"><ele>13.4</ele><time>2022-06-19T06:25:31.000Z</time></trkpt><trkpt lon="5.820182" lat="51.204128"><ele>13.4</ele><time>2022-06-19T06:25:32.000Z</time></trkpt><trkpt lon="5.820281" lat="51.20411"><ele>13.4</ele><time>2022-06-19T06:25:33.000Z</time></trkpt><trkpt lon="5.820382" lat="51.20408"><ele>13.4</ele><time>2022-06-19T06:25:34.000Z</time></trkpt><trkpt lon="5.820489" lat="51.204053"><ele>13.4</ele><time>2022-06-19T06:25:35.000Z</time></trkpt><trkpt lon="5.820595" lat="51.204022"><ele>13.4</ele><time>2022-06-19T06:25:36.000Z</time></trkpt><trkpt lon="5.820703" lat="51.203996"><ele>13.4</ele><time>2022-06-19T06:25:37.000Z</time></trkpt><trkpt lon="5.820806" lat="51.203974"><ele>13.4</ele><time>2022-06-19T06:25:38.000Z</time></trkpt><trkpt lon="5.820924" lat="51.203953"><ele>13.4</ele><time>2022-06-19T06:25:39.000Z</time></trkpt><trkpt lon="5.821034" lat="51.203938"><ele>13.4</ele><time>2022-06-19T06:25:40.000Z</time></trkpt><trkpt lon="5.821144" lat="51.20393"><ele>13.4</ele><time>2022-06-19T06:25:41.000Z</time></trkpt><trkpt lon="5.821249" lat="51.203926"><ele>13.4</ele><time>2022-06-19T06:25:42.000Z</time></trkpt><trkpt lon="5.821368" lat="51.203926"><ele>13.4</ele><time>2022-06-19T06:25:43.000Z</time></trkpt><trkpt lon="5.82148" lat="51.203933"><ele>13.4</ele><time>2022-06-19T06:25:44.000Z</time></trkpt><trkpt lon="5.821592" lat="51.203945"><ele>13.4</ele><time>2022-06-19T06:25:45.000Z</time></trkpt><trkpt lon="5.821699" lat="51.203956"><ele>13.4</ele><time>2022-06-19T06:25:46.000Z</time></trkpt><trkpt lon="5.821804" lat="51.203975"><ele>13.4</ele><time>2022-06-19T06:25:47.000Z</time></trkpt><trkpt lon="5.821907" lat="51.203998"><ele>13.4</ele><time>2022-06-19T06:25:48.000Z</time></trkpt><trkpt lon="5.822008" lat="51.20402"><ele>13.4</ele><time>2022-06-19T06:25:49.000Z</time></trkpt><trkpt lon="5.822108" lat="51.20405"><ele>13.4</ele><time>2022-06-19T06:25:50.000Z</time></trkpt><trkpt lon="5.822196" lat="51.204081"><ele>13.4</ele><time>2022-06-19T06:25:51.000Z</time></trkpt><trkpt lon="5.822294" lat="51.204116"><ele>13.4</ele><time>2022-06-19T06:25:52.000Z</time></trkpt><trkpt lon="5.822397" lat="51.204153"><ele>13.6</ele><time>2022-06-19T06:25:53.000Z</time></trkpt><trkpt lon="5.822495" lat="51.204184"><ele>13.6</ele><time>2022-06-19T06:25:54.000Z</time></trkpt><trkpt lon="5.82259" lat="51.204219"><ele>13.6</ele><time>2022-06-19T06:25:55.000Z</time></trkpt><trkpt lon="5.822679" lat="51.204252"><ele>13.6</ele><time>2022-06-19T06:25:56.000Z</time></trkpt><trkpt lon="5.822772" lat="51.204287"><ele>13.6</ele><time>2022-06-19T06:25:57.000Z</time></trkpt><trkpt lon="5.822863" lat="51.204318"><ele>13.8</ele><time>2022-06-19T06:25:58.000Z</time></trkpt><trkpt lon="5.82295" lat="51.204348"><ele>13.8</ele><time>2022-06-19T06:25:59.000Z</time></trkpt><trkpt lon="5.823036" lat="51.204383"><ele>14</ele><time>2022-06-19T06:26:00.000Z</time></trkpt><trkpt lon="5.823122" lat="51.204417"><ele>14</ele><time>2022-06-19T06:26:01.000Z</time></trkpt><trkpt lon="5.823206" lat="51.204447"><ele>14.2</ele><time>2022-06-19T06:26:02.000Z</time></trkpt><trkpt lon="5.823296" lat="51.204482"><ele>14.2</ele><time>2022-06-19T06:26:03.000Z</time></trkpt><trkpt lon="5.823381" lat="51.204513"><ele>14.4</ele><time>2022-06-19T06:26:04.000Z</time></trkpt><trkpt lon="5.823465" lat="51.204551"><ele>14.6</ele><time>2022-06-19T06:26:05.000Z</time></trkpt><trkpt lon="5.823548" lat="51.204581"><ele>14.6</ele><time>2022-06-19T06:26:06.000Z</time></trkpt><trkpt lon="5.82363" lat="51.204616"><ele>14.8</ele><time>2022-06-19T06:26:07.000Z</time></trkpt><trkpt lon="5.823713" lat="51.204646"><ele>15</ele><time>2022-06-19T06:26:08.000Z</time></trkpt><trkpt lon="5.823793" lat="51.204676"><ele>15.2</ele><time>2022-06-19T06:26:09.000Z</time></trkpt><trkpt lon="5.823874" lat="51.204711"><ele>15.4</ele><time>2022-06-19T06:26:10.000Z</time></trkpt><trkpt lon="5.823954" lat="51.204745"><ele>15.6</ele><time>2022-06-19T06:26:11.000Z</time></trkpt><trkpt lon="5.82403" lat="51.20477"><ele>15.8</ele><time>2022-06-19T06:26:12.000Z</time></trkpt><trkpt lon="5.824116" lat="51.204801"><ele>16</ele><time>2022-06-19T06:26:13.000Z</time></trkpt><trkpt lon="5.824198" lat="51.204829"><ele>16</ele><time>2022-06-19T06:26:14.000Z</time></trkpt><trkpt lon="5.824273" lat="51.204863"><ele>16.2</ele><time>2022-06-19T06:26:15.000Z</time></trkpt><trkpt lon="5.824347" lat="51.204891"><ele>16.2</ele><time>2022-06-19T06:26:16.000Z</time></trkpt><trkpt lon="5.824433" lat="51.204924"><ele>16.4</ele><time>2022-06-19T06:26:17.000Z</time></trkpt><trkpt lon="5.824514" lat="51.204955"><ele>16.6</ele><time>2022-06-19T06:26:18.000Z</time></trkpt><trkpt lon="5.824601" lat="51.204985"><ele>16.8</ele><time>2022-06-19T06:26:19.000Z</time></trkpt><trkpt lon="5.82469" lat="51.205024"><ele>17</ele><time>2022-06-19T06:26:20.000Z</time></trkpt><trkpt lon="5.824779" lat="51.205054"><ele>17</ele><time>2022-06-19T06:26:21.000Z</time></trkpt><trkpt lon="5.82486" lat="51.205083"><ele>17.2</ele><time>2022-06-19T06:26:22.000Z</time></trkpt><trkpt lon="5.824954" lat="51.205119"><ele>17.4</ele><time>2022-06-19T06:26:23.000Z</time></trkpt><trkpt lon="5.825043" lat="51.20515"><ele>17.6</ele><time>2022-06-19T06:26:24.000Z</time></trkpt><trkpt lon="5.825128" lat="51.20518"><ele>17.8</ele><time>2022-06-19T06:26:25.000Z</time></trkpt><trkpt lon="5.825214" lat="51.20521"><ele>18</ele><time>2022-06-19T06:26:26.000Z</time></trkpt><trkpt lon="5.825301" lat="51.205245"><ele>18.2</ele><time>2022-06-19T06:26:27.000Z</time></trkpt><trkpt lon="5.825385" lat="51.205275"><ele>18.2</ele><time>2022-06-19T06:26:28.000Z</time></trkpt><trkpt lon="5.825473" lat="51.205306"><ele>18.4</ele><time>2022-06-19T06:26:29.000Z</time></trkpt><trkpt lon="5.82556" lat="51.205336"><ele>18.4</ele><time>2022-06-19T06:26:30.000Z</time></trkpt><trkpt lon="5.825649" lat="51.205371"><ele>18.6</ele><time>2022-06-19T06:26:31.000Z</time></trkpt><trkpt lon="5.825734" lat="51.205404"><ele>18.6</ele><time>2022-06-19T06:26:32.000Z</time></trkpt><trkpt lon="5.825827" lat="51.205436"><ele>18.4</ele><time>2022-06-19T06:26:33.000Z</time></trkpt><trkpt lon="5.825915" lat="51.20547"><ele>18.4</ele><time>2022-06-19T06:26:34.000Z</time></trkpt><trkpt lon="5.826008" lat="51.205505"><ele>18.2</ele><time>2022-06-19T06:26:35.000Z</time></trkpt><trkpt lon="5.826098" lat="51.205537"><ele>18</ele><time>2022-06-19T06:26:36.000Z</time></trkpt><trkpt lon="5.826194" lat="51.205573"><ele>18</ele><time>2022-06-19T06:26:37.000Z</time></trkpt><trkpt lon="5.826287" lat="51.205615"><ele>17.8</ele><time>2022-06-19T06:26:38.000Z</time></trkpt><trkpt lon="5.826383" lat="51.20565"><ele>17.6</ele><time>2022-06-19T06:26:39.000Z</time></trkpt><trkpt lon="5.826472" lat="51.205687"><ele>17.4</ele><time>2022-06-19T06:26:40.000Z</time></trkpt><trkpt lon="5.826559" lat="51.205733"><ele>17.2</ele><time>2022-06-19T06:26:41.000Z</time></trkpt><trkpt lon="5.826632" lat="51.205776"><ele>17</ele><time>2022-06-19T06:26:42.000Z</time></trkpt><trkpt lon="5.826724" lat="51.20583"><ele>16.8</ele><time>2022-06-19T06:26:43.000Z</time></trkpt><trkpt lon="5.826808" lat="51.20588"><ele>16.6</ele><time>2022-06-19T06:26:44.000Z</time></trkpt><trkpt lon="5.826893" lat="51.20593"><ele>16.4</ele><time>2022-06-19T06:26:45.000Z</time></trkpt><trkpt lon="5.826985" lat="51.205989"><ele>16</ele><time>2022-06-19T06:26:46.000Z</time></trkpt><trkpt lon="5.827075" lat="51.206038"><ele>15.8</ele><time>2022-06-19T06:26:47.000Z</time></trkpt><trkpt lon="5.827165" lat="51.20609"><ele>15.6</ele><time>2022-06-19T06:26:48.000Z</time></trkpt><trkpt lon="5.827264" lat="51.206138"><ele>15.4</ele><time>2022-06-19T06:26:49.000Z</time></trkpt><trkpt lon="5.827353" lat="51.206183"><ele>15.2</ele><time>2022-06-19T06:26:50.000Z</time></trkpt><trkpt lon="5.827458" lat="51.206229"><ele>15</ele><time>2022-06-19T06:26:51.000Z</time></trkpt><trkpt lon="5.827564" lat="51.20627"><ele>14.8</ele><time>2022-06-19T06:26:52.000Z</time></trkpt><trkpt lon="5.827673" lat="51.206316"><ele>14.4</ele><time>2022-06-19T06:26:53.000Z</time></trkpt><trkpt lon="5.82778" lat="51.206354"><ele>14.2</ele><time>2022-06-19T06:26:54.000Z</time></trkpt><trkpt lon="5.827896" lat="51.206393"><ele>14</ele><time>2022-06-19T06:26:55.000Z</time></trkpt><trkpt lon="5.828012" lat="51.206431"><ele>13.8</ele><time>2022-06-19T06:26:56.000Z</time></trkpt><trkpt lon="5.828126" lat="51.20647"><ele>13.6</ele><time>2022-06-19T06:26:57.000Z</time></trkpt><trkpt lon="5.828242" lat="51.206503"><ele>13.4</ele><time>2022-06-19T06:26:58.000Z</time></trkpt><trkpt lon="5.828359" lat="51.206538"><ele>13</ele><time>2022-06-19T06:26:59.000Z</time></trkpt><trkpt lon="5.828476" lat="51.206571"><ele>12.8</ele><time>2022-06-19T06:27:00.000Z</time></trkpt><trkpt lon="5.828599" lat="51.206607"><ele>12.8</ele><time>2022-06-19T06:27:01.000Z</time></trkpt><trkpt lon="5.828712" lat="51.20664"><ele>12.6</ele><time>2022-06-19T06:27:02.000Z</time></trkpt><trkpt lon="5.828829" lat="51.206675"><ele>12.4</ele><time>2022-06-19T06:27:03.000Z</time></trkpt><trkpt lon="5.828942" lat="51.20671"><ele>12.2</ele><time>2022-06-19T06:27:04.000Z</time></trkpt><trkpt lon="5.829053" lat="51.206744"><ele>12.2</ele><time>2022-06-19T06:27:05.000Z</time></trkpt><trkpt lon="5.829167" lat="51.206778"><ele>12</ele><time>2022-06-19T06:27:06.000Z</time></trkpt><trkpt lon="5.829278" lat="51.206813"><ele>11.8</ele><time>2022-06-19T06:27:07.000Z</time></trkpt><trkpt lon="5.829377" lat="51.206844"><ele>11.8</ele><time>2022-06-19T06:27:08.000Z</time></trkpt><trkpt lon="5.829499" lat="51.206878"><ele>11.6</ele><time>2022-06-19T06:27:09.000Z</time></trkpt><trkpt lon="5.8296" lat="51.206909"><ele>11.6</ele><time>2022-06-19T06:27:10.000Z</time></trkpt><trkpt lon="5.829713" lat="51.206941"><ele>11.4</ele><time>2022-06-19T06:27:11.000Z</time></trkpt><trkpt lon="5.829822" lat="51.206981"><ele>11.4</ele><time>2022-06-19T06:27:12.000Z</time></trkpt><trkpt lon="5.829923" lat="51.207018"><ele>11.4</ele><time>2022-06-19T06:27:13.000Z</time></trkpt><trkpt lon="5.830023" lat="51.207057"><ele>11.4</ele><time>2022-06-19T06:27:14.000Z</time></trkpt><trkpt lon="5.830121" lat="51.207095"><ele>11.2</ele><time>2022-06-19T06:27:15.000Z</time></trkpt><trkpt lon="5.830214" lat="51.207136"><ele>11.2</ele><time>2022-06-19T06:27:16.000Z</time></trkpt><trkpt lon="5.830309" lat="51.207179"><ele>11</ele><time>2022-06-19T06:27:17.000Z</time></trkpt><trkpt lon="5.830403" lat="51.207224"><ele>11</ele><time>2022-06-19T06:27:18.000Z</time></trkpt><trkpt lon="5.830496" lat="51.20727"><ele>11</ele><time>2022-06-19T06:27:19.000Z</time></trkpt><trkpt lon="5.83059" lat="51.207311"><ele>11</ele><time>2022-06-19T06:27:20.000Z</time></trkpt><trkpt lon="5.83069" lat="51.207358"><ele>11</ele><time>2022-06-19T06:27:21.000Z</time></trkpt><trkpt lon="5.830779" lat="51.207397"><ele>11</ele><time>2022-06-19T06:27:22.000Z</time></trkpt><trkpt lon="5.83088" lat="51.207442"><ele>11</ele><time>2022-06-19T06:27:23.000Z</time></trkpt><trkpt lon="5.830972" lat="51.207484"><ele>11</ele><time>2022-06-19T06:27:24.000Z</time></trkpt><trkpt lon="5.831067" lat="51.207526"><ele>11</ele><time>2022-06-19T06:27:25.000Z</time></trkpt><trkpt lon="5.83116" lat="51.207567"><ele>11</ele><time>2022-06-19T06:27:26.000Z</time></trkpt><trkpt lon="5.831253" lat="51.207609"><ele>11</ele><time>2022-06-19T06:27:27.000Z</time></trkpt><trkpt lon="5.831349" lat="51.207652"><ele>11</ele><time>2022-06-19T06:27:28.000Z</time></trkpt><trkpt lon="5.831434" lat="51.207689"><ele>11</ele><time>2022-06-19T06:27:29.000Z</time></trkpt><trkpt lon="5.83154" lat="51.207736"><ele>11</ele><time>2022-06-19T06:27:30.000Z</time></trkpt><trkpt lon="5.831633" lat="51.207777"><ele>10.8</ele><time>2022-06-19T06:27:31.000Z</time></trkpt><trkpt lon="5.831728" lat="51.207823"><ele>10.8</ele><time>2022-06-19T06:27:32.000Z</time></trkpt><trkpt lon="5.831824" lat="51.207865"><ele>10.8</ele><time>2022-06-19T06:27:33.000Z</time></trkpt><trkpt lon="5.831912" lat="51.207904"><ele>10.8</ele><time>2022-06-19T06:27:34.000Z</time></trkpt><trkpt lon="5.832006" lat="51.207949"><ele>10.6</ele><time>2022-06-19T06:27:35.000Z</time></trkpt><trkpt lon="5.832107" lat="51.207994"><ele>10.6</ele><time>2022-06-19T06:27:36.000Z</time></trkpt><trkpt lon="5.832202" lat="51.208033"><ele>10.6</ele><time>2022-06-19T06:27:37.000Z</time></trkpt><trkpt lon="5.832297" lat="51.208075"><ele>10.4</ele><time>2022-06-19T06:27:38.000Z</time></trkpt><trkpt lon="5.832393" lat="51.208114"><ele>10.4</ele><time>2022-06-19T06:27:39.000Z</time></trkpt><trkpt lon="5.832487" lat="51.208151"><ele>10.4</ele><time>2022-06-19T06:27:40.000Z</time></trkpt><trkpt lon="5.832585" lat="51.20819"><ele>10.2</ele><time>2022-06-19T06:27:41.000Z</time></trkpt><trkpt lon="5.832682" lat="51.208225"><ele>10.2</ele><time>2022-06-19T06:27:42.000Z</time></trkpt><trkpt lon="5.832777" lat="51.208262"><ele>10.2</ele><time>2022-06-19T06:27:43.000Z</time></trkpt><trkpt lon="5.832865" lat="51.208295"><ele>10</ele><time>2022-06-19T06:27:44.000Z</time></trkpt><trkpt lon="5.832956" lat="51.208331"><ele>10</ele><time>2022-06-19T06:27:45.000Z</time></trkpt><trkpt lon="5.833037" lat="51.208368"><ele>10</ele><time>2022-06-19T06:27:46.000Z</time></trkpt><trkpt lon="5.833115" lat="51.208411"><ele>9.8</ele><time>2022-06-19T06:27:47.000Z</time></trkpt><trkpt lon="5.833185" lat="51.208457"><ele>9.8</ele><time>2022-06-19T06:27:48.000Z</time></trkpt><trkpt lon="5.833245" lat="51.208499"><ele>9.8</ele><time>2022-06-19T06:27:49.000Z</time></trkpt><trkpt lon="5.833301" lat="51.20854"><ele>9.6</ele><time>2022-06-19T06:27:50.000Z</time></trkpt><trkpt lon="5.833354" lat="51.208583"><ele>9.4</ele><time>2022-06-19T06:27:51.000Z</time></trkpt><trkpt lon="5.833396" lat="51.208617"><ele>9.4</ele><time>2022-06-19T06:27:52.000Z</time></trkpt><trkpt lon="5.833438" lat="51.208653"><ele>9.2</ele><time>2022-06-19T06:27:53.000Z</time></trkpt><trkpt lon="5.833481" lat="51.20869"><ele>9.2</ele><time>2022-06-19T06:27:54.000Z</time></trkpt><trkpt lon="5.833508" lat="51.208719"><ele>9.2</ele><time>2022-06-19T06:27:55.000Z</time></trkpt><trkpt lon="5.833521" lat="51.208754"><ele>9.2</ele><time>2022-06-19T06:27:56.000Z</time></trkpt><trkpt lon="5.833511" lat="51.208783"><ele>9.2</ele><time>2022-06-19T06:27:57.000Z</time></trkpt><trkpt lon="5.833475" lat="51.208808"><ele>9</ele><time>2022-06-19T06:27:58.000Z</time></trkpt><trkpt lon="5.83342" lat="51.208822"><ele>8.8</ele><time>2022-06-19T06:27:59.000Z</time></trkpt><trkpt lon="5.833334" lat="51.208843"><ele>8.6</ele><time>2022-06-19T06:28:00.000Z</time></trkpt><trkpt lon="5.83324" lat="51.208866"><ele>8.6</ele><time>2022-06-19T06:28:01.000Z</time></trkpt><trkpt lon="5.833138" lat="51.208885"><ele>8.6</ele><time>2022-06-19T06:28:02.000Z</time></trkpt><trkpt lon="5.83303" lat="51.2089"><ele>8.4</ele><time>2022-06-19T06:28:03.000Z</time></trkpt><trkpt lon="5.832918" lat="51.208915"><ele>8.4</ele><time>2022-06-19T06:28:04.000Z</time></trkpt><trkpt lon="5.832812" lat="51.208934"><ele>8.2</ele><time>2022-06-19T06:28:05.000Z</time></trkpt><trkpt lon="5.832711" lat="51.208949"><ele>8.2</ele><time>2022-06-19T06:28:06.000Z</time></trkpt><trkpt lon="5.832603" lat="51.208976"><ele>8.2</ele><time>2022-06-19T06:28:07.000Z</time></trkpt><trkpt lon="5.832507" lat="51.209001"><ele>8</ele><time>2022-06-19T06:28:08.000Z</time></trkpt><trkpt lon="5.832402" lat="51.209033"><ele>8</ele><time>2022-06-19T06:28:09.000Z</time></trkpt><trkpt lon="5.832306" lat="51.209064"><ele>8</ele><time>2022-06-19T06:28:10.000Z</time></trkpt><trkpt lon="5.832211" lat="51.209102"><ele>7.8</ele><time>2022-06-19T06:28:11.000Z</time></trkpt><trkpt lon="5.832112" lat="51.209132"><ele>7.8</ele><time>2022-06-19T06:28:12.000Z</time></trkpt><trkpt lon="5.832012" lat="51.20917"><ele>7.6</ele><time>2022-06-19T06:28:13.000Z</time></trkpt><trkpt lon="5.831914" lat="51.209204"><ele>7.6</ele><time>2022-06-19T06:28:14.000Z</time></trkpt><trkpt lon="5.831813" lat="51.209239"><ele>7.6</ele><time>2022-06-19T06:28:15.000Z</time></trkpt><trkpt lon="5.831712" lat="51.209269"><ele>7.6</ele><time>2022-06-19T06:28:16.000Z</time></trkpt><trkpt lon="5.831609" lat="51.209303"><ele>7.6</ele><time>2022-06-19T06:28:17.000Z</time></trkpt><trkpt lon="5.83151" lat="51.209334"><ele>7.6</ele><time>2022-06-19T06:28:18.000Z</time></trkpt><trkpt lon="5.831406" lat="51.209369"><ele>7.4</ele><time>2022-06-19T06:28:19.000Z</time></trkpt><trkpt lon="5.831311" lat="51.209398"><ele>7.4</ele><time>2022-06-19T06:28:20.000Z</time></trkpt><trkpt lon="5.831212" lat="51.20943"><ele>7.4</ele><time>2022-06-19T06:28:21.000Z</time></trkpt><trkpt lon="5.831115" lat="51.209461"><ele>7.6</ele><time>2022-06-19T06:28:22.000Z</time></trkpt><trkpt lon="5.831023" lat="51.20949"><ele>7.6</ele><time>2022-06-19T06:28:23.000Z</time></trkpt><trkpt lon="5.830927" lat="51.209525"><ele>7.6</ele><time>2022-06-19T06:28:24.000Z</time></trkpt><trkpt lon="5.83084" lat="51.209559"><ele>7.4</ele><time>2022-06-19T06:28:25.000Z</time></trkpt><trkpt lon="5.830755" lat="51.2096"><ele>7.4</ele><time>2022-06-19T06:28:26.000Z</time></trkpt><trkpt lon="5.830661" lat="51.209636"><ele>7.6</ele><time>2022-06-19T06:28:27.000Z</time></trkpt><trkpt lon="5.830566" lat="51.20967"><ele>7.6</ele><time>2022-06-19T06:28:28.000Z</time></trkpt><trkpt lon="5.830471" lat="51.209701"><ele>7.6</ele><time>2022-06-19T06:28:29.000Z</time></trkpt><trkpt lon="5.830375" lat="51.209731"><ele>7.4</ele><time>2022-06-19T06:28:30.000Z</time></trkpt><trkpt lon="5.830276" lat="51.209765"><ele>7.6</ele><time>2022-06-19T06:28:31.000Z</time></trkpt><trkpt lon="5.83018" lat="51.209796"><ele>7.6</ele><time>2022-06-19T06:28:32.000Z</time></trkpt><trkpt lon="5.830082" lat="51.209827"><ele>7.6</ele><time>2022-06-19T06:28:33.000Z</time></trkpt><trkpt lon="5.82999" lat="51.209857"><ele>7.6</ele><time>2022-06-19T06:28:34.000Z</time></trkpt><trkpt lon="5.8299" lat="51.209887"><ele>7.6</ele><time>2022-06-19T06:28:35.000Z</time></trkpt><trkpt lon="5.82981" lat="51.209917"><ele>7.4</ele><time>2022-06-19T06:28:36.000Z</time></trkpt><trkpt lon="5.829725" lat="51.209949"><ele>7.4</ele><time>2022-06-19T06:28:37.000Z</time></trkpt><trkpt lon="5.829636" lat="51.20999"><ele>7.6</ele><time>2022-06-19T06:28:38.000Z</time></trkpt><trkpt lon="5.829554" lat="51.210029"><ele>7.6</ele><time>2022-06-19T06:28:39.000Z</time></trkpt><trkpt lon="5.829476" lat="51.21007"><ele>7.6</ele><time>2022-06-19T06:28:40.000Z</time></trkpt><trkpt lon="5.829402" lat="51.210111"><ele>7.6</ele><time>2022-06-19T06:28:41.000Z</time></trkpt><trkpt lon="5.829326" lat="51.21016"><ele>7.6</ele><time>2022-06-19T06:28:42.000Z</time></trkpt><trkpt lon="5.829245" lat="51.210204"><ele>7.6</ele><time>2022-06-19T06:28:43.000Z</time></trkpt><trkpt lon="5.829168" lat="51.210242"><ele>7.6</ele><time>2022-06-19T06:28:44.000Z</time></trkpt><trkpt lon="5.829089" lat="51.210287"><ele>7.6</ele><time>2022-06-19T06:28:45.000Z</time></trkpt><trkpt lon="5.829012" lat="51.210334"><ele>7.6</ele><time>2022-06-19T06:28:46.000Z</time></trkpt><trkpt lon="5.82894" lat="51.210387"><ele>7.6</ele><time>2022-06-19T06:28:47.000Z</time></trkpt><trkpt lon="5.828875" lat="51.21044"><ele>7.4</ele><time>2022-06-19T06:28:48.000Z</time></trkpt><trkpt lon="5.828812" lat="51.210497"><ele>7.4</ele><time>2022-06-19T06:28:49.000Z</time></trkpt><trkpt lon="5.828749" lat="51.210554"><ele>7.4</ele><time>2022-06-19T06:28:50.000Z</time></trkpt><trkpt lon="5.828688" lat="51.210611"><ele>7.4</ele><time>2022-06-19T06:28:51.000Z</time></trkpt><trkpt lon="5.828627" lat="51.210668"><ele>7.4</ele><time>2022-06-19T06:28:52.000Z</time></trkpt><trkpt lon="5.828568" lat="51.21073"><ele>7.4</ele><time>2022-06-19T06:28:53.000Z</time></trkpt><trkpt lon="5.828514" lat="51.210787"><ele>7.4</ele><time>2022-06-19T06:28:54.000Z</time></trkpt><trkpt lon="5.828462" lat="51.210849"><ele>7.4</ele><time>2022-06-19T06:28:55.000Z</time></trkpt><trkpt lon="5.828415" lat="51.210905"><ele>7.4</ele><time>2022-06-19T06:28:56.000Z</time></trkpt><trkpt lon="5.828368" lat="51.210966"><ele>7.6</ele><time>2022-06-19T06:28:57.000Z</time></trkpt><trkpt lon="5.828324" lat="51.211028"><ele>7.6</ele><time>2022-06-19T06:28:58.000Z</time></trkpt><trkpt lon="5.828283" lat="51.211089"><ele>7.6</ele><time>2022-06-19T06:28:59.000Z</time></trkpt><trkpt lon="5.828244" lat="51.211153"><ele>7.6</ele><time>2022-06-19T06:29:00.000Z</time></trkpt><trkpt lon="5.828212" lat="51.211218"><ele>7.6</ele><time>2022-06-19T06:29:01.000Z</time></trkpt><trkpt lon="5.828187" lat="51.211287"><ele>7.6</ele><time>2022-06-19T06:29:02.000Z</time></trkpt><trkpt lon="5.82817" lat="51.211352"><ele>7.8</ele><time>2022-06-19T06:29:03.000Z</time></trkpt><trkpt lon="5.82816" lat="51.211424"><ele>7.6</ele><time>2022-06-19T06:29:04.000Z</time></trkpt><trkpt lon="5.828155" lat="51.21149"><ele>7.6</ele><time>2022-06-19T06:29:05.000Z</time></trkpt><trkpt lon="5.828155" lat="51.211546"><ele>7.6</ele><time>2022-06-19T06:29:06.000Z</time></trkpt><trkpt lon="5.828162" lat="51.211634"><ele>7.6</ele><time>2022-06-19T06:29:07.000Z</time></trkpt><trkpt lon="5.828168" lat="51.211699"><ele>7.6</ele><time>2022-06-19T06:29:08.000Z</time></trkpt><trkpt lon="5.828173" lat="51.211765"><ele>7.6</ele><time>2022-06-19T06:29:09.000Z</time></trkpt><trkpt lon="5.828182" lat="51.211832"><ele>7.6</ele><time>2022-06-19T06:29:10.000Z</time></trkpt><trkpt lon="5.828196" lat="51.211897"><ele>7.6</ele><time>2022-06-19T06:29:11.000Z</time></trkpt><trkpt lon="5.828212" lat="51.211957"><ele>7.6</ele><time>2022-06-19T06:29:12.000Z</time></trkpt><trkpt lon="5.828227" lat="51.21202"><ele>7.6</ele><time>2022-06-19T06:29:13.000Z</time></trkpt><trkpt lon="5.82824" lat="51.212091"><ele>7.6</ele><time>2022-06-19T06:29:14.000Z</time></trkpt><trkpt lon="5.828248" lat="51.212156"><ele>7.6</ele><time>2022-06-19T06:29:15.000Z</time></trkpt><trkpt lon="5.828256" lat="51.212224"><ele>7.6</ele><time>2022-06-19T06:29:16.000Z</time></trkpt><trkpt lon="5.828263" lat="51.212291"><ele>7.6</ele><time>2022-06-19T06:29:17.000Z</time></trkpt><trkpt lon="5.828272" lat="51.212362"><ele>7.6</ele><time>2022-06-19T06:29:18.000Z</time></trkpt><trkpt lon="5.828278" lat="51.212432"><ele>7.4</ele><time>2022-06-19T06:29:19.000Z</time></trkpt><trkpt lon="5.828288" lat="51.2125"><ele>7.4</ele><time>2022-06-19T06:29:20.000Z</time></trkpt><trkpt lon="5.828296" lat="51.212568"><ele>7.4</ele><time>2022-06-19T06:29:21.000Z</time></trkpt><trkpt lon="5.8283" lat="51.212634"><ele>7.4</ele><time>2022-06-19T06:29:22.000Z</time></trkpt><trkpt lon="5.828303" lat="51.212699"><ele>7.4</ele><time>2022-06-19T06:29:23.000Z</time></trkpt><trkpt lon="5.828307" lat="51.212767"><ele>7.4</ele><time>2022-06-19T06:29:24.000Z</time></trkpt><trkpt lon="5.828311" lat="51.212832"><ele>7.4</ele><time>2022-06-19T06:29:25.000Z</time></trkpt><trkpt lon="5.828321" lat="51.212896"><ele>7.4</ele><time>2022-06-19T06:29:26.000Z</time></trkpt><trkpt lon="5.828333" lat="51.212958"><ele>7.4</ele><time>2022-06-19T06:29:27.000Z</time></trkpt><trkpt lon="5.828345" lat="51.213015"><ele>7.4</ele><time>2022-06-19T06:29:28.000Z</time></trkpt><trkpt lon="5.828358" lat="51.213072"><ele>7.4</ele><time>2022-06-19T06:29:29.000Z</time></trkpt><trkpt lon="5.82837" lat="51.213126"><ele>7.4</ele><time>2022-06-19T06:29:30.000Z</time></trkpt><trkpt lon="5.828384" lat="51.213179"><ele>7.4</ele><time>2022-06-19T06:29:31.000Z</time></trkpt><trkpt lon="5.828406" lat="51.213229"><ele>7.2</ele><time>2022-06-19T06:29:32.000Z</time></trkpt><trkpt lon="5.828436" lat="51.213274"><ele>7.2</ele><time>2022-06-19T06:29:33.000Z</time></trkpt><trkpt lon="5.828469" lat="51.21332"><ele>7.2</ele><time>2022-06-19T06:29:34.000Z</time></trkpt><trkpt lon="5.828496" lat="51.213374"><ele>7.2</ele><time>2022-06-19T06:29:35.000Z</time></trkpt><trkpt lon="5.828518" lat="51.213423"><ele>7.2</ele><time>2022-06-19T06:29:36.000Z</time></trkpt><trkpt lon="5.828541" lat="51.213467"><ele>7.2</ele><time>2022-06-19T06:29:37.000Z</time></trkpt><trkpt lon="5.828588" lat="51.213505"><ele>7</ele><time>2022-06-19T06:29:38.000Z</time></trkpt><trkpt lon="5.828678" lat="51.213538"><ele>7</ele><time>2022-06-19T06:29:39.000Z</time></trkpt><trkpt lon="5.828782" lat="51.213547"><ele>6.8</ele><time>2022-06-19T06:29:40.000Z</time></trkpt><trkpt lon="5.828893" lat="51.213547"><ele>7</ele><time>2022-06-19T06:29:41.000Z</time></trkpt><trkpt lon="5.829008" lat="51.213547"><ele>7</ele><time>2022-06-19T06:29:42.000Z</time></trkpt><trkpt lon="5.829122" lat="51.213558"><ele>7</ele><time>2022-06-19T06:29:43.000Z</time></trkpt><trkpt lon="5.829223" lat="51.21358"><ele>7</ele><time>2022-06-19T06:29:44.000Z</time></trkpt><trkpt lon="5.829317" lat="51.213618"><ele>7</ele><time>2022-06-19T06:29:45.000Z</time></trkpt><trkpt lon="5.829396" lat="51.213668"><ele>7</ele><time>2022-06-19T06:29:46.000Z</time></trkpt><trkpt lon="5.82947" lat="51.213721"><ele>7</ele><time>2022-06-19T06:29:47.000Z</time></trkpt><trkpt lon="5.82954" lat="51.213778"><ele>7</ele><time>2022-06-19T06:29:48.000Z</time></trkpt><trkpt lon="5.829612" lat="51.213835"><ele>7</ele><time>2022-06-19T06:29:49.000Z</time></trkpt><trkpt lon="5.829686" lat="51.213888"><ele>7</ele><time>2022-06-19T06:29:50.000Z</time></trkpt><trkpt lon="5.829766" lat="51.213942"><ele>7.2</ele><time>2022-06-19T06:29:51.000Z</time></trkpt><trkpt lon="5.829847" lat="51.213986"><ele>7.2</ele><time>2022-06-19T06:29:52.000Z</time></trkpt><trkpt lon="5.829937" lat="51.214034"><ele>7.2</ele><time>2022-06-19T06:29:53.000Z</time></trkpt><trkpt lon="5.83003" lat="51.214073"><ele>7.2</ele><time>2022-06-19T06:29:54.000Z</time></trkpt><trkpt lon="5.830122" lat="51.214114"><ele>7.2</ele><time>2022-06-19T06:29:55.000Z</time></trkpt><trkpt lon="5.830213" lat="51.214156"><ele>7.2</ele><time>2022-06-19T06:29:56.000Z</time></trkpt><trkpt lon="5.830304" lat="51.214194"><ele>7.2</ele><time>2022-06-19T06:29:57.000Z</time></trkpt><trkpt lon="5.830397" lat="51.214233"><ele>7.2</ele><time>2022-06-19T06:29:58.000Z</time></trkpt><trkpt lon="5.830485" lat="51.214274"><ele>7.2</ele><time>2022-06-19T06:29:59.000Z</time></trkpt><trkpt lon="5.830579" lat="51.214316"><ele>7.2</ele><time>2022-06-19T06:30:00.000Z</time></trkpt><trkpt lon="5.830672" lat="51.214354"><ele>7.2</ele><time>2022-06-19T06:30:01.000Z</time></trkpt><trkpt lon="5.830764" lat="51.214396"><ele>7.2</ele><time>2022-06-19T06:30:02.000Z</time></trkpt><trkpt lon="5.830858" lat="51.214438"><ele>7.2</ele><time>2022-06-19T06:30:03.000Z</time></trkpt><trkpt lon="5.830947" lat="51.214484"><ele>7.2</ele><time>2022-06-19T06:30:04.000Z</time></trkpt><trkpt lon="5.83104" lat="51.214522"><ele>7.2</ele><time>2022-06-19T06:30:05.000Z</time></trkpt><trkpt lon="5.831131" lat="51.214568"><ele>7.2</ele><time>2022-06-19T06:30:06.000Z</time></trkpt><trkpt lon="5.831222" lat="51.214614"><ele>7.2</ele><time>2022-06-19T06:30:07.000Z</time></trkpt><trkpt lon="5.831311" lat="51.214655"><ele>7</ele><time>2022-06-19T06:30:08.000Z</time></trkpt><trkpt lon="5.831399" lat="51.214701"><ele>7</ele><time>2022-06-19T06:30:09.000Z</time></trkpt><trkpt lon="5.831488" lat="51.214747"><ele>6.8</ele><time>2022-06-19T06:30:10.000Z</time></trkpt><trkpt lon="5.831568" lat="51.214792"><ele>6.8</ele><time>2022-06-19T06:30:11.000Z</time></trkpt><trkpt lon="5.831654" lat="51.214838"><ele>6.8</ele><time>2022-06-19T06:30:12.000Z</time></trkpt><trkpt lon="5.83174" lat="51.214885"><ele>6.6</ele><time>2022-06-19T06:30:13.000Z</time></trkpt><trkpt lon="5.831822" lat="51.21493"><ele>6.6</ele><time>2022-06-19T06:30:14.000Z</time></trkpt><trkpt lon="5.831906" lat="51.214972"><ele>6.6</ele><time>2022-06-19T06:30:15.000Z</time></trkpt><trkpt lon="5.831992" lat="51.215018"><ele>6.6</ele><time>2022-06-19T06:30:16.000Z</time></trkpt><trkpt lon="5.832078" lat="51.21506"><ele>6.6</ele><time>2022-06-19T06:30:17.000Z</time></trkpt><trkpt lon="5.832165" lat="51.215102"><ele>6.6</ele><time>2022-06-19T06:30:18.000Z</time></trkpt><trkpt lon="5.832253" lat="51.215148"><ele>6.4</ele><time>2022-06-19T06:30:19.000Z</time></trkpt><trkpt lon="5.83234" lat="51.21519"><ele>6.4</ele><time>2022-06-19T06:30:20.000Z</time></trkpt><trkpt lon="5.832424" lat="51.215235"><ele>6.4</ele><time>2022-06-19T06:30:21.000Z</time></trkpt><trkpt lon="5.832505" lat="51.215279"><ele>6.4</ele><time>2022-06-19T06:30:22.000Z</time></trkpt><trkpt lon="5.832594" lat="51.215322"><ele>6.4</ele><time>2022-06-19T06:30:23.000Z</time></trkpt><trkpt lon="5.832683" lat="51.215368"><ele>6.4</ele><time>2022-06-19T06:30:24.000Z</time></trkpt><trkpt lon="5.832771" lat="51.215411"><ele>6.4</ele><time>2022-06-19T06:30:25.000Z</time></trkpt><trkpt lon="5.832858" lat="51.215453"><ele>6.4</ele><time>2022-06-19T06:30:26.000Z</time></trkpt><trkpt lon="5.832946" lat="51.215498"><ele>6.4</ele><time>2022-06-19T06:30:27.000Z</time></trkpt><trkpt lon="5.833035" lat="51.215539"><ele>6.4</ele><time>2022-06-19T06:30:28.000Z</time></trkpt><trkpt lon="5.833107" lat="51.21557"><ele>6.4</ele><time>2022-06-19T06:30:29.000Z</time></trkpt><trkpt lon="5.833216" lat="51.215619"><ele>6.4</ele><time>2022-06-19T06:30:30.000Z</time></trkpt><trkpt lon="5.833308" lat="51.215657"><ele>6.4</ele><time>2022-06-19T06:30:31.000Z</time></trkpt><trkpt lon="5.833403" lat="51.215701"><ele>6.4</ele><time>2022-06-19T06:30:32.000Z</time></trkpt><trkpt lon="5.833491" lat="51.215738"><ele>6.6</ele><time>2022-06-19T06:30:33.000Z</time></trkpt><trkpt lon="5.833582" lat="51.215781"><ele>6.6</ele><time>2022-06-19T06:30:34.000Z</time></trkpt><trkpt lon="5.833675" lat="51.215819"><ele>6.6</ele><time>2022-06-19T06:30:35.000Z</time></trkpt><trkpt lon="5.833759" lat="51.215859"><ele>6.6</ele><time>2022-06-19T06:30:36.000Z</time></trkpt><trkpt lon="5.833855" lat="51.215899"><ele>6.8</ele><time>2022-06-19T06:30:37.000Z</time></trkpt><trkpt lon="5.833935" lat="51.215932"><ele>6.6</ele><time>2022-06-19T06:30:38.000Z</time></trkpt><trkpt lon="5.834043" lat="51.215976"><ele>6.8</ele><time>2022-06-19T06:30:39.000Z</time></trkpt><trkpt lon="5.834137" lat="51.216018"><ele>6.6</ele><time>2022-06-19T06:30:40.000Z</time></trkpt><trkpt lon="5.834227" lat="51.216059"><ele>6.8</ele><time>2022-06-19T06:30:41.000Z</time></trkpt><trkpt lon="5.834319" lat="51.216098"><ele>6.8</ele><time>2022-06-19T06:30:42.000Z</time></trkpt><trkpt lon="5.834411" lat="51.21614"><ele>6.8</ele><time>2022-06-19T06:30:43.000Z</time></trkpt><trkpt lon="5.834503" lat="51.216182"><ele>6.8</ele><time>2022-06-19T06:30:44.000Z</time></trkpt><trkpt lon="5.834598" lat="51.21622"><ele>6.6</ele><time>2022-06-19T06:30:45.000Z</time></trkpt><trkpt lon="5.834691" lat="51.216262"><ele>6.6</ele><time>2022-06-19T06:30:46.000Z</time></trkpt><trkpt lon="5.834785" lat="51.2163"><ele>6.6</ele><time>2022-06-19T06:30:47.000Z</time></trkpt><trkpt lon="5.834878" lat="51.216342"><ele>6.6</ele><time>2022-06-19T06:30:48.000Z</time></trkpt><trkpt lon="5.834972" lat="51.21638"><ele>6.4</ele><time>2022-06-19T06:30:49.000Z</time></trkpt><trkpt lon="5.835063" lat="51.216417"><ele>6.4</ele><time>2022-06-19T06:30:50.000Z</time></trkpt><trkpt lon="5.835161" lat="51.216456"><ele>6.4</ele><time>2022-06-19T06:30:51.000Z</time></trkpt><trkpt lon="5.835258" lat="51.216491"><ele>6.4</ele><time>2022-06-19T06:30:52.000Z</time></trkpt><trkpt lon="5.835351" lat="51.216529"><ele>6.4</ele><time>2022-06-19T06:30:53.000Z</time></trkpt><trkpt lon="5.835445" lat="51.216562"><ele>6.4</ele><time>2022-06-19T06:30:54.000Z</time></trkpt><trkpt lon="5.835541" lat="51.2166"><ele>6.4</ele><time>2022-06-19T06:30:55.000Z</time></trkpt><trkpt lon="5.835638" lat="51.216635"><ele>6.4</ele><time>2022-06-19T06:30:56.000Z</time></trkpt><trkpt lon="5.835737" lat="51.216674"><ele>6.2</ele><time>2022-06-19T06:30:57.000Z</time></trkpt><trkpt lon="5.835836" lat="51.216708"><ele>6.2</ele><time>2022-06-19T06:30:58.000Z</time></trkpt><trkpt lon="5.835933" lat="51.216746"><ele>6</ele><time>2022-06-19T06:30:59.000Z</time></trkpt><trkpt lon="5.836027" lat="51.216784"><ele>6</ele><time>2022-06-19T06:31:00.000Z</time></trkpt><trkpt lon="5.836123" lat="51.216819"><ele>6</ele><time>2022-06-19T06:31:01.000Z</time></trkpt><trkpt lon="5.836217" lat="51.216857"><ele>6</ele><time>2022-06-19T06:31:02.000Z</time></trkpt><trkpt lon="5.836311" lat="51.21689"><ele>6</ele><time>2022-06-19T06:31:03.000Z</time></trkpt><trkpt lon="5.836406" lat="51.216927"><ele>6</ele><time>2022-06-19T06:31:04.000Z</time></trkpt><trkpt lon="5.836507" lat="51.216967"><ele>6</ele><time>2022-06-19T06:31:05.000Z</time></trkpt><trkpt lon="5.836596" lat="51.217002"><ele>5.8</ele><time>2022-06-19T06:31:06.000Z</time></trkpt><trkpt lon="5.836676" lat="51.217033"><ele>5.8</ele><time>2022-06-19T06:31:07.000Z</time></trkpt><trkpt lon="5.836779" lat="51.217072"><ele>5.8</ele><time>2022-06-19T06:31:08.000Z</time></trkpt><trkpt lon="5.836897" lat="51.217116"><ele>5.8</ele><time>2022-06-19T06:31:09.000Z</time></trkpt><trkpt lon="5.836995" lat="51.217154"><ele>5.8</ele><time>2022-06-19T06:31:10.000Z</time></trkpt><trkpt lon="5.837092" lat="51.217189"><ele>5.8</ele><time>2022-06-19T06:31:11.000Z</time></trkpt><trkpt lon="5.837189" lat="51.217226"><ele>5.8</ele><time>2022-06-19T06:31:12.000Z</time></trkpt><trkpt lon="5.837287" lat="51.217265"><ele>5.8</ele><time>2022-06-19T06:31:13.000Z</time></trkpt><trkpt lon="5.837383" lat="51.217307"><ele>5.8</ele><time>2022-06-19T06:31:14.000Z</time></trkpt><trkpt lon="5.837476" lat="51.217345"><ele>5.8</ele><time>2022-06-19T06:31:15.000Z</time></trkpt><trkpt lon="5.837569" lat="51.217387"><ele>5.6</ele><time>2022-06-19T06:31:16.000Z</time></trkpt><trkpt lon="5.83766" lat="51.217429"><ele>5.6</ele><time>2022-06-19T06:31:17.000Z</time></trkpt><trkpt lon="5.837751" lat="51.21747"><ele>5.6</ele><time>2022-06-19T06:31:18.000Z</time></trkpt><trkpt lon="5.837839" lat="51.217511"><ele>5.6</ele><time>2022-06-19T06:31:19.000Z</time></trkpt><trkpt lon="5.837927" lat="51.217553"><ele>5.6</ele><time>2022-06-19T06:31:20.000Z</time></trkpt><trkpt lon="5.838018" lat="51.217592"><ele>5.6</ele><time>2022-06-19T06:31:21.000Z</time></trkpt><trkpt lon="5.838106" lat="51.217634"><ele>5.4</ele><time>2022-06-19T06:31:22.000Z</time></trkpt><trkpt lon="5.838195" lat="51.217677"><ele>5.4</ele><time>2022-06-19T06:31:23.000Z</time></trkpt><trkpt lon="5.838283" lat="51.217718"><ele>5.4</ele><time>2022-06-19T06:31:24.000Z</time></trkpt><trkpt lon="5.838374" lat="51.217756"><ele>5.4</ele><time>2022-06-19T06:31:25.000Z</time></trkpt><trkpt lon="5.838469" lat="51.217803"><ele>5.4</ele><time>2022-06-19T06:31:26.000Z</time></trkpt><trkpt lon="5.838559" lat="51.217844"><ele>5.2</ele><time>2022-06-19T06:31:27.000Z</time></trkpt><trkpt lon="5.838652" lat="51.217886"><ele>5.2</ele><time>2022-06-19T06:31:28.000Z</time></trkpt><trkpt lon="5.838749" lat="51.217926"><ele>5.2</ele><time>2022-06-19T06:31:29.000Z</time></trkpt><trkpt lon="5.838846" lat="51.217967"><ele>5.2</ele><time>2022-06-19T06:31:30.000Z</time></trkpt><trkpt lon="5.838942" lat="51.218"><ele>5.2</ele><time>2022-06-19T06:31:31.000Z</time></trkpt><trkpt lon="5.83904" lat="51.218029"><ele>5</ele><time>2022-06-19T06:31:32.000Z</time></trkpt><trkpt lon="5.83916" lat="51.218063"><ele>5</ele><time>2022-06-19T06:31:33.000Z</time></trkpt><trkpt lon="5.839269" lat="51.218086"><ele>5</ele><time>2022-06-19T06:31:34.000Z</time></trkpt><trkpt lon="5.839381" lat="51.218109"><ele>5</ele><time>2022-06-19T06:31:35.000Z</time></trkpt><trkpt lon="5.839493" lat="51.218128"><ele>5</ele><time>2022-06-19T06:31:36.000Z</time></trkpt><trkpt lon="5.839594" lat="51.218145"><ele>5</ele><time>2022-06-19T06:31:37.000Z</time></trkpt><trkpt lon="5.839713" lat="51.218168"><ele>4.8</ele><time>2022-06-19T06:31:38.000Z</time></trkpt><trkpt lon="5.839837" lat="51.218189"><ele>4.8</ele><time>2022-06-19T06:31:39.000Z</time></trkpt><trkpt lon="5.839952" lat="51.218208"><ele>4.8</ele><time>2022-06-19T06:31:40.000Z</time></trkpt><trkpt lon="5.840067" lat="51.218223"><ele>4.8</ele><time>2022-06-19T06:31:41.000Z</time></trkpt><trkpt lon="5.840181" lat="51.218242"><ele>4.8</ele><time>2022-06-19T06:31:42.000Z</time></trkpt><trkpt lon="5.840293" lat="51.218261"><ele>4.8</ele><time>2022-06-19T06:31:43.000Z</time></trkpt><trkpt lon="5.840408" lat="51.21828"><ele>4.6</ele><time>2022-06-19T06:31:44.000Z</time></trkpt><trkpt lon="5.840524" lat="51.218299"><ele>4.6</ele><time>2022-06-19T06:31:45.000Z</time></trkpt><trkpt lon="5.840635" lat="51.218315"><ele>4.4</ele><time>2022-06-19T06:31:46.000Z</time></trkpt><trkpt lon="5.840749" lat="51.21833"><ele>4.4</ele><time>2022-06-19T06:31:47.000Z</time></trkpt><trkpt lon="5.840861" lat="51.218349"><ele>4.4</ele><time>2022-06-19T06:31:48.000Z</time></trkpt><trkpt lon="5.840973" lat="51.218372"><ele>4.4</ele><time>2022-06-19T06:31:49.000Z</time></trkpt><trkpt lon="5.841084" lat="51.218395"><ele>4.4</ele><time>2022-06-19T06:31:50.000Z</time></trkpt><trkpt lon="5.841196" lat="51.218418"><ele>4.4</ele><time>2022-06-19T06:31:51.000Z</time></trkpt><trkpt lon="5.841303" lat="51.21844"><ele>4.4</ele><time>2022-06-19T06:31:52.000Z</time></trkpt><trkpt lon="5.841409" lat="51.218467"><ele>4.4</ele><time>2022-06-19T06:31:53.000Z</time></trkpt><trkpt lon="5.841512" lat="51.218494"><ele>4.4</ele><time>2022-06-19T06:31:54.000Z</time></trkpt><trkpt lon="5.841614" lat="51.21852"><ele>4.4</ele><time>2022-06-19T06:31:55.000Z</time></trkpt><trkpt lon="5.841715" lat="51.21854"><ele>4.4</ele><time>2022-06-19T06:31:56.000Z</time></trkpt><trkpt lon="5.841811" lat="51.218565"><ele>4.4</ele><time>2022-06-19T06:31:57.000Z</time></trkpt><trkpt lon="5.841914" lat="51.218589"><ele>4.4</ele><time>2022-06-19T06:31:58.000Z</time></trkpt><trkpt lon="5.842015" lat="51.218612"><ele>4.2</ele><time>2022-06-19T06:31:59.000Z</time></trkpt><trkpt lon="5.842113" lat="51.218635"><ele>4.2</ele><time>2022-06-19T06:32:00.000Z</time></trkpt><trkpt lon="5.842209" lat="51.218658"><ele>4.2</ele><time>2022-06-19T06:32:01.000Z</time></trkpt><trkpt lon="5.842302" lat="51.21868"><ele>4.2</ele><time>2022-06-19T06:32:02.000Z</time></trkpt><trkpt lon="5.842393" lat="51.2187"><ele>4.2</ele><time>2022-06-19T06:32:03.000Z</time></trkpt><trkpt lon="5.842486" lat="51.218723"><ele>4.2</ele><time>2022-06-19T06:32:04.000Z</time></trkpt><trkpt lon="5.842576" lat="51.218745"><ele>4.2</ele><time>2022-06-19T06:32:05.000Z</time></trkpt><trkpt lon="5.842665" lat="51.218765"><ele>4.2</ele><time>2022-06-19T06:32:06.000Z</time></trkpt><trkpt lon="5.84275" lat="51.218787"><ele>4.2</ele><time>2022-06-19T06:32:07.000Z</time></trkpt><trkpt lon="5.842833" lat="51.218803"><ele>4</ele><time>2022-06-19T06:32:08.000Z</time></trkpt><trkpt lon="5.842897" lat="51.218822"><ele>4</ele><time>2022-06-19T06:32:09.000Z</time></trkpt><trkpt lon="5.842963" lat="51.218854"><ele>4</ele><time>2022-06-19T06:32:10.000Z</time></trkpt><trkpt lon="5.842996" lat="51.218894"><ele>3.8</ele><time>2022-06-19T06:32:11.000Z</time></trkpt><trkpt lon="5.842974" lat="51.218939"><ele>3.6</ele><time>2022-06-19T06:32:12.000Z</time></trkpt><trkpt lon="5.842928" lat="51.218988"><ele>3.4</ele><time>2022-06-19T06:32:13.000Z</time></trkpt><trkpt lon="5.842866" lat="51.219038"><ele>3.2</ele><time>2022-06-19T06:32:14.000Z</time></trkpt><trkpt lon="5.8428" lat="51.219087"><ele>3.2</ele><time>2022-06-19T06:32:15.000Z</time></trkpt><trkpt lon="5.842735" lat="51.219141"><ele>3.2</ele><time>2022-06-19T06:32:16.000Z</time></trkpt><trkpt lon="5.842672" lat="51.219195"><ele>3.2</ele><time>2022-06-19T06:32:17.000Z</time></trkpt><trkpt lon="5.842608" lat="51.219247"><ele>3.2</ele><time>2022-06-19T06:32:18.000Z</time></trkpt><trkpt lon="5.84254" lat="51.2193"><ele>3.2</ele><time>2022-06-19T06:32:19.000Z</time></trkpt><trkpt lon="5.842473" lat="51.219354"><ele>3.2</ele><time>2022-06-19T06:32:20.000Z</time></trkpt><trkpt lon="5.842404" lat="51.219408"><ele>3</ele><time>2022-06-19T06:32:21.000Z</time></trkpt><trkpt lon="5.842334" lat="51.219466"><ele>3</ele><time>2022-06-19T06:32:22.000Z</time></trkpt><trkpt lon="5.842265" lat="51.219519"><ele>2.8</ele><time>2022-06-19T06:32:23.000Z</time></trkpt><trkpt lon="5.842199" lat="51.219572"><ele>2.6</ele><time>2022-06-19T06:32:24.000Z</time></trkpt><trkpt lon="5.842133" lat="51.219622"><ele>2.6</ele><time>2022-06-19T06:32:25.000Z</time></trkpt><trkpt lon="5.842066" lat="51.219679"><ele>2.6</ele><time>2022-06-19T06:32:26.000Z</time></trkpt><trkpt lon="5.842" lat="51.219732"><ele>2.6</ele><time>2022-06-19T06:32:27.000Z</time></trkpt><trkpt lon="5.841932" lat="51.219786"><ele>2.6</ele><time>2022-06-19T06:32:28.000Z</time></trkpt><trkpt lon="5.841864" lat="51.219843"><ele>2.6</ele><time>2022-06-19T06:32:29.000Z</time></trkpt><trkpt lon="5.841795" lat="51.219897"><ele>2.6</ele><time>2022-06-19T06:32:30.000Z</time></trkpt><trkpt lon="5.84173" lat="51.219949"><ele>2.6</ele><time>2022-06-19T06:32:31.000Z</time></trkpt><trkpt lon="5.841663" lat="51.220003"><ele>2.8</ele><time>2022-06-19T06:32:32.000Z</time></trkpt><trkpt lon="5.841599" lat="51.220056"><ele>2.8</ele><time>2022-06-19T06:32:33.000Z</time></trkpt><trkpt lon="5.841537" lat="51.220108"><ele>2.8</ele><time>2022-06-19T06:32:34.000Z</time></trkpt><trkpt lon="5.841467" lat="51.22016"><ele>2.8</ele><time>2022-06-19T06:32:35.000Z</time></trkpt><trkpt lon="5.841401" lat="51.220213"><ele>2.8</ele><time>2022-06-19T06:32:36.000Z</time></trkpt><trkpt lon="5.841344" lat="51.22026"><ele>2.8</ele><time>2022-06-19T06:32:37.000Z</time></trkpt><trkpt lon="5.841267" lat="51.220324"><ele>2.6</ele><time>2022-06-19T06:32:38.000Z</time></trkpt><trkpt lon="5.841199" lat="51.220377"><ele>2.6</ele><time>2022-06-19T06:32:39.000Z</time></trkpt><trkpt lon="5.84113" lat="51.220431"><ele>2.6</ele><time>2022-06-19T06:32:40.000Z</time></trkpt><trkpt lon="5.841065" lat="51.220487"><ele>2.4</ele><time>2022-06-19T06:32:41.000Z</time></trkpt><trkpt lon="5.840995" lat="51.220541"><ele>2.4</ele><time>2022-06-19T06:32:42.000Z</time></trkpt><trkpt lon="5.840925" lat="51.220598"><ele>2.2</ele><time>2022-06-19T06:32:43.000Z</time></trkpt><trkpt lon="5.840862" lat="51.220651"><ele>2.2</ele><time>2022-06-19T06:32:44.000Z</time></trkpt><trkpt lon="5.840795" lat="51.220705"><ele>2.4</ele><time>2022-06-19T06:32:45.000Z</time></trkpt><trkpt lon="5.840724" lat="51.220759"><ele>2.4</ele><time>2022-06-19T06:32:46.000Z</time></trkpt><trkpt lon="5.840656" lat="51.220815"><ele>2.4</ele><time>2022-06-19T06:32:47.000Z</time></trkpt><trkpt lon="5.840588" lat="51.220869"><ele>2.2</ele><time>2022-06-19T06:32:48.000Z</time></trkpt><trkpt lon="5.840518" lat="51.220927"><ele>2.2</ele><time>2022-06-19T06:32:49.000Z</time></trkpt><trkpt lon="5.84045" lat="51.22098"><ele>2.2</ele><time>2022-06-19T06:32:50.000Z</time></trkpt><trkpt lon="5.840383" lat="51.221033"><ele>2.2</ele><time>2022-06-19T06:32:51.000Z</time></trkpt><trkpt lon="5.840314" lat="51.221091"><ele>2</ele><time>2022-06-19T06:32:52.000Z</time></trkpt><trkpt lon="5.840247" lat="51.221144"><ele>2</ele><time>2022-06-19T06:32:53.000Z</time></trkpt><trkpt lon="5.840177" lat="51.221201"><ele>2</ele><time>2022-06-19T06:32:54.000Z</time></trkpt><trkpt lon="5.840111" lat="51.221254"><ele>2</ele><time>2022-06-19T06:32:55.000Z</time></trkpt><trkpt lon="5.840043" lat="51.221312"><ele>2.2</ele><time>2022-06-19T06:32:56.000Z</time></trkpt><trkpt lon="5.839973" lat="51.221369"><ele>2.2</ele><time>2022-06-19T06:32:57.000Z</time></trkpt><trkpt lon="5.839907" lat="51.221422"><ele>2.2</ele><time>2022-06-19T06:32:58.000Z</time></trkpt><trkpt lon="5.839839" lat="51.221478"><ele>2.2</ele><time>2022-06-19T06:32:59.000Z</time></trkpt><trkpt lon="5.83977" lat="51.221531"><ele>2</ele><time>2022-06-19T06:33:00.000Z</time></trkpt><trkpt lon="5.839699" lat="51.221586"><ele>1.8</ele><time>2022-06-19T06:33:01.000Z</time></trkpt><trkpt lon="5.839631" lat="51.221643"><ele>1.8</ele><time>2022-06-19T06:33:02.000Z</time></trkpt><trkpt lon="5.839562" lat="51.221697"><ele>1.8</ele><time>2022-06-19T06:33:03.000Z</time></trkpt><trkpt lon="5.839496" lat="51.22175"><ele>1.8</ele><time>2022-06-19T06:33:04.000Z</time></trkpt><trkpt lon="5.839431" lat="51.221807"><ele>1.8</ele><time>2022-06-19T06:33:05.000Z</time></trkpt><trkpt lon="5.839368" lat="51.221856"><ele>1.8</ele><time>2022-06-19T06:33:06.000Z</time></trkpt><trkpt lon="5.839303" lat="51.221908"><ele>1.8</ele><time>2022-06-19T06:33:07.000Z</time></trkpt><trkpt lon="5.839235" lat="51.221962"><ele>2</ele><time>2022-06-19T06:33:08.000Z</time></trkpt><trkpt lon="5.839173" lat="51.22201"><ele>2</ele><time>2022-06-19T06:33:09.000Z</time></trkpt><trkpt lon="5.8391" lat="51.222066"><ele>1.6</ele><time>2022-06-19T06:33:10.000Z</time></trkpt><trkpt lon="5.83903" lat="51.22212"><ele>1.4</ele><time>2022-06-19T06:33:11.000Z</time></trkpt><trkpt lon="5.838959" lat="51.222173"><ele>1.4</ele><time>2022-06-19T06:33:12.000Z</time></trkpt><trkpt lon="5.838892" lat="51.222227"><ele>1.2</ele><time>2022-06-19T06:33:13.000Z</time></trkpt><trkpt lon="5.838825" lat="51.222281"><ele>1.2</ele><time>2022-06-19T06:33:14.000Z</time></trkpt><trkpt lon="5.838761" lat="51.222338"><ele>1.2</ele><time>2022-06-19T06:33:15.000Z</time></trkpt><trkpt lon="5.838696" lat="51.222391"><ele>1.4</ele><time>2022-06-19T06:33:16.000Z</time></trkpt><trkpt lon="5.838629" lat="51.222445"><ele>1.4</ele><time>2022-06-19T06:33:17.000Z</time></trkpt><trkpt lon="5.838562" lat="51.222498"><ele>1.4</ele><time>2022-06-19T06:33:18.000Z</time></trkpt><trkpt lon="5.838497" lat="51.222551"><ele>1.6</ele><time>2022-06-19T06:33:19.000Z</time></trkpt><trkpt lon="5.838432" lat="51.222605"><ele>1.6</ele><time>2022-06-19T06:33:20.000Z</time></trkpt><trkpt lon="5.838365" lat="51.222658"><ele>1.6</ele><time>2022-06-19T06:33:21.000Z</time></trkpt><trkpt lon="5.838302" lat="51.222711"><ele>1.6</ele><time>2022-06-19T06:33:22.000Z</time></trkpt><trkpt lon="5.838235" lat="51.222764"><ele>1.8</ele><time>2022-06-19T06:33:23.000Z</time></trkpt><trkpt lon="5.838168" lat="51.222814"><ele>1.8</ele><time>2022-06-19T06:33:24.000Z</time></trkpt><trkpt lon="5.838105" lat="51.222867"><ele>1.8</ele><time>2022-06-19T06:33:25.000Z</time></trkpt><trkpt lon="5.838041" lat="51.222921"><ele>1.8</ele><time>2022-06-19T06:33:26.000Z</time></trkpt><trkpt lon="5.837978" lat="51.222974"><ele>1.8</ele><time>2022-06-19T06:33:27.000Z</time></trkpt><trkpt lon="5.837911" lat="51.223024"><ele>1.8</ele><time>2022-06-19T06:33:28.000Z</time></trkpt><trkpt lon="5.837869" lat="51.223056"><ele>1.8</ele><time>2022-06-19T06:33:29.000Z</time></trkpt><trkpt lon="5.837786" lat="51.223124"><ele>1.8</ele><time>2022-06-19T06:33:30.000Z</time></trkpt><trkpt lon="5.837721" lat="51.223176"><ele>1.8</ele><time>2022-06-19T06:33:31.000Z</time></trkpt><trkpt lon="5.837659" lat="51.22323"><ele>1.8</ele><time>2022-06-19T06:33:32.000Z</time></trkpt><trkpt lon="5.837596" lat="51.223283"><ele>1.6</ele><time>2022-06-19T06:33:33.000Z</time></trkpt><trkpt lon="5.837533" lat="51.223333"><ele>1.6</ele><time>2022-06-19T06:33:34.000Z</time></trkpt><trkpt lon="5.83747" lat="51.223386"><ele>1.8</ele><time>2022-06-19T06:33:35.000Z</time></trkpt><trkpt lon="5.837406" lat="51.223443"><ele>1.8</ele><time>2022-06-19T06:33:36.000Z</time></trkpt><trkpt lon="5.837346" lat="51.223496"><ele>1.8</ele><time>2022-06-19T06:33:37.000Z</time></trkpt><trkpt lon="5.837283" lat="51.223553"><ele>1.8</ele><time>2022-06-19T06:33:38.000Z</time></trkpt><trkpt lon="5.837223" lat="51.223607"><ele>1.8</ele><time>2022-06-19T06:33:39.000Z</time></trkpt><trkpt lon="5.837165" lat="51.22366"><ele>1.8</ele><time>2022-06-19T06:33:40.000Z</time></trkpt><trkpt lon="5.837107" lat="51.223718"><ele>1.6</ele><time>2022-06-19T06:33:41.000Z</time></trkpt><trkpt lon="5.837049" lat="51.223772"><ele>1.6</ele><time>2022-06-19T06:33:42.000Z</time></trkpt><trkpt lon="5.836996" lat="51.223825"><ele>1.6</ele><time>2022-06-19T06:33:43.000Z</time></trkpt><trkpt lon="5.836941" lat="51.223882"><ele>1.6</ele><time>2022-06-19T06:33:44.000Z</time></trkpt><trkpt lon="5.836884" lat="51.223939"><ele>1.6</ele><time>2022-06-19T06:33:45.000Z</time></trkpt><trkpt lon="5.836827" lat="51.223997"><ele>1.4</ele><time>2022-06-19T06:33:46.000Z</time></trkpt><trkpt lon="5.836773" lat="51.224054"><ele>1.4</ele><time>2022-06-19T06:33:47.000Z</time></trkpt><trkpt lon="5.836716" lat="51.224114"><ele>1.4</ele><time>2022-06-19T06:33:48.000Z</time></trkpt><trkpt lon="5.836662" lat="51.224173"><ele>1.4</ele><time>2022-06-19T06:33:49.000Z</time></trkpt><trkpt lon="5.836618" lat="51.224228"><ele>1.4</ele><time>2022-06-19T06:33:50.000Z</time></trkpt><trkpt lon="5.836571" lat="51.224282"><ele>1.4</ele><time>2022-06-19T06:33:51.000Z</time></trkpt><trkpt lon="5.836524" lat="51.224332"><ele>1.4</ele><time>2022-06-19T06:33:52.000Z</time></trkpt><trkpt lon="5.836477" lat="51.224386"><ele>1.4</ele><time>2022-06-19T06:33:53.000Z</time></trkpt><trkpt lon="5.836431" lat="51.22444"><ele>1.4</ele><time>2022-06-19T06:33:54.000Z</time></trkpt><trkpt lon="5.83638" lat="51.224499"><ele>1.4</ele><time>2022-06-19T06:33:55.000Z</time></trkpt><trkpt lon="5.836331" lat="51.224561"><ele>1.2</ele><time>2022-06-19T06:33:56.000Z</time></trkpt><trkpt lon="5.836284" lat="51.224621"><ele>1.2</ele><time>2022-06-19T06:33:57.000Z</time></trkpt><trkpt lon="5.836236" lat="51.224686"><ele>1</ele><time>2022-06-19T06:33:58.000Z</time></trkpt><trkpt lon="5.836188" lat="51.22475"><ele>1</ele><time>2022-06-19T06:33:59.000Z</time></trkpt><trkpt lon="5.83614" lat="51.224815"><ele>1</ele><time>2022-06-19T06:34:00.000Z</time></trkpt><trkpt lon="5.83609" lat="51.224877"><ele>1</ele><time>2022-06-19T06:34:01.000Z</time></trkpt><trkpt lon="5.836039" lat="51.224942"><ele>0.8</ele><time>2022-06-19T06:34:02.000Z</time></trkpt><trkpt lon="5.835991" lat="51.225007"><ele>0.8</ele><time>2022-06-19T06:34:03.000Z</time></trkpt><trkpt lon="5.835942" lat="51.225068"><ele>0.6</ele><time>2022-06-19T06:34:04.000Z</time></trkpt><trkpt lon="5.835895" lat="51.225132"><ele>0.4</ele><time>2022-06-19T06:34:05.000Z</time></trkpt><trkpt lon="5.835844" lat="51.225198"><ele>0.2</ele><time>2022-06-19T06:34:06.000Z</time></trkpt><trkpt lon="5.835796" lat="51.225259"><ele>0.2</ele><time>2022-06-19T06:34:07.000Z</time></trkpt><trkpt lon="5.83576" lat="51.22531"><ele>0</ele><time>2022-06-19T06:34:08.000Z</time></trkpt><trkpt lon="5.835703" lat="51.225387"><ele>-0.2</ele><time>2022-06-19T06:34:09.000Z</time></trkpt><trkpt lon="5.835653" lat="51.225449"><ele>-0.4</ele><time>2022-06-19T06:34:10.000Z</time></trkpt><trkpt lon="5.835604" lat="51.225511"><ele>-0.4</ele><time>2022-06-19T06:34:11.000Z</time></trkpt><trkpt lon="5.835556" lat="51.225571"><ele>-0.6</ele><time>2022-06-19T06:34:12.000Z</time></trkpt><trkpt lon="5.835505" lat="51.225633"><ele>-0.8</ele><time>2022-06-19T06:34:13.000Z</time></trkpt><trkpt lon="5.835456" lat="51.225693"><ele>-0.8</ele><time>2022-06-19T06:34:14.000Z</time></trkpt><trkpt lon="5.835406" lat="51.225751"><ele>-0.8</ele><time>2022-06-19T06:34:15.000Z</time></trkpt><trkpt lon="5.835356" lat="51.225811"><ele>-0.8</ele><time>2022-06-19T06:34:16.000Z</time></trkpt><trkpt lon="5.835308" lat="51.225868"><ele>-0.8</ele><time>2022-06-19T06:34:17.000Z</time></trkpt><trkpt lon="5.835258" lat="51.225934"><ele>-0.8</ele><time>2022-06-19T06:34:18.000Z</time></trkpt><trkpt lon="5.835208" lat="51.225995"><ele>-0.8</ele><time>2022-06-19T06:34:19.000Z</time></trkpt><trkpt lon="5.835161" lat="51.226055"><ele>-0.8</ele><time>2022-06-19T06:34:20.000Z</time></trkpt><trkpt lon="5.835113" lat="51.226117"><ele>-0.8</ele><time>2022-06-19T06:34:21.000Z</time></trkpt><trkpt lon="5.835063" lat="51.226177"><ele>-0.6</ele><time>2022-06-19T06:34:22.000Z</time></trkpt><trkpt lon="5.835013" lat="51.226242"><ele>-0.6</ele><time>2022-06-19T06:34:23.000Z</time></trkpt><trkpt lon="5.834964" lat="51.226304"><ele>-0.4</ele><time>2022-06-19T06:34:24.000Z</time></trkpt><trkpt lon="5.834915" lat="51.226365"><ele>-0.4</ele><time>2022-06-19T06:34:25.000Z</time></trkpt><trkpt lon="5.83487" lat="51.226421"><ele>-0.4</ele><time>2022-06-19T06:34:26.000Z</time></trkpt><trkpt lon="5.834818" lat="51.226488"><ele>-0.2</ele><time>2022-06-19T06:34:27.000Z</time></trkpt><trkpt lon="5.834769" lat="51.22655"><ele>-0.2</ele><time>2022-06-19T06:34:28.000Z</time></trkpt><trkpt lon="5.834719" lat="51.226611"><ele>0</ele><time>2022-06-19T06:34:29.000Z</time></trkpt><trkpt lon="5.834673" lat="51.226672"><ele>0</ele><time>2022-06-19T06:34:30.000Z</time></trkpt><trkpt lon="5.834625" lat="51.226729"><ele>0</ele><time>2022-06-19T06:34:31.000Z</time></trkpt><trkpt lon="5.834578" lat="51.226793"><ele>0</ele><time>2022-06-19T06:34:32.000Z</time></trkpt><trkpt lon="5.834528" lat="51.22685"><ele>0</ele><time>2022-06-19T06:34:33.000Z</time></trkpt><trkpt lon="5.83448" lat="51.226912"><ele>0</ele><time>2022-06-19T06:34:34.000Z</time></trkpt><trkpt lon="5.834431" lat="51.226977"><ele>-0.2</ele><time>2022-06-19T06:34:35.000Z</time></trkpt><trkpt lon="5.834381" lat="51.227038"><ele>-0.2</ele><time>2022-06-19T06:34:36.000Z</time></trkpt><trkpt lon="5.834335" lat="51.227096"><ele>-0.2</ele><time>2022-06-19T06:34:37.000Z</time></trkpt><trkpt lon="5.834285" lat="51.227163"><ele>-0.2</ele><time>2022-06-19T06:34:38.000Z</time></trkpt><trkpt lon="5.834234" lat="51.227225"><ele>-0.2</ele><time>2022-06-19T06:34:39.000Z</time></trkpt><trkpt lon="5.834185" lat="51.227281"><ele>-0.2</ele><time>2022-06-19T06:34:40.000Z</time></trkpt><trkpt lon="5.834135" lat="51.227347"><ele>-0.2</ele><time>2022-06-19T06:34:41.000Z</time></trkpt><trkpt lon="5.834087" lat="51.227406"><ele>-0.2</ele><time>2022-06-19T06:34:42.000Z</time></trkpt><trkpt lon="5.83404" lat="51.227464"><ele>-0.2</ele><time>2022-06-19T06:34:43.000Z</time></trkpt><trkpt lon="5.833993" lat="51.22753"><ele>-0.2</ele><time>2022-06-19T06:34:44.000Z</time></trkpt><trkpt lon="5.833947" lat="51.227586"><ele>-0.2</ele><time>2022-06-19T06:34:45.000Z</time></trkpt><trkpt lon="5.833898" lat="51.227651"><ele>-0.4</ele><time>2022-06-19T06:34:46.000Z</time></trkpt><trkpt lon="5.833849" lat="51.22771"><ele>-0.4</ele><time>2022-06-19T06:34:47.000Z</time></trkpt><trkpt lon="5.833801" lat="51.22777"><ele>-0.6</ele><time>2022-06-19T06:34:48.000Z</time></trkpt><trkpt lon="5.833751" lat="51.227831"><ele>-0.6</ele><time>2022-06-19T06:34:49.000Z</time></trkpt><trkpt lon="5.833699" lat="51.227892"><ele>-0.8</ele><time>2022-06-19T06:34:50.000Z</time></trkpt><trkpt lon="5.833648" lat="51.227953"><ele>-0.8</ele><time>2022-06-19T06:34:51.000Z</time></trkpt><trkpt lon="5.833596" lat="51.228014"><ele>-1</ele><time>2022-06-19T06:34:52.000Z</time></trkpt><trkpt lon="5.833544" lat="51.228072"><ele>-1.2</ele><time>2022-06-19T06:34:53.000Z</time></trkpt><trkpt lon="5.833494" lat="51.228132"><ele>-1.4</ele><time>2022-06-19T06:34:54.000Z</time></trkpt><trkpt lon="5.833446" lat="51.228194"><ele>-1.4</ele><time>2022-06-19T06:34:55.000Z</time></trkpt><trkpt lon="5.833398" lat="51.228254"><ele>-1.6</ele><time>2022-06-19T06:34:56.000Z</time></trkpt><trkpt lon="5.833353" lat="51.228316"><ele>-1.6</ele><time>2022-06-19T06:34:57.000Z</time></trkpt><trkpt lon="5.833305" lat="51.228377"><ele>-1.8</ele><time>2022-06-19T06:34:58.000Z</time></trkpt><trkpt lon="5.833258" lat="51.228438"><ele>-2</ele><time>2022-06-19T06:34:59.000Z</time></trkpt><trkpt lon="5.833211" lat="51.228497"><ele>-2</ele><time>2022-06-19T06:35:00.000Z</time></trkpt><trkpt lon="5.833161" lat="51.228563"><ele>-2</ele><time>2022-06-19T06:35:01.000Z</time></trkpt><trkpt lon="5.833113" lat="51.228624"><ele>-2.2</ele><time>2022-06-19T06:35:02.000Z</time></trkpt><trkpt lon="5.833065" lat="51.228685"><ele>-2.2</ele><time>2022-06-19T06:35:03.000Z</time></trkpt><trkpt lon="5.833019" lat="51.228747"><ele>-2.2</ele><time>2022-06-19T06:35:04.000Z</time></trkpt><trkpt lon="5.832976" lat="51.228808"><ele>-2.4</ele><time>2022-06-19T06:35:05.000Z</time></trkpt><trkpt lon="5.832935" lat="51.228864"><ele>-2.6</ele><time>2022-06-19T06:35:06.000Z</time></trkpt><trkpt lon="5.832896" lat="51.228918"><ele>-2.6</ele><time>2022-06-19T06:35:07.000Z</time></trkpt><trkpt lon="5.832861" lat="51.228966"><ele>-2.6</ele><time>2022-06-19T06:35:08.000Z</time></trkpt><trkpt lon="5.832823" lat="51.229014"><ele>-2.4</ele><time>2022-06-19T06:35:09.000Z</time></trkpt><trkpt lon="5.832788" lat="51.229055"><ele>-2.4</ele><time>2022-06-19T06:35:10.000Z</time></trkpt><trkpt lon="5.832758" lat="51.229097"><ele>-2.4</ele><time>2022-06-19T06:35:11.000Z</time></trkpt><trkpt lon="5.832733" lat="51.229128"><ele>-2.4</ele><time>2022-06-19T06:35:12.000Z</time></trkpt><trkpt lon="5.832717" lat="51.229156"><ele>-2.4</ele><time>2022-06-19T06:35:13.000Z</time></trkpt><trkpt lon="5.832718" lat="51.229182"><ele>-2.4</ele><time>2022-06-19T06:35:14.000Z</time></trkpt><trkpt lon="5.832738" lat="51.229198"><ele>-2.4</ele><time>2022-06-19T06:35:15.000Z</time></trkpt><trkpt lon="5.832775" lat="51.229209"><ele>-2.4</ele><time>2022-06-19T06:35:16.000Z</time></trkpt><trkpt lon="5.832827" lat="51.229214"><ele>-2.4</ele><time>2022-06-19T06:35:17.000Z</time></trkpt><trkpt lon="5.832891" lat="51.229214"><ele>-2.6</ele><time>2022-06-19T06:35:18.000Z</time></trkpt><trkpt lon="5.832965" lat="51.229214"><ele>-2.6</ele><time>2022-06-19T06:35:19.000Z</time></trkpt><trkpt lon="5.833053" lat="51.229214"><ele>-2.8</ele><time>2022-06-19T06:35:20.000Z</time></trkpt><trkpt lon="5.833145" lat="51.229214"><ele>-2.8</ele><time>2022-06-19T06:35:21.000Z</time></trkpt><trkpt lon="5.833242" lat="51.22921"><ele>-2.8</ele><time>2022-06-19T06:35:22.000Z</time></trkpt><trkpt lon="5.833346" lat="51.22921"><ele>-2.8</ele><time>2022-06-19T06:35:23.000Z</time></trkpt><trkpt lon="5.833454" lat="51.22921"><ele>-2.8</ele><time>2022-06-19T06:35:24.000Z</time></trkpt><trkpt lon="5.833564" lat="51.229206"><ele>-2.8</ele><time>2022-06-19T06:35:25.000Z</time></trkpt><trkpt lon="5.833679" lat="51.229202"><ele>-2.8</ele><time>2022-06-19T06:35:26.000Z</time></trkpt><trkpt lon="5.833795" lat="51.229199"><ele>-2.8</ele><time>2022-06-19T06:35:27.000Z</time></trkpt><trkpt lon="5.83391" lat="51.229198"><ele>-2.8</ele><time>2022-06-19T06:35:28.000Z</time></trkpt><trkpt lon="5.83403" lat="51.229195"><ele>-3</ele><time>2022-06-19T06:35:29.000Z</time></trkpt><trkpt lon="5.834149" lat="51.229187"><ele>-3</ele><time>2022-06-19T06:35:30.000Z</time></trkpt><trkpt lon="5.834263" lat="51.22918"><ele>-3</ele><time>2022-06-19T06:35:31.000Z</time></trkpt><trkpt lon="5.834379" lat="51.229176"><ele>-3</ele><time>2022-06-19T06:35:32.000Z</time></trkpt><trkpt lon="5.834496" lat="51.229168"><ele>-3</ele><time>2022-06-19T06:35:33.000Z</time></trkpt><trkpt lon="5.834607" lat="51.229161"><ele>-3</ele><time>2022-06-19T06:35:34.000Z</time></trkpt><trkpt lon="5.834721" lat="51.229157"><ele>-3</ele><time>2022-06-19T06:35:35.000Z</time></trkpt><trkpt lon="5.834833" lat="51.229145"><ele>-3</ele><time>2022-06-19T06:35:36.000Z</time></trkpt><trkpt lon="5.834941" lat="51.229142"><ele>-3</ele><time>2022-06-19T06:35:37.000Z</time></trkpt><trkpt lon="5.835057" lat="51.229134"><ele>-3</ele><time>2022-06-19T06:35:38.000Z</time></trkpt><trkpt lon="5.835169" lat="51.229126"><ele>-3</ele><time>2022-06-19T06:35:39.000Z</time></trkpt><trkpt lon="5.835283" lat="51.229119"><ele>-3</ele><time>2022-06-19T06:35:40.000Z</time></trkpt><trkpt lon="5.835397" lat="51.229115"><ele>-3.2</ele><time>2022-06-19T06:35:41.000Z</time></trkpt><trkpt lon="5.835512" lat="51.229107"><ele>-3.2</ele><time>2022-06-19T06:35:42.000Z</time></trkpt><trkpt lon="5.835624" lat="51.229103"><ele>-3.2</ele><time>2022-06-19T06:35:43.000Z</time></trkpt><trkpt lon="5.835747" lat="51.229092"><ele>-3.2</ele><time>2022-06-19T06:35:44.000Z</time></trkpt><trkpt lon="5.835864" lat="51.229088"><ele>-3.2</ele><time>2022-06-19T06:35:45.000Z</time></trkpt><trkpt lon="5.835981" lat="51.229081"><ele>-3.4</ele><time>2022-06-19T06:35:46.000Z</time></trkpt><trkpt lon="5.836094" lat="51.229077"><ele>-3.4</ele><time>2022-06-19T06:35:47.000Z</time></trkpt><trkpt lon="5.836211" lat="51.229069"><ele>-3.4</ele><time>2022-06-19T06:35:48.000Z</time></trkpt><trkpt lon="5.836327" lat="51.229063"><ele>-3.6</ele><time>2022-06-19T06:35:49.000Z</time></trkpt><trkpt lon="5.836444" lat="51.229057"><ele>-3.8</ele><time>2022-06-19T06:35:50.000Z</time></trkpt><trkpt lon="5.836558" lat="51.22905"><ele>-3.8</ele><time>2022-06-19T06:35:51.000Z</time></trkpt><trkpt lon="5.836676" lat="51.229042"><ele>-4</ele><time>2022-06-19T06:35:52.000Z</time></trkpt><trkpt lon="5.836791" lat="51.229035"><ele>-4.2</ele><time>2022-06-19T06:35:53.000Z</time></trkpt><trkpt lon="5.83691" lat="51.229027"><ele>-4.2</ele><time>2022-06-19T06:35:54.000Z</time></trkpt><trkpt lon="5.837028" lat="51.229023"><ele>-4.4</ele><time>2022-06-19T06:35:55.000Z</time></trkpt><trkpt lon="5.837145" lat="51.229012"><ele>-4.6</ele><time>2022-06-19T06:35:56.000Z</time></trkpt><trkpt lon="5.837263" lat="51.229004"><ele>-4.6</ele><time>2022-06-19T06:35:57.000Z</time></trkpt><trkpt lon="5.837379" lat="51.228997"><ele>-4.8</ele><time>2022-06-19T06:35:58.000Z</time></trkpt><trkpt lon="5.837495" lat="51.228989"><ele>-4.8</ele><time>2022-06-19T06:35:59.000Z</time></trkpt><trkpt lon="5.83761" lat="51.228985"><ele>-5</ele><time>2022-06-19T06:36:00.000Z</time></trkpt><trkpt lon="5.837723" lat="51.228977"><ele>-5</ele><time>2022-06-19T06:36:01.000Z</time></trkpt><trkpt lon="5.837826" lat="51.228973"><ele>-5</ele><time>2022-06-19T06:36:02.000Z</time></trkpt><trkpt lon="5.837928" lat="51.22897"><ele>-4.8</ele><time>2022-06-19T06:36:03.000Z</time></trkpt><trkpt lon="5.838029" lat="51.228962"><ele>-4.6</ele><time>2022-06-19T06:36:04.000Z</time></trkpt><trkpt lon="5.838132" lat="51.228954"><ele>-4.6</ele><time>2022-06-19T06:36:05.000Z</time></trkpt><trkpt lon="5.838228" lat="51.228947"><ele>-4.4</ele><time>2022-06-19T06:36:06.000Z</time></trkpt><trkpt lon="5.838323" lat="51.228943"><ele>-4.4</ele><time>2022-06-19T06:36:07.000Z</time></trkpt><trkpt lon="5.838419" lat="51.228939"><ele>-4.4</ele><time>2022-06-19T06:36:08.000Z</time></trkpt><trkpt lon="5.838511" lat="51.228935"><ele>-4.4</ele><time>2022-06-19T06:36:09.000Z</time></trkpt><trkpt lon="5.838603" lat="51.228932"><ele>-4.2</ele><time>2022-06-19T06:36:10.000Z</time></trkpt><trkpt lon="5.838686" lat="51.228928"><ele>-4.2</ele><time>2022-06-19T06:36:11.000Z</time></trkpt><trkpt lon="5.838767" lat="51.228931"><ele>-4.2</ele><time>2022-06-19T06:36:12.000Z</time></trkpt><trkpt lon="5.838853" lat="51.228935"><ele>-4.2</ele><time>2022-06-19T06:36:13.000Z</time></trkpt><trkpt lon="5.838944" lat="51.228939"><ele>-4.2</ele><time>2022-06-19T06:36:14.000Z</time></trkpt><trkpt lon="5.83904" lat="51.228939"><ele>-4</ele><time>2022-06-19T06:36:15.000Z</time></trkpt><trkpt lon="5.839133" lat="51.228943"><ele>-4</ele><time>2022-06-19T06:36:16.000Z</time></trkpt><trkpt lon="5.839221" lat="51.228958"><ele>-4</ele><time>2022-06-19T06:36:17.000Z</time></trkpt><trkpt lon="5.839297" lat="51.228987"><ele>-4</ele><time>2022-06-19T06:36:18.000Z</time></trkpt><trkpt lon="5.839356" lat="51.229033"><ele>-4</ele><time>2022-06-19T06:36:19.000Z</time></trkpt><trkpt lon="5.839389" lat="51.22909"><ele>-4</ele><time>2022-06-19T06:36:20.000Z</time></trkpt><trkpt lon="5.839406" lat="51.229153"><ele>-4.2</ele><time>2022-06-19T06:36:21.000Z</time></trkpt><trkpt lon="5.839415" lat="51.229225"><ele>-4.2</ele><time>2022-06-19T06:36:22.000Z</time></trkpt><trkpt lon="5.839418" lat="51.229299"><ele>-4.2</ele><time>2022-06-19T06:36:23.000Z</time></trkpt><trkpt lon="5.839423" lat="51.229376"><ele>-4.2</ele><time>2022-06-19T06:36:24.000Z</time></trkpt><trkpt lon="5.83943" lat="51.229452"><ele>-4.4</ele><time>2022-06-19T06:36:25.000Z</time></trkpt><trkpt lon="5.839438" lat="51.229528"><ele>-4.4</ele><time>2022-06-19T06:36:26.000Z</time></trkpt><trkpt lon="5.83945" lat="51.229605"><ele>-4.4</ele><time>2022-06-19T06:36:27.000Z</time></trkpt><trkpt lon="5.839462" lat="51.229689"><ele>-4.6</ele><time>2022-06-19T06:36:28.000Z</time></trkpt><trkpt lon="5.839475" lat="51.229768"><ele>-4.8</ele><time>2022-06-19T06:36:29.000Z</time></trkpt><trkpt lon="5.839488" lat="51.229848"><ele>-5</ele><time>2022-06-19T06:36:30.000Z</time></trkpt><trkpt lon="5.839498" lat="51.229933"><ele>-5.2</ele><time>2022-06-19T06:36:31.000Z</time></trkpt><trkpt lon="5.839508" lat="51.230012"><ele>-5.2</ele><time>2022-06-19T06:36:32.000Z</time></trkpt><trkpt lon="5.839518" lat="51.230089"><ele>-5.2</ele><time>2022-06-19T06:36:33.000Z</time></trkpt><trkpt lon="5.839526" lat="51.230169"><ele>-5.2</ele><time>2022-06-19T06:36:34.000Z</time></trkpt><trkpt lon="5.839536" lat="51.230245"><ele>-5.2</ele><time>2022-06-19T06:36:35.000Z</time></trkpt><trkpt lon="5.839547" lat="51.230319"><ele>-5.2</ele><time>2022-06-19T06:36:36.000Z</time></trkpt><trkpt lon="5.839557" lat="51.230398"><ele>-5.2</ele><time>2022-06-19T06:36:37.000Z</time></trkpt><trkpt lon="5.839564" lat="51.230473"><ele>-5.2</ele><time>2022-06-19T06:36:38.000Z</time></trkpt><trkpt lon="5.839571" lat="51.230547"><ele>-5.4</ele><time>2022-06-19T06:36:39.000Z</time></trkpt><trkpt lon="5.83958" lat="51.230618"><ele>-5.4</ele><time>2022-06-19T06:36:40.000Z</time></trkpt><trkpt lon="5.839588" lat="51.230692"><ele>-5.4</ele><time>2022-06-19T06:36:41.000Z</time></trkpt><trkpt lon="5.839596" lat="51.230762"><ele>-5.4</ele><time>2022-06-19T06:36:42.000Z</time></trkpt><trkpt lon="5.839608" lat="51.230833"><ele>-5.4</ele><time>2022-06-19T06:36:43.000Z</time></trkpt><trkpt lon="5.839617" lat="51.230905"><ele>-5.6</ele><time>2022-06-19T06:36:44.000Z</time></trkpt><trkpt lon="5.839625" lat="51.230978"><ele>-5.6</ele><time>2022-06-19T06:36:45.000Z</time></trkpt><trkpt lon="5.839631" lat="51.231047"><ele>-6</ele><time>2022-06-19T06:36:46.000Z</time></trkpt><trkpt lon="5.839643" lat="51.231122"><ele>-6.2</ele><time>2022-06-19T06:36:47.000Z</time></trkpt><trkpt lon="5.839654" lat="51.23119"><ele>-6.2</ele><time>2022-06-19T06:36:48.000Z</time></trkpt><trkpt lon="5.839667" lat="51.23126"><ele>-6.2</ele><time>2022-06-19T06:36:49.000Z</time></trkpt><trkpt lon="5.839677" lat="51.231336"><ele>-6.2</ele><time>2022-06-19T06:36:50.000Z</time></trkpt><trkpt lon="5.839681" lat="51.231405"><ele>-6.2</ele><time>2022-06-19T06:36:51.000Z</time></trkpt><trkpt lon="5.839688" lat="51.231482"><ele>-6.2</ele><time>2022-06-19T06:36:52.000Z</time></trkpt><trkpt lon="5.839697" lat="51.23155"><ele>-6.2</ele><time>2022-06-19T06:36:53.000Z</time></trkpt><trkpt lon="5.839708" lat="51.231622"><ele>-6.2</ele><time>2022-06-19T06:36:54.000Z</time></trkpt><trkpt lon="5.839719" lat="51.231691"><ele>-6.2</ele><time>2022-06-19T06:36:55.000Z</time></trkpt><trkpt lon="5.839731" lat="51.231764"><ele>-6.4</ele><time>2022-06-19T06:36:56.000Z</time></trkpt><trkpt lon="5.839741" lat="51.231835"><ele>-6.4</ele><time>2022-06-19T06:36:57.000Z</time></trkpt><trkpt lon="5.83975" lat="51.231905"><ele>-6.4</ele><time>2022-06-19T06:36:58.000Z</time></trkpt><trkpt lon="5.83975" lat="51.23197"><ele>-6.2</ele><time>2022-06-19T06:36:59.000Z</time></trkpt><trkpt lon="5.83974" lat="51.232034"><ele>-6.2</ele><time>2022-06-19T06:37:00.000Z</time></trkpt><trkpt lon="5.839718" lat="51.232096"><ele>-6</ele><time>2022-06-19T06:37:01.000Z</time></trkpt><trkpt lon="5.839683" lat="51.232157"><ele>-6</ele><time>2022-06-19T06:37:02.000Z</time></trkpt><trkpt lon="5.839635" lat="51.232219"><ele>-6</ele><time>2022-06-19T06:37:03.000Z</time></trkpt><trkpt lon="5.839578" lat="51.232279"><ele>-6.2</ele><time>2022-06-19T06:37:04.000Z</time></trkpt><trkpt lon="5.839522" lat="51.232336"><ele>-6.4</ele><time>2022-06-19T06:37:05.000Z</time></trkpt><trkpt lon="5.839467" lat="51.232393"><ele>-6.6</ele><time>2022-06-19T06:37:06.000Z</time></trkpt><trkpt lon="5.83941" lat="51.232453"><ele>-7</ele><time>2022-06-19T06:37:07.000Z</time></trkpt><trkpt lon="5.839353" lat="51.232512"><ele>-7.4</ele><time>2022-06-19T06:37:08.000Z</time></trkpt><trkpt lon="5.839297" lat="51.232567"><ele>-7.6</ele><time>2022-06-19T06:37:09.000Z</time></trkpt><trkpt lon="5.839237" lat="51.232626"><ele>-8</ele><time>2022-06-19T06:37:10.000Z</time></trkpt><trkpt lon="5.839177" lat="51.23268"><ele>-8.2</ele><time>2022-06-19T06:37:11.000Z</time></trkpt><trkpt lon="5.839115" lat="51.232737"><ele>-8.4</ele><time>2022-06-19T06:37:12.000Z</time></trkpt><trkpt lon="5.839054" lat="51.232791"><ele>-8.6</ele><time>2022-06-19T06:37:13.000Z</time></trkpt><trkpt lon="5.838995" lat="51.232846"><ele>-8.4</ele><time>2022-06-19T06:37:14.000Z</time></trkpt><trkpt lon="5.838932" lat="51.232905"><ele>-8.4</ele><time>2022-06-19T06:37:15.000Z</time></trkpt><trkpt lon="5.838873" lat="51.232962"><ele>-8.4</ele><time>2022-06-19T06:37:16.000Z</time></trkpt><trkpt lon="5.838812" lat="51.233015"><ele>-8.2</ele><time>2022-06-19T06:37:17.000Z</time></trkpt><trkpt lon="5.838754" lat="51.233072"><ele>-8.2</ele><time>2022-06-19T06:37:18.000Z</time></trkpt><trkpt lon="5.838695" lat="51.233126"><ele>-8</ele><time>2022-06-19T06:37:19.000Z</time></trkpt><trkpt lon="5.838637" lat="51.233183"><ele>-8</ele><time>2022-06-19T06:37:20.000Z</time></trkpt><trkpt lon="5.838578" lat="51.233241"><ele>-7.8</ele><time>2022-06-19T06:37:21.000Z</time></trkpt><trkpt lon="5.83852" lat="51.233298"><ele>-8</ele><time>2022-06-19T06:37:22.000Z</time></trkpt><trkpt lon="5.838462" lat="51.233354"><ele>-7.8</ele><time>2022-06-19T06:37:23.000Z</time></trkpt><trkpt lon="5.838404" lat="51.233409"><ele>-7.8</ele><time>2022-06-19T06:37:24.000Z</time></trkpt><trkpt lon="5.838347" lat="51.233461"><ele>-7.8</ele><time>2022-06-19T06:37:25.000Z</time></trkpt><trkpt lon="5.838288" lat="51.233515"><ele>-7.8</ele><time>2022-06-19T06:37:26.000Z</time></trkpt><trkpt lon="5.838229" lat="51.233572"><ele>-7.8</ele><time>2022-06-19T06:37:27.000Z</time></trkpt><trkpt lon="5.838169" lat="51.233625"><ele>-7.6</ele><time>2022-06-19T06:37:28.000Z</time></trkpt><trkpt lon="5.838115" lat="51.233677"><ele>-7.6</ele><time>2022-06-19T06:37:29.000Z</time></trkpt><trkpt lon="5.838058" lat="51.233729"><ele>-7.6</ele><time>2022-06-19T06:37:30.000Z</time></trkpt><trkpt lon="5.838008" lat="51.233779"><ele>-7.6</ele><time>2022-06-19T06:37:31.000Z</time></trkpt><trkpt lon="5.837969" lat="51.233824"><ele>-7.6</ele><time>2022-06-19T06:37:32.000Z</time></trkpt><trkpt lon="5.837955" lat="51.23387"><ele>-7.6</ele><time>2022-06-19T06:37:33.000Z</time></trkpt><trkpt lon="5.837979" lat="51.233904"><ele>-7.6</ele><time>2022-06-19T06:37:34.000Z</time></trkpt><trkpt lon="5.838038" lat="51.233936"><ele>-7.4</ele><time>2022-06-19T06:37:35.000Z</time></trkpt><trkpt lon="5.838114" lat="51.233965"><ele>-7.4</ele><time>2022-06-19T06:37:36.000Z</time></trkpt><trkpt lon="5.838201" lat="51.233993"><ele>-7.4</ele><time>2022-06-19T06:37:37.000Z</time></trkpt><trkpt lon="5.838289" lat="51.23402"><ele>-7.4</ele><time>2022-06-19T06:37:38.000Z</time></trkpt><trkpt lon="5.838376" lat="51.234053"><ele>-7.4</ele><time>2022-06-19T06:37:39.000Z</time></trkpt><trkpt lon="5.838467" lat="51.234084"><ele>-7.4</ele><time>2022-06-19T06:37:40.000Z</time></trkpt><trkpt lon="5.838556" lat="51.234118"><ele>-7.4</ele><time>2022-06-19T06:37:41.000Z</time></trkpt><trkpt lon="5.838652" lat="51.234153"><ele>-7.4</ele><time>2022-06-19T06:37:42.000Z</time></trkpt><trkpt lon="5.838746" lat="51.234187"><ele>-7.4</ele><time>2022-06-19T06:37:43.000Z</time></trkpt><trkpt lon="5.838842" lat="51.234218"><ele>-7.2</ele><time>2022-06-19T06:37:44.000Z</time></trkpt><trkpt lon="5.838935" lat="51.234255"><ele>-7.4</ele><time>2022-06-19T06:37:45.000Z</time></trkpt><trkpt lon="5.839034" lat="51.23429"><ele>-7.4</ele><time>2022-06-19T06:37:46.000Z</time></trkpt><trkpt lon="5.839129" lat="51.234325"><ele>-7.4</ele><time>2022-06-19T06:37:47.000Z</time></trkpt><trkpt lon="5.839227" lat="51.234359"><ele>-7.4</ele><time>2022-06-19T06:37:48.000Z</time></trkpt><trkpt lon="5.839328" lat="51.23439"><ele>-7.4</ele><time>2022-06-19T06:37:49.000Z</time></trkpt><trkpt lon="5.839426" lat="51.234424"><ele>-7.4</ele><time>2022-06-19T06:37:50.000Z</time></trkpt><trkpt lon="5.839527" lat="51.234454"><ele>-7.4</ele><time>2022-06-19T06:37:51.000Z</time></trkpt><trkpt lon="5.839627" lat="51.234488"><ele>-7.4</ele><time>2022-06-19T06:37:52.000Z</time></trkpt><trkpt lon="5.83973" lat="51.234519"><ele>-7.4</ele><time>2022-06-19T06:37:53.000Z</time></trkpt><trkpt lon="5.839835" lat="51.234546"><ele>-7.4</ele><time>2022-06-19T06:37:54.000Z</time></trkpt><trkpt lon="5.839941" lat="51.234577"><ele>-7.4</ele><time>2022-06-19T06:37:55.000Z</time></trkpt><trkpt lon="5.840044" lat="51.234606"><ele>-7.4</ele><time>2022-06-19T06:37:56.000Z</time></trkpt><trkpt lon="5.840152" lat="51.234637"><ele>-7.6</ele><time>2022-06-19T06:37:57.000Z</time></trkpt><trkpt lon="5.840258" lat="51.234664"><ele>-7.6</ele><time>2022-06-19T06:37:58.000Z</time></trkpt><trkpt lon="5.840365" lat="51.234695"><ele>-7.8</ele><time>2022-06-19T06:37:59.000Z</time></trkpt><trkpt lon="5.840472" lat="51.234725"><ele>-7.8</ele><time>2022-06-19T06:38:00.000Z</time></trkpt><trkpt lon="5.840576" lat="51.234755"><ele>-8</ele><time>2022-06-19T06:38:01.000Z</time></trkpt><trkpt lon="5.840685" lat="51.234785"><ele>-8</ele><time>2022-06-19T06:38:02.000Z</time></trkpt><trkpt lon="5.840791" lat="51.234816"><ele>-8</ele><time>2022-06-19T06:38:03.000Z</time></trkpt><trkpt lon="5.840895" lat="51.234846"><ele>-8</ele><time>2022-06-19T06:38:04.000Z</time></trkpt><trkpt lon="5.841002" lat="51.234877"><ele>-8.2</ele><time>2022-06-19T06:38:05.000Z</time></trkpt><trkpt lon="5.841107" lat="51.234908"><ele>-8.2</ele><time>2022-06-19T06:38:06.000Z</time></trkpt><trkpt lon="5.841204" lat="51.234936"><ele>-8.2</ele><time>2022-06-19T06:38:07.000Z</time></trkpt><trkpt lon="5.841313" lat="51.234969"><ele>-8</ele><time>2022-06-19T06:38:08.000Z</time></trkpt><trkpt lon="5.841408" lat="51.235"><ele>-8</ele><time>2022-06-19T06:38:09.000Z</time></trkpt><trkpt lon="5.841497" lat="51.235034"><ele>-8</ele><time>2022-06-19T06:38:10.000Z</time></trkpt><trkpt lon="5.841579" lat="51.235075"><ele>-8</ele><time>2022-06-19T06:38:11.000Z</time></trkpt><trkpt lon="5.841653" lat="51.235121"><ele>-7.8</ele><time>2022-06-19T06:38:12.000Z</time></trkpt><trkpt lon="5.841723" lat="51.235178"><ele>-8</ele><time>2022-06-19T06:38:13.000Z</time></trkpt><trkpt lon="5.841786" lat="51.235235"><ele>-8</ele><time>2022-06-19T06:38:14.000Z</time></trkpt><trkpt lon="5.841848" lat="51.235297"><ele>-8</ele><time>2022-06-19T06:38:15.000Z</time></trkpt><trkpt lon="5.84191" lat="51.235357"><ele>-8</ele><time>2022-06-19T06:38:16.000Z</time></trkpt><trkpt lon="5.841969" lat="51.235417"><ele>-7.8</ele><time>2022-06-19T06:38:17.000Z</time></trkpt><trkpt lon="5.842029" lat="51.235476"><ele>-7.8</ele><time>2022-06-19T06:38:18.000Z</time></trkpt><trkpt lon="5.842084" lat="51.235537"><ele>-7.6</ele><time>2022-06-19T06:38:19.000Z</time></trkpt><trkpt lon="5.842135" lat="51.235597"><ele>-7.6</ele><time>2022-06-19T06:38:20.000Z</time></trkpt><trkpt lon="5.842188" lat="51.235659"><ele>-7.6</ele><time>2022-06-19T06:38:21.000Z</time></trkpt><trkpt lon="5.842243" lat="51.235719"><ele>-7.6</ele><time>2022-06-19T06:38:22.000Z</time></trkpt><trkpt lon="5.842298" lat="51.235781"><ele>-7.6</ele><time>2022-06-19T06:38:23.000Z</time></trkpt><trkpt lon="5.842356" lat="51.235838"><ele>-7.6</ele><time>2022-06-19T06:38:24.000Z</time></trkpt><trkpt lon="5.842419" lat="51.235896"><ele>-7.6</ele><time>2022-06-19T06:38:25.000Z</time></trkpt><trkpt lon="5.842485" lat="51.235952"><ele>-7.6</ele><time>2022-06-19T06:38:26.000Z</time></trkpt><trkpt lon="5.842553" lat="51.236006"><ele>-7.6</ele><time>2022-06-19T06:38:27.000Z</time></trkpt><trkpt lon="5.842624" lat="51.23606"><ele>-7.8</ele><time>2022-06-19T06:38:28.000Z</time></trkpt><trkpt lon="5.842692" lat="51.236113"><ele>-7.8</ele><time>2022-06-19T06:38:29.000Z</time></trkpt><trkpt lon="5.842759" lat="51.236166"><ele>-7.6</ele><time>2022-06-19T06:38:30.000Z</time></trkpt><trkpt lon="5.842826" lat="51.23622"><ele>-7.6</ele><time>2022-06-19T06:38:31.000Z</time></trkpt><trkpt lon="5.842895" lat="51.236274"><ele>-7.6</ele><time>2022-06-19T06:38:32.000Z</time></trkpt><trkpt lon="5.842961" lat="51.236327"><ele>-7.6</ele><time>2022-06-19T06:38:33.000Z</time></trkpt><trkpt lon="5.843027" lat="51.236376"><ele>-7.6</ele><time>2022-06-19T06:38:34.000Z</time></trkpt><trkpt lon="5.843093" lat="51.236426"><ele>-7.6</ele><time>2022-06-19T06:38:35.000Z</time></trkpt><trkpt lon="5.843157" lat="51.23647"><ele>-7.6</ele><time>2022-06-19T06:38:36.000Z</time></trkpt><trkpt lon="5.843223" lat="51.236517"><ele>-7.6</ele><time>2022-06-19T06:38:37.000Z</time></trkpt><trkpt lon="5.843279" lat="51.236566"><ele>-7.6</ele><time>2022-06-19T06:38:38.000Z</time></trkpt><trkpt lon="5.843331" lat="51.23661"><ele>-7.6</ele><time>2022-06-19T06:38:39.000Z</time></trkpt><trkpt lon="5.843365" lat="51.236652"><ele>-7.4</ele><time>2022-06-19T06:38:40.000Z</time></trkpt><trkpt lon="5.843373" lat="51.236697"><ele>-7.4</ele><time>2022-06-19T06:38:41.000Z</time></trkpt><trkpt lon="5.843356" lat="51.236735"><ele>-7.4</ele><time>2022-06-19T06:38:42.000Z</time></trkpt><trkpt lon="5.843304" lat="51.236758"><ele>-7.4</ele><time>2022-06-19T06:38:43.000Z</time></trkpt><trkpt lon="5.843224" lat="51.236778"><ele>-7.4</ele><time>2022-06-19T06:38:44.000Z</time></trkpt><trkpt lon="5.843136" lat="51.236793"><ele>-7.6</ele><time>2022-06-19T06:38:45.000Z</time></trkpt><trkpt lon="5.843041" lat="51.236808"><ele>-7.6</ele><time>2022-06-19T06:38:46.000Z</time></trkpt><trkpt lon="5.842946" lat="51.236824"><ele>-7.8</ele><time>2022-06-19T06:38:47.000Z</time></trkpt><trkpt lon="5.842853" lat="51.236842"><ele>-8</ele><time>2022-06-19T06:38:48.000Z</time></trkpt><trkpt lon="5.842753" lat="51.236858"><ele>-8.2</ele><time>2022-06-19T06:38:49.000Z</time></trkpt><trkpt lon="5.842655" lat="51.236877"><ele>-8.2</ele><time>2022-06-19T06:38:50.000Z</time></trkpt><trkpt lon="5.842554" lat="51.236892"><ele>-8.2</ele><time>2022-06-19T06:38:51.000Z</time></trkpt><trkpt lon="5.842454" lat="51.236911"><ele>-8.4</ele><time>2022-06-19T06:38:52.000Z</time></trkpt><trkpt lon="5.842353" lat="51.23693"><ele>-8.6</ele><time>2022-06-19T06:38:53.000Z</time></trkpt><trkpt lon="5.842252" lat="51.23695"><ele>-8.6</ele><time>2022-06-19T06:38:54.000Z</time></trkpt><trkpt lon="5.842158" lat="51.236967"><ele>-8.6</ele><time>2022-06-19T06:38:55.000Z</time></trkpt><trkpt lon="5.842051" lat="51.236991"><ele>-8.8</ele><time>2022-06-19T06:38:56.000Z</time></trkpt><trkpt lon="5.841951" lat="51.237014"><ele>-9</ele><time>2022-06-19T06:38:57.000Z</time></trkpt><trkpt lon="5.841853" lat="51.237037"><ele>-9</ele><time>2022-06-19T06:38:58.000Z</time></trkpt><trkpt lon="5.841752" lat="51.237056"><ele>-8.8</ele><time>2022-06-19T06:38:59.000Z</time></trkpt><trkpt lon="5.841656" lat="51.237079"><ele>-8.8</ele><time>2022-06-19T06:39:00.000Z</time></trkpt><trkpt lon="5.841555" lat="51.237102"><ele>-8.6</ele><time>2022-06-19T06:39:01.000Z</time></trkpt><trkpt lon="5.841454" lat="51.237125"><ele>-8.4</ele><time>2022-06-19T06:39:02.000Z</time></trkpt><trkpt lon="5.841354" lat="51.237151"><ele>-8.4</ele><time>2022-06-19T06:39:03.000Z</time></trkpt><trkpt lon="5.841254" lat="51.237178"><ele>-8.4</ele><time>2022-06-19T06:39:04.000Z</time></trkpt><trkpt lon="5.841154" lat="51.237204"><ele>-8.6</ele><time>2022-06-19T06:39:05.000Z</time></trkpt><trkpt lon="5.841051" lat="51.237231"><ele>-8.6</ele><time>2022-06-19T06:39:06.000Z</time></trkpt><trkpt lon="5.840955" lat="51.237264"><ele>-8.4</ele><time>2022-06-19T06:39:07.000Z</time></trkpt><trkpt lon="5.840852" lat="51.237292"><ele>-8.2</ele><time>2022-06-19T06:39:08.000Z</time></trkpt><trkpt lon="5.840749" lat="51.237319"><ele>-8</ele><time>2022-06-19T06:39:09.000Z</time></trkpt><trkpt lon="5.840649" lat="51.23735"><ele>-8</ele><time>2022-06-19T06:39:10.000Z</time></trkpt><trkpt lon="5.840551" lat="51.237379"><ele>-8</ele><time>2022-06-19T06:39:11.000Z</time></trkpt><trkpt lon="5.840448" lat="51.237411"><ele>-8.2</ele><time>2022-06-19T06:39:12.000Z</time></trkpt><trkpt lon="5.840352" lat="51.237441"><ele>-8.4</ele><time>2022-06-19T06:39:13.000Z</time></trkpt><trkpt lon="5.840253" lat="51.237472"><ele>-8.6</ele><time>2022-06-19T06:39:14.000Z</time></trkpt><trkpt lon="5.840152" lat="51.237502"><ele>-8.6</ele><time>2022-06-19T06:39:15.000Z</time></trkpt><trkpt lon="5.840054" lat="51.237532"><ele>-8.8</ele><time>2022-06-19T06:39:16.000Z</time></trkpt><trkpt lon="5.839951" lat="51.237563"><ele>-9</ele><time>2022-06-19T06:39:17.000Z</time></trkpt><trkpt lon="5.839854" lat="51.237593"><ele>-9</ele><time>2022-06-19T06:39:18.000Z</time></trkpt><trkpt lon="5.839756" lat="51.237624"><ele>-9</ele><time>2022-06-19T06:39:19.000Z</time></trkpt><trkpt lon="5.839661" lat="51.237655"><ele>-8.8</ele><time>2022-06-19T06:39:20.000Z</time></trkpt><trkpt lon="5.839572" lat="51.237685"><ele>-8.6</ele><time>2022-06-19T06:39:21.000Z</time></trkpt><trkpt lon="5.839493" lat="51.237715"><ele>-8.4</ele><time>2022-06-19T06:39:22.000Z</time></trkpt><trkpt lon="5.839424" lat="51.237754"><ele>-8.4</ele><time>2022-06-19T06:39:23.000Z</time></trkpt><trkpt lon="5.839375" lat="51.237801"><ele>-8.2</ele><time>2022-06-19T06:39:24.000Z</time></trkpt><trkpt lon="5.839354" lat="51.237848"><ele>-8</ele><time>2022-06-19T06:39:25.000Z</time></trkpt><trkpt lon="5.839358" lat="51.237898"><ele>-7.8</ele><time>2022-06-19T06:39:26.000Z</time></trkpt><trkpt lon="5.839374" lat="51.237947"><ele>-7.6</ele><time>2022-06-19T06:39:27.000Z</time></trkpt><trkpt lon="5.839394" lat="51.238001"><ele>-7.6</ele><time>2022-06-19T06:39:28.000Z</time></trkpt><trkpt lon="5.839416" lat="51.238047"><ele>-7.4</ele><time>2022-06-19T06:39:29.000Z</time></trkpt><trkpt lon="5.839438" lat="51.238097"><ele>-7.4</ele><time>2022-06-19T06:39:30.000Z</time></trkpt><trkpt lon="5.839458" lat="51.238139"><ele>-7.4</ele><time>2022-06-19T06:39:31.000Z</time></trkpt><trkpt lon="5.839476" lat="51.238177"><ele>-7.4</ele><time>2022-06-19T06:39:32.000Z</time></trkpt><trkpt lon="5.839491" lat="51.238211"><ele>-7.4</ele><time>2022-06-19T06:39:33.000Z</time></trkpt><trkpt lon="5.839503" lat="51.238239"><ele>-7.2</ele><time>2022-06-19T06:39:34.000Z</time></trkpt><trkpt lon="5.839513" lat="51.238258"><ele>-7.2</ele><time>2022-06-19T06:39:35.000Z</time></trkpt><trkpt lon="5.839521" lat="51.238276"><ele>-7.2</ele><time>2022-06-19T06:39:36.000Z</time></trkpt><trkpt lon="5.839527" lat="51.238292"><ele>-7.2</ele><time>2022-06-19T06:39:37.000Z</time></trkpt><trkpt lon="5.83953" lat="51.238308"><ele>-7.2</ele><time>2022-06-19T06:39:38.000Z</time></trkpt><trkpt lon="5.839532" lat="51.238316"><ele>-6.8</ele><time>2022-06-19T06:39:53.000Z</time></trkpt><trkpt lon="5.839532" lat="51.238316"><ele>-6.8</ele><time>2022-06-19T06:39:54.000Z</time></trkpt><trkpt lon="5.839543" lat="51.238349"><ele>-6.8</ele><time>2022-06-19T06:39:55.000Z</time></trkpt><trkpt lon="5.839547" lat="51.238372"><ele>-6.6</ele><time>2022-06-19T06:39:56.000Z</time></trkpt><trkpt lon="5.839553" lat="51.238399"><ele>-6.6</ele><time>2022-06-19T06:39:57.000Z</time></trkpt><trkpt lon="5.839561" lat="51.238429"><ele>-6.6</ele><time>2022-06-19T06:39:58.000Z</time></trkpt><trkpt lon="5.83957" lat="51.238459"><ele>-6.6</ele><time>2022-06-19T06:39:59.000Z</time></trkpt><trkpt lon="5.839583" lat="51.238493"><ele>-6.6</ele><time>2022-06-19T06:40:00.000Z</time></trkpt><trkpt lon="5.839598" lat="51.238536"><ele>-6.6</ele><time>2022-06-19T06:40:01.000Z</time></trkpt><trkpt lon="5.839611" lat="51.238574"><ele>-6.4</ele><time>2022-06-19T06:40:02.000Z</time></trkpt><trkpt lon="5.839628" lat="51.238623"><ele>-6.4</ele><time>2022-06-19T06:40:03.000Z</time></trkpt><trkpt lon="5.839645" lat="51.238673"><ele>-6.4</ele><time>2022-06-19T06:40:04.000Z</time></trkpt><trkpt lon="5.839663" lat="51.23873"><ele>-6.4</ele><time>2022-06-19T06:40:05.000Z</time></trkpt><trkpt lon="5.839681" lat="51.238783"><ele>-6.2</ele><time>2022-06-19T06:40:06.000Z</time></trkpt><trkpt lon="5.839697" lat="51.23884"><ele>-6.2</ele><time>2022-06-19T06:40:07.000Z</time></trkpt><trkpt lon="5.839715" lat="51.238903"><ele>-6.2</ele><time>2022-06-19T06:40:08.000Z</time></trkpt><trkpt lon="5.839734" lat="51.238969"><ele>-6.4</ele><time>2022-06-19T06:40:09.000Z</time></trkpt><trkpt lon="5.839749" lat="51.23903"><ele>-6.4</ele><time>2022-06-19T06:40:10.000Z</time></trkpt><trkpt lon="5.839766" lat="51.239096"><ele>-6.2</ele><time>2022-06-19T06:40:11.000Z</time></trkpt><trkpt lon="5.839782" lat="51.23916"><ele>-6.2</ele><time>2022-06-19T06:40:12.000Z</time></trkpt><trkpt lon="5.839799" lat="51.239222"><ele>-6.2</ele><time>2022-06-19T06:40:13.000Z</time></trkpt><trkpt lon="5.839813" lat="51.239286"><ele>-6.2</ele><time>2022-06-19T06:40:14.000Z</time></trkpt><trkpt lon="5.839826" lat="51.239352"><ele>-6.4</ele><time>2022-06-19T06:40:15.000Z</time></trkpt><trkpt lon="5.839841" lat="51.23942"><ele>-6.4</ele><time>2022-06-19T06:40:16.000Z</time></trkpt><trkpt lon="5.839855" lat="51.239485"><ele>-6.6</ele><time>2022-06-19T06:40:17.000Z</time></trkpt><trkpt lon="5.839866" lat="51.239552"><ele>-6.6</ele><time>2022-06-19T06:40:18.000Z</time></trkpt><trkpt lon="5.839878" lat="51.239618"><ele>-6.8</ele><time>2022-06-19T06:40:19.000Z</time></trkpt><trkpt lon="5.83989" lat="51.239687"><ele>-7.2</ele><time>2022-06-19T06:40:20.000Z</time></trkpt><trkpt lon="5.839901" lat="51.239751"><ele>-7.2</ele><time>2022-06-19T06:40:21.000Z</time></trkpt><trkpt lon="5.839913" lat="51.239817"><ele>-7.2</ele><time>2022-06-19T06:40:22.000Z</time></trkpt><trkpt lon="5.839923" lat="51.239884"><ele>-7.4</ele><time>2022-06-19T06:40:23.000Z</time></trkpt><trkpt lon="5.839933" lat="51.239954"><ele>-7.4</ele><time>2022-06-19T06:40:24.000Z</time></trkpt><trkpt lon="5.839945" lat="51.240023"><ele>-7.2</ele><time>2022-06-19T06:40:25.000Z</time></trkpt><trkpt lon="5.839955" lat="51.240088"><ele>-7.2</ele><time>2022-06-19T06:40:26.000Z</time></trkpt><trkpt lon="5.839966" lat="51.240156"><ele>-7</ele><time>2022-06-19T06:40:27.000Z</time></trkpt><trkpt lon="5.839978" lat="51.240225"><ele>-7</ele><time>2022-06-19T06:40:28.000Z</time></trkpt><trkpt lon="5.839992" lat="51.240297"><ele>-7</ele><time>2022-06-19T06:40:29.000Z</time></trkpt><trkpt lon="5.840006" lat="51.24037"><ele>-7</ele><time>2022-06-19T06:40:30.000Z</time></trkpt><trkpt lon="5.840021" lat="51.240442"><ele>-7</ele><time>2022-06-19T06:40:31.000Z</time></trkpt><trkpt lon="5.840033" lat="51.240515"><ele>-7</ele><time>2022-06-19T06:40:32.000Z</time></trkpt><trkpt lon="5.840041" lat="51.240587"><ele>-7</ele><time>2022-06-19T06:40:33.000Z</time></trkpt><trkpt lon="5.840051" lat="51.240658"><ele>-7.2</ele><time>2022-06-19T06:40:34.000Z</time></trkpt><trkpt lon="5.840063" lat="51.240732"><ele>-7.2</ele><time>2022-06-19T06:40:35.000Z</time></trkpt><trkpt lon="5.840073" lat="51.240804"><ele>-7.2</ele><time>2022-06-19T06:40:36.000Z</time></trkpt><trkpt lon="5.840081" lat="51.240876"><ele>-7.2</ele><time>2022-06-19T06:40:37.000Z</time></trkpt><trkpt lon="5.840085" lat="51.240949"><ele>-7.2</ele><time>2022-06-19T06:40:38.000Z</time></trkpt><trkpt lon="5.840083" lat="51.24101"><ele>-7</ele><time>2022-06-19T06:40:39.000Z</time></trkpt><trkpt lon="5.840075" lat="51.241091"><ele>-6.8</ele><time>2022-06-19T06:40:40.000Z</time></trkpt><trkpt lon="5.840065" lat="51.241159"><ele>-6.8</ele><time>2022-06-19T06:40:41.000Z</time></trkpt><trkpt lon="5.840049" lat="51.241228"><ele>-6.8</ele><time>2022-06-19T06:40:42.000Z</time></trkpt><trkpt lon="5.840027" lat="51.241293"><ele>-6.8</ele><time>2022-06-19T06:40:43.000Z</time></trkpt><trkpt lon="5.839998" lat="51.241361"><ele>-6.8</ele><time>2022-06-19T06:40:44.000Z</time></trkpt><trkpt lon="5.839965" lat="51.241427"><ele>-6.6</ele><time>2022-06-19T06:40:45.000Z</time></trkpt><trkpt lon="5.839932" lat="51.241486"><ele>-6.8</ele><time>2022-06-19T06:40:46.000Z</time></trkpt><trkpt lon="5.839897" lat="51.241553"><ele>-7.2</ele><time>2022-06-19T06:40:47.000Z</time></trkpt><trkpt lon="5.839864" lat="51.241619"><ele>-7.4</ele><time>2022-06-19T06:40:48.000Z</time></trkpt><trkpt lon="5.839826" lat="51.241686"><ele>-7.4</ele><time>2022-06-19T06:40:49.000Z</time></trkpt><trkpt lon="5.839789" lat="51.241755"><ele>-7.2</ele><time>2022-06-19T06:40:50.000Z</time></trkpt><trkpt lon="5.83975" lat="51.241823"><ele>-7.2</ele><time>2022-06-19T06:40:51.000Z</time></trkpt><trkpt lon="5.839711" lat="51.241892"><ele>-7.2</ele><time>2022-06-19T06:40:52.000Z</time></trkpt><trkpt lon="5.839676" lat="51.241958"><ele>-7</ele><time>2022-06-19T06:40:53.000Z</time></trkpt><trkpt lon="5.839634" lat="51.242029"><ele>-7</ele><time>2022-06-19T06:40:54.000Z</time></trkpt><trkpt lon="5.839591" lat="51.242098"><ele>-7</ele><time>2022-06-19T06:40:55.000Z</time></trkpt><trkpt lon="5.839545" lat="51.242163"><ele>-7</ele><time>2022-06-19T06:40:56.000Z</time></trkpt><trkpt lon="5.839496" lat="51.242223"><ele>-7</ele><time>2022-06-19T06:40:57.000Z</time></trkpt><trkpt lon="5.839445" lat="51.242284"><ele>-7</ele><time>2022-06-19T06:40:58.000Z</time></trkpt><trkpt lon="5.839397" lat="51.242338"><ele>-7</ele><time>2022-06-19T06:40:59.000Z</time></trkpt><trkpt lon="5.83935" lat="51.242392"><ele>-7</ele><time>2022-06-19T06:41:00.000Z</time></trkpt><trkpt lon="5.839309" lat="51.242446"><ele>-6.8</ele><time>2022-06-19T06:41:01.000Z</time></trkpt><trkpt lon="5.839284" lat="51.242491"><ele>-7</ele><time>2022-06-19T06:41:02.000Z</time></trkpt><trkpt lon="5.83929" lat="51.242537"><ele>-7</ele><time>2022-06-19T06:41:03.000Z</time></trkpt><trkpt lon="5.839334" lat="51.242576"><ele>-7</ele><time>2022-06-19T06:41:04.000Z</time></trkpt><trkpt lon="5.839409" lat="51.242602"><ele>-7</ele><time>2022-06-19T06:41:05.000Z</time></trkpt><trkpt lon="5.8395" lat="51.242629"><ele>-7</ele><time>2022-06-19T06:41:06.000Z</time></trkpt><trkpt lon="5.839589" lat="51.24266"><ele>-6.8</ele><time>2022-06-19T06:41:07.000Z</time></trkpt><trkpt lon="5.839682" lat="51.242686"><ele>-6.8</ele><time>2022-06-19T06:41:08.000Z</time></trkpt><trkpt lon="5.839782" lat="51.242713"><ele>-6.8</ele><time>2022-06-19T06:41:09.000Z</time></trkpt><trkpt lon="5.83988" lat="51.242743"><ele>-6.8</ele><time>2022-06-19T06:41:10.000Z</time></trkpt><trkpt lon="5.839976" lat="51.242774"><ele>-6.8</ele><time>2022-06-19T06:41:11.000Z</time></trkpt><trkpt lon="5.840067" lat="51.242805"><ele>-6.6</ele><time>2022-06-19T06:41:12.000Z</time></trkpt><trkpt lon="5.840165" lat="51.242839"><ele>-6.8</ele><time>2022-06-19T06:41:13.000Z</time></trkpt><trkpt lon="5.840256" lat="51.242873"><ele>-6.8</ele><time>2022-06-19T06:41:14.000Z</time></trkpt><trkpt lon="5.840349" lat="51.242908"><ele>-6.8</ele><time>2022-06-19T06:41:15.000Z</time></trkpt><trkpt lon="5.840439" lat="51.242945"><ele>-6.8</ele><time>2022-06-19T06:41:16.000Z</time></trkpt><trkpt lon="5.840531" lat="51.242984"><ele>-6.8</ele><time>2022-06-19T06:41:17.000Z</time></trkpt><trkpt lon="5.840621" lat="51.243025"><ele>-6.8</ele><time>2022-06-19T06:41:18.000Z</time></trkpt><trkpt lon="5.840712" lat="51.243064"><ele>-7</ele><time>2022-06-19T06:41:19.000Z</time></trkpt><trkpt lon="5.840799" lat="51.243109"><ele>-7</ele><time>2022-06-19T06:41:20.000Z</time></trkpt><trkpt lon="5.840881" lat="51.243155"><ele>-7.2</ele><time>2022-06-19T06:41:21.000Z</time></trkpt><trkpt lon="5.840959" lat="51.243197"><ele>-7.2</ele><time>2022-06-19T06:41:22.000Z</time></trkpt><trkpt lon="5.841045" lat="51.243236"><ele>-7.4</ele><time>2022-06-19T06:41:23.000Z</time></trkpt><trkpt lon="5.841143" lat="51.243263"><ele>-7.4</ele><time>2022-06-19T06:41:24.000Z</time></trkpt><trkpt lon="5.84125" lat="51.243282"><ele>-7.2</ele><time>2022-06-19T06:41:25.000Z</time></trkpt><trkpt lon="5.841351" lat="51.2433"><ele>-7.2</ele><time>2022-06-19T06:41:26.000Z</time></trkpt><trkpt lon="5.841461" lat="51.243315"><ele>-7.2</ele><time>2022-06-19T06:41:27.000Z</time></trkpt><trkpt lon="5.84158" lat="51.243327"><ele>-7.2</ele><time>2022-06-19T06:41:28.000Z</time></trkpt><trkpt lon="5.841696" lat="51.24335"><ele>-7.2</ele><time>2022-06-19T06:41:29.000Z</time></trkpt><trkpt lon="5.841809" lat="51.243369"><ele>-7.2</ele><time>2022-06-19T06:41:30.000Z</time></trkpt><trkpt lon="5.841923" lat="51.243385"><ele>-7</ele><time>2022-06-19T06:41:31.000Z</time></trkpt><trkpt lon="5.842036" lat="51.243408"><ele>-7</ele><time>2022-06-19T06:41:32.000Z</time></trkpt><trkpt lon="5.842147" lat="51.243423"><ele>-7</ele><time>2022-06-19T06:41:33.000Z</time></trkpt><trkpt lon="5.842261" lat="51.243446"><ele>-7</ele><time>2022-06-19T06:41:34.000Z</time></trkpt><trkpt lon="5.84237" lat="51.243465"><ele>-7</ele><time>2022-06-19T06:41:35.000Z</time></trkpt><trkpt lon="5.842483" lat="51.243484"><ele>-6.8</ele><time>2022-06-19T06:41:36.000Z</time></trkpt><trkpt lon="5.84259" lat="51.243507"><ele>-6.8</ele><time>2022-06-19T06:41:37.000Z</time></trkpt><trkpt lon="5.842694" lat="51.243525"><ele>-6.8</ele><time>2022-06-19T06:41:38.000Z</time></trkpt><trkpt lon="5.842808" lat="51.243545"><ele>-6.6</ele><time>2022-06-19T06:41:39.000Z</time></trkpt><trkpt lon="5.842917" lat="51.243567"><ele>-6.6</ele><time>2022-06-19T06:41:40.000Z</time></trkpt><trkpt lon="5.843028" lat="51.243587"><ele>-6.6</ele><time>2022-06-19T06:41:41.000Z</time></trkpt><trkpt lon="5.843138" lat="51.24361"><ele>-6.6</ele><time>2022-06-19T06:41:42.000Z</time></trkpt><trkpt lon="5.843247" lat="51.243632"><ele>-6.6</ele><time>2022-06-19T06:41:43.000Z</time></trkpt><trkpt lon="5.843359" lat="51.243652"><ele>-6.4</ele><time>2022-06-19T06:41:44.000Z</time></trkpt><trkpt lon="5.843469" lat="51.243675"><ele>-6.4</ele><time>2022-06-19T06:41:45.000Z</time></trkpt><trkpt lon="5.843579" lat="51.243698"><ele>-6.2</ele><time>2022-06-19T06:41:46.000Z</time></trkpt><trkpt lon="5.843687" lat="51.243717"><ele>-6.2</ele><time>2022-06-19T06:41:47.000Z</time></trkpt><trkpt lon="5.843797" lat="51.243739"><ele>-6.4</ele><time>2022-06-19T06:41:48.000Z</time></trkpt><trkpt lon="5.843908" lat="51.243762"><ele>-6.4</ele><time>2022-06-19T06:41:49.000Z</time></trkpt><trkpt lon="5.844016" lat="51.243778"><ele>-6.6</ele><time>2022-06-19T06:41:50.000Z</time></trkpt><trkpt lon="5.844124" lat="51.243797"><ele>-6.6</ele><time>2022-06-19T06:41:51.000Z</time></trkpt><trkpt lon="5.844226" lat="51.243814"><ele>-6.6</ele><time>2022-06-19T06:41:52.000Z</time></trkpt><trkpt lon="5.844346" lat="51.243831"><ele>-6.6</ele><time>2022-06-19T06:41:53.000Z</time></trkpt><trkpt lon="5.84446" lat="51.243843"><ele>-6.6</ele><time>2022-06-19T06:41:54.000Z</time></trkpt><trkpt lon="5.844571" lat="51.24385"><ele>-6.6</ele><time>2022-06-19T06:41:55.000Z</time></trkpt><trkpt lon="5.844681" lat="51.243858"><ele>-6.6</ele><time>2022-06-19T06:41:56.000Z</time></trkpt><trkpt lon="5.844794" lat="51.24387"><ele>-6.6</ele><time>2022-06-19T06:41:57.000Z</time></trkpt><trkpt lon="5.844901" lat="51.243877"><ele>-6.6</ele><time>2022-06-19T06:41:58.000Z</time></trkpt><trkpt lon="5.84501" lat="51.243881"><ele>-6.6</ele><time>2022-06-19T06:41:59.000Z</time></trkpt><trkpt lon="5.845115" lat="51.243885"><ele>-6.6</ele><time>2022-06-19T06:42:00.000Z</time></trkpt><trkpt lon="5.845218" lat="51.243892"><ele>-6.6</ele><time>2022-06-19T06:42:01.000Z</time></trkpt><trkpt lon="5.845322" lat="51.243896"><ele>-6.6</ele><time>2022-06-19T06:42:02.000Z</time></trkpt><trkpt lon="5.845423" lat="51.2439"><ele>-6.8</ele><time>2022-06-19T06:42:03.000Z</time></trkpt><trkpt lon="5.84552" lat="51.243904"><ele>-6.8</ele><time>2022-06-19T06:42:04.000Z</time></trkpt><trkpt lon="5.845618" lat="51.243908"><ele>-6.8</ele><time>2022-06-19T06:42:05.000Z</time></trkpt><trkpt lon="5.845709" lat="51.243908"><ele>-6.8</ele><time>2022-06-19T06:42:06.000Z</time></trkpt><trkpt lon="5.845796" lat="51.243912"><ele>-6.8</ele><time>2022-06-19T06:42:07.000Z</time></trkpt><trkpt lon="5.845878" lat="51.243923"><ele>-6.8</ele><time>2022-06-19T06:42:08.000Z</time></trkpt><trkpt lon="5.845944" lat="51.243947"><ele>-6.8</ele><time>2022-06-19T06:42:09.000Z</time></trkpt><trkpt lon="5.845997" lat="51.243983"><ele>-6.8</ele><time>2022-06-19T06:42:10.000Z</time></trkpt><trkpt lon="5.84603" lat="51.244021"><ele>-6.8</ele><time>2022-06-19T06:42:11.000Z</time></trkpt><trkpt lon="5.846045" lat="51.244082"><ele>-6.8</ele><time>2022-06-19T06:42:12.000Z</time></trkpt><trkpt lon="5.846051" lat="51.244147"><ele>-7</ele><time>2022-06-19T06:42:13.000Z</time></trkpt><trkpt lon="5.846056" lat="51.244214"><ele>-7</ele><time>2022-06-19T06:42:14.000Z</time></trkpt><trkpt lon="5.846063" lat="51.244283"><ele>-7</ele><time>2022-06-19T06:42:15.000Z</time></trkpt><trkpt lon="5.84607" lat="51.244357"><ele>-7</ele><time>2022-06-19T06:42:16.000Z</time></trkpt><trkpt lon="5.846076" lat="51.244423"><ele>-7</ele><time>2022-06-19T06:42:17.000Z</time></trkpt><trkpt lon="5.846081" lat="51.24448"><ele>-7</ele><time>2022-06-19T06:42:18.000Z</time></trkpt><trkpt lon="5.846088" lat="51.244551"><ele>-7</ele><time>2022-06-19T06:42:19.000Z</time></trkpt><trkpt lon="5.846093" lat="51.244627"><ele>-7.2</ele><time>2022-06-19T06:42:20.000Z</time></trkpt><trkpt lon="5.8461" lat="51.2447"><ele>-7.2</ele><time>2022-06-19T06:42:21.000Z</time></trkpt><trkpt lon="5.846108" lat="51.244768"><ele>-7.2</ele><time>2022-06-19T06:42:22.000Z</time></trkpt><trkpt lon="5.846116" lat="51.24484"><ele>-7.4</ele><time>2022-06-19T06:42:23.000Z</time></trkpt><trkpt lon="5.846126" lat="51.244909"><ele>-7.4</ele><time>2022-06-19T06:42:24.000Z</time></trkpt><trkpt lon="5.846136" lat="51.244978"><ele>-7.6</ele><time>2022-06-19T06:42:25.000Z</time></trkpt><trkpt lon="5.846146" lat="51.245051"><ele>-7.8</ele><time>2022-06-19T06:42:26.000Z</time></trkpt><trkpt lon="5.846155" lat="51.245119"><ele>-7.8</ele><time>2022-06-19T06:42:27.000Z</time></trkpt><trkpt lon="5.846165" lat="51.245192"><ele>-8</ele><time>2022-06-19T06:42:28.000Z</time></trkpt><trkpt lon="5.846172" lat="51.245262"><ele>-8</ele><time>2022-06-19T06:42:29.000Z</time></trkpt><trkpt lon="5.846178" lat="51.245333"><ele>-8</ele><time>2022-06-19T06:42:30.000Z</time></trkpt><trkpt lon="5.846185" lat="51.245401"><ele>-7.8</ele><time>2022-06-19T06:42:31.000Z</time></trkpt><trkpt lon="5.846192" lat="51.24547"><ele>-7.8</ele><time>2022-06-19T06:42:32.000Z</time></trkpt><trkpt lon="5.8462" lat="51.245543"><ele>-7.8</ele><time>2022-06-19T06:42:33.000Z</time></trkpt><trkpt lon="5.846206" lat="51.24561"><ele>-7.8</ele><time>2022-06-19T06:42:34.000Z</time></trkpt><trkpt lon="5.846213" lat="51.24568"><ele>-7.8</ele><time>2022-06-19T06:42:35.000Z</time></trkpt><trkpt lon="5.846218" lat="51.245748"><ele>-7.8</ele><time>2022-06-19T06:42:36.000Z</time></trkpt><trkpt lon="5.846218" lat="51.245816"><ele>-8</ele><time>2022-06-19T06:42:37.000Z</time></trkpt><trkpt lon="5.846208" lat="51.24589"><ele>-8</ele><time>2022-06-19T06:42:38.000Z</time></trkpt><trkpt lon="5.846194" lat="51.245955"><ele>-8</ele><time>2022-06-19T06:42:39.000Z</time></trkpt><trkpt lon="5.846173" lat="51.246019"><ele>-8</ele><time>2022-06-19T06:42:40.000Z</time></trkpt><trkpt lon="5.846143" lat="51.246084"><ele>-7.8</ele><time>2022-06-19T06:42:41.000Z</time></trkpt><trkpt lon="5.846107" lat="51.246142"><ele>-7.8</ele><time>2022-06-19T06:42:42.000Z</time></trkpt><trkpt lon="5.846067" lat="51.246194"><ele>-7.6</ele><time>2022-06-19T06:42:43.000Z</time></trkpt><trkpt lon="5.846028" lat="51.246248"><ele>-7.6</ele><time>2022-06-19T06:42:44.000Z</time></trkpt><trkpt lon="5.845992" lat="51.246295"><ele>-7.6</ele><time>2022-06-19T06:42:45.000Z</time></trkpt><trkpt lon="5.845971" lat="51.24634"><ele>-7.4</ele><time>2022-06-19T06:42:46.000Z</time></trkpt><trkpt lon="5.845972" lat="51.246381"><ele>-7.4</ele><time>2022-06-19T06:42:47.000Z</time></trkpt><trkpt lon="5.846009" lat="51.246413"><ele>-7.2</ele><time>2022-06-19T06:42:48.000Z</time></trkpt><trkpt lon="5.846074" lat="51.246433"><ele>-7</ele><time>2022-06-19T06:42:49.000Z</time></trkpt><trkpt lon="5.846156" lat="51.246448"><ele>-7</ele><time>2022-06-19T06:42:50.000Z</time></trkpt><trkpt lon="5.846243" lat="51.24646"><ele>-7</ele><time>2022-06-19T06:42:51.000Z</time></trkpt><trkpt lon="5.846336" lat="51.246475"><ele>-7</ele><time>2022-06-19T06:42:52.000Z</time></trkpt><trkpt lon="5.846433" lat="51.246493"><ele>-7</ele><time>2022-06-19T06:42:53.000Z</time></trkpt><trkpt lon="5.846533" lat="51.246509"><ele>-6.8</ele><time>2022-06-19T06:42:54.000Z</time></trkpt><trkpt lon="5.846634" lat="51.246524"><ele>-6.8</ele><time>2022-06-19T06:42:55.000Z</time></trkpt><trkpt lon="5.846736" lat="51.246547"><ele>-6.8</ele><time>2022-06-19T06:42:56.000Z</time></trkpt><trkpt lon="5.846834" lat="51.24657"><ele>-6.8</ele><time>2022-06-19T06:42:57.000Z</time></trkpt><trkpt lon="5.846932" lat="51.246593"><ele>-6.6</ele><time>2022-06-19T06:42:58.000Z</time></trkpt><trkpt lon="5.847034" lat="51.246612"><ele>-6.6</ele><time>2022-06-19T06:42:59.000Z</time></trkpt><trkpt lon="5.847136" lat="51.246635"><ele>-6.4</ele><time>2022-06-19T06:43:00.000Z</time></trkpt><trkpt lon="5.847239" lat="51.246658"><ele>-6.4</ele><time>2022-06-19T06:43:01.000Z</time></trkpt><trkpt lon="5.847338" lat="51.24668"><ele>-6.4</ele><time>2022-06-19T06:43:02.000Z</time></trkpt><trkpt lon="5.84744" lat="51.246707"><ele>-6.6</ele><time>2022-06-19T06:43:03.000Z</time></trkpt><trkpt lon="5.847539" lat="51.24673"><ele>-6.6</ele><time>2022-06-19T06:43:04.000Z</time></trkpt><trkpt lon="5.847642" lat="51.246753"><ele>-6.6</ele><time>2022-06-19T06:43:05.000Z</time></trkpt><trkpt lon="5.847744" lat="51.246776"><ele>-6.6</ele><time>2022-06-19T06:43:06.000Z</time></trkpt><trkpt lon="5.847844" lat="51.246803"><ele>-6.6</ele><time>2022-06-19T06:43:07.000Z</time></trkpt><trkpt lon="5.847937" lat="51.246831"><ele>-6.4</ele><time>2022-06-19T06:43:08.000Z</time></trkpt><trkpt lon="5.848036" lat="51.246858"><ele>-6.2</ele><time>2022-06-19T06:43:09.000Z</time></trkpt><trkpt lon="5.848146" lat="51.246883"><ele>-6</ele><time>2022-06-19T06:43:10.000Z</time></trkpt><trkpt lon="5.848251" lat="51.246913"><ele>-6.2</ele><time>2022-06-19T06:43:11.000Z</time></trkpt><trkpt lon="5.848352" lat="51.24694"><ele>-6.2</ele><time>2022-06-19T06:43:12.000Z</time></trkpt><trkpt lon="5.848454" lat="51.24697"><ele>-6.2</ele><time>2022-06-19T06:43:13.000Z</time></trkpt><trkpt lon="5.848556" lat="51.247001"><ele>-6.2</ele><time>2022-06-19T06:43:14.000Z</time></trkpt><trkpt lon="5.848658" lat="51.247035"><ele>-6.2</ele><time>2022-06-19T06:43:15.000Z</time></trkpt><trkpt lon="5.848761" lat="51.247066"><ele>-6.2</ele><time>2022-06-19T06:43:16.000Z</time></trkpt><trkpt lon="5.848861" lat="51.247096"><ele>-6.2</ele><time>2022-06-19T06:43:17.000Z</time></trkpt><trkpt lon="5.848964" lat="51.24713"><ele>-6.2</ele><time>2022-06-19T06:43:18.000Z</time></trkpt><trkpt lon="5.849067" lat="51.247161"><ele>-6.2</ele><time>2022-06-19T06:43:19.000Z</time></trkpt><trkpt lon="5.849166" lat="51.247195"><ele>-6.2</ele><time>2022-06-19T06:43:20.000Z</time></trkpt><trkpt lon="5.849265" lat="51.247233"><ele>-6.2</ele><time>2022-06-19T06:43:21.000Z</time></trkpt><trkpt lon="5.849365" lat="51.247268"><ele>-6</ele><time>2022-06-19T06:43:22.000Z</time></trkpt><trkpt lon="5.849466" lat="51.247306"><ele>-6</ele><time>2022-06-19T06:43:23.000Z</time></trkpt><trkpt lon="5.849568" lat="51.24734"><ele>-6</ele><time>2022-06-19T06:43:24.000Z</time></trkpt><trkpt lon="5.849669" lat="51.247378"><ele>-6</ele><time>2022-06-19T06:43:25.000Z</time></trkpt><trkpt lon="5.84977" lat="51.247413"><ele>-5.8</ele><time>2022-06-19T06:43:26.000Z</time></trkpt><trkpt lon="5.849868" lat="51.247451"><ele>-5.8</ele><time>2022-06-19T06:43:27.000Z</time></trkpt><trkpt lon="5.849966" lat="51.247489"><ele>-5.8</ele><time>2022-06-19T06:43:28.000Z</time></trkpt><trkpt lon="5.850063" lat="51.247526"><ele>-5.6</ele><time>2022-06-19T06:43:29.000Z</time></trkpt><trkpt lon="5.850168" lat="51.247565"><ele>-5.6</ele><time>2022-06-19T06:43:30.000Z</time></trkpt><trkpt lon="5.850271" lat="51.247603"><ele>-5.4</ele><time>2022-06-19T06:43:31.000Z</time></trkpt><trkpt lon="5.850369" lat="51.24764"><ele>-5.6</ele><time>2022-06-19T06:43:32.000Z</time></trkpt><trkpt lon="5.850473" lat="51.247679"><ele>-5.6</ele><time>2022-06-19T06:43:33.000Z</time></trkpt><trkpt lon="5.850576" lat="51.247722"><ele>-5.6</ele><time>2022-06-19T06:43:34.000Z</time></trkpt><trkpt lon="5.850678" lat="51.24776"><ele>-5.6</ele><time>2022-06-19T06:43:35.000Z</time></trkpt><trkpt lon="5.850781" lat="51.247798"><ele>-5.6</ele><time>2022-06-19T06:43:36.000Z</time></trkpt><trkpt lon="5.850886" lat="51.247836"><ele>-5.8</ele><time>2022-06-19T06:43:37.000Z</time></trkpt><trkpt lon="5.850989" lat="51.247878"><ele>-5.8</ele><time>2022-06-19T06:43:38.000Z</time></trkpt><trkpt lon="5.851094" lat="51.247916"><ele>-5.8</ele><time>2022-06-19T06:43:39.000Z</time></trkpt><trkpt lon="5.851199" lat="51.247954"><ele>-5.8</ele><time>2022-06-19T06:43:40.000Z</time></trkpt><trkpt lon="5.851298" lat="51.247992"><ele>-5.8</ele><time>2022-06-19T06:43:41.000Z</time></trkpt><trkpt lon="5.851403" lat="51.24803"><ele>-5.8</ele><time>2022-06-19T06:43:42.000Z</time></trkpt><trkpt lon="5.851507" lat="51.248072"><ele>-5.8</ele><time>2022-06-19T06:43:43.000Z</time></trkpt><trkpt lon="5.851612" lat="51.248111"><ele>-5.8</ele><time>2022-06-19T06:43:44.000Z</time></trkpt><trkpt lon="5.851712" lat="51.248148"><ele>-5.8</ele><time>2022-06-19T06:43:45.000Z</time></trkpt><trkpt lon="5.851812" lat="51.248187"><ele>-5.8</ele><time>2022-06-19T06:43:46.000Z</time></trkpt><trkpt lon="5.851912" lat="51.248225"><ele>-5.8</ele><time>2022-06-19T06:43:47.000Z</time></trkpt><trkpt lon="5.852009" lat="51.248262"><ele>-5.8</ele><time>2022-06-19T06:43:48.000Z</time></trkpt><trkpt lon="5.852114" lat="51.248297"><ele>-5.6</ele><time>2022-06-19T06:43:49.000Z</time></trkpt><trkpt lon="5.852217" lat="51.248336"><ele>-5.6</ele><time>2022-06-19T06:43:50.000Z</time></trkpt><trkpt lon="5.852322" lat="51.24837"><ele>-5.6</ele><time>2022-06-19T06:43:51.000Z</time></trkpt><trkpt lon="5.852423" lat="51.248399"><ele>-5.6</ele><time>2022-06-19T06:43:52.000Z</time></trkpt><trkpt lon="5.852534" lat="51.248435"><ele>-5.6</ele><time>2022-06-19T06:43:53.000Z</time></trkpt><trkpt lon="5.852637" lat="51.248466"><ele>-5.8</ele><time>2022-06-19T06:43:54.000Z</time></trkpt><trkpt lon="5.852741" lat="51.248496"><ele>-6</ele><time>2022-06-19T06:43:55.000Z</time></trkpt><trkpt lon="5.852845" lat="51.24853"><ele>-5.8</ele><time>2022-06-19T06:43:56.000Z</time></trkpt><trkpt lon="5.852946" lat="51.24856"><ele>-5.8</ele><time>2022-06-19T06:43:57.000Z</time></trkpt><trkpt lon="5.853054" lat="51.248591"><ele>-6</ele><time>2022-06-19T06:43:58.000Z</time></trkpt><trkpt lon="5.85316" lat="51.248618"><ele>-5.8</ele><time>2022-06-19T06:43:59.000Z</time></trkpt><trkpt lon="5.853272" lat="51.248649"><ele>-6</ele><time>2022-06-19T06:44:00.000Z</time></trkpt><trkpt lon="5.853381" lat="51.248676"><ele>-6</ele><time>2022-06-19T06:44:01.000Z</time></trkpt><trkpt lon="5.853489" lat="51.248699"><ele>-6</ele><time>2022-06-19T06:44:02.000Z</time></trkpt><trkpt lon="5.853596" lat="51.248721"><ele>-6</ele><time>2022-06-19T06:44:03.000Z</time></trkpt><trkpt lon="5.853703" lat="51.248748"><ele>-6</ele><time>2022-06-19T06:44:04.000Z</time></trkpt><trkpt lon="5.853813" lat="51.248771"><ele>-6</ele><time>2022-06-19T06:44:05.000Z</time></trkpt><trkpt lon="5.853919" lat="51.248794"><ele>-6</ele><time>2022-06-19T06:44:06.000Z</time></trkpt><trkpt lon="5.854029" lat="51.248817"><ele>-6</ele><time>2022-06-19T06:44:07.000Z</time></trkpt><trkpt lon="5.854137" lat="51.24884"><ele>-6.2</ele><time>2022-06-19T06:44:08.000Z</time></trkpt><trkpt lon="5.854241" lat="51.248862"><ele>-6.2</ele><time>2022-06-19T06:44:09.000Z</time></trkpt><trkpt lon="5.854349" lat="51.248881"><ele>-6.2</ele><time>2022-06-19T06:44:10.000Z</time></trkpt><trkpt lon="5.854455" lat="51.248901"><ele>-6.2</ele><time>2022-06-19T06:44:11.000Z</time></trkpt><trkpt lon="5.854559" lat="51.24892"><ele>-6.4</ele><time>2022-06-19T06:44:12.000Z</time></trkpt><trkpt lon="5.854664" lat="51.248939"><ele>-6.4</ele><time>2022-06-19T06:44:13.000Z</time></trkpt><trkpt lon="5.854764" lat="51.248954"><ele>-6.2</ele><time>2022-06-19T06:44:14.000Z</time></trkpt><trkpt lon="5.854863" lat="51.24897"><ele>-6.4</ele><time>2022-06-19T06:44:15.000Z</time></trkpt><trkpt lon="5.854956" lat="51.248981"><ele>-6.4</ele><time>2022-06-19T06:44:16.000Z</time></trkpt><trkpt lon="5.855046" lat="51.248992"><ele>-6.4</ele><time>2022-06-19T06:44:17.000Z</time></trkpt><trkpt lon="5.855129" lat="51.249"><ele>-6.2</ele><time>2022-06-19T06:44:18.000Z</time></trkpt><trkpt lon="5.855205" lat="51.249008"><ele>-6.2</ele><time>2022-06-19T06:44:19.000Z</time></trkpt><trkpt lon="5.855272" lat="51.249008"><ele>-6.2</ele><time>2022-06-19T06:44:20.000Z</time></trkpt><trkpt lon="5.855336" lat="51.249012"><ele>-6.2</ele><time>2022-06-19T06:44:21.000Z</time></trkpt><trkpt lon="5.855388" lat="51.249023"><ele>-6.2</ele><time>2022-06-19T06:44:22.000Z</time></trkpt><trkpt lon="5.855434" lat="51.249034"><ele>-6.2</ele><time>2022-06-19T06:44:23.000Z</time></trkpt><trkpt lon="5.855481" lat="51.249046"><ele>-6.2</ele><time>2022-06-19T06:44:24.000Z</time></trkpt><trkpt lon="5.855525" lat="51.24906"><ele>-6.2</ele><time>2022-06-19T06:44:25.000Z</time></trkpt><trkpt lon="5.855535" lat="51.249097"><ele>-6.2</ele><time>2022-06-19T06:44:26.000Z</time></trkpt><trkpt lon="5.855532" lat="51.249115"><ele>-6</ele><time>2022-06-19T06:44:27.000Z</time></trkpt><trkpt lon="5.855525" lat="51.249152"><ele>-6</ele><time>2022-06-19T06:44:28.000Z</time></trkpt><trkpt lon="5.855528" lat="51.24919"><ele>-6</ele><time>2022-06-19T06:44:29.000Z</time></trkpt><trkpt lon="5.855522" lat="51.249235"><ele>-6</ele><time>2022-06-19T06:44:30.000Z</time></trkpt><trkpt lon="5.855515" lat="51.249308"><ele>-6.2</ele><time>2022-06-19T06:44:31.000Z</time></trkpt><trkpt lon="5.855525" lat="51.249366"><ele>-6.2</ele><time>2022-06-19T06:44:32.000Z</time></trkpt><trkpt lon="5.855539" lat="51.249425"><ele>-6.2</ele><time>2022-06-19T06:44:33.000Z</time></trkpt><trkpt lon="5.855566" lat="51.249484"><ele>-6.4</ele><time>2022-06-19T06:44:34.000Z</time></trkpt><trkpt lon="5.855601" lat="51.249541"><ele>-6.4</ele><time>2022-06-19T06:44:35.000Z</time></trkpt><trkpt lon="5.855636" lat="51.249598"><ele>-6.4</ele><time>2022-06-19T06:44:36.000Z</time></trkpt><trkpt lon="5.855661" lat="51.249656"><ele>-6.4</ele><time>2022-06-19T06:44:37.000Z</time></trkpt><trkpt lon="5.855673" lat="51.249717"><ele>-6.4</ele><time>2022-06-19T06:44:38.000Z</time></trkpt><trkpt lon="5.855675" lat="51.249769"><ele>-6.6</ele><time>2022-06-19T06:44:39.000Z</time></trkpt><trkpt lon="5.855673" lat="51.249831"><ele>-6.8</ele><time>2022-06-19T06:44:40.000Z</time></trkpt><trkpt lon="5.85568" lat="51.249883"><ele>-7</ele><time>2022-06-19T06:44:41.000Z</time></trkpt><trkpt lon="5.8557" lat="51.249934"><ele>-7</ele><time>2022-06-19T06:44:42.000Z</time></trkpt><trkpt lon="5.855737" lat="51.249972"><ele>-7</ele><time>2022-06-19T06:44:43.000Z</time></trkpt><trkpt lon="5.855799" lat="51.249996"><ele>-7</ele><time>2022-06-19T06:44:44.000Z</time></trkpt><trkpt lon="5.855882" lat="51.250011"><ele>-7</ele><time>2022-06-19T06:44:45.000Z</time></trkpt><trkpt lon="5.855983" lat="51.250023"><ele>-7</ele><time>2022-06-19T06:44:46.000Z</time></trkpt><trkpt lon="5.856089" lat="51.250034"><ele>-7</ele><time>2022-06-19T06:44:47.000Z</time></trkpt><trkpt lon="5.856193" lat="51.250049"><ele>-7</ele><time>2022-06-19T06:44:48.000Z</time></trkpt><trkpt lon="5.856292" lat="51.250064"><ele>-6.8</ele><time>2022-06-19T06:44:49.000Z</time></trkpt><trkpt lon="5.856397" lat="51.25008"><ele>-6.8</ele><time>2022-06-19T06:44:50.000Z</time></trkpt><trkpt lon="5.8565" lat="51.250095"><ele>-6.8</ele><time>2022-06-19T06:44:51.000Z</time></trkpt><trkpt lon="5.856606" lat="51.25011"><ele>-6.8</ele><time>2022-06-19T06:44:52.000Z</time></trkpt><trkpt lon="5.856713" lat="51.250125"><ele>-6.8</ele><time>2022-06-19T06:44:53.000Z</time></trkpt><trkpt lon="5.856824" lat="51.250137"><ele>-7</ele><time>2022-06-19T06:44:54.000Z</time></trkpt><trkpt lon="5.856929" lat="51.250156"><ele>-7</ele><time>2022-06-19T06:44:55.000Z</time></trkpt><trkpt lon="5.857035" lat="51.250171"><ele>-7</ele><time>2022-06-19T06:44:56.000Z</time></trkpt><trkpt lon="5.857143" lat="51.250187"><ele>-7.2</ele><time>2022-06-19T06:44:57.000Z</time></trkpt><trkpt lon="5.857249" lat="51.250201"><ele>-7.2</ele><time>2022-06-19T06:44:58.000Z</time></trkpt><trkpt lon="5.857361" lat="51.250213"><ele>-7.2</ele><time>2022-06-19T06:44:59.000Z</time></trkpt><trkpt lon="5.857469" lat="51.250228"><ele>-7.2</ele><time>2022-06-19T06:45:00.000Z</time></trkpt><trkpt lon="5.857578" lat="51.250244"><ele>-7.4</ele><time>2022-06-19T06:45:01.000Z</time></trkpt><trkpt lon="5.857687" lat="51.250259"><ele>-7.4</ele><time>2022-06-19T06:45:02.000Z</time></trkpt><trkpt lon="5.857798" lat="51.250274"><ele>-7.4</ele><time>2022-06-19T06:45:03.000Z</time></trkpt><trkpt lon="5.857912" lat="51.25029"><ele>-7.4</ele><time>2022-06-19T06:45:04.000Z</time></trkpt><trkpt lon="5.85802" lat="51.250301"><ele>-7.6</ele><time>2022-06-19T06:45:05.000Z</time></trkpt><trkpt lon="5.858131" lat="51.250316"><ele>-7.6</ele><time>2022-06-19T06:45:06.000Z</time></trkpt><trkpt lon="5.858241" lat="51.250331"><ele>-7.6</ele><time>2022-06-19T06:45:07.000Z</time></trkpt><trkpt lon="5.858351" lat="51.250343"><ele>-7.6</ele><time>2022-06-19T06:45:08.000Z</time></trkpt><trkpt lon="5.858461" lat="51.250358"><ele>-7.6</ele><time>2022-06-19T06:45:09.000Z</time></trkpt><trkpt lon="5.85857" lat="51.250373"><ele>-7.6</ele><time>2022-06-19T06:45:10.000Z</time></trkpt><trkpt lon="5.858679" lat="51.250389"><ele>-7.6</ele><time>2022-06-19T06:45:11.000Z</time></trkpt><trkpt lon="5.858789" lat="51.2504"><ele>-7.8</ele><time>2022-06-19T06:45:12.000Z</time></trkpt><trkpt lon="5.858905" lat="51.250416"><ele>-7.8</ele><time>2022-06-19T06:45:13.000Z</time></trkpt><trkpt lon="5.859013" lat="51.250427"><ele>-7.6</ele><time>2022-06-19T06:45:14.000Z</time></trkpt><trkpt lon="5.859123" lat="51.250438"><ele>-7.6</ele><time>2022-06-19T06:45:15.000Z</time></trkpt><trkpt lon="5.859231" lat="51.25045"><ele>-7.6</ele><time>2022-06-19T06:45:16.000Z</time></trkpt><trkpt lon="5.85934" lat="51.250461"><ele>-7.6</ele><time>2022-06-19T06:45:17.000Z</time></trkpt><trkpt lon="5.859443" lat="51.250476"><ele>-7.6</ele><time>2022-06-19T06:45:18.000Z</time></trkpt><trkpt lon="5.859558" lat="51.250484"><ele>-7.6</ele><time>2022-06-19T06:45:19.000Z</time></trkpt><trkpt lon="5.859667" lat="51.250492"><ele>-7.6</ele><time>2022-06-19T06:45:20.000Z</time></trkpt><trkpt lon="5.859774" lat="51.2505"><ele>-7.6</ele><time>2022-06-19T06:45:21.000Z</time></trkpt><trkpt lon="5.859884" lat="51.250503"><ele>-7.6</ele><time>2022-06-19T06:45:22.000Z</time></trkpt><trkpt lon="5.859992" lat="51.250504"><ele>-7.8</ele><time>2022-06-19T06:45:23.000Z</time></trkpt><trkpt lon="5.860103" lat="51.2505"><ele>-7.8</ele><time>2022-06-19T06:45:24.000Z</time></trkpt><trkpt lon="5.860214" lat="51.2505"><ele>-7.8</ele><time>2022-06-19T06:45:25.000Z</time></trkpt><trkpt lon="5.860325" lat="51.250496"><ele>-8</ele><time>2022-06-19T06:45:26.000Z</time></trkpt><trkpt lon="5.860439" lat="51.250488"><ele>-8</ele><time>2022-06-19T06:45:27.000Z</time></trkpt><trkpt lon="5.860547" lat="51.250485"><ele>-8.2</ele><time>2022-06-19T06:45:28.000Z</time></trkpt><trkpt lon="5.860663" lat="51.250477"><ele>-8.2</ele><time>2022-06-19T06:45:29.000Z</time></trkpt><trkpt lon="5.860752" lat="51.250474"><ele>-8.2</ele><time>2022-06-19T06:45:30.000Z</time></trkpt><trkpt lon="5.860873" lat="51.250469"><ele>-8.2</ele><time>2022-06-19T06:45:31.000Z</time></trkpt><trkpt lon="5.860978" lat="51.250462"><ele>-8.2</ele><time>2022-06-19T06:45:32.000Z</time></trkpt><trkpt lon="5.861098" lat="51.250458"><ele>-8.2</ele><time>2022-06-19T06:45:33.000Z</time></trkpt><trkpt lon="5.861207" lat="51.25045"><ele>-8.2</ele><time>2022-06-19T06:45:34.000Z</time></trkpt><trkpt lon="5.861319" lat="51.250443"><ele>-8.2</ele><time>2022-06-19T06:45:35.000Z</time></trkpt><trkpt lon="5.86143" lat="51.250435"><ele>-8.2</ele><time>2022-06-19T06:45:36.000Z</time></trkpt><trkpt lon="5.861542" lat="51.250424"><ele>-8.2</ele><time>2022-06-19T06:45:37.000Z</time></trkpt><trkpt lon="5.861651" lat="51.250413"><ele>-8.2</ele><time>2022-06-19T06:45:38.000Z</time></trkpt><trkpt lon="5.861766" lat="51.250405"><ele>-8.4</ele><time>2022-06-19T06:45:39.000Z</time></trkpt><trkpt lon="5.861886" lat="51.250394"><ele>-8.4</ele><time>2022-06-19T06:45:40.000Z</time></trkpt><trkpt lon="5.862004" lat="51.250382"><ele>-8.4</ele><time>2022-06-19T06:45:41.000Z</time></trkpt><trkpt lon="5.862119" lat="51.250378"><ele>-8.2</ele><time>2022-06-19T06:45:42.000Z</time></trkpt><trkpt lon="5.862234" lat="51.250374"><ele>-8.4</ele><time>2022-06-19T06:45:43.000Z</time></trkpt><trkpt lon="5.862344" lat="51.25037"><ele>-8.4</ele><time>2022-06-19T06:45:44.000Z</time></trkpt><trkpt lon="5.862458" lat="51.25037"><ele>-8.4</ele><time>2022-06-19T06:45:45.000Z</time></trkpt><trkpt lon="5.862566" lat="51.250377"><ele>-8.2</ele><time>2022-06-19T06:45:46.000Z</time></trkpt><trkpt lon="5.862691" lat="51.250381"><ele>-8.2</ele><time>2022-06-19T06:45:47.000Z</time></trkpt><trkpt lon="5.862803" lat="51.250393"><ele>-8.4</ele><time>2022-06-19T06:45:48.000Z</time></trkpt><trkpt lon="5.862918" lat="51.250404"><ele>-8.4</ele><time>2022-06-19T06:45:49.000Z</time></trkpt><trkpt lon="5.863028" lat="51.250419"><ele>-8.2</ele><time>2022-06-19T06:45:50.000Z</time></trkpt><trkpt lon="5.863139" lat="51.250435"><ele>-8.2</ele><time>2022-06-19T06:45:51.000Z</time></trkpt><trkpt lon="5.863243" lat="51.25045"><ele>-8</ele><time>2022-06-19T06:45:52.000Z</time></trkpt><trkpt lon="5.863343" lat="51.250469"><ele>-8</ele><time>2022-06-19T06:45:53.000Z</time></trkpt><trkpt lon="5.863437" lat="51.250491"><ele>-7.8</ele><time>2022-06-19T06:45:54.000Z</time></trkpt><trkpt lon="5.863528" lat="51.250511"><ele>-7.8</ele><time>2022-06-19T06:45:55.000Z</time></trkpt><trkpt lon="5.863612" lat="51.250529"><ele>-7.6</ele><time>2022-06-19T06:45:56.000Z</time></trkpt><trkpt lon="5.863688" lat="51.250549"><ele>-7.6</ele><time>2022-06-19T06:45:57.000Z</time></trkpt><trkpt lon="5.863741" lat="51.250578"><ele>-7.6</ele><time>2022-06-19T06:45:58.000Z</time></trkpt><trkpt lon="5.863776" lat="51.25062"><ele>-7.6</ele><time>2022-06-19T06:45:59.000Z</time></trkpt><trkpt lon="5.863784" lat="51.250658"><ele>-7.6</ele><time>2022-06-19T06:46:00.000Z</time></trkpt><trkpt lon="5.863765" lat="51.250705"><ele>-7.6</ele><time>2022-06-19T06:46:01.000Z</time></trkpt><trkpt lon="5.863733" lat="51.250753"><ele>-7.8</ele><time>2022-06-19T06:46:02.000Z</time></trkpt><trkpt lon="5.863694" lat="51.2508"><ele>-7.8</ele><time>2022-06-19T06:46:03.000Z</time></trkpt><trkpt lon="5.863649" lat="51.250861"><ele>-7.8</ele><time>2022-06-19T06:46:04.000Z</time></trkpt><trkpt lon="5.863604" lat="51.250917"><ele>-7.6</ele><time>2022-06-19T06:46:05.000Z</time></trkpt><trkpt lon="5.863556" lat="51.250975"><ele>-7.6</ele><time>2022-06-19T06:46:06.000Z</time></trkpt><trkpt lon="5.863509" lat="51.251035"><ele>-7.8</ele><time>2022-06-19T06:46:07.000Z</time></trkpt><trkpt lon="5.863463" lat="51.2511"><ele>-7.8</ele><time>2022-06-19T06:46:08.000Z</time></trkpt><trkpt lon="5.863417" lat="51.251161"><ele>-7.8</ele><time>2022-06-19T06:46:09.000Z</time></trkpt><trkpt lon="5.863375" lat="51.251226"><ele>-7.8</ele><time>2022-06-19T06:46:10.000Z</time></trkpt><trkpt lon="5.863335" lat="51.251287"><ele>-7.8</ele><time>2022-06-19T06:46:11.000Z</time></trkpt><trkpt lon="5.863301" lat="51.251349"><ele>-7.8</ele><time>2022-06-19T06:46:12.000Z</time></trkpt><trkpt lon="5.863271" lat="51.251417"><ele>-8</ele><time>2022-06-19T06:46:13.000Z</time></trkpt><trkpt lon="5.863246" lat="51.251482"><ele>-8</ele><time>2022-06-19T06:46:14.000Z</time></trkpt><trkpt lon="5.863219" lat="51.251548"><ele>-8</ele><time>2022-06-19T06:46:15.000Z</time></trkpt><trkpt lon="5.863194" lat="51.251616"><ele>-8.2</ele><time>2022-06-19T06:46:16.000Z</time></trkpt><trkpt lon="5.863175" lat="51.251685"><ele>-8.2</ele><time>2022-06-19T06:46:17.000Z</time></trkpt><trkpt lon="5.863161" lat="51.251751"><ele>-8</ele><time>2022-06-19T06:46:18.000Z</time></trkpt><trkpt lon="5.863145" lat="51.251822"><ele>-8</ele><time>2022-06-19T06:46:19.000Z</time></trkpt><trkpt lon="5.863132" lat="51.251891"><ele>-7.8</ele><time>2022-06-19T06:46:20.000Z</time></trkpt><trkpt lon="5.863122" lat="51.251963"><ele>-7.8</ele><time>2022-06-19T06:46:21.000Z</time></trkpt><trkpt lon="5.863112" lat="51.252031"><ele>-7.6</ele><time>2022-06-19T06:46:22.000Z</time></trkpt><trkpt lon="5.863102" lat="51.252102"><ele>-7.4</ele><time>2022-06-19T06:46:23.000Z</time></trkpt><trkpt lon="5.86309" lat="51.252172"><ele>-7</ele><time>2022-06-19T06:46:24.000Z</time></trkpt><trkpt lon="5.86308" lat="51.25224"><ele>-7</ele><time>2022-06-19T06:46:25.000Z</time></trkpt><trkpt lon="5.863075" lat="51.252309"><ele>-7</ele><time>2022-06-19T06:46:26.000Z</time></trkpt><trkpt lon="5.863065" lat="51.252378"><ele>-7</ele><time>2022-06-19T06:46:27.000Z</time></trkpt><trkpt lon="5.863054" lat="51.252447"><ele>-7</ele><time>2022-06-19T06:46:28.000Z</time></trkpt><trkpt lon="5.863044" lat="51.252515"><ele>-7</ele><time>2022-06-19T06:46:29.000Z</time></trkpt><trkpt lon="5.863035" lat="51.252584"><ele>-7.2</ele><time>2022-06-19T06:46:30.000Z</time></trkpt><trkpt lon="5.863027" lat="51.252653"><ele>-7.2</ele><time>2022-06-19T06:46:31.000Z</time></trkpt><trkpt lon="5.863015" lat="51.252719"><ele>-7.2</ele><time>2022-06-19T06:46:32.000Z</time></trkpt><trkpt lon="5.863005" lat="51.252787"><ele>-7.4</ele><time>2022-06-19T06:46:33.000Z</time></trkpt><trkpt lon="5.862995" lat="51.252856"><ele>-7.4</ele><time>2022-06-19T06:46:34.000Z</time></trkpt><trkpt lon="5.862987" lat="51.252924"><ele>-7.4</ele><time>2022-06-19T06:46:35.000Z</time></trkpt><trkpt lon="5.862977" lat="51.252993"><ele>-7.4</ele><time>2022-06-19T06:46:36.000Z</time></trkpt><trkpt lon="5.862967" lat="51.253061"><ele>-7.4</ele><time>2022-06-19T06:46:37.000Z</time></trkpt><trkpt lon="5.862956" lat="51.253129"><ele>-7.4</ele><time>2022-06-19T06:46:38.000Z</time></trkpt><trkpt lon="5.862945" lat="51.253199"><ele>-7.4</ele><time>2022-06-19T06:46:39.000Z</time></trkpt><trkpt lon="5.862933" lat="51.253271"><ele>-7.4</ele><time>2022-06-19T06:46:40.000Z</time></trkpt><trkpt lon="5.862922" lat="51.25334"><ele>-7.6</ele><time>2022-06-19T06:46:41.000Z</time></trkpt><trkpt lon="5.862912" lat="51.253408"><ele>-7.6</ele><time>2022-06-19T06:46:42.000Z</time></trkpt><trkpt lon="5.862902" lat="51.253477"><ele>-7.8</ele><time>2022-06-19T06:46:43.000Z</time></trkpt><trkpt lon="5.86289" lat="51.253544"><ele>-7.8</ele><time>2022-06-19T06:46:44.000Z</time></trkpt><trkpt lon="5.862882" lat="51.253613"><ele>-7.8</ele><time>2022-06-19T06:46:45.000Z</time></trkpt><trkpt lon="5.862872" lat="51.253681"><ele>-7.8</ele><time>2022-06-19T06:46:46.000Z</time></trkpt><trkpt lon="5.862862" lat="51.253752"><ele>-7.8</ele><time>2022-06-19T06:46:47.000Z</time></trkpt><trkpt lon="5.862849" lat="51.253824"><ele>-7.8</ele><time>2022-06-19T06:46:48.000Z</time></trkpt><trkpt lon="5.862838" lat="51.25389"><ele>-7.8</ele><time>2022-06-19T06:46:49.000Z</time></trkpt><trkpt lon="5.862829" lat="51.253954"><ele>-8</ele><time>2022-06-19T06:46:50.000Z</time></trkpt><trkpt lon="5.862817" lat="51.254015"><ele>-8.2</ele><time>2022-06-19T06:46:51.000Z</time></trkpt><trkpt lon="5.862805" lat="51.25408"><ele>-8.2</ele><time>2022-06-19T06:46:52.000Z</time></trkpt><trkpt lon="5.862798" lat="51.254135"><ele>-8.2</ele><time>2022-06-19T06:46:53.000Z</time></trkpt><trkpt lon="5.862791" lat="51.254203"><ele>-8.2</ele><time>2022-06-19T06:46:54.000Z</time></trkpt><trkpt lon="5.862787" lat="51.254267"><ele>-8.2</ele><time>2022-06-19T06:46:55.000Z</time></trkpt><trkpt lon="5.862784" lat="51.25433"><ele>-8.2</ele><time>2022-06-19T06:46:56.000Z</time></trkpt><trkpt lon="5.862783" lat="51.254397"><ele>-8.2</ele><time>2022-06-19T06:46:57.000Z</time></trkpt><trkpt lon="5.862787" lat="51.254465"><ele>-8.4</ele><time>2022-06-19T06:46:58.000Z</time></trkpt><trkpt lon="5.862795" lat="51.254535"><ele>-8.4</ele><time>2022-06-19T06:46:59.000Z</time></trkpt><trkpt lon="5.862806" lat="51.254606"><ele>-8.4</ele><time>2022-06-19T06:47:00.000Z</time></trkpt><trkpt lon="5.862818" lat="51.254676"><ele>-8.4</ele><time>2022-06-19T06:47:01.000Z</time></trkpt><trkpt lon="5.862827" lat="51.254748"><ele>-8.4</ele><time>2022-06-19T06:47:02.000Z</time></trkpt><trkpt lon="5.862837" lat="51.25482"><ele>-8.4</ele><time>2022-06-19T06:47:03.000Z</time></trkpt><trkpt lon="5.862845" lat="51.254891"><ele>-8.2</ele><time>2022-06-19T06:47:04.000Z</time></trkpt><trkpt lon="5.862852" lat="51.254965"><ele>-8.2</ele><time>2022-06-19T06:47:05.000Z</time></trkpt><trkpt lon="5.862861" lat="51.255037"><ele>-8.2</ele><time>2022-06-19T06:47:06.000Z</time></trkpt><trkpt lon="5.862873" lat="51.255113"><ele>-8.4</ele><time>2022-06-19T06:47:07.000Z</time></trkpt><trkpt lon="5.86288" lat="51.255186"><ele>-8.4</ele><time>2022-06-19T06:47:08.000Z</time></trkpt><trkpt lon="5.862886" lat="51.255266"><ele>-8.4</ele><time>2022-06-19T06:47:09.000Z</time></trkpt><trkpt lon="5.862891" lat="51.255338"><ele>-8.4</ele><time>2022-06-19T06:47:10.000Z</time></trkpt><trkpt lon="5.862892" lat="51.255415"><ele>-8.4</ele><time>2022-06-19T06:47:11.000Z</time></trkpt><trkpt lon="5.862888" lat="51.255484"><ele>-8.2</ele><time>2022-06-19T06:47:12.000Z</time></trkpt><trkpt lon="5.862882" lat="51.255556"><ele>-8</ele><time>2022-06-19T06:47:13.000Z</time></trkpt><trkpt lon="5.862872" lat="51.255625"><ele>-7.8</ele><time>2022-06-19T06:47:14.000Z</time></trkpt><trkpt lon="5.862859" lat="51.255697"><ele>-7.6</ele><time>2022-06-19T06:47:15.000Z</time></trkpt><trkpt lon="5.862847" lat="51.255766"><ele>-7.6</ele><time>2022-06-19T06:47:16.000Z</time></trkpt><trkpt lon="5.862834" lat="51.255835"><ele>-7.6</ele><time>2022-06-19T06:47:17.000Z</time></trkpt><trkpt lon="5.862821" lat="51.255906"><ele>-7.6</ele><time>2022-06-19T06:47:18.000Z</time></trkpt><trkpt lon="5.862807" lat="51.255975"><ele>-7.6</ele><time>2022-06-19T06:47:19.000Z</time></trkpt><trkpt lon="5.862794" lat="51.256044"><ele>-7.6</ele><time>2022-06-19T06:47:20.000Z</time></trkpt><trkpt lon="5.862781" lat="51.256112"><ele>-7.6</ele><time>2022-06-19T06:47:21.000Z</time></trkpt><trkpt lon="5.862769" lat="51.256179"><ele>-7.8</ele><time>2022-06-19T06:47:22.000Z</time></trkpt><trkpt lon="5.862758" lat="51.256251"><ele>-7.8</ele><time>2022-06-19T06:47:23.000Z</time></trkpt><trkpt lon="5.862747" lat="51.256319"><ele>-7.8</ele><time>2022-06-19T06:47:24.000Z</time></trkpt><trkpt lon="5.862735" lat="51.256388"><ele>-8</ele><time>2022-06-19T06:47:25.000Z</time></trkpt><trkpt lon="5.862724" lat="51.256453"><ele>-8</ele><time>2022-06-19T06:47:26.000Z</time></trkpt><trkpt lon="5.862709" lat="51.256525"><ele>-8.2</ele><time>2022-06-19T06:47:27.000Z</time></trkpt><trkpt lon="5.862694" lat="51.256593"><ele>-8.2</ele><time>2022-06-19T06:47:28.000Z</time></trkpt><trkpt lon="5.862679" lat="51.256662"><ele>-8.2</ele><time>2022-06-19T06:47:29.000Z</time></trkpt><trkpt lon="5.862665" lat="51.256727"><ele>-8.2</ele><time>2022-06-19T06:47:30.000Z</time></trkpt><trkpt lon="5.862649" lat="51.256802"><ele>-8.4</ele><time>2022-06-19T06:47:31.000Z</time></trkpt><trkpt lon="5.862635" lat="51.256873"><ele>-8.4</ele><time>2022-06-19T06:47:32.000Z</time></trkpt><trkpt lon="5.86262" lat="51.256945"><ele>-8.4</ele><time>2022-06-19T06:47:33.000Z</time></trkpt><trkpt lon="5.862605" lat="51.257014"><ele>-8.6</ele><time>2022-06-19T06:47:34.000Z</time></trkpt><trkpt lon="5.86259" lat="51.257082"><ele>-8.4</ele><time>2022-06-19T06:47:35.000Z</time></trkpt><trkpt lon="5.862576" lat="51.257151"><ele>-8.4</ele><time>2022-06-19T06:47:36.000Z</time></trkpt><trkpt lon="5.86256" lat="51.257223"><ele>-8.2</ele><time>2022-06-19T06:47:37.000Z</time></trkpt><trkpt lon="5.862548" lat="51.257288"><ele>-8.2</ele><time>2022-06-19T06:47:38.000Z</time></trkpt><trkpt lon="5.862531" lat="51.25736"><ele>-8.2</ele><time>2022-06-19T06:47:39.000Z</time></trkpt><trkpt lon="5.862518" lat="51.257425"><ele>-8.2</ele><time>2022-06-19T06:47:40.000Z</time></trkpt><trkpt lon="5.862504" lat="51.257498"><ele>-8.2</ele><time>2022-06-19T06:47:41.000Z</time></trkpt><trkpt lon="5.862491" lat="51.257566"><ele>-8.2</ele><time>2022-06-19T06:47:42.000Z</time></trkpt><trkpt lon="5.862475" lat="51.257638"><ele>-8</ele><time>2022-06-19T06:47:43.000Z</time></trkpt><trkpt lon="5.862459" lat="51.257708"><ele>-8</ele><time>2022-06-19T06:47:44.000Z</time></trkpt><trkpt lon="5.862443" lat="51.257773"><ele>-7.8</ele><time>2022-06-19T06:47:45.000Z</time></trkpt><trkpt lon="5.862425" lat="51.257844"><ele>-7.8</ele><time>2022-06-19T06:47:46.000Z</time></trkpt><trkpt lon="5.862412" lat="51.257912"><ele>-7.8</ele><time>2022-06-19T06:47:47.000Z</time></trkpt><trkpt lon="5.862397" lat="51.257982"><ele>-8</ele><time>2022-06-19T06:47:48.000Z</time></trkpt><trkpt lon="5.862382" lat="51.258055"><ele>-8</ele><time>2022-06-19T06:47:49.000Z</time></trkpt><trkpt lon="5.862368" lat="51.258124"><ele>-8</ele><time>2022-06-19T06:47:50.000Z</time></trkpt><trkpt lon="5.862354" lat="51.258191"><ele>-8</ele><time>2022-06-19T06:47:51.000Z</time></trkpt><trkpt lon="5.862339" lat="51.258264"><ele>-8.2</ele><time>2022-06-19T06:47:52.000Z</time></trkpt><trkpt lon="5.862324" lat="51.258335"><ele>-8.2</ele><time>2022-06-19T06:47:53.000Z</time></trkpt><trkpt lon="5.862309" lat="51.25841"><ele>-8.2</ele><time>2022-06-19T06:47:54.000Z</time></trkpt><trkpt lon="5.862296" lat="51.258477"><ele>-8.4</ele><time>2022-06-19T06:47:55.000Z</time></trkpt><trkpt lon="5.862279" lat="51.258551"><ele>-8.4</ele><time>2022-06-19T06:47:56.000Z</time></trkpt><trkpt lon="5.862262" lat="51.258623"><ele>-8.4</ele><time>2022-06-19T06:47:57.000Z</time></trkpt><trkpt lon="5.862244" lat="51.258692"><ele>-8.4</ele><time>2022-06-19T06:47:58.000Z</time></trkpt><trkpt lon="5.862224" lat="51.258764"><ele>-8.4</ele><time>2022-06-19T06:47:59.000Z</time></trkpt><trkpt lon="5.862199" lat="51.258833"><ele>-8.4</ele><time>2022-06-19T06:48:00.000Z</time></trkpt><trkpt lon="5.862171" lat="51.258898"><ele>-8.4</ele><time>2022-06-19T06:48:01.000Z</time></trkpt><trkpt lon="5.862138" lat="51.258966"><ele>-8.2</ele><time>2022-06-19T06:48:02.000Z</time></trkpt><trkpt lon="5.862099" lat="51.259033"><ele>-8.2</ele><time>2022-06-19T06:48:03.000Z</time></trkpt><trkpt lon="5.862058" lat="51.2591"><ele>-8.2</ele><time>2022-06-19T06:48:04.000Z</time></trkpt><trkpt lon="5.862018" lat="51.259169"><ele>-8.2</ele><time>2022-06-19T06:48:05.000Z</time></trkpt><trkpt lon="5.861978" lat="51.259234"><ele>-8.2</ele><time>2022-06-19T06:48:06.000Z</time></trkpt><trkpt lon="5.861935" lat="51.259297"><ele>-8.2</ele><time>2022-06-19T06:48:07.000Z</time></trkpt><trkpt lon="5.861896" lat="51.259355"><ele>-8.2</ele><time>2022-06-19T06:48:08.000Z</time></trkpt><trkpt lon="5.861842" lat="51.259423"><ele>-8.2</ele><time>2022-06-19T06:48:09.000Z</time></trkpt><trkpt lon="5.861799" lat="51.259481"><ele>-8.2</ele><time>2022-06-19T06:48:10.000Z</time></trkpt><trkpt lon="5.861747" lat="51.259551"><ele>-8</ele><time>2022-06-19T06:48:11.000Z</time></trkpt><trkpt lon="5.861697" lat="51.259613"><ele>-8</ele><time>2022-06-19T06:48:12.000Z</time></trkpt><trkpt lon="5.861643" lat="51.259676"><ele>-8</ele><time>2022-06-19T06:48:13.000Z</time></trkpt><trkpt lon="5.861588" lat="51.259734"><ele>-8</ele><time>2022-06-19T06:48:14.000Z</time></trkpt><trkpt lon="5.86153" lat="51.259795"><ele>-7.8</ele><time>2022-06-19T06:48:15.000Z</time></trkpt><trkpt lon="5.861468" lat="51.259852"><ele>-8</ele><time>2022-06-19T06:48:16.000Z</time></trkpt><trkpt lon="5.861405" lat="51.259909"><ele>-8</ele><time>2022-06-19T06:48:17.000Z</time></trkpt><trkpt lon="5.861342" lat="51.259963"><ele>-8</ele><time>2022-06-19T06:48:18.000Z</time></trkpt><trkpt lon="5.861277" lat="51.26002"><ele>-8</ele><time>2022-06-19T06:48:19.000Z</time></trkpt><trkpt lon="5.861211" lat="51.260077"><ele>-8</ele><time>2022-06-19T06:48:20.000Z</time></trkpt><trkpt lon="5.861145" lat="51.260131"><ele>-8</ele><time>2022-06-19T06:48:21.000Z</time></trkpt><trkpt lon="5.861079" lat="51.26018"><ele>-8</ele><time>2022-06-19T06:48:22.000Z</time></trkpt><trkpt lon="5.861015" lat="51.260236"><ele>-8</ele><time>2022-06-19T06:48:23.000Z</time></trkpt><trkpt lon="5.860947" lat="51.260291"><ele>-8</ele><time>2022-06-19T06:48:24.000Z</time></trkpt><trkpt lon="5.860881" lat="51.260344"><ele>-8</ele><time>2022-06-19T06:48:25.000Z</time></trkpt><trkpt lon="5.860818" lat="51.260398"><ele>-8</ele><time>2022-06-19T06:48:26.000Z</time></trkpt><trkpt lon="5.860753" lat="51.260451"><ele>-8</ele><time>2022-06-19T06:48:27.000Z</time></trkpt><trkpt lon="5.860692" lat="51.260501"><ele>-8</ele><time>2022-06-19T06:48:28.000Z</time></trkpt><trkpt lon="5.860628" lat="51.260554"><ele>-7.8</ele><time>2022-06-19T06:48:29.000Z</time></trkpt><trkpt lon="5.860573" lat="51.260604"><ele>-7.8</ele><time>2022-06-19T06:48:30.000Z</time></trkpt><trkpt lon="5.860502" lat="51.260664"><ele>-7.8</ele><time>2022-06-19T06:48:31.000Z</time></trkpt><trkpt lon="5.860438" lat="51.260718"><ele>-8</ele><time>2022-06-19T06:48:32.000Z</time></trkpt><trkpt lon="5.860378" lat="51.260774"><ele>-8.2</ele><time>2022-06-19T06:48:33.000Z</time></trkpt><trkpt lon="5.860321" lat="51.260826"><ele>-8.2</ele><time>2022-06-19T06:48:34.000Z</time></trkpt><trkpt lon="5.860268" lat="51.260884"><ele>-8.2</ele><time>2022-06-19T06:48:35.000Z</time></trkpt><trkpt lon="5.860215" lat="51.260941"><ele>-8.2</ele><time>2022-06-19T06:48:36.000Z</time></trkpt><trkpt lon="5.86016" lat="51.261007"><ele>-8</ele><time>2022-06-19T06:48:37.000Z</time></trkpt><trkpt lon="5.860118" lat="51.261072"><ele>-8</ele><time>2022-06-19T06:48:38.000Z</time></trkpt><trkpt lon="5.860078" lat="51.261134"><ele>-8</ele><time>2022-06-19T06:48:39.000Z</time></trkpt><trkpt lon="5.86004" lat="51.261197"><ele>-8</ele><time>2022-06-19T06:48:40.000Z</time></trkpt><trkpt lon="5.860005" lat="51.261263"><ele>-7.8</ele><time>2022-06-19T06:48:41.000Z</time></trkpt><trkpt lon="5.859972" lat="51.261328"><ele>-7.8</ele><time>2022-06-19T06:48:42.000Z</time></trkpt><trkpt lon="5.859941" lat="51.261389"><ele>-7.8</ele><time>2022-06-19T06:48:43.000Z</time></trkpt><trkpt lon="5.859911" lat="51.261454"><ele>-7.6</ele><time>2022-06-19T06:48:44.000Z</time></trkpt><trkpt lon="5.859879" lat="51.261515"><ele>-7.6</ele><time>2022-06-19T06:48:45.000Z</time></trkpt><trkpt lon="5.859848" lat="51.261576"><ele>-7.6</ele><time>2022-06-19T06:48:46.000Z</time></trkpt><trkpt lon="5.859819" lat="51.261633"><ele>-7.6</ele><time>2022-06-19T06:48:47.000Z</time></trkpt><trkpt lon="5.859791" lat="51.26169"><ele>-7.6</ele><time>2022-06-19T06:48:48.000Z</time></trkpt><trkpt lon="5.859764" lat="51.261748"><ele>-7.6</ele><time>2022-06-19T06:48:49.000Z</time></trkpt><trkpt lon="5.859738" lat="51.2618"><ele>-7.6</ele><time>2022-06-19T06:48:50.000Z</time></trkpt><trkpt lon="5.859708" lat="51.261854"><ele>-7.6</ele><time>2022-06-19T06:48:51.000Z</time></trkpt><trkpt lon="5.859677" lat="51.261905"><ele>-7.6</ele><time>2022-06-19T06:48:52.000Z</time></trkpt><trkpt lon="5.859654" lat="51.261946"><ele>-7.6</ele><time>2022-06-19T06:48:53.000Z</time></trkpt><trkpt lon="5.859644" lat="51.261997"><ele>-7.6</ele><time>2022-06-19T06:48:54.000Z</time></trkpt><trkpt lon="5.85965" lat="51.262041"><ele>-7.6</ele><time>2022-06-19T06:48:55.000Z</time></trkpt><trkpt lon="5.859676" lat="51.26208"><ele>-7.4</ele><time>2022-06-19T06:48:56.000Z</time></trkpt><trkpt lon="5.859729" lat="51.262109"><ele>-7.4</ele><time>2022-06-19T06:48:57.000Z</time></trkpt><trkpt lon="5.859819" lat="51.262145"><ele>-7.4</ele><time>2022-06-19T06:48:58.000Z</time></trkpt><trkpt lon="5.859914" lat="51.262179"><ele>-7.4</ele><time>2022-06-19T06:48:59.000Z</time></trkpt><trkpt lon="5.860016" lat="51.262218"><ele>-7.6</ele><time>2022-06-19T06:49:00.000Z</time></trkpt><trkpt lon="5.860116" lat="51.262255"><ele>-7.6</ele><time>2022-06-19T06:49:01.000Z</time></trkpt><trkpt lon="5.860221" lat="51.262294"><ele>-7.8</ele><time>2022-06-19T06:49:02.000Z</time></trkpt><trkpt lon="5.860318" lat="51.262331"><ele>-7.8</ele><time>2022-06-19T06:49:03.000Z</time></trkpt><trkpt lon="5.860421" lat="51.262366"><ele>-7.8</ele><time>2022-06-19T06:49:04.000Z</time></trkpt><trkpt lon="5.86052" lat="51.2624"><ele>-8</ele><time>2022-06-19T06:49:05.000Z</time></trkpt><trkpt lon="5.860619" lat="51.262439"><ele>-8</ele><time>2022-06-19T06:49:06.000Z</time></trkpt><trkpt lon="5.860719" lat="51.262473"><ele>-8</ele><time>2022-06-19T06:49:07.000Z</time></trkpt><trkpt lon="5.860813" lat="51.262506"><ele>-7.8</ele><time>2022-06-19T06:49:08.000Z</time></trkpt><trkpt lon="5.860914" lat="51.262541"><ele>-7.8</ele><time>2022-06-19T06:49:09.000Z</time></trkpt><trkpt lon="5.861012" lat="51.262576"><ele>-7.8</ele><time>2022-06-19T06:49:10.000Z</time></trkpt><trkpt lon="5.861107" lat="51.262607"><ele>-7.8</ele><time>2022-06-19T06:49:11.000Z</time></trkpt><trkpt lon="5.861202" lat="51.262641"><ele>-7.8</ele><time>2022-06-19T06:49:12.000Z</time></trkpt><trkpt lon="5.861298" lat="51.262671"><ele>-7.8</ele><time>2022-06-19T06:49:13.000Z</time></trkpt><trkpt lon="5.861398" lat="51.262702"><ele>-8</ele><time>2022-06-19T06:49:14.000Z</time></trkpt><trkpt lon="5.861496" lat="51.262729"><ele>-8</ele><time>2022-06-19T06:49:15.000Z</time></trkpt><trkpt lon="5.861595" lat="51.262755"><ele>-8.2</ele><time>2022-06-19T06:49:16.000Z</time></trkpt><trkpt lon="5.861699" lat="51.262782"><ele>-8.2</ele><time>2022-06-19T06:49:17.000Z</time></trkpt><trkpt lon="5.861801" lat="51.262809"><ele>-8.2</ele><time>2022-06-19T06:49:18.000Z</time></trkpt><trkpt lon="5.861908" lat="51.262836"><ele>-8.2</ele><time>2022-06-19T06:49:19.000Z</time></trkpt><trkpt lon="5.862008" lat="51.262858"><ele>-8.2</ele><time>2022-06-19T06:49:20.000Z</time></trkpt><trkpt lon="5.862112" lat="51.262877"><ele>-8.2</ele><time>2022-06-19T06:49:21.000Z</time></trkpt><trkpt lon="5.862223" lat="51.262897"><ele>-8.2</ele><time>2022-06-19T06:49:22.000Z</time></trkpt><trkpt lon="5.862329" lat="51.262916"><ele>-8.2</ele><time>2022-06-19T06:49:23.000Z</time></trkpt><trkpt lon="5.862435" lat="51.262939"><ele>-8.2</ele><time>2022-06-19T06:49:24.000Z</time></trkpt><trkpt lon="5.862542" lat="51.262962"><ele>-8.2</ele><time>2022-06-19T06:49:25.000Z</time></trkpt><trkpt lon="5.862653" lat="51.262981"><ele>-8.2</ele><time>2022-06-19T06:49:26.000Z</time></trkpt><trkpt lon="5.862764" lat="51.262996"><ele>-8</ele><time>2022-06-19T06:49:27.000Z</time></trkpt><trkpt lon="5.862871" lat="51.263015"><ele>-8</ele><time>2022-06-19T06:49:28.000Z</time></trkpt><trkpt lon="5.862977" lat="51.263038"><ele>-8.2</ele><time>2022-06-19T06:49:29.000Z</time></trkpt><trkpt lon="5.863084" lat="51.263061"><ele>-8</ele><time>2022-06-19T06:49:30.000Z</time></trkpt><trkpt lon="5.863195" lat="51.263084"><ele>-8</ele><time>2022-06-19T06:49:31.000Z</time></trkpt><trkpt lon="5.863303" lat="51.263106"><ele>-8</ele><time>2022-06-19T06:49:32.000Z</time></trkpt><trkpt lon="5.863411" lat="51.263132"><ele>-8</ele><time>2022-06-19T06:49:33.000Z</time></trkpt><trkpt lon="5.863524" lat="51.263156"><ele>-8.2</ele><time>2022-06-19T06:49:34.000Z</time></trkpt><trkpt lon="5.863634" lat="51.263179"><ele>-8</ele><time>2022-06-19T06:49:35.000Z</time></trkpt><trkpt lon="5.863736" lat="51.263201"><ele>-8.2</ele><time>2022-06-19T06:49:36.000Z</time></trkpt><trkpt lon="5.863844" lat="51.263221"><ele>-8.2</ele><time>2022-06-19T06:49:37.000Z</time></trkpt><trkpt lon="5.863958" lat="51.263247"><ele>-8.2</ele><time>2022-06-19T06:49:38.000Z</time></trkpt><trkpt lon="5.864079" lat="51.263271"><ele>-8.2</ele><time>2022-06-19T06:49:39.000Z</time></trkpt><trkpt lon="5.864194" lat="51.263294"><ele>-8.2</ele><time>2022-06-19T06:49:40.000Z</time></trkpt><trkpt lon="5.864301" lat="51.26332"><ele>-8</ele><time>2022-06-19T06:49:41.000Z</time></trkpt><trkpt lon="5.864416" lat="51.263343"><ele>-8</ele><time>2022-06-19T06:49:42.000Z</time></trkpt><trkpt lon="5.864529" lat="51.263366"><ele>-8</ele><time>2022-06-19T06:49:43.000Z</time></trkpt><trkpt lon="5.864636" lat="51.263392"><ele>-7.8</ele><time>2022-06-19T06:49:44.000Z</time></trkpt><trkpt lon="5.864743" lat="51.263416"><ele>-7.8</ele><time>2022-06-19T06:49:45.000Z</time></trkpt><trkpt lon="5.864855" lat="51.263446"><ele>-7.8</ele><time>2022-06-19T06:49:46.000Z</time></trkpt><trkpt lon="5.864973" lat="51.263473"><ele>-7.8</ele><time>2022-06-19T06:49:47.000Z</time></trkpt><trkpt lon="5.86509" lat="51.263502"><ele>-8</ele><time>2022-06-19T06:49:48.000Z</time></trkpt><trkpt lon="5.865202" lat="51.263532"><ele>-8</ele><time>2022-06-19T06:49:49.000Z</time></trkpt><trkpt lon="5.865318" lat="51.263557"><ele>-8</ele><time>2022-06-19T06:49:50.000Z</time></trkpt><trkpt lon="5.865432" lat="51.263583"><ele>-8</ele><time>2022-06-19T06:49:51.000Z</time></trkpt><trkpt lon="5.865546" lat="51.26361"><ele>-8</ele><time>2022-06-19T06:49:52.000Z</time></trkpt><trkpt lon="5.865653" lat="51.263638"><ele>-8</ele><time>2022-06-19T06:49:53.000Z</time></trkpt><trkpt lon="5.865769" lat="51.263671"><ele>-8</ele><time>2022-06-19T06:49:54.000Z</time></trkpt><trkpt lon="5.865875" lat="51.263694"><ele>-8</ele><time>2022-06-19T06:49:55.000Z</time></trkpt><trkpt lon="5.865987" lat="51.263721"><ele>-8</ele><time>2022-06-19T06:49:56.000Z</time></trkpt><trkpt lon="5.866094" lat="51.263744"><ele>-8</ele><time>2022-06-19T06:49:57.000Z</time></trkpt><trkpt lon="5.866202" lat="51.263767"><ele>-8</ele><time>2022-06-19T06:49:58.000Z</time></trkpt><trkpt lon="5.866312" lat="51.263789"><ele>-8</ele><time>2022-06-19T06:49:59.000Z</time></trkpt><trkpt lon="5.866425" lat="51.263815"><ele>-8</ele><time>2022-06-19T06:50:00.000Z</time></trkpt><trkpt lon="5.866539" lat="51.263843"><ele>-8</ele><time>2022-06-19T06:50:01.000Z</time></trkpt><trkpt lon="5.866654" lat="51.263873"><ele>-8</ele><time>2022-06-19T06:50:02.000Z</time></trkpt><trkpt lon="5.866759" lat="51.263898"><ele>-8</ele><time>2022-06-19T06:50:03.000Z</time></trkpt><trkpt lon="5.866875" lat="51.263926"><ele>-8</ele><time>2022-06-19T06:50:04.000Z</time></trkpt><trkpt lon="5.866988" lat="51.263953"><ele>-8</ele><time>2022-06-19T06:50:05.000Z</time></trkpt><trkpt lon="5.867095" lat="51.263983"><ele>-8.2</ele><time>2022-06-19T06:50:06.000Z</time></trkpt><trkpt lon="5.8672" lat="51.264014"><ele>-8.4</ele><time>2022-06-19T06:50:07.000Z</time></trkpt><trkpt lon="5.867298" lat="51.264045"><ele>-8.4</ele><time>2022-06-19T06:50:08.000Z</time></trkpt><trkpt lon="5.86739" lat="51.264076"><ele>-8.4</ele><time>2022-06-19T06:50:09.000Z</time></trkpt><trkpt lon="5.867494" lat="51.264113"><ele>-8.6</ele><time>2022-06-19T06:50:10.000Z</time></trkpt><trkpt lon="5.867583" lat="51.264143"><ele>-8.6</ele><time>2022-06-19T06:50:11.000Z</time></trkpt><trkpt lon="5.867681" lat="51.264177"><ele>-8.6</ele><time>2022-06-19T06:50:12.000Z</time></trkpt><trkpt lon="5.867771" lat="51.264211"><ele>-8.6</ele><time>2022-06-19T06:50:13.000Z</time></trkpt><trkpt lon="5.867872" lat="51.264251"><ele>-8.6</ele><time>2022-06-19T06:50:14.000Z</time></trkpt><trkpt lon="5.867966" lat="51.264288"><ele>-8.6</ele><time>2022-06-19T06:50:15.000Z</time></trkpt><trkpt lon="5.868067" lat="51.264331"><ele>-8.6</ele><time>2022-06-19T06:50:16.000Z</time></trkpt><trkpt lon="5.868169" lat="51.264369"><ele>-8.6</ele><time>2022-06-19T06:50:17.000Z</time></trkpt><trkpt lon="5.86827" lat="51.264411"><ele>-8.6</ele><time>2022-06-19T06:50:18.000Z</time></trkpt><trkpt lon="5.868371" lat="51.264449"><ele>-8.6</ele><time>2022-06-19T06:50:19.000Z</time></trkpt><trkpt lon="5.868477" lat="51.264487"><ele>-8.6</ele><time>2022-06-19T06:50:20.000Z</time></trkpt><trkpt lon="5.868587" lat="51.264525"><ele>-8.6</ele><time>2022-06-19T06:50:21.000Z</time></trkpt><trkpt lon="5.868693" lat="51.264566"><ele>-8.4</ele><time>2022-06-19T06:50:22.000Z</time></trkpt><trkpt lon="5.868795" lat="51.2646"><ele>-8.4</ele><time>2022-06-19T06:50:23.000Z</time></trkpt><trkpt lon="5.868912" lat="51.264632"><ele>-8.4</ele><time>2022-06-19T06:50:24.000Z</time></trkpt><trkpt lon="5.869026" lat="51.264666"><ele>-8.4</ele><time>2022-06-19T06:50:25.000Z</time></trkpt><trkpt lon="5.86914" lat="51.264697"><ele>-8.2</ele><time>2022-06-19T06:50:26.000Z</time></trkpt><trkpt lon="5.869254" lat="51.264728"><ele>-8.2</ele><time>2022-06-19T06:50:27.000Z</time></trkpt><trkpt lon="5.869366" lat="51.264758"><ele>-8.2</ele><time>2022-06-19T06:50:28.000Z</time></trkpt><trkpt lon="5.869475" lat="51.264789"><ele>-8.2</ele><time>2022-06-19T06:50:29.000Z</time></trkpt><trkpt lon="5.869548" lat="51.264809"><ele>-8.2</ele><time>2022-06-19T06:50:30.000Z</time></trkpt><trkpt lon="5.869688" lat="51.264845"><ele>-8.2</ele><time>2022-06-19T06:50:31.000Z</time></trkpt><trkpt lon="5.869798" lat="51.264876"><ele>-8.2</ele><time>2022-06-19T06:50:32.000Z</time></trkpt><trkpt lon="5.869906" lat="51.264903"><ele>-8.2</ele><time>2022-06-19T06:50:33.000Z</time></trkpt><trkpt lon="5.870012" lat="51.264933"><ele>-8.2</ele><time>2022-06-19T06:50:34.000Z</time></trkpt><trkpt lon="5.87012" lat="51.264963"><ele>-8.2</ele><time>2022-06-19T06:50:35.000Z</time></trkpt><trkpt lon="5.870226" lat="51.264992"><ele>-8.2</ele><time>2022-06-19T06:50:36.000Z</time></trkpt><trkpt lon="5.87033" lat="51.265022"><ele>-8.2</ele><time>2022-06-19T06:50:37.000Z</time></trkpt><trkpt lon="5.870456" lat="51.265059"><ele>-8.2</ele><time>2022-06-19T06:50:38.000Z</time></trkpt><trkpt lon="5.870562" lat="51.265089"><ele>-8.2</ele><time>2022-06-19T06:50:39.000Z</time></trkpt><trkpt lon="5.870665" lat="51.265118"><ele>-8.2</ele><time>2022-06-19T06:50:40.000Z</time></trkpt><trkpt lon="5.870781" lat="51.265151"><ele>-8.2</ele><time>2022-06-19T06:50:41.000Z</time></trkpt><trkpt lon="5.870884" lat="51.265181"><ele>-8.2</ele><time>2022-06-19T06:50:42.000Z</time></trkpt><trkpt lon="5.870972" lat="51.265207"><ele>-8.2</ele><time>2022-06-19T06:50:43.000Z</time></trkpt><trkpt lon="5.871099" lat="51.265243"><ele>-8.2</ele><time>2022-06-19T06:50:44.000Z</time></trkpt><trkpt lon="5.871209" lat="51.265273"><ele>-8.2</ele><time>2022-06-19T06:50:45.000Z</time></trkpt><trkpt lon="5.871318" lat="51.265304"><ele>-8.2</ele><time>2022-06-19T06:50:46.000Z</time></trkpt><trkpt lon="5.871419" lat="51.265331"><ele>-8.2</ele><time>2022-06-19T06:50:47.000Z</time></trkpt><trkpt lon="5.871537" lat="51.265361"><ele>-8.2</ele><time>2022-06-19T06:50:48.000Z</time></trkpt><trkpt lon="5.871648" lat="51.265388"><ele>-8.2</ele><time>2022-06-19T06:50:49.000Z</time></trkpt><trkpt lon="5.87176" lat="51.265418"><ele>-8.2</ele><time>2022-06-19T06:50:50.000Z</time></trkpt><trkpt lon="5.871873" lat="51.265448"><ele>-8.2</ele><time>2022-06-19T06:50:51.000Z</time></trkpt><trkpt lon="5.871989" lat="51.265479"><ele>-8.2</ele><time>2022-06-19T06:50:52.000Z</time></trkpt><trkpt lon="5.872101" lat="51.265501"><ele>-8.4</ele><time>2022-06-19T06:50:53.000Z</time></trkpt><trkpt lon="5.872221" lat="51.265529"><ele>-8.4</ele><time>2022-06-19T06:50:54.000Z</time></trkpt><trkpt lon="5.872335" lat="51.265559"><ele>-8.4</ele><time>2022-06-19T06:50:55.000Z</time></trkpt><trkpt lon="5.87245" lat="51.265585"><ele>-8.4</ele><time>2022-06-19T06:50:56.000Z</time></trkpt><trkpt lon="5.87257" lat="51.265617"><ele>-8.4</ele><time>2022-06-19T06:50:57.000Z</time></trkpt><trkpt lon="5.872689" lat="51.265647"><ele>-8.4</ele><time>2022-06-19T06:50:58.000Z</time></trkpt><trkpt lon="5.872803" lat="51.265673"><ele>-8.4</ele><time>2022-06-19T06:50:59.000Z</time></trkpt><trkpt lon="5.872909" lat="51.265698"><ele>-8.4</ele><time>2022-06-19T06:51:00.000Z</time></trkpt><trkpt lon="5.873034" lat="51.265731"><ele>-8.6</ele><time>2022-06-19T06:51:01.000Z</time></trkpt><trkpt lon="5.873146" lat="51.265758"><ele>-8.6</ele><time>2022-06-19T06:51:02.000Z</time></trkpt><trkpt lon="5.873262" lat="51.265785"><ele>-8.6</ele><time>2022-06-19T06:51:03.000Z</time></trkpt><trkpt lon="5.873376" lat="51.265808"><ele>-8.6</ele><time>2022-06-19T06:51:04.000Z</time></trkpt><trkpt lon="5.873489" lat="51.265834"><ele>-8.6</ele><time>2022-06-19T06:51:05.000Z</time></trkpt><trkpt lon="5.873604" lat="51.265865"><ele>-8.6</ele><time>2022-06-19T06:51:06.000Z</time></trkpt><trkpt lon="5.873719" lat="51.265891"><ele>-8.6</ele><time>2022-06-19T06:51:07.000Z</time></trkpt><trkpt lon="5.87383" lat="51.265918"><ele>-8.6</ele><time>2022-06-19T06:51:08.000Z</time></trkpt><trkpt lon="5.873939" lat="51.265944"><ele>-8.6</ele><time>2022-06-19T06:51:09.000Z</time></trkpt><trkpt lon="5.874051" lat="51.265972"><ele>-8.6</ele><time>2022-06-19T06:51:10.000Z</time></trkpt><trkpt lon="5.874162" lat="51.265998"><ele>-8.6</ele><time>2022-06-19T06:51:11.000Z</time></trkpt><trkpt lon="5.874277" lat="51.266029"><ele>-8.6</ele><time>2022-06-19T06:51:12.000Z</time></trkpt><trkpt lon="5.874388" lat="51.266055"><ele>-8.6</ele><time>2022-06-19T06:51:13.000Z</time></trkpt><trkpt lon="5.874493" lat="51.266081"><ele>-8.8</ele><time>2022-06-19T06:51:14.000Z</time></trkpt><trkpt lon="5.874606" lat="51.266105"><ele>-8.8</ele><time>2022-06-19T06:51:15.000Z</time></trkpt><trkpt lon="5.874713" lat="51.266128"><ele>-8.8</ele><time>2022-06-19T06:51:16.000Z</time></trkpt><trkpt lon="5.874821" lat="51.266151"><ele>-8.6</ele><time>2022-06-19T06:51:17.000Z</time></trkpt><trkpt lon="5.874932" lat="51.266177"><ele>-8.6</ele><time>2022-06-19T06:51:18.000Z</time></trkpt><trkpt lon="5.875044" lat="51.266197"><ele>-8.6</ele><time>2022-06-19T06:51:19.000Z</time></trkpt><trkpt lon="5.875152" lat="51.26622"><ele>-8.6</ele><time>2022-06-19T06:51:20.000Z</time></trkpt><trkpt lon="5.875262" lat="51.266239"><ele>-8.6</ele><time>2022-06-19T06:51:21.000Z</time></trkpt><trkpt lon="5.875373" lat="51.266247"><ele>-8.8</ele><time>2022-06-19T06:51:22.000Z</time></trkpt><trkpt lon="5.875482" lat="51.266258"><ele>-8.8</ele><time>2022-06-19T06:51:23.000Z</time></trkpt><trkpt lon="5.875593" lat="51.266265"><ele>-8.8</ele><time>2022-06-19T06:51:24.000Z</time></trkpt><trkpt lon="5.875718" lat="51.266273"><ele>-8.8</ele><time>2022-06-19T06:51:25.000Z</time></trkpt><trkpt lon="5.875844" lat="51.266277"><ele>-8.8</ele><time>2022-06-19T06:51:26.000Z</time></trkpt><trkpt lon="5.87596" lat="51.266281"><ele>-8.8</ele><time>2022-06-19T06:51:27.000Z</time></trkpt><trkpt lon="5.876081" lat="51.266285"><ele>-8.8</ele><time>2022-06-19T06:51:28.000Z</time></trkpt><trkpt lon="5.876205" lat="51.266292"><ele>-8.8</ele><time>2022-06-19T06:51:29.000Z</time></trkpt><trkpt lon="5.876313" lat="51.266296"><ele>-9</ele><time>2022-06-19T06:51:30.000Z</time></trkpt><trkpt lon="5.87643" lat="51.2663"><ele>-9</ele><time>2022-06-19T06:51:31.000Z</time></trkpt><trkpt lon="5.876547" lat="51.266304"><ele>-8.8</ele><time>2022-06-19T06:51:32.000Z</time></trkpt><trkpt lon="5.876659" lat="51.266308"><ele>-8.8</ele><time>2022-06-19T06:51:33.000Z</time></trkpt><trkpt lon="5.87677" lat="51.266323"><ele>-8.8</ele><time>2022-06-19T06:51:34.000Z</time></trkpt><trkpt lon="5.876889" lat="51.266338"><ele>-8.8</ele><time>2022-06-19T06:51:35.000Z</time></trkpt><trkpt lon="5.877016" lat="51.266349"><ele>-8.8</ele><time>2022-06-19T06:51:36.000Z</time></trkpt><trkpt lon="5.877146" lat="51.266365"><ele>-8.8</ele><time>2022-06-19T06:51:37.000Z</time></trkpt><trkpt lon="5.877276" lat="51.266384"><ele>-8.6</ele><time>2022-06-19T06:51:38.000Z</time></trkpt><trkpt lon="5.877402" lat="51.266399"><ele>-8.8</ele><time>2022-06-19T06:51:39.000Z</time></trkpt><trkpt lon="5.877532" lat="51.266418"><ele>-8.8</ele><time>2022-06-19T06:51:40.000Z</time></trkpt><trkpt lon="5.877647" lat="51.266445"><ele>-8.8</ele><time>2022-06-19T06:51:41.000Z</time></trkpt><trkpt lon="5.877757" lat="51.266471"><ele>-8.8</ele><time>2022-06-19T06:51:42.000Z</time></trkpt><trkpt lon="5.877852" lat="51.266497"><ele>-8.8</ele><time>2022-06-19T06:51:43.000Z</time></trkpt><trkpt lon="5.877933" lat="51.266522"><ele>-8.8</ele><time>2022-06-19T06:51:44.000Z</time></trkpt><trkpt lon="5.87801" lat="51.266554"><ele>-8.6</ele><time>2022-06-19T06:51:45.000Z</time></trkpt><trkpt lon="5.878082" lat="51.266586"><ele>-8.6</ele><time>2022-06-19T06:51:46.000Z</time></trkpt><trkpt lon="5.878157" lat="51.266604"><ele>-8.6</ele><time>2022-06-19T06:51:47.000Z</time></trkpt><trkpt lon="5.878243" lat="51.266621"><ele>-8.6</ele><time>2022-06-19T06:51:48.000Z</time></trkpt><trkpt lon="5.878359" lat="51.266647"><ele>-8.6</ele><time>2022-06-19T06:51:49.000Z</time></trkpt><trkpt lon="5.878461" lat="51.266673"><ele>-8.6</ele><time>2022-06-19T06:51:50.000Z</time></trkpt><trkpt lon="5.878572" lat="51.266696"><ele>-8.8</ele><time>2022-06-19T06:51:51.000Z</time></trkpt><trkpt lon="5.878683" lat="51.266727"><ele>-8.8</ele><time>2022-06-19T06:51:52.000Z</time></trkpt><trkpt lon="5.878792" lat="51.266757"><ele>-8.8</ele><time>2022-06-19T06:51:53.000Z</time></trkpt><trkpt lon="5.878902" lat="51.266788"><ele>-8.8</ele><time>2022-06-19T06:51:54.000Z</time></trkpt><trkpt lon="5.879012" lat="51.266818"><ele>-8.8</ele><time>2022-06-19T06:51:55.000Z</time></trkpt><trkpt lon="5.879121" lat="51.266848"><ele>-8.8</ele><time>2022-06-19T06:51:56.000Z</time></trkpt><trkpt lon="5.879237" lat="51.266879"><ele>-9</ele><time>2022-06-19T06:51:57.000Z</time></trkpt><trkpt lon="5.879346" lat="51.26691"><ele>-9</ele><time>2022-06-19T06:51:58.000Z</time></trkpt><trkpt lon="5.879454" lat="51.26694"><ele>-9</ele><time>2022-06-19T06:51:59.000Z</time></trkpt><trkpt lon="5.879558" lat="51.26697"><ele>-9.2</ele><time>2022-06-19T06:52:00.000Z</time></trkpt><trkpt lon="5.879665" lat="51.267005"><ele>-9.2</ele><time>2022-06-19T06:52:01.000Z</time></trkpt><trkpt lon="5.879773" lat="51.267035"><ele>-9.2</ele><time>2022-06-19T06:52:02.000Z</time></trkpt><trkpt lon="5.879884" lat="51.267066"><ele>-9.2</ele><time>2022-06-19T06:52:03.000Z</time></trkpt><trkpt lon="5.879991" lat="51.267093"><ele>-9</ele><time>2022-06-19T06:52:04.000Z</time></trkpt><trkpt lon="5.880099" lat="51.267127"><ele>-9</ele><time>2022-06-19T06:52:05.000Z</time></trkpt><trkpt lon="5.880208" lat="51.267158"><ele>-9.2</ele><time>2022-06-19T06:52:06.000Z</time></trkpt><trkpt lon="5.880314" lat="51.267184"><ele>-9.2</ele><time>2022-06-19T06:52:07.000Z</time></trkpt><trkpt lon="5.880423" lat="51.267218"><ele>-9.2</ele><time>2022-06-19T06:52:08.000Z</time></trkpt><trkpt lon="5.880527" lat="51.267248"><ele>-9.2</ele><time>2022-06-19T06:52:09.000Z</time></trkpt><trkpt lon="5.880633" lat="51.267279"><ele>-9.2</ele><time>2022-06-19T06:52:10.000Z</time></trkpt><trkpt lon="5.880739" lat="51.267313"><ele>-9.2</ele><time>2022-06-19T06:52:11.000Z</time></trkpt><trkpt lon="5.88085" lat="51.267344"><ele>-9.2</ele><time>2022-06-19T06:52:12.000Z</time></trkpt><trkpt lon="5.880954" lat="51.267378"><ele>-9.4</ele><time>2022-06-19T06:52:13.000Z</time></trkpt><trkpt lon="5.881067" lat="51.26741"><ele>-9.4</ele><time>2022-06-19T06:52:14.000Z</time></trkpt><trkpt lon="5.881177" lat="51.267447"><ele>-9.4</ele><time>2022-06-19T06:52:15.000Z</time></trkpt><trkpt lon="5.881286" lat="51.267486"><ele>-9.4</ele><time>2022-06-19T06:52:16.000Z</time></trkpt><trkpt lon="5.881395" lat="51.267524"><ele>-9.4</ele><time>2022-06-19T06:52:17.000Z</time></trkpt><trkpt lon="5.881501" lat="51.267562"><ele>-9.4</ele><time>2022-06-19T06:52:18.000Z</time></trkpt><trkpt lon="5.881606" lat="51.267596"><ele>-9.4</ele><time>2022-06-19T06:52:19.000Z</time></trkpt><trkpt lon="5.881704" lat="51.267631"><ele>-9.4</ele><time>2022-06-19T06:52:20.000Z</time></trkpt><trkpt lon="5.881802" lat="51.267665"><ele>-9.4</ele><time>2022-06-19T06:52:21.000Z</time></trkpt><trkpt lon="5.881909" lat="51.267699"><ele>-9.4</ele><time>2022-06-19T06:52:22.000Z</time></trkpt><trkpt lon="5.882017" lat="51.267733"><ele>-9.4</ele><time>2022-06-19T06:52:23.000Z</time></trkpt><trkpt lon="5.882127" lat="51.267768"><ele>-9.4</ele><time>2022-06-19T06:52:24.000Z</time></trkpt><trkpt lon="5.882237" lat="51.267802"><ele>-9.2</ele><time>2022-06-19T06:52:25.000Z</time></trkpt><trkpt lon="5.882347" lat="51.267833"><ele>-9.4</ele><time>2022-06-19T06:52:26.000Z</time></trkpt><trkpt lon="5.882452" lat="51.26787"><ele>-9.2</ele><time>2022-06-19T06:52:27.000Z</time></trkpt><trkpt lon="5.882559" lat="51.267905"><ele>-9.2</ele><time>2022-06-19T06:52:28.000Z</time></trkpt><trkpt lon="5.882663" lat="51.267935"><ele>-9.2</ele><time>2022-06-19T06:52:29.000Z</time></trkpt><trkpt lon="5.882736" lat="51.26796"><ele>-9.2</ele><time>2022-06-19T06:52:30.000Z</time></trkpt><trkpt lon="5.882871" lat="51.268"><ele>-9.2</ele><time>2022-06-19T06:52:31.000Z</time></trkpt><trkpt lon="5.882973" lat="51.268039"><ele>-9.2</ele><time>2022-06-19T06:52:32.000Z</time></trkpt><trkpt lon="5.88307" lat="51.268072"><ele>-9.2</ele><time>2022-06-19T06:52:33.000Z</time></trkpt><trkpt lon="5.883173" lat="51.268111"><ele>-9</ele><time>2022-06-19T06:52:34.000Z</time></trkpt><trkpt lon="5.883271" lat="51.268157"><ele>-9</ele><time>2022-06-19T06:52:35.000Z</time></trkpt><trkpt lon="5.883362" lat="51.268202"><ele>-8.8</ele><time>2022-06-19T06:52:36.000Z</time></trkpt><trkpt lon="5.883445" lat="51.268249"><ele>-8.8</ele><time>2022-06-19T06:52:37.000Z</time></trkpt><trkpt lon="5.883523" lat="51.268303"><ele>-8.8</ele><time>2022-06-19T06:52:38.000Z</time></trkpt><trkpt lon="5.883601" lat="51.268358"><ele>-8.8</ele><time>2022-06-19T06:52:39.000Z</time></trkpt><trkpt lon="5.883672" lat="51.26842"><ele>-9</ele><time>2022-06-19T06:52:40.000Z</time></trkpt><trkpt lon="5.883728" lat="51.268472"><ele>-9</ele><time>2022-06-19T06:52:41.000Z</time></trkpt><trkpt lon="5.883795" lat="51.268534"><ele>-9</ele><time>2022-06-19T06:52:42.000Z</time></trkpt><trkpt lon="5.883855" lat="51.268591"><ele>-9</ele><time>2022-06-19T06:52:43.000Z</time></trkpt><trkpt lon="5.883919" lat="51.268653"><ele>-8.8</ele><time>2022-06-19T06:52:44.000Z</time></trkpt><trkpt lon="5.883976" lat="51.268712"><ele>-8.8</ele><time>2022-06-19T06:52:45.000Z</time></trkpt><trkpt lon="5.884036" lat="51.268774"><ele>-8.8</ele><time>2022-06-19T06:52:46.000Z</time></trkpt><trkpt lon="5.884095" lat="51.268839"><ele>-8.8</ele><time>2022-06-19T06:52:47.000Z</time></trkpt><trkpt lon="5.884155" lat="51.268904"><ele>-8.8</ele><time>2022-06-19T06:52:48.000Z</time></trkpt><trkpt lon="5.884213" lat="51.268963"><ele>-8.8</ele><time>2022-06-19T06:52:49.000Z</time></trkpt><trkpt lon="5.884275" lat="51.269023"><ele>-8.8</ele><time>2022-06-19T06:52:50.000Z</time></trkpt><trkpt lon="5.884334" lat="51.269083"><ele>-8.6</ele><time>2022-06-19T06:52:51.000Z</time></trkpt><trkpt lon="5.884392" lat="51.269141"><ele>-8.6</ele><time>2022-06-19T06:52:52.000Z</time></trkpt><trkpt lon="5.884446" lat="51.269197"><ele>-8.6</ele><time>2022-06-19T06:52:53.000Z</time></trkpt><trkpt lon="5.884505" lat="51.269251"><ele>-8.4</ele><time>2022-06-19T06:52:54.000Z</time></trkpt><trkpt lon="5.884561" lat="51.2693"><ele>-8.4</ele><time>2022-06-19T06:52:55.000Z</time></trkpt><trkpt lon="5.884623" lat="51.269347"><ele>-8.4</ele><time>2022-06-19T06:52:56.000Z</time></trkpt><trkpt lon="5.884687" lat="51.269397"><ele>-8.2</ele><time>2022-06-19T06:52:57.000Z</time></trkpt><trkpt lon="5.884748" lat="51.269446"><ele>-8.2</ele><time>2022-06-19T06:52:58.000Z</time></trkpt><trkpt lon="5.884815" lat="51.269489"><ele>-8.2</ele><time>2022-06-19T06:52:59.000Z</time></trkpt><trkpt lon="5.884885" lat="51.26953"><ele>-8.2</ele><time>2022-06-19T06:53:00.000Z</time></trkpt><trkpt lon="5.884956" lat="51.269568"><ele>-8</ele><time>2022-06-19T06:53:01.000Z</time></trkpt><trkpt lon="5.885029" lat="51.269601"><ele>-8</ele><time>2022-06-19T06:53:02.000Z</time></trkpt><trkpt lon="5.885112" lat="51.269637"><ele>-8</ele><time>2022-06-19T06:53:03.000Z</time></trkpt><trkpt lon="5.885195" lat="51.269672"><ele>-8</ele><time>2022-06-19T06:53:04.000Z</time></trkpt><trkpt lon="5.885289" lat="51.269708"><ele>-8</ele><time>2022-06-19T06:53:05.000Z</time></trkpt><trkpt lon="5.885379" lat="51.269747"><ele>-7.8</ele><time>2022-06-19T06:53:06.000Z</time></trkpt><trkpt lon="5.885492" lat="51.269786"><ele>-7.8</ele><time>2022-06-19T06:53:07.000Z</time></trkpt><trkpt lon="5.885589" lat="51.269824"><ele>-7.8</ele><time>2022-06-19T06:53:08.000Z</time></trkpt><trkpt lon="5.885692" lat="51.269861"><ele>-7.8</ele><time>2022-06-19T06:53:09.000Z</time></trkpt><trkpt lon="5.885808" lat="51.2699"><ele>-7.8</ele><time>2022-06-19T06:53:10.000Z</time></trkpt><trkpt lon="5.885905" lat="51.26994"><ele>-8</ele><time>2022-06-19T06:53:11.000Z</time></trkpt><trkpt lon="5.886014" lat="51.26998"><ele>-8</ele><time>2022-06-19T06:53:12.000Z</time></trkpt><trkpt lon="5.886111" lat="51.270019"><ele>-7.8</ele><time>2022-06-19T06:53:13.000Z</time></trkpt><trkpt lon="5.886206" lat="51.270056"><ele>-7.8</ele><time>2022-06-19T06:53:14.000Z</time></trkpt><trkpt lon="5.886304" lat="51.270095"><ele>-7.8</ele><time>2022-06-19T06:53:15.000Z</time></trkpt><trkpt lon="5.886408" lat="51.270133"><ele>-7.8</ele><time>2022-06-19T06:53:16.000Z</time></trkpt><trkpt lon="5.88653" lat="51.270171"><ele>-7.8</ele><time>2022-06-19T06:53:17.000Z</time></trkpt><trkpt lon="5.88663" lat="51.270213"><ele>-8</ele><time>2022-06-19T06:53:18.000Z</time></trkpt><trkpt lon="5.886731" lat="51.270251"><ele>-8</ele><time>2022-06-19T06:53:19.000Z</time></trkpt><trkpt lon="5.886834" lat="51.270293"><ele>-8</ele><time>2022-06-19T06:53:20.000Z</time></trkpt><trkpt lon="5.886936" lat="51.270331"><ele>-8</ele><time>2022-06-19T06:53:21.000Z</time></trkpt><trkpt lon="5.887028" lat="51.270362"><ele>-8</ele><time>2022-06-19T06:53:22.000Z</time></trkpt><trkpt lon="5.887117" lat="51.27039"><ele>-8.2</ele><time>2022-06-19T06:53:23.000Z</time></trkpt><trkpt lon="5.887225" lat="51.270423"><ele>-8</ele><time>2022-06-19T06:53:24.000Z</time></trkpt><trkpt lon="5.88733" lat="51.270453"><ele>-8</ele><time>2022-06-19T06:53:25.000Z</time></trkpt><trkpt lon="5.887431" lat="51.27048"><ele>-8.2</ele><time>2022-06-19T06:53:26.000Z</time></trkpt><trkpt lon="5.887541" lat="51.270518"><ele>-8.2</ele><time>2022-06-19T06:53:27.000Z</time></trkpt><trkpt lon="5.887651" lat="51.270556"><ele>-8.2</ele><time>2022-06-19T06:53:28.000Z</time></trkpt><trkpt lon="5.887751" lat="51.27059"><ele>-8.2</ele><time>2022-06-19T06:53:29.000Z</time></trkpt><trkpt lon="5.88786" lat="51.270628"><ele>-8.2</ele><time>2022-06-19T06:53:30.000Z</time></trkpt><trkpt lon="5.887976" lat="51.27066"><ele>-8.2</ele><time>2022-06-19T06:53:31.000Z</time></trkpt><trkpt lon="5.888077" lat="51.270697"><ele>-8.2</ele><time>2022-06-19T06:53:32.000Z</time></trkpt><trkpt lon="5.888167" lat="51.270727"><ele>-8.2</ele><time>2022-06-19T06:53:33.000Z</time></trkpt><trkpt lon="5.888264" lat="51.270755"><ele>-8.4</ele><time>2022-06-19T06:53:34.000Z</time></trkpt><trkpt lon="5.888361" lat="51.270778"><ele>-8.4</ele><time>2022-06-19T06:53:35.000Z</time></trkpt><trkpt lon="5.888456" lat="51.270801"><ele>-8.4</ele><time>2022-06-19T06:53:36.000Z</time></trkpt><trkpt lon="5.888557" lat="51.270828"><ele>-8.4</ele><time>2022-06-19T06:53:37.000Z</time></trkpt><trkpt lon="5.888658" lat="51.270861"><ele>-8.4</ele><time>2022-06-19T06:53:38.000Z</time></trkpt><trkpt lon="5.888755" lat="51.270895"><ele>-8.6</ele><time>2022-06-19T06:53:39.000Z</time></trkpt><trkpt lon="5.88885" lat="51.27093"><ele>-8.6</ele><time>2022-06-19T06:53:40.000Z</time></trkpt><trkpt lon="5.888946" lat="51.270965"><ele>-8.6</ele><time>2022-06-19T06:53:41.000Z</time></trkpt><trkpt lon="5.889043" lat="51.271003"><ele>-8.8</ele><time>2022-06-19T06:53:42.000Z</time></trkpt><trkpt lon="5.889141" lat="51.271036"><ele>-8.8</ele><time>2022-06-19T06:53:43.000Z</time></trkpt><trkpt lon="5.889243" lat="51.271072"><ele>-8.8</ele><time>2022-06-19T06:53:44.000Z</time></trkpt><trkpt lon="5.889334" lat="51.271106"><ele>-8.8</ele><time>2022-06-19T06:53:45.000Z</time></trkpt><trkpt lon="5.889434" lat="51.27114"><ele>-8.8</ele><time>2022-06-19T06:53:46.000Z</time></trkpt><trkpt lon="5.889534" lat="51.271174"><ele>-8.8</ele><time>2022-06-19T06:53:47.000Z</time></trkpt><trkpt lon="5.889634" lat="51.271209"><ele>-8.8</ele><time>2022-06-19T06:53:48.000Z</time></trkpt><trkpt lon="5.889734" lat="51.271239"><ele>-8.8</ele><time>2022-06-19T06:53:49.000Z</time></trkpt><trkpt lon="5.889831" lat="51.271269"><ele>-8.8</ele><time>2022-06-19T06:53:50.000Z</time></trkpt><trkpt lon="5.889929" lat="51.2713"><ele>-8.8</ele><time>2022-06-19T06:53:51.000Z</time></trkpt><trkpt lon="5.890026" lat="51.271331"><ele>-8.6</ele><time>2022-06-19T06:53:52.000Z</time></trkpt><trkpt lon="5.890131" lat="51.271367"><ele>-8.6</ele><time>2022-06-19T06:53:53.000Z</time></trkpt><trkpt lon="5.890241" lat="51.271407"><ele>-8.6</ele><time>2022-06-19T06:53:54.000Z</time></trkpt><trkpt lon="5.89034" lat="51.271434"><ele>-8.6</ele><time>2022-06-19T06:53:55.000Z</time></trkpt><trkpt lon="5.890441" lat="51.271461"><ele>-8.4</ele><time>2022-06-19T06:53:56.000Z</time></trkpt><trkpt lon="5.890553" lat="51.271498"><ele>-8.4</ele><time>2022-06-19T06:53:57.000Z</time></trkpt><trkpt lon="5.890671" lat="51.271533"><ele>-8.4</ele><time>2022-06-19T06:53:58.000Z</time></trkpt><trkpt lon="5.890784" lat="51.271568"><ele>-8.4</ele><time>2022-06-19T06:53:59.000Z</time></trkpt><trkpt lon="5.890889" lat="51.271598"><ele>-8.4</ele><time>2022-06-19T06:54:00.000Z</time></trkpt><trkpt lon="5.891006" lat="51.271632"><ele>-8.4</ele><time>2022-06-19T06:54:01.000Z</time></trkpt><trkpt lon="5.891117" lat="51.271659"><ele>-8.4</ele><time>2022-06-19T06:54:02.000Z</time></trkpt><trkpt lon="5.891213" lat="51.271687"><ele>-8.4</ele><time>2022-06-19T06:54:03.000Z</time></trkpt><trkpt lon="5.891325" lat="51.27172"><ele>-8.4</ele><time>2022-06-19T06:54:04.000Z</time></trkpt><trkpt lon="5.89144" lat="51.271754"><ele>-8.4</ele><time>2022-06-19T06:54:05.000Z</time></trkpt><trkpt lon="5.891551" lat="51.271784"><ele>-8.4</ele><time>2022-06-19T06:54:06.000Z</time></trkpt><trkpt lon="5.89166" lat="51.271815"><ele>-8.4</ele><time>2022-06-19T06:54:07.000Z</time></trkpt><trkpt lon="5.89177" lat="51.271842"><ele>-8.4</ele><time>2022-06-19T06:54:08.000Z</time></trkpt><trkpt lon="5.891876" lat="51.271872"><ele>-8.4</ele><time>2022-06-19T06:54:09.000Z</time></trkpt><trkpt lon="5.891992" lat="51.271907"><ele>-8.4</ele><time>2022-06-19T06:54:10.000Z</time></trkpt><trkpt lon="5.892099" lat="51.271938"><ele>-8.6</ele><time>2022-06-19T06:54:11.000Z</time></trkpt><trkpt lon="5.892209" lat="51.271974"><ele>-8.6</ele><time>2022-06-19T06:54:12.000Z</time></trkpt><trkpt lon="5.89231" lat="51.272005"><ele>-8.6</ele><time>2022-06-19T06:54:13.000Z</time></trkpt><trkpt lon="5.892417" lat="51.272044"><ele>-8.6</ele><time>2022-06-19T06:54:14.000Z</time></trkpt><trkpt lon="5.892521" lat="51.272075"><ele>-8.6</ele><time>2022-06-19T06:54:15.000Z</time></trkpt><trkpt lon="5.892629" lat="51.272109"><ele>-8.8</ele><time>2022-06-19T06:54:16.000Z</time></trkpt><trkpt lon="5.892736" lat="51.272139"><ele>-8.8</ele><time>2022-06-19T06:54:17.000Z</time></trkpt><trkpt lon="5.892852" lat="51.272181"><ele>-8.8</ele><time>2022-06-19T06:54:18.000Z</time></trkpt><trkpt lon="5.892962" lat="51.272219"><ele>-8.8</ele><time>2022-06-19T06:54:19.000Z</time></trkpt><trkpt lon="5.893067" lat="51.272253"><ele>-9</ele><time>2022-06-19T06:54:20.000Z</time></trkpt><trkpt lon="5.893171" lat="51.272281"><ele>-9.2</ele><time>2022-06-19T06:54:21.000Z</time></trkpt><trkpt lon="5.89328" lat="51.272304"><ele>-9.2</ele><time>2022-06-19T06:54:22.000Z</time></trkpt><trkpt lon="5.893389" lat="51.27233"><ele>-9.2</ele><time>2022-06-19T06:54:23.000Z</time></trkpt><trkpt lon="5.893493" lat="51.272353"><ele>-9.2</ele><time>2022-06-19T06:54:24.000Z</time></trkpt><trkpt lon="5.893598" lat="51.272373"><ele>-9.2</ele><time>2022-06-19T06:54:25.000Z</time></trkpt><trkpt lon="5.893699" lat="51.272388"><ele>-9</ele><time>2022-06-19T06:54:26.000Z</time></trkpt><trkpt lon="5.893799" lat="51.272403"><ele>-9</ele><time>2022-06-19T06:54:27.000Z</time></trkpt><trkpt lon="5.893897" lat="51.272426"><ele>-9</ele><time>2022-06-19T06:54:28.000Z</time></trkpt><trkpt lon="5.893989" lat="51.272445"><ele>-9</ele><time>2022-06-19T06:54:29.000Z</time></trkpt><trkpt lon="5.89407" lat="51.272457"><ele>-9</ele><time>2022-06-19T06:54:30.000Z</time></trkpt><trkpt lon="5.894195" lat="51.272472"><ele>-9</ele><time>2022-06-19T06:54:31.000Z</time></trkpt><trkpt lon="5.894294" lat="51.27248"><ele>-8.8</ele><time>2022-06-19T06:54:32.000Z</time></trkpt><trkpt lon="5.894397" lat="51.27249"><ele>-8.8</ele><time>2022-06-19T06:54:33.000Z</time></trkpt><trkpt lon="5.894506" lat="51.272503"><ele>-8.8</ele><time>2022-06-19T06:54:34.000Z</time></trkpt><trkpt lon="5.894607" lat="51.272518"><ele>-8.8</ele><time>2022-06-19T06:54:35.000Z</time></trkpt><trkpt lon="5.894699" lat="51.272529"><ele>-8.6</ele><time>2022-06-19T06:54:36.000Z</time></trkpt><trkpt lon="5.894796" lat="51.272548"><ele>-8.6</ele><time>2022-06-19T06:54:37.000Z</time></trkpt><trkpt lon="5.89489" lat="51.272567"><ele>-8.8</ele><time>2022-06-19T06:54:38.000Z</time></trkpt><trkpt lon="5.89498" lat="51.272586"><ele>-8.8</ele><time>2022-06-19T06:54:39.000Z</time></trkpt><trkpt lon="5.89507" lat="51.272612"><ele>-8.8</ele><time>2022-06-19T06:54:40.000Z</time></trkpt><trkpt lon="5.895161" lat="51.272639"><ele>-8.8</ele><time>2022-06-19T06:54:41.000Z</time></trkpt><trkpt lon="5.895242" lat="51.272659"><ele>-8.8</ele><time>2022-06-19T06:54:42.000Z</time></trkpt><trkpt lon="5.895325" lat="51.272685"><ele>-8.8</ele><time>2022-06-19T06:54:43.000Z</time></trkpt><trkpt lon="5.895412" lat="51.272719"><ele>-8.8</ele><time>2022-06-19T06:54:44.000Z</time></trkpt><trkpt lon="5.895508" lat="51.272757"><ele>-8.8</ele><time>2022-06-19T06:54:45.000Z</time></trkpt><trkpt lon="5.895627" lat="51.272799"><ele>-8.8</ele><time>2022-06-19T06:54:46.000Z</time></trkpt><trkpt lon="5.895751" lat="51.272857"><ele>-8.8</ele><time>2022-06-19T06:54:47.000Z</time></trkpt><trkpt lon="5.895881" lat="51.272899"><ele>-8.8</ele><time>2022-06-19T06:54:48.000Z</time></trkpt><trkpt lon="5.896024" lat="51.27294"><ele>-9</ele><time>2022-06-19T06:54:49.000Z</time></trkpt><trkpt lon="5.896186" lat="51.272986"><ele>-9</ele><time>2022-06-19T06:54:50.000Z</time></trkpt><trkpt lon="5.896311" lat="51.273035"><ele>-8.8</ele><time>2022-06-19T06:54:51.000Z</time></trkpt><trkpt lon="5.896425" lat="51.273085"><ele>-8.8</ele><time>2022-06-19T06:54:52.000Z</time></trkpt><trkpt lon="5.896533" lat="51.273131"><ele>-8.8</ele><time>2022-06-19T06:54:53.000Z</time></trkpt><trkpt lon="5.896652" lat="51.273184"><ele>-8.6</ele><time>2022-06-19T06:54:54.000Z</time></trkpt><trkpt lon="5.896766" lat="51.273222"><ele>-8.6</ele><time>2022-06-19T06:54:55.000Z</time></trkpt><trkpt lon="5.896874" lat="51.273257"><ele>-8.6</ele><time>2022-06-19T06:54:56.000Z</time></trkpt><trkpt lon="5.896974" lat="51.273292"><ele>-8.6</ele><time>2022-06-19T06:54:57.000Z</time></trkpt><trkpt lon="5.897094" lat="51.273337"><ele>-8.6</ele><time>2022-06-19T06:54:58.000Z</time></trkpt><trkpt lon="5.897209" lat="51.273391"><ele>-8.6</ele><time>2022-06-19T06:54:59.000Z</time></trkpt><trkpt lon="5.897319" lat="51.273433"><ele>-8.6</ele><time>2022-06-19T06:55:00.000Z</time></trkpt><trkpt lon="5.897432" lat="51.273482"><ele>-8.6</ele><time>2022-06-19T06:55:01.000Z</time></trkpt><trkpt lon="5.897541" lat="51.273528"><ele>-8.6</ele><time>2022-06-19T06:55:02.000Z</time></trkpt><trkpt lon="5.897642" lat="51.273568"><ele>-8.6</ele><time>2022-06-19T06:55:03.000Z</time></trkpt><trkpt lon="5.89775" lat="51.273615"><ele>-8.6</ele><time>2022-06-19T06:55:04.000Z</time></trkpt><trkpt lon="5.89785" lat="51.273654"><ele>-8.6</ele><time>2022-06-19T06:55:05.000Z</time></trkpt><trkpt lon="5.897953" lat="51.273695"><ele>-8.6</ele><time>2022-06-19T06:55:06.000Z</time></trkpt><trkpt lon="5.898074" lat="51.273742"><ele>-8.6</ele><time>2022-06-19T06:55:07.000Z</time></trkpt><trkpt lon="5.898187" lat="51.273787"><ele>-8.8</ele><time>2022-06-19T06:55:08.000Z</time></trkpt><trkpt lon="5.898288" lat="51.273821"><ele>-8.8</ele><time>2022-06-19T06:55:09.000Z</time></trkpt><trkpt lon="5.898403" lat="51.273859"><ele>-8.8</ele><time>2022-06-19T06:55:10.000Z</time></trkpt><trkpt lon="5.898497" lat="51.273895"><ele>-8.6</ele><time>2022-06-19T06:55:11.000Z</time></trkpt><trkpt lon="5.898617" lat="51.27394"><ele>-8.6</ele><time>2022-06-19T06:55:12.000Z</time></trkpt><trkpt lon="5.898729" lat="51.273988"><ele>-8.8</ele><time>2022-06-19T06:55:13.000Z</time></trkpt><trkpt lon="5.898833" lat="51.27403"><ele>-8.8</ele><time>2022-06-19T06:55:14.000Z</time></trkpt><trkpt lon="5.898942" lat="51.274073"><ele>-8.8</ele><time>2022-06-19T06:55:15.000Z</time></trkpt><trkpt lon="5.899044" lat="51.274114"><ele>-8.8</ele><time>2022-06-19T06:55:16.000Z</time></trkpt><trkpt lon="5.899147" lat="51.274157"><ele>-8.8</ele><time>2022-06-19T06:55:17.000Z</time></trkpt><trkpt lon="5.899248" lat="51.274198"><ele>-9</ele><time>2022-06-19T06:55:18.000Z</time></trkpt><trkpt lon="5.899351" lat="51.27424"><ele>-9</ele><time>2022-06-19T06:55:19.000Z</time></trkpt><trkpt lon="5.899459" lat="51.274283"><ele>-9</ele><time>2022-06-19T06:55:20.000Z</time></trkpt><trkpt lon="5.899563" lat="51.27432"><ele>-9</ele><time>2022-06-19T06:55:21.000Z</time></trkpt><trkpt lon="5.899671" lat="51.274359"><ele>-9</ele><time>2022-06-19T06:55:22.000Z</time></trkpt><trkpt lon="5.899777" lat="51.274393"><ele>-9</ele><time>2022-06-19T06:55:23.000Z</time></trkpt><trkpt lon="5.899886" lat="51.274428"><ele>-8.8</ele><time>2022-06-19T06:55:24.000Z</time></trkpt><trkpt lon="5.899994" lat="51.274458"><ele>-8.8</ele><time>2022-06-19T06:55:25.000Z</time></trkpt><trkpt lon="5.900111" lat="51.274485"><ele>-8.8</ele><time>2022-06-19T06:55:26.000Z</time></trkpt><trkpt lon="5.900223" lat="51.274508"><ele>-9</ele><time>2022-06-19T06:55:27.000Z</time></trkpt><trkpt lon="5.900338" lat="51.274527"><ele>-9</ele><time>2022-06-19T06:55:28.000Z</time></trkpt><trkpt lon="5.900457" lat="51.274543"><ele>-9</ele><time>2022-06-19T06:55:29.000Z</time></trkpt><trkpt lon="5.900575" lat="51.274562"><ele>-9</ele><time>2022-06-19T06:55:30.000Z</time></trkpt><trkpt lon="5.900695" lat="51.274581"><ele>-9</ele><time>2022-06-19T06:55:31.000Z</time></trkpt><trkpt lon="5.900808" lat="51.274597"><ele>-9</ele><time>2022-06-19T06:55:32.000Z</time></trkpt><trkpt lon="5.900917" lat="51.274611"><ele>-9</ele><time>2022-06-19T06:55:33.000Z</time></trkpt><trkpt lon="5.901025" lat="51.274626"><ele>-9</ele><time>2022-06-19T06:55:34.000Z</time></trkpt><trkpt lon="5.901146" lat="51.274642"><ele>-9</ele><time>2022-06-19T06:55:35.000Z</time></trkpt><trkpt lon="5.901267" lat="51.274661"><ele>-9</ele><time>2022-06-19T06:55:36.000Z</time></trkpt><trkpt lon="5.901382" lat="51.274676"><ele>-9</ele><time>2022-06-19T06:55:37.000Z</time></trkpt><trkpt lon="5.901495" lat="51.274692"><ele>-9</ele><time>2022-06-19T06:55:38.000Z</time></trkpt><trkpt lon="5.901606" lat="51.27471"><ele>-9.2</ele><time>2022-06-19T06:55:39.000Z</time></trkpt><trkpt lon="5.90172" lat="51.27473"><ele>-9.2</ele><time>2022-06-19T06:55:40.000Z</time></trkpt><trkpt lon="5.901811" lat="51.274749"><ele>-9.2</ele><time>2022-06-19T06:55:41.000Z</time></trkpt><trkpt lon="5.901936" lat="51.274768"><ele>-9.2</ele><time>2022-06-19T06:55:42.000Z</time></trkpt><trkpt lon="5.902046" lat="51.274786"><ele>-9.4</ele><time>2022-06-19T06:55:43.000Z</time></trkpt><trkpt lon="5.902158" lat="51.274802"><ele>-9.2</ele><time>2022-06-19T06:55:44.000Z</time></trkpt><trkpt lon="5.902273" lat="51.274817"><ele>-9.4</ele><time>2022-06-19T06:55:45.000Z</time></trkpt><trkpt lon="5.902392" lat="51.274837"><ele>-9.2</ele><time>2022-06-19T06:55:46.000Z</time></trkpt><trkpt lon="5.902506" lat="51.274856"><ele>-9.2</ele><time>2022-06-19T06:55:47.000Z</time></trkpt><trkpt lon="5.90262" lat="51.274871"><ele>-9.4</ele><time>2022-06-19T06:55:48.000Z</time></trkpt><trkpt lon="5.902737" lat="51.274887"><ele>-9.4</ele><time>2022-06-19T06:55:49.000Z</time></trkpt><trkpt lon="5.902857" lat="51.274902"><ele>-9.2</ele><time>2022-06-19T06:55:50.000Z</time></trkpt><trkpt lon="5.902967" lat="51.274916"><ele>-9.2</ele><time>2022-06-19T06:55:51.000Z</time></trkpt><trkpt lon="5.903083" lat="51.274935"><ele>-9.2</ele><time>2022-06-19T06:55:52.000Z</time></trkpt><trkpt lon="5.903197" lat="51.274947"><ele>-9.4</ele><time>2022-06-19T06:55:53.000Z</time></trkpt><trkpt lon="5.903318" lat="51.274963"><ele>-9.4</ele><time>2022-06-19T06:55:54.000Z</time></trkpt><trkpt lon="5.903434" lat="51.274978"><ele>-9.6</ele><time>2022-06-19T06:55:55.000Z</time></trkpt><trkpt lon="5.903549" lat="51.27499"><ele>-9.6</ele><time>2022-06-19T06:55:56.000Z</time></trkpt><trkpt lon="5.903665" lat="51.275001"><ele>-9.6</ele><time>2022-06-19T06:55:57.000Z</time></trkpt><trkpt lon="5.903781" lat="51.275002"><ele>-9.6</ele><time>2022-06-19T06:55:58.000Z</time></trkpt><trkpt lon="5.903898" lat="51.274998"><ele>-9.8</ele><time>2022-06-19T06:55:59.000Z</time></trkpt><trkpt lon="5.904015" lat="51.27499"><ele>-10</ele><time>2022-06-19T06:56:00.000Z</time></trkpt><trkpt lon="5.904131" lat="51.274968"><ele>-10</ele><time>2022-06-19T06:56:01.000Z</time></trkpt><trkpt lon="5.904243" lat="51.274941"><ele>-10.2</ele><time>2022-06-19T06:56:02.000Z</time></trkpt><trkpt lon="5.904351" lat="51.274911"><ele>-10.2</ele><time>2022-06-19T06:56:03.000Z</time></trkpt><trkpt lon="5.904458" lat="51.274884"><ele>-10.2</ele><time>2022-06-19T06:56:04.000Z</time></trkpt><trkpt lon="5.904565" lat="51.274857"><ele>-10.2</ele><time>2022-06-19T06:56:05.000Z</time></trkpt><trkpt lon="5.904677" lat="51.274842"><ele>-10.2</ele><time>2022-06-19T06:56:06.000Z</time></trkpt><trkpt lon="5.904792" lat="51.27483"><ele>-10.4</ele><time>2022-06-19T06:56:07.000Z</time></trkpt><trkpt lon="5.904911" lat="51.274834"><ele>-10.4</ele><time>2022-06-19T06:56:08.000Z</time></trkpt><trkpt lon="5.905018" lat="51.274847"><ele>-10.4</ele><time>2022-06-19T06:56:09.000Z</time></trkpt><trkpt lon="5.905146" lat="51.274871"><ele>-10.4</ele><time>2022-06-19T06:56:10.000Z</time></trkpt><trkpt lon="5.905261" lat="51.274893"><ele>-10.6</ele><time>2022-06-19T06:56:11.000Z</time></trkpt><trkpt lon="5.905386" lat="51.27491"><ele>-10.6</ele><time>2022-06-19T06:56:12.000Z</time></trkpt><trkpt lon="5.905505" lat="51.274928"><ele>-10.6</ele><time>2022-06-19T06:56:13.000Z</time></trkpt><trkpt lon="5.905621" lat="51.274948"><ele>-10.8</ele><time>2022-06-19T06:56:14.000Z</time></trkpt><trkpt lon="5.905736" lat="51.274966"><ele>-10.8</ele><time>2022-06-19T06:56:15.000Z</time></trkpt><trkpt lon="5.905852" lat="51.274986"><ele>-10.8</ele><time>2022-06-19T06:56:16.000Z</time></trkpt><trkpt lon="5.905962" lat="51.275001"><ele>-10.8</ele><time>2022-06-19T06:56:17.000Z</time></trkpt><trkpt lon="5.906073" lat="51.275016"><ele>-10.8</ele><time>2022-06-19T06:56:18.000Z</time></trkpt><trkpt lon="5.906184" lat="51.275032"><ele>-10.8</ele><time>2022-06-19T06:56:19.000Z</time></trkpt><trkpt lon="5.906294" lat="51.275051"><ele>-10.6</ele><time>2022-06-19T06:56:20.000Z</time></trkpt><trkpt lon="5.906403" lat="51.275069"><ele>-10.6</ele><time>2022-06-19T06:56:21.000Z</time></trkpt><trkpt lon="5.906516" lat="51.275085"><ele>-10.6</ele><time>2022-06-19T06:56:22.000Z</time></trkpt><trkpt lon="5.906628" lat="51.275104"><ele>-10.4</ele><time>2022-06-19T06:56:23.000Z</time></trkpt><trkpt lon="5.906741" lat="51.275119"><ele>-10.4</ele><time>2022-06-19T06:56:24.000Z</time></trkpt><trkpt lon="5.906851" lat="51.275138"><ele>-10.4</ele><time>2022-06-19T06:56:25.000Z</time></trkpt><trkpt lon="5.906969" lat="51.275158"><ele>-10.2</ele><time>2022-06-19T06:56:26.000Z</time></trkpt><trkpt lon="5.907083" lat="51.275173"><ele>-10.2</ele><time>2022-06-19T06:56:27.000Z</time></trkpt><trkpt lon="5.907195" lat="51.275192"><ele>-10</ele><time>2022-06-19T06:56:28.000Z</time></trkpt><trkpt lon="5.907311" lat="51.275214"><ele>-10</ele><time>2022-06-19T06:56:29.000Z</time></trkpt><trkpt lon="5.907417" lat="51.275239"><ele>-10</ele><time>2022-06-19T06:56:30.000Z</time></trkpt><trkpt lon="5.907533" lat="51.275275"><ele>-10</ele><time>2022-06-19T06:56:31.000Z</time></trkpt><trkpt lon="5.907636" lat="51.275313"><ele>-10</ele><time>2022-06-19T06:56:32.000Z</time></trkpt><trkpt lon="5.907729" lat="51.275354"><ele>-10</ele><time>2022-06-19T06:56:33.000Z</time></trkpt><trkpt lon="5.907829" lat="51.275397"><ele>-10</ele><time>2022-06-19T06:56:34.000Z</time></trkpt><trkpt lon="5.907922" lat="51.275439"><ele>-9.8</ele><time>2022-06-19T06:56:35.000Z</time></trkpt><trkpt lon="5.908016" lat="51.275485"><ele>-9.8</ele><time>2022-06-19T06:56:36.000Z</time></trkpt><trkpt lon="5.908109" lat="51.275527"><ele>-10</ele><time>2022-06-19T06:56:37.000Z</time></trkpt><trkpt lon="5.908198" lat="51.275568"><ele>-10</ele><time>2022-06-19T06:56:38.000Z</time></trkpt><trkpt lon="5.908279" lat="51.275606"><ele>-10</ele><time>2022-06-19T06:56:39.000Z</time></trkpt><trkpt lon="5.908383" lat="51.275645"><ele>-10</ele><time>2022-06-19T06:56:40.000Z</time></trkpt><trkpt lon="5.908479" lat="51.275682"><ele>-10</ele><time>2022-06-19T06:56:41.000Z</time></trkpt><trkpt lon="5.908582" lat="51.275714"><ele>-10</ele><time>2022-06-19T06:56:42.000Z</time></trkpt><trkpt lon="5.908689" lat="51.275737"><ele>-10</ele><time>2022-06-19T06:56:43.000Z</time></trkpt><trkpt lon="5.908804" lat="51.275756"><ele>-10</ele><time>2022-06-19T06:56:44.000Z</time></trkpt><trkpt lon="5.908914" lat="51.275771"><ele>-10</ele><time>2022-06-19T06:56:45.000Z</time></trkpt><trkpt lon="5.90903" lat="51.275783"><ele>-10</ele><time>2022-06-19T06:56:46.000Z</time></trkpt><trkpt lon="5.909151" lat="51.275798"><ele>-10</ele><time>2022-06-19T06:56:47.000Z</time></trkpt><trkpt lon="5.909269" lat="51.27581"><ele>-9.8</ele><time>2022-06-19T06:56:48.000Z</time></trkpt><trkpt lon="5.909386" lat="51.275821"><ele>-9.8</ele><time>2022-06-19T06:56:49.000Z</time></trkpt><trkpt lon="5.909504" lat="51.275833"><ele>-9.8</ele><time>2022-06-19T06:56:50.000Z</time></trkpt><trkpt lon="5.909624" lat="51.275848"><ele>-9.8</ele><time>2022-06-19T06:56:51.000Z</time></trkpt><trkpt lon="5.909738" lat="51.275859"><ele>-10</ele><time>2022-06-19T06:56:52.000Z</time></trkpt><trkpt lon="5.909853" lat="51.275871"><ele>-9.8</ele><time>2022-06-19T06:56:53.000Z</time></trkpt><trkpt lon="5.909974" lat="51.275882"><ele>-10</ele><time>2022-06-19T06:56:54.000Z</time></trkpt><trkpt lon="5.910088" lat="51.27589"><ele>-10</ele><time>2022-06-19T06:56:55.000Z</time></trkpt><trkpt lon="5.910203" lat="51.275901"><ele>-10</ele><time>2022-06-19T06:56:56.000Z</time></trkpt><trkpt lon="5.910319" lat="51.275909"><ele>-10</ele><time>2022-06-19T06:56:57.000Z</time></trkpt><trkpt lon="5.910437" lat="51.275917"><ele>-10</ele><time>2022-06-19T06:56:58.000Z</time></trkpt><trkpt lon="5.910551" lat="51.275928"><ele>-10.2</ele><time>2022-06-19T06:56:59.000Z</time></trkpt><trkpt lon="5.910664" lat="51.27594"><ele>-10.2</ele><time>2022-06-19T06:57:00.000Z</time></trkpt><trkpt lon="5.910776" lat="51.275951"><ele>-10.2</ele><time>2022-06-19T06:57:01.000Z</time></trkpt><trkpt lon="5.910885" lat="51.275966"><ele>-10.2</ele><time>2022-06-19T06:57:02.000Z</time></trkpt><trkpt lon="5.910991" lat="51.275988"><ele>-10.2</ele><time>2022-06-19T06:57:03.000Z</time></trkpt><trkpt lon="5.911103" lat="51.276004"><ele>-10.2</ele><time>2022-06-19T06:57:04.000Z</time></trkpt><trkpt lon="5.911207" lat="51.276023"><ele>-10.2</ele><time>2022-06-19T06:57:05.000Z</time></trkpt><trkpt lon="5.911312" lat="51.276042"><ele>-10.2</ele><time>2022-06-19T06:57:06.000Z</time></trkpt><trkpt lon="5.911415" lat="51.276058"><ele>-10.2</ele><time>2022-06-19T06:57:07.000Z</time></trkpt><trkpt lon="5.91152" lat="51.276081"><ele>-10.2</ele><time>2022-06-19T06:57:08.000Z</time></trkpt><trkpt lon="5.911617" lat="51.276099"><ele>-10.2</ele><time>2022-06-19T06:57:09.000Z</time></trkpt><trkpt lon="5.911725" lat="51.276118"><ele>-10.2</ele><time>2022-06-19T06:57:10.000Z</time></trkpt><trkpt lon="5.911831" lat="51.276138"><ele>-10.4</ele><time>2022-06-19T06:57:11.000Z</time></trkpt><trkpt lon="5.911933" lat="51.276153"><ele>-10.2</ele><time>2022-06-19T06:57:12.000Z</time></trkpt><trkpt lon="5.912031" lat="51.276172"><ele>-10.2</ele><time>2022-06-19T06:57:13.000Z</time></trkpt><trkpt lon="5.912122" lat="51.276187"><ele>-10.2</ele><time>2022-06-19T06:57:14.000Z</time></trkpt><trkpt lon="5.912221" lat="51.276203"><ele>-10.2</ele><time>2022-06-19T06:57:15.000Z</time></trkpt><trkpt lon="5.91231" lat="51.276222"><ele>-10.2</ele><time>2022-06-19T06:57:16.000Z</time></trkpt><trkpt lon="5.912397" lat="51.276233"><ele>-10.2</ele><time>2022-06-19T06:57:17.000Z</time></trkpt><trkpt lon="5.912476" lat="51.276245"><ele>-10.2</ele><time>2022-06-19T06:57:18.000Z</time></trkpt><trkpt lon="5.912548" lat="51.276256"><ele>-10.2</ele><time>2022-06-19T06:57:19.000Z</time></trkpt><trkpt lon="5.91261" lat="51.276264"><ele>-10.2</ele><time>2022-06-19T06:57:20.000Z</time></trkpt><trkpt lon="5.912662" lat="51.276272"><ele>-10.2</ele><time>2022-06-19T06:57:21.000Z</time></trkpt><trkpt lon="5.912712" lat="51.276283"><ele>-10.2</ele><time>2022-06-19T06:57:22.000Z</time></trkpt><trkpt lon="5.91276" lat="51.276291"><ele>-10.2</ele><time>2022-06-19T06:57:23.000Z</time></trkpt><trkpt lon="5.912811" lat="51.276287"><ele>-10.2</ele><time>2022-06-19T06:57:24.000Z</time></trkpt><trkpt lon="5.912853" lat="51.276272"><ele>-10.2</ele><time>2022-06-19T06:57:25.000Z</time></trkpt><trkpt lon="5.912884" lat="51.276246"><ele>-10.2</ele><time>2022-06-19T06:57:26.000Z</time></trkpt><trkpt lon="5.912916" lat="51.276201"><ele>-10.4</ele><time>2022-06-19T06:57:27.000Z</time></trkpt><trkpt lon="5.912953" lat="51.276148"><ele>-10.4</ele><time>2022-06-19T06:57:28.000Z</time></trkpt><trkpt lon="5.912994" lat="51.27609"><ele>-10.6</ele><time>2022-06-19T06:57:29.000Z</time></trkpt><trkpt lon="5.913031" lat="51.276029"><ele>-10.6</ele><time>2022-06-19T06:57:30.000Z</time></trkpt><trkpt lon="5.913063" lat="51.275964"><ele>-10.6</ele><time>2022-06-19T06:57:31.000Z</time></trkpt><trkpt lon="5.913093" lat="51.2759"><ele>-10.6</ele><time>2022-06-19T06:57:32.000Z</time></trkpt><trkpt lon="5.913121" lat="51.275834"><ele>-10.6</ele><time>2022-06-19T06:57:33.000Z</time></trkpt><trkpt lon="5.913154" lat="51.275764"><ele>-10.8</ele><time>2022-06-19T06:57:34.000Z</time></trkpt><trkpt lon="5.913185" lat="51.275692"><ele>-11</ele><time>2022-06-19T06:57:35.000Z</time></trkpt><trkpt lon="5.913219" lat="51.275621"><ele>-11.2</ele><time>2022-06-19T06:57:36.000Z</time></trkpt><trkpt lon="5.913252" lat="51.275553"><ele>-11.2</ele><time>2022-06-19T06:57:37.000Z</time></trkpt><trkpt lon="5.913283" lat="51.275482"><ele>-11.2</ele><time>2022-06-19T06:57:38.000Z</time></trkpt><trkpt lon="5.913316" lat="51.275418"><ele>-11</ele><time>2022-06-19T06:57:39.000Z</time></trkpt><trkpt lon="5.913352" lat="51.27534"><ele>-11</ele><time>2022-06-19T06:57:40.000Z</time></trkpt><trkpt lon="5.913384" lat="51.275271"><ele>-10.8</ele><time>2022-06-19T06:57:41.000Z</time></trkpt><trkpt lon="5.913416" lat="51.275198"><ele>-10.8</ele><time>2022-06-19T06:57:42.000Z</time></trkpt><trkpt lon="5.913447" lat="51.275129"><ele>-10.8</ele><time>2022-06-19T06:57:43.000Z</time></trkpt><trkpt lon="5.913474" lat="51.275061"><ele>-10.6</ele><time>2022-06-19T06:57:44.000Z</time></trkpt><trkpt lon="5.913504" lat="51.274992"><ele>-10.6</ele><time>2022-06-19T06:57:45.000Z</time></trkpt><trkpt lon="5.913534" lat="51.27492"><ele>-10.6</ele><time>2022-06-19T06:57:46.000Z</time></trkpt><trkpt lon="5.913564" lat="51.274851"><ele>-10.6</ele><time>2022-06-19T06:57:47.000Z</time></trkpt><trkpt lon="5.913595" lat="51.274782"><ele>-10.6</ele><time>2022-06-19T06:57:48.000Z</time></trkpt><trkpt lon="5.913623" lat="51.274715"><ele>-10.8</ele><time>2022-06-19T06:57:49.000Z</time></trkpt><trkpt lon="5.913655" lat="51.274648"><ele>-10.8</ele><time>2022-06-19T06:57:50.000Z</time></trkpt><trkpt lon="5.913685" lat="51.274579"><ele>-10.8</ele><time>2022-06-19T06:57:51.000Z</time></trkpt><trkpt lon="5.91372" lat="51.274507"><ele>-10.8</ele><time>2022-06-19T06:57:52.000Z</time></trkpt><trkpt lon="5.913751" lat="51.274439"><ele>-11</ele><time>2022-06-19T06:57:53.000Z</time></trkpt><trkpt lon="5.91378" lat="51.274371"><ele>-10.8</ele><time>2022-06-19T06:57:54.000Z</time></trkpt><trkpt lon="5.913812" lat="51.274301"><ele>-10.8</ele><time>2022-06-19T06:57:55.000Z</time></trkpt><trkpt lon="5.913842" lat="51.274229"><ele>-10.8</ele><time>2022-06-19T06:57:56.000Z</time></trkpt><trkpt lon="5.913875" lat="51.274161"><ele>-10.8</ele><time>2022-06-19T06:57:57.000Z</time></trkpt><trkpt lon="5.913909" lat="51.274091"><ele>-10.8</ele><time>2022-06-19T06:57:58.000Z</time></trkpt><trkpt lon="5.913942" lat="51.274019"><ele>-11</ele><time>2022-06-19T06:57:59.000Z</time></trkpt><trkpt lon="5.913976" lat="51.27395"><ele>-11</ele><time>2022-06-19T06:58:00.000Z</time></trkpt><trkpt lon="5.914008" lat="51.273881"><ele>-11</ele><time>2022-06-19T06:58:01.000Z</time></trkpt><trkpt lon="5.914039" lat="51.273813"><ele>-11</ele><time>2022-06-19T06:58:02.000Z</time></trkpt><trkpt lon="5.914072" lat="51.273745"><ele>-10.8</ele><time>2022-06-19T06:58:03.000Z</time></trkpt><trkpt lon="5.914106" lat="51.273675"><ele>-10.8</ele><time>2022-06-19T06:58:04.000Z</time></trkpt><trkpt lon="5.914137" lat="51.273608"><ele>-10.8</ele><time>2022-06-19T06:58:05.000Z</time></trkpt><trkpt lon="5.914171" lat="51.273539"><ele>-10.8</ele><time>2022-06-19T06:58:06.000Z</time></trkpt><trkpt lon="5.914202" lat="51.273475"><ele>-10.8</ele><time>2022-06-19T06:58:07.000Z</time></trkpt><trkpt lon="5.914235" lat="51.273404"><ele>-10.8</ele><time>2022-06-19T06:58:08.000Z</time></trkpt><trkpt lon="5.914265" lat="51.273338"><ele>-10.8</ele><time>2022-06-19T06:58:09.000Z</time></trkpt><trkpt lon="5.914297" lat="51.273269"><ele>-10.8</ele><time>2022-06-19T06:58:10.000Z</time></trkpt><trkpt lon="5.914329" lat="51.273196"><ele>-10.8</ele><time>2022-06-19T06:58:11.000Z</time></trkpt><trkpt lon="5.914359" lat="51.27313"><ele>-11</ele><time>2022-06-19T06:58:12.000Z</time></trkpt><trkpt lon="5.91439" lat="51.273063"><ele>-11</ele><time>2022-06-19T06:58:13.000Z</time></trkpt><trkpt lon="5.914422" lat="51.272997"><ele>-11.2</ele><time>2022-06-19T06:58:14.000Z</time></trkpt><trkpt lon="5.914454" lat="51.272932"><ele>-11.2</ele><time>2022-06-19T06:58:15.000Z</time></trkpt><trkpt lon="5.914487" lat="51.272863"><ele>-11.2</ele><time>2022-06-19T06:58:16.000Z</time></trkpt><trkpt lon="5.91452" lat="51.272799"><ele>-11.2</ele><time>2022-06-19T06:58:17.000Z</time></trkpt><trkpt lon="5.914554" lat="51.272731"><ele>-11.2</ele><time>2022-06-19T06:58:18.000Z</time></trkpt><trkpt lon="5.914584" lat="51.272664"><ele>-11.4</ele><time>2022-06-19T06:58:19.000Z</time></trkpt><trkpt lon="5.914616" lat="51.272593"><ele>-11.6</ele><time>2022-06-19T06:58:20.000Z</time></trkpt><trkpt lon="5.914649" lat="51.272528"><ele>-11.6</ele><time>2022-06-19T06:58:21.000Z</time></trkpt><trkpt lon="5.914679" lat="51.27246"><ele>-11.8</ele><time>2022-06-19T06:58:22.000Z</time></trkpt><trkpt lon="5.91471" lat="51.272392"><ele>-11.8</ele><time>2022-06-19T06:58:23.000Z</time></trkpt><trkpt lon="5.914744" lat="51.272322"><ele>-11.8</ele><time>2022-06-19T06:58:24.000Z</time></trkpt><trkpt lon="5.914777" lat="51.272256"><ele>-11.6</ele><time>2022-06-19T06:58:25.000Z</time></trkpt><trkpt lon="5.914806" lat="51.272192"><ele>-11.6</ele><time>2022-06-19T06:58:26.000Z</time></trkpt><trkpt lon="5.914829" lat="51.272127"><ele>-11.6</ele><time>2022-06-19T06:58:27.000Z</time></trkpt><trkpt lon="5.914845" lat="51.272059"><ele>-11.4</ele><time>2022-06-19T06:58:28.000Z</time></trkpt><trkpt lon="5.914859" lat="51.271997"><ele>-11.4</ele><time>2022-06-19T06:58:29.000Z</time></trkpt><trkpt lon="5.914884" lat="51.271925"><ele>-11.2</ele><time>2022-06-19T06:58:30.000Z</time></trkpt><trkpt lon="5.914917" lat="51.271857"><ele>-11.2</ele><time>2022-06-19T06:58:31.000Z</time></trkpt><trkpt lon="5.914954" lat="51.271788"><ele>-11.4</ele><time>2022-06-19T06:58:32.000Z</time></trkpt><trkpt lon="5.914992" lat="51.271719"><ele>-11.4</ele><time>2022-06-19T06:58:33.000Z</time></trkpt><trkpt lon="5.915028" lat="51.271649"><ele>-11.4</ele><time>2022-06-19T06:58:34.000Z</time></trkpt><trkpt lon="5.915059" lat="51.271585"><ele>-11.4</ele><time>2022-06-19T06:58:35.000Z</time></trkpt><trkpt lon="5.915093" lat="51.271519"><ele>-11.6</ele><time>2022-06-19T06:58:36.000Z</time></trkpt><trkpt lon="5.915126" lat="51.271452"><ele>-11.6</ele><time>2022-06-19T06:58:37.000Z</time></trkpt><trkpt lon="5.915157" lat="51.271385"><ele>-11.8</ele><time>2022-06-19T06:58:38.000Z</time></trkpt><trkpt lon="5.915186" lat="51.271324"><ele>-11.8</ele><time>2022-06-19T06:58:39.000Z</time></trkpt><trkpt lon="5.915217" lat="51.271262"><ele>-11.8</ele><time>2022-06-19T06:58:40.000Z</time></trkpt><trkpt lon="5.915249" lat="51.271205"><ele>-11.8</ele><time>2022-06-19T06:58:41.000Z</time></trkpt><trkpt lon="5.915279" lat="51.27115"><ele>-11.6</ele><time>2022-06-19T06:58:42.000Z</time></trkpt><trkpt lon="5.915304" lat="51.271097"><ele>-11.6</ele><time>2022-06-19T06:58:43.000Z</time></trkpt><trkpt lon="5.915327" lat="51.271048"><ele>-11.6</ele><time>2022-06-19T06:58:44.000Z</time></trkpt><trkpt lon="5.915353" lat="51.270997"><ele>-11.4</ele><time>2022-06-19T06:58:45.000Z</time></trkpt><trkpt lon="5.915374" lat="51.270949"><ele>-11.4</ele><time>2022-06-19T06:58:46.000Z</time></trkpt><trkpt lon="5.915396" lat="51.270903"><ele>-11.2</ele><time>2022-06-19T06:58:47.000Z</time></trkpt><trkpt lon="5.915416" lat="51.270861"><ele>-11.2</ele><time>2022-06-19T06:58:48.000Z</time></trkpt><trkpt lon="5.915434" lat="51.270819"><ele>-11</ele><time>2022-06-19T06:58:49.000Z</time></trkpt><trkpt lon="5.915448" lat="51.270787"><ele>-11</ele><time>2022-06-19T06:58:50.000Z</time></trkpt><trkpt lon="5.915461" lat="51.270758"><ele>-11</ele><time>2022-06-19T06:58:51.000Z</time></trkpt><trkpt lon="5.915484" lat="51.270734"><ele>-10.8</ele><time>2022-06-19T06:58:52.000Z</time></trkpt><trkpt lon="5.915522" lat="51.270722"><ele>-10.8</ele><time>2022-06-19T06:58:53.000Z</time></trkpt><trkpt lon="5.915572" lat="51.270725"><ele>-10.6</ele><time>2022-06-19T06:58:54.000Z</time></trkpt><trkpt lon="5.915629" lat="51.270736"><ele>-10.6</ele><time>2022-06-19T06:58:55.000Z</time></trkpt><trkpt lon="5.915709" lat="51.270755"><ele>-10.6</ele><time>2022-06-19T06:58:56.000Z</time></trkpt><trkpt lon="5.915794" lat="51.27077"><ele>-10.6</ele><time>2022-06-19T06:58:57.000Z</time></trkpt><trkpt lon="5.915877" lat="51.270768"><ele>-10.4</ele><time>2022-06-19T06:58:58.000Z</time></trkpt><trkpt lon="5.915971" lat="51.270757"><ele>-10.6</ele><time>2022-06-19T06:58:59.000Z</time></trkpt><trkpt lon="5.916076" lat="51.270734"><ele>-10.6</ele><time>2022-06-19T06:59:00.000Z</time></trkpt><trkpt lon="5.916175" lat="51.270704"><ele>-10.6</ele><time>2022-06-19T06:59:01.000Z</time></trkpt><trkpt lon="5.916283" lat="51.270684"><ele>-10.6</ele><time>2022-06-19T06:59:02.000Z</time></trkpt><trkpt lon="5.916393" lat="51.270676"><ele>-10.6</ele><time>2022-06-19T06:59:03.000Z</time></trkpt><trkpt lon="5.91651" lat="51.270683"><ele>-10.6</ele><time>2022-06-19T06:59:04.000Z</time></trkpt><trkpt lon="5.916627" lat="51.270698"><ele>-10.8</ele><time>2022-06-19T06:59:05.000Z</time></trkpt><trkpt lon="5.916751" lat="51.270721"><ele>-10.8</ele><time>2022-06-19T06:59:06.000Z</time></trkpt><trkpt lon="5.916872" lat="51.270743"><ele>-11</ele><time>2022-06-19T06:59:07.000Z</time></trkpt><trkpt lon="5.916997" lat="51.270766"><ele>-11</ele><time>2022-06-19T06:59:08.000Z</time></trkpt><trkpt lon="5.917117" lat="51.270789"><ele>-11.2</ele><time>2022-06-19T06:59:09.000Z</time></trkpt><trkpt lon="5.917247" lat="51.270812"><ele>-11.4</ele><time>2022-06-19T06:59:10.000Z</time></trkpt><trkpt lon="5.917371" lat="51.270831"><ele>-11.4</ele><time>2022-06-19T06:59:11.000Z</time></trkpt><trkpt lon="5.917499" lat="51.270854"><ele>-11.6</ele><time>2022-06-19T06:59:12.000Z</time></trkpt><trkpt lon="5.917618" lat="51.270869"><ele>-11.6</ele><time>2022-06-19T06:59:13.000Z</time></trkpt><trkpt lon="5.917746" lat="51.270885"><ele>-11.6</ele><time>2022-06-19T06:59:14.000Z</time></trkpt><trkpt lon="5.917865" lat="51.270903"><ele>-11.6</ele><time>2022-06-19T06:59:15.000Z</time></trkpt><trkpt lon="5.917989" lat="51.270919"><ele>-11.4</ele><time>2022-06-19T06:59:16.000Z</time></trkpt><trkpt lon="5.918103" lat="51.27093"><ele>-11.2</ele><time>2022-06-19T06:59:17.000Z</time></trkpt><trkpt lon="5.918221" lat="51.270942"><ele>-11.2</ele><time>2022-06-19T06:59:18.000Z</time></trkpt><trkpt lon="5.918338" lat="51.270953"><ele>-11.2</ele><time>2022-06-19T06:59:19.000Z</time></trkpt><trkpt lon="5.918462" lat="51.270965"><ele>-11.2</ele><time>2022-06-19T06:59:20.000Z</time></trkpt><trkpt lon="5.918582" lat="51.270973"><ele>-11</ele><time>2022-06-19T06:59:21.000Z</time></trkpt><trkpt lon="5.918703" lat="51.270977"><ele>-11</ele><time>2022-06-19T06:59:22.000Z</time></trkpt><trkpt lon="5.91882" lat="51.270984"><ele>-11</ele><time>2022-06-19T06:59:23.000Z</time></trkpt><trkpt lon="5.918943" lat="51.270992"><ele>-11</ele><time>2022-06-19T06:59:24.000Z</time></trkpt><trkpt lon="5.919065" lat="51.270999"><ele>-11</ele><time>2022-06-19T06:59:25.000Z</time></trkpt><trkpt lon="5.91919" lat="51.271"><ele>-11</ele><time>2022-06-19T06:59:26.000Z</time></trkpt><trkpt lon="5.919307" lat="51.271004"><ele>-11</ele><time>2022-06-19T06:59:27.000Z</time></trkpt><trkpt lon="5.91943" lat="51.271007"><ele>-11</ele><time>2022-06-19T06:59:28.000Z</time></trkpt><trkpt lon="5.919547" lat="51.271011"><ele>-11.2</ele><time>2022-06-19T06:59:29.000Z</time></trkpt><trkpt lon="5.919648" lat="51.271014"><ele>-11.2</ele><time>2022-06-19T06:59:30.000Z</time></trkpt><trkpt lon="5.919788" lat="51.271015"><ele>-11.2</ele><time>2022-06-19T06:59:31.000Z</time></trkpt><trkpt lon="5.919913" lat="51.271022"><ele>-11</ele><time>2022-06-19T06:59:32.000Z</time></trkpt><trkpt lon="5.920036" lat="51.271026"><ele>-11</ele><time>2022-06-19T06:59:33.000Z</time></trkpt><trkpt lon="5.920162" lat="51.271027"><ele>-11</ele><time>2022-06-19T06:59:34.000Z</time></trkpt><trkpt lon="5.920282" lat="51.27103"><ele>-11</ele><time>2022-06-19T06:59:35.000Z</time></trkpt><trkpt lon="5.920402" lat="51.271038"><ele>-10.8</ele><time>2022-06-19T06:59:36.000Z</time></trkpt><trkpt lon="5.920517" lat="51.271042"><ele>-10.8</ele><time>2022-06-19T06:59:37.000Z</time></trkpt><trkpt lon="5.92064" lat="51.271042"><ele>-10.8</ele><time>2022-06-19T06:59:38.000Z</time></trkpt><trkpt lon="5.920759" lat="51.271045"><ele>-10.8</ele><time>2022-06-19T06:59:39.000Z</time></trkpt><trkpt lon="5.920878" lat="51.271049"><ele>-10.6</ele><time>2022-06-19T06:59:40.000Z</time></trkpt><trkpt lon="5.921003" lat="51.271053"><ele>-10.6</ele><time>2022-06-19T06:59:41.000Z</time></trkpt><trkpt lon="5.921129" lat="51.271057"><ele>-10.6</ele><time>2022-06-19T06:59:42.000Z</time></trkpt><trkpt lon="5.92125" lat="51.271064"><ele>-10.4</ele><time>2022-06-19T06:59:43.000Z</time></trkpt><trkpt lon="5.921379" lat="51.271068"><ele>-10.4</ele><time>2022-06-19T06:59:44.000Z</time></trkpt><trkpt lon="5.921503" lat="51.271072"><ele>-10.4</ele><time>2022-06-19T06:59:45.000Z</time></trkpt><trkpt lon="5.921633" lat="51.271076"><ele>-10.4</ele><time>2022-06-19T06:59:46.000Z</time></trkpt><trkpt lon="5.921764" lat="51.27108"><ele>-10.4</ele><time>2022-06-19T06:59:47.000Z</time></trkpt><trkpt lon="5.921886" lat="51.271082"><ele>-10.4</ele><time>2022-06-19T06:59:48.000Z</time></trkpt><trkpt lon="5.922007" lat="51.271084"><ele>-10.4</ele><time>2022-06-19T06:59:49.000Z</time></trkpt><trkpt lon="5.922128" lat="51.271084"><ele>-10.4</ele><time>2022-06-19T06:59:50.000Z</time></trkpt><trkpt lon="5.922253" lat="51.271088"><ele>-10.4</ele><time>2022-06-19T06:59:51.000Z</time></trkpt><trkpt lon="5.922373" lat="51.271091"><ele>-10.4</ele><time>2022-06-19T06:59:52.000Z</time></trkpt><trkpt lon="5.922497" lat="51.271095"><ele>-10.4</ele><time>2022-06-19T06:59:53.000Z</time></trkpt><trkpt lon="5.922616" lat="51.271095"><ele>-10.2</ele><time>2022-06-19T06:59:54.000Z</time></trkpt><trkpt lon="5.922739" lat="51.271103"><ele>-10.4</ele><time>2022-06-19T06:59:55.000Z</time></trkpt><trkpt lon="5.922854" lat="51.271107"><ele>-10.4</ele><time>2022-06-19T06:59:56.000Z</time></trkpt><trkpt lon="5.922969" lat="51.271114"><ele>-10.6</ele><time>2022-06-19T06:59:57.000Z</time></trkpt><trkpt lon="5.923083" lat="51.271122"><ele>-10.6</ele><time>2022-06-19T06:59:58.000Z</time></trkpt><trkpt lon="5.9232" lat="51.271126"><ele>-10.6</ele><time>2022-06-19T06:59:59.000Z</time></trkpt><trkpt lon="5.923313" lat="51.27113"><ele>-10.6</ele><time>2022-06-19T07:00:00.000Z</time></trkpt><trkpt lon="5.923426" lat="51.271133"><ele>-10.6</ele><time>2022-06-19T07:00:01.000Z</time></trkpt><trkpt lon="5.923544" lat="51.271137"><ele>-10.6</ele><time>2022-06-19T07:00:02.000Z</time></trkpt><trkpt lon="5.92366" lat="51.271137"><ele>-10.4</ele><time>2022-06-19T07:00:03.000Z</time></trkpt><trkpt lon="5.923768" lat="51.271141"><ele>-10.4</ele><time>2022-06-19T07:00:04.000Z</time></trkpt><trkpt lon="5.923869" lat="51.271141"><ele>-10.4</ele><time>2022-06-19T07:00:05.000Z</time></trkpt><trkpt lon="5.923961" lat="51.271145"><ele>-10.4</ele><time>2022-06-19T07:00:06.000Z</time></trkpt><trkpt lon="5.924041" lat="51.271145"><ele>-10.4</ele><time>2022-06-19T07:00:07.000Z</time></trkpt><trkpt lon="5.924128" lat="51.271145"><ele>-10.2</ele><time>2022-06-19T07:00:08.000Z</time></trkpt><trkpt lon="5.924218" lat="51.271149"><ele>-10.2</ele><time>2022-06-19T07:00:09.000Z</time></trkpt><trkpt lon="5.924315" lat="51.271152"><ele>-10.2</ele><time>2022-06-19T07:00:10.000Z</time></trkpt><trkpt lon="5.924421" lat="51.27116"><ele>-10.2</ele><time>2022-06-19T07:00:11.000Z</time></trkpt><trkpt lon="5.924532" lat="51.271167"><ele>-10.2</ele><time>2022-06-19T07:00:12.000Z</time></trkpt><trkpt lon="5.924636" lat="51.271175"><ele>-10.2</ele><time>2022-06-19T07:00:13.000Z</time></trkpt><trkpt lon="5.924756" lat="51.271182"><ele>-10.2</ele><time>2022-06-19T07:00:14.000Z</time></trkpt><trkpt lon="5.924877" lat="51.27119"><ele>-10.2</ele><time>2022-06-19T07:00:15.000Z</time></trkpt><trkpt lon="5.924996" lat="51.271194"><ele>-10.4</ele><time>2022-06-19T07:00:16.000Z</time></trkpt><trkpt lon="5.92511" lat="51.271202"><ele>-10.6</ele><time>2022-06-19T07:00:17.000Z</time></trkpt><trkpt lon="5.925227" lat="51.27121"><ele>-10.6</ele><time>2022-06-19T07:00:18.000Z</time></trkpt><trkpt lon="5.925337" lat="51.271217"><ele>-10.6</ele><time>2022-06-19T07:00:19.000Z</time></trkpt><trkpt lon="5.925445" lat="51.271225"><ele>-10.6</ele><time>2022-06-19T07:00:20.000Z</time></trkpt><trkpt lon="5.925562" lat="51.271236"><ele>-10.6</ele><time>2022-06-19T07:00:21.000Z</time></trkpt><trkpt lon="5.925679" lat="51.271248"><ele>-10.8</ele><time>2022-06-19T07:00:22.000Z</time></trkpt><trkpt lon="5.925798" lat="51.271255"><ele>-10.8</ele><time>2022-06-19T07:00:23.000Z</time></trkpt><trkpt lon="5.925918" lat="51.271263"><ele>-10.8</ele><time>2022-06-19T07:00:24.000Z</time></trkpt><trkpt lon="5.926037" lat="51.271274"><ele>-10.8</ele><time>2022-06-19T07:00:25.000Z</time></trkpt><trkpt lon="5.92616" lat="51.271289"><ele>-10.8</ele><time>2022-06-19T07:00:26.000Z</time></trkpt><trkpt lon="5.926282" lat="51.271301"><ele>-10.8</ele><time>2022-06-19T07:00:27.000Z</time></trkpt><trkpt lon="5.926403" lat="51.271316"><ele>-10.8</ele><time>2022-06-19T07:00:28.000Z</time></trkpt><trkpt lon="5.926521" lat="51.271331"><ele>-10.8</ele><time>2022-06-19T07:00:29.000Z</time></trkpt><trkpt lon="5.926634" lat="51.27135"><ele>-10.8</ele><time>2022-06-19T07:00:30.000Z</time></trkpt><trkpt lon="5.926748" lat="51.271369"><ele>-10.8</ele><time>2022-06-19T07:00:31.000Z</time></trkpt><trkpt lon="5.926859" lat="51.271392"><ele>-10.8</ele><time>2022-06-19T07:00:32.000Z</time></trkpt><trkpt lon="5.92696" lat="51.271411"><ele>-10.8</ele><time>2022-06-19T07:00:33.000Z</time></trkpt><trkpt lon="5.927067" lat="51.271434"><ele>-10.8</ele><time>2022-06-19T07:00:34.000Z</time></trkpt><trkpt lon="5.927163" lat="51.271456"><ele>-10.8</ele><time>2022-06-19T07:00:35.000Z</time></trkpt><trkpt lon="5.927278" lat="51.271476"><ele>-10.6</ele><time>2022-06-19T07:00:36.000Z</time></trkpt><trkpt lon="5.927392" lat="51.271503"><ele>-10.8</ele><time>2022-06-19T07:00:37.000Z</time></trkpt><trkpt lon="5.927504" lat="51.271533"><ele>-10.8</ele><time>2022-06-19T07:00:38.000Z</time></trkpt><trkpt lon="5.927621" lat="51.271568"><ele>-10.8</ele><time>2022-06-19T07:00:39.000Z</time></trkpt><trkpt lon="5.927734" lat="51.271598"><ele>-10.8</ele><time>2022-06-19T07:00:40.000Z</time></trkpt><trkpt lon="5.927844" lat="51.271635"><ele>-10.8</ele><time>2022-06-19T07:00:41.000Z</time></trkpt><trkpt lon="5.927957" lat="51.271674"><ele>-10.8</ele><time>2022-06-19T07:00:42.000Z</time></trkpt><trkpt lon="5.928067" lat="51.271716"><ele>-10.8</ele><time>2022-06-19T07:00:43.000Z</time></trkpt><trkpt lon="5.928175" lat="51.271753"><ele>-10.8</ele><time>2022-06-19T07:00:44.000Z</time></trkpt><trkpt lon="5.928284" lat="51.271789"><ele>-10.8</ele><time>2022-06-19T07:00:45.000Z</time></trkpt><trkpt lon="5.928388" lat="51.27183"><ele>-11</ele><time>2022-06-19T07:00:46.000Z</time></trkpt><trkpt lon="5.928495" lat="51.271869"><ele>-11</ele><time>2022-06-19T07:00:47.000Z</time></trkpt><trkpt lon="5.928596" lat="51.271911"><ele>-11</ele><time>2022-06-19T07:00:48.000Z</time></trkpt><trkpt lon="5.928693" lat="51.271956"><ele>-11</ele><time>2022-06-19T07:00:49.000Z</time></trkpt><trkpt lon="5.928786" lat="51.272006"><ele>-10.8</ele><time>2022-06-19T07:00:50.000Z</time></trkpt><trkpt lon="5.928884" lat="51.272059"><ele>-10.8</ele><time>2022-06-19T07:00:51.000Z</time></trkpt><trkpt lon="5.928994" lat="51.272105"><ele>-10.8</ele><time>2022-06-19T07:00:52.000Z</time></trkpt><trkpt lon="5.929104" lat="51.272151"><ele>-10.8</ele><time>2022-06-19T07:00:53.000Z</time></trkpt><trkpt lon="5.929207" lat="51.2722"><ele>-10.6</ele><time>2022-06-19T07:00:54.000Z</time></trkpt><trkpt lon="5.929312" lat="51.272242"><ele>-10.6</ele><time>2022-06-19T07:00:55.000Z</time></trkpt><trkpt lon="5.929418" lat="51.272281"><ele>-10.6</ele><time>2022-06-19T07:00:56.000Z</time></trkpt><trkpt lon="5.929522" lat="51.272318"><ele>-10.6</ele><time>2022-06-19T07:00:57.000Z</time></trkpt><trkpt lon="5.929627" lat="51.272361"><ele>-10.6</ele><time>2022-06-19T07:00:58.000Z</time></trkpt><trkpt lon="5.929729" lat="51.27241"><ele>-10.4</ele><time>2022-06-19T07:00:59.000Z</time></trkpt><trkpt lon="5.929814" lat="51.272457"><ele>-10.4</ele><time>2022-06-19T07:01:00.000Z</time></trkpt><trkpt lon="5.929907" lat="51.272513"><ele>-10.4</ele><time>2022-06-19T07:01:01.000Z</time></trkpt><trkpt lon="5.929999" lat="51.272566"><ele>-10.4</ele><time>2022-06-19T07:01:02.000Z</time></trkpt><trkpt lon="5.930085" lat="51.272617"><ele>-10.2</ele><time>2022-06-19T07:01:03.000Z</time></trkpt><trkpt lon="5.930178" lat="51.272677"><ele>-10.2</ele><time>2022-06-19T07:01:04.000Z</time></trkpt><trkpt lon="5.930261" lat="51.27273"><ele>-10.4</ele><time>2022-06-19T07:01:05.000Z</time></trkpt><trkpt lon="5.930342" lat="51.272783"><ele>-10.4</ele><time>2022-06-19T07:01:06.000Z</time></trkpt><trkpt lon="5.930424" lat="51.272842"><ele>-10.4</ele><time>2022-06-19T07:01:07.000Z</time></trkpt><trkpt lon="5.930509" lat="51.272898"><ele>-10.4</ele><time>2022-06-19T07:01:08.000Z</time></trkpt><trkpt lon="5.930587" lat="51.272951"><ele>-10.4</ele><time>2022-06-19T07:01:09.000Z</time></trkpt><trkpt lon="5.930665" lat="51.273004"><ele>-10.2</ele><time>2022-06-19T07:01:10.000Z</time></trkpt><trkpt lon="5.930748" lat="51.273058"><ele>-10.2</ele><time>2022-06-19T07:01:11.000Z</time></trkpt><trkpt lon="5.930831" lat="51.273112"><ele>-10.2</ele><time>2022-06-19T07:01:12.000Z</time></trkpt><trkpt lon="5.93091" lat="51.273168"><ele>-10.2</ele><time>2022-06-19T07:01:13.000Z</time></trkpt><trkpt lon="5.930986" lat="51.273222"><ele>-10.2</ele><time>2022-06-19T07:01:14.000Z</time></trkpt><trkpt lon="5.931057" lat="51.27328"><ele>-10.2</ele><time>2022-06-19T07:01:15.000Z</time></trkpt><trkpt lon="5.931117" lat="51.273337"><ele>-10.2</ele><time>2022-06-19T07:01:16.000Z</time></trkpt><trkpt lon="5.931185" lat="51.273391"><ele>-10.2</ele><time>2022-06-19T07:01:17.000Z</time></trkpt><trkpt lon="5.931258" lat="51.273439"><ele>-10.2</ele><time>2022-06-19T07:01:18.000Z</time></trkpt><trkpt lon="5.931337" lat="51.273485"><ele>-10.2</ele><time>2022-06-19T07:01:19.000Z</time></trkpt><trkpt lon="5.931426" lat="51.273536"><ele>-10.2</ele><time>2022-06-19T07:01:20.000Z</time></trkpt><trkpt lon="5.931521" lat="51.273581"><ele>-10.2</ele><time>2022-06-19T07:01:21.000Z</time></trkpt><trkpt lon="5.931621" lat="51.273627"><ele>-10.2</ele><time>2022-06-19T07:01:22.000Z</time></trkpt><trkpt lon="5.931712" lat="51.273681"><ele>-10</ele><time>2022-06-19T07:01:23.000Z</time></trkpt><trkpt lon="5.931795" lat="51.273734"><ele>-10</ele><time>2022-06-19T07:01:24.000Z</time></trkpt><trkpt lon="5.931876" lat="51.273791"><ele>-10.2</ele><time>2022-06-19T07:01:25.000Z</time></trkpt><trkpt lon="5.93196" lat="51.273848"><ele>-10.2</ele><time>2022-06-19T07:01:26.000Z</time></trkpt><trkpt lon="5.932041" lat="51.273902"><ele>-10.2</ele><time>2022-06-19T07:01:27.000Z</time></trkpt><trkpt lon="5.932129" lat="51.273959"><ele>-10.2</ele><time>2022-06-19T07:01:28.000Z</time></trkpt><trkpt lon="5.932205" lat="51.274011"><ele>-10.2</ele><time>2022-06-19T07:01:29.000Z</time></trkpt><trkpt lon="5.932289" lat="51.274067"><ele>-10.2</ele><time>2022-06-19T07:01:30.000Z</time></trkpt><trkpt lon="5.932374" lat="51.274122"><ele>-10.2</ele><time>2022-06-19T07:01:31.000Z</time></trkpt><trkpt lon="5.932454" lat="51.27418"><ele>-10.2</ele><time>2022-06-19T07:01:32.000Z</time></trkpt><trkpt lon="5.932528" lat="51.274233"><ele>-10</ele><time>2022-06-19T07:01:33.000Z</time></trkpt><trkpt lon="5.9326" lat="51.274294"><ele>-10</ele><time>2022-06-19T07:01:34.000Z</time></trkpt><trkpt lon="5.932671" lat="51.274351"><ele>-10</ele><time>2022-06-19T07:01:35.000Z</time></trkpt><trkpt lon="5.932746" lat="51.274405"><ele>-10</ele><time>2022-06-19T07:01:36.000Z</time></trkpt><trkpt lon="5.932826" lat="51.274457"><ele>-10</ele><time>2022-06-19T07:01:37.000Z</time></trkpt><trkpt lon="5.932913" lat="51.274504"><ele>-10</ele><time>2022-06-19T07:01:38.000Z</time></trkpt><trkpt lon="5.933003" lat="51.274554"><ele>-10</ele><time>2022-06-19T07:01:39.000Z</time></trkpt><trkpt lon="5.933088" lat="51.274605"><ele>-10</ele><time>2022-06-19T07:01:40.000Z</time></trkpt><trkpt lon="5.933168" lat="51.274659"><ele>-10</ele><time>2022-06-19T07:01:41.000Z</time></trkpt><trkpt lon="5.933251" lat="51.274716"><ele>-10</ele><time>2022-06-19T07:01:42.000Z</time></trkpt><trkpt lon="5.933331" lat="51.27477"><ele>-10</ele><time>2022-06-19T07:01:43.000Z</time></trkpt><trkpt lon="5.933413" lat="51.274828"><ele>-10</ele><time>2022-06-19T07:01:44.000Z</time></trkpt><trkpt lon="5.933496" lat="51.274881"><ele>-10</ele><time>2022-06-19T07:01:45.000Z</time></trkpt><trkpt lon="5.933576" lat="51.274938"><ele>-10</ele><time>2022-06-19T07:01:46.000Z</time></trkpt><trkpt lon="5.93366" lat="51.274993"><ele>-10</ele><time>2022-06-19T07:01:47.000Z</time></trkpt><trkpt lon="5.933741" lat="51.27505"><ele>-10.2</ele><time>2022-06-19T07:01:48.000Z</time></trkpt><trkpt lon="5.933819" lat="51.275106"><ele>-10.2</ele><time>2022-06-19T07:01:49.000Z</time></trkpt><trkpt lon="5.9339" lat="51.275164"><ele>-10.2</ele><time>2022-06-19T07:01:50.000Z</time></trkpt><trkpt lon="5.933975" lat="51.275221"><ele>-10.2</ele><time>2022-06-19T07:01:51.000Z</time></trkpt><trkpt lon="5.934045" lat="51.275279"><ele>-10.2</ele><time>2022-06-19T07:01:52.000Z</time></trkpt><trkpt lon="5.934111" lat="51.275338"><ele>-10.2</ele><time>2022-06-19T07:01:53.000Z</time></trkpt><trkpt lon="5.93419" lat="51.275397"><ele>-10</ele><time>2022-06-19T07:01:54.000Z</time></trkpt><trkpt lon="5.934274" lat="51.275444"><ele>-10</ele><time>2022-06-19T07:01:55.000Z</time></trkpt><trkpt lon="5.93437" lat="51.275493"><ele>-10</ele><time>2022-06-19T07:01:56.000Z</time></trkpt><trkpt lon="5.934458" lat="51.275546"><ele>-10</ele><time>2022-06-19T07:01:57.000Z</time></trkpt><trkpt lon="5.934542" lat="51.275599"><ele>-10</ele><time>2022-06-19T07:01:58.000Z</time></trkpt><trkpt lon="5.934624" lat="51.275653"><ele>-10</ele><time>2022-06-19T07:01:59.000Z</time></trkpt><trkpt lon="5.934703" lat="51.275709"><ele>-10.2</ele><time>2022-06-19T07:02:00.000Z</time></trkpt><trkpt lon="5.934786" lat="51.275763"><ele>-10.2</ele><time>2022-06-19T07:02:01.000Z</time></trkpt><trkpt lon="5.934867" lat="51.275821"><ele>-10.2</ele><time>2022-06-19T07:02:02.000Z</time></trkpt><trkpt lon="5.934945" lat="51.275874"><ele>-10.2</ele><time>2022-06-19T07:02:03.000Z</time></trkpt><trkpt lon="5.935019" lat="51.275926"><ele>-10</ele><time>2022-06-19T07:02:04.000Z</time></trkpt><trkpt lon="5.935096" lat="51.275981"><ele>-9.8</ele><time>2022-06-19T07:02:05.000Z</time></trkpt><trkpt lon="5.935179" lat="51.276034"><ele>-9.8</ele><time>2022-06-19T07:02:06.000Z</time></trkpt><trkpt lon="5.935256" lat="51.276083"><ele>-9.6</ele><time>2022-06-19T07:02:07.000Z</time></trkpt><trkpt lon="5.935335" lat="51.276137"><ele>-9.6</ele><time>2022-06-19T07:02:08.000Z</time></trkpt><trkpt lon="5.935411" lat="51.276186"><ele>-9.4</ele><time>2022-06-19T07:02:09.000Z</time></trkpt><trkpt lon="5.935489" lat="51.27624"><ele>-9.4</ele><time>2022-06-19T07:02:10.000Z</time></trkpt><trkpt lon="5.935567" lat="51.27629"><ele>-9.4</ele><time>2022-06-19T07:02:11.000Z</time></trkpt><trkpt lon="5.935641" lat="51.276343"><ele>-9.4</ele><time>2022-06-19T07:02:12.000Z</time></trkpt><trkpt lon="5.935708" lat="51.276394"><ele>-9.4</ele><time>2022-06-19T07:02:13.000Z</time></trkpt><trkpt lon="5.93578" lat="51.276451"><ele>-9.4</ele><time>2022-06-19T07:02:14.000Z</time></trkpt><trkpt lon="5.93586" lat="51.276507"><ele>-9.6</ele><time>2022-06-19T07:02:15.000Z</time></trkpt><trkpt lon="5.935938" lat="51.276557"><ele>-9.6</ele><time>2022-06-19T07:02:16.000Z</time></trkpt><trkpt lon="5.936016" lat="51.27661"><ele>-9.6</ele><time>2022-06-19T07:02:17.000Z</time></trkpt><trkpt lon="5.936097" lat="51.276655"><ele>-9.6</ele><time>2022-06-19T07:02:18.000Z</time></trkpt><trkpt lon="5.936176" lat="51.276705"><ele>-9.6</ele><time>2022-06-19T07:02:19.000Z</time></trkpt><trkpt lon="5.936244" lat="51.276753"><ele>-9.6</ele><time>2022-06-19T07:02:20.000Z</time></trkpt><trkpt lon="5.936317" lat="51.276804"><ele>-9.6</ele><time>2022-06-19T07:02:21.000Z</time></trkpt><trkpt lon="5.936405" lat="51.276858"><ele>-9.6</ele><time>2022-06-19T07:02:22.000Z</time></trkpt><trkpt lon="5.936488" lat="51.276915"><ele>-9.6</ele><time>2022-06-19T07:02:23.000Z</time></trkpt><trkpt lon="5.936566" lat="51.276969"><ele>-9.6</ele><time>2022-06-19T07:02:24.000Z</time></trkpt><trkpt lon="5.936646" lat="51.277029"><ele>-9.6</ele><time>2022-06-19T07:02:25.000Z</time></trkpt><trkpt lon="5.936722" lat="51.277085"><ele>-9.6</ele><time>2022-06-19T07:02:26.000Z</time></trkpt><trkpt lon="5.936803" lat="51.27714"><ele>-9.6</ele><time>2022-06-19T07:02:27.000Z</time></trkpt><trkpt lon="5.93688" lat="51.277191"><ele>-9.6</ele><time>2022-06-19T07:02:28.000Z</time></trkpt><trkpt lon="5.936967" lat="51.27725"><ele>-9.6</ele><time>2022-06-19T07:02:29.000Z</time></trkpt><trkpt lon="5.937048" lat="51.277304"><ele>-9.6</ele><time>2022-06-19T07:02:30.000Z</time></trkpt><trkpt lon="5.937125" lat="51.277358"><ele>-9.4</ele><time>2022-06-19T07:02:31.000Z</time></trkpt><trkpt lon="5.937205" lat="51.277411"><ele>-9.4</ele><time>2022-06-19T07:02:32.000Z</time></trkpt><trkpt lon="5.937284" lat="51.277464"><ele>-9.4</ele><time>2022-06-19T07:02:33.000Z</time></trkpt><trkpt lon="5.937363" lat="51.277518"><ele>-9.4</ele><time>2022-06-19T07:02:34.000Z</time></trkpt><trkpt lon="5.937448" lat="51.277571"><ele>-9.4</ele><time>2022-06-19T07:02:35.000Z</time></trkpt><trkpt lon="5.937535" lat="51.277629"><ele>-9.2</ele><time>2022-06-19T07:02:36.000Z</time></trkpt><trkpt lon="5.937622" lat="51.277686"><ele>-9.2</ele><time>2022-06-19T07:02:37.000Z</time></trkpt><trkpt lon="5.937702" lat="51.277739"><ele>-9.2</ele><time>2022-06-19T07:02:38.000Z</time></trkpt><trkpt lon="5.937784" lat="51.277797"><ele>-9.4</ele><time>2022-06-19T07:02:39.000Z</time></trkpt><trkpt lon="5.937861" lat="51.27785"><ele>-9.4</ele><time>2022-06-19T07:02:40.000Z</time></trkpt><trkpt lon="5.93794" lat="51.277907"><ele>-9.4</ele><time>2022-06-19T07:02:41.000Z</time></trkpt><trkpt lon="5.938014" lat="51.277958"><ele>-9.6</ele><time>2022-06-19T07:02:42.000Z</time></trkpt><trkpt lon="5.938088" lat="51.278016"><ele>-9.6</ele><time>2022-06-19T07:02:43.000Z</time></trkpt><trkpt lon="5.938162" lat="51.278071"><ele>-9.8</ele><time>2022-06-19T07:02:44.000Z</time></trkpt><trkpt lon="5.938247" lat="51.278124"><ele>-9.8</ele><time>2022-06-19T07:02:45.000Z</time></trkpt><trkpt lon="5.93832" lat="51.278175"><ele>-9.8</ele><time>2022-06-19T07:02:46.000Z</time></trkpt><trkpt lon="5.938408" lat="51.278233"><ele>-9.8</ele><time>2022-06-19T07:02:47.000Z</time></trkpt><trkpt lon="5.93849" lat="51.278288"><ele>-9.8</ele><time>2022-06-19T07:02:48.000Z</time></trkpt><trkpt lon="5.938572" lat="51.278346"><ele>-9.6</ele><time>2022-06-19T07:02:49.000Z</time></trkpt><trkpt lon="5.93865" lat="51.278402"><ele>-9.6</ele><time>2022-06-19T07:02:50.000Z</time></trkpt><trkpt lon="5.938724" lat="51.278451"><ele>-9.6</ele><time>2022-06-19T07:02:51.000Z</time></trkpt><trkpt lon="5.938798" lat="51.278502"><ele>-9.6</ele><time>2022-06-19T07:02:52.000Z</time></trkpt><trkpt lon="5.938878" lat="51.278556"><ele>-9.8</ele><time>2022-06-19T07:02:53.000Z</time></trkpt><trkpt lon="5.938957" lat="51.278608"><ele>-9.6</ele><time>2022-06-19T07:02:54.000Z</time></trkpt><trkpt lon="5.939042" lat="51.278662"><ele>-9.6</ele><time>2022-06-19T07:02:55.000Z</time></trkpt><trkpt lon="5.939119" lat="51.278714"><ele>-9.6</ele><time>2022-06-19T07:02:56.000Z</time></trkpt><trkpt lon="5.939198" lat="51.278772"><ele>-9.6</ele><time>2022-06-19T07:02:57.000Z</time></trkpt><trkpt lon="5.939284" lat="51.27883"><ele>-9.4</ele><time>2022-06-19T07:02:58.000Z</time></trkpt><trkpt lon="5.939366" lat="51.278891"><ele>-9.4</ele><time>2022-06-19T07:02:59.000Z</time></trkpt><trkpt lon="5.939454" lat="51.278944"><ele>-9.4</ele><time>2022-06-19T07:03:00.000Z</time></trkpt><trkpt lon="5.939538" lat="51.278997"><ele>-9.6</ele><time>2022-06-19T07:03:01.000Z</time></trkpt><trkpt lon="5.939623" lat="51.279054"><ele>-9.6</ele><time>2022-06-19T07:03:02.000Z</time></trkpt><trkpt lon="5.93971" lat="51.279111"><ele>-9.6</ele><time>2022-06-19T07:03:03.000Z</time></trkpt><trkpt lon="5.93979" lat="51.279165"><ele>-9.4</ele><time>2022-06-19T07:03:04.000Z</time></trkpt><trkpt lon="5.939876" lat="51.279219"><ele>-9.4</ele><time>2022-06-19T07:03:05.000Z</time></trkpt><trkpt lon="5.939967" lat="51.279276"><ele>-9.4</ele><time>2022-06-19T07:03:06.000Z</time></trkpt><trkpt lon="5.940049" lat="51.279326"><ele>-9.2</ele><time>2022-06-19T07:03:07.000Z</time></trkpt><trkpt lon="5.940155" lat="51.279387"><ele>-8.8</ele><time>2022-06-19T07:03:08.000Z</time></trkpt><trkpt lon="5.940241" lat="51.27944"><ele>-8.6</ele><time>2022-06-19T07:03:09.000Z</time></trkpt><trkpt lon="5.940336" lat="51.2795"><ele>-8.8</ele><time>2022-06-19T07:03:10.000Z</time></trkpt><trkpt lon="5.940425" lat="51.279555"><ele>-8.8</ele><time>2022-06-19T07:03:11.000Z</time></trkpt><trkpt lon="5.940513" lat="51.279608"><ele>-9</ele><time>2022-06-19T07:03:12.000Z</time></trkpt><trkpt lon="5.940594" lat="51.279665"><ele>-9.2</ele><time>2022-06-19T07:03:13.000Z</time></trkpt><trkpt lon="5.940677" lat="51.279712"><ele>-9.2</ele><time>2022-06-19T07:03:14.000Z</time></trkpt><trkpt lon="5.940765" lat="51.279769"><ele>-9.4</ele><time>2022-06-19T07:03:15.000Z</time></trkpt><trkpt lon="5.940847" lat="51.279825"><ele>-9.6</ele><time>2022-06-19T07:03:16.000Z</time></trkpt><trkpt lon="5.940935" lat="51.279887"><ele>-9.8</ele><time>2022-06-19T07:03:17.000Z</time></trkpt><trkpt lon="5.941017" lat="51.27994"><ele>-9.8</ele><time>2022-06-19T07:03:18.000Z</time></trkpt><trkpt lon="5.941104" lat="51.279998"><ele>-9.6</ele><time>2022-06-19T07:03:19.000Z</time></trkpt><trkpt lon="5.941185" lat="51.280055"><ele>-9.6</ele><time>2022-06-19T07:03:20.000Z</time></trkpt><trkpt lon="5.941265" lat="51.280112"><ele>-9.6</ele><time>2022-06-19T07:03:21.000Z</time></trkpt><trkpt lon="5.941351" lat="51.280169"><ele>-9.4</ele><time>2022-06-19T07:03:22.000Z</time></trkpt><trkpt lon="5.94144" lat="51.28023"><ele>-9.4</ele><time>2022-06-19T07:03:23.000Z</time></trkpt><trkpt lon="5.941528" lat="51.280286"><ele>-9.4</ele><time>2022-06-19T07:03:24.000Z</time></trkpt><trkpt lon="5.941611" lat="51.280345"><ele>-9.4</ele><time>2022-06-19T07:03:25.000Z</time></trkpt><trkpt lon="5.941697" lat="51.280405"><ele>-9.4</ele><time>2022-06-19T07:03:26.000Z</time></trkpt><trkpt lon="5.941779" lat="51.280466"><ele>-9.4</ele><time>2022-06-19T07:03:27.000Z</time></trkpt><trkpt lon="5.941858" lat="51.280523"><ele>-9.2</ele><time>2022-06-19T07:03:28.000Z</time></trkpt><trkpt lon="5.941937" lat="51.280581"><ele>-9.2</ele><time>2022-06-19T07:03:29.000Z</time></trkpt><trkpt lon="5.942018" lat="51.280636"><ele>-9.2</ele><time>2022-06-19T07:03:30.000Z</time></trkpt><trkpt lon="5.942098" lat="51.280692"><ele>-9.2</ele><time>2022-06-19T07:03:31.000Z</time></trkpt><trkpt lon="5.942178" lat="51.280745"><ele>-9.2</ele><time>2022-06-19T07:03:32.000Z</time></trkpt><trkpt lon="5.942254" lat="51.280796"><ele>-9.2</ele><time>2022-06-19T07:03:33.000Z</time></trkpt><trkpt lon="5.942341" lat="51.28085"><ele>-9.2</ele><time>2022-06-19T07:03:34.000Z</time></trkpt><trkpt lon="5.942428" lat="51.280901"><ele>-9.2</ele><time>2022-06-19T07:03:35.000Z</time></trkpt><trkpt lon="5.942516" lat="51.280951"><ele>-9.2</ele><time>2022-06-19T07:03:36.000Z</time></trkpt><trkpt lon="5.942597" lat="51.281007"><ele>-9</ele><time>2022-06-19T07:03:37.000Z</time></trkpt><trkpt lon="5.942676" lat="51.281058"><ele>-9.2</ele><time>2022-06-19T07:03:38.000Z</time></trkpt><trkpt lon="5.942763" lat="51.281115"><ele>-9.2</ele><time>2022-06-19T07:03:39.000Z</time></trkpt><trkpt lon="5.942847" lat="51.281168"><ele>-9.4</ele><time>2022-06-19T07:03:40.000Z</time></trkpt><trkpt lon="5.942929" lat="51.281225"><ele>-9.2</ele><time>2022-06-19T07:03:41.000Z</time></trkpt><trkpt lon="5.94301" lat="51.281282"><ele>-9.2</ele><time>2022-06-19T07:03:42.000Z</time></trkpt><trkpt lon="5.943093" lat="51.28134"><ele>-9.4</ele><time>2022-06-19T07:03:43.000Z</time></trkpt><trkpt lon="5.943175" lat="51.281397"><ele>-9.4</ele><time>2022-06-19T07:03:44.000Z</time></trkpt><trkpt lon="5.943257" lat="51.281452"><ele>-9.4</ele><time>2022-06-19T07:03:45.000Z</time></trkpt><trkpt lon="5.943347" lat="51.281511"><ele>-9.4</ele><time>2022-06-19T07:03:46.000Z</time></trkpt><trkpt lon="5.94343" lat="51.281565"><ele>-9.2</ele><time>2022-06-19T07:03:47.000Z</time></trkpt><trkpt lon="5.943513" lat="51.281622"><ele>-9</ele><time>2022-06-19T07:03:48.000Z</time></trkpt><trkpt lon="5.943595" lat="51.281676"><ele>-9</ele><time>2022-06-19T07:03:49.000Z</time></trkpt><trkpt lon="5.943671" lat="51.281733"><ele>-9</ele><time>2022-06-19T07:03:50.000Z</time></trkpt><trkpt lon="5.943748" lat="51.281786"><ele>-8.8</ele><time>2022-06-19T07:03:51.000Z</time></trkpt><trkpt lon="5.943832" lat="51.281843"><ele>-8.8</ele><time>2022-06-19T07:03:52.000Z</time></trkpt><trkpt lon="5.943912" lat="51.281897"><ele>-8.8</ele><time>2022-06-19T07:03:53.000Z</time></trkpt><trkpt lon="5.94399" lat="51.28195"><ele>-8.6</ele><time>2022-06-19T07:03:54.000Z</time></trkpt><trkpt lon="5.944065" lat="51.282007"><ele>-8.8</ele><time>2022-06-19T07:03:55.000Z</time></trkpt><trkpt lon="5.944144" lat="51.282061"><ele>-8.8</ele><time>2022-06-19T07:03:56.000Z</time></trkpt><trkpt lon="5.944221" lat="51.282118"><ele>-8.8</ele><time>2022-06-19T07:03:57.000Z</time></trkpt><trkpt lon="5.944296" lat="51.28217"><ele>-8.8</ele><time>2022-06-19T07:03:58.000Z</time></trkpt><trkpt lon="5.944373" lat="51.282221"><ele>-8.6</ele><time>2022-06-19T07:03:59.000Z</time></trkpt><trkpt lon="5.944445" lat="51.282274"><ele>-8.6</ele><time>2022-06-19T07:04:00.000Z</time></trkpt><trkpt lon="5.944508" lat="51.282315"><ele>-8.6</ele><time>2022-06-19T07:04:01.000Z</time></trkpt><trkpt lon="5.944591" lat="51.282371"><ele>-8.6</ele><time>2022-06-19T07:04:02.000Z</time></trkpt><trkpt lon="5.944655" lat="51.282416"><ele>-8.4</ele><time>2022-06-19T07:04:03.000Z</time></trkpt><trkpt lon="5.944734" lat="51.282471"><ele>-8.4</ele><time>2022-06-19T07:04:04.000Z</time></trkpt><trkpt lon="5.944803" lat="51.282523"><ele>-8.4</ele><time>2022-06-19T07:04:05.000Z</time></trkpt><trkpt lon="5.944868" lat="51.282568"><ele>-8.4</ele><time>2022-06-19T07:04:06.000Z</time></trkpt><trkpt lon="5.944938" lat="51.282621"><ele>-8.4</ele><time>2022-06-19T07:04:07.000Z</time></trkpt><trkpt lon="5.945009" lat="51.282671"><ele>-8.4</ele><time>2022-06-19T07:04:08.000Z</time></trkpt><trkpt lon="5.94508" lat="51.282721"><ele>-8.4</ele><time>2022-06-19T07:04:09.000Z</time></trkpt><trkpt lon="5.945151" lat="51.282774"><ele>-8.4</ele><time>2022-06-19T07:04:10.000Z</time></trkpt><trkpt lon="5.945221" lat="51.282824"><ele>-8.4</ele><time>2022-06-19T07:04:11.000Z</time></trkpt><trkpt lon="5.945294" lat="51.282872"><ele>-8.4</ele><time>2022-06-19T07:04:12.000Z</time></trkpt><trkpt lon="5.945375" lat="51.282927"><ele>-8.4</ele><time>2022-06-19T07:04:13.000Z</time></trkpt><trkpt lon="5.945456" lat="51.282983"><ele>-8.4</ele><time>2022-06-19T07:04:14.000Z</time></trkpt><trkpt lon="5.94554" lat="51.283034"><ele>-8.4</ele><time>2022-06-19T07:04:15.000Z</time></trkpt><trkpt lon="5.94561" lat="51.283081"><ele>-8.4</ele><time>2022-06-19T07:04:16.000Z</time></trkpt><trkpt lon="5.945688" lat="51.283137"><ele>-8.2</ele><time>2022-06-19T07:04:17.000Z</time></trkpt><trkpt lon="5.945761" lat="51.28319"><ele>-8.4</ele><time>2022-06-19T07:04:18.000Z</time></trkpt><trkpt lon="5.94583" lat="51.28324"><ele>-8.2</ele><time>2022-06-19T07:04:19.000Z</time></trkpt><trkpt lon="5.945901" lat="51.283293"><ele>-8.4</ele><time>2022-06-19T07:04:20.000Z</time></trkpt><trkpt lon="5.945971" lat="51.283346"><ele>-8.4</ele><time>2022-06-19T07:04:21.000Z</time></trkpt><trkpt lon="5.946044" lat="51.2834"><ele>-8.6</ele><time>2022-06-19T07:04:22.000Z</time></trkpt><trkpt lon="5.946115" lat="51.283456"><ele>-8.6</ele><time>2022-06-19T07:04:23.000Z</time></trkpt><trkpt lon="5.946187" lat="51.283514"><ele>-8.8</ele><time>2022-06-19T07:04:24.000Z</time></trkpt><trkpt lon="5.946258" lat="51.283571"><ele>-8.8</ele><time>2022-06-19T07:04:25.000Z</time></trkpt><trkpt lon="5.946331" lat="51.283629"><ele>-9</ele><time>2022-06-19T07:04:26.000Z</time></trkpt><trkpt lon="5.946404" lat="51.283686"><ele>-8.8</ele><time>2022-06-19T07:04:27.000Z</time></trkpt><trkpt lon="5.946475" lat="51.283744"><ele>-9</ele><time>2022-06-19T07:04:28.000Z</time></trkpt><trkpt lon="5.94655" lat="51.2838"><ele>-9.2</ele><time>2022-06-19T07:04:29.000Z</time></trkpt><trkpt lon="5.946618" lat="51.283858"><ele>-9.2</ele><time>2022-06-19T07:04:30.000Z</time></trkpt><trkpt lon="5.946695" lat="51.283912"><ele>-9.4</ele><time>2022-06-19T07:04:31.000Z</time></trkpt><trkpt lon="5.946776" lat="51.283965"><ele>-9.6</ele><time>2022-06-19T07:04:32.000Z</time></trkpt><trkpt lon="5.94685" lat="51.284014"><ele>-9.8</ele><time>2022-06-19T07:04:33.000Z</time></trkpt><trkpt lon="5.946923" lat="51.284064"><ele>-9.8</ele><time>2022-06-19T07:04:34.000Z</time></trkpt><trkpt lon="5.947004" lat="51.284113"><ele>-9.8</ele><time>2022-06-19T07:04:35.000Z</time></trkpt><trkpt lon="5.947096" lat="51.28416"><ele>-9.8</ele><time>2022-06-19T07:04:36.000Z</time></trkpt><trkpt lon="5.947202" lat="51.284204"><ele>-9.8</ele><time>2022-06-19T07:04:37.000Z</time></trkpt><trkpt lon="5.947316" lat="51.284255"><ele>-9.8</ele><time>2022-06-19T07:04:38.000Z</time></trkpt><trkpt lon="5.947406" lat="51.284308"><ele>-9.6</ele><time>2022-06-19T07:04:39.000Z</time></trkpt><trkpt lon="5.947497" lat="51.284356"><ele>-9.6</ele><time>2022-06-19T07:04:40.000Z</time></trkpt><trkpt lon="5.94759" lat="51.284407"><ele>-9.6</ele><time>2022-06-19T07:04:41.000Z</time></trkpt><trkpt lon="5.947684" lat="51.284461"><ele>-10</ele><time>2022-06-19T07:04:42.000Z</time></trkpt><trkpt lon="5.947788" lat="51.284516"><ele>-10</ele><time>2022-06-19T07:04:43.000Z</time></trkpt><trkpt lon="5.947877" lat="51.284571"><ele>-10</ele><time>2022-06-19T07:04:44.000Z</time></trkpt><trkpt lon="5.94797" lat="51.284628"><ele>-9.8</ele><time>2022-06-19T07:04:45.000Z</time></trkpt><trkpt lon="5.948059" lat="51.284686"><ele>-9.4</ele><time>2022-06-19T07:04:46.000Z</time></trkpt><trkpt lon="5.948148" lat="51.284743"><ele>-9.2</ele><time>2022-06-19T07:04:47.000Z</time></trkpt><trkpt lon="5.948238" lat="51.2848"><ele>-9.2</ele><time>2022-06-19T07:04:48.000Z</time></trkpt><trkpt lon="5.948326" lat="51.284857"><ele>-9</ele><time>2022-06-19T07:04:49.000Z</time></trkpt><trkpt lon="5.948411" lat="51.284914"><ele>-8.8</ele><time>2022-06-19T07:04:50.000Z</time></trkpt><trkpt lon="5.948489" lat="51.284967"><ele>-8.6</ele><time>2022-06-19T07:04:51.000Z</time></trkpt><trkpt lon="5.948579" lat="51.285024"><ele>-8.6</ele><time>2022-06-19T07:04:52.000Z</time></trkpt><trkpt lon="5.948667" lat="51.285079"><ele>-8.6</ele><time>2022-06-19T07:04:53.000Z</time></trkpt><trkpt lon="5.948749" lat="51.285136"><ele>-8.8</ele><time>2022-06-19T07:04:54.000Z</time></trkpt><trkpt lon="5.948831" lat="51.285193"><ele>-9</ele><time>2022-06-19T07:04:55.000Z</time></trkpt><trkpt lon="5.948914" lat="51.28525"><ele>-9</ele><time>2022-06-19T07:04:56.000Z</time></trkpt><trkpt lon="5.949" lat="51.285304"><ele>-9.2</ele><time>2022-06-19T07:04:57.000Z</time></trkpt><trkpt lon="5.949081" lat="51.285357"><ele>-9.2</ele><time>2022-06-19T07:04:58.000Z</time></trkpt><trkpt lon="5.949162" lat="51.285414"><ele>-9.2</ele><time>2022-06-19T07:04:59.000Z</time></trkpt><trkpt lon="5.949241" lat="51.285467"><ele>-9.2</ele><time>2022-06-19T07:05:00.000Z</time></trkpt><trkpt lon="5.949323" lat="51.285525"><ele>-9.2</ele><time>2022-06-19T07:05:01.000Z</time></trkpt><trkpt lon="5.949403" lat="51.285578"><ele>-9.2</ele><time>2022-06-19T07:05:02.000Z</time></trkpt><trkpt lon="5.949482" lat="51.285635"><ele>-9.2</ele><time>2022-06-19T07:05:03.000Z</time></trkpt><trkpt lon="5.949561" lat="51.285687"><ele>-9.2</ele><time>2022-06-19T07:05:04.000Z</time></trkpt><trkpt lon="5.949646" lat="51.285742"><ele>-9.2</ele><time>2022-06-19T07:05:05.000Z</time></trkpt><trkpt lon="5.949731" lat="51.2858"><ele>-9.2</ele><time>2022-06-19T07:05:06.000Z</time></trkpt><trkpt lon="5.949812" lat="51.285853"><ele>-9</ele><time>2022-06-19T07:05:07.000Z</time></trkpt><trkpt lon="5.949896" lat="51.285907"><ele>-8.8</ele><time>2022-06-19T07:05:08.000Z</time></trkpt><trkpt lon="5.94998" lat="51.285964"><ele>-8.6</ele><time>2022-06-19T07:05:09.000Z</time></trkpt><trkpt lon="5.950061" lat="51.286016"><ele>-8.4</ele><time>2022-06-19T07:05:10.000Z</time></trkpt><trkpt lon="5.950145" lat="51.286074"><ele>-8.4</ele><time>2022-06-19T07:05:11.000Z</time></trkpt><trkpt lon="5.950229" lat="51.286127"><ele>-8.4</ele><time>2022-06-19T07:05:12.000Z</time></trkpt><trkpt lon="5.950312" lat="51.286183"><ele>-8.4</ele><time>2022-06-19T07:05:13.000Z</time></trkpt><trkpt lon="5.950397" lat="51.286242"><ele>-8.4</ele><time>2022-06-19T07:05:14.000Z</time></trkpt><trkpt lon="5.950481" lat="51.286295"><ele>-8.4</ele><time>2022-06-19T07:05:15.000Z</time></trkpt><trkpt lon="5.950556" lat="51.286345"><ele>-8.2</ele><time>2022-06-19T07:05:16.000Z</time></trkpt><trkpt lon="5.950645" lat="51.286406"><ele>-8</ele><time>2022-06-19T07:05:17.000Z</time></trkpt><trkpt lon="5.950728" lat="51.286464"><ele>-7.8</ele><time>2022-06-19T07:05:18.000Z</time></trkpt><trkpt lon="5.950812" lat="51.286517"><ele>-7.8</ele><time>2022-06-19T07:05:19.000Z</time></trkpt><trkpt lon="5.950896" lat="51.286574"><ele>-7.8</ele><time>2022-06-19T07:05:20.000Z</time></trkpt><trkpt lon="5.950978" lat="51.28663"><ele>-7.8</ele><time>2022-06-19T07:05:21.000Z</time></trkpt><trkpt lon="5.951062" lat="51.286688"><ele>-7.8</ele><time>2022-06-19T07:05:22.000Z</time></trkpt><trkpt lon="5.951146" lat="51.286742"><ele>-7.8</ele><time>2022-06-19T07:05:23.000Z</time></trkpt><trkpt lon="5.951229" lat="51.286799"><ele>-7.8</ele><time>2022-06-19T07:05:24.000Z</time></trkpt><trkpt lon="5.951311" lat="51.286852"><ele>-7.8</ele><time>2022-06-19T07:05:25.000Z</time></trkpt><trkpt lon="5.951393" lat="51.28691"><ele>-7.8</ele><time>2022-06-19T07:05:26.000Z</time></trkpt><trkpt lon="5.951474" lat="51.286967"><ele>-7.8</ele><time>2022-06-19T07:05:27.000Z</time></trkpt><trkpt lon="5.951557" lat="51.287023"><ele>-7.6</ele><time>2022-06-19T07:05:28.000Z</time></trkpt><trkpt lon="5.951642" lat="51.287078"><ele>-7.6</ele><time>2022-06-19T07:05:29.000Z</time></trkpt><trkpt lon="5.951717" lat="51.287127"><ele>-7.4</ele><time>2022-06-19T07:05:30.000Z</time></trkpt><trkpt lon="5.951802" lat="51.287186"><ele>-7.2</ele><time>2022-06-19T07:05:31.000Z</time></trkpt><trkpt lon="5.951884" lat="51.287241"><ele>-7.2</ele><time>2022-06-19T07:05:32.000Z</time></trkpt><trkpt lon="5.951965" lat="51.287299"><ele>-7.2</ele><time>2022-06-19T07:05:33.000Z</time></trkpt><trkpt lon="5.952044" lat="51.287351"><ele>-7.2</ele><time>2022-06-19T07:05:34.000Z</time></trkpt><trkpt lon="5.952127" lat="51.287409"><ele>-7.4</ele><time>2022-06-19T07:05:35.000Z</time></trkpt><trkpt lon="5.952208" lat="51.287467"><ele>-7.4</ele><time>2022-06-19T07:05:36.000Z</time></trkpt><trkpt lon="5.952288" lat="51.287524"><ele>-7.4</ele><time>2022-06-19T07:05:37.000Z</time></trkpt><trkpt lon="5.95237" lat="51.287577"><ele>-7.4</ele><time>2022-06-19T07:05:38.000Z</time></trkpt><trkpt lon="5.952448" lat="51.287631"><ele>-7.4</ele><time>2022-06-19T07:05:39.000Z</time></trkpt><trkpt lon="5.952522" lat="51.287683"><ele>-7.4</ele><time>2022-06-19T07:05:40.000Z</time></trkpt><trkpt lon="5.952604" lat="51.287738"><ele>-7.2</ele><time>2022-06-19T07:05:41.000Z</time></trkpt><trkpt lon="5.952685" lat="51.287797"><ele>-7.2</ele><time>2022-06-19T07:05:42.000Z</time></trkpt><trkpt lon="5.952766" lat="51.287852"><ele>-7.2</ele><time>2022-06-19T07:05:43.000Z</time></trkpt><trkpt lon="5.952844" lat="51.287905"><ele>-7.2</ele><time>2022-06-19T07:05:44.000Z</time></trkpt><trkpt lon="5.952923" lat="51.287958"><ele>-7.2</ele><time>2022-06-19T07:05:45.000Z</time></trkpt><trkpt lon="5.953003" lat="51.288016"><ele>-7.2</ele><time>2022-06-19T07:05:46.000Z</time></trkpt><trkpt lon="5.953085" lat="51.28807"><ele>-7</ele><time>2022-06-19T07:05:47.000Z</time></trkpt><trkpt lon="5.953163" lat="51.288125"><ele>-7</ele><time>2022-06-19T07:05:48.000Z</time></trkpt><trkpt lon="5.953247" lat="51.288184"><ele>-7</ele><time>2022-06-19T07:05:49.000Z</time></trkpt><trkpt lon="5.953328" lat="51.288237"><ele>-7</ele><time>2022-06-19T07:05:50.000Z</time></trkpt><trkpt lon="5.953411" lat="51.288291"><ele>-7</ele><time>2022-06-19T07:05:51.000Z</time></trkpt><trkpt lon="5.953495" lat="51.288348"><ele>-7</ele><time>2022-06-19T07:05:52.000Z</time></trkpt><trkpt lon="5.953578" lat="51.288405"><ele>-6.8</ele><time>2022-06-19T07:05:53.000Z</time></trkpt><trkpt lon="5.953661" lat="51.288458"><ele>-6.8</ele><time>2022-06-19T07:05:54.000Z</time></trkpt><trkpt lon="5.953746" lat="51.288516"><ele>-6.8</ele><time>2022-06-19T07:05:55.000Z</time></trkpt><trkpt lon="5.953831" lat="51.288573"><ele>-6.8</ele><time>2022-06-19T07:05:56.000Z</time></trkpt><trkpt lon="5.953914" lat="51.288628"><ele>-6.8</ele><time>2022-06-19T07:05:57.000Z</time></trkpt><trkpt lon="5.954" lat="51.288684"><ele>-6.8</ele><time>2022-06-19T07:05:58.000Z</time></trkpt><trkpt lon="5.954081" lat="51.28874"><ele>-6.8</ele><time>2022-06-19T07:05:59.000Z</time></trkpt><trkpt lon="5.954165" lat="51.288798"><ele>-7</ele><time>2022-06-19T07:06:00.000Z</time></trkpt><trkpt lon="5.954246" lat="51.288855"><ele>-6.8</ele><time>2022-06-19T07:06:01.000Z</time></trkpt><trkpt lon="5.954327" lat="51.288908"><ele>-6.8</ele><time>2022-06-19T07:06:02.000Z</time></trkpt><trkpt lon="5.954411" lat="51.288966"><ele>-6.8</ele><time>2022-06-19T07:06:03.000Z</time></trkpt><trkpt lon="5.954492" lat="51.289022"><ele>-6.8</ele><time>2022-06-19T07:06:04.000Z</time></trkpt><trkpt lon="5.954571" lat="51.289074"><ele>-6.8</ele><time>2022-06-19T07:06:05.000Z</time></trkpt><trkpt lon="5.954655" lat="51.289133"><ele>-6.8</ele><time>2022-06-19T07:06:06.000Z</time></trkpt><trkpt lon="5.954735" lat="51.289187"><ele>-6.8</ele><time>2022-06-19T07:06:07.000Z</time></trkpt><trkpt lon="5.954815" lat="51.289244"><ele>-6.8</ele><time>2022-06-19T07:06:08.000Z</time></trkpt><trkpt lon="5.954898" lat="51.289302"><ele>-6.8</ele><time>2022-06-19T07:06:09.000Z</time></trkpt><trkpt lon="5.954978" lat="51.289357"><ele>-6.8</ele><time>2022-06-19T07:06:10.000Z</time></trkpt><trkpt lon="5.955057" lat="51.289412"><ele>-6.8</ele><time>2022-06-19T07:06:11.000Z</time></trkpt><trkpt lon="5.955136" lat="51.289465"><ele>-6.6</ele><time>2022-06-19T07:06:12.000Z</time></trkpt><trkpt lon="5.955216" lat="51.289519"><ele>-6.6</ele><time>2022-06-19T07:06:13.000Z</time></trkpt><trkpt lon="5.955293" lat="51.289576"><ele>-6.6</ele><time>2022-06-19T07:06:14.000Z</time></trkpt><trkpt lon="5.955368" lat="51.289633"><ele>-6.6</ele><time>2022-06-19T07:06:15.000Z</time></trkpt><trkpt lon="5.955445" lat="51.28969"><ele>-6.4</ele><time>2022-06-19T07:06:16.000Z</time></trkpt><trkpt lon="5.955525" lat="51.289744"><ele>-6.4</ele><time>2022-06-19T07:06:17.000Z</time></trkpt><trkpt lon="5.955601" lat="51.289797"><ele>-6.4</ele><time>2022-06-19T07:06:18.000Z</time></trkpt><trkpt lon="5.955682" lat="51.289851"><ele>-6.4</ele><time>2022-06-19T07:06:19.000Z</time></trkpt><trkpt lon="5.955762" lat="51.2899"><ele>-6.6</ele><time>2022-06-19T07:06:20.000Z</time></trkpt><trkpt lon="5.955845" lat="51.289958"><ele>-6.6</ele><time>2022-06-19T07:06:21.000Z</time></trkpt><trkpt lon="5.955925" lat="51.290011"><ele>-6.6</ele><time>2022-06-19T07:06:22.000Z</time></trkpt><trkpt lon="5.956006" lat="51.290064"><ele>-6.8</ele><time>2022-06-19T07:06:23.000Z</time></trkpt><trkpt lon="5.956084" lat="51.29012"><ele>-7</ele><time>2022-06-19T07:06:24.000Z</time></trkpt><trkpt lon="5.956167" lat="51.290174"><ele>-7</ele><time>2022-06-19T07:06:25.000Z</time></trkpt><trkpt lon="5.956246" lat="51.290228"><ele>-7</ele><time>2022-06-19T07:06:26.000Z</time></trkpt><trkpt lon="5.956326" lat="51.290286"><ele>-7</ele><time>2022-06-19T07:06:27.000Z</time></trkpt><trkpt lon="5.956404" lat="51.290339"><ele>-7.2</ele><time>2022-06-19T07:06:28.000Z</time></trkpt><trkpt lon="5.956481" lat="51.290396"><ele>-7.2</ele><time>2022-06-19T07:06:29.000Z</time></trkpt><trkpt lon="5.956548" lat="51.290446"><ele>-7.2</ele><time>2022-06-19T07:06:30.000Z</time></trkpt><trkpt lon="5.956631" lat="51.29051"><ele>-7.2</ele><time>2022-06-19T07:06:31.000Z</time></trkpt><trkpt lon="5.956706" lat="51.290571"><ele>-7</ele><time>2022-06-19T07:06:32.000Z</time></trkpt><trkpt lon="5.956768" lat="51.290619"><ele>-7</ele><time>2022-06-19T07:06:33.000Z</time></trkpt><trkpt lon="5.956849" lat="51.290687"><ele>-7</ele><time>2022-06-19T07:06:34.000Z</time></trkpt><trkpt lon="5.956929" lat="51.290751"><ele>-6.8</ele><time>2022-06-19T07:06:35.000Z</time></trkpt><trkpt lon="5.957005" lat="51.290811"><ele>-6.6</ele><time>2022-06-19T07:06:36.000Z</time></trkpt><trkpt lon="5.957082" lat="51.290872"><ele>-6.6</ele><time>2022-06-19T07:06:37.000Z</time></trkpt><trkpt lon="5.957155" lat="51.290934"><ele>-6.6</ele><time>2022-06-19T07:06:38.000Z</time></trkpt><trkpt lon="5.957225" lat="51.290994"><ele>-6.6</ele><time>2022-06-19T07:06:39.000Z</time></trkpt><trkpt lon="5.957291" lat="51.291056"><ele>-6.6</ele><time>2022-06-19T07:06:40.000Z</time></trkpt><trkpt lon="5.957353" lat="51.291111"><ele>-6.6</ele><time>2022-06-19T07:06:41.000Z</time></trkpt><trkpt lon="5.957416" lat="51.291177"><ele>-6.6</ele><time>2022-06-19T07:06:42.000Z</time></trkpt><trkpt lon="5.957476" lat="51.291236"><ele>-6.6</ele><time>2022-06-19T07:06:43.000Z</time></trkpt><trkpt lon="5.957539" lat="51.2913"><ele>-6.6</ele><time>2022-06-19T07:06:44.000Z</time></trkpt><trkpt lon="5.957598" lat="51.291365"><ele>-6.6</ele><time>2022-06-19T07:06:45.000Z</time></trkpt><trkpt lon="5.957659" lat="51.29143"><ele>-6.6</ele><time>2022-06-19T07:06:46.000Z</time></trkpt><trkpt lon="5.957715" lat="51.291494"><ele>-6.6</ele><time>2022-06-19T07:06:47.000Z</time></trkpt><trkpt lon="5.957772" lat="51.291556"><ele>-6.6</ele><time>2022-06-19T07:06:48.000Z</time></trkpt><trkpt lon="5.957837" lat="51.291617"><ele>-6.6</ele><time>2022-06-19T07:06:49.000Z</time></trkpt><trkpt lon="5.957901" lat="51.291681"><ele>-6.4</ele><time>2022-06-19T07:06:50.000Z</time></trkpt><trkpt lon="5.957957" lat="51.291741"><ele>-6.4</ele><time>2022-06-19T07:06:51.000Z</time></trkpt><trkpt lon="5.958014" lat="51.291808"><ele>-6.6</ele><time>2022-06-19T07:06:52.000Z</time></trkpt><trkpt lon="5.95807" lat="51.29187"><ele>-6.8</ele><time>2022-06-19T07:06:53.000Z</time></trkpt><trkpt lon="5.95813" lat="51.291938"><ele>-7</ele><time>2022-06-19T07:06:54.000Z</time></trkpt><trkpt lon="5.95819" lat="51.292009"><ele>-7</ele><time>2022-06-19T07:06:55.000Z</time></trkpt><trkpt lon="5.958245" lat="51.292075"><ele>-7</ele><time>2022-06-19T07:06:56.000Z</time></trkpt><trkpt lon="5.958296" lat="51.292139"><ele>-7.2</ele><time>2022-06-19T07:06:57.000Z</time></trkpt><trkpt lon="5.958347" lat="51.292211"><ele>-7.2</ele><time>2022-06-19T07:06:58.000Z</time></trkpt><trkpt lon="5.958391" lat="51.292275"><ele>-7.2</ele><time>2022-06-19T07:06:59.000Z</time></trkpt><trkpt lon="5.958441" lat="51.292345"><ele>-7.2</ele><time>2022-06-19T07:07:00.000Z</time></trkpt><trkpt lon="5.958486" lat="51.292411"><ele>-7</ele><time>2022-06-19T07:07:01.000Z</time></trkpt><trkpt lon="5.958532" lat="51.292479"><ele>-7</ele><time>2022-06-19T07:07:02.000Z</time></trkpt><trkpt lon="5.958575" lat="51.292543"><ele>-7</ele><time>2022-06-19T07:07:03.000Z</time></trkpt><trkpt lon="5.95862" lat="51.292612"><ele>-7</ele><time>2022-06-19T07:07:04.000Z</time></trkpt><trkpt lon="5.958662" lat="51.292677"><ele>-7.2</ele><time>2022-06-19T07:07:05.000Z</time></trkpt><trkpt lon="5.958704" lat="51.292745"><ele>-7.2</ele><time>2022-06-19T07:07:06.000Z</time></trkpt><trkpt lon="5.958744" lat="51.292811"><ele>-7.2</ele><time>2022-06-19T07:07:07.000Z</time></trkpt><trkpt lon="5.95878" lat="51.292878"><ele>-7</ele><time>2022-06-19T07:07:08.000Z</time></trkpt><trkpt lon="5.958819" lat="51.292944"><ele>-7.2</ele><time>2022-06-19T07:07:09.000Z</time></trkpt><trkpt lon="5.958856" lat="51.293006"><ele>-7.2</ele><time>2022-06-19T07:07:10.000Z</time></trkpt><trkpt lon="5.958895" lat="51.293073"><ele>-7.2</ele><time>2022-06-19T07:07:11.000Z</time></trkpt><trkpt lon="5.958932" lat="51.293142"><ele>-7.2</ele><time>2022-06-19T07:07:12.000Z</time></trkpt><trkpt lon="5.95897" lat="51.293206"><ele>-7.4</ele><time>2022-06-19T07:07:13.000Z</time></trkpt><trkpt lon="5.959005" lat="51.293271"><ele>-7.2</ele><time>2022-06-19T07:07:14.000Z</time></trkpt><trkpt lon="5.959039" lat="51.293337"><ele>-7.2</ele><time>2022-06-19T07:07:15.000Z</time></trkpt><trkpt lon="5.959074" lat="51.293398"><ele>-7.2</ele><time>2022-06-19T07:07:16.000Z</time></trkpt><trkpt lon="5.959111" lat="51.293463"><ele>-7.2</ele><time>2022-06-19T07:07:17.000Z</time></trkpt><trkpt lon="5.959145" lat="51.293523"><ele>-7</ele><time>2022-06-19T07:07:18.000Z</time></trkpt><trkpt lon="5.959179" lat="51.293588"><ele>-7</ele><time>2022-06-19T07:07:19.000Z</time></trkpt><trkpt lon="5.959214" lat="51.29365"><ele>-7</ele><time>2022-06-19T07:07:20.000Z</time></trkpt><trkpt lon="5.959247" lat="51.293714"><ele>-6.8</ele><time>2022-06-19T07:07:21.000Z</time></trkpt><trkpt lon="5.959279" lat="51.293772"><ele>-6.8</ele><time>2022-06-19T07:07:22.000Z</time></trkpt><trkpt lon="5.959307" lat="51.293833"><ele>-6.8</ele><time>2022-06-19T07:07:23.000Z</time></trkpt><trkpt lon="5.959332" lat="51.293893"><ele>-6.8</ele><time>2022-06-19T07:07:24.000Z</time></trkpt><trkpt lon="5.959354" lat="51.293952"><ele>-6.8</ele><time>2022-06-19T07:07:25.000Z</time></trkpt><trkpt lon="5.959374" lat="51.294009"><ele>-6.8</ele><time>2022-06-19T07:07:26.000Z</time></trkpt><trkpt lon="5.959394" lat="51.294062"><ele>-6.6</ele><time>2022-06-19T07:07:27.000Z</time></trkpt><trkpt lon="5.959403" lat="51.294115"><ele>-6.6</ele><time>2022-06-19T07:07:28.000Z</time></trkpt><trkpt lon="5.959389" lat="51.294169"><ele>-6.6</ele><time>2022-06-19T07:07:29.000Z</time></trkpt><trkpt lon="5.959353" lat="51.294212"><ele>-6.4</ele><time>2022-06-19T07:07:30.000Z</time></trkpt><trkpt lon="5.959297" lat="51.294249"><ele>-6.6</ele><time>2022-06-19T07:07:31.000Z</time></trkpt><trkpt lon="5.959255" lat="51.29428"><ele>-6.6</ele><time>2022-06-19T07:07:32.000Z</time></trkpt><trkpt lon="5.959237" lat="51.294318"><ele>-6.6</ele><time>2022-06-19T07:07:33.000Z</time></trkpt><trkpt lon="5.959235" lat="51.294356"><ele>-6.6</ele><time>2022-06-19T07:07:34.000Z</time></trkpt><trkpt lon="5.95924" lat="51.294398"><ele>-6.6</ele><time>2022-06-19T07:07:35.000Z</time></trkpt><trkpt lon="5.959261" lat="51.294436"><ele>-6.6</ele><time>2022-06-19T07:07:36.000Z</time></trkpt><trkpt lon="5.959313" lat="51.294467"><ele>-6.6</ele><time>2022-06-19T07:07:37.000Z</time></trkpt><trkpt lon="5.959392" lat="51.294483"><ele>-6.6</ele><time>2022-06-19T07:07:38.000Z</time></trkpt><trkpt lon="5.959483" lat="51.294498"><ele>-6.6</ele><time>2022-06-19T07:07:39.000Z</time></trkpt><trkpt lon="5.959576" lat="51.294524"><ele>-6.4</ele><time>2022-06-19T07:07:40.000Z</time></trkpt><trkpt lon="5.959661" lat="51.294562"><ele>-6.4</ele><time>2022-06-19T07:07:41.000Z</time></trkpt><trkpt lon="5.959743" lat="51.294601"><ele>-6.4</ele><time>2022-06-19T07:07:42.000Z</time></trkpt><trkpt lon="5.959813" lat="51.294652"><ele>-6.2</ele><time>2022-06-19T07:07:43.000Z</time></trkpt><trkpt lon="5.959882" lat="51.294706"><ele>-6.2</ele><time>2022-06-19T07:07:44.000Z</time></trkpt><trkpt lon="5.959947" lat="51.294767"><ele>-6.2</ele><time>2022-06-19T07:07:45.000Z</time></trkpt><trkpt lon="5.960006" lat="51.294823"><ele>-6.2</ele><time>2022-06-19T07:07:46.000Z</time></trkpt><trkpt lon="5.960071" lat="51.294885"><ele>-6.2</ele><time>2022-06-19T07:07:47.000Z</time></trkpt><trkpt lon="5.960135" lat="51.294947"><ele>-6.2</ele><time>2022-06-19T07:07:48.000Z</time></trkpt><trkpt lon="5.960195" lat="51.295007"><ele>-6.2</ele><time>2022-06-19T07:07:49.000Z</time></trkpt><trkpt lon="5.96026" lat="51.295069"><ele>-6.2</ele><time>2022-06-19T07:07:50.000Z</time></trkpt><trkpt lon="5.960318" lat="51.29513"><ele>-6.2</ele><time>2022-06-19T07:07:51.000Z</time></trkpt><trkpt lon="5.960376" lat="51.295194"><ele>-6</ele><time>2022-06-19T07:07:52.000Z</time></trkpt><trkpt lon="5.960435" lat="51.29526"><ele>-6</ele><time>2022-06-19T07:07:53.000Z</time></trkpt><trkpt lon="5.960493" lat="51.29532"><ele>-5.8</ele><time>2022-06-19T07:07:54.000Z</time></trkpt><trkpt lon="5.96055" lat="51.295386"><ele>-6</ele><time>2022-06-19T07:07:55.000Z</time></trkpt><trkpt lon="5.960608" lat="51.295445"><ele>-6</ele><time>2022-06-19T07:07:56.000Z</time></trkpt><trkpt lon="5.96067" lat="51.295506"><ele>-6.2</ele><time>2022-06-19T07:07:57.000Z</time></trkpt><trkpt lon="5.960733" lat="51.295569"><ele>-6.4</ele><time>2022-06-19T07:07:58.000Z</time></trkpt><trkpt lon="5.960795" lat="51.29563"><ele>-6.4</ele><time>2022-06-19T07:07:59.000Z</time></trkpt><trkpt lon="5.960857" lat="51.295687"><ele>-6.4</ele><time>2022-06-19T07:08:00.000Z</time></trkpt><trkpt lon="5.96092" lat="51.295748"><ele>-6.6</ele><time>2022-06-19T07:08:01.000Z</time></trkpt><trkpt lon="5.960984" lat="51.295804"><ele>-6.4</ele><time>2022-06-19T07:08:02.000Z</time></trkpt><trkpt lon="5.961048" lat="51.295861"><ele>-6.6</ele><time>2022-06-19T07:08:03.000Z</time></trkpt><trkpt lon="5.961115" lat="51.295922"><ele>-6.6</ele><time>2022-06-19T07:08:04.000Z</time></trkpt><trkpt lon="5.961181" lat="51.29598"><ele>-6.4</ele><time>2022-06-19T07:08:05.000Z</time></trkpt><trkpt lon="5.961249" lat="51.296038"><ele>-6.4</ele><time>2022-06-19T07:08:06.000Z</time></trkpt><trkpt lon="5.961317" lat="51.296095"><ele>-6.4</ele><time>2022-06-19T07:08:07.000Z</time></trkpt><trkpt lon="5.961387" lat="51.296153"><ele>-6.4</ele><time>2022-06-19T07:08:08.000Z</time></trkpt><trkpt lon="5.961454" lat="51.296208"><ele>-6.4</ele><time>2022-06-19T07:08:09.000Z</time></trkpt><trkpt lon="5.961526" lat="51.296265"><ele>-6.4</ele><time>2022-06-19T07:08:10.000Z</time></trkpt><trkpt lon="5.961599" lat="51.296324"><ele>-6.4</ele><time>2022-06-19T07:08:11.000Z</time></trkpt><trkpt lon="5.961672" lat="51.296377"><ele>-6.2</ele><time>2022-06-19T07:08:12.000Z</time></trkpt><trkpt lon="5.961743" lat="51.296434"><ele>-6.2</ele><time>2022-06-19T07:08:13.000Z</time></trkpt><trkpt lon="5.961818" lat="51.296492"><ele>-6.4</ele><time>2022-06-19T07:08:14.000Z</time></trkpt><trkpt lon="5.961891" lat="51.296545"><ele>-6.6</ele><time>2022-06-19T07:08:15.000Z</time></trkpt><trkpt lon="5.961964" lat="51.296599"><ele>-6.4</ele><time>2022-06-19T07:08:16.000Z</time></trkpt><trkpt lon="5.962038" lat="51.296652"><ele>-6.4</ele><time>2022-06-19T07:08:17.000Z</time></trkpt><trkpt lon="5.962115" lat="51.296705"><ele>-6.2</ele><time>2022-06-19T07:08:18.000Z</time></trkpt><trkpt lon="5.962193" lat="51.296758"><ele>-6.2</ele><time>2022-06-19T07:08:19.000Z</time></trkpt><trkpt lon="5.962273" lat="51.296816"><ele>-6</ele><time>2022-06-19T07:08:20.000Z</time></trkpt><trkpt lon="5.962354" lat="51.29687"><ele>-6</ele><time>2022-06-19T07:08:21.000Z</time></trkpt><trkpt lon="5.962431" lat="51.296923"><ele>-6</ele><time>2022-06-19T07:08:22.000Z</time></trkpt><trkpt lon="5.962509" lat="51.296975"><ele>-6</ele><time>2022-06-19T07:08:23.000Z</time></trkpt><trkpt lon="5.962589" lat="51.297029"><ele>-6</ele><time>2022-06-19T07:08:24.000Z</time></trkpt><trkpt lon="5.962671" lat="51.297083"><ele>-6</ele><time>2022-06-19T07:08:25.000Z</time></trkpt><trkpt lon="5.962753" lat="51.297129"><ele>-6</ele><time>2022-06-19T07:08:26.000Z</time></trkpt><trkpt lon="5.962834" lat="51.297179"><ele>-6</ele><time>2022-06-19T07:08:27.000Z</time></trkpt><trkpt lon="5.962917" lat="51.297229"><ele>-5.8</ele><time>2022-06-19T07:08:28.000Z</time></trkpt><trkpt lon="5.962998" lat="51.297274"><ele>-5.8</ele><time>2022-06-19T07:08:29.000Z</time></trkpt><trkpt lon="5.963081" lat="51.297323"><ele>-5.6</ele><time>2022-06-19T07:08:30.000Z</time></trkpt><trkpt lon="5.963166" lat="51.297374"><ele>-5.6</ele><time>2022-06-19T07:08:31.000Z</time></trkpt><trkpt lon="5.963251" lat="51.297419"><ele>-5.6</ele><time>2022-06-19T07:08:32.000Z</time></trkpt><trkpt lon="5.963338" lat="51.297465"><ele>-5.6</ele><time>2022-06-19T07:08:33.000Z</time></trkpt><trkpt lon="5.963415" lat="51.297505"><ele>-5.6</ele><time>2022-06-19T07:08:34.000Z</time></trkpt><trkpt lon="5.963513" lat="51.29756"><ele>-5.8</ele><time>2022-06-19T07:08:35.000Z</time></trkpt><trkpt lon="5.963599" lat="51.297609"><ele>-5.8</ele><time>2022-06-19T07:08:36.000Z</time></trkpt><trkpt lon="5.963681" lat="51.297659"><ele>-5.6</ele><time>2022-06-19T07:08:37.000Z</time></trkpt><trkpt lon="5.963759" lat="51.297703"><ele>-5.6</ele><time>2022-06-19T07:08:38.000Z</time></trkpt><trkpt lon="5.963848" lat="51.297751"><ele>-5.6</ele><time>2022-06-19T07:08:39.000Z</time></trkpt><trkpt lon="5.963935" lat="51.297797"><ele>-5.4</ele><time>2022-06-19T07:08:40.000Z</time></trkpt><trkpt lon="5.96401" lat="51.297838"><ele>-5.4</ele><time>2022-06-19T07:08:41.000Z</time></trkpt><trkpt lon="5.964104" lat="51.297888"><ele>-5.4</ele><time>2022-06-19T07:08:42.000Z</time></trkpt><trkpt lon="5.964191" lat="51.297934"><ele>-5.4</ele><time>2022-06-19T07:08:43.000Z</time></trkpt><trkpt lon="5.964275" lat="51.297983"><ele>-5.4</ele><time>2022-06-19T07:08:44.000Z</time></trkpt><trkpt lon="5.964363" lat="51.29803"><ele>-5.6</ele><time>2022-06-19T07:08:45.000Z</time></trkpt><trkpt lon="5.964451" lat="51.298075"><ele>-5.6</ele><time>2022-06-19T07:08:46.000Z</time></trkpt><trkpt lon="5.964537" lat="51.298121"><ele>-5.6</ele><time>2022-06-19T07:08:47.000Z</time></trkpt><trkpt lon="5.964622" lat="51.298167"><ele>-5.4</ele><time>2022-06-19T07:08:48.000Z</time></trkpt><trkpt lon="5.964709" lat="51.298212"><ele>-5.2</ele><time>2022-06-19T07:08:49.000Z</time></trkpt><trkpt lon="5.964793" lat="51.298262"><ele>-5.2</ele><time>2022-06-19T07:08:50.000Z</time></trkpt><trkpt lon="5.964879" lat="51.298308"><ele>-5.2</ele><time>2022-06-19T07:08:51.000Z</time></trkpt><trkpt lon="5.964966" lat="51.298354"><ele>-5.2</ele><time>2022-06-19T07:08:52.000Z</time></trkpt><trkpt lon="5.96505" lat="51.298399"><ele>-5.2</ele><time>2022-06-19T07:08:53.000Z</time></trkpt><trkpt lon="5.965136" lat="51.298445"><ele>-5</ele><time>2022-06-19T07:08:54.000Z</time></trkpt><trkpt lon="5.965223" lat="51.298491"><ele>-5</ele><time>2022-06-19T07:08:55.000Z</time></trkpt><trkpt lon="5.965306" lat="51.298537"><ele>-5</ele><time>2022-06-19T07:08:56.000Z</time></trkpt><trkpt lon="5.965392" lat="51.298582"><ele>-5</ele><time>2022-06-19T07:08:57.000Z</time></trkpt><trkpt lon="5.965478" lat="51.298628"><ele>-5</ele><time>2022-06-19T07:08:58.000Z</time></trkpt><trkpt lon="5.965567" lat="51.298675"><ele>-5</ele><time>2022-06-19T07:08:59.000Z</time></trkpt><trkpt lon="5.965652" lat="51.298724"><ele>-5</ele><time>2022-06-19T07:09:00.000Z</time></trkpt><trkpt lon="5.965739" lat="51.29877"><ele>-4.8</ele><time>2022-06-19T07:09:01.000Z</time></trkpt><trkpt lon="5.96582" lat="51.298819"><ele>-5</ele><time>2022-06-19T07:09:02.000Z</time></trkpt><trkpt lon="5.9659" lat="51.298868"><ele>-4.8</ele><time>2022-06-19T07:09:03.000Z</time></trkpt><trkpt lon="5.965983" lat="51.298917"><ele>-4.8</ele><time>2022-06-19T07:09:04.000Z</time></trkpt><trkpt lon="5.966062" lat="51.298971"><ele>-4.8</ele><time>2022-06-19T07:09:05.000Z</time></trkpt><trkpt lon="5.966136" lat="51.299025"><ele>-4.8</ele><time>2022-06-19T07:09:06.000Z</time></trkpt><trkpt lon="5.966213" lat="51.299071"><ele>-4.8</ele><time>2022-06-19T07:09:07.000Z</time></trkpt><trkpt lon="5.966298" lat="51.299121"><ele>-5</ele><time>2022-06-19T07:09:08.000Z</time></trkpt><trkpt lon="5.966383" lat="51.299167"><ele>-5</ele><time>2022-06-19T07:09:09.000Z</time></trkpt><trkpt lon="5.966473" lat="51.299212"><ele>-5</ele><time>2022-06-19T07:09:10.000Z</time></trkpt><trkpt lon="5.96656" lat="51.299256"><ele>-5</ele><time>2022-06-19T07:09:11.000Z</time></trkpt><trkpt lon="5.966654" lat="51.299304"><ele>-5</ele><time>2022-06-19T07:09:12.000Z</time></trkpt><trkpt lon="5.966745" lat="51.299345"><ele>-5</ele><time>2022-06-19T07:09:13.000Z</time></trkpt><trkpt lon="5.966838" lat="51.299395"><ele>-5</ele><time>2022-06-19T07:09:14.000Z</time></trkpt><trkpt lon="5.966926" lat="51.299444"><ele>-5</ele><time>2022-06-19T07:09:15.000Z</time></trkpt><trkpt lon="5.967019" lat="51.299494"><ele>-5</ele><time>2022-06-19T07:09:16.000Z</time></trkpt><trkpt lon="5.967108" lat="51.29954"><ele>-5</ele><time>2022-06-19T07:09:17.000Z</time></trkpt><trkpt lon="5.967195" lat="51.299589"><ele>-5</ele><time>2022-06-19T07:09:18.000Z</time></trkpt><trkpt lon="5.967286" lat="51.299639"><ele>-5</ele><time>2022-06-19T07:09:19.000Z</time></trkpt><trkpt lon="5.967375" lat="51.299692"><ele>-5</ele><time>2022-06-19T07:09:20.000Z</time></trkpt><trkpt lon="5.967459" lat="51.29975"><ele>-5.2</ele><time>2022-06-19T07:09:21.000Z</time></trkpt><trkpt lon="5.967528" lat="51.299795"><ele>-5</ele><time>2022-06-19T07:09:22.000Z</time></trkpt><trkpt lon="5.967619" lat="51.29986"><ele>-5.2</ele><time>2022-06-19T07:09:23.000Z</time></trkpt><trkpt lon="5.967697" lat="51.299917"><ele>-5.2</ele><time>2022-06-19T07:09:24.000Z</time></trkpt><trkpt lon="5.967774" lat="51.299975"><ele>-5.2</ele><time>2022-06-19T07:09:25.000Z</time></trkpt><trkpt lon="5.967845" lat="51.300036"><ele>-5.2</ele><time>2022-06-19T07:09:26.000Z</time></trkpt><trkpt lon="5.967911" lat="51.300094"><ele>-5.2</ele><time>2022-06-19T07:09:27.000Z</time></trkpt><trkpt lon="5.967982" lat="51.300162"><ele>-5.2</ele><time>2022-06-19T07:09:28.000Z</time></trkpt><trkpt lon="5.968046" lat="51.300226"><ele>-5.4</ele><time>2022-06-19T07:09:29.000Z</time></trkpt><trkpt lon="5.968098" lat="51.300284"><ele>-5.4</ele><time>2022-06-19T07:09:30.000Z</time></trkpt><trkpt lon="5.968163" lat="51.300356"><ele>-5.6</ele><time>2022-06-19T07:09:31.000Z</time></trkpt><trkpt lon="5.968221" lat="51.300424"><ele>-5.6</ele><time>2022-06-19T07:09:32.000Z</time></trkpt><trkpt lon="5.968272" lat="51.300493"><ele>-5.6</ele><time>2022-06-19T07:09:33.000Z</time></trkpt><trkpt lon="5.968317" lat="51.300562"><ele>-5.6</ele><time>2022-06-19T07:09:34.000Z</time></trkpt><trkpt lon="5.968358" lat="51.30063"><ele>-5.6</ele><time>2022-06-19T07:09:35.000Z</time></trkpt><trkpt lon="5.968398" lat="51.300697"><ele>-5.6</ele><time>2022-06-19T07:09:36.000Z</time></trkpt><trkpt lon="5.968437" lat="51.300764"><ele>-5.6</ele><time>2022-06-19T07:09:37.000Z</time></trkpt><trkpt lon="5.968476" lat="51.300833"><ele>-5.6</ele><time>2022-06-19T07:09:38.000Z</time></trkpt><trkpt lon="5.968512" lat="51.300901"><ele>-5.6</ele><time>2022-06-19T07:09:39.000Z</time></trkpt><trkpt lon="5.968546" lat="51.300971"><ele>-5.4</ele><time>2022-06-19T07:09:40.000Z</time></trkpt><trkpt lon="5.968575" lat="51.301037"><ele>-5.4</ele><time>2022-06-19T07:09:41.000Z</time></trkpt><trkpt lon="5.968606" lat="51.301107"><ele>-5.4</ele><time>2022-06-19T07:09:42.000Z</time></trkpt><trkpt lon="5.968631" lat="51.301181"><ele>-5.2</ele><time>2022-06-19T07:09:43.000Z</time></trkpt><trkpt lon="5.968651" lat="51.301247"><ele>-5.2</ele><time>2022-06-19T07:09:44.000Z</time></trkpt><trkpt lon="5.968668" lat="51.301321"><ele>-5.4</ele><time>2022-06-19T07:09:45.000Z</time></trkpt><trkpt lon="5.968686" lat="51.301394"><ele>-5.6</ele><time>2022-06-19T07:09:46.000Z</time></trkpt><trkpt lon="5.968703" lat="51.301467"><ele>-5.6</ele><time>2022-06-19T07:09:47.000Z</time></trkpt><trkpt lon="5.968715" lat="51.301539"><ele>-5.6</ele><time>2022-06-19T07:09:48.000Z</time></trkpt><trkpt lon="5.968728" lat="51.301611"><ele>-5.6</ele><time>2022-06-19T07:09:49.000Z</time></trkpt><trkpt lon="5.968743" lat="51.301684"><ele>-5.6</ele><time>2022-06-19T07:09:50.000Z</time></trkpt><trkpt lon="5.968761" lat="51.301754"><ele>-5.8</ele><time>2022-06-19T07:09:51.000Z</time></trkpt><trkpt lon="5.96878" lat="51.301825"><ele>-5.8</ele><time>2022-06-19T07:09:52.000Z</time></trkpt><trkpt lon="5.968799" lat="51.301894"><ele>-5.8</ele><time>2022-06-19T07:09:53.000Z</time></trkpt><trkpt lon="5.968818" lat="51.301966"><ele>-5.8</ele><time>2022-06-19T07:09:54.000Z</time></trkpt><trkpt lon="5.968834" lat="51.302036"><ele>-5.8</ele><time>2022-06-19T07:09:55.000Z</time></trkpt><trkpt lon="5.968849" lat="51.302108"><ele>-5.6</ele><time>2022-06-19T07:09:56.000Z</time></trkpt><trkpt lon="5.968862" lat="51.302175"><ele>-5.8</ele><time>2022-06-19T07:09:57.000Z</time></trkpt><trkpt lon="5.968876" lat="51.302247"><ele>-5.8</ele><time>2022-06-19T07:09:58.000Z</time></trkpt><trkpt lon="5.968883" lat="51.302317"><ele>-5.8</ele><time>2022-06-19T07:09:59.000Z</time></trkpt><trkpt lon="5.968891" lat="51.302383"><ele>-6</ele><time>2022-06-19T07:10:00.000Z</time></trkpt><trkpt lon="5.968904" lat="51.30245"><ele>-6</ele><time>2022-06-19T07:10:01.000Z</time></trkpt><trkpt lon="5.968917" lat="51.302515"><ele>-6</ele><time>2022-06-19T07:10:02.000Z</time></trkpt><trkpt lon="5.968929" lat="51.30258"><ele>-5.8</ele><time>2022-06-19T07:10:03.000Z</time></trkpt><trkpt lon="5.968938" lat="51.302645"><ele>-5.8</ele><time>2022-06-19T07:10:04.000Z</time></trkpt><trkpt lon="5.968951" lat="51.30271"><ele>-5.6</ele><time>2022-06-19T07:10:05.000Z</time></trkpt><trkpt lon="5.968966" lat="51.302778"><ele>-5.4</ele><time>2022-06-19T07:10:06.000Z</time></trkpt><trkpt lon="5.968986" lat="51.302842"><ele>-5.4</ele><time>2022-06-19T07:10:07.000Z</time></trkpt><trkpt lon="5.969009" lat="51.302911"><ele>-5.4</ele><time>2022-06-19T07:10:08.000Z</time></trkpt><trkpt lon="5.969028" lat="51.302977"><ele>-5.2</ele><time>2022-06-19T07:10:09.000Z</time></trkpt><trkpt lon="5.969046" lat="51.303042"><ele>-5.2</ele><time>2022-06-19T07:10:10.000Z</time></trkpt><trkpt lon="5.969067" lat="51.303108"><ele>-5.2</ele><time>2022-06-19T07:10:11.000Z</time></trkpt><trkpt lon="5.969088" lat="51.303179"><ele>-5.2</ele><time>2022-06-19T07:10:12.000Z</time></trkpt><trkpt lon="5.969114" lat="51.30325"><ele>-5.2</ele><time>2022-06-19T07:10:13.000Z</time></trkpt><trkpt lon="5.969141" lat="51.303324"><ele>-5.2</ele><time>2022-06-19T07:10:14.000Z</time></trkpt><trkpt lon="5.969169" lat="51.303396"><ele>-5.4</ele><time>2022-06-19T07:10:15.000Z</time></trkpt><trkpt lon="5.969191" lat="51.303469"><ele>-5.4</ele><time>2022-06-19T07:10:16.000Z</time></trkpt><trkpt lon="5.969213" lat="51.303541"><ele>-5.4</ele><time>2022-06-19T07:10:17.000Z</time></trkpt><trkpt lon="5.969233" lat="51.303609"><ele>-5.4</ele><time>2022-06-19T07:10:18.000Z</time></trkpt><trkpt lon="5.969253" lat="51.303682"><ele>-5.4</ele><time>2022-06-19T07:10:19.000Z</time></trkpt><trkpt lon="5.969269" lat="51.303753"><ele>-5.6</ele><time>2022-06-19T07:10:20.000Z</time></trkpt><trkpt lon="5.969286" lat="51.303827"><ele>-5.6</ele><time>2022-06-19T07:10:21.000Z</time></trkpt><trkpt lon="5.969306" lat="51.303899"><ele>-5.6</ele><time>2022-06-19T07:10:22.000Z</time></trkpt><trkpt lon="5.969326" lat="51.303969"><ele>-5.6</ele><time>2022-06-19T07:10:23.000Z</time></trkpt><trkpt lon="5.969348" lat="51.304034"><ele>-5.6</ele><time>2022-06-19T07:10:24.000Z</time></trkpt><trkpt lon="5.969371" lat="51.304099"><ele>-5.6</ele><time>2022-06-19T07:10:25.000Z</time></trkpt><trkpt lon="5.969395" lat="51.304165"><ele>-5.6</ele><time>2022-06-19T07:10:26.000Z</time></trkpt><trkpt lon="5.969421" lat="51.304238"><ele>-5.6</ele><time>2022-06-19T07:10:27.000Z</time></trkpt><trkpt lon="5.969445" lat="51.304308"><ele>-5.6</ele><time>2022-06-19T07:10:28.000Z</time></trkpt><trkpt lon="5.969469" lat="51.304376"><ele>-5.4</ele><time>2022-06-19T07:10:29.000Z</time></trkpt><trkpt lon="5.969494" lat="51.304442"><ele>-5.4</ele><time>2022-06-19T07:10:30.000Z</time></trkpt><trkpt lon="5.969519" lat="51.304506"><ele>-5.2</ele><time>2022-06-19T07:10:31.000Z</time></trkpt><trkpt lon="5.969541" lat="51.304571"><ele>-5</ele><time>2022-06-19T07:10:32.000Z</time></trkpt><trkpt lon="5.969568" lat="51.30464"><ele>-5</ele><time>2022-06-19T07:10:33.000Z</time></trkpt><trkpt lon="5.969593" lat="51.304705"><ele>-5</ele><time>2022-06-19T07:10:34.000Z</time></trkpt><trkpt lon="5.96962" lat="51.304774"><ele>-5.2</ele><time>2022-06-19T07:10:35.000Z</time></trkpt><trkpt lon="5.969648" lat="51.304842"><ele>-5.2</ele><time>2022-06-19T07:10:36.000Z</time></trkpt><trkpt lon="5.969675" lat="51.304908"><ele>-5.4</ele><time>2022-06-19T07:10:37.000Z</time></trkpt><trkpt lon="5.969702" lat="51.304979"><ele>-5.4</ele><time>2022-06-19T07:10:38.000Z</time></trkpt><trkpt lon="5.969729" lat="51.305048"><ele>-5.2</ele><time>2022-06-19T07:10:39.000Z</time></trkpt><trkpt lon="5.969755" lat="51.305117"><ele>-5.2</ele><time>2022-06-19T07:10:40.000Z</time></trkpt><trkpt lon="5.969776" lat="51.305176"><ele>-5.2</ele><time>2022-06-19T07:10:41.000Z</time></trkpt><trkpt lon="5.969801" lat="51.305246"><ele>-5.2</ele><time>2022-06-19T07:10:42.000Z</time></trkpt><trkpt lon="5.969824" lat="51.305315"><ele>-5.2</ele><time>2022-06-19T07:10:43.000Z</time></trkpt><trkpt lon="5.969848" lat="51.305377"><ele>-5</ele><time>2022-06-19T07:10:44.000Z</time></trkpt><trkpt lon="5.969877" lat="51.305443"><ele>-5</ele><time>2022-06-19T07:10:45.000Z</time></trkpt><trkpt lon="5.969907" lat="51.305505"><ele>-4.8</ele><time>2022-06-19T07:10:46.000Z</time></trkpt><trkpt lon="5.969939" lat="51.305571"><ele>-5</ele><time>2022-06-19T07:10:47.000Z</time></trkpt><trkpt lon="5.969973" lat="51.305636"><ele>-4.8</ele><time>2022-06-19T07:10:48.000Z</time></trkpt><trkpt lon="5.970006" lat="51.305697"><ele>-4.8</ele><time>2022-06-19T07:10:49.000Z</time></trkpt><trkpt lon="5.970046" lat="51.30576"><ele>-4.6</ele><time>2022-06-19T07:10:50.000Z</time></trkpt><trkpt lon="5.970091" lat="51.305823"><ele>-4.6</ele><time>2022-06-19T07:10:51.000Z</time></trkpt><trkpt lon="5.970138" lat="51.305879"><ele>-4.6</ele><time>2022-06-19T07:10:52.000Z</time></trkpt><trkpt lon="5.970188" lat="51.305935"><ele>-4.6</ele><time>2022-06-19T07:10:53.000Z</time></trkpt><trkpt lon="5.970242" lat="51.305988"><ele>-4.6</ele><time>2022-06-19T07:10:54.000Z</time></trkpt><trkpt lon="5.970304" lat="51.306045"><ele>-4.6</ele><time>2022-06-19T07:10:55.000Z</time></trkpt><trkpt lon="5.970363" lat="51.306094"><ele>-4.8</ele><time>2022-06-19T07:10:56.000Z</time></trkpt><trkpt lon="5.970428" lat="51.306147"><ele>-4.8</ele><time>2022-06-19T07:10:57.000Z</time></trkpt><trkpt lon="5.970497" lat="51.306196"><ele>-5</ele><time>2022-06-19T07:10:58.000Z</time></trkpt><trkpt lon="5.970569" lat="51.306241"><ele>-5</ele><time>2022-06-19T07:10:59.000Z</time></trkpt><trkpt lon="5.970645" lat="51.306288"><ele>-5</ele><time>2022-06-19T07:11:00.000Z</time></trkpt><trkpt lon="5.970723" lat="51.306334"><ele>-5</ele><time>2022-06-19T07:11:01.000Z</time></trkpt><trkpt lon="5.9708" lat="51.306372"><ele>-5.2</ele><time>2022-06-19T07:11:02.000Z</time></trkpt><trkpt lon="5.970889" lat="51.306415"><ele>-5.2</ele><time>2022-06-19T07:11:03.000Z</time></trkpt><trkpt lon="5.970981" lat="51.306453"><ele>-5</ele><time>2022-06-19T07:11:04.000Z</time></trkpt><trkpt lon="5.971077" lat="51.306491"><ele>-5</ele><time>2022-06-19T07:11:05.000Z</time></trkpt><trkpt lon="5.971177" lat="51.306529"><ele>-5</ele><time>2022-06-19T07:11:06.000Z</time></trkpt><trkpt lon="5.971282" lat="51.30656"><ele>-5</ele><time>2022-06-19T07:11:07.000Z</time></trkpt><trkpt lon="5.971392" lat="51.306594"><ele>-5.2</ele><time>2022-06-19T07:11:08.000Z</time></trkpt><trkpt lon="5.971506" lat="51.306629"><ele>-5</ele><time>2022-06-19T07:11:09.000Z</time></trkpt><trkpt lon="5.97161" lat="51.306653"><ele>-5</ele><time>2022-06-19T07:11:10.000Z</time></trkpt><trkpt lon="5.971714" lat="51.306678"><ele>-5</ele><time>2022-06-19T07:11:11.000Z</time></trkpt><trkpt lon="5.97183" lat="51.306703"><ele>-5.2</ele><time>2022-06-19T07:11:12.000Z</time></trkpt><trkpt lon="5.971947" lat="51.306732"><ele>-5.4</ele><time>2022-06-19T07:11:13.000Z</time></trkpt><trkpt lon="5.972051" lat="51.306757"><ele>-5.4</ele><time>2022-06-19T07:11:14.000Z</time></trkpt><trkpt lon="5.972164" lat="51.306781"><ele>-5.2</ele><time>2022-06-19T07:11:15.000Z</time></trkpt><trkpt lon="5.972275" lat="51.306808"><ele>-5.2</ele><time>2022-06-19T07:11:16.000Z</time></trkpt><trkpt lon="5.972385" lat="51.306831"><ele>-5.2</ele><time>2022-06-19T07:11:17.000Z</time></trkpt><trkpt lon="5.972496" lat="51.306857"><ele>-5.2</ele><time>2022-06-19T07:11:18.000Z</time></trkpt><trkpt lon="5.972605" lat="51.306884"><ele>-5.2</ele><time>2022-06-19T07:11:19.000Z</time></trkpt><trkpt lon="5.972713" lat="51.306914"><ele>-5.2</ele><time>2022-06-19T07:11:20.000Z</time></trkpt><trkpt lon="5.972825" lat="51.306941"><ele>-5.2</ele><time>2022-06-19T07:11:21.000Z</time></trkpt><trkpt lon="5.972935" lat="51.306971"><ele>-5.2</ele><time>2022-06-19T07:11:22.000Z</time></trkpt><trkpt lon="5.973047" lat="51.307002"><ele>-5.2</ele><time>2022-06-19T07:11:23.000Z</time></trkpt><trkpt lon="5.973153" lat="51.307036"><ele>-5.2</ele><time>2022-06-19T07:11:24.000Z</time></trkpt><trkpt lon="5.973258" lat="51.307075"><ele>-5</ele><time>2022-06-19T07:11:25.000Z</time></trkpt><trkpt lon="5.973348" lat="51.30711"><ele>-5</ele><time>2022-06-19T07:11:26.000Z</time></trkpt><trkpt lon="5.973449" lat="51.307158"><ele>-4.8</ele><time>2022-06-19T07:11:27.000Z</time></trkpt><trkpt lon="5.973543" lat="51.307204"><ele>-4.8</ele><time>2022-06-19T07:11:28.000Z</time></trkpt><trkpt lon="5.973637" lat="51.307246"><ele>-4.8</ele><time>2022-06-19T07:11:29.000Z</time></trkpt><trkpt lon="5.973717" lat="51.307286"><ele>-4.6</ele><time>2022-06-19T07:11:30.000Z</time></trkpt><trkpt lon="5.973827" lat="51.307341"><ele>-4.6</ele><time>2022-06-19T07:11:31.000Z</time></trkpt><trkpt lon="5.973921" lat="51.307387"><ele>-4.6</ele><time>2022-06-19T07:11:32.000Z</time></trkpt><trkpt lon="5.974016" lat="51.307437"><ele>-4.8</ele><time>2022-06-19T07:11:33.000Z</time></trkpt><trkpt lon="5.974104" lat="51.307485"><ele>-4.8</ele><time>2022-06-19T07:11:34.000Z</time></trkpt><trkpt lon="5.974191" lat="51.30753"><ele>-4.8</ele><time>2022-06-19T07:11:35.000Z</time></trkpt><trkpt lon="5.974281" lat="51.307582"><ele>-4.8</ele><time>2022-06-19T07:11:36.000Z</time></trkpt><trkpt lon="5.974363" lat="51.307625"><ele>-5</ele><time>2022-06-19T07:11:37.000Z</time></trkpt><trkpt lon="5.974454" lat="51.307673"><ele>-5</ele><time>2022-06-19T07:11:38.000Z</time></trkpt><trkpt lon="5.974542" lat="51.307718"><ele>-5</ele><time>2022-06-19T07:11:39.000Z</time></trkpt><trkpt lon="5.974631" lat="51.307765"><ele>-5</ele><time>2022-06-19T07:11:40.000Z</time></trkpt><trkpt lon="5.974714" lat="51.30781"><ele>-5</ele><time>2022-06-19T07:11:41.000Z</time></trkpt><trkpt lon="5.974804" lat="51.30786"><ele>-5.2</ele><time>2022-06-19T07:11:42.000Z</time></trkpt><trkpt lon="5.974897" lat="51.307906"><ele>-5.2</ele><time>2022-06-19T07:11:43.000Z</time></trkpt><trkpt lon="5.974985" lat="51.307951"><ele>-5.2</ele><time>2022-06-19T07:11:44.000Z</time></trkpt><trkpt lon="5.975078" lat="51.308001"><ele>-5</ele><time>2022-06-19T07:11:45.000Z</time></trkpt><trkpt lon="5.975162" lat="51.30805"><ele>-5</ele><time>2022-06-19T07:11:46.000Z</time></trkpt><trkpt lon="5.975243" lat="51.3081"><ele>-4.8</ele><time>2022-06-19T07:11:47.000Z</time></trkpt><trkpt lon="5.975325" lat="51.308145"><ele>-5</ele><time>2022-06-19T07:11:48.000Z</time></trkpt><trkpt lon="5.975417" lat="51.308192"><ele>-4.8</ele><time>2022-06-19T07:11:49.000Z</time></trkpt><trkpt lon="5.975506" lat="51.308241"><ele>-5</ele><time>2022-06-19T07:11:50.000Z</time></trkpt><trkpt lon="5.9756" lat="51.308282"><ele>-5</ele><time>2022-06-19T07:11:51.000Z</time></trkpt><trkpt lon="5.9757" lat="51.308325"><ele>-5.2</ele><time>2022-06-19T07:11:52.000Z</time></trkpt><trkpt lon="5.9758" lat="51.308371"><ele>-5.4</ele><time>2022-06-19T07:11:53.000Z</time></trkpt><trkpt lon="5.975891" lat="51.308417"><ele>-5.4</ele><time>2022-06-19T07:11:54.000Z</time></trkpt><trkpt lon="5.975974" lat="51.308471"><ele>-5.4</ele><time>2022-06-19T07:11:55.000Z</time></trkpt><trkpt lon="5.976058" lat="51.30852"><ele>-5.6</ele><time>2022-06-19T07:11:56.000Z</time></trkpt><trkpt lon="5.976145" lat="51.308574"><ele>-5.6</ele><time>2022-06-19T07:11:57.000Z</time></trkpt><trkpt lon="5.976226" lat="51.308621"><ele>-5.6</ele><time>2022-06-19T07:11:58.000Z</time></trkpt><trkpt lon="5.976313" lat="51.308676"><ele>-5.6</ele><time>2022-06-19T07:11:59.000Z</time></trkpt><trkpt lon="5.976393" lat="51.308729"><ele>-5.4</ele><time>2022-06-19T07:12:00.000Z</time></trkpt><trkpt lon="5.976472" lat="51.308786"><ele>-5.4</ele><time>2022-06-19T07:12:01.000Z</time></trkpt><trkpt lon="5.976541" lat="51.308836"><ele>-5.4</ele><time>2022-06-19T07:12:02.000Z</time></trkpt><trkpt lon="5.976614" lat="51.308889"><ele>-5.2</ele><time>2022-06-19T07:12:03.000Z</time></trkpt><trkpt lon="5.976698" lat="51.308949"><ele>-5.2</ele><time>2022-06-19T07:12:04.000Z</time></trkpt><trkpt lon="5.976775" lat="51.309008"><ele>-5.2</ele><time>2022-06-19T07:12:05.000Z</time></trkpt><trkpt lon="5.976846" lat="51.30906"><ele>-5</ele><time>2022-06-19T07:12:06.000Z</time></trkpt><trkpt lon="5.976919" lat="51.309115"><ele>-5</ele><time>2022-06-19T07:12:07.000Z</time></trkpt><trkpt lon="5.97699" lat="51.309169"><ele>-5</ele><time>2022-06-19T07:12:08.000Z</time></trkpt><trkpt lon="5.97706" lat="51.309222"><ele>-5</ele><time>2022-06-19T07:12:09.000Z</time></trkpt><trkpt lon="5.977125" lat="51.309274"><ele>-5</ele><time>2022-06-19T07:12:10.000Z</time></trkpt><trkpt lon="5.977199" lat="51.309332"><ele>-5</ele><time>2022-06-19T07:12:11.000Z</time></trkpt><trkpt lon="5.97727" lat="51.309384"><ele>-5</ele><time>2022-06-19T07:12:12.000Z</time></trkpt><trkpt lon="5.977343" lat="51.309439"><ele>-5</ele><time>2022-06-19T07:12:13.000Z</time></trkpt><trkpt lon="5.977423" lat="51.309495"><ele>-5</ele><time>2022-06-19T07:12:14.000Z</time></trkpt><trkpt lon="5.977499" lat="51.30955"><ele>-5</ele><time>2022-06-19T07:12:15.000Z</time></trkpt><trkpt lon="5.97758" lat="51.309604"><ele>-5</ele><time>2022-06-19T07:12:16.000Z</time></trkpt><trkpt lon="5.977667" lat="51.309664"><ele>-5</ele><time>2022-06-19T07:12:17.000Z</time></trkpt><trkpt lon="5.977748" lat="51.309718"><ele>-5.2</ele><time>2022-06-19T07:12:18.000Z</time></trkpt><trkpt lon="5.97783" lat="51.309771"><ele>-5.4</ele><time>2022-06-19T07:12:19.000Z</time></trkpt><trkpt lon="5.977911" lat="51.309825"><ele>-5.4</ele><time>2022-06-19T07:12:20.000Z</time></trkpt><trkpt lon="5.977997" lat="51.309874"><ele>-5.4</ele><time>2022-06-19T07:12:21.000Z</time></trkpt><trkpt lon="5.978087" lat="51.309927"><ele>-5.4</ele><time>2022-06-19T07:12:22.000Z</time></trkpt><trkpt lon="5.97817" lat="51.309977"><ele>-5.4</ele><time>2022-06-19T07:12:23.000Z</time></trkpt><trkpt lon="5.978249" lat="51.31003"><ele>-5.4</ele><time>2022-06-19T07:12:24.000Z</time></trkpt><trkpt lon="5.978327" lat="51.310082"><ele>-5.4</ele><time>2022-06-19T07:12:25.000Z</time></trkpt><trkpt lon="5.978413" lat="51.310138"><ele>-5.4</ele><time>2022-06-19T07:12:26.000Z</time></trkpt><trkpt lon="5.978493" lat="51.310189"><ele>-5.4</ele><time>2022-06-19T07:12:27.000Z</time></trkpt><trkpt lon="5.978574" lat="51.310246"><ele>-5.2</ele><time>2022-06-19T07:12:28.000Z</time></trkpt><trkpt lon="5.978652" lat="51.3103"><ele>-5.4</ele><time>2022-06-19T07:12:29.000Z</time></trkpt><trkpt lon="5.978735" lat="51.310359"><ele>-5.4</ele><time>2022-06-19T07:12:30.000Z</time></trkpt><trkpt lon="5.978811" lat="51.310412"><ele>-5.6</ele><time>2022-06-19T07:12:31.000Z</time></trkpt><trkpt lon="5.978894" lat="51.310465"><ele>-5.8</ele><time>2022-06-19T07:12:32.000Z</time></trkpt><trkpt lon="5.978973" lat="51.310519"><ele>-5.8</ele><time>2022-06-19T07:12:33.000Z</time></trkpt><trkpt lon="5.979055" lat="51.310567"><ele>-5.8</ele><time>2022-06-19T07:12:34.000Z</time></trkpt><trkpt lon="5.97914" lat="51.310621"><ele>-5.8</ele><time>2022-06-19T07:12:35.000Z</time></trkpt><trkpt lon="5.979226" lat="51.310675"><ele>-5.6</ele><time>2022-06-19T07:12:36.000Z</time></trkpt><trkpt lon="5.97931" lat="51.310729"><ele>-5.6</ele><time>2022-06-19T07:12:37.000Z</time></trkpt><trkpt lon="5.97939" lat="51.310785"><ele>-5.4</ele><time>2022-06-19T07:12:38.000Z</time></trkpt><trkpt lon="5.979473" lat="51.310843"><ele>-5.2</ele><time>2022-06-19T07:12:39.000Z</time></trkpt><trkpt lon="5.979555" lat="51.310896"><ele>-5.2</ele><time>2022-06-19T07:12:40.000Z</time></trkpt><trkpt lon="5.979639" lat="51.310952"><ele>-5</ele><time>2022-06-19T07:12:41.000Z</time></trkpt><trkpt lon="5.97972" lat="51.311007"><ele>-5</ele><time>2022-06-19T07:12:42.000Z</time></trkpt><trkpt lon="5.979811" lat="51.311064"><ele>-5</ele><time>2022-06-19T07:12:43.000Z</time></trkpt><trkpt lon="5.979889" lat="51.311113"><ele>-5</ele><time>2022-06-19T07:12:44.000Z</time></trkpt><trkpt lon="5.97998" lat="51.311165"><ele>-5</ele><time>2022-06-19T07:12:45.000Z</time></trkpt><trkpt lon="5.980071" lat="51.311217"><ele>-5</ele><time>2022-06-19T07:12:46.000Z</time></trkpt><trkpt lon="5.980161" lat="51.311267"><ele>-5</ele><time>2022-06-19T07:12:47.000Z</time></trkpt><trkpt lon="5.980248" lat="51.311312"><ele>-5</ele><time>2022-06-19T07:12:48.000Z</time></trkpt><trkpt lon="5.980345" lat="51.311358"><ele>-4.8</ele><time>2022-06-19T07:12:49.000Z</time></trkpt><trkpt lon="5.98044" lat="51.311404"><ele>-4.8</ele><time>2022-06-19T07:12:50.000Z</time></trkpt><trkpt lon="5.980537" lat="51.311442"><ele>-4.8</ele><time>2022-06-19T07:12:51.000Z</time></trkpt><trkpt lon="5.980635" lat="51.311478"><ele>-4.8</ele><time>2022-06-19T07:12:52.000Z</time></trkpt><trkpt lon="5.980743" lat="51.311522"><ele>-4.8</ele><time>2022-06-19T07:12:53.000Z</time></trkpt><trkpt lon="5.980839" lat="51.311555"><ele>-4.8</ele><time>2022-06-19T07:12:54.000Z</time></trkpt><trkpt lon="5.980941" lat="51.311589"><ele>-4.8</ele><time>2022-06-19T07:12:55.000Z</time></trkpt><trkpt lon="5.981047" lat="51.311622"><ele>-4.8</ele><time>2022-06-19T07:12:56.000Z</time></trkpt><trkpt lon="5.981146" lat="51.311652"><ele>-4.8</ele><time>2022-06-19T07:12:57.000Z</time></trkpt><trkpt lon="5.981243" lat="51.311686"><ele>-4.8</ele><time>2022-06-19T07:12:58.000Z</time></trkpt><trkpt lon="5.981344" lat="51.311717"><ele>-4.8</ele><time>2022-06-19T07:12:59.000Z</time></trkpt><trkpt lon="5.981448" lat="51.311748"><ele>-4.8</ele><time>2022-06-19T07:13:00.000Z</time></trkpt><trkpt lon="5.981556" lat="51.311782"><ele>-4.8</ele><time>2022-06-19T07:13:01.000Z</time></trkpt><trkpt lon="5.981666" lat="51.311816"><ele>-5</ele><time>2022-06-19T07:13:02.000Z</time></trkpt><trkpt lon="5.981779" lat="51.311851"><ele>-4.8</ele><time>2022-06-19T07:13:03.000Z</time></trkpt><trkpt lon="5.981891" lat="51.311888"><ele>-4.8</ele><time>2022-06-19T07:13:04.000Z</time></trkpt><trkpt lon="5.982007" lat="51.311923"><ele>-4.8</ele><time>2022-06-19T07:13:05.000Z</time></trkpt><trkpt lon="5.982117" lat="51.311957"><ele>-4.8</ele><time>2022-06-19T07:13:06.000Z</time></trkpt><trkpt lon="5.982223" lat="51.311992"><ele>-4.8</ele><time>2022-06-19T07:13:07.000Z</time></trkpt><trkpt lon="5.982333" lat="51.31203"><ele>-4.6</ele><time>2022-06-19T07:13:08.000Z</time></trkpt><trkpt lon="5.98244" lat="51.312064"><ele>-4.6</ele><time>2022-06-19T07:13:09.000Z</time></trkpt><trkpt lon="5.982548" lat="51.312099"><ele>-4.6</ele><time>2022-06-19T07:13:10.000Z</time></trkpt><trkpt lon="5.98265" lat="51.312128"><ele>-4.6</ele><time>2022-06-19T07:13:11.000Z</time></trkpt><trkpt lon="5.982753" lat="51.312162"><ele>-4.6</ele><time>2022-06-19T07:13:12.000Z</time></trkpt><trkpt lon="5.982861" lat="51.312194"><ele>-4.6</ele><time>2022-06-19T07:13:13.000Z</time></trkpt><trkpt lon="5.982967" lat="51.312231"><ele>-4.6</ele><time>2022-06-19T07:13:14.000Z</time></trkpt><trkpt lon="5.98307" lat="51.312265"><ele>-4.6</ele><time>2022-06-19T07:13:15.000Z</time></trkpt><trkpt lon="5.983179" lat="51.3123"><ele>-4.6</ele><time>2022-06-19T07:13:16.000Z</time></trkpt><trkpt lon="5.983282" lat="51.312333"><ele>-4.6</ele><time>2022-06-19T07:13:17.000Z</time></trkpt><trkpt lon="5.98338" lat="51.312362"><ele>-4.6</ele><time>2022-06-19T07:13:18.000Z</time></trkpt><trkpt lon="5.983493" lat="51.3124"><ele>-4.4</ele><time>2022-06-19T07:13:19.000Z</time></trkpt><trkpt lon="5.9836" lat="51.312434"><ele>-4.4</ele><time>2022-06-19T07:13:20.000Z</time></trkpt><trkpt lon="5.98371" lat="51.312472"><ele>-4.4</ele><time>2022-06-19T07:13:21.000Z</time></trkpt><trkpt lon="5.983812" lat="51.312502"><ele>-4.4</ele><time>2022-06-19T07:13:22.000Z</time></trkpt><trkpt lon="5.983914" lat="51.312537"><ele>-4.4</ele><time>2022-06-19T07:13:23.000Z</time></trkpt><trkpt lon="5.984012" lat="51.312575"><ele>-4.4</ele><time>2022-06-19T07:13:24.000Z</time></trkpt><trkpt lon="5.984116" lat="51.31261"><ele>-4.4</ele><time>2022-06-19T07:13:25.000Z</time></trkpt><trkpt lon="5.984221" lat="51.312644"><ele>-4.4</ele><time>2022-06-19T07:13:26.000Z</time></trkpt><trkpt lon="5.984331" lat="51.312678"><ele>-4.4</ele><time>2022-06-19T07:13:27.000Z</time></trkpt><trkpt lon="5.984439" lat="51.312713"><ele>-4.4</ele><time>2022-06-19T07:13:28.000Z</time></trkpt><trkpt lon="5.984547" lat="51.312747"><ele>-4.4</ele><time>2022-06-19T07:13:29.000Z</time></trkpt><trkpt lon="5.984631" lat="51.312774"><ele>-4.4</ele><time>2022-06-19T07:13:30.000Z</time></trkpt><trkpt lon="5.984759" lat="51.312815"><ele>-4.6</ele><time>2022-06-19T07:13:31.000Z</time></trkpt><trkpt lon="5.984869" lat="51.31285"><ele>-4.6</ele><time>2022-06-19T07:13:32.000Z</time></trkpt><trkpt lon="5.984977" lat="51.312884"><ele>-4.4</ele><time>2022-06-19T07:13:33.000Z</time></trkpt><trkpt lon="5.985085" lat="51.312922"><ele>-4.4</ele><time>2022-06-19T07:13:34.000Z</time></trkpt><trkpt lon="5.985192" lat="51.312953"><ele>-4.2</ele><time>2022-06-19T07:13:35.000Z</time></trkpt><trkpt lon="5.9853" lat="51.312987"><ele>-4.2</ele><time>2022-06-19T07:13:36.000Z</time></trkpt><trkpt lon="5.985404" lat="51.313022"><ele>-4.2</ele><time>2022-06-19T07:13:37.000Z</time></trkpt><trkpt lon="5.985512" lat="51.313056"><ele>-4.2</ele><time>2022-06-19T07:13:38.000Z</time></trkpt><trkpt lon="5.985622" lat="51.313094"><ele>-4.4</ele><time>2022-06-19T07:13:39.000Z</time></trkpt><trkpt lon="5.985733" lat="51.313132"><ele>-4.4</ele><time>2022-06-19T07:13:40.000Z</time></trkpt><trkpt lon="5.985827" lat="51.313163"><ele>-4.4</ele><time>2022-06-19T07:13:41.000Z</time></trkpt><trkpt lon="5.985933" lat="51.313197"><ele>-4.4</ele><time>2022-06-19T07:13:42.000Z</time></trkpt><trkpt lon="5.986052" lat="51.313235"><ele>-4.4</ele><time>2022-06-19T07:13:43.000Z</time></trkpt><trkpt lon="5.98616" lat="51.31327"><ele>-4.2</ele><time>2022-06-19T07:13:44.000Z</time></trkpt><trkpt lon="5.986269" lat="51.313304"><ele>-4.2</ele><time>2022-06-19T07:13:45.000Z</time></trkpt><trkpt lon="5.986375" lat="51.313338"><ele>-4.2</ele><time>2022-06-19T07:13:46.000Z</time></trkpt><trkpt lon="5.986485" lat="51.313373"><ele>-4.2</ele><time>2022-06-19T07:13:47.000Z</time></trkpt><trkpt lon="5.98659" lat="51.31341"><ele>-4</ele><time>2022-06-19T07:13:48.000Z</time></trkpt><trkpt lon="5.986694" lat="51.313441"><ele>-4</ele><time>2022-06-19T07:13:49.000Z</time></trkpt><trkpt lon="5.986794" lat="51.313475"><ele>-4</ele><time>2022-06-19T07:13:50.000Z</time></trkpt><trkpt lon="5.986899" lat="51.31351"><ele>-4</ele><time>2022-06-19T07:13:51.000Z</time></trkpt><trkpt lon="5.987002" lat="51.313544"><ele>-4</ele><time>2022-06-19T07:13:52.000Z</time></trkpt><trkpt lon="5.987103" lat="51.313578"><ele>-4</ele><time>2022-06-19T07:13:53.000Z</time></trkpt><trkpt lon="5.987205" lat="51.313613"><ele>-3.8</ele><time>2022-06-19T07:13:54.000Z</time></trkpt><trkpt lon="5.987302" lat="51.313647"><ele>-3.8</ele><time>2022-06-19T07:13:55.000Z</time></trkpt><trkpt lon="5.987404" lat="51.313678"><ele>-4</ele><time>2022-06-19T07:13:56.000Z</time></trkpt><trkpt lon="5.987508" lat="51.313716"><ele>-4</ele><time>2022-06-19T07:13:57.000Z</time></trkpt><trkpt lon="5.987616" lat="51.313747"><ele>-4</ele><time>2022-06-19T07:13:58.000Z</time></trkpt><trkpt lon="5.987724" lat="51.313781"><ele>-4</ele><time>2022-06-19T07:13:59.000Z</time></trkpt><trkpt lon="5.987829" lat="51.313815"><ele>-4</ele><time>2022-06-19T07:14:00.000Z</time></trkpt><trkpt lon="5.987929" lat="51.313849"><ele>-3.8</ele><time>2022-06-19T07:14:01.000Z</time></trkpt><trkpt lon="5.988034" lat="51.313884"><ele>-3.8</ele><time>2022-06-19T07:14:02.000Z</time></trkpt><trkpt lon="5.988132" lat="51.313914"><ele>-3.6</ele><time>2022-06-19T07:14:03.000Z</time></trkpt><trkpt lon="5.98823" lat="51.313945"><ele>-3.6</ele><time>2022-06-19T07:14:04.000Z</time></trkpt><trkpt lon="5.988329" lat="51.313979"><ele>-3.6</ele><time>2022-06-19T07:14:05.000Z</time></trkpt><trkpt lon="5.988421" lat="51.314016"><ele>-3.6</ele><time>2022-06-19T07:14:06.000Z</time></trkpt><trkpt lon="5.988512" lat="51.31405"><ele>-3.6</ele><time>2022-06-19T07:14:07.000Z</time></trkpt><trkpt lon="5.988603" lat="51.314087"><ele>-3.6</ele><time>2022-06-19T07:14:08.000Z</time></trkpt><trkpt lon="5.988691" lat="51.314123"><ele>-3.6</ele><time>2022-06-19T07:14:09.000Z</time></trkpt><trkpt lon="5.98881" lat="51.314166"><ele>-3.6</ele><time>2022-06-19T07:14:10.000Z</time></trkpt><trkpt lon="5.988904" lat="51.314199"><ele>-3.6</ele><time>2022-06-19T07:14:11.000Z</time></trkpt><trkpt lon="5.989006" lat="51.314234"><ele>-3.6</ele><time>2022-06-19T07:14:12.000Z</time></trkpt><trkpt lon="5.989106" lat="51.314264"><ele>-3.6</ele><time>2022-06-19T07:14:13.000Z</time></trkpt><trkpt lon="5.98921" lat="51.314295"><ele>-3.6</ele><time>2022-06-19T07:14:14.000Z</time></trkpt><trkpt lon="5.989312" lat="51.31433"><ele>-3.6</ele><time>2022-06-19T07:14:15.000Z</time></trkpt><trkpt lon="5.989413" lat="51.314361"><ele>-3.6</ele><time>2022-06-19T07:14:16.000Z</time></trkpt><trkpt lon="5.989515" lat="51.314399"><ele>-3.6</ele><time>2022-06-19T07:14:17.000Z</time></trkpt><trkpt lon="5.989616" lat="51.31443"><ele>-3.6</ele><time>2022-06-19T07:14:18.000Z</time></trkpt><trkpt lon="5.989716" lat="51.314464"><ele>-3.6</ele><time>2022-06-19T07:14:19.000Z</time></trkpt><trkpt lon="5.989806" lat="51.314497"><ele>-3.6</ele><time>2022-06-19T07:14:20.000Z</time></trkpt><trkpt lon="5.989891" lat="51.314532"><ele>-3.6</ele><time>2022-06-19T07:14:21.000Z</time></trkpt><trkpt lon="5.989965" lat="51.314559"><ele>-3.6</ele><time>2022-06-19T07:14:22.000Z</time></trkpt><trkpt lon="5.990035" lat="51.314579"><ele>-3.6</ele><time>2022-06-19T07:14:23.000Z</time></trkpt><trkpt lon="5.990087" lat="51.314588"><ele>-3.6</ele><time>2022-06-19T07:14:24.000Z</time></trkpt><trkpt lon="5.990164" lat="51.314598"><ele>-3.4</ele><time>2022-06-19T07:14:25.000Z</time></trkpt><trkpt lon="5.990237" lat="51.314602"><ele>-3.4</ele><time>2022-06-19T07:14:26.000Z</time></trkpt><trkpt lon="5.990304" lat="51.314613"><ele>-3.4</ele><time>2022-06-19T07:14:27.000Z</time></trkpt><trkpt lon="5.990374" lat="51.314624"><ele>-3.4</ele><time>2022-06-19T07:14:28.000Z</time></trkpt><trkpt lon="5.990443" lat="51.314639"><ele>-3.4</ele><time>2022-06-19T07:14:29.000Z</time></trkpt><trkpt lon="5.990515" lat="51.314654"><ele>-3.4</ele><time>2022-06-19T07:14:30.000Z</time></trkpt><trkpt lon="5.990589" lat="51.31467"><ele>-3.4</ele><time>2022-06-19T07:14:31.000Z</time></trkpt><trkpt lon="5.990659" lat="51.314692"><ele>-3.4</ele><time>2022-06-19T07:14:32.000Z</time></trkpt><trkpt lon="5.990726" lat="51.314714"><ele>-3.4</ele><time>2022-06-19T07:14:33.000Z</time></trkpt><trkpt lon="5.990793" lat="51.314737"><ele>-3.4</ele><time>2022-06-19T07:14:34.000Z</time></trkpt><trkpt lon="5.990863" lat="51.314765"><ele>-3.4</ele><time>2022-06-19T07:14:35.000Z</time></trkpt><trkpt lon="5.990932" lat="51.314791"><ele>-3.6</ele><time>2022-06-19T07:14:36.000Z</time></trkpt><trkpt lon="5.991005" lat="51.314822"><ele>-3.6</ele><time>2022-06-19T07:14:37.000Z</time></trkpt><trkpt lon="5.99108" lat="51.314846"><ele>-3.6</ele><time>2022-06-19T07:14:38.000Z</time></trkpt><trkpt lon="5.99116" lat="51.314872"><ele>-3.6</ele><time>2022-06-19T07:14:39.000Z</time></trkpt><trkpt lon="5.991248" lat="51.314902"><ele>-3.6</ele><time>2022-06-19T07:14:40.000Z</time></trkpt><trkpt lon="5.991338" lat="51.314933"><ele>-3.6</ele><time>2022-06-19T07:14:41.000Z</time></trkpt><trkpt lon="5.99142" lat="51.314963"><ele>-3.6</ele><time>2022-06-19T07:14:42.000Z</time></trkpt><trkpt lon="5.99151" lat="51.314996"><ele>-3.4</ele><time>2022-06-19T07:14:43.000Z</time></trkpt><trkpt lon="5.991603" lat="51.31503"><ele>-3.4</ele><time>2022-06-19T07:14:44.000Z</time></trkpt><trkpt lon="5.991692" lat="51.315062"><ele>-3.6</ele><time>2022-06-19T07:14:45.000Z</time></trkpt><trkpt lon="5.991782" lat="51.315097"><ele>-3.4</ele><time>2022-06-19T07:14:46.000Z</time></trkpt><trkpt lon="5.991872" lat="51.315127"><ele>-3.4</ele><time>2022-06-19T07:14:47.000Z</time></trkpt><trkpt lon="5.991968" lat="51.315158"><ele>-3.4</ele><time>2022-06-19T07:14:48.000Z</time></trkpt><trkpt lon="5.992068" lat="51.315191"><ele>-3.2</ele><time>2022-06-19T07:14:49.000Z</time></trkpt><trkpt lon="5.992168" lat="51.315223"><ele>-3.2</ele><time>2022-06-19T07:14:50.000Z</time></trkpt><trkpt lon="5.99227" lat="51.315257"><ele>-3.2</ele><time>2022-06-19T07:14:51.000Z</time></trkpt><trkpt lon="5.992367" lat="51.315287"><ele>-3.2</ele><time>2022-06-19T07:14:52.000Z</time></trkpt><trkpt lon="5.99247" lat="51.315322"><ele>-3.2</ele><time>2022-06-19T07:14:53.000Z</time></trkpt><trkpt lon="5.992566" lat="51.315352"><ele>-3.2</ele><time>2022-06-19T07:14:54.000Z</time></trkpt><trkpt lon="5.992665" lat="51.315383"><ele>-3.2</ele><time>2022-06-19T07:14:55.000Z</time></trkpt><trkpt lon="5.992759" lat="51.315417"><ele>-3.2</ele><time>2022-06-19T07:14:56.000Z</time></trkpt><trkpt lon="5.992853" lat="51.315452"><ele>-3</ele><time>2022-06-19T07:14:57.000Z</time></trkpt><trkpt lon="5.992944" lat="51.31549"><ele>-3</ele><time>2022-06-19T07:14:58.000Z</time></trkpt><trkpt lon="5.993036" lat="51.315528"><ele>-3</ele><time>2022-06-19T07:14:59.000Z</time></trkpt><trkpt lon="5.993117" lat="51.315567"><ele>-3</ele><time>2022-06-19T07:15:00.000Z</time></trkpt><trkpt lon="5.9932" lat="51.315606"><ele>-3</ele><time>2022-06-19T07:15:01.000Z</time></trkpt><trkpt lon="5.993283" lat="51.31565"><ele>-3</ele><time>2022-06-19T07:15:02.000Z</time></trkpt><trkpt lon="5.993358" lat="51.315696"><ele>-3</ele><time>2022-06-19T07:15:03.000Z</time></trkpt><trkpt lon="5.993428" lat="51.315736"><ele>-3.2</ele><time>2022-06-19T07:15:04.000Z</time></trkpt><trkpt lon="5.993502" lat="51.315783"><ele>-3.2</ele><time>2022-06-19T07:15:05.000Z</time></trkpt><trkpt lon="5.993578" lat="51.315829"><ele>-3.2</ele><time>2022-06-19T07:15:06.000Z</time></trkpt><trkpt lon="5.993657" lat="51.315875"><ele>-3.2</ele><time>2022-06-19T07:15:07.000Z</time></trkpt><trkpt lon="5.993733" lat="51.315921"><ele>-3.2</ele><time>2022-06-19T07:15:08.000Z</time></trkpt><trkpt lon="5.993808" lat="51.315969"><ele>-3.2</ele><time>2022-06-19T07:15:09.000Z</time></trkpt><trkpt lon="5.993888" lat="51.316016"><ele>-3.2</ele><time>2022-06-19T07:15:10.000Z</time></trkpt><trkpt lon="5.993966" lat="51.316064"><ele>-3.2</ele><time>2022-06-19T07:15:11.000Z</time></trkpt><trkpt lon="5.994048" lat="51.316115"><ele>-3.2</ele><time>2022-06-19T07:15:12.000Z</time></trkpt><trkpt lon="5.994128" lat="51.316161"><ele>-3.2</ele><time>2022-06-19T07:15:13.000Z</time></trkpt><trkpt lon="5.994205" lat="51.316208"><ele>-3.2</ele><time>2022-06-19T07:15:14.000Z</time></trkpt><trkpt lon="5.994289" lat="51.316264"><ele>-3</ele><time>2022-06-19T07:15:15.000Z</time></trkpt><trkpt lon="5.994376" lat="51.316317"><ele>-3</ele><time>2022-06-19T07:15:16.000Z</time></trkpt><trkpt lon="5.99446" lat="51.316367"><ele>-3</ele><time>2022-06-19T07:15:17.000Z</time></trkpt><trkpt lon="5.994541" lat="51.316415"><ele>-3</ele><time>2022-06-19T07:15:18.000Z</time></trkpt><trkpt lon="5.994623" lat="51.316469"><ele>-2.8</ele><time>2022-06-19T07:15:19.000Z</time></trkpt><trkpt lon="5.994703" lat="51.316523"><ele>-2.8</ele><time>2022-06-19T07:15:20.000Z</time></trkpt><trkpt lon="5.994776" lat="51.316579"><ele>-2.8</ele><time>2022-06-19T07:15:21.000Z</time></trkpt><trkpt lon="5.994854" lat="51.316632"><ele>-3</ele><time>2022-06-19T07:15:22.000Z</time></trkpt><trkpt lon="5.994932" lat="51.316685"><ele>-2.8</ele><time>2022-06-19T07:15:23.000Z</time></trkpt><trkpt lon="5.995012" lat="51.31674"><ele>-2.8</ele><time>2022-06-19T07:15:24.000Z</time></trkpt><trkpt lon="5.995088" lat="51.316793"><ele>-2.8</ele><time>2022-06-19T07:15:25.000Z</time></trkpt><trkpt lon="5.995164" lat="51.316854"><ele>-2.8</ele><time>2022-06-19T07:15:26.000Z</time></trkpt><trkpt lon="5.995239" lat="51.316906"><ele>-2.8</ele><time>2022-06-19T07:15:27.000Z</time></trkpt><trkpt lon="5.99532" lat="51.316969"><ele>-2.8</ele><time>2022-06-19T07:15:28.000Z</time></trkpt><trkpt lon="5.995394" lat="51.317026"><ele>-2.8</ele><time>2022-06-19T07:15:29.000Z</time></trkpt><trkpt lon="5.995442" lat="51.317065"><ele>-2.8</ele><time>2022-06-19T07:15:30.000Z</time></trkpt><trkpt lon="5.995533" lat="51.317142"><ele>-2.8</ele><time>2022-06-19T07:15:31.000Z</time></trkpt><trkpt lon="5.995606" lat="51.317202"><ele>-3</ele><time>2022-06-19T07:15:32.000Z</time></trkpt><trkpt lon="5.995674" lat="51.317263"><ele>-2.8</ele><time>2022-06-19T07:15:33.000Z</time></trkpt><trkpt lon="5.995737" lat="51.317323"><ele>-2.8</ele><time>2022-06-19T07:15:34.000Z</time></trkpt><trkpt lon="5.995802" lat="51.317385"><ele>-2.8</ele><time>2022-06-19T07:15:35.000Z</time></trkpt><trkpt lon="5.995868" lat="51.317446"><ele>-3</ele><time>2022-06-19T07:15:36.000Z</time></trkpt><trkpt lon="5.995932" lat="51.317503"><ele>-3</ele><time>2022-06-19T07:15:37.000Z</time></trkpt><trkpt lon="5.995992" lat="51.317562"><ele>-3</ele><time>2022-06-19T07:15:38.000Z</time></trkpt><trkpt lon="5.996058" lat="51.317623"><ele>-3</ele><time>2022-06-19T07:15:39.000Z</time></trkpt><trkpt lon="5.996124" lat="51.317687"><ele>-3</ele><time>2022-06-19T07:15:40.000Z</time></trkpt><trkpt lon="5.996185" lat="51.317746"><ele>-3</ele><time>2022-06-19T07:15:41.000Z</time></trkpt><trkpt lon="5.996244" lat="51.317807"><ele>-3</ele><time>2022-06-19T07:15:42.000Z</time></trkpt><trkpt lon="5.996313" lat="51.317873"><ele>-3</ele><time>2022-06-19T07:15:43.000Z</time></trkpt><trkpt lon="5.996376" lat="51.317936"><ele>-3</ele><time>2022-06-19T07:15:44.000Z</time></trkpt><trkpt lon="5.996442" lat="51.317998"><ele>-3</ele><time>2022-06-19T07:15:45.000Z</time></trkpt><trkpt lon="5.996507" lat="51.318064"><ele>-3</ele><time>2022-06-19T07:15:46.000Z</time></trkpt><trkpt lon="5.996568" lat="51.318123"><ele>-3</ele><time>2022-06-19T07:15:47.000Z</time></trkpt><trkpt lon="5.996626" lat="51.318176"><ele>-3</ele><time>2022-06-19T07:15:48.000Z</time></trkpt><trkpt lon="5.996693" lat="51.318238"><ele>-3</ele><time>2022-06-19T07:15:49.000Z</time></trkpt><trkpt lon="5.996747" lat="51.318289"><ele>-3</ele><time>2022-06-19T07:15:50.000Z</time></trkpt><trkpt lon="5.996813" lat="51.318357"><ele>-3</ele><time>2022-06-19T07:15:51.000Z</time></trkpt><trkpt lon="5.996872" lat="51.318414"><ele>-3</ele><time>2022-06-19T07:15:52.000Z</time></trkpt><trkpt lon="5.996929" lat="51.318473"><ele>-3</ele><time>2022-06-19T07:15:53.000Z</time></trkpt><trkpt lon="5.996999" lat="51.31854"><ele>-2.8</ele><time>2022-06-19T07:15:54.000Z</time></trkpt><trkpt lon="5.997066" lat="51.318597"><ele>-3</ele><time>2022-06-19T07:15:55.000Z</time></trkpt><trkpt lon="5.997127" lat="51.318661"><ele>-3</ele><time>2022-06-19T07:15:56.000Z</time></trkpt><trkpt lon="5.99719" lat="51.318724"><ele>-3</ele><time>2022-06-19T07:15:57.000Z</time></trkpt><trkpt lon="5.997253" lat="51.318785"><ele>-2.8</ele><time>2022-06-19T07:15:58.000Z</time></trkpt><trkpt lon="5.997317" lat="51.318846"><ele>-2.8</ele><time>2022-06-19T07:15:59.000Z</time></trkpt><trkpt lon="5.997375" lat="51.318907"><ele>-3</ele><time>2022-06-19T07:16:00.000Z</time></trkpt><trkpt lon="5.997437" lat="51.318968"><ele>-3</ele><time>2022-06-19T07:16:01.000Z</time></trkpt><trkpt lon="5.9975" lat="51.319029"><ele>-3</ele><time>2022-06-19T07:16:02.000Z</time></trkpt><trkpt lon="5.997559" lat="51.319094"><ele>-2.8</ele><time>2022-06-19T07:16:03.000Z</time></trkpt><trkpt lon="5.997617" lat="51.319155"><ele>-2.8</ele><time>2022-06-19T07:16:04.000Z</time></trkpt><trkpt lon="5.997673" lat="51.31922"><ele>-2.8</ele><time>2022-06-19T07:16:05.000Z</time></trkpt><trkpt lon="5.997731" lat="51.319277"><ele>-2.8</ele><time>2022-06-19T07:16:06.000Z</time></trkpt><trkpt lon="5.997791" lat="51.319336"><ele>-3</ele><time>2022-06-19T07:16:07.000Z</time></trkpt><trkpt lon="5.997855" lat="51.319396"><ele>-3</ele><time>2022-06-19T07:16:08.000Z</time></trkpt><trkpt lon="5.997914" lat="51.319451"><ele>-3</ele><time>2022-06-19T07:16:09.000Z</time></trkpt><trkpt lon="5.997979" lat="51.319505"><ele>-3.2</ele><time>2022-06-19T07:16:10.000Z</time></trkpt><trkpt lon="5.998043" lat="51.319563"><ele>-3.2</ele><time>2022-06-19T07:16:11.000Z</time></trkpt><trkpt lon="5.998103" lat="51.319624"><ele>-3.2</ele><time>2022-06-19T07:16:12.000Z</time></trkpt><trkpt lon="5.99816" lat="51.319681"><ele>-3.2</ele><time>2022-06-19T07:16:13.000Z</time></trkpt><trkpt lon="5.998213" lat="51.319734"><ele>-3.2</ele><time>2022-06-19T07:16:14.000Z</time></trkpt><trkpt lon="5.998266" lat="51.319789"><ele>-3.4</ele><time>2022-06-19T07:16:15.000Z</time></trkpt><trkpt lon="5.998316" lat="51.319834"><ele>-3.4</ele><time>2022-06-19T07:16:16.000Z</time></trkpt><trkpt lon="5.998368" lat="51.319889"><ele>-3.4</ele><time>2022-06-19T07:16:17.000Z</time></trkpt><trkpt lon="5.998428" lat="51.319937"><ele>-3.4</ele><time>2022-06-19T07:16:18.000Z</time></trkpt><trkpt lon="5.998488" lat="51.319987"><ele>-3.6</ele><time>2022-06-19T07:16:19.000Z</time></trkpt><trkpt lon="5.998547" lat="51.320039"><ele>-3.4</ele><time>2022-06-19T07:16:20.000Z</time></trkpt><trkpt lon="5.9986" lat="51.320097"><ele>-3.6</ele><time>2022-06-19T07:16:21.000Z</time></trkpt><trkpt lon="5.99865" lat="51.320159"><ele>-3.6</ele><time>2022-06-19T07:16:22.000Z</time></trkpt><trkpt lon="5.998702" lat="51.320216"><ele>-3.6</ele><time>2022-06-19T07:16:23.000Z</time></trkpt><trkpt lon="5.998757" lat="51.320273"><ele>-3.8</ele><time>2022-06-19T07:16:24.000Z</time></trkpt><trkpt lon="5.99881" lat="51.32033"><ele>-3.8</ele><time>2022-06-19T07:16:25.000Z</time></trkpt><trkpt lon="5.998862" lat="51.320384"><ele>-3.6</ele><time>2022-06-19T07:16:26.000Z</time></trkpt><trkpt lon="5.998918" lat="51.320426"><ele>-3.6</ele><time>2022-06-19T07:16:27.000Z</time></trkpt><trkpt lon="5.998986" lat="51.320464"><ele>-3.6</ele><time>2022-06-19T07:16:28.000Z</time></trkpt><trkpt lon="5.999051" lat="51.320502"><ele>-3.6</ele><time>2022-06-19T07:16:29.000Z</time></trkpt><trkpt lon="5.99908" lat="51.320529"><ele>-3.4</ele><time>2022-06-19T07:16:30.000Z</time></trkpt><trkpt lon="5.99912" lat="51.320592"><ele>-3.4</ele><time>2022-06-19T07:16:31.000Z</time></trkpt><trkpt lon="5.999135" lat="51.32065"><ele>-3.6</ele><time>2022-06-19T07:16:32.000Z</time></trkpt><trkpt lon="5.999156" lat="51.320715"><ele>-3.6</ele><time>2022-06-19T07:16:33.000Z</time></trkpt><trkpt lon="5.999194" lat="51.320784"><ele>-3.8</ele><time>2022-06-19T07:16:34.000Z</time></trkpt><trkpt lon="5.999239" lat="51.320856"><ele>-3.8</ele><time>2022-06-19T07:16:35.000Z</time></trkpt><trkpt lon="5.999289" lat="51.320925"><ele>-3.8</ele><time>2022-06-19T07:16:36.000Z</time></trkpt><trkpt lon="5.999342" lat="51.320997"><ele>-3.8</ele><time>2022-06-19T07:16:37.000Z</time></trkpt><trkpt lon="5.999395" lat="51.32107"><ele>-3.8</ele><time>2022-06-19T07:16:38.000Z</time></trkpt><trkpt lon="5.999442" lat="51.321146"><ele>-3.6</ele><time>2022-06-19T07:16:39.000Z</time></trkpt><trkpt lon="5.999489" lat="51.321215"><ele>-3.6</ele><time>2022-06-19T07:16:40.000Z</time></trkpt><trkpt lon="5.999529" lat="51.321275"><ele>-3.8</ele><time>2022-06-19T07:16:41.000Z</time></trkpt><trkpt lon="5.999584" lat="51.321353"><ele>-4.2</ele><time>2022-06-19T07:16:42.000Z</time></trkpt><trkpt lon="5.999632" lat="51.321418"><ele>-4.2</ele><time>2022-06-19T07:16:43.000Z</time></trkpt><trkpt lon="5.999681" lat="51.321487"><ele>-4.2</ele><time>2022-06-19T07:16:44.000Z</time></trkpt><trkpt lon="5.999728" lat="51.321556"><ele>-4.2</ele><time>2022-06-19T07:16:45.000Z</time></trkpt><trkpt lon="5.999775" lat="51.321626"><ele>-4.2</ele><time>2022-06-19T07:16:46.000Z</time></trkpt><trkpt lon="5.999823" lat="51.321698"><ele>-4.4</ele><time>2022-06-19T07:16:47.000Z</time></trkpt><trkpt lon="5.999867" lat="51.321768"><ele>-4.4</ele><time>2022-06-19T07:16:48.000Z</time></trkpt><trkpt lon="5.999911" lat="51.321836"><ele>-4.8</ele><time>2022-06-19T07:16:49.000Z</time></trkpt><trkpt lon="5.999952" lat="51.321902"><ele>-5.2</ele><time>2022-06-19T07:16:50.000Z</time></trkpt><trkpt lon="5.999996" lat="51.321966"><ele>-5.2</ele><time>2022-06-19T07:16:51.000Z</time></trkpt><trkpt lon="6.00005" lat="51.322038"><ele>-5</ele><time>2022-06-19T07:16:52.000Z</time></trkpt><trkpt lon="6.000094" lat="51.322104"><ele>-4.6</ele><time>2022-06-19T07:16:53.000Z</time></trkpt><trkpt lon="6.000133" lat="51.322175"><ele>-4.4</ele><time>2022-06-19T07:16:54.000Z</time></trkpt><trkpt lon="6.000168" lat="51.322241"><ele>-4.6</ele><time>2022-06-19T07:16:55.000Z</time></trkpt><trkpt lon="6.000207" lat="51.32231"><ele>-4.6</ele><time>2022-06-19T07:16:56.000Z</time></trkpt><trkpt lon="6.000247" lat="51.322378"><ele>-4.4</ele><time>2022-06-19T07:16:57.000Z</time></trkpt><trkpt lon="6.000284" lat="51.322447"><ele>-4.4</ele><time>2022-06-19T07:16:58.000Z</time></trkpt><trkpt lon="6.000314" lat="51.322512"><ele>-4.4</ele><time>2022-06-19T07:16:59.000Z</time></trkpt><trkpt lon="6.00035" lat="51.32258"><ele>-4.4</ele><time>2022-06-19T07:17:00.000Z</time></trkpt><trkpt lon="6.000391" lat="51.322653"><ele>-4.4</ele><time>2022-06-19T07:17:01.000Z</time></trkpt><trkpt lon="6.000432" lat="51.322721"><ele>-4.2</ele><time>2022-06-19T07:17:02.000Z</time></trkpt><trkpt lon="6.000471" lat="51.322794"><ele>-4</ele><time>2022-06-19T07:17:03.000Z</time></trkpt><trkpt lon="6.00051" lat="51.322861"><ele>-4</ele><time>2022-06-19T07:17:04.000Z</time></trkpt><trkpt lon="6.000549" lat="51.322938"><ele>-4</ele><time>2022-06-19T07:17:05.000Z</time></trkpt><trkpt lon="6.000581" lat="51.323009"><ele>-4</ele><time>2022-06-19T07:17:06.000Z</time></trkpt><trkpt lon="6.000619" lat="51.323088"><ele>-4</ele><time>2022-06-19T07:17:07.000Z</time></trkpt><trkpt lon="6.000652" lat="51.323159"><ele>-3.8</ele><time>2022-06-19T07:17:08.000Z</time></trkpt><trkpt lon="6.000687" lat="51.323236"><ele>-3.8</ele><time>2022-06-19T07:17:09.000Z</time></trkpt><trkpt lon="6.000728" lat="51.323307"><ele>-3.6</ele><time>2022-06-19T07:17:10.000Z</time></trkpt><trkpt lon="6.00077" lat="51.323378"><ele>-3.8</ele><time>2022-06-19T07:17:11.000Z</time></trkpt><trkpt lon="6.000815" lat="51.323456"><ele>-3.8</ele><time>2022-06-19T07:17:12.000Z</time></trkpt><trkpt lon="6.000867" lat="51.32353"><ele>-3.8</ele><time>2022-06-19T07:17:13.000Z</time></trkpt><trkpt lon="6.00091" lat="51.323602"><ele>-3.6</ele><time>2022-06-19T07:17:14.000Z</time></trkpt><trkpt lon="6.000949" lat="51.323675"><ele>-3.8</ele><time>2022-06-19T07:17:15.000Z</time></trkpt><trkpt lon="6.000987" lat="51.323748"><ele>-3.6</ele><time>2022-06-19T07:17:16.000Z</time></trkpt><trkpt lon="6.001025" lat="51.323815"><ele>-3.6</ele><time>2022-06-19T07:17:17.000Z</time></trkpt><trkpt lon="6.001066" lat="51.323889"><ele>-3.6</ele><time>2022-06-19T07:17:18.000Z</time></trkpt><trkpt lon="6.001104" lat="51.323961"><ele>-3.4</ele><time>2022-06-19T07:17:19.000Z</time></trkpt><trkpt lon="6.001144" lat="51.324038"><ele>-3.6</ele><time>2022-06-19T07:17:20.000Z</time></trkpt><trkpt lon="6.001187" lat="51.32411"><ele>-3.8</ele><time>2022-06-19T07:17:21.000Z</time></trkpt><trkpt lon="6.001229" lat="51.324183"><ele>-3.8</ele><time>2022-06-19T07:17:22.000Z</time></trkpt><trkpt lon="6.001269" lat="51.324255"><ele>-3.8</ele><time>2022-06-19T07:17:23.000Z</time></trkpt><trkpt lon="6.001308" lat="51.32433"><ele>-3.8</ele><time>2022-06-19T07:17:24.000Z</time></trkpt><trkpt lon="6.001352" lat="51.324398"><ele>-3.8</ele><time>2022-06-19T07:17:25.000Z</time></trkpt><trkpt lon="6.001397" lat="51.324472"><ele>-3.8</ele><time>2022-06-19T07:17:26.000Z</time></trkpt><trkpt lon="6.001439" lat="51.324548"><ele>-3.8</ele><time>2022-06-19T07:17:27.000Z</time></trkpt><trkpt lon="6.001477" lat="51.324621"><ele>-3.8</ele><time>2022-06-19T07:17:28.000Z</time></trkpt><trkpt lon="6.001516" lat="51.324694"><ele>-3.8</ele><time>2022-06-19T07:17:29.000Z</time></trkpt><trkpt lon="6.001544" lat="51.324748"><ele>-3.8</ele><time>2022-06-19T07:17:30.000Z</time></trkpt><trkpt lon="6.001595" lat="51.324845"><ele>-3.8</ele><time>2022-06-19T07:17:31.000Z</time></trkpt><trkpt lon="6.001637" lat="51.324918"><ele>-3.6</ele><time>2022-06-19T07:17:32.000Z</time></trkpt><trkpt lon="6.001674" lat="51.324988"><ele>-3.6</ele><time>2022-06-19T07:17:33.000Z</time></trkpt><trkpt lon="6.001719" lat="51.325067"><ele>-3.8</ele><time>2022-06-19T07:17:34.000Z</time></trkpt><trkpt lon="6.001759" lat="51.32514"><ele>-3.8</ele><time>2022-06-19T07:17:35.000Z</time></trkpt><trkpt lon="6.001803" lat="51.325212"><ele>-3.8</ele><time>2022-06-19T07:17:36.000Z</time></trkpt><trkpt lon="6.001844" lat="51.325281"><ele>-3.8</ele><time>2022-06-19T07:17:37.000Z</time></trkpt><trkpt lon="6.001887" lat="51.325354"><ele>-3.8</ele><time>2022-06-19T07:17:38.000Z</time></trkpt><trkpt lon="6.001934" lat="51.325423"><ele>-3.8</ele><time>2022-06-19T07:17:39.000Z</time></trkpt><trkpt lon="6.001987" lat="51.325491"><ele>-3.8</ele><time>2022-06-19T07:17:40.000Z</time></trkpt><trkpt lon="6.002029" lat="51.325544"><ele>-4</ele><time>2022-06-19T07:17:41.000Z</time></trkpt><trkpt lon="6.002079" lat="51.325606"><ele>-3.8</ele><time>2022-06-19T07:17:42.000Z</time></trkpt><trkpt lon="6.002137" lat="51.32568"><ele>-3.8</ele><time>2022-06-19T07:17:43.000Z</time></trkpt><trkpt lon="6.002195" lat="51.325747"><ele>-4</ele><time>2022-06-19T07:17:44.000Z</time></trkpt><trkpt lon="6.002251" lat="51.325811"><ele>-4.2</ele><time>2022-06-19T07:17:45.000Z</time></trkpt><trkpt lon="6.002308" lat="51.325873"><ele>-4.2</ele><time>2022-06-19T07:17:46.000Z</time></trkpt><trkpt lon="6.002367" lat="51.325934"><ele>-4.2</ele><time>2022-06-19T07:17:47.000Z</time></trkpt><trkpt lon="6.002424" lat="51.325999"><ele>-4.2</ele><time>2022-06-19T07:17:48.000Z</time></trkpt><trkpt lon="6.002466" lat="51.326071"><ele>-4.2</ele><time>2022-06-19T07:17:49.000Z</time></trkpt><trkpt lon="6.002491" lat="51.326147"><ele>-4.4</ele><time>2022-06-19T07:17:50.000Z</time></trkpt><trkpt lon="6.0025" lat="51.326223"><ele>-4.4</ele><time>2022-06-19T07:17:51.000Z</time></trkpt><trkpt lon="6.002495" lat="51.326299"><ele>-4.4</ele><time>2022-06-19T07:17:52.000Z</time></trkpt><trkpt lon="6.002487" lat="51.32638"><ele>-4.4</ele><time>2022-06-19T07:17:53.000Z</time></trkpt><trkpt lon="6.002482" lat="51.326456"><ele>-4.6</ele><time>2022-06-19T07:17:54.000Z</time></trkpt><trkpt lon="6.002477" lat="51.326529"><ele>-4.8</ele><time>2022-06-19T07:17:55.000Z</time></trkpt><trkpt lon="6.00247" lat="51.326598"><ele>-4.8</ele><time>2022-06-19T07:17:56.000Z</time></trkpt><trkpt lon="6.002465" lat="51.326668"><ele>-4.8</ele><time>2022-06-19T07:17:57.000Z</time></trkpt><trkpt lon="6.00246" lat="51.326733"><ele>-4.8</ele><time>2022-06-19T07:17:58.000Z</time></trkpt><trkpt lon="6.002455" lat="51.326799"><ele>-4.8</ele><time>2022-06-19T07:17:59.000Z</time></trkpt><trkpt lon="6.002455" lat="51.326861"><ele>-5</ele><time>2022-06-19T07:18:00.000Z</time></trkpt><trkpt lon="6.002463" lat="51.326925"><ele>-5</ele><time>2022-06-19T07:18:01.000Z</time></trkpt><trkpt lon="6.002486" lat="51.326986"><ele>-5</ele><time>2022-06-19T07:18:02.000Z</time></trkpt><trkpt lon="6.00251" lat="51.327052"><ele>-5</ele><time>2022-06-19T07:18:03.000Z</time></trkpt><trkpt lon="6.002517" lat="51.327109"><ele>-5.2</ele><time>2022-06-19T07:18:04.000Z</time></trkpt><trkpt lon="6.002499" lat="51.327166"><ele>-5.2</ele><time>2022-06-19T07:18:05.000Z</time></trkpt><trkpt lon="6.002469" lat="51.327227"><ele>-5.2</ele><time>2022-06-19T07:18:06.000Z</time></trkpt><trkpt lon="6.002457" lat="51.327287"><ele>-5.4</ele><time>2022-06-19T07:18:07.000Z</time></trkpt><trkpt lon="6.002461" lat="51.327345"><ele>-5.2</ele><time>2022-06-19T07:18:08.000Z</time></trkpt><trkpt lon="6.00247" lat="51.32741"><ele>-5.2</ele><time>2022-06-19T07:18:09.000Z</time></trkpt><trkpt lon="6.002471" lat="51.327478"><ele>-5.2</ele><time>2022-06-19T07:18:10.000Z</time></trkpt><trkpt lon="6.002471" lat="51.327543"><ele>-5.2</ele><time>2022-06-19T07:18:11.000Z</time></trkpt><trkpt lon="6.002471" lat="51.327612"><ele>-5.2</ele><time>2022-06-19T07:18:12.000Z</time></trkpt><trkpt lon="6.002473" lat="51.327668"><ele>-5.2</ele><time>2022-06-19T07:18:13.000Z</time></trkpt><trkpt lon="6.00248" lat="51.327753"><ele>-5.2</ele><time>2022-06-19T07:18:14.000Z</time></trkpt><trkpt lon="6.00249" lat="51.327828"><ele>-5.2</ele><time>2022-06-19T07:18:15.000Z</time></trkpt><trkpt lon="6.002508" lat="51.327906"><ele>-5.4</ele><time>2022-06-19T07:18:16.000Z</time></trkpt><trkpt lon="6.002536" lat="51.327982"><ele>-5.4</ele><time>2022-06-19T07:18:17.000Z</time></trkpt><trkpt lon="6.002571" lat="51.328055"><ele>-5.2</ele><time>2022-06-19T07:18:18.000Z</time></trkpt><trkpt lon="6.002603" lat="51.328127"><ele>-5.2</ele><time>2022-06-19T07:18:19.000Z</time></trkpt><trkpt lon="6.00263" lat="51.328202"><ele>-5.2</ele><time>2022-06-19T07:18:20.000Z</time></trkpt><trkpt lon="6.002655" lat="51.328274"><ele>-5.2</ele><time>2022-06-19T07:18:21.000Z</time></trkpt><trkpt lon="6.002676" lat="51.328352"><ele>-5.2</ele><time>2022-06-19T07:18:22.000Z</time></trkpt><trkpt lon="6.002694" lat="51.32843"><ele>-5.2</ele><time>2022-06-19T07:18:23.000Z</time></trkpt><trkpt lon="6.002717" lat="51.328502"><ele>-5.2</ele><time>2022-06-19T07:18:24.000Z</time></trkpt><trkpt lon="6.002744" lat="51.328578"><ele>-5.2</ele><time>2022-06-19T07:18:25.000Z</time></trkpt><trkpt lon="6.002772" lat="51.328651"><ele>-5.2</ele><time>2022-06-19T07:18:26.000Z</time></trkpt><trkpt lon="6.002801" lat="51.328729"><ele>-5.2</ele><time>2022-06-19T07:18:27.000Z</time></trkpt><trkpt lon="6.002829" lat="51.328798"><ele>-5.2</ele><time>2022-06-19T07:18:28.000Z</time></trkpt><trkpt lon="6.002856" lat="51.328875"><ele>-5.4</ele><time>2022-06-19T07:18:29.000Z</time></trkpt><trkpt lon="6.002884" lat="51.328951"><ele>-5.4</ele><time>2022-06-19T07:18:30.000Z</time></trkpt><trkpt lon="6.002913" lat="51.329024"><ele>-5.4</ele><time>2022-06-19T07:18:31.000Z</time></trkpt><trkpt lon="6.002943" lat="51.329099"><ele>-5.4</ele><time>2022-06-19T07:18:32.000Z</time></trkpt><trkpt lon="6.002973" lat="51.329172"><ele>-5.4</ele><time>2022-06-19T07:18:33.000Z</time></trkpt><trkpt lon="6.003004" lat="51.329244"><ele>-5.6</ele><time>2022-06-19T07:18:34.000Z</time></trkpt><trkpt lon="6.003037" lat="51.329317"><ele>-5.8</ele><time>2022-06-19T07:18:35.000Z</time></trkpt><trkpt lon="6.003069" lat="51.32939"><ele>-5.6</ele><time>2022-06-19T07:18:36.000Z</time></trkpt><trkpt lon="6.003104" lat="51.329462"><ele>-5.4</ele><time>2022-06-19T07:18:37.000Z</time></trkpt><trkpt lon="6.003139" lat="51.329535"><ele>-5.4</ele><time>2022-06-19T07:18:38.000Z</time></trkpt><trkpt lon="6.003176" lat="51.329602"><ele>-5.4</ele><time>2022-06-19T07:18:39.000Z</time></trkpt><trkpt lon="6.003214" lat="51.329676"><ele>-5.4</ele><time>2022-06-19T07:18:40.000Z</time></trkpt><trkpt lon="6.003254" lat="51.329749"><ele>-5.2</ele><time>2022-06-19T07:18:41.000Z</time></trkpt><trkpt lon="6.003294" lat="51.329818"><ele>-5.2</ele><time>2022-06-19T07:18:42.000Z</time></trkpt><trkpt lon="6.003337" lat="51.329893"><ele>-5.2</ele><time>2022-06-19T07:18:43.000Z</time></trkpt><trkpt lon="6.003378" lat="51.329961"><ele>-5</ele><time>2022-06-19T07:18:44.000Z</time></trkpt><trkpt lon="6.003418" lat="51.330034"><ele>-4.8</ele><time>2022-06-19T07:18:45.000Z</time></trkpt><trkpt lon="6.003461" lat="51.330103"><ele>-4.8</ele><time>2022-06-19T07:18:46.000Z</time></trkpt><trkpt lon="6.003504" lat="51.330175"><ele>-4.8</ele><time>2022-06-19T07:18:47.000Z</time></trkpt><trkpt lon="6.003543" lat="51.330244"><ele>-4.6</ele><time>2022-06-19T07:18:48.000Z</time></trkpt><trkpt lon="6.003585" lat="51.330312"><ele>-4.4</ele><time>2022-06-19T07:18:49.000Z</time></trkpt><trkpt lon="6.003627" lat="51.330378"><ele>-4.4</ele><time>2022-06-19T07:18:50.000Z</time></trkpt><trkpt lon="6.003669" lat="51.330446"><ele>-4.2</ele><time>2022-06-19T07:18:51.000Z</time></trkpt><trkpt lon="6.003712" lat="51.330515"><ele>-4.2</ele><time>2022-06-19T07:18:52.000Z</time></trkpt><trkpt lon="6.003755" lat="51.330584"><ele>-4.4</ele><time>2022-06-19T07:18:53.000Z</time></trkpt><trkpt lon="6.0038" lat="51.330651"><ele>-4.4</ele><time>2022-06-19T07:18:54.000Z</time></trkpt><trkpt lon="6.003844" lat="51.330725"><ele>-4.2</ele><time>2022-06-19T07:18:55.000Z</time></trkpt><trkpt lon="6.003884" lat="51.33079"><ele>-4.2</ele><time>2022-06-19T07:18:56.000Z</time></trkpt><trkpt lon="6.003923" lat="51.330858"><ele>-4.2</ele><time>2022-06-19T07:18:57.000Z</time></trkpt><trkpt lon="6.003964" lat="51.330927"><ele>-4.4</ele><time>2022-06-19T07:18:58.000Z</time></trkpt><trkpt lon="6.004006" lat="51.330996"><ele>-4.6</ele><time>2022-06-19T07:18:59.000Z</time></trkpt><trkpt lon="6.004043" lat="51.331063"><ele>-4.6</ele><time>2022-06-19T07:19:00.000Z</time></trkpt><trkpt lon="6.004082" lat="51.331133"><ele>-4.8</ele><time>2022-06-19T07:19:01.000Z</time></trkpt><trkpt lon="6.004121" lat="51.331201"><ele>-4.8</ele><time>2022-06-19T07:19:02.000Z</time></trkpt><trkpt lon="6.004157" lat="51.33127"><ele>-5</ele><time>2022-06-19T07:19:03.000Z</time></trkpt><trkpt lon="6.004196" lat="51.331339"><ele>-4.8</ele><time>2022-06-19T07:19:04.000Z</time></trkpt><trkpt lon="6.004232" lat="51.331408"><ele>-5</ele><time>2022-06-19T07:19:05.000Z</time></trkpt><trkpt lon="6.00427" lat="51.331476"><ele>-4.6</ele><time>2022-06-19T07:19:06.000Z</time></trkpt><trkpt lon="6.004306" lat="51.331543"><ele>-4.4</ele><time>2022-06-19T07:19:07.000Z</time></trkpt><trkpt lon="6.004344" lat="51.331613"><ele>-4.2</ele><time>2022-06-19T07:19:08.000Z</time></trkpt><trkpt lon="6.004379" lat="51.331683"><ele>-4</ele><time>2022-06-19T07:19:09.000Z</time></trkpt><trkpt lon="6.004415" lat="51.331753"><ele>-4</ele><time>2022-06-19T07:19:10.000Z</time></trkpt><trkpt lon="6.004452" lat="51.331823"><ele>-4</ele><time>2022-06-19T07:19:11.000Z</time></trkpt><trkpt lon="6.004489" lat="51.331892"><ele>-4</ele><time>2022-06-19T07:19:12.000Z</time></trkpt><trkpt lon="6.004522" lat="51.331957"><ele>-4.2</ele><time>2022-06-19T07:19:13.000Z</time></trkpt><trkpt lon="6.004556" lat="51.332023"><ele>-4.2</ele><time>2022-06-19T07:19:14.000Z</time></trkpt><trkpt lon="6.004593" lat="51.332097"><ele>-4.4</ele><time>2022-06-19T07:19:15.000Z</time></trkpt><trkpt lon="6.00463" lat="51.332167"><ele>-4.4</ele><time>2022-06-19T07:19:16.000Z</time></trkpt><trkpt lon="6.004666" lat="51.332235"><ele>-4.4</ele><time>2022-06-19T07:19:17.000Z</time></trkpt><trkpt lon="6.004699" lat="51.332303"><ele>-4.4</ele><time>2022-06-19T07:19:18.000Z</time></trkpt><trkpt lon="6.004732" lat="51.332369"><ele>-4.6</ele><time>2022-06-19T07:19:19.000Z</time></trkpt><trkpt lon="6.004766" lat="51.332434"><ele>-4.6</ele><time>2022-06-19T07:19:20.000Z</time></trkpt><trkpt lon="6.004799" lat="51.332502"><ele>-4.8</ele><time>2022-06-19T07:19:21.000Z</time></trkpt><trkpt lon="6.004834" lat="51.332571"><ele>-4.8</ele><time>2022-06-19T07:19:22.000Z</time></trkpt><trkpt lon="6.004871" lat="51.33264"><ele>-4.8</ele><time>2022-06-19T07:19:23.000Z</time></trkpt><trkpt lon="6.004904" lat="51.332704"><ele>-4.8</ele><time>2022-06-19T07:19:24.000Z</time></trkpt><trkpt lon="6.00494" lat="51.332776"><ele>-4.6</ele><time>2022-06-19T07:19:25.000Z</time></trkpt><trkpt lon="6.004979" lat="51.332846"><ele>-4.6</ele><time>2022-06-19T07:19:26.000Z</time></trkpt><trkpt lon="6.005015" lat="51.332914"><ele>-4.4</ele><time>2022-06-19T07:19:27.000Z</time></trkpt><trkpt lon="6.005052" lat="51.33298"><ele>-4.4</ele><time>2022-06-19T07:19:28.000Z</time></trkpt><trkpt lon="6.00509" lat="51.333047"><ele>-4.4</ele><time>2022-06-19T07:19:29.000Z</time></trkpt><trkpt lon="6.005123" lat="51.333111"><ele>-4.4</ele><time>2022-06-19T07:19:30.000Z</time></trkpt><trkpt lon="6.005162" lat="51.333186"><ele>-4.4</ele><time>2022-06-19T07:19:31.000Z</time></trkpt><trkpt lon="6.005196" lat="51.333253"><ele>-4.2</ele><time>2022-06-19T07:19:32.000Z</time></trkpt><trkpt lon="6.005228" lat="51.333313"><ele>-4</ele><time>2022-06-19T07:19:33.000Z</time></trkpt><trkpt lon="6.005272" lat="51.333397"><ele>-3.8</ele><time>2022-06-19T07:19:34.000Z</time></trkpt><trkpt lon="6.005306" lat="51.333466"><ele>-3.8</ele><time>2022-06-19T07:19:35.000Z</time></trkpt><trkpt lon="6.005341" lat="51.333533"><ele>-3.8</ele><time>2022-06-19T07:19:36.000Z</time></trkpt><trkpt lon="6.005379" lat="51.333605"><ele>-3.8</ele><time>2022-06-19T07:19:37.000Z</time></trkpt><trkpt lon="6.005412" lat="51.333668"><ele>-3.8</ele><time>2022-06-19T07:19:38.000Z</time></trkpt><trkpt lon="6.005444" lat="51.333734"><ele>-4</ele><time>2022-06-19T07:19:39.000Z</time></trkpt><trkpt lon="6.005479" lat="51.333796"><ele>-4</ele><time>2022-06-19T07:19:40.000Z</time></trkpt><trkpt lon="6.005511" lat="51.333855"><ele>-4.2</ele><time>2022-06-19T07:19:41.000Z</time></trkpt><trkpt lon="6.005539" lat="51.333909"><ele>-4.2</ele><time>2022-06-19T07:19:42.000Z</time></trkpt><trkpt lon="6.005568" lat="51.333966"><ele>-4</ele><time>2022-06-19T07:19:43.000Z</time></trkpt><trkpt lon="6.005598" lat="51.334021"><ele>-4</ele><time>2022-06-19T07:19:44.000Z</time></trkpt><trkpt lon="6.005626" lat="51.334071"><ele>-4</ele><time>2022-06-19T07:19:45.000Z</time></trkpt><trkpt lon="6.005664" lat="51.334113"><ele>-3.8</ele><time>2022-06-19T07:19:46.000Z</time></trkpt><trkpt lon="6.005722" lat="51.334144"><ele>-4</ele><time>2022-06-19T07:19:47.000Z</time></trkpt><trkpt lon="6.0058" lat="51.334163"><ele>-4</ele><time>2022-06-19T07:19:48.000Z</time></trkpt><trkpt lon="6.005898" lat="51.334178"><ele>-4.2</ele><time>2022-06-19T07:19:49.000Z</time></trkpt><trkpt lon="6.006013" lat="51.33419"><ele>-4.2</ele><time>2022-06-19T07:19:50.000Z</time></trkpt><trkpt lon="6.006139" lat="51.334201"><ele>-4.2</ele><time>2022-06-19T07:19:51.000Z</time></trkpt><trkpt lon="6.006268" lat="51.33422"><ele>-4.2</ele><time>2022-06-19T07:19:52.000Z</time></trkpt><trkpt lon="6.006393" lat="51.334239"><ele>-4.2</ele><time>2022-06-19T07:19:53.000Z</time></trkpt><trkpt lon="6.006518" lat="51.334255"><ele>-4.2</ele><time>2022-06-19T07:19:54.000Z</time></trkpt><trkpt lon="6.006639" lat="51.33427"><ele>-4.2</ele><time>2022-06-19T07:19:55.000Z</time></trkpt><trkpt lon="6.006763" lat="51.334285"><ele>-4.2</ele><time>2022-06-19T07:19:56.000Z</time></trkpt><trkpt lon="6.006882" lat="51.3343"><ele>-4.2</ele><time>2022-06-19T07:19:57.000Z</time></trkpt><trkpt lon="6.007003" lat="51.334316"><ele>-4.4</ele><time>2022-06-19T07:19:58.000Z</time></trkpt><trkpt lon="6.00712" lat="51.334331"><ele>-4.4</ele><time>2022-06-19T07:19:59.000Z</time></trkpt><trkpt lon="6.007238" lat="51.33435"><ele>-4.4</ele><time>2022-06-19T07:20:00.000Z</time></trkpt><trkpt lon="6.007348" lat="51.334369"><ele>-4.4</ele><time>2022-06-19T07:20:01.000Z</time></trkpt><trkpt lon="6.007464" lat="51.334385"><ele>-4.4</ele><time>2022-06-19T07:20:02.000Z</time></trkpt><trkpt lon="6.007579" lat="51.3344"><ele>-4.4</ele><time>2022-06-19T07:20:03.000Z</time></trkpt><trkpt lon="6.007693" lat="51.334415"><ele>-4.4</ele><time>2022-06-19T07:20:04.000Z</time></trkpt><trkpt lon="6.007806" lat="51.334434"><ele>-4.6</ele><time>2022-06-19T07:20:05.000Z</time></trkpt><trkpt lon="6.007924" lat="51.334453"><ele>-4.6</ele><time>2022-06-19T07:20:06.000Z</time></trkpt><trkpt lon="6.008037" lat="51.334476"><ele>-4.6</ele><time>2022-06-19T07:20:07.000Z</time></trkpt><trkpt lon="6.00815" lat="51.334502"><ele>-4.8</ele><time>2022-06-19T07:20:08.000Z</time></trkpt><trkpt lon="6.008257" lat="51.334532"><ele>-5</ele><time>2022-06-19T07:20:09.000Z</time></trkpt><trkpt lon="6.008371" lat="51.334567"><ele>-5</ele><time>2022-06-19T07:20:10.000Z</time></trkpt><trkpt lon="6.008481" lat="51.334605"><ele>-5</ele><time>2022-06-19T07:20:11.000Z</time></trkpt><trkpt lon="6.008588" lat="51.334642"><ele>-5</ele><time>2022-06-19T07:20:12.000Z</time></trkpt><trkpt lon="6.008698" lat="51.334682"><ele>-5</ele><time>2022-06-19T07:20:13.000Z</time></trkpt><trkpt lon="6.008785" lat="51.33471"><ele>-5</ele><time>2022-06-19T07:20:14.000Z</time></trkpt><trkpt lon="6.00891" lat="51.334753"><ele>-5</ele><time>2022-06-19T07:20:15.000Z</time></trkpt><trkpt lon="6.009022" lat="51.334788"><ele>-5</ele><time>2022-06-19T07:20:16.000Z</time></trkpt><trkpt lon="6.009129" lat="51.334826"><ele>-5</ele><time>2022-06-19T07:20:17.000Z</time></trkpt><trkpt lon="6.009235" lat="51.33486"><ele>-5</ele><time>2022-06-19T07:20:18.000Z</time></trkpt><trkpt lon="6.009346" lat="51.334898"><ele>-5</ele><time>2022-06-19T07:20:19.000Z</time></trkpt><trkpt lon="6.009458" lat="51.334937"><ele>-5</ele><time>2022-06-19T07:20:20.000Z</time></trkpt><trkpt lon="6.00957" lat="51.334971"><ele>-5</ele><time>2022-06-19T07:20:21.000Z</time></trkpt><trkpt lon="6.009685" lat="51.335006"><ele>-5.2</ele><time>2022-06-19T07:20:22.000Z</time></trkpt><trkpt lon="6.0098" lat="51.33504"><ele>-5.2</ele><time>2022-06-19T07:20:23.000Z</time></trkpt><trkpt lon="6.009917" lat="51.335074"><ele>-5.2</ele><time>2022-06-19T07:20:24.000Z</time></trkpt><trkpt lon="6.010035" lat="51.335105"><ele>-5.4</ele><time>2022-06-19T07:20:25.000Z</time></trkpt><trkpt lon="6.010152" lat="51.335136"><ele>-5.4</ele><time>2022-06-19T07:20:26.000Z</time></trkpt><trkpt lon="6.01027" lat="51.335162"><ele>-5.4</ele><time>2022-06-19T07:20:27.000Z</time></trkpt><trkpt lon="6.010387" lat="51.335193"><ele>-5.4</ele><time>2022-06-19T07:20:28.000Z</time></trkpt><trkpt lon="6.010497" lat="51.335222"><ele>-5.4</ele><time>2022-06-19T07:20:29.000Z</time></trkpt><trkpt lon="6.010612" lat="51.33525"><ele>-5.4</ele><time>2022-06-19T07:20:30.000Z</time></trkpt><trkpt lon="6.010727" lat="51.33528"><ele>-5.4</ele><time>2022-06-19T07:20:31.000Z</time></trkpt><trkpt lon="6.010845" lat="51.335307"><ele>-5.6</ele><time>2022-06-19T07:20:32.000Z</time></trkpt><trkpt lon="6.01096" lat="51.335334"><ele>-5.6</ele><time>2022-06-19T07:20:33.000Z</time></trkpt><trkpt lon="6.011073" lat="51.335364"><ele>-5.6</ele><time>2022-06-19T07:20:34.000Z</time></trkpt><trkpt lon="6.011187" lat="51.335391"><ele>-5.6</ele><time>2022-06-19T07:20:35.000Z</time></trkpt><trkpt lon="6.011302" lat="51.335422"><ele>-5.6</ele><time>2022-06-19T07:20:36.000Z</time></trkpt><trkpt lon="6.011419" lat="51.335449"><ele>-5.8</ele><time>2022-06-19T07:20:37.000Z</time></trkpt><trkpt lon="6.011536" lat="51.335475"><ele>-5.8</ele><time>2022-06-19T07:20:38.000Z</time></trkpt><trkpt lon="6.011655" lat="51.335506"><ele>-5.8</ele><time>2022-06-19T07:20:39.000Z</time></trkpt><trkpt lon="6.01177" lat="51.335531"><ele>-6</ele><time>2022-06-19T07:20:40.000Z</time></trkpt><trkpt lon="6.011893" lat="51.335559"><ele>-6</ele><time>2022-06-19T07:20:41.000Z</time></trkpt><trkpt lon="6.012008" lat="51.335585"><ele>-6</ele><time>2022-06-19T07:20:42.000Z</time></trkpt><trkpt lon="6.012128" lat="51.335612"><ele>-6</ele><time>2022-06-19T07:20:43.000Z</time></trkpt><trkpt lon="6.012228" lat="51.335635"><ele>-6</ele><time>2022-06-19T07:20:44.000Z</time></trkpt><trkpt lon="6.01236" lat="51.335665"><ele>-6</ele><time>2022-06-19T07:20:45.000Z</time></trkpt><trkpt lon="6.012478" lat="51.335692"><ele>-6.2</ele><time>2022-06-19T07:20:46.000Z</time></trkpt><trkpt lon="6.012593" lat="51.335718"><ele>-6.2</ele><time>2022-06-19T07:20:47.000Z</time></trkpt><trkpt lon="6.012712" lat="51.335746"><ele>-6.2</ele><time>2022-06-19T07:20:48.000Z</time></trkpt><trkpt lon="6.012825" lat="51.335772"><ele>-6.2</ele><time>2022-06-19T07:20:49.000Z</time></trkpt><trkpt lon="6.012937" lat="51.335795"><ele>-6.2</ele><time>2022-06-19T07:20:50.000Z</time></trkpt><trkpt lon="6.013049" lat="51.335822"><ele>-6.2</ele><time>2022-06-19T07:20:51.000Z</time></trkpt><trkpt lon="6.013164" lat="51.335845"><ele>-6.2</ele><time>2022-06-19T07:20:52.000Z</time></trkpt><trkpt lon="6.013274" lat="51.335874"><ele>-6.4</ele><time>2022-06-19T07:20:53.000Z</time></trkpt><trkpt lon="6.013377" lat="51.335898"><ele>-6.4</ele><time>2022-06-19T07:20:54.000Z</time></trkpt><trkpt lon="6.013484" lat="51.335922"><ele>-6.4</ele><time>2022-06-19T07:20:55.000Z</time></trkpt><trkpt lon="6.013625" lat="51.335954"><ele>-6.2</ele><time>2022-06-19T07:20:56.000Z</time></trkpt><trkpt lon="6.01375" lat="51.335982"><ele>-6.2</ele><time>2022-06-19T07:20:57.000Z</time></trkpt><trkpt lon="6.01387" lat="51.336009"><ele>-6.4</ele><time>2022-06-19T07:20:58.000Z</time></trkpt><trkpt lon="6.013988" lat="51.336036"><ele>-6.4</ele><time>2022-06-19T07:20:59.000Z</time></trkpt><trkpt lon="6.014102" lat="51.336062"><ele>-6.4</ele><time>2022-06-19T07:21:00.000Z</time></trkpt><trkpt lon="6.014217" lat="51.336085"><ele>-6.4</ele><time>2022-06-19T07:21:01.000Z</time></trkpt><trkpt lon="6.01433" lat="51.336112"><ele>-6.6</ele><time>2022-06-19T07:21:02.000Z</time></trkpt><trkpt lon="6.014445" lat="51.336139"><ele>-6.4</ele><time>2022-06-19T07:21:03.000Z</time></trkpt><trkpt lon="6.014556" lat="51.336161"><ele>-6.4</ele><time>2022-06-19T07:21:04.000Z</time></trkpt><trkpt lon="6.014672" lat="51.336188"><ele>-6.2</ele><time>2022-06-19T07:21:05.000Z</time></trkpt><trkpt lon="6.014785" lat="51.336214"><ele>-6.2</ele><time>2022-06-19T07:21:06.000Z</time></trkpt><trkpt lon="6.014902" lat="51.336242"><ele>-6</ele><time>2022-06-19T07:21:07.000Z</time></trkpt><trkpt lon="6.015017" lat="51.336268"><ele>-6</ele><time>2022-06-19T07:21:08.000Z</time></trkpt><trkpt lon="6.015132" lat="51.336295"><ele>-6</ele><time>2022-06-19T07:21:09.000Z</time></trkpt><trkpt lon="6.015247" lat="51.336318"><ele>-6</ele><time>2022-06-19T07:21:10.000Z</time></trkpt><trkpt lon="6.015365" lat="51.336345"><ele>-6</ele><time>2022-06-19T07:21:11.000Z</time></trkpt><trkpt lon="6.015476" lat="51.336367"><ele>-6</ele><time>2022-06-19T07:21:12.000Z</time></trkpt><trkpt lon="6.015588" lat="51.33639"><ele>-6</ele><time>2022-06-19T07:21:13.000Z</time></trkpt><trkpt lon="6.015705" lat="51.33641"><ele>-6.2</ele><time>2022-06-19T07:21:14.000Z</time></trkpt><trkpt lon="6.015825" lat="51.336425"><ele>-6</ele><time>2022-06-19T07:21:15.000Z</time></trkpt><trkpt lon="6.015946" lat="51.336437"><ele>-6.2</ele><time>2022-06-19T07:21:16.000Z</time></trkpt><trkpt lon="6.016067" lat="51.336445"><ele>-6.2</ele><time>2022-06-19T07:21:17.000Z</time></trkpt><trkpt lon="6.016187" lat="51.336456"><ele>-6.2</ele><time>2022-06-19T07:21:18.000Z</time></trkpt><trkpt lon="6.01631" lat="51.336464"><ele>-6.2</ele><time>2022-06-19T07:21:19.000Z</time></trkpt><trkpt lon="6.016427" lat="51.336468"><ele>-6.4</ele><time>2022-06-19T07:21:20.000Z</time></trkpt><trkpt lon="6.01655" lat="51.336475"><ele>-6.4</ele><time>2022-06-19T07:21:21.000Z</time></trkpt><trkpt lon="6.016674" lat="51.336483"><ele>-6.4</ele><time>2022-06-19T07:21:22.000Z</time></trkpt><trkpt lon="6.016795" lat="51.336487"><ele>-6.6</ele><time>2022-06-19T07:21:23.000Z</time></trkpt><trkpt lon="6.016919" lat="51.336494"><ele>-6.6</ele><time>2022-06-19T07:21:24.000Z</time></trkpt><trkpt lon="6.01704" lat="51.336502"><ele>-6.8</ele><time>2022-06-19T07:21:25.000Z</time></trkpt><trkpt lon="6.017162" lat="51.336509"><ele>-6.8</ele><time>2022-06-19T07:21:26.000Z</time></trkpt><trkpt lon="6.017287" lat="51.336517"><ele>-6.6</ele><time>2022-06-19T07:21:27.000Z</time></trkpt><trkpt lon="6.017404" lat="51.336525"><ele>-6.6</ele><time>2022-06-19T07:21:28.000Z</time></trkpt><trkpt lon="6.017523" lat="51.336532"><ele>-6.6</ele><time>2022-06-19T07:21:29.000Z</time></trkpt><trkpt lon="6.017628" lat="51.336539"><ele>-6.6</ele><time>2022-06-19T07:21:30.000Z</time></trkpt><trkpt lon="6.01777" lat="51.336544"><ele>-6.6</ele><time>2022-06-19T07:21:31.000Z</time></trkpt><trkpt lon="6.01789" lat="51.336548"><ele>-6.6</ele><time>2022-06-19T07:21:32.000Z</time></trkpt><trkpt lon="6.018012" lat="51.336555"><ele>-6.6</ele><time>2022-06-19T07:21:33.000Z</time></trkpt><trkpt lon="6.018132" lat="51.336563"><ele>-6.6</ele><time>2022-06-19T07:21:34.000Z</time></trkpt><trkpt lon="6.018255" lat="51.336574"><ele>-6.6</ele><time>2022-06-19T07:21:35.000Z</time></trkpt><trkpt lon="6.01837" lat="51.336589"><ele>-6.6</ele><time>2022-06-19T07:21:36.000Z</time></trkpt><trkpt lon="6.018489" lat="51.336608"><ele>-6.6</ele><time>2022-06-19T07:21:37.000Z</time></trkpt><trkpt lon="6.018607" lat="51.336634"><ele>-6.8</ele><time>2022-06-19T07:21:38.000Z</time></trkpt><trkpt lon="6.018726" lat="51.336661"><ele>-6.8</ele><time>2022-06-19T07:21:39.000Z</time></trkpt><trkpt lon="6.018841" lat="51.336691"><ele>-6.8</ele><time>2022-06-19T07:21:40.000Z</time></trkpt><trkpt lon="6.018963" lat="51.336722"><ele>-7</ele><time>2022-06-19T07:21:41.000Z</time></trkpt><trkpt lon="6.01908" lat="51.336748"><ele>-7</ele><time>2022-06-19T07:21:42.000Z</time></trkpt><trkpt lon="6.019196" lat="51.336775"><ele>-7</ele><time>2022-06-19T07:21:43.000Z</time></trkpt><trkpt lon="6.019313" lat="51.336802"><ele>-7</ele><time>2022-06-19T07:21:44.000Z</time></trkpt><trkpt lon="6.019426" lat="51.336829"><ele>-7</ele><time>2022-06-19T07:21:45.000Z</time></trkpt><trkpt lon="6.019536" lat="51.336855"><ele>-7</ele><time>2022-06-19T07:21:46.000Z</time></trkpt><trkpt lon="6.01965" lat="51.336882"><ele>-7</ele><time>2022-06-19T07:21:47.000Z</time></trkpt><trkpt lon="6.019765" lat="51.336909"><ele>-7</ele><time>2022-06-19T07:21:48.000Z</time></trkpt><trkpt lon="6.019884" lat="51.336936"><ele>-7</ele><time>2022-06-19T07:21:49.000Z</time></trkpt><trkpt lon="6.020004" lat="51.336963"><ele>-7</ele><time>2022-06-19T07:21:50.000Z</time></trkpt><trkpt lon="6.020122" lat="51.336986"><ele>-7</ele><time>2022-06-19T07:21:51.000Z</time></trkpt><trkpt lon="6.020239" lat="51.337009"><ele>-7</ele><time>2022-06-19T07:21:52.000Z</time></trkpt><trkpt lon="6.020356" lat="51.337028"><ele>-7</ele><time>2022-06-19T07:21:53.000Z</time></trkpt><trkpt lon="6.020469" lat="51.33705"><ele>-7</ele><time>2022-06-19T07:21:54.000Z</time></trkpt><trkpt lon="6.020593" lat="51.337074"><ele>-7</ele><time>2022-06-19T07:21:55.000Z</time></trkpt><trkpt lon="6.020706" lat="51.337093"><ele>-7</ele><time>2022-06-19T07:21:56.000Z</time></trkpt><trkpt lon="6.020821" lat="51.337115"><ele>-7</ele><time>2022-06-19T07:21:57.000Z</time></trkpt><trkpt lon="6.020938" lat="51.337135"><ele>-7</ele><time>2022-06-19T07:21:58.000Z</time></trkpt><trkpt lon="6.021057" lat="51.337158"><ele>-7.2</ele><time>2022-06-19T07:21:59.000Z</time></trkpt><trkpt lon="6.021174" lat="51.337181"><ele>-7.2</ele><time>2022-06-19T07:22:00.000Z</time></trkpt><trkpt lon="6.021287" lat="51.3372"><ele>-7.2</ele><time>2022-06-19T07:22:01.000Z</time></trkpt><trkpt lon="6.02139" lat="51.337222"><ele>-7.2</ele><time>2022-06-19T07:22:02.000Z</time></trkpt><trkpt lon="6.021495" lat="51.337242"><ele>-7.2</ele><time>2022-06-19T07:22:03.000Z</time></trkpt><trkpt lon="6.021599" lat="51.337264"><ele>-7.2</ele><time>2022-06-19T07:22:04.000Z</time></trkpt><trkpt lon="6.021707" lat="51.337284"><ele>-7.2</ele><time>2022-06-19T07:22:05.000Z</time></trkpt><trkpt lon="6.021817" lat="51.337306"><ele>-7.2</ele><time>2022-06-19T07:22:06.000Z</time></trkpt><trkpt lon="6.021928" lat="51.337329"><ele>-7.2</ele><time>2022-06-19T07:22:07.000Z</time></trkpt><trkpt lon="6.022037" lat="51.337348"><ele>-7.2</ele><time>2022-06-19T07:22:08.000Z</time></trkpt><trkpt lon="6.022146" lat="51.33737"><ele>-7.4</ele><time>2022-06-19T07:22:09.000Z</time></trkpt><trkpt lon="6.022269" lat="51.337394"><ele>-7.4</ele><time>2022-06-19T07:22:10.000Z</time></trkpt><trkpt lon="6.022392" lat="51.337413"><ele>-7.4</ele><time>2022-06-19T07:22:11.000Z</time></trkpt><trkpt lon="6.022507" lat="51.337436"><ele>-7.4</ele><time>2022-06-19T07:22:12.000Z</time></trkpt><trkpt lon="6.022625" lat="51.337463"><ele>-7.4</ele><time>2022-06-19T07:22:13.000Z</time></trkpt><trkpt lon="6.022742" lat="51.337482"><ele>-7.4</ele><time>2022-06-19T07:22:14.000Z</time></trkpt><trkpt lon="6.022858" lat="51.3375"><ele>-7.6</ele><time>2022-06-19T07:22:15.000Z</time></trkpt><trkpt lon="6.022982" lat="51.33752"><ele>-7.6</ele><time>2022-06-19T07:22:16.000Z</time></trkpt><trkpt lon="6.023099" lat="51.337539"><ele>-7.6</ele><time>2022-06-19T07:22:17.000Z</time></trkpt><trkpt lon="6.023218" lat="51.337558"><ele>-7.4</ele><time>2022-06-19T07:22:18.000Z</time></trkpt><trkpt lon="6.023335" lat="51.337581"><ele>-7.4</ele><time>2022-06-19T07:22:19.000Z</time></trkpt><trkpt lon="6.023453" lat="51.3376"><ele>-7.4</ele><time>2022-06-19T07:22:20.000Z</time></trkpt><trkpt lon="6.02357" lat="51.337619"><ele>-7.4</ele><time>2022-06-19T07:22:21.000Z</time></trkpt><trkpt lon="6.023683" lat="51.337642"><ele>-7.4</ele><time>2022-06-19T07:22:22.000Z</time></trkpt><trkpt lon="6.023797" lat="51.337661"><ele>-7.4</ele><time>2022-06-19T07:22:23.000Z</time></trkpt><trkpt lon="6.023913" lat="51.33768"><ele>-7.4</ele><time>2022-06-19T07:22:24.000Z</time></trkpt><trkpt lon="6.024031" lat="51.337699"><ele>-7.4</ele><time>2022-06-19T07:22:25.000Z</time></trkpt><trkpt lon="6.024148" lat="51.337722"><ele>-7.4</ele><time>2022-06-19T07:22:26.000Z</time></trkpt><trkpt lon="6.024269" lat="51.337741"><ele>-7.4</ele><time>2022-06-19T07:22:27.000Z</time></trkpt><trkpt lon="6.024385" lat="51.337757"><ele>-7.6</ele><time>2022-06-19T07:22:28.000Z</time></trkpt><trkpt lon="6.024502" lat="51.337776"><ele>-7.6</ele><time>2022-06-19T07:22:29.000Z</time></trkpt><trkpt lon="6.024617" lat="51.337795"><ele>-7.6</ele><time>2022-06-19T07:22:30.000Z</time></trkpt><trkpt lon="6.024728" lat="51.33781"><ele>-7.6</ele><time>2022-06-19T07:22:31.000Z</time></trkpt><trkpt lon="6.024841" lat="51.337821"><ele>-7.6</ele><time>2022-06-19T07:22:32.000Z</time></trkpt><trkpt lon="6.024959" lat="51.337829"><ele>-7.6</ele><time>2022-06-19T07:22:33.000Z</time></trkpt><trkpt lon="6.025074" lat="51.33783"><ele>-7.6</ele><time>2022-06-19T07:22:34.000Z</time></trkpt><trkpt lon="6.025187" lat="51.33783"><ele>-7.4</ele><time>2022-06-19T07:22:35.000Z</time></trkpt><trkpt lon="6.0253" lat="51.337833"><ele>-7.4</ele><time>2022-06-19T07:22:36.000Z</time></trkpt><trkpt lon="6.025415" lat="51.337833"><ele>-7.4</ele><time>2022-06-19T07:22:37.000Z</time></trkpt><trkpt lon="6.025527" lat="51.337833"><ele>-7.2</ele><time>2022-06-19T07:22:38.000Z</time></trkpt><trkpt lon="6.025638" lat="51.337833"><ele>-7.2</ele><time>2022-06-19T07:22:39.000Z</time></trkpt><trkpt lon="6.025751" lat="51.337833"><ele>-7.2</ele><time>2022-06-19T07:22:40.000Z</time></trkpt><trkpt lon="6.025861" lat="51.337833"><ele>-7</ele><time>2022-06-19T07:22:41.000Z</time></trkpt><trkpt lon="6.025969" lat="51.33783"><ele>-7</ele><time>2022-06-19T07:22:42.000Z</time></trkpt><trkpt lon="6.026069" lat="51.33783"><ele>-7</ele><time>2022-06-19T07:22:43.000Z</time></trkpt><trkpt lon="6.026184" lat="51.33783"><ele>-7</ele><time>2022-06-19T07:22:44.000Z</time></trkpt><trkpt lon="6.026289" lat="51.33783"><ele>-7</ele><time>2022-06-19T07:22:45.000Z</time></trkpt><trkpt lon="6.0264" lat="51.33783"><ele>-7</ele><time>2022-06-19T07:22:46.000Z</time></trkpt><trkpt lon="6.026506" lat="51.337833"><ele>-7</ele><time>2022-06-19T07:22:47.000Z</time></trkpt><trkpt lon="6.026614" lat="51.337837"><ele>-7</ele><time>2022-06-19T07:22:48.000Z</time></trkpt><trkpt lon="6.026723" lat="51.337837"><ele>-7</ele><time>2022-06-19T07:22:49.000Z</time></trkpt><trkpt lon="6.026841" lat="51.337841"><ele>-7</ele><time>2022-06-19T07:22:50.000Z</time></trkpt><trkpt lon="6.02695" lat="51.337845"><ele>-7</ele><time>2022-06-19T07:22:51.000Z</time></trkpt><trkpt lon="6.027067" lat="51.337845"><ele>-7</ele><time>2022-06-19T07:22:52.000Z</time></trkpt><trkpt lon="6.027178" lat="51.337845"><ele>-7</ele><time>2022-06-19T07:22:53.000Z</time></trkpt><trkpt lon="6.02729" lat="51.337845"><ele>-6.8</ele><time>2022-06-19T07:22:54.000Z</time></trkpt><trkpt lon="6.027406" lat="51.337845"><ele>-6.8</ele><time>2022-06-19T07:22:55.000Z</time></trkpt><trkpt lon="6.02753" lat="51.337845"><ele>-6.8</ele><time>2022-06-19T07:22:56.000Z</time></trkpt><trkpt lon="6.027645" lat="51.337841"><ele>-7</ele><time>2022-06-19T07:22:57.000Z</time></trkpt><trkpt lon="6.027774" lat="51.337837"><ele>-7</ele><time>2022-06-19T07:22:58.000Z</time></trkpt><trkpt lon="6.027895" lat="51.337834"><ele>-7.2</ele><time>2022-06-19T07:22:59.000Z</time></trkpt><trkpt lon="6.028019" lat="51.33783"><ele>-7.2</ele><time>2022-06-19T07:23:00.000Z</time></trkpt><trkpt lon="6.028141" lat="51.33783"><ele>-7.4</ele><time>2022-06-19T07:23:01.000Z</time></trkpt><trkpt lon="6.028272" lat="51.337826"><ele>-7.4</ele><time>2022-06-19T07:23:02.000Z</time></trkpt><trkpt lon="6.028395" lat="51.337826"><ele>-7.6</ele><time>2022-06-19T07:23:03.000Z</time></trkpt><trkpt lon="6.028521" lat="51.337822"><ele>-7.6</ele><time>2022-06-19T07:23:04.000Z</time></trkpt><trkpt lon="6.028643" lat="51.337822"><ele>-7.6</ele><time>2022-06-19T07:23:05.000Z</time></trkpt><trkpt lon="6.02877" lat="51.337822"><ele>-7.8</ele><time>2022-06-19T07:23:06.000Z</time></trkpt><trkpt lon="6.028892" lat="51.337822"><ele>-7.8</ele><time>2022-06-19T07:23:07.000Z</time></trkpt><trkpt lon="6.029015" lat="51.337818"><ele>-7.6</ele><time>2022-06-19T07:23:08.000Z</time></trkpt><trkpt lon="6.029133" lat="51.337818"><ele>-7.6</ele><time>2022-06-19T07:23:09.000Z</time></trkpt><trkpt lon="6.029257" lat="51.337818"><ele>-7.6</ele><time>2022-06-19T07:23:10.000Z</time></trkpt><trkpt lon="6.029375" lat="51.337818"><ele>-7.8</ele><time>2022-06-19T07:23:11.000Z</time></trkpt><trkpt lon="6.029494" lat="51.337818"><ele>-7.8</ele><time>2022-06-19T07:23:12.000Z</time></trkpt><trkpt lon="6.029617" lat="51.337815"><ele>-7.8</ele><time>2022-06-19T07:23:13.000Z</time></trkpt><trkpt lon="6.029733" lat="51.337814"><ele>-7.8</ele><time>2022-06-19T07:23:14.000Z</time></trkpt><trkpt lon="6.029869" lat="51.337814"><ele>-7.8</ele><time>2022-06-19T07:23:15.000Z</time></trkpt><trkpt lon="6.029998" lat="51.337811"><ele>-8</ele><time>2022-06-19T07:23:16.000Z</time></trkpt><trkpt lon="6.030118" lat="51.337811"><ele>-8</ele><time>2022-06-19T07:23:17.000Z</time></trkpt><trkpt lon="6.030241" lat="51.337811"><ele>-8</ele><time>2022-06-19T07:23:18.000Z</time></trkpt><trkpt lon="6.030358" lat="51.337807"><ele>-8</ele><time>2022-06-19T07:23:19.000Z</time></trkpt><trkpt lon="6.030476" lat="51.337807"><ele>-8</ele><time>2022-06-19T07:23:20.000Z</time></trkpt><trkpt lon="6.030587" lat="51.337807"><ele>-8.2</ele><time>2022-06-19T07:23:21.000Z</time></trkpt><trkpt lon="6.030704" lat="51.337807"><ele>-8.2</ele><time>2022-06-19T07:23:22.000Z</time></trkpt><trkpt lon="6.030809" lat="51.337807"><ele>-8.2</ele><time>2022-06-19T07:23:23.000Z</time></trkpt><trkpt lon="6.030911" lat="51.337807"><ele>-8.2</ele><time>2022-06-19T07:23:24.000Z</time></trkpt><trkpt lon="6.03101" lat="51.337803"><ele>-8</ele><time>2022-06-19T07:23:25.000Z</time></trkpt><trkpt lon="6.031106" lat="51.337799"><ele>-8</ele><time>2022-06-19T07:23:26.000Z</time></trkpt><trkpt lon="6.031188" lat="51.337784"><ele>-8</ele><time>2022-06-19T07:23:27.000Z</time></trkpt><trkpt lon="6.03127" lat="51.337769"><ele>-8</ele><time>2022-06-19T07:23:28.000Z</time></trkpt><trkpt lon="6.031325" lat="51.337743"><ele>-8</ele><time>2022-06-19T07:23:29.000Z</time></trkpt><trkpt lon="6.031364" lat="51.337698"><ele>-8.2</ele><time>2022-06-19T07:23:30.000Z</time></trkpt><trkpt lon="6.031402" lat="51.337652"><ele>-8.2</ele><time>2022-06-19T07:23:31.000Z</time></trkpt><trkpt lon="6.031454" lat="51.337606"><ele>-8.2</ele><time>2022-06-19T07:23:32.000Z</time></trkpt><trkpt lon="6.031525" lat="51.337575"><ele>-8.2</ele><time>2022-06-19T07:23:33.000Z</time></trkpt><trkpt lon="6.031596" lat="51.337544"><ele>-8.4</ele><time>2022-06-19T07:23:34.000Z</time></trkpt><trkpt lon="6.031671" lat="51.337529"><ele>-8.4</ele><time>2022-06-19T07:23:35.000Z</time></trkpt><trkpt lon="6.031739" lat="51.337525"><ele>-8.2</ele><time>2022-06-19T07:23:36.000Z</time></trkpt><trkpt lon="6.031807" lat="51.337532"><ele>-8.2</ele><time>2022-06-19T07:23:37.000Z</time></trkpt><trkpt lon="6.031876" lat="51.33755"><ele>-8.2</ele><time>2022-06-19T07:23:38.000Z</time></trkpt><trkpt lon="6.031947" lat="51.337566"><ele>-8.2</ele><time>2022-06-19T07:23:39.000Z</time></trkpt><trkpt lon="6.032009" lat="51.337578"><ele>-8</ele><time>2022-06-19T07:23:40.000Z</time></trkpt><trkpt lon="6.032069" lat="51.337596"><ele>-8</ele><time>2022-06-19T07:23:41.000Z</time></trkpt><trkpt lon="6.032132" lat="51.337625"><ele>-7.8</ele><time>2022-06-19T07:23:42.000Z</time></trkpt><trkpt lon="6.032195" lat="51.337653"><ele>-7.8</ele><time>2022-06-19T07:23:43.000Z</time></trkpt><trkpt lon="6.032268" lat="51.337682"><ele>-7.8</ele><time>2022-06-19T07:23:44.000Z</time></trkpt><trkpt lon="6.032341" lat="51.337711"><ele>-7.8</ele><time>2022-06-19T07:23:45.000Z</time></trkpt><trkpt lon="6.032422" lat="51.33773"><ele>-8</ele><time>2022-06-19T07:23:46.000Z</time></trkpt><trkpt lon="6.032498" lat="51.33773"><ele>-8.2</ele><time>2022-06-19T07:23:47.000Z</time></trkpt><trkpt lon="6.032572" lat="51.337723"><ele>-8.2</ele><time>2022-06-19T07:23:48.000Z</time></trkpt><trkpt lon="6.032653" lat="51.337708"><ele>-8.4</ele><time>2022-06-19T07:23:49.000Z</time></trkpt><trkpt lon="6.032738" lat="51.337689"><ele>-8.4</ele><time>2022-06-19T07:23:50.000Z</time></trkpt><trkpt lon="6.032833" lat="51.33767"><ele>-8.4</ele><time>2022-06-19T07:23:51.000Z</time></trkpt><trkpt lon="6.032924" lat="51.337654"><ele>-8.4</ele><time>2022-06-19T07:23:52.000Z</time></trkpt><trkpt lon="6.033013" lat="51.337647"><ele>-8.4</ele><time>2022-06-19T07:23:53.000Z</time></trkpt><trkpt lon="6.033095" lat="51.337654"><ele>-8.4</ele><time>2022-06-19T07:23:54.000Z</time></trkpt><trkpt lon="6.03317" lat="51.33768"><ele>-8.2</ele><time>2022-06-19T07:23:55.000Z</time></trkpt><trkpt lon="6.033233" lat="51.337714"><ele>-8.2</ele><time>2022-06-19T07:23:56.000Z</time></trkpt><trkpt lon="6.033279" lat="51.337767"><ele>-8.4</ele><time>2022-06-19T07:23:57.000Z</time></trkpt><trkpt lon="6.033318" lat="51.337828"><ele>-8.4</ele><time>2022-06-19T07:23:58.000Z</time></trkpt><trkpt lon="6.033343" lat="51.337896"><ele>-8.4</ele><time>2022-06-19T07:23:59.000Z</time></trkpt><trkpt lon="6.033369" lat="51.337961"><ele>-8.4</ele><time>2022-06-19T07:24:00.000Z</time></trkpt><trkpt lon="6.033388" lat="51.338023"><ele>-8.2</ele><time>2022-06-19T07:24:01.000Z</time></trkpt><trkpt lon="6.033408" lat="51.338072"><ele>-8.2</ele><time>2022-06-19T07:24:02.000Z</time></trkpt><trkpt lon="6.033428" lat="51.338111"><ele>-8.2</ele><time>2022-06-19T07:24:03.000Z</time></trkpt><trkpt lon="6.033446" lat="51.338141"><ele>-8.2</ele><time>2022-06-19T07:24:04.000Z</time></trkpt><trkpt lon="6.033463" lat="51.338161"><ele>-8.2</ele><time>2022-06-19T07:24:05.000Z</time></trkpt><trkpt lon="6.033473" lat="51.33818"><ele>-8.2</ele><time>2022-06-19T07:24:06.000Z</time></trkpt><trkpt lon="6.033481" lat="51.338203"><ele>-8.2</ele><time>2022-06-19T07:24:07.000Z</time></trkpt><trkpt lon="6.03349" lat="51.33823"><ele>-8.2</ele><time>2022-06-19T07:24:08.000Z</time></trkpt><trkpt lon="6.033503" lat="51.338267"><ele>-8.2</ele><time>2022-06-19T07:24:09.000Z</time></trkpt><trkpt lon="6.03352" lat="51.338309"><ele>-8.2</ele><time>2022-06-19T07:24:10.000Z</time></trkpt><trkpt lon="6.033536" lat="51.338362"><ele>-8.2</ele><time>2022-06-19T07:24:11.000Z</time></trkpt><trkpt lon="6.033548" lat="51.338427"><ele>-8.2</ele><time>2022-06-19T07:24:12.000Z</time></trkpt><trkpt lon="6.03356" lat="51.338492"><ele>-8.2</ele><time>2022-06-19T07:24:13.000Z</time></trkpt><trkpt lon="6.033572" lat="51.338558"><ele>-8.2</ele><time>2022-06-19T07:24:14.000Z</time></trkpt><trkpt lon="6.033586" lat="51.338632"><ele>-8</ele><time>2022-06-19T07:24:15.000Z</time></trkpt><trkpt lon="6.033598" lat="51.338705"><ele>-8</ele><time>2022-06-19T07:24:16.000Z</time></trkpt><trkpt lon="6.033611" lat="51.338775"><ele>-8.2</ele><time>2022-06-19T07:24:17.000Z</time></trkpt><trkpt lon="6.03363" lat="51.338854"><ele>-8.4</ele><time>2022-06-19T07:24:18.000Z</time></trkpt><trkpt lon="6.033648" lat="51.33893"><ele>-8.4</ele><time>2022-06-19T07:24:19.000Z</time></trkpt><trkpt lon="6.033666" lat="51.339006"><ele>-8.2</ele><time>2022-06-19T07:24:20.000Z</time></trkpt><trkpt lon="6.033682" lat="51.339087"><ele>-8.2</ele><time>2022-06-19T07:24:21.000Z</time></trkpt><trkpt lon="6.033696" lat="51.339159"><ele>-8.4</ele><time>2022-06-19T07:24:22.000Z</time></trkpt><trkpt lon="6.033715" lat="51.33924"><ele>-8.4</ele><time>2022-06-19T07:24:23.000Z</time></trkpt><trkpt lon="6.033731" lat="51.339312"><ele>-8.8</ele><time>2022-06-19T07:24:24.000Z</time></trkpt><trkpt lon="6.033748" lat="51.339388"><ele>-9</ele><time>2022-06-19T07:24:25.000Z</time></trkpt><trkpt lon="6.033766" lat="51.339464"><ele>-9</ele><time>2022-06-19T07:24:26.000Z</time></trkpt><trkpt lon="6.033786" lat="51.339533"><ele>-9</ele><time>2022-06-19T07:24:27.000Z</time></trkpt><trkpt lon="6.033808" lat="51.339609"><ele>-8.8</ele><time>2022-06-19T07:24:28.000Z</time></trkpt><trkpt lon="6.033829" lat="51.339681"><ele>-8.6</ele><time>2022-06-19T07:24:29.000Z</time></trkpt><trkpt lon="6.033848" lat="51.339754"><ele>-8.4</ele><time>2022-06-19T07:24:30.000Z</time></trkpt><trkpt lon="6.033863" lat="51.339822"><ele>-8.2</ele><time>2022-06-19T07:24:31.000Z</time></trkpt><trkpt lon="6.033881" lat="51.339891"><ele>-8.4</ele><time>2022-06-19T07:24:32.000Z</time></trkpt><trkpt lon="6.033898" lat="51.339964"><ele>-8.4</ele><time>2022-06-19T07:24:33.000Z</time></trkpt><trkpt lon="6.033913" lat="51.340033"><ele>-8.4</ele><time>2022-06-19T07:24:34.000Z</time></trkpt><trkpt lon="6.033925" lat="51.340101"><ele>-8.4</ele><time>2022-06-19T07:24:35.000Z</time></trkpt><trkpt lon="6.033938" lat="51.34017"><ele>-8.4</ele><time>2022-06-19T07:24:36.000Z</time></trkpt><trkpt lon="6.033954" lat="51.340233"><ele>-8.4</ele><time>2022-06-19T07:24:37.000Z</time></trkpt><trkpt lon="6.033971" lat="51.340304"><ele>-8.4</ele><time>2022-06-19T07:24:38.000Z</time></trkpt><trkpt lon="6.03399" lat="51.340373"><ele>-8.4</ele><time>2022-06-19T07:24:39.000Z</time></trkpt><trkpt lon="6.034006" lat="51.340444"><ele>-8.4</ele><time>2022-06-19T07:24:40.000Z</time></trkpt><trkpt lon="6.034023" lat="51.340513"><ele>-8.4</ele><time>2022-06-19T07:24:41.000Z</time></trkpt><trkpt lon="6.034039" lat="51.340585"><ele>-8.4</ele><time>2022-06-19T07:24:42.000Z</time></trkpt><trkpt lon="6.034055" lat="51.340658"><ele>-8.4</ele><time>2022-06-19T07:24:43.000Z</time></trkpt><trkpt lon="6.034069" lat="51.340726"><ele>-8.4</ele><time>2022-06-19T07:24:44.000Z</time></trkpt><trkpt lon="6.034086" lat="51.340799"><ele>-8.4</ele><time>2022-06-19T07:24:45.000Z</time></trkpt><trkpt lon="6.034106" lat="51.340868"><ele>-8.4</ele><time>2022-06-19T07:24:46.000Z</time></trkpt><trkpt lon="6.034127" lat="51.340931"><ele>-8.4</ele><time>2022-06-19T07:24:47.000Z</time></trkpt><trkpt lon="6.034147" lat="51.341001"><ele>-8.2</ele><time>2022-06-19T07:24:48.000Z</time></trkpt><trkpt lon="6.034168" lat="51.341071"><ele>-8.4</ele><time>2022-06-19T07:24:49.000Z</time></trkpt><trkpt lon="6.034183" lat="51.341135"><ele>-8.4</ele><time>2022-06-19T07:24:50.000Z</time></trkpt><trkpt lon="6.034193" lat="51.341196"><ele>-8.4</ele><time>2022-06-19T07:24:51.000Z</time></trkpt><trkpt lon="6.0342" lat="51.341257"><ele>-8.4</ele><time>2022-06-19T07:24:52.000Z</time></trkpt><trkpt lon="6.034185" lat="51.341318"><ele>-8.4</ele><time>2022-06-19T07:24:53.000Z</time></trkpt><trkpt lon="6.034152" lat="51.341367"><ele>-8.4</ele><time>2022-06-19T07:24:54.000Z</time></trkpt><trkpt lon="6.034099" lat="51.341409"><ele>-8.6</ele><time>2022-06-19T07:24:55.000Z</time></trkpt><trkpt lon="6.034018" lat="51.341438"><ele>-8.6</ele><time>2022-06-19T07:24:56.000Z</time></trkpt><trkpt lon="6.033931" lat="51.341464"><ele>-8.8</ele><time>2022-06-19T07:24:57.000Z</time></trkpt><trkpt lon="6.033833" lat="51.341484"><ele>-8.8</ele><time>2022-06-19T07:24:58.000Z</time></trkpt><trkpt lon="6.033738" lat="51.341502"><ele>-8.8</ele><time>2022-06-19T07:24:59.000Z</time></trkpt><trkpt lon="6.033641" lat="51.341525"><ele>-8.8</ele><time>2022-06-19T07:25:00.000Z</time></trkpt><trkpt lon="6.033547" lat="51.341552"><ele>-9</ele><time>2022-06-19T07:25:01.000Z</time></trkpt><trkpt lon="6.033462" lat="51.341583"><ele>-9</ele><time>2022-06-19T07:25:02.000Z</time></trkpt><trkpt lon="6.033388" lat="51.341624"><ele>-9.2</ele><time>2022-06-19T07:25:03.000Z</time></trkpt><trkpt lon="6.033336" lat="51.341678"><ele>-9.2</ele><time>2022-06-19T07:25:04.000Z</time></trkpt><trkpt lon="6.033306" lat="51.341737"><ele>-9.2</ele><time>2022-06-19T07:25:05.000Z</time></trkpt><trkpt lon="6.033287" lat="51.341806"><ele>-9.2</ele><time>2022-06-19T07:25:06.000Z</time></trkpt><trkpt lon="6.033277" lat="51.341877"><ele>-9.2</ele><time>2022-06-19T07:25:07.000Z</time></trkpt><trkpt lon="6.033273" lat="51.341955"><ele>-9.2</ele><time>2022-06-19T07:25:08.000Z</time></trkpt><trkpt lon="6.033267" lat="51.342031"><ele>-9.4</ele><time>2022-06-19T07:25:09.000Z</time></trkpt><trkpt lon="6.033262" lat="51.342104"><ele>-9.4</ele><time>2022-06-19T07:25:10.000Z</time></trkpt><trkpt lon="6.033255" lat="51.342176"><ele>-9.6</ele><time>2022-06-19T07:25:11.000Z</time></trkpt><trkpt lon="6.033252" lat="51.34225"><ele>-9.6</ele><time>2022-06-19T07:25:12.000Z</time></trkpt><trkpt lon="6.03325" lat="51.342325"><ele>-9.6</ele><time>2022-06-19T07:25:13.000Z</time></trkpt><trkpt lon="6.033252" lat="51.3424"><ele>-9.4</ele><time>2022-06-19T07:25:14.000Z</time></trkpt><trkpt lon="6.033256" lat="51.342474"><ele>-9.6</ele><time>2022-06-19T07:25:15.000Z</time></trkpt><trkpt lon="6.033266" lat="51.342547"><ele>-9.6</ele><time>2022-06-19T07:25:16.000Z</time></trkpt><trkpt lon="6.033275" lat="51.342619"><ele>-9.6</ele><time>2022-06-19T07:25:17.000Z</time></trkpt><trkpt lon="6.033285" lat="51.342691"><ele>-9.6</ele><time>2022-06-19T07:25:18.000Z</time></trkpt><trkpt lon="6.033298" lat="51.34276"><ele>-9.6</ele><time>2022-06-19T07:25:19.000Z</time></trkpt><trkpt lon="6.03331" lat="51.342833"><ele>-9.6</ele><time>2022-06-19T07:25:20.000Z</time></trkpt><trkpt lon="6.033323" lat="51.342905"><ele>-9.6</ele><time>2022-06-19T07:25:21.000Z</time></trkpt><trkpt lon="6.033338" lat="51.342978"><ele>-9.4</ele><time>2022-06-19T07:25:22.000Z</time></trkpt><trkpt lon="6.033353" lat="51.343045"><ele>-9.4</ele><time>2022-06-19T07:25:23.000Z</time></trkpt><trkpt lon="6.03337" lat="51.343116"><ele>-9.4</ele><time>2022-06-19T07:25:24.000Z</time></trkpt><trkpt lon="6.033389" lat="51.343186"><ele>-9.4</ele><time>2022-06-19T07:25:25.000Z</time></trkpt><trkpt lon="6.033408" lat="51.343256"><ele>-9.4</ele><time>2022-06-19T07:25:26.000Z</time></trkpt><trkpt lon="6.033428" lat="51.343326"><ele>-9.4</ele><time>2022-06-19T07:25:27.000Z</time></trkpt><trkpt lon="6.033448" lat="51.343397"><ele>-9.4</ele><time>2022-06-19T07:25:28.000Z</time></trkpt><trkpt lon="6.033472" lat="51.34346"><ele>-9.4</ele><time>2022-06-19T07:25:29.000Z</time></trkpt><trkpt lon="6.033503" lat="51.343529"><ele>-9.6</ele><time>2022-06-19T07:25:30.000Z</time></trkpt><trkpt lon="6.03354" lat="51.343595"><ele>-9.6</ele><time>2022-06-19T07:25:31.000Z</time></trkpt><trkpt lon="6.033582" lat="51.343661"><ele>-9.6</ele><time>2022-06-19T07:25:32.000Z</time></trkpt><trkpt lon="6.033622" lat="51.343722"><ele>-9.6</ele><time>2022-06-19T07:25:33.000Z</time></trkpt><trkpt lon="6.033666" lat="51.343785"><ele>-9.6</ele><time>2022-06-19T07:25:34.000Z</time></trkpt><trkpt lon="6.03371" lat="51.343848"><ele>-9.4</ele><time>2022-06-19T07:25:35.000Z</time></trkpt><trkpt lon="6.033755" lat="51.343912"><ele>-9.4</ele><time>2022-06-19T07:25:36.000Z</time></trkpt><trkpt lon="6.033804" lat="51.343974"><ele>-9.4</ele><time>2022-06-19T07:25:37.000Z</time></trkpt><trkpt lon="6.033847" lat="51.344038"><ele>-9.4</ele><time>2022-06-19T07:25:38.000Z</time></trkpt><trkpt lon="6.033891" lat="51.344103"><ele>-9.2</ele><time>2022-06-19T07:25:39.000Z</time></trkpt><trkpt lon="6.033932" lat="51.344164"><ele>-9.2</ele><time>2022-06-19T07:25:40.000Z</time></trkpt><trkpt lon="6.033979" lat="51.344229"><ele>-9.2</ele><time>2022-06-19T07:25:41.000Z</time></trkpt><trkpt lon="6.034023" lat="51.344291"><ele>-9.2</ele><time>2022-06-19T07:25:42.000Z</time></trkpt><trkpt lon="6.034067" lat="51.34435"><ele>-9.2</ele><time>2022-06-19T07:25:43.000Z</time></trkpt><trkpt lon="6.034119" lat="51.344416"><ele>-9.2</ele><time>2022-06-19T07:25:44.000Z</time></trkpt><trkpt lon="6.034161" lat="51.34447"><ele>-9.4</ele><time>2022-06-19T07:25:45.000Z</time></trkpt><trkpt lon="6.034208" lat="51.344529"><ele>-9.4</ele><time>2022-06-19T07:25:46.000Z</time></trkpt><trkpt lon="6.034251" lat="51.344588"><ele>-9.4</ele><time>2022-06-19T07:25:47.000Z</time></trkpt><trkpt lon="6.034294" lat="51.344645"><ele>-9.4</ele><time>2022-06-19T07:25:48.000Z</time></trkpt><trkpt lon="6.034339" lat="51.34471"><ele>-9.2</ele><time>2022-06-19T07:25:49.000Z</time></trkpt><trkpt lon="6.034384" lat="51.344767"><ele>-9.2</ele><time>2022-06-19T07:25:50.000Z</time></trkpt><trkpt lon="6.034425" lat="51.344825"><ele>-9</ele><time>2022-06-19T07:25:51.000Z</time></trkpt><trkpt lon="6.034465" lat="51.344885"><ele>-8.8</ele><time>2022-06-19T07:25:52.000Z</time></trkpt><trkpt lon="6.034506" lat="51.34495"><ele>-8.8</ele><time>2022-06-19T07:25:53.000Z</time></trkpt><trkpt lon="6.03454" lat="51.345001"><ele>-8.8</ele><time>2022-06-19T07:25:54.000Z</time></trkpt><trkpt lon="6.034577" lat="51.345063"><ele>-8.6</ele><time>2022-06-19T07:25:55.000Z</time></trkpt><trkpt lon="6.034609" lat="51.345118"><ele>-8.6</ele><time>2022-06-19T07:25:56.000Z</time></trkpt><trkpt lon="6.03464" lat="51.34517"><ele>-8.6</ele><time>2022-06-19T07:25:57.000Z</time></trkpt><trkpt lon="6.034669" lat="51.345221"><ele>-8.4</ele><time>2022-06-19T07:25:58.000Z</time></trkpt><trkpt lon="6.034689" lat="51.345267"><ele>-8.4</ele><time>2022-06-19T07:25:59.000Z</time></trkpt><trkpt lon="6.034695" lat="51.34532"><ele>-8.4</ele><time>2022-06-19T07:26:00.000Z</time></trkpt><trkpt lon="6.034682" lat="51.34537"><ele>-8.6</ele><time>2022-06-19T07:26:01.000Z</time></trkpt><trkpt lon="6.034641" lat="51.345416"><ele>-8.8</ele><time>2022-06-19T07:26:02.000Z</time></trkpt><trkpt lon="6.03458" lat="51.345458"><ele>-9</ele><time>2022-06-19T07:26:03.000Z</time></trkpt><trkpt lon="6.0345" lat="51.345503"><ele>-9.2</ele><time>2022-06-19T07:26:04.000Z</time></trkpt><trkpt lon="6.034408" lat="51.345549"><ele>-9.2</ele><time>2022-06-19T07:26:05.000Z</time></trkpt><trkpt lon="6.034315" lat="51.345599"><ele>-9.2</ele><time>2022-06-19T07:26:06.000Z</time></trkpt><trkpt lon="6.034227" lat="51.34564"><ele>-9.2</ele><time>2022-06-19T07:26:07.000Z</time></trkpt><trkpt lon="6.034137" lat="51.345687"><ele>-9.4</ele><time>2022-06-19T07:26:08.000Z</time></trkpt><trkpt lon="6.034051" lat="51.345736"><ele>-9.6</ele><time>2022-06-19T07:26:09.000Z</time></trkpt><trkpt lon="6.033962" lat="51.345782"><ele>-9.6</ele><time>2022-06-19T07:26:10.000Z</time></trkpt><trkpt lon="6.033871" lat="51.345828"><ele>-9.6</ele><time>2022-06-19T07:26:11.000Z</time></trkpt><trkpt lon="6.033786" lat="51.345872"><ele>-10</ele><time>2022-06-19T07:26:12.000Z</time></trkpt><trkpt lon="6.033698" lat="51.345919"><ele>-10</ele><time>2022-06-19T07:26:13.000Z</time></trkpt><trkpt lon="6.033614" lat="51.345969"><ele>-10.2</ele><time>2022-06-19T07:26:14.000Z</time></trkpt><trkpt lon="6.03353" lat="51.346022"><ele>-10.4</ele><time>2022-06-19T07:26:15.000Z</time></trkpt><trkpt lon="6.033451" lat="51.346072"><ele>-10.6</ele><time>2022-06-19T07:26:16.000Z</time></trkpt><trkpt lon="6.03338" lat="51.346128"><ele>-10.6</ele><time>2022-06-19T07:26:17.000Z</time></trkpt><trkpt lon="6.033311" lat="51.34619"><ele>-10.4</ele><time>2022-06-19T07:26:18.000Z</time></trkpt><trkpt lon="6.033251" lat="51.346247"><ele>-10.2</ele><time>2022-06-19T07:26:19.000Z</time></trkpt><trkpt lon="6.03318" lat="51.346312"><ele>-10</ele><time>2022-06-19T07:26:20.000Z</time></trkpt><trkpt lon="6.033115" lat="51.346377"><ele>-10</ele><time>2022-06-19T07:26:21.000Z</time></trkpt><trkpt lon="6.033054" lat="51.346436"><ele>-10</ele><time>2022-06-19T07:26:22.000Z</time></trkpt><trkpt lon="6.032989" lat="51.346498"><ele>-10</ele><time>2022-06-19T07:26:23.000Z</time></trkpt><trkpt lon="6.032923" lat="51.346556"><ele>-10</ele><time>2022-06-19T07:26:24.000Z</time></trkpt><trkpt lon="6.03286" lat="51.346612"><ele>-10</ele><time>2022-06-19T07:26:25.000Z</time></trkpt><trkpt lon="6.032795" lat="51.346671"><ele>-10</ele><time>2022-06-19T07:26:26.000Z</time></trkpt><trkpt lon="6.032729" lat="51.346724"><ele>-10</ele><time>2022-06-19T07:26:27.000Z</time></trkpt><trkpt lon="6.032662" lat="51.346777"><ele>-10.2</ele><time>2022-06-19T07:26:28.000Z</time></trkpt><trkpt lon="6.032594" lat="51.346831"><ele>-10.4</ele><time>2022-06-19T07:26:29.000Z</time></trkpt><trkpt lon="6.032526" lat="51.346885"><ele>-10.4</ele><time>2022-06-19T07:26:30.000Z</time></trkpt><trkpt lon="6.032457" lat="51.346938"><ele>-10.4</ele><time>2022-06-19T07:26:31.000Z</time></trkpt><trkpt lon="6.03239" lat="51.346995"><ele>-10.6</ele><time>2022-06-19T07:26:32.000Z</time></trkpt><trkpt lon="6.032327" lat="51.347048"><ele>-10.6</ele><time>2022-06-19T07:26:33.000Z</time></trkpt><trkpt lon="6.032264" lat="51.347102"><ele>-10.6</ele><time>2022-06-19T07:26:34.000Z</time></trkpt><trkpt lon="6.032198" lat="51.347155"><ele>-10.6</ele><time>2022-06-19T07:26:35.000Z</time></trkpt><trkpt lon="6.03213" lat="51.347212"><ele>-10.8</ele><time>2022-06-19T07:26:36.000Z</time></trkpt><trkpt lon="6.03206" lat="51.347266"><ele>-10.6</ele><time>2022-06-19T07:26:37.000Z</time></trkpt><trkpt lon="6.031995" lat="51.347319"><ele>-10.4</ele><time>2022-06-19T07:26:38.000Z</time></trkpt><trkpt lon="6.03193" lat="51.347373"><ele>-10.2</ele><time>2022-06-19T07:26:39.000Z</time></trkpt><trkpt lon="6.031862" lat="51.347422"><ele>-10.2</ele><time>2022-06-19T07:26:40.000Z</time></trkpt><trkpt lon="6.031795" lat="51.347472"><ele>-10</ele><time>2022-06-19T07:26:41.000Z</time></trkpt><trkpt lon="6.031738" lat="51.347518"><ele>-10</ele><time>2022-06-19T07:26:42.000Z</time></trkpt><trkpt lon="6.03167" lat="51.347572"><ele>-10</ele><time>2022-06-19T07:26:43.000Z</time></trkpt><trkpt lon="6.0316" lat="51.347628"><ele>-10</ele><time>2022-06-19T07:26:44.000Z</time></trkpt><trkpt lon="6.031529" lat="51.347678"><ele>-9.8</ele><time>2022-06-19T07:26:45.000Z</time></trkpt><trkpt lon="6.031461" lat="51.347731"><ele>-9.8</ele><time>2022-06-19T07:26:46.000Z</time></trkpt><trkpt lon="6.031398" lat="51.347781"><ele>-9.8</ele><time>2022-06-19T07:26:47.000Z</time></trkpt><trkpt lon="6.031332" lat="51.347831"><ele>-9.8</ele><time>2022-06-19T07:26:48.000Z</time></trkpt><trkpt lon="6.031262" lat="51.347884"><ele>-9.8</ele><time>2022-06-19T07:26:49.000Z</time></trkpt><trkpt lon="6.031188" lat="51.347934"><ele>-9.8</ele><time>2022-06-19T07:26:50.000Z</time></trkpt><trkpt lon="6.031118" lat="51.347987"><ele>-9.6</ele><time>2022-06-19T07:26:51.000Z</time></trkpt><trkpt lon="6.031049" lat="51.348037"><ele>-9.6</ele><time>2022-06-19T07:26:52.000Z</time></trkpt><trkpt lon="6.030982" lat="51.34809"><ele>-9.4</ele><time>2022-06-19T07:26:53.000Z</time></trkpt><trkpt lon="6.030915" lat="51.348143"><ele>-9.4</ele><time>2022-06-19T07:26:54.000Z</time></trkpt><trkpt lon="6.030849" lat="51.348196"><ele>-9.2</ele><time>2022-06-19T07:26:55.000Z</time></trkpt><trkpt lon="6.03078" lat="51.348254"><ele>-9.2</ele><time>2022-06-19T07:26:56.000Z</time></trkpt><trkpt lon="6.030713" lat="51.348307"><ele>-9</ele><time>2022-06-19T07:26:57.000Z</time></trkpt><trkpt lon="6.030644" lat="51.348357"><ele>-9</ele><time>2022-06-19T07:26:58.000Z</time></trkpt><trkpt lon="6.030575" lat="51.34841"><ele>-9</ele><time>2022-06-19T07:26:59.000Z</time></trkpt><trkpt lon="6.030509" lat="51.348463"><ele>-9</ele><time>2022-06-19T07:27:00.000Z</time></trkpt><trkpt lon="6.030444" lat="51.348513"><ele>-8.8</ele><time>2022-06-19T07:27:01.000Z</time></trkpt><trkpt lon="6.03038" lat="51.348559"><ele>-8.8</ele><time>2022-06-19T07:27:02.000Z</time></trkpt><trkpt lon="6.030321" lat="51.348608"><ele>-8.8</ele><time>2022-06-19T07:27:03.000Z</time></trkpt><trkpt lon="6.030261" lat="51.348651"><ele>-8.6</ele><time>2022-06-19T07:27:04.000Z</time></trkpt><trkpt lon="6.030211" lat="51.348691"><ele>-8.6</ele><time>2022-06-19T07:27:05.000Z</time></trkpt><trkpt lon="6.030162" lat="51.348734"><ele>-8.6</ele><time>2022-06-19T07:27:06.000Z</time></trkpt><trkpt lon="6.030124" lat="51.34878"><ele>-8.4</ele><time>2022-06-19T07:27:07.000Z</time></trkpt><trkpt lon="6.030106" lat="51.348822"><ele>-8.2</ele><time>2022-06-19T07:27:08.000Z</time></trkpt><trkpt lon="6.030115" lat="51.348868"><ele>-8.2</ele><time>2022-06-19T07:27:09.000Z</time></trkpt><trkpt lon="6.030154" lat="51.348906"><ele>-8</ele><time>2022-06-19T07:27:10.000Z</time></trkpt><trkpt lon="6.030222" lat="51.348937"><ele>-7.8</ele><time>2022-06-19T07:27:11.000Z</time></trkpt><trkpt lon="6.03031" lat="51.348967"><ele>-7.8</ele><time>2022-06-19T07:27:12.000Z</time></trkpt><trkpt lon="6.030404" lat="51.348997"><ele>-7.8</ele><time>2022-06-19T07:27:13.000Z</time></trkpt><trkpt lon="6.030508" lat="51.349025"><ele>-7.8</ele><time>2022-06-19T07:27:14.000Z</time></trkpt><trkpt lon="6.030609" lat="51.349055"><ele>-7.8</ele><time>2022-06-19T07:27:15.000Z</time></trkpt><trkpt lon="6.030712" lat="51.349086"><ele>-7.8</ele><time>2022-06-19T07:27:16.000Z</time></trkpt><trkpt lon="6.030814" lat="51.349113"><ele>-7.8</ele><time>2022-06-19T07:27:17.000Z</time></trkpt><trkpt lon="6.030917" lat="51.349147"><ele>-7.8</ele><time>2022-06-19T07:27:18.000Z</time></trkpt><trkpt lon="6.031021" lat="51.349178"><ele>-8</ele><time>2022-06-19T07:27:19.000Z</time></trkpt><trkpt lon="6.031124" lat="51.349208"><ele>-8</ele><time>2022-06-19T07:27:20.000Z</time></trkpt><trkpt lon="6.031227" lat="51.349239"><ele>-8</ele><time>2022-06-19T07:27:21.000Z</time></trkpt><trkpt lon="6.03133" lat="51.349269"><ele>-8</ele><time>2022-06-19T07:27:22.000Z</time></trkpt><trkpt lon="6.031434" lat="51.349303"><ele>-8.2</ele><time>2022-06-19T07:27:23.000Z</time></trkpt><trkpt lon="6.03154" lat="51.349337"><ele>-8.2</ele><time>2022-06-19T07:27:24.000Z</time></trkpt><trkpt lon="6.031642" lat="51.349371"><ele>-8.2</ele><time>2022-06-19T07:27:25.000Z</time></trkpt><trkpt lon="6.031747" lat="51.349406"><ele>-8.2</ele><time>2022-06-19T07:27:26.000Z</time></trkpt><trkpt lon="6.031853" lat="51.34944"><ele>-8.2</ele><time>2022-06-19T07:27:27.000Z</time></trkpt><trkpt lon="6.031957" lat="51.349475"><ele>-8.2</ele><time>2022-06-19T07:27:28.000Z</time></trkpt><trkpt lon="6.032059" lat="51.349509"><ele>-8.2</ele><time>2022-06-19T07:27:29.000Z</time></trkpt><trkpt lon="6.032161" lat="51.349547"><ele>-8.2</ele><time>2022-06-19T07:27:30.000Z</time></trkpt><trkpt lon="6.032262" lat="51.349585"><ele>-8.4</ele><time>2022-06-19T07:27:31.000Z</time></trkpt><trkpt lon="6.032357" lat="51.349631"><ele>-8.2</ele><time>2022-06-19T07:27:32.000Z</time></trkpt><trkpt lon="6.032448" lat="51.34968"><ele>-8.2</ele><time>2022-06-19T07:27:33.000Z</time></trkpt><trkpt lon="6.032527" lat="51.349728"><ele>-8.2</ele><time>2022-06-19T07:27:34.000Z</time></trkpt><trkpt lon="6.032612" lat="51.349785"><ele>-8.4</ele><time>2022-06-19T07:27:35.000Z</time></trkpt><trkpt lon="6.032703" lat="51.349847"><ele>-8.4</ele><time>2022-06-19T07:27:36.000Z</time></trkpt><trkpt lon="6.032787" lat="51.349906"><ele>-8.4</ele><time>2022-06-19T07:27:37.000Z</time></trkpt><trkpt lon="6.032867" lat="51.349966"><ele>-8.6</ele><time>2022-06-19T07:27:38.000Z</time></trkpt><trkpt lon="6.032945" lat="51.350028"><ele>-8.6</ele><time>2022-06-19T07:27:39.000Z</time></trkpt><trkpt lon="6.033019" lat="51.350087"><ele>-8.6</ele><time>2022-06-19T07:27:40.000Z</time></trkpt><trkpt lon="6.033101" lat="51.350153"><ele>-8.6</ele><time>2022-06-19T07:27:41.000Z</time></trkpt><trkpt lon="6.033179" lat="51.350211"><ele>-8.6</ele><time>2022-06-19T07:27:42.000Z</time></trkpt><trkpt lon="6.033252" lat="51.350271"><ele>-8.8</ele><time>2022-06-19T07:27:43.000Z</time></trkpt><trkpt lon="6.03333" lat="51.350329"><ele>-8.8</ele><time>2022-06-19T07:27:44.000Z</time></trkpt><trkpt lon="6.033408" lat="51.35039"><ele>-8.8</ele><time>2022-06-19T07:27:45.000Z</time></trkpt><trkpt lon="6.033492" lat="51.350443"><ele>-8.8</ele><time>2022-06-19T07:27:46.000Z</time></trkpt><trkpt lon="6.033581" lat="51.350497"><ele>-8.8</ele><time>2022-06-19T07:27:47.000Z</time></trkpt><trkpt lon="6.033672" lat="51.350539"><ele>-9</ele><time>2022-06-19T07:27:48.000Z</time></trkpt><trkpt lon="6.033775" lat="51.350581"><ele>-9</ele><time>2022-06-19T07:27:49.000Z</time></trkpt><trkpt lon="6.033881" lat="51.350616"><ele>-9.2</ele><time>2022-06-19T07:27:50.000Z</time></trkpt><trkpt lon="6.033988" lat="51.350646"><ele>-9.2</ele><time>2022-06-19T07:27:51.000Z</time></trkpt><trkpt lon="6.034097" lat="51.350673"><ele>-9.2</ele><time>2022-06-19T07:27:52.000Z</time></trkpt><trkpt lon="6.034211" lat="51.350692"><ele>-9.2</ele><time>2022-06-19T07:27:53.000Z</time></trkpt><trkpt lon="6.034327" lat="51.350711"><ele>-9.2</ele><time>2022-06-19T07:27:54.000Z</time></trkpt><trkpt lon="6.034445" lat="51.350723"><ele>-9.2</ele><time>2022-06-19T07:27:55.000Z</time></trkpt><trkpt lon="6.034569" lat="51.350727"><ele>-9.2</ele><time>2022-06-19T07:27:56.000Z</time></trkpt><trkpt lon="6.034692" lat="51.350727"><ele>-9.2</ele><time>2022-06-19T07:27:57.000Z</time></trkpt><trkpt lon="6.034815" lat="51.350723"><ele>-9.2</ele><time>2022-06-19T07:27:58.000Z</time></trkpt><trkpt lon="6.034935" lat="51.350716"><ele>-9.2</ele><time>2022-06-19T07:27:59.000Z</time></trkpt><trkpt lon="6.035056" lat="51.350708"><ele>-9.2</ele><time>2022-06-19T07:28:00.000Z</time></trkpt><trkpt lon="6.035175" lat="51.350701"><ele>-9.4</ele><time>2022-06-19T07:28:01.000Z</time></trkpt><trkpt lon="6.035295" lat="51.350697"><ele>-9.4</ele><time>2022-06-19T07:28:02.000Z</time></trkpt><trkpt lon="6.035415" lat="51.350685"><ele>-9.6</ele><time>2022-06-19T07:28:03.000Z</time></trkpt><trkpt lon="6.035535" lat="51.350678"><ele>-9.8</ele><time>2022-06-19T07:28:04.000Z</time></trkpt><trkpt lon="6.035655" lat="51.35067"><ele>-9.8</ele><time>2022-06-19T07:28:05.000Z</time></trkpt><trkpt lon="6.035777" lat="51.350659"><ele>-10</ele><time>2022-06-19T07:28:06.000Z</time></trkpt><trkpt lon="6.035898" lat="51.35064"><ele>-10.2</ele><time>2022-06-19T07:28:07.000Z</time></trkpt><trkpt lon="6.03602" lat="51.350617"><ele>-10.2</ele><time>2022-06-19T07:28:08.000Z</time></trkpt><trkpt lon="6.036141" lat="51.350591"><ele>-10.2</ele><time>2022-06-19T07:28:09.000Z</time></trkpt><trkpt lon="6.036263" lat="51.35056"><ele>-10.2</ele><time>2022-06-19T07:28:10.000Z</time></trkpt><trkpt lon="6.036379" lat="51.350526"><ele>-10.2</ele><time>2022-06-19T07:28:11.000Z</time></trkpt><trkpt lon="6.036489" lat="51.350488"><ele>-10.2</ele><time>2022-06-19T07:28:12.000Z</time></trkpt><trkpt lon="6.036595" lat="51.350454"><ele>-10.2</ele><time>2022-06-19T07:28:13.000Z</time></trkpt><trkpt lon="6.036705" lat="51.350424"><ele>-10.2</ele><time>2022-06-19T07:28:14.000Z</time></trkpt><trkpt lon="6.03682" lat="51.350396"><ele>-10.2</ele><time>2022-06-19T07:28:15.000Z</time></trkpt><trkpt lon="6.036937" lat="51.350373"><ele>-10.2</ele><time>2022-06-19T07:28:16.000Z</time></trkpt><trkpt lon="6.037056" lat="51.350354"><ele>-10.2</ele><time>2022-06-19T07:28:17.000Z</time></trkpt><trkpt lon="6.03717" lat="51.350338"><ele>-10</ele><time>2022-06-19T07:28:18.000Z</time></trkpt><trkpt lon="6.037287" lat="51.350327"><ele>-10</ele><time>2022-06-19T07:28:19.000Z</time></trkpt><trkpt lon="6.037405" lat="51.350323"><ele>-9.8</ele><time>2022-06-19T07:28:20.000Z</time></trkpt><trkpt lon="6.037529" lat="51.350323"><ele>-9.8</ele><time>2022-06-19T07:28:21.000Z</time></trkpt><trkpt lon="6.037654" lat="51.350323"><ele>-10</ele><time>2022-06-19T07:28:22.000Z</time></trkpt><trkpt lon="6.037786" lat="51.350315"><ele>-10.2</ele><time>2022-06-19T07:28:23.000Z</time></trkpt><trkpt lon="6.037919" lat="51.350311"><ele>-10.4</ele><time>2022-06-19T07:28:24.000Z</time></trkpt><trkpt lon="6.038039" lat="51.350308"><ele>-10.4</ele><time>2022-06-19T07:28:25.000Z</time></trkpt><trkpt lon="6.038171" lat="51.350304"><ele>-10.6</ele><time>2022-06-19T07:28:26.000Z</time></trkpt><trkpt lon="6.038293" lat="51.350304"><ele>-10.4</ele><time>2022-06-19T07:28:27.000Z</time></trkpt><trkpt lon="6.038427" lat="51.3503"><ele>-10.4</ele><time>2022-06-19T07:28:28.000Z</time></trkpt><trkpt lon="6.038554" lat="51.3503"><ele>-10.4</ele><time>2022-06-19T07:28:29.000Z</time></trkpt><trkpt lon="6.038681" lat="51.350296"><ele>-10.2</ele><time>2022-06-19T07:28:30.000Z</time></trkpt><trkpt lon="6.038809" lat="51.350292"><ele>-10.2</ele><time>2022-06-19T07:28:31.000Z</time></trkpt><trkpt lon="6.038944" lat="51.350292"><ele>-10</ele><time>2022-06-19T07:28:32.000Z</time></trkpt><trkpt lon="6.039074" lat="51.350289"><ele>-10</ele><time>2022-06-19T07:28:33.000Z</time></trkpt><trkpt lon="6.039204" lat="51.350288"><ele>-9.6</ele><time>2022-06-19T07:28:34.000Z</time></trkpt><trkpt lon="6.039334" lat="51.350288"><ele>-9.2</ele><time>2022-06-19T07:28:35.000Z</time></trkpt><trkpt lon="6.039463" lat="51.350285"><ele>-9</ele><time>2022-06-19T07:28:36.000Z</time></trkpt><trkpt lon="6.039598" lat="51.350285"><ele>-9.2</ele><time>2022-06-19T07:28:37.000Z</time></trkpt><trkpt lon="6.039726" lat="51.350281"><ele>-9.4</ele><time>2022-06-19T07:28:38.000Z</time></trkpt><trkpt lon="6.039855" lat="51.350281"><ele>-9.4</ele><time>2022-06-19T07:28:39.000Z</time></trkpt><trkpt lon="6.039986" lat="51.350277"><ele>-9.6</ele><time>2022-06-19T07:28:40.000Z</time></trkpt><trkpt lon="6.040113" lat="51.350273"><ele>-10</ele><time>2022-06-19T07:28:41.000Z</time></trkpt><trkpt lon="6.040246" lat="51.350269"><ele>-10.2</ele><time>2022-06-19T07:28:42.000Z</time></trkpt><trkpt lon="6.040375" lat="51.350266"><ele>-10.2</ele><time>2022-06-19T07:28:43.000Z</time></trkpt><trkpt lon="6.040502" lat="51.350265"><ele>-10.4</ele><time>2022-06-19T07:28:44.000Z</time></trkpt><trkpt lon="6.040627" lat="51.350262"><ele>-10.4</ele><time>2022-06-19T07:28:45.000Z</time></trkpt><trkpt lon="6.040754" lat="51.350262"><ele>-10.6</ele><time>2022-06-19T07:28:46.000Z</time></trkpt><trkpt lon="6.040877" lat="51.350258"><ele>-10.6</ele><time>2022-06-19T07:28:47.000Z</time></trkpt><trkpt lon="6.041" lat="51.350254"><ele>-10.4</ele><time>2022-06-19T07:28:48.000Z</time></trkpt><trkpt lon="6.041124" lat="51.35025"><ele>-10.4</ele><time>2022-06-19T07:28:49.000Z</time></trkpt><trkpt lon="6.041248" lat="51.350247"><ele>-10.2</ele><time>2022-06-19T07:28:50.000Z</time></trkpt><trkpt lon="6.041379" lat="51.350243"><ele>-10</ele><time>2022-06-19T07:28:51.000Z</time></trkpt><trkpt lon="6.041503" lat="51.350239"><ele>-10</ele><time>2022-06-19T07:28:52.000Z</time></trkpt><trkpt lon="6.041631" lat="51.350239"><ele>-10</ele><time>2022-06-19T07:28:53.000Z</time></trkpt><trkpt lon="6.04176" lat="51.350239"><ele>-10</ele><time>2022-06-19T07:28:54.000Z</time></trkpt><trkpt lon="6.041887" lat="51.350239"><ele>-10.2</ele><time>2022-06-19T07:28:55.000Z</time></trkpt><trkpt lon="6.042013" lat="51.350239"><ele>-10.2</ele><time>2022-06-19T07:28:56.000Z</time></trkpt><trkpt lon="6.042136" lat="51.350235"><ele>-10.2</ele><time>2022-06-19T07:28:57.000Z</time></trkpt><trkpt lon="6.042258" lat="51.350235"><ele>-10.2</ele><time>2022-06-19T07:28:58.000Z</time></trkpt><trkpt lon="6.042382" lat="51.350235"><ele>-10.4</ele><time>2022-06-19T07:28:59.000Z</time></trkpt><trkpt lon="6.042507" lat="51.350231"><ele>-10.2</ele><time>2022-06-19T07:29:00.000Z</time></trkpt><trkpt lon="6.042629" lat="51.350235"><ele>-10.2</ele><time>2022-06-19T07:29:01.000Z</time></trkpt><trkpt lon="6.042744" lat="51.350242"><ele>-10</ele><time>2022-06-19T07:29:02.000Z</time></trkpt><trkpt lon="6.042864" lat="51.350254"><ele>-10</ele><time>2022-06-19T07:29:03.000Z</time></trkpt><trkpt lon="6.042973" lat="51.350272"><ele>-10</ele><time>2022-06-19T07:29:04.000Z</time></trkpt><trkpt lon="6.043092" lat="51.350295"><ele>-10</ele><time>2022-06-19T07:29:05.000Z</time></trkpt><trkpt lon="6.043212" lat="51.350318"><ele>-9.8</ele><time>2022-06-19T07:29:06.000Z</time></trkpt><trkpt lon="6.043324" lat="51.350341"><ele>-10</ele><time>2022-06-19T07:29:07.000Z</time></trkpt><trkpt lon="6.043438" lat="51.350364"><ele>-10</ele><time>2022-06-19T07:29:08.000Z</time></trkpt><trkpt lon="6.043551" lat="51.350391"><ele>-10.2</ele><time>2022-06-19T07:29:09.000Z</time></trkpt><trkpt lon="6.043664" lat="51.350417"><ele>-10.4</ele><time>2022-06-19T07:29:10.000Z</time></trkpt><trkpt lon="6.043785" lat="51.350444"><ele>-10.4</ele><time>2022-06-19T07:29:11.000Z</time></trkpt><trkpt lon="6.043899" lat="51.350478"><ele>-10.4</ele><time>2022-06-19T07:29:12.000Z</time></trkpt><trkpt lon="6.044009" lat="51.350508"><ele>-10.4</ele><time>2022-06-19T07:29:13.000Z</time></trkpt><trkpt lon="6.044121" lat="51.350543"><ele>-10.4</ele><time>2022-06-19T07:29:14.000Z</time></trkpt><trkpt lon="6.044222" lat="51.350579"><ele>-10.6</ele><time>2022-06-19T07:29:15.000Z</time></trkpt><trkpt lon="6.044325" lat="51.350626"><ele>-10.6</ele><time>2022-06-19T07:29:16.000Z</time></trkpt><trkpt lon="6.044417" lat="51.350673"><ele>-10.4</ele><time>2022-06-19T07:29:17.000Z</time></trkpt><trkpt lon="6.044504" lat="51.350729"><ele>-10.6</ele><time>2022-06-19T07:29:18.000Z</time></trkpt><trkpt lon="6.04459" lat="51.350787"><ele>-10.4</ele><time>2022-06-19T07:29:19.000Z</time></trkpt><trkpt lon="6.044668" lat="51.350848"><ele>-10.2</ele><time>2022-06-19T07:29:20.000Z</time></trkpt><trkpt lon="6.044747" lat="51.350909"><ele>-10</ele><time>2022-06-19T07:29:21.000Z</time></trkpt><trkpt lon="6.044826" lat="51.350965"><ele>-10.2</ele><time>2022-06-19T07:29:22.000Z</time></trkpt><trkpt lon="6.044906" lat="51.351027"><ele>-10</ele><time>2022-06-19T07:29:23.000Z</time></trkpt><trkpt lon="6.044987" lat="51.351084"><ele>-10</ele><time>2022-06-19T07:29:24.000Z</time></trkpt><trkpt lon="6.045067" lat="51.351145"><ele>-9.8</ele><time>2022-06-19T07:29:25.000Z</time></trkpt><trkpt lon="6.045147" lat="51.351206"><ele>-9.6</ele><time>2022-06-19T07:29:26.000Z</time></trkpt><trkpt lon="6.04523" lat="51.35126"><ele>-9.4</ele><time>2022-06-19T07:29:27.000Z</time></trkpt><trkpt lon="6.045306" lat="51.351317"><ele>-9.4</ele><time>2022-06-19T07:29:28.000Z</time></trkpt><trkpt lon="6.045378" lat="51.351374"><ele>-9.4</ele><time>2022-06-19T07:29:29.000Z</time></trkpt><trkpt lon="6.04545" lat="51.351435"><ele>-9.8</ele><time>2022-06-19T07:29:30.000Z</time></trkpt><trkpt lon="6.045512" lat="51.351498"><ele>-10</ele><time>2022-06-19T07:29:31.000Z</time></trkpt><trkpt lon="6.045564" lat="51.351567"><ele>-9.8</ele><time>2022-06-19T07:29:32.000Z</time></trkpt><trkpt lon="6.045611" lat="51.351644"><ele>-10</ele><time>2022-06-19T07:29:33.000Z</time></trkpt><trkpt lon="6.045643" lat="51.351717"><ele>-10</ele><time>2022-06-19T07:29:34.000Z</time></trkpt><trkpt lon="6.045663" lat="51.351783"><ele>-9.8</ele><time>2022-06-19T07:29:35.000Z</time></trkpt><trkpt lon="6.045687" lat="51.351868"><ele>-9.8</ele><time>2022-06-19T07:29:36.000Z</time></trkpt><trkpt lon="6.04571" lat="51.351942"><ele>-10</ele><time>2022-06-19T07:29:37.000Z</time></trkpt><trkpt lon="6.045728" lat="51.352015"><ele>-10.2</ele><time>2022-06-19T07:29:38.000Z</time></trkpt><trkpt lon="6.045746" lat="51.35209"><ele>-10.4</ele><time>2022-06-19T07:29:39.000Z</time></trkpt><trkpt lon="6.045763" lat="51.352162"><ele>-10.4</ele><time>2022-06-19T07:29:40.000Z</time></trkpt><trkpt lon="6.045771" lat="51.352232"><ele>-10.4</ele><time>2022-06-19T07:29:41.000Z</time></trkpt><trkpt lon="6.045767" lat="51.352307"><ele>-10.4</ele><time>2022-06-19T07:29:42.000Z</time></trkpt><trkpt lon="6.045751" lat="51.352377"><ele>-10.4</ele><time>2022-06-19T07:29:43.000Z</time></trkpt><trkpt lon="6.045726" lat="51.352445"><ele>-10.4</ele><time>2022-06-19T07:29:44.000Z</time></trkpt><trkpt lon="6.045696" lat="51.352518"><ele>-10.4</ele><time>2022-06-19T07:29:45.000Z</time></trkpt><trkpt lon="6.045665" lat="51.352586"><ele>-10.6</ele><time>2022-06-19T07:29:46.000Z</time></trkpt><trkpt lon="6.045633" lat="51.352656"><ele>-10.4</ele><time>2022-06-19T07:29:47.000Z</time></trkpt><trkpt lon="6.045601" lat="51.352724"><ele>-10.4</ele><time>2022-06-19T07:29:48.000Z</time></trkpt><trkpt lon="6.045567" lat="51.352793"><ele>-10.4</ele><time>2022-06-19T07:29:49.000Z</time></trkpt><trkpt lon="6.045534" lat="51.352861"><ele>-10.2</ele><time>2022-06-19T07:29:50.000Z</time></trkpt><trkpt lon="6.045499" lat="51.352934"><ele>-10.2</ele><time>2022-06-19T07:29:51.000Z</time></trkpt><trkpt lon="6.045466" lat="51.353005"><ele>-10.2</ele><time>2022-06-19T07:29:52.000Z</time></trkpt><trkpt lon="6.045432" lat="51.353075"><ele>-10</ele><time>2022-06-19T07:29:53.000Z</time></trkpt><trkpt lon="6.045402" lat="51.353141"><ele>-10.2</ele><time>2022-06-19T07:29:54.000Z</time></trkpt><trkpt lon="6.045371" lat="51.353211"><ele>-10.2</ele><time>2022-06-19T07:29:55.000Z</time></trkpt><trkpt lon="6.045339" lat="51.353288"><ele>-10.4</ele><time>2022-06-19T07:29:56.000Z</time></trkpt><trkpt lon="6.045317" lat="51.353365"><ele>-10.2</ele><time>2022-06-19T07:29:57.000Z</time></trkpt><trkpt lon="6.045304" lat="51.353437"><ele>-10.2</ele><time>2022-06-19T07:29:58.000Z</time></trkpt><trkpt lon="6.0453" lat="51.353514"><ele>-10</ele><time>2022-06-19T07:29:59.000Z</time></trkpt><trkpt lon="6.045301" lat="51.353586"><ele>-10</ele><time>2022-06-19T07:30:00.000Z</time></trkpt><trkpt lon="6.045307" lat="51.353659"><ele>-10.2</ele><time>2022-06-19T07:30:01.000Z</time></trkpt><trkpt lon="6.045311" lat="51.353731"><ele>-10.4</ele><time>2022-06-19T07:30:02.000Z</time></trkpt><trkpt lon="6.045318" lat="51.3538"><ele>-10.4</ele><time>2022-06-19T07:30:03.000Z</time></trkpt><trkpt lon="6.045325" lat="51.353868"><ele>-10.8</ele><time>2022-06-19T07:30:04.000Z</time></trkpt><trkpt lon="6.045329" lat="51.353923"><ele>-11</ele><time>2022-06-19T07:30:05.000Z</time></trkpt><trkpt lon="6.045335" lat="51.353985"><ele>-10.8</ele><time>2022-06-19T07:30:06.000Z</time></trkpt><trkpt lon="6.04534" lat="51.354056"><ele>-10.8</ele><time>2022-06-19T07:30:07.000Z</time></trkpt><trkpt lon="6.045343" lat="51.354117"><ele>-10.6</ele><time>2022-06-19T07:30:08.000Z</time></trkpt><trkpt lon="6.045347" lat="51.354178"><ele>-10.4</ele><time>2022-06-19T07:30:09.000Z</time></trkpt><trkpt lon="6.045353" lat="51.354231"><ele>-10.4</ele><time>2022-06-19T07:30:10.000Z</time></trkpt><trkpt lon="6.045361" lat="51.354285"><ele>-10.4</ele><time>2022-06-19T07:30:11.000Z</time></trkpt><trkpt lon="6.045377" lat="51.354329"><ele>-10.2</ele><time>2022-06-19T07:30:12.000Z</time></trkpt><trkpt lon="6.045398" lat="51.35436"><ele>-10.2</ele><time>2022-06-19T07:30:13.000Z</time></trkpt><trkpt lon="6.045452" lat="51.354406"><ele>-10.2</ele><time>2022-06-19T07:30:14.000Z</time></trkpt><trkpt lon="6.045513" lat="51.354423"><ele>-10</ele><time>2022-06-19T07:30:15.000Z</time></trkpt><trkpt lon="6.045576" lat="51.354434"><ele>-10</ele><time>2022-06-19T07:30:16.000Z</time></trkpt><trkpt lon="6.04565" lat="51.35445"><ele>-10</ele><time>2022-06-19T07:30:17.000Z</time></trkpt><trkpt lon="6.045726" lat="51.354465"><ele>-9.8</ele><time>2022-06-19T07:30:18.000Z</time></trkpt><trkpt lon="6.045816" lat="51.354484"><ele>-9.8</ele><time>2022-06-19T07:30:19.000Z</time></trkpt><trkpt lon="6.045913" lat="51.3545"><ele>-9.8</ele><time>2022-06-19T07:30:20.000Z</time></trkpt><trkpt lon="6.046017" lat="51.354511"><ele>-9.8</ele><time>2022-06-19T07:30:21.000Z</time></trkpt><trkpt lon="6.046124" lat="51.354519"><ele>-9.8</ele><time>2022-06-19T07:30:22.000Z</time></trkpt><trkpt lon="6.046232" lat="51.354523"><ele>-9.8</ele><time>2022-06-19T07:30:23.000Z</time></trkpt><trkpt lon="6.046345" lat="51.354526"><ele>-9.8</ele><time>2022-06-19T07:30:24.000Z</time></trkpt><trkpt lon="6.046458" lat="51.354534"><ele>-9.8</ele><time>2022-06-19T07:30:25.000Z</time></trkpt><trkpt lon="6.046572" lat="51.354538"><ele>-9.8</ele><time>2022-06-19T07:30:26.000Z</time></trkpt><trkpt lon="6.046685" lat="51.354542"><ele>-10</ele><time>2022-06-19T07:30:27.000Z</time></trkpt><trkpt lon="6.046799" lat="51.354549"><ele>-10.2</ele><time>2022-06-19T07:30:28.000Z</time></trkpt><trkpt lon="6.046913" lat="51.354561"><ele>-10.2</ele><time>2022-06-19T07:30:29.000Z</time></trkpt><trkpt lon="6.046991" lat="51.354566"><ele>-10.4</ele><time>2022-06-19T07:30:30.000Z</time></trkpt><trkpt lon="6.047139" lat="51.354579"><ele>-10.2</ele><time>2022-06-19T07:30:31.000Z</time></trkpt><trkpt lon="6.047258" lat="51.354591"><ele>-10.2</ele><time>2022-06-19T07:30:32.000Z</time></trkpt><trkpt lon="6.047376" lat="51.354599"><ele>-10.2</ele><time>2022-06-19T07:30:33.000Z</time></trkpt><trkpt lon="6.047485" lat="51.35461"><ele>-10.2</ele><time>2022-06-19T07:30:34.000Z</time></trkpt><trkpt lon="6.047603" lat="51.354618"><ele>-10.2</ele><time>2022-06-19T07:30:35.000Z</time></trkpt><trkpt lon="6.04772" lat="51.354625"><ele>-10.2</ele><time>2022-06-19T07:30:36.000Z</time></trkpt><trkpt lon="6.047837" lat="51.354633"><ele>-10.2</ele><time>2022-06-19T07:30:37.000Z</time></trkpt><trkpt lon="6.047952" lat="51.354645"><ele>-10.2</ele><time>2022-06-19T07:30:38.000Z</time></trkpt><trkpt lon="6.048069" lat="51.354652"><ele>-10.2</ele><time>2022-06-19T07:30:39.000Z</time></trkpt><trkpt lon="6.048184" lat="51.35466"><ele>-10.2</ele><time>2022-06-19T07:30:40.000Z</time></trkpt><trkpt lon="6.048299" lat="51.354671"><ele>-10.2</ele><time>2022-06-19T07:30:41.000Z</time></trkpt><trkpt lon="6.048413" lat="51.354679"><ele>-10.2</ele><time>2022-06-19T07:30:42.000Z</time></trkpt><trkpt lon="6.048523" lat="51.354686"><ele>-10.2</ele><time>2022-06-19T07:30:43.000Z</time></trkpt><trkpt lon="6.04864" lat="51.354697"><ele>-10.2</ele><time>2022-06-19T07:30:44.000Z</time></trkpt><trkpt lon="6.048763" lat="51.354706"><ele>-10.2</ele><time>2022-06-19T07:30:45.000Z</time></trkpt><trkpt lon="6.048882" lat="51.354713"><ele>-10.2</ele><time>2022-06-19T07:30:46.000Z</time></trkpt><trkpt lon="6.049003" lat="51.354725"><ele>-10.2</ele><time>2022-06-19T07:30:47.000Z</time></trkpt><trkpt lon="6.049123" lat="51.354736"><ele>-10.2</ele><time>2022-06-19T07:30:48.000Z</time></trkpt><trkpt lon="6.049248" lat="51.354744"><ele>-10.2</ele><time>2022-06-19T07:30:49.000Z</time></trkpt><trkpt lon="6.049368" lat="51.354751"><ele>-10.2</ele><time>2022-06-19T07:30:50.000Z</time></trkpt><trkpt lon="6.049486" lat="51.354762"><ele>-10.2</ele><time>2022-06-19T07:30:51.000Z</time></trkpt><trkpt lon="6.049613" lat="51.35477"><ele>-10</ele><time>2022-06-19T07:30:52.000Z</time></trkpt><trkpt lon="6.049735" lat="51.354782"><ele>-10</ele><time>2022-06-19T07:30:53.000Z</time></trkpt><trkpt lon="6.049863" lat="51.354793"><ele>-10</ele><time>2022-06-19T07:30:54.000Z</time></trkpt><trkpt lon="6.049986" lat="51.354801"><ele>-10.2</ele><time>2022-06-19T07:30:55.000Z</time></trkpt><trkpt lon="6.050106" lat="51.354812"><ele>-10.2</ele><time>2022-06-19T07:30:56.000Z</time></trkpt><trkpt lon="6.050232" lat="51.35482"><ele>-10.4</ele><time>2022-06-19T07:30:57.000Z</time></trkpt><trkpt lon="6.050355" lat="51.354828"><ele>-10.4</ele><time>2022-06-19T07:30:58.000Z</time></trkpt><trkpt lon="6.050479" lat="51.354839"><ele>-10.4</ele><time>2022-06-19T07:30:59.000Z</time></trkpt><trkpt lon="6.050597" lat="51.354847"><ele>-10.4</ele><time>2022-06-19T07:31:00.000Z</time></trkpt><trkpt lon="6.050722" lat="51.354854"><ele>-10.2</ele><time>2022-06-19T07:31:01.000Z</time></trkpt><trkpt lon="6.050843" lat="51.354862"><ele>-10</ele><time>2022-06-19T07:31:02.000Z</time></trkpt><trkpt lon="6.050962" lat="51.354873"><ele>-10</ele><time>2022-06-19T07:31:03.000Z</time></trkpt><trkpt lon="6.051083" lat="51.354881"><ele>-10.2</ele><time>2022-06-19T07:31:04.000Z</time></trkpt><trkpt lon="6.051205" lat="51.354889"><ele>-10.2</ele><time>2022-06-19T07:31:05.000Z</time></trkpt><trkpt lon="6.051319" lat="51.354896"><ele>-10</ele><time>2022-06-19T07:31:06.000Z</time></trkpt><trkpt lon="6.051432" lat="51.354904"><ele>-10</ele><time>2022-06-19T07:31:07.000Z</time></trkpt><trkpt lon="6.051547" lat="51.354911"><ele>-9.8</ele><time>2022-06-19T07:31:08.000Z</time></trkpt><trkpt lon="6.05166" lat="51.354923"><ele>-9.8</ele><time>2022-06-19T07:31:09.000Z</time></trkpt><trkpt lon="6.051749" lat="51.354937"><ele>-9.8</ele><time>2022-06-19T07:31:10.000Z</time></trkpt><trkpt lon="6.051892" lat="51.35496"><ele>-9.6</ele><time>2022-06-19T07:31:11.000Z</time></trkpt><trkpt lon="6.052014" lat="51.354976"><ele>-9.8</ele><time>2022-06-19T07:31:12.000Z</time></trkpt><trkpt lon="6.052131" lat="51.354995"><ele>-10</ele><time>2022-06-19T07:31:13.000Z</time></trkpt><trkpt lon="6.052258" lat="51.35501"><ele>-10</ele><time>2022-06-19T07:31:14.000Z</time></trkpt><trkpt lon="6.052373" lat="51.355028"><ele>-10</ele><time>2022-06-19T07:31:15.000Z</time></trkpt><trkpt lon="6.052505" lat="51.355045"><ele>-10.2</ele><time>2022-06-19T07:31:16.000Z</time></trkpt><trkpt lon="6.052626" lat="51.35506"><ele>-10.2</ele><time>2022-06-19T07:31:17.000Z</time></trkpt><trkpt lon="6.052752" lat="51.355075"><ele>-10.2</ele><time>2022-06-19T07:31:18.000Z</time></trkpt><trkpt lon="6.052876" lat="51.355091"><ele>-10.2</ele><time>2022-06-19T07:31:19.000Z</time></trkpt><trkpt lon="6.052996" lat="51.355106"><ele>-10.2</ele><time>2022-06-19T07:31:20.000Z</time></trkpt><trkpt lon="6.053119" lat="51.355121"><ele>-10.4</ele><time>2022-06-19T07:31:21.000Z</time></trkpt><trkpt lon="6.053239" lat="51.355136"><ele>-10.4</ele><time>2022-06-19T07:31:22.000Z</time></trkpt><trkpt lon="6.053358" lat="51.355159"><ele>-10.4</ele><time>2022-06-19T07:31:23.000Z</time></trkpt><trkpt lon="6.053478" lat="51.355174"><ele>-10.4</ele><time>2022-06-19T07:31:24.000Z</time></trkpt><trkpt lon="6.053598" lat="51.355193"><ele>-10.6</ele><time>2022-06-19T07:31:25.000Z</time></trkpt><trkpt lon="6.053719" lat="51.355209"><ele>-10.6</ele><time>2022-06-19T07:31:26.000Z</time></trkpt><trkpt lon="6.053836" lat="51.355224"><ele>-10.6</ele><time>2022-06-19T07:31:27.000Z</time></trkpt><trkpt lon="6.053958" lat="51.355236"><ele>-10.6</ele><time>2022-06-19T07:31:28.000Z</time></trkpt><trkpt lon="6.054074" lat="51.355251"><ele>-10.6</ele><time>2022-06-19T07:31:29.000Z</time></trkpt><trkpt lon="6.054158" lat="51.355261"><ele>-10.6</ele><time>2022-06-19T07:31:30.000Z</time></trkpt><trkpt lon="6.054306" lat="51.355285"><ele>-10.6</ele><time>2022-06-19T07:31:31.000Z</time></trkpt><trkpt lon="6.054419" lat="51.355308"><ele>-10.8</ele><time>2022-06-19T07:31:32.000Z</time></trkpt><trkpt lon="6.05453" lat="51.355331"><ele>-10.8</ele><time>2022-06-19T07:31:33.000Z</time></trkpt><trkpt lon="6.054638" lat="51.355357"><ele>-10.8</ele><time>2022-06-19T07:31:34.000Z</time></trkpt><trkpt lon="6.05475" lat="51.355384"><ele>-10.8</ele><time>2022-06-19T07:31:35.000Z</time></trkpt><trkpt lon="6.054857" lat="51.355414"><ele>-10.6</ele><time>2022-06-19T07:31:36.000Z</time></trkpt><trkpt lon="6.054961" lat="51.355443"><ele>-10.6</ele><time>2022-06-19T07:31:37.000Z</time></trkpt><trkpt lon="6.055071" lat="51.355473"><ele>-10.6</ele><time>2022-06-19T07:31:38.000Z</time></trkpt><trkpt lon="6.055188" lat="51.355506"><ele>-10.6</ele><time>2022-06-19T07:31:39.000Z</time></trkpt><trkpt lon="6.055292" lat="51.355532"><ele>-10.8</ele><time>2022-06-19T07:31:40.000Z</time></trkpt><trkpt lon="6.055405" lat="51.355563"><ele>-10.8</ele><time>2022-06-19T07:31:41.000Z</time></trkpt><trkpt lon="6.055509" lat="51.355593"><ele>-10.8</ele><time>2022-06-19T07:31:42.000Z</time></trkpt><trkpt lon="6.055616" lat="51.355624"><ele>-10.8</ele><time>2022-06-19T07:31:43.000Z</time></trkpt><trkpt lon="6.055724" lat="51.355651"><ele>-10.6</ele><time>2022-06-19T07:31:44.000Z</time></trkpt><trkpt lon="6.055829" lat="51.355682"><ele>-10.6</ele><time>2022-06-19T07:31:45.000Z</time></trkpt><trkpt lon="6.055926" lat="51.355707"><ele>-10.6</ele><time>2022-06-19T07:31:46.000Z</time></trkpt><trkpt lon="6.056029" lat="51.355735"><ele>-10.6</ele><time>2022-06-19T07:31:47.000Z</time></trkpt><trkpt lon="6.056131" lat="51.355762"><ele>-10.6</ele><time>2022-06-19T07:31:48.000Z</time></trkpt><trkpt lon="6.056228" lat="51.355792"><ele>-10.6</ele><time>2022-06-19T07:31:49.000Z</time></trkpt><trkpt lon="6.056327" lat="51.355815"><ele>-10.6</ele><time>2022-06-19T07:31:50.000Z</time></trkpt><trkpt lon="6.056431" lat="51.355838"><ele>-10.6</ele><time>2022-06-19T07:31:51.000Z</time></trkpt><trkpt lon="6.056535" lat="51.355865"><ele>-10.6</ele><time>2022-06-19T07:31:52.000Z</time></trkpt><trkpt lon="6.056642" lat="51.355891"><ele>-10.6</ele><time>2022-06-19T07:31:53.000Z</time></trkpt><trkpt lon="6.056741" lat="51.355914"><ele>-10.6</ele><time>2022-06-19T07:31:54.000Z</time></trkpt><trkpt lon="6.056847" lat="51.355937"><ele>-10.6</ele><time>2022-06-19T07:31:55.000Z</time></trkpt><trkpt lon="6.056947" lat="51.355956"><ele>-10.6</ele><time>2022-06-19T07:31:56.000Z</time></trkpt><trkpt lon="6.057045" lat="51.355979"><ele>-10.6</ele><time>2022-06-19T07:31:57.000Z</time></trkpt><trkpt lon="6.057137" lat="51.355998"><ele>-10.6</ele><time>2022-06-19T07:31:58.000Z</time></trkpt><trkpt lon="6.05723" lat="51.356025"><ele>-10.6</ele><time>2022-06-19T07:31:59.000Z</time></trkpt><trkpt lon="6.057304" lat="51.356052"><ele>-10.6</ele><time>2022-06-19T07:32:00.000Z</time></trkpt><trkpt lon="6.05739" lat="51.356082"><ele>-10.6</ele><time>2022-06-19T07:32:01.000Z</time></trkpt><trkpt lon="6.057463" lat="51.356109"><ele>-10.6</ele><time>2022-06-19T07:32:02.000Z</time></trkpt><trkpt lon="6.057529" lat="51.356132"><ele>-10.4</ele><time>2022-06-19T07:32:03.000Z</time></trkpt><trkpt lon="6.057595" lat="51.356144"><ele>-10.4</ele><time>2022-06-19T07:32:04.000Z</time></trkpt><trkpt lon="6.057666" lat="51.356144"><ele>-10.4</ele><time>2022-06-19T07:32:05.000Z</time></trkpt><trkpt lon="6.057738" lat="51.356125"><ele>-10.6</ele><time>2022-06-19T07:32:06.000Z</time></trkpt><trkpt lon="6.057815" lat="51.356099"><ele>-10.6</ele><time>2022-06-19T07:32:07.000Z</time></trkpt><trkpt lon="6.057899" lat="51.356069"><ele>-10.6</ele><time>2022-06-19T07:32:08.000Z</time></trkpt><trkpt lon="6.057983" lat="51.356043"><ele>-10.6</ele><time>2022-06-19T07:32:09.000Z</time></trkpt><trkpt lon="6.058074" lat="51.356008"><ele>-10.6</ele><time>2022-06-19T07:32:10.000Z</time></trkpt><trkpt lon="6.058162" lat="51.355978"><ele>-10.6</ele><time>2022-06-19T07:32:11.000Z</time></trkpt><trkpt lon="6.058245" lat="51.355947"><ele>-10.6</ele><time>2022-06-19T07:32:12.000Z</time></trkpt><trkpt lon="6.058347" lat="51.355913"><ele>-10.6</ele><time>2022-06-19T07:32:13.000Z</time></trkpt><trkpt lon="6.058438" lat="51.35588"><ele>-10.6</ele><time>2022-06-19T07:32:14.000Z</time></trkpt><trkpt lon="6.058529" lat="51.355845"><ele>-10.6</ele><time>2022-06-19T07:32:15.000Z</time></trkpt><trkpt lon="6.058629" lat="51.355806"><ele>-10.6</ele><time>2022-06-19T07:32:16.000Z</time></trkpt><trkpt lon="6.058726" lat="51.355767"><ele>-10.6</ele><time>2022-06-19T07:32:17.000Z</time></trkpt><trkpt lon="6.058822" lat="51.355729"><ele>-10.4</ele><time>2022-06-19T07:32:18.000Z</time></trkpt><trkpt lon="6.058918" lat="51.355687"><ele>-10.4</ele><time>2022-06-19T07:32:19.000Z</time></trkpt><trkpt lon="6.059013" lat="51.355649"><ele>-10.4</ele><time>2022-06-19T07:32:20.000Z</time></trkpt><trkpt lon="6.059109" lat="51.355609"><ele>-10.4</ele><time>2022-06-19T07:32:21.000Z</time></trkpt><trkpt lon="6.059213" lat="51.355565"><ele>-10.4</ele><time>2022-06-19T07:32:22.000Z</time></trkpt><trkpt lon="6.059315" lat="51.355524"><ele>-10.4</ele><time>2022-06-19T07:32:23.000Z</time></trkpt><trkpt lon="6.059418" lat="51.355481"><ele>-10.4</ele><time>2022-06-19T07:32:24.000Z</time></trkpt><trkpt lon="6.059516" lat="51.35544"><ele>-10.4</ele><time>2022-06-19T07:32:25.000Z</time></trkpt><trkpt lon="6.059619" lat="51.355398"><ele>-10.4</ele><time>2022-06-19T07:32:26.000Z</time></trkpt><trkpt lon="6.059719" lat="51.355355"><ele>-10.4</ele><time>2022-06-19T07:32:27.000Z</time></trkpt><trkpt lon="6.059822" lat="51.355313"><ele>-10.4</ele><time>2022-06-19T07:32:28.000Z</time></trkpt><trkpt lon="6.059923" lat="51.355272"><ele>-10.4</ele><time>2022-06-19T07:32:29.000Z</time></trkpt><trkpt lon="6.060006" lat="51.355237"><ele>-10.4</ele><time>2022-06-19T07:32:30.000Z</time></trkpt><trkpt lon="6.060123" lat="51.355188"><ele>-10.4</ele><time>2022-06-19T07:32:31.000Z</time></trkpt><trkpt lon="6.060225" lat="51.35515"><ele>-10.2</ele><time>2022-06-19T07:32:32.000Z</time></trkpt><trkpt lon="6.060326" lat="51.355108"><ele>-10.2</ele><time>2022-06-19T07:32:33.000Z</time></trkpt><trkpt lon="6.060429" lat="51.355069"><ele>-10.2</ele><time>2022-06-19T07:32:34.000Z</time></trkpt><trkpt lon="6.060528" lat="51.355028"><ele>-10</ele><time>2022-06-19T07:32:35.000Z</time></trkpt><trkpt lon="6.060622" lat="51.354992"><ele>-10</ele><time>2022-06-19T07:32:36.000Z</time></trkpt><trkpt lon="6.060728" lat="51.354947"><ele>-10</ele><time>2022-06-19T07:32:37.000Z</time></trkpt><trkpt lon="6.060822" lat="51.354909"><ele>-10</ele><time>2022-06-19T07:32:38.000Z</time></trkpt><trkpt lon="6.060914" lat="51.354872"><ele>-10</ele><time>2022-06-19T07:32:39.000Z</time></trkpt><trkpt lon="6.061004" lat="51.354836"><ele>-9.8</ele><time>2022-06-19T07:32:40.000Z</time></trkpt><trkpt lon="6.061092" lat="51.354794"><ele>-9.8</ele><time>2022-06-19T07:32:41.000Z</time></trkpt><trkpt lon="6.061171" lat="51.354754"><ele>-9.6</ele><time>2022-06-19T07:32:42.000Z</time></trkpt><trkpt lon="6.061251" lat="51.354708"><ele>-9.4</ele><time>2022-06-19T07:32:43.000Z</time></trkpt><trkpt lon="6.061337" lat="51.354665"><ele>-9.4</ele><time>2022-06-19T07:32:44.000Z</time></trkpt><trkpt lon="6.061418" lat="51.354624"><ele>-9.4</ele><time>2022-06-19T07:32:45.000Z</time></trkpt><trkpt lon="6.061509" lat="51.354577"><ele>-9.4</ele><time>2022-06-19T07:32:46.000Z</time></trkpt><trkpt lon="6.061595" lat="51.354531"><ele>-9.2</ele><time>2022-06-19T07:32:47.000Z</time></trkpt><trkpt lon="6.06168" lat="51.354489"><ele>-9.2</ele><time>2022-06-19T07:32:48.000Z</time></trkpt><trkpt lon="6.061766" lat="51.354441"><ele>-9</ele><time>2022-06-19T07:32:49.000Z</time></trkpt><trkpt lon="6.06186" lat="51.354398"><ele>-9</ele><time>2022-06-19T07:32:50.000Z</time></trkpt><trkpt lon="6.061953" lat="51.354349"><ele>-9</ele><time>2022-06-19T07:32:51.000Z</time></trkpt><trkpt lon="6.062043" lat="51.354303"><ele>-9</ele><time>2022-06-19T07:32:52.000Z</time></trkpt><trkpt lon="6.062135" lat="51.354249"><ele>-9</ele><time>2022-06-19T07:32:53.000Z</time></trkpt><trkpt lon="6.062226" lat="51.3542"><ele>-8.8</ele><time>2022-06-19T07:32:54.000Z</time></trkpt><trkpt lon="6.062321" lat="51.354146"><ele>-8.8</ele><time>2022-06-19T07:32:55.000Z</time></trkpt><trkpt lon="6.062413" lat="51.354098"><ele>-8.8</ele><time>2022-06-19T07:32:56.000Z</time></trkpt><trkpt lon="6.062507" lat="51.354047"><ele>-8.6</ele><time>2022-06-19T07:32:57.000Z</time></trkpt><trkpt lon="6.062596" lat="51.354001"><ele>-8.6</ele><time>2022-06-19T07:32:58.000Z</time></trkpt><trkpt lon="6.06268" lat="51.353952"><ele>-8.8</ele><time>2022-06-19T07:32:59.000Z</time></trkpt><trkpt lon="6.062755" lat="51.353911"><ele>-8.8</ele><time>2022-06-19T07:33:00.000Z</time></trkpt><trkpt lon="6.062848" lat="51.353857"><ele>-9</ele><time>2022-06-19T07:33:01.000Z</time></trkpt><trkpt lon="6.062925" lat="51.353811"><ele>-9</ele><time>2022-06-19T07:33:02.000Z</time></trkpt><trkpt lon="6.063016" lat="51.35375"><ele>-9</ele><time>2022-06-19T07:33:03.000Z</time></trkpt><trkpt lon="6.063103" lat="51.353686"><ele>-9</ele><time>2022-06-19T07:33:04.000Z</time></trkpt><trkpt lon="6.063194" lat="51.353624"><ele>-9.2</ele><time>2022-06-19T07:33:05.000Z</time></trkpt><trkpt lon="6.063293" lat="51.353552"><ele>-9.2</ele><time>2022-06-19T07:33:06.000Z</time></trkpt><trkpt lon="6.063383" lat="51.353481"><ele>-9.2</ele><time>2022-06-19T07:33:07.000Z</time></trkpt><trkpt lon="6.063472" lat="51.353406"><ele>-9.4</ele><time>2022-06-19T07:33:08.000Z</time></trkpt><trkpt lon="6.06355" lat="51.353344"><ele>-9.4</ele><time>2022-06-19T07:33:09.000Z</time></trkpt><trkpt lon="6.063631" lat="51.353273"><ele>-9.6</ele><time>2022-06-19T07:33:10.000Z</time></trkpt><trkpt lon="6.063701" lat="51.353213"><ele>-9.6</ele><time>2022-06-19T07:33:11.000Z</time></trkpt><trkpt lon="6.063776" lat="51.353147"><ele>-9.6</ele><time>2022-06-19T07:33:12.000Z</time></trkpt><trkpt lon="6.063846" lat="51.35309"><ele>-9.6</ele><time>2022-06-19T07:33:13.000Z</time></trkpt><trkpt lon="6.063919" lat="51.353026"><ele>-9.8</ele><time>2022-06-19T07:33:14.000Z</time></trkpt><trkpt lon="6.063986" lat="51.352973"><ele>-9.6</ele><time>2022-06-19T07:33:15.000Z</time></trkpt><trkpt lon="6.064055" lat="51.352918"><ele>-9.8</ele><time>2022-06-19T07:33:16.000Z</time></trkpt><trkpt lon="6.064117" lat="51.352862"><ele>-9.8</ele><time>2022-06-19T07:33:17.000Z</time></trkpt><trkpt lon="6.064183" lat="51.352804"><ele>-9.8</ele><time>2022-06-19T07:33:18.000Z</time></trkpt><trkpt lon="6.064248" lat="51.352752"><ele>-10</ele><time>2022-06-19T07:33:19.000Z</time></trkpt><trkpt lon="6.06432" lat="51.352693"><ele>-10</ele><time>2022-06-19T07:33:20.000Z</time></trkpt><trkpt lon="6.064388" lat="51.352641"><ele>-10</ele><time>2022-06-19T07:33:21.000Z</time></trkpt><trkpt lon="6.06445" lat="51.352589"><ele>-10</ele><time>2022-06-19T07:33:22.000Z</time></trkpt><trkpt lon="6.064523" lat="51.352527"><ele>-10</ele><time>2022-06-19T07:33:23.000Z</time></trkpt><trkpt lon="6.064596" lat="51.352469"><ele>-10</ele><time>2022-06-19T07:33:24.000Z</time></trkpt><trkpt lon="6.064664" lat="51.352412"><ele>-10.2</ele><time>2022-06-19T07:33:25.000Z</time></trkpt><trkpt lon="6.064732" lat="51.352357"><ele>-10.2</ele><time>2022-06-19T07:33:26.000Z</time></trkpt><trkpt lon="6.064801" lat="51.352302"><ele>-10.2</ele><time>2022-06-19T07:33:27.000Z</time></trkpt><trkpt lon="6.064868" lat="51.352243"><ele>-10.2</ele><time>2022-06-19T07:33:28.000Z</time></trkpt><trkpt lon="6.064934" lat="51.352183"><ele>-10.2</ele><time>2022-06-19T07:33:29.000Z</time></trkpt><trkpt lon="6.065002" lat="51.352122"><ele>-10.2</ele><time>2022-06-19T07:33:30.000Z</time></trkpt><trkpt lon="6.065066" lat="51.352058"><ele>-10</ele><time>2022-06-19T07:33:31.000Z</time></trkpt><trkpt lon="6.065134" lat="51.351992"><ele>-10</ele><time>2022-06-19T07:33:32.000Z</time></trkpt><trkpt lon="6.065206" lat="51.351923"><ele>-10</ele><time>2022-06-19T07:33:33.000Z</time></trkpt><trkpt lon="6.065273" lat="51.351851"><ele>-10</ele><time>2022-06-19T07:33:34.000Z</time></trkpt><trkpt lon="6.065337" lat="51.35178"><ele>-10</ele><time>2022-06-19T07:33:35.000Z</time></trkpt><trkpt lon="6.065404" lat="51.351704"><ele>-10</ele><time>2022-06-19T07:33:36.000Z</time></trkpt><trkpt lon="6.065472" lat="51.351631"><ele>-10.2</ele><time>2022-06-19T07:33:37.000Z</time></trkpt><trkpt lon="6.065528" lat="51.351554"><ele>-10</ele><time>2022-06-19T07:33:38.000Z</time></trkpt><trkpt lon="6.065579" lat="51.351482"><ele>-10</ele><time>2022-06-19T07:33:39.000Z</time></trkpt><trkpt lon="6.065631" lat="51.351404"><ele>-9.8</ele><time>2022-06-19T07:33:40.000Z</time></trkpt><trkpt lon="6.065666" lat="51.35133"><ele>-9.8</ele><time>2022-06-19T07:33:41.000Z</time></trkpt><trkpt lon="6.065693" lat="51.351256"><ele>-9.6</ele><time>2022-06-19T07:33:42.000Z</time></trkpt><trkpt lon="6.065712" lat="51.351195"><ele>-9.4</ele><time>2022-06-19T07:33:43.000Z</time></trkpt><trkpt lon="6.065739" lat="51.351118"><ele>-9.4</ele><time>2022-06-19T07:33:44.000Z</time></trkpt><trkpt lon="6.065757" lat="51.351046"><ele>-9.4</ele><time>2022-06-19T07:33:45.000Z</time></trkpt><trkpt lon="6.065774" lat="51.350962"><ele>-9.4</ele><time>2022-06-19T07:33:46.000Z</time></trkpt><trkpt lon="6.065783" lat="51.350892"><ele>-9.2</ele><time>2022-06-19T07:33:47.000Z</time></trkpt><trkpt lon="6.065791" lat="51.350817"><ele>-9.2</ele><time>2022-06-19T07:33:48.000Z</time></trkpt><trkpt lon="6.065803" lat="51.350735"><ele>-9</ele><time>2022-06-19T07:33:49.000Z</time></trkpt><trkpt lon="6.065811" lat="51.350654"><ele>-8.8</ele><time>2022-06-19T07:33:50.000Z</time></trkpt><trkpt lon="6.065821" lat="51.350571"><ele>-8.6</ele><time>2022-06-19T07:33:51.000Z</time></trkpt><trkpt lon="6.065831" lat="51.350481"><ele>-8.6</ele><time>2022-06-19T07:33:52.000Z</time></trkpt><trkpt lon="6.065838" lat="51.350399"><ele>-8.6</ele><time>2022-06-19T07:33:53.000Z</time></trkpt><trkpt lon="6.065848" lat="51.350318"><ele>-8.6</ele><time>2022-06-19T07:33:54.000Z</time></trkpt><trkpt lon="6.065859" lat="51.350242"><ele>-8.8</ele><time>2022-06-19T07:33:55.000Z</time></trkpt><trkpt lon="6.065869" lat="51.350162"><ele>-8.8</ele><time>2022-06-19T07:33:56.000Z</time></trkpt><trkpt lon="6.065878" lat="51.350084"><ele>-8.8</ele><time>2022-06-19T07:33:57.000Z</time></trkpt><trkpt lon="6.065883" lat="51.350002"><ele>-8.8</ele><time>2022-06-19T07:33:58.000Z</time></trkpt><trkpt lon="6.065889" lat="51.349924"><ele>-8.8</ele><time>2022-06-19T07:33:59.000Z</time></trkpt><trkpt lon="6.065901" lat="51.349845"><ele>-9</ele><time>2022-06-19T07:34:00.000Z</time></trkpt><trkpt lon="6.065912" lat="51.349771"><ele>-9.2</ele><time>2022-06-19T07:34:01.000Z</time></trkpt><trkpt lon="6.065929" lat="51.349693"><ele>-9.2</ele><time>2022-06-19T07:34:02.000Z</time></trkpt><trkpt lon="6.065949" lat="51.349614"><ele>-9.2</ele><time>2022-06-19T07:34:03.000Z</time></trkpt><trkpt lon="6.065971" lat="51.349533"><ele>-9.4</ele><time>2022-06-19T07:34:04.000Z</time></trkpt><trkpt lon="6.065991" lat="51.349458"><ele>-9.4</ele><time>2022-06-19T07:34:05.000Z</time></trkpt><trkpt lon="6.066017" lat="51.34938"><ele>-9.6</ele><time>2022-06-19T07:34:06.000Z</time></trkpt><trkpt lon="6.066051" lat="51.349313"><ele>-9.6</ele><time>2022-06-19T07:34:07.000Z</time></trkpt><trkpt lon="6.066102" lat="51.349239"><ele>-9.4</ele><time>2022-06-19T07:34:08.000Z</time></trkpt><trkpt lon="6.066154" lat="51.349165"><ele>-9.4</ele><time>2022-06-19T07:34:09.000Z</time></trkpt><trkpt lon="6.066214" lat="51.349092"><ele>-9.6</ele><time>2022-06-19T07:34:10.000Z</time></trkpt><trkpt lon="6.066276" lat="51.349019"><ele>-9.6</ele><time>2022-06-19T07:34:11.000Z</time></trkpt><trkpt lon="6.066337" lat="51.348947"><ele>-9.4</ele><time>2022-06-19T07:34:12.000Z</time></trkpt><trkpt lon="6.066396" lat="51.348875"><ele>-9.2</ele><time>2022-06-19T07:34:13.000Z</time></trkpt><trkpt lon="6.066455" lat="51.348803"><ele>-9.2</ele><time>2022-06-19T07:34:14.000Z</time></trkpt><trkpt lon="6.066517" lat="51.348732"><ele>-9</ele><time>2022-06-19T07:34:15.000Z</time></trkpt><trkpt lon="6.066578" lat="51.348662"><ele>-9</ele><time>2022-06-19T07:34:16.000Z</time></trkpt><trkpt lon="6.066638" lat="51.348585"><ele>-9</ele><time>2022-06-19T07:34:17.000Z</time></trkpt><trkpt lon="6.066699" lat="51.348514"><ele>-9</ele><time>2022-06-19T07:34:18.000Z</time></trkpt><trkpt lon="6.06676" lat="51.348441"><ele>-9</ele><time>2022-06-19T07:34:19.000Z</time></trkpt><trkpt lon="6.066822" lat="51.348367"><ele>-9</ele><time>2022-06-19T07:34:20.000Z</time></trkpt><trkpt lon="6.066881" lat="51.348295"><ele>-9.2</ele><time>2022-06-19T07:34:21.000Z</time></trkpt><trkpt lon="6.06694" lat="51.348223"><ele>-9.2</ele><time>2022-06-19T07:34:22.000Z</time></trkpt><trkpt lon="6.067" lat="51.34815"><ele>-9.2</ele><time>2022-06-19T07:34:23.000Z</time></trkpt><trkpt lon="6.067062" lat="51.348077"><ele>-9.2</ele><time>2022-06-19T07:34:24.000Z</time></trkpt><trkpt lon="6.067123" lat="51.348006"><ele>-9</ele><time>2022-06-19T07:34:25.000Z</time></trkpt><trkpt lon="6.067182" lat="51.347933"><ele>-9</ele><time>2022-06-19T07:34:26.000Z</time></trkpt><trkpt lon="6.06724" lat="51.347861"><ele>-9.2</ele><time>2022-06-19T07:34:27.000Z</time></trkpt><trkpt lon="6.0673" lat="51.347788"><ele>-9.2</ele><time>2022-06-19T07:34:28.000Z</time></trkpt><trkpt lon="6.06736" lat="51.347715"><ele>-9.2</ele><time>2022-06-19T07:34:29.000Z</time></trkpt><trkpt lon="6.067419" lat="51.347645"><ele>-9.2</ele><time>2022-06-19T07:34:30.000Z</time></trkpt><trkpt lon="6.067479" lat="51.347574"><ele>-9.4</ele><time>2022-06-19T07:34:31.000Z</time></trkpt><trkpt lon="6.067537" lat="51.347502"><ele>-9.4</ele><time>2022-06-19T07:34:32.000Z</time></trkpt><trkpt lon="6.067595" lat="51.347433"><ele>-9.6</ele><time>2022-06-19T07:34:33.000Z</time></trkpt><trkpt lon="6.067653" lat="51.347361"><ele>-9.6</ele><time>2022-06-19T07:34:34.000Z</time></trkpt><trkpt lon="6.067712" lat="51.347292"><ele>-9.6</ele><time>2022-06-19T07:34:35.000Z</time></trkpt><trkpt lon="6.067768" lat="51.347223"><ele>-9.4</ele><time>2022-06-19T07:34:36.000Z</time></trkpt><trkpt lon="6.067826" lat="51.347152"><ele>-9.4</ele><time>2022-06-19T07:34:37.000Z</time></trkpt><trkpt lon="6.067884" lat="51.347082"><ele>-9.4</ele><time>2022-06-19T07:34:38.000Z</time></trkpt><trkpt lon="6.067941" lat="51.347011"><ele>-9.2</ele><time>2022-06-19T07:34:39.000Z</time></trkpt><trkpt lon="6.068" lat="51.346938"><ele>-9.4</ele><time>2022-06-19T07:34:40.000Z</time></trkpt><trkpt lon="6.068057" lat="51.346868"><ele>-9.4</ele><time>2022-06-19T07:34:41.000Z</time></trkpt><trkpt lon="6.068116" lat="51.346797"><ele>-9.6</ele><time>2022-06-19T07:34:42.000Z</time></trkpt><trkpt lon="6.068174" lat="51.346726"><ele>-9.6</ele><time>2022-06-19T07:34:43.000Z</time></trkpt><trkpt lon="6.068232" lat="51.346656"><ele>-9.6</ele><time>2022-06-19T07:34:44.000Z</time></trkpt><trkpt lon="6.068289" lat="51.34659"><ele>-9.4</ele><time>2022-06-19T07:34:45.000Z</time></trkpt><trkpt lon="6.06835" lat="51.346514"><ele>-9.4</ele><time>2022-06-19T07:34:46.000Z</time></trkpt><trkpt lon="6.068408" lat="51.346445"><ele>-9.4</ele><time>2022-06-19T07:34:47.000Z</time></trkpt><trkpt lon="6.068467" lat="51.346372"><ele>-9.4</ele><time>2022-06-19T07:34:48.000Z</time></trkpt><trkpt lon="6.068525" lat="51.3463"><ele>-9.4</ele><time>2022-06-19T07:34:49.000Z</time></trkpt><trkpt lon="6.068582" lat="51.346233"><ele>-9.2</ele><time>2022-06-19T07:34:50.000Z</time></trkpt><trkpt lon="6.068642" lat="51.346159"><ele>-9.2</ele><time>2022-06-19T07:34:51.000Z</time></trkpt><trkpt lon="6.0687" lat="51.346087"><ele>-9.2</ele><time>2022-06-19T07:34:52.000Z</time></trkpt><trkpt lon="6.06876" lat="51.346014"><ele>-9</ele><time>2022-06-19T07:34:53.000Z</time></trkpt><trkpt lon="6.06882" lat="51.345941"><ele>-9</ele><time>2022-06-19T07:34:54.000Z</time></trkpt><trkpt lon="6.068879" lat="51.345869"><ele>-8.8</ele><time>2022-06-19T07:34:55.000Z</time></trkpt><trkpt lon="6.068939" lat="51.3458"><ele>-8.8</ele><time>2022-06-19T07:34:56.000Z</time></trkpt><trkpt lon="6.068996" lat="51.345729"><ele>-8.8</ele><time>2022-06-19T07:34:57.000Z</time></trkpt><trkpt lon="6.069055" lat="51.345656"><ele>-8.8</ele><time>2022-06-19T07:34:58.000Z</time></trkpt><trkpt lon="6.069114" lat="51.345584"><ele>-8.8</ele><time>2022-06-19T07:34:59.000Z</time></trkpt><trkpt lon="6.069173" lat="51.345511"><ele>-8.8</ele><time>2022-06-19T07:35:00.000Z</time></trkpt><trkpt lon="6.069233" lat="51.345438"><ele>-9</ele><time>2022-06-19T07:35:01.000Z</time></trkpt><trkpt lon="6.069292" lat="51.345366"><ele>-9</ele><time>2022-06-19T07:35:02.000Z</time></trkpt><trkpt lon="6.06935" lat="51.345297"><ele>-9.2</ele><time>2022-06-19T07:35:03.000Z</time></trkpt><trkpt lon="6.069408" lat="51.345228"><ele>-9.2</ele><time>2022-06-19T07:35:04.000Z</time></trkpt><trkpt lon="6.069465" lat="51.345156"><ele>-9.2</ele><time>2022-06-19T07:35:05.000Z</time></trkpt><trkpt lon="6.069525" lat="51.345087"><ele>-9.2</ele><time>2022-06-19T07:35:06.000Z</time></trkpt><trkpt lon="6.069583" lat="51.345018"><ele>-9.2</ele><time>2022-06-19T07:35:07.000Z</time></trkpt><trkpt lon="6.069639" lat="51.344948"><ele>-9.2</ele><time>2022-06-19T07:35:08.000Z</time></trkpt><trkpt lon="6.069696" lat="51.344876"><ele>-9.2</ele><time>2022-06-19T07:35:09.000Z</time></trkpt><trkpt lon="6.069755" lat="51.344804"><ele>-9.4</ele><time>2022-06-19T07:35:10.000Z</time></trkpt><trkpt lon="6.069814" lat="51.344732"><ele>-9.2</ele><time>2022-06-19T07:35:11.000Z</time></trkpt><trkpt lon="6.069872" lat="51.344664"><ele>-9.2</ele><time>2022-06-19T07:35:12.000Z</time></trkpt><trkpt lon="6.069927" lat="51.344594"><ele>-9.2</ele><time>2022-06-19T07:35:13.000Z</time></trkpt><trkpt lon="6.069987" lat="51.344521"><ele>-9.2</ele><time>2022-06-19T07:35:14.000Z</time></trkpt><trkpt lon="6.070047" lat="51.34445"><ele>-9.4</ele><time>2022-06-19T07:35:15.000Z</time></trkpt><trkpt lon="6.070101" lat="51.344378"><ele>-9.2</ele><time>2022-06-19T07:35:16.000Z</time></trkpt><trkpt lon="6.070154" lat="51.344305"><ele>-9.2</ele><time>2022-06-19T07:35:17.000Z</time></trkpt><trkpt lon="6.070197" lat="51.344236"><ele>-9.4</ele><time>2022-06-19T07:35:18.000Z</time></trkpt><trkpt lon="6.070234" lat="51.344164"><ele>-9.4</ele><time>2022-06-19T07:35:19.000Z</time></trkpt><trkpt lon="6.070263" lat="51.344092"><ele>-9.4</ele><time>2022-06-19T07:35:20.000Z</time></trkpt><trkpt lon="6.070286" lat="51.344017"><ele>-9.4</ele><time>2022-06-19T07:35:21.000Z</time></trkpt><trkpt lon="6.070301" lat="51.343935"><ele>-9.4</ele><time>2022-06-19T07:35:22.000Z</time></trkpt><trkpt lon="6.07031" lat="51.343859"><ele>-9.4</ele><time>2022-06-19T07:35:23.000Z</time></trkpt><trkpt lon="6.070311" lat="51.343782"><ele>-9.4</ele><time>2022-06-19T07:35:24.000Z</time></trkpt><trkpt lon="6.070312" lat="51.343706"><ele>-9.4</ele><time>2022-06-19T07:35:25.000Z</time></trkpt><trkpt lon="6.07031" lat="51.343631"><ele>-9.4</ele><time>2022-06-19T07:35:26.000Z</time></trkpt><trkpt lon="6.07031" lat="51.343554"><ele>-9.4</ele><time>2022-06-19T07:35:27.000Z</time></trkpt><trkpt lon="6.070308" lat="51.343474"><ele>-9.4</ele><time>2022-06-19T07:35:28.000Z</time></trkpt><trkpt lon="6.070307" lat="51.343401"><ele>-9.6</ele><time>2022-06-19T07:35:29.000Z</time></trkpt><trkpt lon="6.070305" lat="51.343326"><ele>-9.6</ele><time>2022-06-19T07:35:30.000Z</time></trkpt><trkpt lon="6.070305" lat="51.343249"><ele>-9.8</ele><time>2022-06-19T07:35:31.000Z</time></trkpt><trkpt lon="6.070305" lat="51.343174"><ele>-9.8</ele><time>2022-06-19T07:35:32.000Z</time></trkpt><trkpt lon="6.070305" lat="51.343102"><ele>-9.6</ele><time>2022-06-19T07:35:33.000Z</time></trkpt><trkpt lon="6.070311" lat="51.343024"><ele>-9.6</ele><time>2022-06-19T07:35:34.000Z</time></trkpt><trkpt lon="6.070325" lat="51.342947"><ele>-9.4</ele><time>2022-06-19T07:35:35.000Z</time></trkpt><trkpt lon="6.070344" lat="51.342875"><ele>-9.2</ele><time>2022-06-19T07:35:36.000Z</time></trkpt><trkpt lon="6.070371" lat="51.342798"><ele>-9</ele><time>2022-06-19T07:35:37.000Z</time></trkpt><trkpt lon="6.070404" lat="51.342726"><ele>-9</ele><time>2022-06-19T07:35:38.000Z</time></trkpt><trkpt lon="6.070444" lat="51.342654"><ele>-8.8</ele><time>2022-06-19T07:35:39.000Z</time></trkpt><trkpt lon="6.070491" lat="51.342581"><ele>-8.8</ele><time>2022-06-19T07:35:40.000Z</time></trkpt><trkpt lon="6.070542" lat="51.342512"><ele>-8.6</ele><time>2022-06-19T07:35:41.000Z</time></trkpt><trkpt lon="6.070596" lat="51.342444"><ele>-8.6</ele><time>2022-06-19T07:35:42.000Z</time></trkpt><trkpt lon="6.070648" lat="51.342371"><ele>-8.6</ele><time>2022-06-19T07:35:43.000Z</time></trkpt><trkpt lon="6.070699" lat="51.342304"><ele>-8.6</ele><time>2022-06-19T07:35:44.000Z</time></trkpt><trkpt lon="6.070758" lat="51.342232"><ele>-8.6</ele><time>2022-06-19T07:35:45.000Z</time></trkpt><trkpt lon="6.07081" lat="51.342167"><ele>-8.6</ele><time>2022-06-19T07:35:46.000Z</time></trkpt><trkpt lon="6.07087" lat="51.342089"><ele>-8.6</ele><time>2022-06-19T07:35:47.000Z</time></trkpt><trkpt lon="6.070925" lat="51.342021"><ele>-8.6</ele><time>2022-06-19T07:35:48.000Z</time></trkpt><trkpt lon="6.070981" lat="51.341948"><ele>-8.8</ele><time>2022-06-19T07:35:49.000Z</time></trkpt><trkpt lon="6.071036" lat="51.341879"><ele>-8.8</ele><time>2022-06-19T07:35:50.000Z</time></trkpt><trkpt lon="6.071092" lat="51.341807"><ele>-8.6</ele><time>2022-06-19T07:35:51.000Z</time></trkpt><trkpt lon="6.071147" lat="51.341734"><ele>-8.6</ele><time>2022-06-19T07:35:52.000Z</time></trkpt><trkpt lon="6.071202" lat="51.341665"><ele>-8.6</ele><time>2022-06-19T07:35:53.000Z</time></trkpt><trkpt lon="6.07125" lat="51.341603"><ele>-8.6</ele><time>2022-06-19T07:35:54.000Z</time></trkpt><trkpt lon="6.07131" lat="51.341521"><ele>-8.4</ele><time>2022-06-19T07:35:55.000Z</time></trkpt><trkpt lon="6.071361" lat="51.341452"><ele>-8.6</ele><time>2022-06-19T07:35:56.000Z</time></trkpt><trkpt lon="6.071412" lat="51.34138"><ele>-8.6</ele><time>2022-06-19T07:35:57.000Z</time></trkpt><trkpt lon="6.071459" lat="51.341308"><ele>-8.6</ele><time>2022-06-19T07:35:58.000Z</time></trkpt><trkpt lon="6.071505" lat="51.341239"><ele>-8.6</ele><time>2022-06-19T07:35:59.000Z</time></trkpt><trkpt lon="6.071555" lat="51.341163"><ele>-8.8</ele><time>2022-06-19T07:36:00.000Z</time></trkpt><trkpt lon="6.071602" lat="51.341089"><ele>-9</ele><time>2022-06-19T07:36:01.000Z</time></trkpt><trkpt lon="6.071647" lat="51.341017"><ele>-9.2</ele><time>2022-06-19T07:36:02.000Z</time></trkpt><trkpt lon="6.071692" lat="51.340941"><ele>-9.2</ele><time>2022-06-19T07:36:03.000Z</time></trkpt><trkpt lon="6.071736" lat="51.340868"><ele>-9.2</ele><time>2022-06-19T07:36:04.000Z</time></trkpt><trkpt lon="6.071775" lat="51.340796"><ele>-9.4</ele><time>2022-06-19T07:36:05.000Z</time></trkpt><trkpt lon="6.07182" lat="51.340716"><ele>-9.8</ele><time>2022-06-19T07:36:06.000Z</time></trkpt><trkpt lon="6.071864" lat="51.340636"><ele>-10</ele><time>2022-06-19T07:36:07.000Z</time></trkpt><trkpt lon="6.071908" lat="51.340556"><ele>-10.2</ele><time>2022-06-19T07:36:08.000Z</time></trkpt><trkpt lon="6.071954" lat="51.340472"><ele>-10.4</ele><time>2022-06-19T07:36:09.000Z</time></trkpt><trkpt lon="6.071997" lat="51.340392"><ele>-10.4</ele><time>2022-06-19T07:36:10.000Z</time></trkpt><trkpt lon="6.072042" lat="51.340304"><ele>-10.6</ele><time>2022-06-19T07:36:11.000Z</time></trkpt><trkpt lon="6.072089" lat="51.34022"><ele>-10.8</ele><time>2022-06-19T07:36:12.000Z</time></trkpt><trkpt lon="6.072131" lat="51.340138"><ele>-10.8</ele><time>2022-06-19T07:36:13.000Z</time></trkpt><trkpt lon="6.072171" lat="51.340054"><ele>-11</ele><time>2022-06-19T07:36:14.000Z</time></trkpt><trkpt lon="6.072214" lat="51.339965"><ele>-11</ele><time>2022-06-19T07:36:15.000Z</time></trkpt><trkpt lon="6.072254" lat="51.33988"><ele>-11.4</ele><time>2022-06-19T07:36:16.000Z</time></trkpt><trkpt lon="6.072294" lat="51.339793"><ele>-11.8</ele><time>2022-06-19T07:36:17.000Z</time></trkpt><trkpt lon="6.072334" lat="51.339708"><ele>-12</ele><time>2022-06-19T07:36:18.000Z</time></trkpt><trkpt lon="6.072372" lat="51.339626"><ele>-12.2</ele><time>2022-06-19T07:36:19.000Z</time></trkpt><trkpt lon="6.072412" lat="51.339538"><ele>-12.2</ele><time>2022-06-19T07:36:20.000Z</time></trkpt><trkpt lon="6.072451" lat="51.339453"><ele>-12.4</ele><time>2022-06-19T07:36:21.000Z</time></trkpt><trkpt lon="6.072486" lat="51.339369"><ele>-12.4</ele><time>2022-06-19T07:36:22.000Z</time></trkpt><trkpt lon="6.072519" lat="51.339285"><ele>-12.6</ele><time>2022-06-19T07:36:23.000Z</time></trkpt><trkpt lon="6.072551" lat="51.339201"><ele>-12.6</ele><time>2022-06-19T07:36:24.000Z</time></trkpt><trkpt lon="6.07258" lat="51.339119"><ele>-12.8</ele><time>2022-06-19T07:36:25.000Z</time></trkpt><trkpt lon="6.072612" lat="51.339038"><ele>-13</ele><time>2022-06-19T07:36:26.000Z</time></trkpt><trkpt lon="6.072639" lat="51.338961"><ele>-13</ele><time>2022-06-19T07:36:27.000Z</time></trkpt><trkpt lon="6.072664" lat="51.338887"><ele>-12.8</ele><time>2022-06-19T07:36:28.000Z</time></trkpt><trkpt lon="6.072687" lat="51.338812"><ele>-12.6</ele><time>2022-06-19T07:36:29.000Z</time></trkpt><trkpt lon="6.07271" lat="51.338738"><ele>-12.4</ele><time>2022-06-19T07:36:30.000Z</time></trkpt><trkpt lon="6.072731" lat="51.338663"><ele>-12</ele><time>2022-06-19T07:36:31.000Z</time></trkpt><trkpt lon="6.072754" lat="51.338587"><ele>-11.8</ele><time>2022-06-19T07:36:32.000Z</time></trkpt><trkpt lon="6.072778" lat="51.338514"><ele>-11.6</ele><time>2022-06-19T07:36:33.000Z</time></trkpt><trkpt lon="6.072802" lat="51.338446"><ele>-11.4</ele><time>2022-06-19T07:36:34.000Z</time></trkpt><trkpt lon="6.07283" lat="51.338369"><ele>-11.2</ele><time>2022-06-19T07:36:35.000Z</time></trkpt><trkpt lon="6.072861" lat="51.338294"><ele>-10.8</ele><time>2022-06-19T07:36:36.000Z</time></trkpt><trkpt lon="6.072894" lat="51.33822"><ele>-10.6</ele><time>2022-06-19T07:36:37.000Z</time></trkpt><trkpt lon="6.072929" lat="51.338148"><ele>-10.4</ele><time>2022-06-19T07:36:38.000Z</time></trkpt><trkpt lon="6.072967" lat="51.338076"><ele>-10.2</ele><time>2022-06-19T07:36:39.000Z</time></trkpt><trkpt lon="6.073007" lat="51.338004"><ele>-10</ele><time>2022-06-19T07:36:40.000Z</time></trkpt><trkpt lon="6.073046" lat="51.337934"><ele>-10</ele><time>2022-06-19T07:36:41.000Z</time></trkpt><trkpt lon="6.073086" lat="51.337866"><ele>-9.8</ele><time>2022-06-19T07:36:42.000Z</time></trkpt><trkpt lon="6.073127" lat="51.337797"><ele>-9.6</ele><time>2022-06-19T07:36:43.000Z</time></trkpt><trkpt lon="6.073169" lat="51.337728"><ele>-9.4</ele><time>2022-06-19T07:36:44.000Z</time></trkpt><trkpt lon="6.073207" lat="51.337666"><ele>-9.4</ele><time>2022-06-19T07:36:45.000Z</time></trkpt><trkpt lon="6.073249" lat="51.337594"><ele>-9.4</ele><time>2022-06-19T07:36:46.000Z</time></trkpt><trkpt lon="6.073292" lat="51.337523"><ele>-9.2</ele><time>2022-06-19T07:36:47.000Z</time></trkpt><trkpt lon="6.073334" lat="51.337455"><ele>-9.2</ele><time>2022-06-19T07:36:48.000Z</time></trkpt><trkpt lon="6.073377" lat="51.337394"><ele>-9.2</ele><time>2022-06-19T07:36:49.000Z</time></trkpt><trkpt lon="6.073423" lat="51.337321"><ele>-9</ele><time>2022-06-19T07:36:50.000Z</time></trkpt><trkpt lon="6.073467" lat="51.337257"><ele>-8.8</ele><time>2022-06-19T07:36:51.000Z</time></trkpt><trkpt lon="6.073513" lat="51.337184"><ele>-8.6</ele><time>2022-06-19T07:36:52.000Z</time></trkpt><trkpt lon="6.073557" lat="51.337111"><ele>-8.4</ele><time>2022-06-19T07:36:53.000Z</time></trkpt><trkpt lon="6.073601" lat="51.337042"><ele>-8.4</ele><time>2022-06-19T07:36:54.000Z</time></trkpt><trkpt lon="6.073647" lat="51.33697"><ele>-8.6</ele><time>2022-06-19T07:36:55.000Z</time></trkpt><trkpt lon="6.073694" lat="51.336897"><ele>-8.8</ele><time>2022-06-19T07:36:56.000Z</time></trkpt><trkpt lon="6.073741" lat="51.336826"><ele>-9</ele><time>2022-06-19T07:36:57.000Z</time></trkpt><trkpt lon="6.073787" lat="51.336752"><ele>-8.8</ele><time>2022-06-19T07:36:58.000Z</time></trkpt><trkpt lon="6.073835" lat="51.33668"><ele>-8.8</ele><time>2022-06-19T07:36:59.000Z</time></trkpt><trkpt lon="6.073882" lat="51.336608"><ele>-9</ele><time>2022-06-19T07:37:00.000Z</time></trkpt><trkpt lon="6.073929" lat="51.336534"><ele>-9</ele><time>2022-06-19T07:37:01.000Z</time></trkpt><trkpt lon="6.073974" lat="51.336462"><ele>-8.8</ele><time>2022-06-19T07:37:02.000Z</time></trkpt><trkpt lon="6.074019" lat="51.336395"><ele>-8.8</ele><time>2022-06-19T07:37:03.000Z</time></trkpt><trkpt lon="6.074067" lat="51.336325"><ele>-8.6</ele><time>2022-06-19T07:37:04.000Z</time></trkpt><trkpt lon="6.074114" lat="51.336252"><ele>-8.6</ele><time>2022-06-19T07:37:05.000Z</time></trkpt><trkpt lon="6.074162" lat="51.336185"><ele>-8.6</ele><time>2022-06-19T07:37:06.000Z</time></trkpt><trkpt lon="6.074212" lat="51.336112"><ele>-8.4</ele><time>2022-06-19T07:37:07.000Z</time></trkpt><trkpt lon="6.07426" lat="51.336039"><ele>-8.4</ele><time>2022-06-19T07:37:08.000Z</time></trkpt><trkpt lon="6.07431" lat="51.335967"><ele>-8.4</ele><time>2022-06-19T07:37:09.000Z</time></trkpt><trkpt lon="6.074362" lat="51.335898"><ele>-8.4</ele><time>2022-06-19T07:37:10.000Z</time></trkpt><trkpt lon="6.074411" lat="51.33583"><ele>-8.4</ele><time>2022-06-19T07:37:11.000Z</time></trkpt><trkpt lon="6.074459" lat="51.335759"><ele>-8.4</ele><time>2022-06-19T07:37:12.000Z</time></trkpt><trkpt lon="6.07451" lat="51.335688"><ele>-8.6</ele><time>2022-06-19T07:37:13.000Z</time></trkpt><trkpt lon="6.074559" lat="51.335619"><ele>-8.8</ele><time>2022-06-19T07:37:14.000Z</time></trkpt><trkpt lon="6.074612" lat="51.335545"><ele>-9</ele><time>2022-06-19T07:37:15.000Z</time></trkpt><trkpt lon="6.074662" lat="51.335475"><ele>-9</ele><time>2022-06-19T07:37:16.000Z</time></trkpt><trkpt lon="6.074717" lat="51.335401"><ele>-9</ele><time>2022-06-19T07:37:17.000Z</time></trkpt><trkpt lon="6.07477" lat="51.335325"><ele>-9.2</ele><time>2022-06-19T07:37:18.000Z</time></trkpt><trkpt lon="6.074825" lat="51.335256"><ele>-9.2</ele><time>2022-06-19T07:37:19.000Z</time></trkpt><trkpt lon="6.074877" lat="51.335182"><ele>-9.2</ele><time>2022-06-19T07:37:20.000Z</time></trkpt><trkpt lon="6.074934" lat="51.335108"><ele>-9.2</ele><time>2022-06-19T07:37:21.000Z</time></trkpt><trkpt lon="6.074987" lat="51.335035"><ele>-9.2</ele><time>2022-06-19T07:37:22.000Z</time></trkpt><trkpt lon="6.07504" lat="51.334963"><ele>-9.6</ele><time>2022-06-19T07:37:23.000Z</time></trkpt><trkpt lon="6.075094" lat="51.334891"><ele>-9.6</ele><time>2022-06-19T07:37:24.000Z</time></trkpt><trkpt lon="6.07515" lat="51.334814"><ele>-9.4</ele><time>2022-06-19T07:37:25.000Z</time></trkpt><trkpt lon="6.075208" lat="51.334747"><ele>-9.4</ele><time>2022-06-19T07:37:26.000Z</time></trkpt><trkpt lon="6.075271" lat="51.334673"><ele>-9.6</ele><time>2022-06-19T07:37:27.000Z</time></trkpt><trkpt lon="6.075336" lat="51.334605"><ele>-9.8</ele><time>2022-06-19T07:37:28.000Z</time></trkpt><trkpt lon="6.075405" lat="51.334536"><ele>-10</ele><time>2022-06-19T07:37:29.000Z</time></trkpt><trkpt lon="6.07548" lat="51.33447"><ele>-10.2</ele><time>2022-06-19T07:37:30.000Z</time></trkpt><trkpt lon="6.075561" lat="51.33441"><ele>-10.4</ele><time>2022-06-19T07:37:31.000Z</time></trkpt><trkpt lon="6.07565" lat="51.334348"><ele>-10.4</ele><time>2022-06-19T07:37:32.000Z</time></trkpt><trkpt lon="6.07574" lat="51.334287"><ele>-10.6</ele><time>2022-06-19T07:37:33.000Z</time></trkpt><trkpt lon="6.07583" lat="51.33423"><ele>-11</ele><time>2022-06-19T07:37:34.000Z</time></trkpt><trkpt lon="6.075924" lat="51.334169"><ele>-11.2</ele><time>2022-06-19T07:37:35.000Z</time></trkpt><trkpt lon="6.076015" lat="51.334111"><ele>-11.2</ele><time>2022-06-19T07:37:36.000Z</time></trkpt><trkpt lon="6.076108" lat="51.334052"><ele>-11.4</ele><time>2022-06-19T07:37:37.000Z</time></trkpt><trkpt lon="6.076198" lat="51.333997"><ele>-11.4</ele><time>2022-06-19T07:37:38.000Z</time></trkpt><trkpt lon="6.07628" lat="51.333946"><ele>-11.4</ele><time>2022-06-19T07:37:39.000Z</time></trkpt><trkpt lon="6.076365" lat="51.333888"><ele>-11.4</ele><time>2022-06-19T07:37:40.000Z</time></trkpt><trkpt lon="6.07645" lat="51.333833"><ele>-11.4</ele><time>2022-06-19T07:37:41.000Z</time></trkpt><trkpt lon="6.076532" lat="51.33378"><ele>-11.4</ele><time>2022-06-19T07:37:42.000Z</time></trkpt><trkpt lon="6.076615" lat="51.333727"><ele>-11.6</ele><time>2022-06-19T07:37:43.000Z</time></trkpt><trkpt lon="6.076707" lat="51.333673"><ele>-11.8</ele><time>2022-06-19T07:37:44.000Z</time></trkpt><trkpt lon="6.076814" lat="51.33362"><ele>-11.8</ele><time>2022-06-19T07:37:45.000Z</time></trkpt><trkpt lon="6.076922" lat="51.333578"><ele>-12.2</ele><time>2022-06-19T07:37:46.000Z</time></trkpt><trkpt lon="6.077039" lat="51.33354"><ele>-12.4</ele><time>2022-06-19T07:37:47.000Z</time></trkpt><trkpt lon="6.077165" lat="51.333508"><ele>-12.4</ele><time>2022-06-19T07:37:48.000Z</time></trkpt><trkpt lon="6.077295" lat="51.333485"><ele>-12.8</ele><time>2022-06-19T07:37:49.000Z</time></trkpt><trkpt lon="6.07743" lat="51.33347"><ele>-12.8</ele><time>2022-06-19T07:37:50.000Z</time></trkpt><trkpt lon="6.077562" lat="51.333458"><ele>-13</ele><time>2022-06-19T07:37:51.000Z</time></trkpt><trkpt lon="6.077686" lat="51.333447"><ele>-13</ele><time>2022-06-19T07:37:52.000Z</time></trkpt><trkpt lon="6.077814" lat="51.333435"><ele>-13.2</ele><time>2022-06-19T07:37:53.000Z</time></trkpt><trkpt lon="6.077943" lat="51.333424"><ele>-13.2</ele><time>2022-06-19T07:37:54.000Z</time></trkpt><trkpt lon="6.07807" lat="51.333409"><ele>-13.2</ele><time>2022-06-19T07:37:55.000Z</time></trkpt><trkpt lon="6.078202" lat="51.333397"><ele>-13.2</ele><time>2022-06-19T07:37:56.000Z</time></trkpt><trkpt lon="6.078329" lat="51.333382"><ele>-13.2</ele><time>2022-06-19T07:37:57.000Z</time></trkpt><trkpt lon="6.07846" lat="51.333363"><ele>-13.2</ele><time>2022-06-19T07:37:58.000Z</time></trkpt><trkpt lon="6.07859" lat="51.33334"><ele>-13.2</ele><time>2022-06-19T07:37:59.000Z</time></trkpt><trkpt lon="6.078711" lat="51.333318"><ele>-13.2</ele><time>2022-06-19T07:38:00.000Z</time></trkpt><trkpt lon="6.078831" lat="51.333284"><ele>-13.2</ele><time>2022-06-19T07:38:01.000Z</time></trkpt><trkpt lon="6.078945" lat="51.333251"><ele>-13.4</ele><time>2022-06-19T07:38:02.000Z</time></trkpt><trkpt lon="6.079063" lat="51.333213"><ele>-13.4</ele><time>2022-06-19T07:38:03.000Z</time></trkpt><trkpt lon="6.079183" lat="51.33317"><ele>-13.4</ele><time>2022-06-19T07:38:04.000Z</time></trkpt><trkpt lon="6.079291" lat="51.333134"><ele>-13.4</ele><time>2022-06-19T07:38:05.000Z</time></trkpt><trkpt lon="6.079411" lat="51.333089"><ele>-13.4</ele><time>2022-06-19T07:38:06.000Z</time></trkpt><trkpt lon="6.079522" lat="51.333047"><ele>-13.2</ele><time>2022-06-19T07:38:07.000Z</time></trkpt><trkpt lon="6.079633" lat="51.333001"><ele>-13.2</ele><time>2022-06-19T07:38:08.000Z</time></trkpt><trkpt lon="6.079746" lat="51.33296"><ele>-13.4</ele><time>2022-06-19T07:38:09.000Z</time></trkpt><trkpt lon="6.079868" lat="51.332925"><ele>-13.4</ele><time>2022-06-19T07:38:10.000Z</time></trkpt><trkpt lon="6.079991" lat="51.332894"><ele>-13.4</ele><time>2022-06-19T07:38:11.000Z</time></trkpt><trkpt lon="6.080113" lat="51.332864"><ele>-13.4</ele><time>2022-06-19T07:38:12.000Z</time></trkpt><trkpt lon="6.080233" lat="51.332833"><ele>-13.6</ele><time>2022-06-19T07:38:13.000Z</time></trkpt><trkpt lon="6.080349" lat="51.332811"><ele>-13.6</ele><time>2022-06-19T07:38:14.000Z</time></trkpt><trkpt lon="6.080473" lat="51.332788"><ele>-13.8</ele><time>2022-06-19T07:38:15.000Z</time></trkpt><trkpt lon="6.080592" lat="51.332769"><ele>-14</ele><time>2022-06-19T07:38:16.000Z</time></trkpt><trkpt lon="6.080719" lat="51.332749"><ele>-14.2</ele><time>2022-06-19T07:38:17.000Z</time></trkpt><trkpt lon="6.080837" lat="51.332734"><ele>-14.2</ele><time>2022-06-19T07:38:18.000Z</time></trkpt><trkpt lon="6.080962" lat="51.332718"><ele>-14.2</ele><time>2022-06-19T07:38:19.000Z</time></trkpt><trkpt lon="6.081081" lat="51.3327"><ele>-14.2</ele><time>2022-06-19T07:38:20.000Z</time></trkpt><trkpt lon="6.081204" lat="51.332684"><ele>-14.2</ele><time>2022-06-19T07:38:21.000Z</time></trkpt><trkpt lon="6.081332" lat="51.332665"><ele>-14.2</ele><time>2022-06-19T07:38:22.000Z</time></trkpt><trkpt lon="6.081468" lat="51.332642"><ele>-14.2</ele><time>2022-06-19T07:38:23.000Z</time></trkpt><trkpt lon="6.081602" lat="51.332623"><ele>-14.2</ele><time>2022-06-19T07:38:24.000Z</time></trkpt><trkpt lon="6.081733" lat="51.332604"><ele>-14</ele><time>2022-06-19T07:38:25.000Z</time></trkpt><trkpt lon="6.081863" lat="51.332585"><ele>-14</ele><time>2022-06-19T07:38:26.000Z</time></trkpt><trkpt lon="6.081983" lat="51.332563"><ele>-13.8</ele><time>2022-06-19T07:38:27.000Z</time></trkpt><trkpt lon="6.082113" lat="51.332544"><ele>-13.8</ele><time>2022-06-19T07:38:28.000Z</time></trkpt><trkpt lon="6.082239" lat="51.33252"><ele>-14</ele><time>2022-06-19T07:38:29.000Z</time></trkpt><trkpt lon="6.082338" lat="51.332505"><ele>-14</ele><time>2022-06-19T07:38:30.000Z</time></trkpt><trkpt lon="6.082483" lat="51.332479"><ele>-14</ele><time>2022-06-19T07:38:31.000Z</time></trkpt><trkpt lon="6.08261" lat="51.332455"><ele>-14.2</ele><time>2022-06-19T07:38:32.000Z</time></trkpt><trkpt lon="6.082728" lat="51.332433"><ele>-14.2</ele><time>2022-06-19T07:38:33.000Z</time></trkpt><trkpt lon="6.082843" lat="51.332406"><ele>-14.2</ele><time>2022-06-19T07:38:34.000Z</time></trkpt><trkpt lon="6.08296" lat="51.33238"><ele>-14.2</ele><time>2022-06-19T07:38:35.000Z</time></trkpt><trkpt lon="6.083084" lat="51.332353"><ele>-14.2</ele><time>2022-06-19T07:38:36.000Z</time></trkpt><trkpt lon="6.083209" lat="51.332326"><ele>-14</ele><time>2022-06-19T07:38:37.000Z</time></trkpt><trkpt lon="6.08333" lat="51.3323"><ele>-14</ele><time>2022-06-19T07:38:38.000Z</time></trkpt><trkpt lon="6.083454" lat="51.332273"><ele>-14</ele><time>2022-06-19T07:38:39.000Z</time></trkpt><trkpt lon="6.083574" lat="51.332246"><ele>-14.2</ele><time>2022-06-19T07:38:40.000Z</time></trkpt><trkpt lon="6.0837" lat="51.332223"><ele>-14.2</ele><time>2022-06-19T07:38:41.000Z</time></trkpt><trkpt lon="6.083827" lat="51.332196"><ele>-14.4</ele><time>2022-06-19T07:38:42.000Z</time></trkpt><trkpt lon="6.083952" lat="51.33217"><ele>-14.4</ele><time>2022-06-19T07:38:43.000Z</time></trkpt><trkpt lon="6.084071" lat="51.332144"><ele>-14.2</ele><time>2022-06-19T07:38:44.000Z</time></trkpt><trkpt lon="6.084201" lat="51.33212"><ele>-14</ele><time>2022-06-19T07:38:45.000Z</time></trkpt><trkpt lon="6.084324" lat="51.332097"><ele>-14</ele><time>2022-06-19T07:38:46.000Z</time></trkpt><trkpt lon="6.084441" lat="51.332074"><ele>-14</ele><time>2022-06-19T07:38:47.000Z</time></trkpt><trkpt lon="6.084564" lat="51.332055"><ele>-13.8</ele><time>2022-06-19T07:38:48.000Z</time></trkpt><trkpt lon="6.084688" lat="51.332032"><ele>-14</ele><time>2022-06-19T07:38:49.000Z</time></trkpt><trkpt lon="6.084809" lat="51.332009"><ele>-13.8</ele><time>2022-06-19T07:38:50.000Z</time></trkpt><trkpt lon="6.084928" lat="51.331987"><ele>-13.8</ele><time>2022-06-19T07:38:51.000Z</time></trkpt><trkpt lon="6.085053" lat="51.331967"><ele>-13.8</ele><time>2022-06-19T07:38:52.000Z</time></trkpt><trkpt lon="6.085161" lat="51.331946"><ele>-13.8</ele><time>2022-06-19T07:38:53.000Z</time></trkpt><trkpt lon="6.085284" lat="51.331918"><ele>-13.8</ele><time>2022-06-19T07:38:54.000Z</time></trkpt><trkpt lon="6.085385" lat="51.331894"><ele>-13.8</ele><time>2022-06-19T07:38:55.000Z</time></trkpt><trkpt lon="6.085507" lat="51.331866"><ele>-13.8</ele><time>2022-06-19T07:38:56.000Z</time></trkpt><trkpt lon="6.085625" lat="51.331831"><ele>-13.8</ele><time>2022-06-19T07:38:57.000Z</time></trkpt><trkpt lon="6.085733" lat="51.331792"><ele>-13.8</ele><time>2022-06-19T07:38:58.000Z</time></trkpt><trkpt lon="6.085834" lat="51.33175"><ele>-13.8</ele><time>2022-06-19T07:38:59.000Z</time></trkpt><trkpt lon="6.085927" lat="51.33171"><ele>-13.8</ele><time>2022-06-19T07:39:00.000Z</time></trkpt><trkpt lon="6.086023" lat="51.331667"><ele>-13.8</ele><time>2022-06-19T07:39:01.000Z</time></trkpt><trkpt lon="6.086117" lat="51.331618"><ele>-13.8</ele><time>2022-06-19T07:39:02.000Z</time></trkpt><trkpt lon="6.086206" lat="51.331564"><ele>-13.8</ele><time>2022-06-19T07:39:03.000Z</time></trkpt><trkpt lon="6.086289" lat="51.331512"><ele>-13.8</ele><time>2022-06-19T07:39:04.000Z</time></trkpt><trkpt lon="6.086374" lat="51.331457"><ele>-14</ele><time>2022-06-19T07:39:05.000Z</time></trkpt><trkpt lon="6.086463" lat="51.3314"><ele>-14.2</ele><time>2022-06-19T07:39:06.000Z</time></trkpt><trkpt lon="6.086553" lat="51.33135"><ele>-14.4</ele><time>2022-06-19T07:39:07.000Z</time></trkpt><trkpt lon="6.086649" lat="51.331304"><ele>-14.4</ele><time>2022-06-19T07:39:08.000Z</time></trkpt><trkpt lon="6.086751" lat="51.331262"><ele>-14.6</ele><time>2022-06-19T07:39:09.000Z</time></trkpt><trkpt lon="6.086858" lat="51.331228"><ele>-14.4</ele><time>2022-06-19T07:39:10.000Z</time></trkpt><trkpt lon="6.08697" lat="51.3312"><ele>-14.6</ele><time>2022-06-19T07:39:11.000Z</time></trkpt><trkpt lon="6.087078" lat="51.331178"><ele>-14.4</ele><time>2022-06-19T07:39:12.000Z</time></trkpt><trkpt lon="6.087191" lat="51.331158"><ele>-14.2</ele><time>2022-06-19T07:39:13.000Z</time></trkpt><trkpt lon="6.087309" lat="51.331147"><ele>-14</ele><time>2022-06-19T07:39:14.000Z</time></trkpt><trkpt lon="6.08743" lat="51.331136"><ele>-14</ele><time>2022-06-19T07:39:15.000Z</time></trkpt><trkpt lon="6.087556" lat="51.331124"><ele>-14</ele><time>2022-06-19T07:39:16.000Z</time></trkpt><trkpt lon="6.08768" lat="51.331116"><ele>-14</ele><time>2022-06-19T07:39:17.000Z</time></trkpt><trkpt lon="6.087791" lat="51.331105"><ele>-14</ele><time>2022-06-19T07:39:18.000Z</time></trkpt><trkpt lon="6.087909" lat="51.331093"><ele>-14</ele><time>2022-06-19T07:39:19.000Z</time></trkpt><trkpt lon="6.088022" lat="51.331086"><ele>-14</ele><time>2022-06-19T07:39:20.000Z</time></trkpt><trkpt lon="6.088134" lat="51.331075"><ele>-14</ele><time>2022-06-19T07:39:21.000Z</time></trkpt><trkpt lon="6.088262" lat="51.331063"><ele>-14</ele><time>2022-06-19T07:39:22.000Z</time></trkpt><trkpt lon="6.088384" lat="51.331051"><ele>-14</ele><time>2022-06-19T07:39:23.000Z</time></trkpt><trkpt lon="6.088509" lat="51.331043"><ele>-13.8</ele><time>2022-06-19T07:39:24.000Z</time></trkpt><trkpt lon="6.08863" lat="51.331036"><ele>-13.6</ele><time>2022-06-19T07:39:25.000Z</time></trkpt><trkpt lon="6.088753" lat="51.331032"><ele>-13.6</ele><time>2022-06-19T07:39:26.000Z</time></trkpt><trkpt lon="6.088878" lat="51.331021"><ele>-13.6</ele><time>2022-06-19T07:39:27.000Z</time></trkpt><trkpt lon="6.088997" lat="51.331013"><ele>-13.4</ele><time>2022-06-19T07:39:28.000Z</time></trkpt><trkpt lon="6.089114" lat="51.331005"><ele>-13.4</ele><time>2022-06-19T07:39:29.000Z</time></trkpt><trkpt lon="6.089225" lat="51.331001"><ele>-13.2</ele><time>2022-06-19T07:39:30.000Z</time></trkpt><trkpt lon="6.089336" lat="51.330994"><ele>-13.2</ele><time>2022-06-19T07:39:31.000Z</time></trkpt><trkpt lon="6.089438" lat="51.33099"><ele>-13.2</ele><time>2022-06-19T07:39:32.000Z</time></trkpt><trkpt lon="6.08954" lat="51.330986"><ele>-13.2</ele><time>2022-06-19T07:39:33.000Z</time></trkpt><trkpt lon="6.089636" lat="51.330982"><ele>-13.2</ele><time>2022-06-19T07:39:34.000Z</time></trkpt><trkpt lon="6.089733" lat="51.330979"><ele>-13</ele><time>2022-06-19T07:39:35.000Z</time></trkpt><trkpt lon="6.089819" lat="51.330978"><ele>-13</ele><time>2022-06-19T07:39:36.000Z</time></trkpt><trkpt lon="6.089901" lat="51.330978"><ele>-12.8</ele><time>2022-06-19T07:39:37.000Z</time></trkpt><trkpt lon="6.089966" lat="51.330978"><ele>-12.8</ele><time>2022-06-19T07:39:38.000Z</time></trkpt><trkpt lon="6.090033" lat="51.330971"><ele>-12.8</ele><time>2022-06-19T07:39:39.000Z</time></trkpt><trkpt lon="6.090078" lat="51.330957"><ele>-12.8</ele><time>2022-06-19T07:39:40.000Z</time></trkpt><trkpt lon="6.090162" lat="51.330934"><ele>-12.8</ele><time>2022-06-19T07:39:41.000Z</time></trkpt><trkpt lon="6.090228" lat="51.330926"><ele>-12.8</ele><time>2022-06-19T07:39:42.000Z</time></trkpt><trkpt lon="6.090301" lat="51.330921"><ele>-12.8</ele><time>2022-06-19T07:39:43.000Z</time></trkpt><trkpt lon="6.090364" lat="51.330915"><ele>-12.8</ele><time>2022-06-19T07:39:44.000Z</time></trkpt><trkpt lon="6.090443" lat="51.33091"><ele>-12.8</ele><time>2022-06-19T07:39:45.000Z</time></trkpt><trkpt lon="6.090514" lat="51.330902"><ele>-12.8</ele><time>2022-06-19T07:39:46.000Z</time></trkpt><trkpt lon="6.090582" lat="51.330891"><ele>-12.8</ele><time>2022-06-19T07:39:47.000Z</time></trkpt><trkpt lon="6.090645" lat="51.330872"><ele>-12.8</ele><time>2022-06-19T07:39:48.000Z</time></trkpt><trkpt lon="6.090692" lat="51.330842"><ele>-12.6</ele><time>2022-06-19T07:39:49.000Z</time></trkpt><trkpt lon="6.090738" lat="51.330812"><ele>-12.6</ele><time>2022-06-19T07:39:50.000Z</time></trkpt><trkpt lon="6.090793" lat="51.330781"><ele>-12.6</ele><time>2022-06-19T07:39:51.000Z</time></trkpt><trkpt lon="6.090856" lat="51.330758"><ele>-12.6</ele><time>2022-06-19T07:39:52.000Z</time></trkpt><trkpt lon="6.090922" lat="51.330742"><ele>-12.6</ele><time>2022-06-19T07:39:53.000Z</time></trkpt><trkpt lon="6.090984" lat="51.330749"><ele>-12.6</ele><time>2022-06-19T07:39:54.000Z</time></trkpt><trkpt lon="6.091045" lat="51.330776"><ele>-12.6</ele><time>2022-06-19T07:39:55.000Z</time></trkpt><trkpt lon="6.091099" lat="51.330816"><ele>-12.6</ele><time>2022-06-19T07:39:56.000Z</time></trkpt><trkpt lon="6.091154" lat="51.330867"><ele>-12.6</ele><time>2022-06-19T07:39:57.000Z</time></trkpt><trkpt lon="6.091206" lat="51.330911"><ele>-12.6</ele><time>2022-06-19T07:39:58.000Z</time></trkpt><trkpt lon="6.091265" lat="51.330962"><ele>-12.8</ele><time>2022-06-19T07:39:59.000Z</time></trkpt><trkpt lon="6.091331" lat="51.331"><ele>-12.8</ele><time>2022-06-19T07:40:00.000Z</time></trkpt><trkpt lon="6.091402" lat="51.331027"><ele>-12.8</ele><time>2022-06-19T07:40:01.000Z</time></trkpt><trkpt lon="6.091471" lat="51.331032"><ele>-12.8</ele><time>2022-06-19T07:40:02.000Z</time></trkpt><trkpt lon="6.091538" lat="51.331017"><ele>-12.8</ele><time>2022-06-19T07:40:03.000Z</time></trkpt><trkpt lon="6.091618" lat="51.330998"><ele>-12.6</ele><time>2022-06-19T07:40:04.000Z</time></trkpt><trkpt lon="6.091706" lat="51.330983"><ele>-12.6</ele><time>2022-06-19T07:40:05.000Z</time></trkpt><trkpt lon="6.091787" lat="51.330979"><ele>-12.6</ele><time>2022-06-19T07:40:06.000Z</time></trkpt><trkpt lon="6.091875" lat="51.330997"><ele>-12.6</ele><time>2022-06-19T07:40:07.000Z</time></trkpt><trkpt lon="6.091944" lat="51.331034"><ele>-12.6</ele><time>2022-06-19T07:40:08.000Z</time></trkpt><trkpt lon="6.091992" lat="51.33108"><ele>-12.8</ele><time>2022-06-19T07:40:09.000Z</time></trkpt><trkpt lon="6.092022" lat="51.331136"><ele>-12.8</ele><time>2022-06-19T07:40:10.000Z</time></trkpt><trkpt lon="6.092051" lat="51.331194"><ele>-12.8</ele><time>2022-06-19T07:40:11.000Z</time></trkpt><trkpt lon="6.092103" lat="51.331229"><ele>-12.8</ele><time>2022-06-19T07:40:12.000Z</time></trkpt><trkpt lon="6.092181" lat="51.331259"><ele>-12.8</ele><time>2022-06-19T07:40:13.000Z</time></trkpt><trkpt lon="6.092267" lat="51.331285"><ele>-12.8</ele><time>2022-06-19T07:40:14.000Z</time></trkpt><trkpt lon="6.092367" lat="51.331306"><ele>-13</ele><time>2022-06-19T07:40:15.000Z</time></trkpt><trkpt lon="6.092462" lat="51.331321"><ele>-13</ele><time>2022-06-19T07:40:16.000Z</time></trkpt><trkpt lon="6.09256" lat="51.331333"><ele>-13</ele><time>2022-06-19T07:40:17.000Z</time></trkpt><trkpt lon="6.092646" lat="51.33134"><ele>-13</ele><time>2022-06-19T07:40:18.000Z</time></trkpt><trkpt lon="6.092746" lat="51.331344"><ele>-13</ele><time>2022-06-19T07:40:19.000Z</time></trkpt><trkpt lon="6.092844" lat="51.331348"><ele>-12.8</ele><time>2022-06-19T07:40:20.000Z</time></trkpt><trkpt lon="6.092936" lat="51.331356"><ele>-12.8</ele><time>2022-06-19T07:40:21.000Z</time></trkpt><trkpt lon="6.093018" lat="51.33136"><ele>-12.8</ele><time>2022-06-19T07:40:22.000Z</time></trkpt><trkpt lon="6.093096" lat="51.331367"><ele>-12.8</ele><time>2022-06-19T07:40:23.000Z</time></trkpt><trkpt lon="6.093169" lat="51.331375"><ele>-12.6</ele><time>2022-06-19T07:40:24.000Z</time></trkpt><trkpt lon="6.09325" lat="51.331379"><ele>-12.6</ele><time>2022-06-19T07:40:25.000Z</time></trkpt><trkpt lon="6.093326" lat="51.331383"><ele>-12.6</ele><time>2022-06-19T07:40:26.000Z</time></trkpt><trkpt lon="6.093405" lat="51.331386"><ele>-12.6</ele><time>2022-06-19T07:40:27.000Z</time></trkpt><trkpt lon="6.093485" lat="51.331383"><ele>-12.6</ele><time>2022-06-19T07:40:28.000Z</time></trkpt><trkpt lon="6.093578" lat="51.33139"><ele>-12.6</ele><time>2022-06-19T07:40:29.000Z</time></trkpt><trkpt lon="6.093652" lat="51.331393"><ele>-12.6</ele><time>2022-06-19T07:40:30.000Z</time></trkpt><trkpt lon="6.093757" lat="51.331398"><ele>-12.6</ele><time>2022-06-19T07:40:31.000Z</time></trkpt><trkpt lon="6.093853" lat="51.331402"><ele>-12.6</ele><time>2022-06-19T07:40:32.000Z</time></trkpt><trkpt lon="6.093941" lat="51.331406"><ele>-12.6</ele><time>2022-06-19T07:40:33.000Z</time></trkpt><trkpt lon="6.09401" lat="51.331406"><ele>-12.6</ele><time>2022-06-19T07:40:34.000Z</time></trkpt><trkpt lon="6.094101" lat="51.331402"><ele>-12.6</ele><time>2022-06-19T07:40:35.000Z</time></trkpt><trkpt lon="6.094174" lat="51.331405"><ele>-12.6</ele><time>2022-06-19T07:40:36.000Z</time></trkpt><trkpt lon="6.09425" lat="51.331402"><ele>-12.4</ele><time>2022-06-19T07:40:37.000Z</time></trkpt><trkpt lon="6.094307" lat="51.331402"><ele>-12.4</ele><time>2022-06-19T07:40:38.000Z</time></trkpt><trkpt lon="6.094365" lat="51.331402"><ele>-12.4</ele><time>2022-06-19T07:40:39.000Z</time></trkpt><trkpt lon="6.094421" lat="51.331406"><ele>-12.4</ele><time>2022-06-19T07:40:40.000Z</time></trkpt><trkpt lon="6.094473" lat="51.331409"><ele>-12.2</ele><time>2022-06-19T07:40:41.000Z</time></trkpt><trkpt lon="6.094529" lat="51.331409"><ele>-12.2</ele><time>2022-06-19T07:40:42.000Z</time></trkpt><trkpt lon="6.094585" lat="51.331409"><ele>-12.2</ele><time>2022-06-19T07:40:43.000Z</time></trkpt><trkpt lon="6.094642" lat="51.331406"><ele>-12.2</ele><time>2022-06-19T07:40:44.000Z</time></trkpt><trkpt lon="6.094705" lat="51.331402"><ele>-12</ele><time>2022-06-19T07:40:45.000Z</time></trkpt><trkpt lon="6.094752" lat="51.331402"><ele>-12</ele><time>2022-06-19T07:40:46.000Z</time></trkpt><trkpt lon="6.09481" lat="51.331376"><ele>-12</ele><time>2022-06-19T07:40:47.000Z</time></trkpt><trkpt lon="6.09485" lat="51.331364"><ele>-12</ele><time>2022-06-19T07:40:48.000Z</time></trkpt><trkpt lon="6.094893" lat="51.331349"><ele>-12</ele><time>2022-06-19T07:40:49.000Z</time></trkpt><trkpt lon="6.094927" lat="51.331337"><ele>-11.8</ele><time>2022-06-19T07:40:50.000Z</time></trkpt><trkpt lon="6.095094" lat="51.331315"><ele>-11.8</ele><time>2022-06-19T07:41:00.000Z</time></trkpt><trkpt lon="6.09514" lat="51.331307"><ele>-11.8</ele><time>2022-06-19T07:41:01.000Z</time></trkpt><trkpt lon="6.095187" lat="51.331303"><ele>-11.8</ele><time>2022-06-19T07:41:02.000Z</time></trkpt><trkpt lon="6.095231" lat="51.331299"><ele>-11.8</ele><time>2022-06-19T07:41:03.000Z</time></trkpt><trkpt lon="6.095281" lat="51.331295"><ele>-11.8</ele><time>2022-06-19T07:41:04.000Z</time></trkpt><trkpt lon="6.095335" lat="51.331288"><ele>-11.8</ele><time>2022-06-19T07:41:05.000Z</time></trkpt><trkpt lon="6.09539" lat="51.331284"><ele>-11.8</ele><time>2022-06-19T07:41:06.000Z</time></trkpt><trkpt lon="6.095457" lat="51.331276"><ele>-11.8</ele><time>2022-06-19T07:41:07.000Z</time></trkpt><trkpt lon="6.095528" lat="51.331265"><ele>-11.6</ele><time>2022-06-19T07:41:08.000Z</time></trkpt><trkpt lon="6.09561" lat="51.331257"><ele>-11.6</ele><time>2022-06-19T07:41:09.000Z</time></trkpt><trkpt lon="6.095693" lat="51.331242"><ele>-11.8</ele><time>2022-06-19T07:41:10.000Z</time></trkpt><trkpt lon="6.095776" lat="51.33123"><ele>-11.6</ele><time>2022-06-19T07:41:11.000Z</time></trkpt><trkpt lon="6.095853" lat="51.331219"><ele>-11.6</ele><time>2022-06-19T07:41:12.000Z</time></trkpt><trkpt lon="6.095925" lat="51.331211"><ele>-11.6</ele><time>2022-06-19T07:41:13.000Z</time></trkpt><trkpt lon="6.095987" lat="51.331204"><ele>-11.4</ele><time>2022-06-19T07:41:14.000Z</time></trkpt><trkpt lon="6.096044" lat="51.331196"><ele>-11.4</ele><time>2022-06-19T07:41:15.000Z</time></trkpt><trkpt lon="6.096081" lat="51.331189"><ele>-11.2</ele><time>2022-06-19T07:41:16.000Z</time></trkpt><trkpt lon="6.096114" lat="51.331184"><ele>-11.2</ele><time>2022-06-19T07:41:17.000Z</time></trkpt><trkpt lon="6.096144" lat="51.331181"><ele>-11</ele><time>2022-06-19T07:41:18.000Z</time></trkpt><trkpt lon="6.096174" lat="51.331177"><ele>-11</ele><time>2022-06-19T07:41:19.000Z</time></trkpt><trkpt lon="6.096204" lat="51.331166"><ele>-11</ele><time>2022-06-19T07:41:20.000Z</time></trkpt><trkpt lon="6.096231" lat="51.331158"><ele>-10.8</ele><time>2022-06-19T07:41:21.000Z</time></trkpt><trkpt lon="6.096249" lat="51.331155"><ele>-10.8</ele><time>2022-06-19T07:41:22.000Z</time></trkpt><trkpt lon="6.096269" lat="51.331154"><ele>-10.8</ele><time>2022-06-19T07:41:23.000Z</time></trkpt><trkpt lon="6.096284" lat="51.331158"><ele>-10.8</ele><time>2022-06-19T07:41:24.000Z</time></trkpt><trkpt lon="6.096296" lat="51.331158"><ele>-10.8</ele><time>2022-06-19T07:41:25.000Z</time></trkpt><trkpt lon="6.096297" lat="51.331158"><ele>-10.8</ele><time>2022-06-19T07:41:26.000Z</time></trkpt><trkpt lon="6.096297" lat="51.331158"><ele>-10.8</ele><time>2022-06-19T07:41:27.000Z</time></trkpt><trkpt lon="6.096297" lat="51.331158"><ele>-10.8</ele><time>2022-06-19T07:41:28.000Z</time></trkpt><trkpt lon="6.096351" lat="51.331241"><ele>-10.8</ele><time>2022-06-19T07:42:27.000Z</time></trkpt><trkpt lon="6.096369" lat="51.331266"><ele>-10.8</ele><time>2022-06-19T07:42:28.000Z</time></trkpt><trkpt lon="6.096388" lat="51.331305"><ele>-10.8</ele><time>2022-06-19T07:42:29.000Z</time></trkpt><trkpt lon="6.096405" lat="51.331336"><ele>-10.8</ele><time>2022-06-19T07:42:30.000Z</time></trkpt><trkpt lon="6.096439" lat="51.331389"><ele>-11</ele><time>2022-06-19T07:42:31.000Z</time></trkpt><trkpt lon="6.096472" lat="51.331438"><ele>-11.2</ele><time>2022-06-19T07:42:32.000Z</time></trkpt><trkpt lon="6.096501" lat="51.331488"><ele>-11.4</ele><time>2022-06-19T07:42:33.000Z</time></trkpt><trkpt lon="6.096521" lat="51.331541"><ele>-11.6</ele><time>2022-06-19T07:42:34.000Z</time></trkpt><trkpt lon="6.096551" lat="51.331591"><ele>-11.8</ele><time>2022-06-19T07:42:35.000Z</time></trkpt><trkpt lon="6.096579" lat="51.331644"><ele>-11.8</ele><time>2022-06-19T07:42:36.000Z</time></trkpt><trkpt lon="6.096612" lat="51.331694"><ele>-12</ele><time>2022-06-19T07:42:37.000Z</time></trkpt><trkpt lon="6.096652" lat="51.33174"><ele>-12</ele><time>2022-06-19T07:42:38.000Z</time></trkpt><trkpt lon="6.096703" lat="51.331778"><ele>-12</ele><time>2022-06-19T07:42:39.000Z</time></trkpt><trkpt lon="6.096765" lat="51.331805"><ele>-12</ele><time>2022-06-19T07:42:40.000Z</time></trkpt><trkpt lon="6.096841" lat="51.331814"><ele>-12.2</ele><time>2022-06-19T07:42:41.000Z</time></trkpt><trkpt lon="6.096951" lat="51.331806"><ele>-12.4</ele><time>2022-06-19T07:42:42.000Z</time></trkpt><trkpt lon="6.097056" lat="51.331792"><ele>-12.8</ele><time>2022-06-19T07:42:43.000Z</time></trkpt><trkpt lon="6.097185" lat="51.331784"><ele>-13.2</ele><time>2022-06-19T07:42:44.000Z</time></trkpt><trkpt lon="6.097321" lat="51.331761"><ele>-13.4</ele><time>2022-06-19T07:42:45.000Z</time></trkpt><trkpt lon="6.097463" lat="51.331738"><ele>-13.8</ele><time>2022-06-19T07:42:46.000Z</time></trkpt><trkpt lon="6.097591" lat="51.331717"><ele>-14</ele><time>2022-06-19T07:42:47.000Z</time></trkpt><trkpt lon="6.097751" lat="51.33169"><ele>-14.4</ele><time>2022-06-19T07:42:48.000Z</time></trkpt><trkpt lon="6.097918" lat="51.331659"><ele>-14.4</ele><time>2022-06-19T07:42:49.000Z</time></trkpt><trkpt lon="6.098084" lat="51.33162"><ele>-14.6</ele><time>2022-06-19T07:42:50.000Z</time></trkpt><trkpt lon="6.098248" lat="51.331589"><ele>-14.8</ele><time>2022-06-19T07:42:51.000Z</time></trkpt><trkpt lon="6.098397" lat="51.331574"><ele>-15</ele><time>2022-06-19T07:42:52.000Z</time></trkpt><trkpt lon="6.098548" lat="51.331551"><ele>-15.2</ele><time>2022-06-19T07:42:53.000Z</time></trkpt><trkpt lon="6.098709" lat="51.331525"><ele>-15.4</ele><time>2022-06-19T07:42:54.000Z</time></trkpt><trkpt lon="6.098887" lat="51.331502"><ele>-15.8</ele><time>2022-06-19T07:42:55.000Z</time></trkpt><trkpt lon="6.099045" lat="51.331468"><ele>-16.4</ele><time>2022-06-19T07:42:56.000Z</time></trkpt><trkpt lon="6.099191" lat="51.331433"><ele>-16.6</ele><time>2022-06-19T07:42:57.000Z</time></trkpt><trkpt lon="6.099341" lat="51.331403"><ele>-16.8</ele><time>2022-06-19T07:42:58.000Z</time></trkpt><trkpt lon="6.099502" lat="51.331368"><ele>-16.8</ele><time>2022-06-19T07:42:59.000Z</time></trkpt><trkpt lon="6.099661" lat="51.331335"><ele>-17</ele><time>2022-06-19T07:43:00.000Z</time></trkpt><trkpt lon="6.099822" lat="51.331301"><ele>-17.2</ele><time>2022-06-19T07:43:01.000Z</time></trkpt><trkpt lon="6.099995" lat="51.331254"><ele>-17.2</ele><time>2022-06-19T07:43:02.000Z</time></trkpt><trkpt lon="6.100162" lat="51.331204"><ele>-17.2</ele><time>2022-06-19T07:43:03.000Z</time></trkpt><trkpt lon="6.100298" lat="51.331163"><ele>-17.4</ele><time>2022-06-19T07:43:04.000Z</time></trkpt><trkpt lon="6.10041" lat="51.33113"><ele>-17.2</ele><time>2022-06-19T07:43:05.000Z</time></trkpt><trkpt lon="6.100558" lat="51.331077"><ele>-17.2</ele><time>2022-06-19T07:43:06.000Z</time></trkpt><trkpt lon="6.100716" lat="51.331022"><ele>-17.4</ele><time>2022-06-19T07:43:07.000Z</time></trkpt><trkpt lon="6.100855" lat="51.330983"><ele>-17.2</ele><time>2022-06-19T07:43:08.000Z</time></trkpt><trkpt lon="6.100981" lat="51.33096"><ele>-17.2</ele><time>2022-06-19T07:43:09.000Z</time></trkpt><trkpt lon="6.101103" lat="51.330945"><ele>-17</ele><time>2022-06-19T07:43:10.000Z</time></trkpt><trkpt lon="6.101222" lat="51.330948"><ele>-16.8</ele><time>2022-06-19T07:43:11.000Z</time></trkpt><trkpt lon="6.101337" lat="51.33097"><ele>-16.6</ele><time>2022-06-19T07:43:12.000Z</time></trkpt><trkpt lon="6.10145" lat="51.331008"><ele>-16.4</ele><time>2022-06-19T07:43:13.000Z</time></trkpt><trkpt lon="6.101553" lat="51.331053"><ele>-16.4</ele><time>2022-06-19T07:43:14.000Z</time></trkpt><trkpt lon="6.101643" lat="51.331117"><ele>-16.4</ele><time>2022-06-19T07:43:15.000Z</time></trkpt><trkpt lon="6.101725" lat="51.33118"><ele>-16.4</ele><time>2022-06-19T07:43:16.000Z</time></trkpt><trkpt lon="6.101827" lat="51.331273"><ele>-16.6</ele><time>2022-06-19T07:43:17.000Z</time></trkpt><trkpt lon="6.101915" lat="51.331365"><ele>-16.6</ele><time>2022-06-19T07:43:18.000Z</time></trkpt><trkpt lon="6.102" lat="51.331454"><ele>-16.6</ele><time>2022-06-19T07:43:19.000Z</time></trkpt><trkpt lon="6.10207" lat="51.331548"><ele>-16.6</ele><time>2022-06-19T07:43:20.000Z</time></trkpt><trkpt lon="6.102153" lat="51.331636"><ele>-16.6</ele><time>2022-06-19T07:43:21.000Z</time></trkpt><trkpt lon="6.102233" lat="51.33172"><ele>-16.6</ele><time>2022-06-19T07:43:22.000Z</time></trkpt><trkpt lon="6.102313" lat="51.331804"><ele>-16.6</ele><time>2022-06-19T07:43:23.000Z</time></trkpt><trkpt lon="6.102378" lat="51.331877"><ele>-16.6</ele><time>2022-06-19T07:43:24.000Z</time></trkpt><trkpt lon="6.102447" lat="51.331946"><ele>-16.4</ele><time>2022-06-19T07:43:25.000Z</time></trkpt><trkpt lon="6.102518" lat="51.332011"><ele>-16.2</ele><time>2022-06-19T07:43:26.000Z</time></trkpt><trkpt lon="6.102584" lat="51.33207"><ele>-16.2</ele><time>2022-06-19T07:43:27.000Z</time></trkpt><trkpt lon="6.102654" lat="51.332124"><ele>-16.2</ele><time>2022-06-19T07:43:28.000Z</time></trkpt><trkpt lon="6.102731" lat="51.332178"><ele>-16.2</ele><time>2022-06-19T07:43:29.000Z</time></trkpt><trkpt lon="6.102808" lat="51.33222"><ele>-16</ele><time>2022-06-19T07:43:30.000Z</time></trkpt><trkpt lon="6.102899" lat="51.332255"><ele>-16</ele><time>2022-06-19T07:43:31.000Z</time></trkpt><trkpt lon="6.102998" lat="51.332268"><ele>-16</ele><time>2022-06-19T07:43:32.000Z</time></trkpt><trkpt lon="6.103103" lat="51.332264"><ele>-15.8</ele><time>2022-06-19T07:43:33.000Z</time></trkpt><trkpt lon="6.103209" lat="51.332245"><ele>-15.8</ele><time>2022-06-19T07:43:34.000Z</time></trkpt><trkpt lon="6.103316" lat="51.332223"><ele>-15.8</ele><time>2022-06-19T07:43:35.000Z</time></trkpt><trkpt lon="6.103426" lat="51.332193"><ele>-15.8</ele><time>2022-06-19T07:43:36.000Z</time></trkpt><trkpt lon="6.103536" lat="51.332155"><ele>-15.8</ele><time>2022-06-19T07:43:37.000Z</time></trkpt><trkpt lon="6.103645" lat="51.332113"><ele>-16</ele><time>2022-06-19T07:43:38.000Z</time></trkpt><trkpt lon="6.103746" lat="51.332068"><ele>-16</ele><time>2022-06-19T07:43:39.000Z</time></trkpt><trkpt lon="6.103849" lat="51.332025"><ele>-16</ele><time>2022-06-19T07:43:40.000Z</time></trkpt><trkpt lon="6.103945" lat="51.331985"><ele>-16</ele><time>2022-06-19T07:43:41.000Z</time></trkpt><trkpt lon="6.104053" lat="51.331944"><ele>-16</ele><time>2022-06-19T07:43:42.000Z</time></trkpt><trkpt lon="6.104153" lat="51.331902"><ele>-16</ele><time>2022-06-19T07:43:43.000Z</time></trkpt><trkpt lon="6.104251" lat="51.331861"><ele>-16</ele><time>2022-06-19T07:43:44.000Z</time></trkpt><trkpt lon="6.104353" lat="51.331826"><ele>-16</ele><time>2022-06-19T07:43:45.000Z</time></trkpt><trkpt lon="6.104455" lat="51.331797"><ele>-16</ele><time>2022-06-19T07:43:46.000Z</time></trkpt><trkpt lon="6.104573" lat="51.33178"><ele>-16</ele><time>2022-06-19T07:43:47.000Z</time></trkpt><trkpt lon="6.104693" lat="51.331772"><ele>-16</ele><time>2022-06-19T07:43:48.000Z</time></trkpt><trkpt lon="6.104815" lat="51.331783"><ele>-16.2</ele><time>2022-06-19T07:43:49.000Z</time></trkpt><trkpt lon="6.104932" lat="51.331802"><ele>-16.2</ele><time>2022-06-19T07:43:50.000Z</time></trkpt><trkpt lon="6.105045" lat="51.331828"><ele>-16.2</ele><time>2022-06-19T07:43:51.000Z</time></trkpt><trkpt lon="6.105157" lat="51.331855"><ele>-16.4</ele><time>2022-06-19T07:43:52.000Z</time></trkpt><trkpt lon="6.105268" lat="51.331874"><ele>-16.4</ele><time>2022-06-19T07:43:53.000Z</time></trkpt><trkpt lon="6.105381" lat="51.331893"><ele>-16.4</ele><time>2022-06-19T07:43:54.000Z</time></trkpt><trkpt lon="6.1055" lat="51.331905"><ele>-16.4</ele><time>2022-06-19T07:43:55.000Z</time></trkpt><trkpt lon="6.105612" lat="51.331909"><ele>-16.4</ele><time>2022-06-19T07:43:56.000Z</time></trkpt><trkpt lon="6.105728" lat="51.331902"><ele>-16.4</ele><time>2022-06-19T07:43:57.000Z</time></trkpt><trkpt lon="6.105841" lat="51.33188"><ele>-16.6</ele><time>2022-06-19T07:43:58.000Z</time></trkpt><trkpt lon="6.105956" lat="51.331857"><ele>-16.6</ele><time>2022-06-19T07:43:59.000Z</time></trkpt><trkpt lon="6.106077" lat="51.33183"><ele>-16.4</ele><time>2022-06-19T07:44:00.000Z</time></trkpt><trkpt lon="6.106189" lat="51.331804"><ele>-16.4</ele><time>2022-06-19T07:44:01.000Z</time></trkpt><trkpt lon="6.106306" lat="51.331776"><ele>-16.4</ele><time>2022-06-19T07:44:02.000Z</time></trkpt><trkpt lon="6.106421" lat="51.331747"><ele>-16.4</ele><time>2022-06-19T07:44:03.000Z</time></trkpt><trkpt lon="6.106544" lat="51.331719"><ele>-16.4</ele><time>2022-06-19T07:44:04.000Z</time></trkpt><trkpt lon="6.106664" lat="51.331689"><ele>-16.2</ele><time>2022-06-19T07:44:05.000Z</time></trkpt><trkpt lon="6.106783" lat="51.331662"><ele>-16.2</ele><time>2022-06-19T07:44:06.000Z</time></trkpt><trkpt lon="6.106902" lat="51.331635"><ele>-16.2</ele><time>2022-06-19T07:44:07.000Z</time></trkpt><trkpt lon="6.107022" lat="51.331608"><ele>-16.2</ele><time>2022-06-19T07:44:08.000Z</time></trkpt><trkpt lon="6.107138" lat="51.331586"><ele>-16.2</ele><time>2022-06-19T07:44:09.000Z</time></trkpt><trkpt lon="6.107262" lat="51.331559"><ele>-16.2</ele><time>2022-06-19T07:44:10.000Z</time></trkpt><trkpt lon="6.107385" lat="51.33154"><ele>-16.4</ele><time>2022-06-19T07:44:11.000Z</time></trkpt><trkpt lon="6.107511" lat="51.331521"><ele>-16.4</ele><time>2022-06-19T07:44:12.000Z</time></trkpt><trkpt lon="6.107635" lat="51.331501"><ele>-16.6</ele><time>2022-06-19T07:44:13.000Z</time></trkpt><trkpt lon="6.107751" lat="51.331479"><ele>-16.6</ele><time>2022-06-19T07:44:14.000Z</time></trkpt><trkpt lon="6.107869" lat="51.331457"><ele>-16.6</ele><time>2022-06-19T07:44:15.000Z</time></trkpt><trkpt lon="6.107981" lat="51.331438"><ele>-16.8</ele><time>2022-06-19T07:44:16.000Z</time></trkpt><trkpt lon="6.108095" lat="51.331419"><ele>-16.8</ele><time>2022-06-19T07:44:17.000Z</time></trkpt><trkpt lon="6.108218" lat="51.331399"><ele>-16.8</ele><time>2022-06-19T07:44:18.000Z</time></trkpt><trkpt lon="6.108335" lat="51.331379"><ele>-16.8</ele><time>2022-06-19T07:44:19.000Z</time></trkpt><trkpt lon="6.10845" lat="51.331364"><ele>-16.8</ele><time>2022-06-19T07:44:20.000Z</time></trkpt><trkpt lon="6.108563" lat="51.331353"><ele>-16.8</ele><time>2022-06-19T07:44:21.000Z</time></trkpt><trkpt lon="6.108679" lat="51.331345"><ele>-16.8</ele><time>2022-06-19T07:44:22.000Z</time></trkpt><trkpt lon="6.108795" lat="51.331337"><ele>-16.8</ele><time>2022-06-19T07:44:23.000Z</time></trkpt><trkpt lon="6.108909" lat="51.331333"><ele>-17</ele><time>2022-06-19T07:44:24.000Z</time></trkpt><trkpt lon="6.109027" lat="51.331333"><ele>-17</ele><time>2022-06-19T07:44:25.000Z</time></trkpt><trkpt lon="6.109155" lat="51.331339"><ele>-17</ele><time>2022-06-19T07:44:26.000Z</time></trkpt><trkpt lon="6.109283" lat="51.331344"><ele>-17.2</ele><time>2022-06-19T07:44:27.000Z</time></trkpt><trkpt lon="6.109412" lat="51.33135"><ele>-17.2</ele><time>2022-06-19T07:44:28.000Z</time></trkpt><trkpt lon="6.109551" lat="51.331356"><ele>-17.2</ele><time>2022-06-19T07:44:29.000Z</time></trkpt><trkpt lon="6.109675" lat="51.331356"><ele>-17.2</ele><time>2022-06-19T07:44:30.000Z</time></trkpt><trkpt lon="6.109775" lat="51.331349"><ele>-17.2</ele><time>2022-06-19T07:44:31.000Z</time></trkpt><trkpt lon="6.109866" lat="51.331352"><ele>-17</ele><time>2022-06-19T07:44:32.000Z</time></trkpt><trkpt lon="6.109952" lat="51.331356"><ele>-17</ele><time>2022-06-19T07:44:33.000Z</time></trkpt><trkpt lon="6.110034" lat="51.331338"><ele>-17</ele><time>2022-06-19T07:44:34.000Z</time></trkpt><trkpt lon="6.110101" lat="51.331303"><ele>-17.2</ele><time>2022-06-19T07:44:35.000Z</time></trkpt><trkpt lon="6.110118" lat="51.331252"><ele>-17.2</ele><time>2022-06-19T07:44:36.000Z</time></trkpt><trkpt lon="6.110105" lat="51.331194"><ele>-17.2</ele><time>2022-06-19T07:44:37.000Z</time></trkpt><trkpt lon="6.110079" lat="51.331132"><ele>-17.4</ele><time>2022-06-19T07:44:38.000Z</time></trkpt><trkpt lon="6.110052" lat="51.331068"><ele>-17.4</ele><time>2022-06-19T07:44:39.000Z</time></trkpt><trkpt lon="6.110019" lat="51.331002"><ele>-17.4</ele><time>2022-06-19T07:44:40.000Z</time></trkpt><trkpt lon="6.109979" lat="51.330938"><ele>-17.6</ele><time>2022-06-19T07:44:41.000Z</time></trkpt><trkpt lon="6.109938" lat="51.330866"><ele>-17.6</ele><time>2022-06-19T07:44:42.000Z</time></trkpt><trkpt lon="6.1099" lat="51.330793"><ele>-17.8</ele><time>2022-06-19T07:44:43.000Z</time></trkpt><trkpt lon="6.109863" lat="51.330717"><ele>-17.4</ele><time>2022-06-19T07:44:44.000Z</time></trkpt><trkpt lon="6.10983" lat="51.330638"><ele>-17.2</ele><time>2022-06-19T07:44:45.000Z</time></trkpt><trkpt lon="6.109798" lat="51.330561"><ele>-16.8</ele><time>2022-06-19T07:44:46.000Z</time></trkpt><trkpt lon="6.109768" lat="51.330496"><ele>-16.6</ele><time>2022-06-19T07:44:47.000Z</time></trkpt><trkpt lon="6.10973" lat="51.330414"><ele>-16.4</ele><time>2022-06-19T07:44:48.000Z</time></trkpt><trkpt lon="6.109696" lat="51.330335"><ele>-16.4</ele><time>2022-06-19T07:44:49.000Z</time></trkpt><trkpt lon="6.109662" lat="51.330259"><ele>-16.2</ele><time>2022-06-19T07:44:50.000Z</time></trkpt><trkpt lon="6.109632" lat="51.330187"><ele>-16.4</ele><time>2022-06-19T07:44:51.000Z</time></trkpt><trkpt lon="6.109604" lat="51.33011"><ele>-16.4</ele><time>2022-06-19T07:44:52.000Z</time></trkpt><trkpt lon="6.109574" lat="51.330037"><ele>-16.6</ele><time>2022-06-19T07:44:53.000Z</time></trkpt><trkpt lon="6.109541" lat="51.329962"><ele>-16.8</ele><time>2022-06-19T07:44:54.000Z</time></trkpt><trkpt lon="6.109511" lat="51.32989"><ele>-16.8</ele><time>2022-06-19T07:44:55.000Z</time></trkpt><trkpt lon="6.109481" lat="51.329818"><ele>-16.8</ele><time>2022-06-19T07:44:56.000Z</time></trkpt><trkpt lon="6.10945" lat="51.329744"><ele>-16.8</ele><time>2022-06-19T07:44:57.000Z</time></trkpt><trkpt lon="6.10942" lat="51.329673"><ele>-17</ele><time>2022-06-19T07:44:58.000Z</time></trkpt><trkpt lon="6.109389" lat="51.329599"><ele>-17</ele><time>2022-06-19T07:44:59.000Z</time></trkpt><trkpt lon="6.109358" lat="51.329527"><ele>-16.8</ele><time>2022-06-19T07:45:00.000Z</time></trkpt><trkpt lon="6.109326" lat="51.329454"><ele>-16.8</ele><time>2022-06-19T07:45:01.000Z</time></trkpt><trkpt lon="6.109296" lat="51.329382"><ele>-16.8</ele><time>2022-06-19T07:45:02.000Z</time></trkpt><trkpt lon="6.109269" lat="51.329305"><ele>-16.8</ele><time>2022-06-19T07:45:03.000Z</time></trkpt><trkpt lon="6.109241" lat="51.329233"><ele>-16.8</ele><time>2022-06-19T07:45:04.000Z</time></trkpt><trkpt lon="6.109209" lat="51.329157"><ele>-16.8</ele><time>2022-06-19T07:45:05.000Z</time></trkpt><trkpt lon="6.109177" lat="51.329084"><ele>-16.8</ele><time>2022-06-19T07:45:06.000Z</time></trkpt><trkpt lon="6.109147" lat="51.329013"><ele>-16.8</ele><time>2022-06-19T07:45:07.000Z</time></trkpt><trkpt lon="6.109117" lat="51.328936"><ele>-16.8</ele><time>2022-06-19T07:45:08.000Z</time></trkpt><trkpt lon="6.109088" lat="51.328864"><ele>-16.8</ele><time>2022-06-19T07:45:09.000Z</time></trkpt><trkpt lon="6.109057" lat="51.32879"><ele>-16.6</ele><time>2022-06-19T07:45:10.000Z</time></trkpt><trkpt lon="6.109027" lat="51.328718"><ele>-16.6</ele><time>2022-06-19T07:45:11.000Z</time></trkpt><trkpt lon="6.108996" lat="51.328642"><ele>-16.4</ele><time>2022-06-19T07:45:12.000Z</time></trkpt><trkpt lon="6.108964" lat="51.328569"><ele>-16.4</ele><time>2022-06-19T07:45:13.000Z</time></trkpt><trkpt lon="6.108937" lat="51.328497"><ele>-16.4</ele><time>2022-06-19T07:45:14.000Z</time></trkpt><trkpt lon="6.108909" lat="51.328422"><ele>-16.4</ele><time>2022-06-19T07:45:15.000Z</time></trkpt><trkpt lon="6.108885" lat="51.328356"><ele>-16.4</ele><time>2022-06-19T07:45:16.000Z</time></trkpt><trkpt lon="6.108857" lat="51.328279"><ele>-16.4</ele><time>2022-06-19T07:45:17.000Z</time></trkpt><trkpt lon="6.108831" lat="51.328205"><ele>-16.4</ele><time>2022-06-19T07:45:18.000Z</time></trkpt><trkpt lon="6.108809" lat="51.328128"><ele>-16.2</ele><time>2022-06-19T07:45:19.000Z</time></trkpt><trkpt lon="6.108786" lat="51.328056"><ele>-16</ele><time>2022-06-19T07:45:20.000Z</time></trkpt><trkpt lon="6.10876" lat="51.327978"><ele>-16</ele><time>2022-06-19T07:45:21.000Z</time></trkpt><trkpt lon="6.108737" lat="51.327903"><ele>-16</ele><time>2022-06-19T07:45:22.000Z</time></trkpt><trkpt lon="6.108713" lat="51.327831"><ele>-16</ele><time>2022-06-19T07:45:23.000Z</time></trkpt><trkpt lon="6.108689" lat="51.327753"><ele>-16.2</ele><time>2022-06-19T07:45:24.000Z</time></trkpt><trkpt lon="6.108666" lat="51.327677"><ele>-16.2</ele><time>2022-06-19T07:45:25.000Z</time></trkpt><trkpt lon="6.108644" lat="51.3276"><ele>-16.2</ele><time>2022-06-19T07:45:26.000Z</time></trkpt><trkpt lon="6.108621" lat="51.327523"><ele>-16</ele><time>2022-06-19T07:45:27.000Z</time></trkpt><trkpt lon="6.108597" lat="51.327447"><ele>-16</ele><time>2022-06-19T07:45:28.000Z</time></trkpt><trkpt lon="6.108572" lat="51.327371"><ele>-15.8</ele><time>2022-06-19T07:45:29.000Z</time></trkpt><trkpt lon="6.108548" lat="51.327298"><ele>-15.8</ele><time>2022-06-19T07:45:30.000Z</time></trkpt><trkpt lon="6.108529" lat="51.327241"><ele>-15.6</ele><time>2022-06-19T07:45:31.000Z</time></trkpt><trkpt lon="6.108499" lat="51.327148"><ele>-15.6</ele><time>2022-06-19T07:45:32.000Z</time></trkpt><trkpt lon="6.108474" lat="51.327074"><ele>-15.6</ele><time>2022-06-19T07:45:33.000Z</time></trkpt><trkpt lon="6.10845" lat="51.327005"><ele>-15.4</ele><time>2022-06-19T07:45:34.000Z</time></trkpt><trkpt lon="6.108427" lat="51.326936"><ele>-15.4</ele><time>2022-06-19T07:45:35.000Z</time></trkpt><trkpt lon="6.108405" lat="51.326864"><ele>-15.4</ele><time>2022-06-19T07:45:36.000Z</time></trkpt><trkpt lon="6.108382" lat="51.326788"><ele>-15.4</ele><time>2022-06-19T07:45:37.000Z</time></trkpt><trkpt lon="6.108365" lat="51.326722"><ele>-15.4</ele><time>2022-06-19T07:45:38.000Z</time></trkpt><trkpt lon="6.108341" lat="51.326633"><ele>-15.4</ele><time>2022-06-19T07:45:39.000Z</time></trkpt><trkpt lon="6.108319" lat="51.326555"><ele>-15.2</ele><time>2022-06-19T07:45:40.000Z</time></trkpt><trkpt lon="6.108295" lat="51.326475"><ele>-15.2</ele><time>2022-06-19T07:45:41.000Z</time></trkpt><trkpt lon="6.108271" lat="51.326398"><ele>-15.2</ele><time>2022-06-19T07:45:42.000Z</time></trkpt><trkpt lon="6.108247" lat="51.326326"><ele>-15.2</ele><time>2022-06-19T07:45:43.000Z</time></trkpt><trkpt lon="6.108226" lat="51.32625"><ele>-15.2</ele><time>2022-06-19T07:45:44.000Z</time></trkpt><trkpt lon="6.108205" lat="51.326176"><ele>-15.2</ele><time>2022-06-19T07:45:45.000Z</time></trkpt><trkpt lon="6.108188" lat="51.326111"><ele>-15.2</ele><time>2022-06-19T07:45:46.000Z</time></trkpt><trkpt lon="6.108164" lat="51.32602"><ele>-15.2</ele><time>2022-06-19T07:45:47.000Z</time></trkpt><trkpt lon="6.10815" lat="51.325941"><ele>-15</ele><time>2022-06-19T07:45:48.000Z</time></trkpt><trkpt lon="6.108139" lat="51.325866"><ele>-15</ele><time>2022-06-19T07:45:49.000Z</time></trkpt><trkpt lon="6.108129" lat="51.325788"><ele>-15</ele><time>2022-06-19T07:45:50.000Z</time></trkpt><trkpt lon="6.10812" lat="51.325716"><ele>-15</ele><time>2022-06-19T07:45:51.000Z</time></trkpt><trkpt lon="6.108113" lat="51.32564"><ele>-15</ele><time>2022-06-19T07:45:52.000Z</time></trkpt><trkpt lon="6.108104" lat="51.325564"><ele>-15.2</ele><time>2022-06-19T07:45:53.000Z</time></trkpt><trkpt lon="6.108097" lat="51.325487"><ele>-15.2</ele><time>2022-06-19T07:45:54.000Z</time></trkpt><trkpt lon="6.108092" lat="51.325408"><ele>-15.4</ele><time>2022-06-19T07:45:55.000Z</time></trkpt><trkpt lon="6.108086" lat="51.325333"><ele>-15.4</ele><time>2022-06-19T07:45:56.000Z</time></trkpt><trkpt lon="6.10808" lat="51.325259"><ele>-15.4</ele><time>2022-06-19T07:45:57.000Z</time></trkpt><trkpt lon="6.108075" lat="51.325182"><ele>-15.4</ele><time>2022-06-19T07:45:58.000Z</time></trkpt><trkpt lon="6.108072" lat="51.325102"><ele>-15.6</ele><time>2022-06-19T07:45:59.000Z</time></trkpt><trkpt lon="6.108067" lat="51.325026"><ele>-15.6</ele><time>2022-06-19T07:46:00.000Z</time></trkpt><trkpt lon="6.108062" lat="51.324945"><ele>-15.4</ele><time>2022-06-19T07:46:01.000Z</time></trkpt><trkpt lon="6.108054" lat="51.324866"><ele>-15.4</ele><time>2022-06-19T07:46:02.000Z</time></trkpt><trkpt lon="6.108047" lat="51.324786"><ele>-15.4</ele><time>2022-06-19T07:46:03.000Z</time></trkpt><trkpt lon="6.108042" lat="51.32471"><ele>-15.4</ele><time>2022-06-19T07:46:04.000Z</time></trkpt><trkpt lon="6.108037" lat="51.324629"><ele>-15.4</ele><time>2022-06-19T07:46:05.000Z</time></trkpt><trkpt lon="6.10803" lat="51.324557"><ele>-15.4</ele><time>2022-06-19T07:46:06.000Z</time></trkpt><trkpt lon="6.108023" lat="51.324481"><ele>-15.4</ele><time>2022-06-19T07:46:07.000Z</time></trkpt><trkpt lon="6.108019" lat="51.324404"><ele>-15.4</ele><time>2022-06-19T07:46:08.000Z</time></trkpt><trkpt lon="6.108013" lat="51.324328"><ele>-15.4</ele><time>2022-06-19T07:46:09.000Z</time></trkpt><trkpt lon="6.108007" lat="51.324249"><ele>-15.4</ele><time>2022-06-19T07:46:10.000Z</time></trkpt><trkpt lon="6.108002" lat="51.324171"><ele>-15.2</ele><time>2022-06-19T07:46:11.000Z</time></trkpt><trkpt lon="6.107997" lat="51.324096"><ele>-15.2</ele><time>2022-06-19T07:46:12.000Z</time></trkpt><trkpt lon="6.10799" lat="51.324014"><ele>-15.2</ele><time>2022-06-19T07:46:13.000Z</time></trkpt><trkpt lon="6.107983" lat="51.323939"><ele>-15.4</ele><time>2022-06-19T07:46:14.000Z</time></trkpt><trkpt lon="6.107975" lat="51.323864"><ele>-15.4</ele><time>2022-06-19T07:46:15.000Z</time></trkpt><trkpt lon="6.107969" lat="51.323783"><ele>-15.4</ele><time>2022-06-19T07:46:16.000Z</time></trkpt><trkpt lon="6.107962" lat="51.323706"><ele>-15.4</ele><time>2022-06-19T07:46:17.000Z</time></trkpt><trkpt lon="6.107957" lat="51.323627"><ele>-15.6</ele><time>2022-06-19T07:46:18.000Z</time></trkpt><trkpt lon="6.107948" lat="51.323546"><ele>-15.6</ele><time>2022-06-19T07:46:19.000Z</time></trkpt><trkpt lon="6.107948" lat="51.323463"><ele>-15.6</ele><time>2022-06-19T07:46:20.000Z</time></trkpt><trkpt lon="6.107952" lat="51.323382"><ele>-15.4</ele><time>2022-06-19T07:46:21.000Z</time></trkpt><trkpt lon="6.107963" lat="51.323302"><ele>-15.4</ele><time>2022-06-19T07:46:22.000Z</time></trkpt><trkpt lon="6.107978" lat="51.323218"><ele>-15.4</ele><time>2022-06-19T07:46:23.000Z</time></trkpt><trkpt lon="6.107991" lat="51.323138"><ele>-15.2</ele><time>2022-06-19T07:46:24.000Z</time></trkpt><trkpt lon="6.107998" lat="51.323051"><ele>-15.2</ele><time>2022-06-19T07:46:25.000Z</time></trkpt><trkpt lon="6.108003" lat="51.322968"><ele>-15.2</ele><time>2022-06-19T07:46:26.000Z</time></trkpt><trkpt lon="6.108008" lat="51.322886"><ele>-15.2</ele><time>2022-06-19T07:46:27.000Z</time></trkpt><trkpt lon="6.108011" lat="51.322809"><ele>-15</ele><time>2022-06-19T07:46:28.000Z</time></trkpt><trkpt lon="6.10801" lat="51.322724"><ele>-15</ele><time>2022-06-19T07:46:29.000Z</time></trkpt><trkpt lon="6.108003" lat="51.322638"><ele>-15</ele><time>2022-06-19T07:46:30.000Z</time></trkpt><trkpt lon="6.107991" lat="51.32256"><ele>-15</ele><time>2022-06-19T07:46:31.000Z</time></trkpt><trkpt lon="6.107974" lat="51.322476"><ele>-15</ele><time>2022-06-19T07:46:32.000Z</time></trkpt><trkpt lon="6.107954" lat="51.322394"><ele>-15</ele><time>2022-06-19T07:46:33.000Z</time></trkpt><trkpt lon="6.107932" lat="51.322314"><ele>-14.8</ele><time>2022-06-19T07:46:34.000Z</time></trkpt><trkpt lon="6.107904" lat="51.322233"><ele>-14.8</ele><time>2022-06-19T07:46:35.000Z</time></trkpt><trkpt lon="6.107875" lat="51.322153"><ele>-14.8</ele><time>2022-06-19T07:46:36.000Z</time></trkpt><trkpt lon="6.10784" lat="51.322076"><ele>-15</ele><time>2022-06-19T07:46:37.000Z</time></trkpt><trkpt lon="6.107804" lat="51.321997"><ele>-15.2</ele><time>2022-06-19T07:46:38.000Z</time></trkpt><trkpt lon="6.107769" lat="51.32192"><ele>-15.2</ele><time>2022-06-19T07:46:39.000Z</time></trkpt><trkpt lon="6.107733" lat="51.32184"><ele>-15.4</ele><time>2022-06-19T07:46:40.000Z</time></trkpt><trkpt lon="6.107696" lat="51.321761"><ele>-15.2</ele><time>2022-06-19T07:46:41.000Z</time></trkpt><trkpt lon="6.107661" lat="51.32168"><ele>-15.4</ele><time>2022-06-19T07:46:42.000Z</time></trkpt><trkpt lon="6.107626" lat="51.321604"><ele>-15.4</ele><time>2022-06-19T07:46:43.000Z</time></trkpt><trkpt lon="6.107588" lat="51.321524"><ele>-15.4</ele><time>2022-06-19T07:46:44.000Z</time></trkpt><trkpt lon="6.107549" lat="51.321448"><ele>-15.4</ele><time>2022-06-19T07:46:45.000Z</time></trkpt><trkpt lon="6.107508" lat="51.321371"><ele>-15.6</ele><time>2022-06-19T07:46:46.000Z</time></trkpt><trkpt lon="6.107466" lat="51.321295"><ele>-15.6</ele><time>2022-06-19T07:46:47.000Z</time></trkpt><trkpt lon="6.10743" lat="51.321223"><ele>-15.4</ele><time>2022-06-19T07:46:48.000Z</time></trkpt><trkpt lon="6.107396" lat="51.321153"><ele>-15.2</ele><time>2022-06-19T07:46:49.000Z</time></trkpt><trkpt lon="6.107357" lat="51.321068"><ele>-14.8</ele><time>2022-06-19T07:46:50.000Z</time></trkpt><trkpt lon="6.107323" lat="51.32099"><ele>-14.6</ele><time>2022-06-19T07:46:51.000Z</time></trkpt><trkpt lon="6.107284" lat="51.320913"><ele>-14.6</ele><time>2022-06-19T07:46:52.000Z</time></trkpt><trkpt lon="6.10725" lat="51.320839"><ele>-14.4</ele><time>2022-06-19T07:46:53.000Z</time></trkpt><trkpt lon="6.107214" lat="51.320763"><ele>-14.4</ele><time>2022-06-19T07:46:54.000Z</time></trkpt><trkpt lon="6.10718" lat="51.320687"><ele>-14.4</ele><time>2022-06-19T07:46:55.000Z</time></trkpt><trkpt lon="6.107153" lat="51.320611"><ele>-14.4</ele><time>2022-06-19T07:46:56.000Z</time></trkpt><trkpt lon="6.107131" lat="51.320532"><ele>-14.6</ele><time>2022-06-19T07:46:57.000Z</time></trkpt><trkpt lon="6.107112" lat="51.320452"><ele>-14.6</ele><time>2022-06-19T07:46:58.000Z</time></trkpt><trkpt lon="6.107094" lat="51.320376"><ele>-14.6</ele><time>2022-06-19T07:46:59.000Z</time></trkpt><trkpt lon="6.107074" lat="51.320295"><ele>-14.6</ele><time>2022-06-19T07:47:00.000Z</time></trkpt><trkpt lon="6.107054" lat="51.320219"><ele>-14.6</ele><time>2022-06-19T07:47:01.000Z</time></trkpt><trkpt lon="6.107033" lat="51.320141"><ele>-14.6</ele><time>2022-06-19T07:47:02.000Z</time></trkpt><trkpt lon="6.107017" lat="51.320067"><ele>-14.6</ele><time>2022-06-19T07:47:03.000Z</time></trkpt><trkpt lon="6.106996" lat="51.319991"><ele>-14.6</ele><time>2022-06-19T07:47:04.000Z</time></trkpt><trkpt lon="6.106974" lat="51.319914"><ele>-14.4</ele><time>2022-06-19T07:47:05.000Z</time></trkpt><trkpt lon="6.106953" lat="51.319839"><ele>-14.8</ele><time>2022-06-19T07:47:06.000Z</time></trkpt><trkpt lon="6.106932" lat="51.319762"><ele>-14.8</ele><time>2022-06-19T07:47:07.000Z</time></trkpt><trkpt lon="6.106912" lat="51.319686"><ele>-14.8</ele><time>2022-06-19T07:47:08.000Z</time></trkpt><trkpt lon="6.106894" lat="51.319609"><ele>-15</ele><time>2022-06-19T07:47:09.000Z</time></trkpt><trkpt lon="6.106878" lat="51.31953"><ele>-15</ele><time>2022-06-19T07:47:10.000Z</time></trkpt><trkpt lon="6.106859" lat="51.319452"><ele>-15</ele><time>2022-06-19T07:47:11.000Z</time></trkpt><trkpt lon="6.106839" lat="51.319376"><ele>-15</ele><time>2022-06-19T07:47:12.000Z</time></trkpt><trkpt lon="6.106819" lat="51.319304"><ele>-14.8</ele><time>2022-06-19T07:47:13.000Z</time></trkpt><trkpt lon="6.106799" lat="51.319225"><ele>-14.8</ele><time>2022-06-19T07:47:14.000Z</time></trkpt><trkpt lon="6.106779" lat="51.319152"><ele>-14.8</ele><time>2022-06-19T07:47:15.000Z</time></trkpt><trkpt lon="6.106761" lat="51.319079"><ele>-15</ele><time>2022-06-19T07:47:16.000Z</time></trkpt><trkpt lon="6.106741" lat="51.318999"><ele>-14.8</ele><time>2022-06-19T07:47:17.000Z</time></trkpt><trkpt lon="6.106721" lat="51.318919"><ele>-14.8</ele><time>2022-06-19T07:47:18.000Z</time></trkpt><trkpt lon="6.106703" lat="51.318845"><ele>-14.8</ele><time>2022-06-19T07:47:19.000Z</time></trkpt><trkpt lon="6.106684" lat="51.318762"><ele>-14.8</ele><time>2022-06-19T07:47:20.000Z</time></trkpt><trkpt lon="6.106665" lat="51.31869"><ele>-14.8</ele><time>2022-06-19T07:47:21.000Z</time></trkpt><trkpt lon="6.106644" lat="51.318606"><ele>-14.8</ele><time>2022-06-19T07:47:22.000Z</time></trkpt><trkpt lon="6.106624" lat="51.318531"><ele>-14.8</ele><time>2022-06-19T07:47:23.000Z</time></trkpt><trkpt lon="6.106604" lat="51.318452"><ele>-14.8</ele><time>2022-06-19T07:47:24.000Z</time></trkpt><trkpt lon="6.106584" lat="51.318374"><ele>-15</ele><time>2022-06-19T07:47:25.000Z</time></trkpt><trkpt lon="6.106564" lat="51.318298"><ele>-15</ele><time>2022-06-19T07:47:26.000Z</time></trkpt><trkpt lon="6.106543" lat="51.318222"><ele>-15</ele><time>2022-06-19T07:47:27.000Z</time></trkpt><trkpt lon="6.106521" lat="51.318146"><ele>-15.2</ele><time>2022-06-19T07:47:28.000Z</time></trkpt><trkpt lon="6.106501" lat="51.318069"><ele>-15.2</ele><time>2022-06-19T07:47:29.000Z</time></trkpt><trkpt lon="6.106478" lat="51.317989"><ele>-15.2</ele><time>2022-06-19T07:47:30.000Z</time></trkpt><trkpt lon="6.106454" lat="51.317913"><ele>-15.2</ele><time>2022-06-19T07:47:31.000Z</time></trkpt><trkpt lon="6.106429" lat="51.317836"><ele>-15.2</ele><time>2022-06-19T07:47:32.000Z</time></trkpt><trkpt lon="6.1064" lat="51.31776"><ele>-15</ele><time>2022-06-19T07:47:33.000Z</time></trkpt><trkpt lon="6.106367" lat="51.317679"><ele>-15</ele><time>2022-06-19T07:47:34.000Z</time></trkpt><trkpt lon="6.106336" lat="51.317603"><ele>-14.8</ele><time>2022-06-19T07:47:35.000Z</time></trkpt><trkpt lon="6.106304" lat="51.317535"><ele>-14.8</ele><time>2022-06-19T07:47:36.000Z</time></trkpt><trkpt lon="6.106269" lat="51.317465"><ele>-14.8</ele><time>2022-06-19T07:47:37.000Z</time></trkpt><trkpt lon="6.106235" lat="51.317394"><ele>-14.8</ele><time>2022-06-19T07:47:38.000Z</time></trkpt><trkpt lon="6.1062" lat="51.317329"><ele>-14.8</ele><time>2022-06-19T07:47:39.000Z</time></trkpt><trkpt lon="6.106166" lat="51.31726"><ele>-14.8</ele><time>2022-06-19T07:47:40.000Z</time></trkpt><trkpt lon="6.10613" lat="51.317192"><ele>-14.8</ele><time>2022-06-19T07:47:41.000Z</time></trkpt><trkpt lon="6.106092" lat="51.317116"><ele>-15</ele><time>2022-06-19T07:47:42.000Z</time></trkpt><trkpt lon="6.106046" lat="51.317042"><ele>-15</ele><time>2022-06-19T07:47:43.000Z</time></trkpt><trkpt lon="6.106" lat="51.316966"><ele>-15</ele><time>2022-06-19T07:47:44.000Z</time></trkpt><trkpt lon="6.105952" lat="51.31689"><ele>-15</ele><time>2022-06-19T07:47:45.000Z</time></trkpt><trkpt lon="6.105901" lat="51.316816"><ele>-15</ele><time>2022-06-19T07:47:46.000Z</time></trkpt><trkpt lon="6.105846" lat="51.316743"><ele>-15</ele><time>2022-06-19T07:47:47.000Z</time></trkpt><trkpt lon="6.105793" lat="51.316676"><ele>-14.8</ele><time>2022-06-19T07:47:48.000Z</time></trkpt><trkpt lon="6.105732" lat="51.316603"><ele>-14.8</ele><time>2022-06-19T07:47:49.000Z</time></trkpt><trkpt lon="6.10567" lat="51.316534"><ele>-14.8</ele><time>2022-06-19T07:47:50.000Z</time></trkpt><trkpt lon="6.105606" lat="51.316465"><ele>-14.8</ele><time>2022-06-19T07:47:51.000Z</time></trkpt><trkpt lon="6.105546" lat="51.316396"><ele>-14.6</ele><time>2022-06-19T07:47:52.000Z</time></trkpt><trkpt lon="6.105488" lat="51.316328"><ele>-14.6</ele><time>2022-06-19T07:47:53.000Z</time></trkpt><trkpt lon="6.105431" lat="51.316263"><ele>-14.4</ele><time>2022-06-19T07:47:54.000Z</time></trkpt><trkpt lon="6.105375" lat="51.316198"><ele>-14.4</ele><time>2022-06-19T07:47:55.000Z</time></trkpt><trkpt lon="6.10531" lat="51.316137"><ele>-14.4</ele><time>2022-06-19T07:47:56.000Z</time></trkpt><trkpt lon="6.105245" lat="51.316073"><ele>-14.4</ele><time>2022-06-19T07:47:57.000Z</time></trkpt><trkpt lon="6.105178" lat="51.316015"><ele>-14.4</ele><time>2022-06-19T07:47:58.000Z</time></trkpt><trkpt lon="6.10511" lat="51.315954"><ele>-14.2</ele><time>2022-06-19T07:47:59.000Z</time></trkpt><trkpt lon="6.105044" lat="51.315897"><ele>-14.2</ele><time>2022-06-19T07:48:00.000Z</time></trkpt><trkpt lon="6.104971" lat="51.31584"><ele>-14</ele><time>2022-06-19T07:48:01.000Z</time></trkpt><trkpt lon="6.104897" lat="51.315782"><ele>-14</ele><time>2022-06-19T07:48:02.000Z</time></trkpt><trkpt lon="6.104822" lat="51.315725"><ele>-13.8</ele><time>2022-06-19T07:48:03.000Z</time></trkpt><trkpt lon="6.104748" lat="51.315665"><ele>-13.8</ele><time>2022-06-19T07:48:04.000Z</time></trkpt><trkpt lon="6.104677" lat="51.315607"><ele>-13.6</ele><time>2022-06-19T07:48:05.000Z</time></trkpt><trkpt lon="6.104611" lat="51.315554"><ele>-13.6</ele><time>2022-06-19T07:48:06.000Z</time></trkpt><trkpt lon="6.10453" lat="51.315492"><ele>-13.6</ele><time>2022-06-19T07:48:07.000Z</time></trkpt><trkpt lon="6.104457" lat="51.315436"><ele>-13.6</ele><time>2022-06-19T07:48:08.000Z</time></trkpt><trkpt lon="6.10438" lat="51.315375"><ele>-13.6</ele><time>2022-06-19T07:48:09.000Z</time></trkpt><trkpt lon="6.1043" lat="51.315317"><ele>-13.4</ele><time>2022-06-19T07:48:10.000Z</time></trkpt><trkpt lon="6.104225" lat="51.315264"><ele>-13.4</ele><time>2022-06-19T07:48:11.000Z</time></trkpt><trkpt lon="6.104151" lat="51.315208"><ele>-13.4</ele><time>2022-06-19T07:48:12.000Z</time></trkpt><trkpt lon="6.104073" lat="51.31515"><ele>-13.4</ele><time>2022-06-19T07:48:13.000Z</time></trkpt><trkpt lon="6.103997" lat="51.315092"><ele>-13.4</ele><time>2022-06-19T07:48:14.000Z</time></trkpt><trkpt lon="6.103922" lat="51.315039"><ele>-13.2</ele><time>2022-06-19T07:48:15.000Z</time></trkpt><trkpt lon="6.103846" lat="51.314986"><ele>-13.2</ele><time>2022-06-19T07:48:16.000Z</time></trkpt><trkpt lon="6.103768" lat="51.314928"><ele>-13</ele><time>2022-06-19T07:48:17.000Z</time></trkpt><trkpt lon="6.103693" lat="51.314875"><ele>-13.2</ele><time>2022-06-19T07:48:18.000Z</time></trkpt><trkpt lon="6.103616" lat="51.314817"><ele>-13.2</ele><time>2022-06-19T07:48:19.000Z</time></trkpt><trkpt lon="6.103541" lat="51.314764"><ele>-13.2</ele><time>2022-06-19T07:48:20.000Z</time></trkpt><trkpt lon="6.103467" lat="51.31471"><ele>-13.2</ele><time>2022-06-19T07:48:21.000Z</time></trkpt><trkpt lon="6.103393" lat="51.314654"><ele>-13</ele><time>2022-06-19T07:48:22.000Z</time></trkpt><trkpt lon="6.103316" lat="51.3146"><ele>-13</ele><time>2022-06-19T07:48:23.000Z</time></trkpt><trkpt lon="6.103243" lat="51.314547"><ele>-13</ele><time>2022-06-19T07:48:24.000Z</time></trkpt><trkpt lon="6.103168" lat="51.314489"><ele>-12.8</ele><time>2022-06-19T07:48:25.000Z</time></trkpt><trkpt lon="6.103091" lat="51.314436"><ele>-12.8</ele><time>2022-06-19T07:48:26.000Z</time></trkpt><trkpt lon="6.103014" lat="51.31438"><ele>-12.8</ele><time>2022-06-19T07:48:27.000Z</time></trkpt><trkpt lon="6.102938" lat="51.314327"><ele>-12.8</ele><time>2022-06-19T07:48:28.000Z</time></trkpt><trkpt lon="6.102864" lat="51.314271"><ele>-12.8</ele><time>2022-06-19T07:48:29.000Z</time></trkpt><trkpt lon="6.102807" lat="51.314229"><ele>-12.8</ele><time>2022-06-19T07:48:30.000Z</time></trkpt><trkpt lon="6.102725" lat="51.314166"><ele>-12.8</ele><time>2022-06-19T07:48:31.000Z</time></trkpt><trkpt lon="6.102653" lat="51.314112"><ele>-12.8</ele><time>2022-06-19T07:48:32.000Z</time></trkpt><trkpt lon="6.10258" lat="51.314062"><ele>-12.8</ele><time>2022-06-19T07:48:33.000Z</time></trkpt><trkpt lon="6.102506" lat="51.314009"><ele>-12.8</ele><time>2022-06-19T07:48:34.000Z</time></trkpt><trkpt lon="6.102432" lat="51.313955"><ele>-12.6</ele><time>2022-06-19T07:48:35.000Z</time></trkpt><trkpt lon="6.102361" lat="51.313902"><ele>-12.6</ele><time>2022-06-19T07:48:36.000Z</time></trkpt><trkpt lon="6.102291" lat="51.313848"><ele>-12.6</ele><time>2022-06-19T07:48:37.000Z</time></trkpt><trkpt lon="6.102221" lat="51.313796"><ele>-12.6</ele><time>2022-06-19T07:48:38.000Z</time></trkpt><trkpt lon="6.102147" lat="51.313737"><ele>-12.6</ele><time>2022-06-19T07:48:39.000Z</time></trkpt><trkpt lon="6.102079" lat="51.313682"><ele>-12.6</ele><time>2022-06-19T07:48:40.000Z</time></trkpt><trkpt lon="6.102008" lat="51.313623"><ele>-12.6</ele><time>2022-06-19T07:48:41.000Z</time></trkpt><trkpt lon="6.101941" lat="51.313568"><ele>-12.8</ele><time>2022-06-19T07:48:42.000Z</time></trkpt><trkpt lon="6.101867" lat="51.313509"><ele>-12.8</ele><time>2022-06-19T07:48:43.000Z</time></trkpt><trkpt lon="6.101801" lat="51.313453"><ele>-12.8</ele><time>2022-06-19T07:48:44.000Z</time></trkpt><trkpt lon="6.101733" lat="51.3134"><ele>-12.8</ele><time>2022-06-19T07:48:45.000Z</time></trkpt><trkpt lon="6.101671" lat="51.31335"><ele>-12.8</ele><time>2022-06-19T07:48:46.000Z</time></trkpt><trkpt lon="6.101597" lat="51.313289"><ele>-12.8</ele><time>2022-06-19T07:48:47.000Z</time></trkpt><trkpt lon="6.101528" lat="51.313228"><ele>-12.6</ele><time>2022-06-19T07:48:48.000Z</time></trkpt><trkpt lon="6.101458" lat="51.31317"><ele>-12.6</ele><time>2022-06-19T07:48:49.000Z</time></trkpt><trkpt lon="6.101391" lat="51.313109"><ele>-12.4</ele><time>2022-06-19T07:48:50.000Z</time></trkpt><trkpt lon="6.101324" lat="51.313048"><ele>-12.4</ele><time>2022-06-19T07:48:51.000Z</time></trkpt><trkpt lon="6.101259" lat="51.312988"><ele>-12.4</ele><time>2022-06-19T07:48:52.000Z</time></trkpt><trkpt lon="6.101192" lat="51.312925"><ele>-12.4</ele><time>2022-06-19T07:48:53.000Z</time></trkpt><trkpt lon="6.101129" lat="51.312873"><ele>-12.2</ele><time>2022-06-19T07:48:54.000Z</time></trkpt><trkpt lon="6.10106" lat="51.31281"><ele>-12</ele><time>2022-06-19T07:48:55.000Z</time></trkpt><trkpt lon="6.100998" lat="51.312755"><ele>-12</ele><time>2022-06-19T07:48:56.000Z</time></trkpt><trkpt lon="6.100931" lat="51.312693"><ele>-12</ele><time>2022-06-19T07:48:57.000Z</time></trkpt><trkpt lon="6.100866" lat="51.312637"><ele>-12</ele><time>2022-06-19T07:48:58.000Z</time></trkpt><trkpt lon="6.100796" lat="51.31257"><ele>-11.8</ele><time>2022-06-19T07:48:59.000Z</time></trkpt><trkpt lon="6.100732" lat="51.312514"><ele>-11.8</ele><time>2022-06-19T07:49:00.000Z</time></trkpt><trkpt lon="6.100664" lat="51.312456"><ele>-11.8</ele><time>2022-06-19T07:49:01.000Z</time></trkpt><trkpt lon="6.100603" lat="51.312397"><ele>-11.8</ele><time>2022-06-19T07:49:02.000Z</time></trkpt><trkpt lon="6.100539" lat="51.312342"><ele>-11.8</ele><time>2022-06-19T07:49:03.000Z</time></trkpt><trkpt lon="6.100477" lat="51.312286"><ele>-11.8</ele><time>2022-06-19T07:49:04.000Z</time></trkpt><trkpt lon="6.100414" lat="51.312224"><ele>-11.8</ele><time>2022-06-19T07:49:05.000Z</time></trkpt><trkpt lon="6.100356" lat="51.312172"><ele>-11.8</ele><time>2022-06-19T07:49:06.000Z</time></trkpt><trkpt lon="6.100295" lat="51.312116"><ele>-11.8</ele><time>2022-06-19T07:49:07.000Z</time></trkpt><trkpt lon="6.100237" lat="51.312057"><ele>-11.8</ele><time>2022-06-19T07:49:08.000Z</time></trkpt><trkpt lon="6.100176" lat="51.312002"><ele>-11.8</ele><time>2022-06-19T07:49:09.000Z</time></trkpt><trkpt lon="6.10012" lat="51.311946"><ele>-11.8</ele><time>2022-06-19T07:49:10.000Z</time></trkpt><trkpt lon="6.10006" lat="51.311891"><ele>-11.8</ele><time>2022-06-19T07:49:11.000Z</time></trkpt><trkpt lon="6.100007" lat="51.311837"><ele>-11.8</ele><time>2022-06-19T07:49:12.000Z</time></trkpt><trkpt lon="6.09995" lat="51.311777"><ele>-11.6</ele><time>2022-06-19T07:49:13.000Z</time></trkpt><trkpt lon="6.099899" lat="51.311725"><ele>-11.6</ele><time>2022-06-19T07:49:14.000Z</time></trkpt><trkpt lon="6.099845" lat="51.311667"><ele>-11.6</ele><time>2022-06-19T07:49:15.000Z</time></trkpt><trkpt lon="6.099798" lat="51.311611"><ele>-11.6</ele><time>2022-06-19T07:49:16.000Z</time></trkpt><trkpt lon="6.099751" lat="51.311557"><ele>-11.6</ele><time>2022-06-19T07:49:17.000Z</time></trkpt><trkpt lon="6.099709" lat="51.3115"><ele>-11.8</ele><time>2022-06-19T07:49:18.000Z</time></trkpt><trkpt lon="6.099667" lat="51.311452"><ele>-11.8</ele><time>2022-06-19T07:49:19.000Z</time></trkpt><trkpt lon="6.099618" lat="51.311401"><ele>-11.8</ele><time>2022-06-19T07:49:20.000Z</time></trkpt><trkpt lon="6.099575" lat="51.311353"><ele>-11.6</ele><time>2022-06-19T07:49:21.000Z</time></trkpt><trkpt lon="6.099534" lat="51.311308"><ele>-11.6</ele><time>2022-06-19T07:49:22.000Z</time></trkpt><trkpt lon="6.099489" lat="51.311261"><ele>-11.6</ele><time>2022-06-19T07:49:23.000Z</time></trkpt><trkpt lon="6.099447" lat="51.311215"><ele>-11.4</ele><time>2022-06-19T07:49:24.000Z</time></trkpt><trkpt lon="6.099399" lat="51.311162"><ele>-11.4</ele><time>2022-06-19T07:49:25.000Z</time></trkpt><trkpt lon="6.099359" lat="51.311116"><ele>-11.4</ele><time>2022-06-19T07:49:26.000Z</time></trkpt><trkpt lon="6.099312" lat="51.311061"><ele>-11.4</ele><time>2022-06-19T07:49:27.000Z</time></trkpt><trkpt lon="6.099267" lat="51.311007"><ele>-11.4</ele><time>2022-06-19T07:49:28.000Z</time></trkpt><trkpt lon="6.099217" lat="51.310949"><ele>-11.4</ele><time>2022-06-19T07:49:29.000Z</time></trkpt><trkpt lon="6.099167" lat="51.310894"><ele>-11.4</ele><time>2022-06-19T07:49:30.000Z</time></trkpt><trkpt lon="6.099113" lat="51.310831"><ele>-11.4</ele><time>2022-06-19T07:49:31.000Z</time></trkpt><trkpt lon="6.099066" lat="51.310772"><ele>-11.6</ele><time>2022-06-19T07:49:32.000Z</time></trkpt><trkpt lon="6.099015" lat="51.310709"><ele>-11.6</ele><time>2022-06-19T07:49:33.000Z</time></trkpt><trkpt lon="6.098965" lat="51.31065"><ele>-11.6</ele><time>2022-06-19T07:49:34.000Z</time></trkpt><trkpt lon="6.098914" lat="51.310584"><ele>-11.6</ele><time>2022-06-19T07:49:35.000Z</time></trkpt><trkpt lon="6.098862" lat="51.310524"><ele>-11.6</ele><time>2022-06-19T07:49:36.000Z</time></trkpt><trkpt lon="6.098804" lat="51.310454"><ele>-11.6</ele><time>2022-06-19T07:49:37.000Z</time></trkpt><trkpt lon="6.098741" lat="51.310391"><ele>-11.6</ele><time>2022-06-19T07:49:38.000Z</time></trkpt><trkpt lon="6.098671" lat="51.310325"><ele>-11.6</ele><time>2022-06-19T07:49:39.000Z</time></trkpt><trkpt lon="6.098604" lat="51.310264"><ele>-11.6</ele><time>2022-06-19T07:49:40.000Z</time></trkpt><trkpt lon="6.098531" lat="51.310198"><ele>-11.6</ele><time>2022-06-19T07:49:41.000Z</time></trkpt><trkpt lon="6.098459" lat="51.31014"><ele>-11.6</ele><time>2022-06-19T07:49:42.000Z</time></trkpt><trkpt lon="6.098383" lat="51.310079"><ele>-11.6</ele><time>2022-06-19T07:49:43.000Z</time></trkpt><trkpt lon="6.098317" lat="51.310022"><ele>-11.6</ele><time>2022-06-19T07:49:44.000Z</time></trkpt><trkpt lon="6.098241" lat="51.309961"><ele>-11.8</ele><time>2022-06-19T07:49:45.000Z</time></trkpt><trkpt lon="6.098173" lat="51.309903"><ele>-12</ele><time>2022-06-19T07:49:46.000Z</time></trkpt><trkpt lon="6.098097" lat="51.30984"><ele>-12</ele><time>2022-06-19T07:49:47.000Z</time></trkpt><trkpt lon="6.098021" lat="51.309777"><ele>-12.2</ele><time>2022-06-19T07:49:48.000Z</time></trkpt><trkpt lon="6.097938" lat="51.309714"><ele>-12.2</ele><time>2022-06-19T07:49:49.000Z</time></trkpt><trkpt lon="6.097864" lat="51.309651"><ele>-12.2</ele><time>2022-06-19T07:49:50.000Z</time></trkpt><trkpt lon="6.097788" lat="51.309588"><ele>-12.2</ele><time>2022-06-19T07:49:51.000Z</time></trkpt><trkpt lon="6.097717" lat="51.309529"><ele>-12.2</ele><time>2022-06-19T07:49:52.000Z</time></trkpt><trkpt lon="6.097644" lat="51.309466"><ele>-12.2</ele><time>2022-06-19T07:49:53.000Z</time></trkpt><trkpt lon="6.097578" lat="51.309403"><ele>-12.2</ele><time>2022-06-19T07:49:54.000Z</time></trkpt><trkpt lon="6.097511" lat="51.30934"><ele>-12.2</ele><time>2022-06-19T07:49:55.000Z</time></trkpt><trkpt lon="6.097448" lat="51.309278"><ele>-12.2</ele><time>2022-06-19T07:49:56.000Z</time></trkpt><trkpt lon="6.09738" lat="51.309211"><ele>-12</ele><time>2022-06-19T07:49:57.000Z</time></trkpt><trkpt lon="6.097319" lat="51.309148"><ele>-12</ele><time>2022-06-19T07:49:58.000Z</time></trkpt><trkpt lon="6.097257" lat="51.30908"><ele>-11.8</ele><time>2022-06-19T07:49:59.000Z</time></trkpt><trkpt lon="6.097199" lat="51.309018"><ele>-11.8</ele><time>2022-06-19T07:50:00.000Z</time></trkpt><trkpt lon="6.097138" lat="51.308951"><ele>-11.8</ele><time>2022-06-19T07:50:01.000Z</time></trkpt><trkpt lon="6.097075" lat="51.308892"><ele>-11.8</ele><time>2022-06-19T07:50:02.000Z</time></trkpt><trkpt lon="6.097011" lat="51.308825"><ele>-11.8</ele><time>2022-06-19T07:50:03.000Z</time></trkpt><trkpt lon="6.096945" lat="51.308762"><ele>-11.8</ele><time>2022-06-19T07:50:04.000Z</time></trkpt><trkpt lon="6.09688" lat="51.308698"><ele>-11.8</ele><time>2022-06-19T07:50:05.000Z</time></trkpt><trkpt lon="6.096814" lat="51.308637"><ele>-12</ele><time>2022-06-19T07:50:06.000Z</time></trkpt><trkpt lon="6.096743" lat="51.308574"><ele>-12.2</ele><time>2022-06-19T07:50:07.000Z</time></trkpt><trkpt lon="6.096672" lat="51.308511"><ele>-12.2</ele><time>2022-06-19T07:50:08.000Z</time></trkpt><trkpt lon="6.096602" lat="51.308447"><ele>-12</ele><time>2022-06-19T07:50:09.000Z</time></trkpt><trkpt lon="6.096531" lat="51.308385"><ele>-11.8</ele><time>2022-06-19T07:50:10.000Z</time></trkpt><trkpt lon="6.096461" lat="51.308321"><ele>-11.8</ele><time>2022-06-19T07:50:11.000Z</time></trkpt><trkpt lon="6.096391" lat="51.308261"><ele>-11.8</ele><time>2022-06-19T07:50:12.000Z</time></trkpt><trkpt lon="6.096319" lat="51.308199"><ele>-11.8</ele><time>2022-06-19T07:50:13.000Z</time></trkpt><trkpt lon="6.096246" lat="51.308138"><ele>-12</ele><time>2022-06-19T07:50:14.000Z</time></trkpt><trkpt lon="6.096179" lat="51.308081"><ele>-12.2</ele><time>2022-06-19T07:50:15.000Z</time></trkpt><trkpt lon="6.096121" lat="51.308028"><ele>-12.4</ele><time>2022-06-19T07:50:16.000Z</time></trkpt><trkpt lon="6.096045" lat="51.307962"><ele>-12.4</ele><time>2022-06-19T07:50:17.000Z</time></trkpt><trkpt lon="6.095959" lat="51.30789"><ele>-12.6</ele><time>2022-06-19T07:50:18.000Z</time></trkpt><trkpt lon="6.095888" lat="51.307826"><ele>-12.6</ele><time>2022-06-19T07:50:19.000Z</time></trkpt><trkpt lon="6.095815" lat="51.30776"><ele>-12.6</ele><time>2022-06-19T07:50:20.000Z</time></trkpt><trkpt lon="6.095745" lat="51.307695"><ele>-12.8</ele><time>2022-06-19T07:50:21.000Z</time></trkpt><trkpt lon="6.095676" lat="51.307634"><ele>-12.8</ele><time>2022-06-19T07:50:22.000Z</time></trkpt><trkpt lon="6.095607" lat="51.30757"><ele>-12.8</ele><time>2022-06-19T07:50:23.000Z</time></trkpt><trkpt lon="6.09554" lat="51.307505"><ele>-12.8</ele><time>2022-06-19T07:50:24.000Z</time></trkpt><trkpt lon="6.095478" lat="51.30744"><ele>-12.8</ele><time>2022-06-19T07:50:25.000Z</time></trkpt><trkpt lon="6.095417" lat="51.307371"><ele>-12.8</ele><time>2022-06-19T07:50:26.000Z</time></trkpt><trkpt lon="6.095358" lat="51.307307"><ele>-13</ele><time>2022-06-19T07:50:27.000Z</time></trkpt><trkpt lon="6.095296" lat="51.307237"><ele>-13</ele><time>2022-06-19T07:50:28.000Z</time></trkpt><trkpt lon="6.095238" lat="51.307169"><ele>-13</ele><time>2022-06-19T07:50:29.000Z</time></trkpt><trkpt lon="6.095178" lat="51.307104"><ele>-13.2</ele><time>2022-06-19T07:50:30.000Z</time></trkpt><trkpt lon="6.095115" lat="51.307035"><ele>-13.4</ele><time>2022-06-19T07:50:31.000Z</time></trkpt><trkpt lon="6.095055" lat="51.306968"><ele>-13.6</ele><time>2022-06-19T07:50:32.000Z</time></trkpt><trkpt lon="6.094992" lat="51.306902"><ele>-13.8</ele><time>2022-06-19T07:50:33.000Z</time></trkpt><trkpt lon="6.094931" lat="51.306833"><ele>-13.8</ele><time>2022-06-19T07:50:34.000Z</time></trkpt><trkpt lon="6.094868" lat="51.306766"><ele>-13.8</ele><time>2022-06-19T07:50:35.000Z</time></trkpt><trkpt lon="6.094802" lat="51.3067"><ele>-13.8</ele><time>2022-06-19T07:50:36.000Z</time></trkpt><trkpt lon="6.094728" lat="51.306638"><ele>-13.8</ele><time>2022-06-19T07:50:37.000Z</time></trkpt><trkpt lon="6.094645" lat="51.306577"><ele>-14</ele><time>2022-06-19T07:50:38.000Z</time></trkpt><trkpt lon="6.094556" lat="51.306524"><ele>-14</ele><time>2022-06-19T07:50:39.000Z</time></trkpt><trkpt lon="6.09446" lat="51.306477"><ele>-14</ele><time>2022-06-19T07:50:40.000Z</time></trkpt><trkpt lon="6.094363" lat="51.306432"><ele>-14</ele><time>2022-06-19T07:50:41.000Z</time></trkpt><trkpt lon="6.094266" lat="51.30639"><ele>-14</ele><time>2022-06-19T07:50:42.000Z</time></trkpt><trkpt lon="6.094167" lat="51.306348"><ele>-14</ele><time>2022-06-19T07:50:43.000Z</time></trkpt><trkpt lon="6.09407" lat="51.306311"><ele>-14</ele><time>2022-06-19T07:50:44.000Z</time></trkpt><trkpt lon="6.093974" lat="51.306275"><ele>-14</ele><time>2022-06-19T07:50:45.000Z</time></trkpt><trkpt lon="6.093871" lat="51.306236"><ele>-14</ele><time>2022-06-19T07:50:46.000Z</time></trkpt><trkpt lon="6.093767" lat="51.306197"><ele>-14</ele><time>2022-06-19T07:50:47.000Z</time></trkpt><trkpt lon="6.093663" lat="51.306154"><ele>-14.2</ele><time>2022-06-19T07:50:48.000Z</time></trkpt><trkpt lon="6.093568" lat="51.306108"><ele>-14.2</ele><time>2022-06-19T07:50:49.000Z</time></trkpt><trkpt lon="6.093476" lat="51.306062"><ele>-14.2</ele><time>2022-06-19T07:50:50.000Z</time></trkpt><trkpt lon="6.093384" lat="51.306012"><ele>-14</ele><time>2022-06-19T07:50:51.000Z</time></trkpt><trkpt lon="6.093299" lat="51.305956"><ele>-14</ele><time>2022-06-19T07:50:52.000Z</time></trkpt><trkpt lon="6.093217" lat="51.305898"><ele>-14</ele><time>2022-06-19T07:50:53.000Z</time></trkpt><trkpt lon="6.09314" lat="51.305837"><ele>-14</ele><time>2022-06-19T07:50:54.000Z</time></trkpt><trkpt lon="6.093066" lat="51.305772"><ele>-14</ele><time>2022-06-19T07:50:55.000Z</time></trkpt><trkpt lon="6.092995" lat="51.305711"><ele>-14</ele><time>2022-06-19T07:50:56.000Z</time></trkpt><trkpt lon="6.092926" lat="51.305642"><ele>-14</ele><time>2022-06-19T07:50:57.000Z</time></trkpt><trkpt lon="6.09286" lat="51.305578"><ele>-14</ele><time>2022-06-19T07:50:58.000Z</time></trkpt><trkpt lon="6.092793" lat="51.305509"><ele>-14</ele><time>2022-06-19T07:50:59.000Z</time></trkpt><trkpt lon="6.092729" lat="51.305445"><ele>-14</ele><time>2022-06-19T07:51:00.000Z</time></trkpt><trkpt lon="6.092668" lat="51.305381"><ele>-13.8</ele><time>2022-06-19T07:51:01.000Z</time></trkpt><trkpt lon="6.092605" lat="51.305311"><ele>-14</ele><time>2022-06-19T07:51:02.000Z</time></trkpt><trkpt lon="6.092538" lat="51.305246"><ele>-14</ele><time>2022-06-19T07:51:03.000Z</time></trkpt><trkpt lon="6.092472" lat="51.305177"><ele>-14.2</ele><time>2022-06-19T07:51:04.000Z</time></trkpt><trkpt lon="6.092403" lat="51.305116"><ele>-14.2</ele><time>2022-06-19T07:51:05.000Z</time></trkpt><trkpt lon="6.092332" lat="51.305051"><ele>-14.2</ele><time>2022-06-19T07:51:06.000Z</time></trkpt><trkpt lon="6.092257" lat="51.30499"><ele>-14.2</ele><time>2022-06-19T07:51:07.000Z</time></trkpt><trkpt lon="6.092179" lat="51.304933"><ele>-14.2</ele><time>2022-06-19T07:51:08.000Z</time></trkpt><trkpt lon="6.092102" lat="51.304872"><ele>-14.4</ele><time>2022-06-19T07:51:09.000Z</time></trkpt><trkpt lon="6.092021" lat="51.304811"><ele>-14.6</ele><time>2022-06-19T07:51:10.000Z</time></trkpt><trkpt lon="6.091942" lat="51.304751"><ele>-14.6</ele><time>2022-06-19T07:51:11.000Z</time></trkpt><trkpt lon="6.09186" lat="51.304693"><ele>-14.6</ele><time>2022-06-19T07:51:12.000Z</time></trkpt><trkpt lon="6.091775" lat="51.304632"><ele>-14.4</ele><time>2022-06-19T07:51:13.000Z</time></trkpt><trkpt lon="6.091693" lat="51.304579"><ele>-14.2</ele><time>2022-06-19T07:51:14.000Z</time></trkpt><trkpt lon="6.091614" lat="51.304523"><ele>-14.2</ele><time>2022-06-19T07:51:15.000Z</time></trkpt><trkpt lon="6.091528" lat="51.304468"><ele>-14.2</ele><time>2022-06-19T07:51:16.000Z</time></trkpt><trkpt lon="6.091445" lat="51.30441"><ele>-14</ele><time>2022-06-19T07:51:17.000Z</time></trkpt><trkpt lon="6.091363" lat="51.304357"><ele>-14</ele><time>2022-06-19T07:51:18.000Z</time></trkpt><trkpt lon="6.091282" lat="51.3043"><ele>-14</ele><time>2022-06-19T07:51:19.000Z</time></trkpt><trkpt lon="6.091201" lat="51.304246"><ele>-13.8</ele><time>2022-06-19T07:51:20.000Z</time></trkpt><trkpt lon="6.091117" lat="51.304193"><ele>-13.8</ele><time>2022-06-19T07:51:21.000Z</time></trkpt><trkpt lon="6.091036" lat="51.30414"><ele>-13.8</ele><time>2022-06-19T07:51:22.000Z</time></trkpt><trkpt lon="6.090952" lat="51.30409"><ele>-13.8</ele><time>2022-06-19T07:51:23.000Z</time></trkpt><trkpt lon="6.090869" lat="51.304037"><ele>-13.8</ele><time>2022-06-19T07:51:24.000Z</time></trkpt><trkpt lon="6.090782" lat="51.303991"><ele>-13.8</ele><time>2022-06-19T07:51:25.000Z</time></trkpt><trkpt lon="6.090693" lat="51.303941"><ele>-13.8</ele><time>2022-06-19T07:51:26.000Z</time></trkpt><trkpt lon="6.090603" lat="51.303892"><ele>-13.8</ele><time>2022-06-19T07:51:27.000Z</time></trkpt><trkpt lon="6.090511" lat="51.303845"><ele>-13.8</ele><time>2022-06-19T07:51:28.000Z</time></trkpt><trkpt lon="6.090419" lat="51.3038"><ele>-14</ele><time>2022-06-19T07:51:29.000Z</time></trkpt><trkpt lon="6.09033" lat="51.30376"><ele>-14</ele><time>2022-06-19T07:51:30.000Z</time></trkpt><trkpt lon="6.090232" lat="51.303709"><ele>-14.2</ele><time>2022-06-19T07:51:31.000Z</time></trkpt><trkpt lon="6.090135" lat="51.303666"><ele>-14.2</ele><time>2022-06-19T07:51:32.000Z</time></trkpt><trkpt lon="6.090043" lat="51.303621"><ele>-14</ele><time>2022-06-19T07:51:33.000Z</time></trkpt><trkpt lon="6.089946" lat="51.303571"><ele>-14</ele><time>2022-06-19T07:51:34.000Z</time></trkpt><trkpt lon="6.089854" lat="51.303529"><ele>-14</ele><time>2022-06-19T07:51:35.000Z</time></trkpt><trkpt lon="6.089762" lat="51.303483"><ele>-14</ele><time>2022-06-19T07:51:36.000Z</time></trkpt><trkpt lon="6.089669" lat="51.303437"><ele>-14</ele><time>2022-06-19T07:51:37.000Z</time></trkpt><trkpt lon="6.089577" lat="51.303396"><ele>-14</ele><time>2022-06-19T07:51:38.000Z</time></trkpt><trkpt lon="6.089486" lat="51.303351"><ele>-13.8</ele><time>2022-06-19T07:51:39.000Z</time></trkpt><trkpt lon="6.089394" lat="51.303304"><ele>-13.8</ele><time>2022-06-19T07:51:40.000Z</time></trkpt><trkpt lon="6.089304" lat="51.303259"><ele>-14</ele><time>2022-06-19T07:51:41.000Z</time></trkpt><trkpt lon="6.089209" lat="51.303212"><ele>-14</ele><time>2022-06-19T07:51:42.000Z</time></trkpt><trkpt lon="6.089117" lat="51.303171"><ele>-13.8</ele><time>2022-06-19T07:51:43.000Z</time></trkpt><trkpt lon="6.089023" lat="51.303125"><ele>-13.8</ele><time>2022-06-19T07:51:44.000Z</time></trkpt><trkpt lon="6.088944" lat="51.303088"><ele>-13.6</ele><time>2022-06-19T07:51:45.000Z</time></trkpt><trkpt lon="6.088851" lat="51.303043"><ele>-13.6</ele><time>2022-06-19T07:51:46.000Z</time></trkpt><trkpt lon="6.088755" lat="51.302996"><ele>-13.6</ele><time>2022-06-19T07:51:47.000Z</time></trkpt><trkpt lon="6.088666" lat="51.302953"><ele>-13.4</ele><time>2022-06-19T07:51:48.000Z</time></trkpt><trkpt lon="6.088576" lat="51.302911"><ele>-13.4</ele><time>2022-06-19T07:51:49.000Z</time></trkpt><trkpt lon="6.088494" lat="51.302872"><ele>-13.4</ele><time>2022-06-19T07:51:50.000Z</time></trkpt><trkpt lon="6.088398" lat="51.302827"><ele>-13.4</ele><time>2022-06-19T07:51:51.000Z</time></trkpt><trkpt lon="6.088312" lat="51.302786"><ele>-13.2</ele><time>2022-06-19T07:51:52.000Z</time></trkpt><trkpt lon="6.088226" lat="51.302743"><ele>-13.2</ele><time>2022-06-19T07:51:53.000Z</time></trkpt><trkpt lon="6.088141" lat="51.302698"><ele>-13.2</ele><time>2022-06-19T07:51:54.000Z</time></trkpt><trkpt lon="6.088061" lat="51.302648"><ele>-13.2</ele><time>2022-06-19T07:51:55.000Z</time></trkpt><trkpt lon="6.087986" lat="51.302602"><ele>-13.2</ele><time>2022-06-19T07:51:56.000Z</time></trkpt><trkpt lon="6.087912" lat="51.302549"><ele>-13.2</ele><time>2022-06-19T07:51:57.000Z</time></trkpt><trkpt lon="6.08784" lat="51.302499"><ele>-13.2</ele><time>2022-06-19T07:51:58.000Z</time></trkpt><trkpt lon="6.087769" lat="51.302446"><ele>-13.2</ele><time>2022-06-19T07:51:59.000Z</time></trkpt><trkpt lon="6.087699" lat="51.302397"><ele>-13.4</ele><time>2022-06-19T07:52:00.000Z</time></trkpt><trkpt lon="6.087629" lat="51.302344"><ele>-13.4</ele><time>2022-06-19T07:52:01.000Z</time></trkpt><trkpt lon="6.087558" lat="51.302287"><ele>-13.6</ele><time>2022-06-19T07:52:02.000Z</time></trkpt><trkpt lon="6.087486" lat="51.302229"><ele>-13.6</ele><time>2022-06-19T07:52:03.000Z</time></trkpt><trkpt lon="6.087414" lat="51.302169"><ele>-13.8</ele><time>2022-06-19T07:52:04.000Z</time></trkpt><trkpt lon="6.087334" lat="51.302107"><ele>-14</ele><time>2022-06-19T07:52:05.000Z</time></trkpt><trkpt lon="6.087254" lat="51.302053"><ele>-14</ele><time>2022-06-19T07:52:06.000Z</time></trkpt><trkpt lon="6.087173" lat="51.301998"><ele>-14.2</ele><time>2022-06-19T07:52:07.000Z</time></trkpt><trkpt lon="6.087087" lat="51.301939"><ele>-14.2</ele><time>2022-06-19T07:52:08.000Z</time></trkpt><trkpt lon="6.087003" lat="51.301886"><ele>-14</ele><time>2022-06-19T07:52:09.000Z</time></trkpt><trkpt lon="6.086916" lat="51.301832"><ele>-13.8</ele><time>2022-06-19T07:52:10.000Z</time></trkpt><trkpt lon="6.086829" lat="51.301778"><ele>-13.8</ele><time>2022-06-19T07:52:11.000Z</time></trkpt><trkpt lon="6.086743" lat="51.301729"><ele>-13.6</ele><time>2022-06-19T07:52:12.000Z</time></trkpt><trkpt lon="6.086658" lat="51.301676"><ele>-13.6</ele><time>2022-06-19T07:52:13.000Z</time></trkpt><trkpt lon="6.086571" lat="51.301626"><ele>-13.6</ele><time>2022-06-19T07:52:14.000Z</time></trkpt><trkpt lon="6.086491" lat="51.301581"><ele>-13.6</ele><time>2022-06-19T07:52:15.000Z</time></trkpt><trkpt lon="6.086396" lat="51.301527"><ele>-13.4</ele><time>2022-06-19T07:52:16.000Z</time></trkpt><trkpt lon="6.086308" lat="51.301473"><ele>-13.4</ele><time>2022-06-19T07:52:17.000Z</time></trkpt><trkpt lon="6.086217" lat="51.301423"><ele>-13.4</ele><time>2022-06-19T07:52:18.000Z</time></trkpt><trkpt lon="6.086127" lat="51.30137"><ele>-13.2</ele><time>2022-06-19T07:52:19.000Z</time></trkpt><trkpt lon="6.086037" lat="51.30132"><ele>-13.2</ele><time>2022-06-19T07:52:20.000Z</time></trkpt><trkpt lon="6.085948" lat="51.301267"><ele>-13.2</ele><time>2022-06-19T07:52:21.000Z</time></trkpt><trkpt lon="6.085859" lat="51.301219"><ele>-13.2</ele><time>2022-06-19T07:52:22.000Z</time></trkpt><trkpt lon="6.085768" lat="51.301169"><ele>-13.2</ele><time>2022-06-19T07:52:23.000Z</time></trkpt><trkpt lon="6.085675" lat="51.301115"><ele>-13.2</ele><time>2022-06-19T07:52:24.000Z</time></trkpt><trkpt lon="6.085584" lat="51.30107"><ele>-13</ele><time>2022-06-19T07:52:25.000Z</time></trkpt><trkpt lon="6.085488" lat="51.301023"><ele>-13.2</ele><time>2022-06-19T07:52:26.000Z</time></trkpt><trkpt lon="6.085394" lat="51.300973"><ele>-13.2</ele><time>2022-06-19T07:52:27.000Z</time></trkpt><trkpt lon="6.085301" lat="51.300931"><ele>-13.4</ele><time>2022-06-19T07:52:28.000Z</time></trkpt><trkpt lon="6.085206" lat="51.300886"><ele>-13.4</ele><time>2022-06-19T07:52:29.000Z</time></trkpt><trkpt lon="6.085112" lat="51.30084"><ele>-13.2</ele><time>2022-06-19T07:52:30.000Z</time></trkpt><trkpt lon="6.085017" lat="51.300794"><ele>-13.2</ele><time>2022-06-19T07:52:31.000Z</time></trkpt><trkpt lon="6.084922" lat="51.300749"><ele>-13</ele><time>2022-06-19T07:52:32.000Z</time></trkpt><trkpt lon="6.08483" lat="51.300705"><ele>-12.8</ele><time>2022-06-19T07:52:33.000Z</time></trkpt><trkpt lon="6.08473" lat="51.300657"><ele>-12.8</ele><time>2022-06-19T07:52:34.000Z</time></trkpt><trkpt lon="6.084635" lat="51.300615"><ele>-12.8</ele><time>2022-06-19T07:52:35.000Z</time></trkpt><trkpt lon="6.084539" lat="51.300573"><ele>-13</ele><time>2022-06-19T07:52:36.000Z</time></trkpt><trkpt lon="6.084441" lat="51.300531"><ele>-13</ele><time>2022-06-19T07:52:37.000Z</time></trkpt><trkpt lon="6.084348" lat="51.300489"><ele>-13.2</ele><time>2022-06-19T07:52:38.000Z</time></trkpt><trkpt lon="6.084251" lat="51.300443"><ele>-13.2</ele><time>2022-06-19T07:52:39.000Z</time></trkpt><trkpt lon="6.084156" lat="51.300401"><ele>-13.2</ele><time>2022-06-19T07:52:40.000Z</time></trkpt><trkpt lon="6.084061" lat="51.300356"><ele>-13.2</ele><time>2022-06-19T07:52:41.000Z</time></trkpt><trkpt lon="6.083965" lat="51.30031"><ele>-13.2</ele><time>2022-06-19T07:52:42.000Z</time></trkpt><trkpt lon="6.083871" lat="51.300272"><ele>-13.2</ele><time>2022-06-19T07:52:43.000Z</time></trkpt><trkpt lon="6.083774" lat="51.300227"><ele>-13.2</ele><time>2022-06-19T07:52:44.000Z</time></trkpt><trkpt lon="6.083678" lat="51.300184"><ele>-13.2</ele><time>2022-06-19T07:52:45.000Z</time></trkpt><trkpt lon="6.083581" lat="51.300142"><ele>-13.2</ele><time>2022-06-19T07:52:46.000Z</time></trkpt><trkpt lon="6.083485" lat="51.300099"><ele>-13.2</ele><time>2022-06-19T07:52:47.000Z</time></trkpt><trkpt lon="6.08339" lat="51.300058"><ele>-13</ele><time>2022-06-19T07:52:48.000Z</time></trkpt><trkpt lon="6.083293" lat="51.300012"><ele>-13</ele><time>2022-06-19T07:52:49.000Z</time></trkpt><trkpt lon="6.083195" lat="51.299966"><ele>-13</ele><time>2022-06-19T07:52:50.000Z</time></trkpt><trkpt lon="6.083096" lat="51.299924"><ele>-13</ele><time>2022-06-19T07:52:51.000Z</time></trkpt><trkpt lon="6.082998" lat="51.299878"><ele>-13</ele><time>2022-06-19T07:52:52.000Z</time></trkpt><trkpt lon="6.0829" lat="51.299837"><ele>-13</ele><time>2022-06-19T07:52:53.000Z</time></trkpt><trkpt lon="6.0828" lat="51.299787"><ele>-13.2</ele><time>2022-06-19T07:52:54.000Z</time></trkpt><trkpt lon="6.082701" lat="51.299746"><ele>-13.2</ele><time>2022-06-19T07:52:55.000Z</time></trkpt><trkpt lon="6.082596" lat="51.2997"><ele>-13.4</ele><time>2022-06-19T07:52:56.000Z</time></trkpt><trkpt lon="6.082493" lat="51.299654"><ele>-13.6</ele><time>2022-06-19T07:52:57.000Z</time></trkpt><trkpt lon="6.082388" lat="51.299611"><ele>-13.6</ele><time>2022-06-19T07:52:58.000Z</time></trkpt><trkpt lon="6.082284" lat="51.299566"><ele>-13.8</ele><time>2022-06-19T07:52:59.000Z</time></trkpt><trkpt lon="6.082183" lat="51.299521"><ele>-13.8</ele><time>2022-06-19T07:53:00.000Z</time></trkpt><trkpt lon="6.082078" lat="51.299478"><ele>-13.8</ele><time>2022-06-19T07:53:01.000Z</time></trkpt><trkpt lon="6.081975" lat="51.299436"><ele>-13.8</ele><time>2022-06-19T07:53:02.000Z</time></trkpt><trkpt lon="6.081878" lat="51.299398"><ele>-13.8</ele><time>2022-06-19T07:53:03.000Z</time></trkpt><trkpt lon="6.081782" lat="51.29936"><ele>-13.6</ele><time>2022-06-19T07:53:04.000Z</time></trkpt><trkpt lon="6.081686" lat="51.299321"><ele>-13.6</ele><time>2022-06-19T07:53:05.000Z</time></trkpt><trkpt lon="6.081591" lat="51.29928"><ele>-13.6</ele><time>2022-06-19T07:53:06.000Z</time></trkpt><trkpt lon="6.081496" lat="51.299241"><ele>-13.6</ele><time>2022-06-19T07:53:07.000Z</time></trkpt><trkpt lon="6.081403" lat="51.2992"><ele>-13.4</ele><time>2022-06-19T07:53:08.000Z</time></trkpt><trkpt lon="6.081303" lat="51.299161"><ele>-13.2</ele><time>2022-06-19T07:53:09.000Z</time></trkpt><trkpt lon="6.081203" lat="51.299124"><ele>-13</ele><time>2022-06-19T07:53:10.000Z</time></trkpt><trkpt lon="6.081103" lat="51.299082"><ele>-13</ele><time>2022-06-19T07:53:11.000Z</time></trkpt><trkpt lon="6.081003" lat="51.29904"><ele>-12.8</ele><time>2022-06-19T07:53:12.000Z</time></trkpt><trkpt lon="6.080905" lat="51.299001"><ele>-12.8</ele><time>2022-06-19T07:53:13.000Z</time></trkpt><trkpt lon="6.080808" lat="51.298959"><ele>-12.6</ele><time>2022-06-19T07:53:14.000Z</time></trkpt><trkpt lon="6.080708" lat="51.298917"><ele>-12.6</ele><time>2022-06-19T07:53:15.000Z</time></trkpt><trkpt lon="6.080609" lat="51.298875"><ele>-12.6</ele><time>2022-06-19T07:53:16.000Z</time></trkpt><trkpt lon="6.080509" lat="51.298833"><ele>-12.4</ele><time>2022-06-19T07:53:17.000Z</time></trkpt><trkpt lon="6.080406" lat="51.298791"><ele>-12.4</ele><time>2022-06-19T07:53:18.000Z</time></trkpt><trkpt lon="6.080303" lat="51.298753"><ele>-12.4</ele><time>2022-06-19T07:53:19.000Z</time></trkpt><trkpt lon="6.080197" lat="51.298711"><ele>-12.4</ele><time>2022-06-19T07:53:20.000Z</time></trkpt><trkpt lon="6.080085" lat="51.298673"><ele>-12.4</ele><time>2022-06-19T07:53:21.000Z</time></trkpt><trkpt lon="6.079975" lat="51.298639"><ele>-12.4</ele><time>2022-06-19T07:53:22.000Z</time></trkpt><trkpt lon="6.079858" lat="51.298604"><ele>-12.2</ele><time>2022-06-19T07:53:23.000Z</time></trkpt><trkpt lon="6.079744" lat="51.298574"><ele>-12.4</ele><time>2022-06-19T07:53:24.000Z</time></trkpt><trkpt lon="6.079631" lat="51.298543"><ele>-12.2</ele><time>2022-06-19T07:53:25.000Z</time></trkpt><trkpt lon="6.079516" lat="51.298513"><ele>-12</ele><time>2022-06-19T07:53:26.000Z</time></trkpt><trkpt lon="6.0794" lat="51.298486"><ele>-12</ele><time>2022-06-19T07:53:27.000Z</time></trkpt><trkpt lon="6.079288" lat="51.298459"><ele>-12</ele><time>2022-06-19T07:53:28.000Z</time></trkpt><trkpt lon="6.079174" lat="51.298432"><ele>-11.8</ele><time>2022-06-19T07:53:29.000Z</time></trkpt><trkpt lon="6.079063" lat="51.298405"><ele>-11.8</ele><time>2022-06-19T07:53:30.000Z</time></trkpt><trkpt lon="6.078952" lat="51.298379"><ele>-11.8</ele><time>2022-06-19T07:53:31.000Z</time></trkpt><trkpt lon="6.078841" lat="51.298356"><ele>-11.6</ele><time>2022-06-19T07:53:32.000Z</time></trkpt><trkpt lon="6.078728" lat="51.298333"><ele>-11.6</ele><time>2022-06-19T07:53:33.000Z</time></trkpt><trkpt lon="6.078615" lat="51.29831"><ele>-11.8</ele><time>2022-06-19T07:53:34.000Z</time></trkpt><trkpt lon="6.078504" lat="51.298287"><ele>-12</ele><time>2022-06-19T07:53:35.000Z</time></trkpt><trkpt lon="6.078394" lat="51.298268"><ele>-12</ele><time>2022-06-19T07:53:36.000Z</time></trkpt><trkpt lon="6.078279" lat="51.298245"><ele>-11.8</ele><time>2022-06-19T07:53:37.000Z</time></trkpt><trkpt lon="6.078165" lat="51.298226"><ele>-11.6</ele><time>2022-06-19T07:53:38.000Z</time></trkpt><trkpt lon="6.078052" lat="51.298204"><ele>-11.4</ele><time>2022-06-19T07:53:39.000Z</time></trkpt><trkpt lon="6.077936" lat="51.298181"><ele>-11.2</ele><time>2022-06-19T07:53:40.000Z</time></trkpt><trkpt lon="6.077815" lat="51.298157"><ele>-11</ele><time>2022-06-19T07:53:41.000Z</time></trkpt><trkpt lon="6.077698" lat="51.298138"><ele>-11</ele><time>2022-06-19T07:53:42.000Z</time></trkpt><trkpt lon="6.077586" lat="51.298116"><ele>-11</ele><time>2022-06-19T07:53:43.000Z</time></trkpt><trkpt lon="6.077473" lat="51.298093"><ele>-11</ele><time>2022-06-19T07:53:44.000Z</time></trkpt><trkpt lon="6.077369" lat="51.298065"><ele>-11</ele><time>2022-06-19T07:53:45.000Z</time></trkpt><trkpt lon="6.077243" lat="51.298032"><ele>-11</ele><time>2022-06-19T07:53:46.000Z</time></trkpt><trkpt lon="6.077134" lat="51.297997"><ele>-11.2</ele><time>2022-06-19T07:53:47.000Z</time></trkpt><trkpt lon="6.077026" lat="51.297959"><ele>-10.8</ele><time>2022-06-19T07:53:48.000Z</time></trkpt><trkpt lon="6.076919" lat="51.297918"><ele>-10.4</ele><time>2022-06-19T07:53:49.000Z</time></trkpt><trkpt lon="6.07681" lat="51.297876"><ele>-10.2</ele><time>2022-06-19T07:53:50.000Z</time></trkpt><trkpt lon="6.076709" lat="51.297838"><ele>-10</ele><time>2022-06-19T07:53:51.000Z</time></trkpt><trkpt lon="6.076613" lat="51.297803"><ele>-10</ele><time>2022-06-19T07:53:52.000Z</time></trkpt><trkpt lon="6.076502" lat="51.297761"><ele>-10</ele><time>2022-06-19T07:53:53.000Z</time></trkpt><trkpt lon="6.076401" lat="51.297728"><ele>-10</ele><time>2022-06-19T07:53:54.000Z</time></trkpt><trkpt lon="6.076296" lat="51.29769"><ele>-10</ele><time>2022-06-19T07:53:55.000Z</time></trkpt><trkpt lon="6.076194" lat="51.297647"><ele>-10.2</ele><time>2022-06-19T07:53:56.000Z</time></trkpt><trkpt lon="6.076101" lat="51.297609"><ele>-10.2</ele><time>2022-06-19T07:53:57.000Z</time></trkpt><trkpt lon="6.076012" lat="51.297574"><ele>-10</ele><time>2022-06-19T07:53:58.000Z</time></trkpt><trkpt lon="6.075917" lat="51.297536"><ele>-10</ele><time>2022-06-19T07:53:59.000Z</time></trkpt><trkpt lon="6.075831" lat="51.297504"><ele>-10</ele><time>2022-06-19T07:54:00.000Z</time></trkpt><trkpt lon="6.075733" lat="51.297464"><ele>-10</ele><time>2022-06-19T07:54:01.000Z</time></trkpt><trkpt lon="6.075646" lat="51.29743"><ele>-10.2</ele><time>2022-06-19T07:54:02.000Z</time></trkpt><trkpt lon="6.075556" lat="51.297392"><ele>-10.2</ele><time>2022-06-19T07:54:03.000Z</time></trkpt><trkpt lon="6.075469" lat="51.297356"><ele>-10.4</ele><time>2022-06-19T07:54:04.000Z</time></trkpt><trkpt lon="6.075387" lat="51.297327"><ele>-10.4</ele><time>2022-06-19T07:54:05.000Z</time></trkpt><trkpt lon="6.075306" lat="51.297296"><ele>-10.4</ele><time>2022-06-19T07:54:06.000Z</time></trkpt><trkpt lon="6.075229" lat="51.297265"><ele>-10.4</ele><time>2022-06-19T07:54:07.000Z</time></trkpt><trkpt lon="6.075156" lat="51.297242"><ele>-10.2</ele><time>2022-06-19T07:54:08.000Z</time></trkpt><trkpt lon="6.075084" lat="51.297219"><ele>-10.2</ele><time>2022-06-19T07:54:09.000Z</time></trkpt><trkpt lon="6.075017" lat="51.2972"><ele>-10</ele><time>2022-06-19T07:54:10.000Z</time></trkpt><trkpt lon="6.074952" lat="51.297184"><ele>-10</ele><time>2022-06-19T07:54:11.000Z</time></trkpt><trkpt lon="6.074898" lat="51.297173"><ele>-10</ele><time>2022-06-19T07:54:12.000Z</time></trkpt><trkpt lon="6.074853" lat="51.297161"><ele>-9.8</ele><time>2022-06-19T07:54:13.000Z</time></trkpt><trkpt lon="6.074816" lat="51.297154"><ele>-9.8</ele><time>2022-06-19T07:54:14.000Z</time></trkpt><trkpt lon="6.074792" lat="51.297142"><ele>-9.6</ele><time>2022-06-19T07:54:15.000Z</time></trkpt><trkpt lon="6.074776" lat="51.297135"><ele>-9.6</ele><time>2022-06-19T07:54:16.000Z</time></trkpt><trkpt lon="6.074759" lat="51.297131"><ele>-9.6</ele><time>2022-06-19T07:54:17.000Z</time></trkpt><trkpt lon="6.074739" lat="51.297127"><ele>-9.6</ele><time>2022-06-19T07:54:18.000Z</time></trkpt><trkpt lon="6.074719" lat="51.29712"><ele>-9.6</ele><time>2022-06-19T07:54:19.000Z</time></trkpt><trkpt lon="6.0747" lat="51.297112"><ele>-9.6</ele><time>2022-06-19T07:54:20.000Z</time></trkpt><trkpt lon="6.074685" lat="51.297108"><ele>-9.4</ele><time>2022-06-19T07:54:21.000Z</time></trkpt><trkpt lon="6.074667" lat="51.297104"><ele>-9.4</ele><time>2022-06-19T07:54:22.000Z</time></trkpt><trkpt lon="6.074427" lat="51.297058"><ele>-9.4</ele><time>2022-06-19T07:54:45.000Z</time></trkpt><trkpt lon="6.074385" lat="51.297058"><ele>-9.4</ele><time>2022-06-19T07:54:46.000Z</time></trkpt><trkpt lon="6.074344" lat="51.297051"><ele>-9.4</ele><time>2022-06-19T07:54:47.000Z</time></trkpt><trkpt lon="6.074296" lat="51.297043"><ele>-9.4</ele><time>2022-06-19T07:54:48.000Z</time></trkpt><trkpt lon="6.074246" lat="51.297028"><ele>-9.4</ele><time>2022-06-19T07:54:49.000Z</time></trkpt><trkpt lon="6.074193" lat="51.297013"><ele>-9.4</ele><time>2022-06-19T07:54:50.000Z</time></trkpt><trkpt lon="6.074135" lat="51.296994"><ele>-9.2</ele><time>2022-06-19T07:54:51.000Z</time></trkpt><trkpt lon="6.074073" lat="51.296979"><ele>-9.2</ele><time>2022-06-19T07:54:52.000Z</time></trkpt><trkpt lon="6.074004" lat="51.296956"><ele>-9.2</ele><time>2022-06-19T07:54:53.000Z</time></trkpt><trkpt lon="6.073932" lat="51.296933"><ele>-9.2</ele><time>2022-06-19T07:54:54.000Z</time></trkpt><trkpt lon="6.073853" lat="51.296906"><ele>-9.2</ele><time>2022-06-19T07:54:55.000Z</time></trkpt><trkpt lon="6.073772" lat="51.296876"><ele>-9.2</ele><time>2022-06-19T07:54:56.000Z</time></trkpt><trkpt lon="6.073683" lat="51.296842"><ele>-9.4</ele><time>2022-06-19T07:54:57.000Z</time></trkpt><trkpt lon="6.073596" lat="51.29681"><ele>-9.4</ele><time>2022-06-19T07:54:58.000Z</time></trkpt><trkpt lon="6.073493" lat="51.296766"><ele>-9.6</ele><time>2022-06-19T07:54:59.000Z</time></trkpt><trkpt lon="6.073395" lat="51.296717"><ele>-9.8</ele><time>2022-06-19T07:55:00.000Z</time></trkpt><trkpt lon="6.073308" lat="51.296667"><ele>-9.8</ele><time>2022-06-19T07:55:01.000Z</time></trkpt><trkpt lon="6.073225" lat="51.296622"><ele>-10</ele><time>2022-06-19T07:55:02.000Z</time></trkpt><trkpt lon="6.073134" lat="51.296579"><ele>-10.2</ele><time>2022-06-19T07:55:03.000Z</time></trkpt><trkpt lon="6.073041" lat="51.296537"><ele>-10.4</ele><time>2022-06-19T07:55:04.000Z</time></trkpt><trkpt lon="6.072944" lat="51.296495"><ele>-10.6</ele><time>2022-06-19T07:55:05.000Z</time></trkpt><trkpt lon="6.072844" lat="51.296456"><ele>-10.8</ele><time>2022-06-19T07:55:06.000Z</time></trkpt><trkpt lon="6.072741" lat="51.296422"><ele>-11</ele><time>2022-06-19T07:55:07.000Z</time></trkpt><trkpt lon="6.072641" lat="51.296388"><ele>-11</ele><time>2022-06-19T07:55:08.000Z</time></trkpt><trkpt lon="6.07254" lat="51.296361"><ele>-11.2</ele><time>2022-06-19T07:55:09.000Z</time></trkpt><trkpt lon="6.072437" lat="51.29633"><ele>-11.2</ele><time>2022-06-19T07:55:10.000Z</time></trkpt><trkpt lon="6.072343" lat="51.296304"><ele>-11.4</ele><time>2022-06-19T07:55:11.000Z</time></trkpt><trkpt lon="6.072245" lat="51.296277"><ele>-11.4</ele><time>2022-06-19T07:55:12.000Z</time></trkpt><trkpt lon="6.072145" lat="51.296254"><ele>-11.4</ele><time>2022-06-19T07:55:13.000Z</time></trkpt><trkpt lon="6.072045" lat="51.296227"><ele>-11.4</ele><time>2022-06-19T07:55:14.000Z</time></trkpt><trkpt lon="6.07194" lat="51.296201"><ele>-11.4</ele><time>2022-06-19T07:55:15.000Z</time></trkpt><trkpt lon="6.071835" lat="51.296171"><ele>-11.4</ele><time>2022-06-19T07:55:16.000Z</time></trkpt><trkpt lon="6.071732" lat="51.296141"><ele>-11.4</ele><time>2022-06-19T07:55:17.000Z</time></trkpt><trkpt lon="6.071635" lat="51.296115"><ele>-11.6</ele><time>2022-06-19T07:55:18.000Z</time></trkpt><trkpt lon="6.071523" lat="51.296086"><ele>-11.6</ele><time>2022-06-19T07:55:19.000Z</time></trkpt><trkpt lon="6.071415" lat="51.296056"><ele>-11.8</ele><time>2022-06-19T07:55:20.000Z</time></trkpt><trkpt lon="6.071303" lat="51.296025"><ele>-11.8</ele><time>2022-06-19T07:55:21.000Z</time></trkpt><trkpt lon="6.071195" lat="51.295998"><ele>-11.8</ele><time>2022-06-19T07:55:22.000Z</time></trkpt><trkpt lon="6.071079" lat="51.295972"><ele>-12</ele><time>2022-06-19T07:55:23.000Z</time></trkpt><trkpt lon="6.070968" lat="51.295946"><ele>-12.2</ele><time>2022-06-19T07:55:24.000Z</time></trkpt><trkpt lon="6.070849" lat="51.295918"><ele>-12.2</ele><time>2022-06-19T07:55:25.000Z</time></trkpt><trkpt lon="6.070734" lat="51.295892"><ele>-12.4</ele><time>2022-06-19T07:55:26.000Z</time></trkpt><trkpt lon="6.070616" lat="51.295869"><ele>-12.6</ele><time>2022-06-19T07:55:27.000Z</time></trkpt><trkpt lon="6.070498" lat="51.295846"><ele>-12.8</ele><time>2022-06-19T07:55:28.000Z</time></trkpt><trkpt lon="6.070378" lat="51.295823"><ele>-13</ele><time>2022-06-19T07:55:29.000Z</time></trkpt><trkpt lon="6.070253" lat="51.295804"><ele>-13</ele><time>2022-06-19T07:55:30.000Z</time></trkpt><trkpt lon="6.070138" lat="51.295781"><ele>-13</ele><time>2022-06-19T07:55:31.000Z</time></trkpt><trkpt lon="6.070027" lat="51.295755"><ele>-13.2</ele><time>2022-06-19T07:55:32.000Z</time></trkpt><trkpt lon="6.069915" lat="51.295717"><ele>-13.2</ele><time>2022-06-19T07:55:33.000Z</time></trkpt><trkpt lon="6.069819" lat="51.295667"><ele>-13.4</ele><time>2022-06-19T07:55:34.000Z</time></trkpt><trkpt lon="6.069735" lat="51.295606"><ele>-13.2</ele><time>2022-06-19T07:55:35.000Z</time></trkpt><trkpt lon="6.069659" lat="51.295542"><ele>-13.2</ele><time>2022-06-19T07:55:36.000Z</time></trkpt><trkpt lon="6.069585" lat="51.295478"><ele>-13.2</ele><time>2022-06-19T07:55:37.000Z</time></trkpt><trkpt lon="6.069506" lat="51.295412"><ele>-13</ele><time>2022-06-19T07:55:38.000Z</time></trkpt><trkpt lon="6.069428" lat="51.295353"><ele>-13</ele><time>2022-06-19T07:55:39.000Z</time></trkpt><trkpt lon="6.06934" lat="51.295293"><ele>-12.8</ele><time>2022-06-19T07:55:40.000Z</time></trkpt><trkpt lon="6.069252" lat="51.295232"><ele>-12.8</ele><time>2022-06-19T07:55:41.000Z</time></trkpt><trkpt lon="6.069161" lat="51.295179"><ele>-12.8</ele><time>2022-06-19T07:55:42.000Z</time></trkpt><trkpt lon="6.069065" lat="51.29513"><ele>-12.8</ele><time>2022-06-19T07:55:43.000Z</time></trkpt><trkpt lon="6.068963" lat="51.295083"><ele>-12.6</ele><time>2022-06-19T07:55:44.000Z</time></trkpt><trkpt lon="6.068859" lat="51.295046"><ele>-12.6</ele><time>2022-06-19T07:55:45.000Z</time></trkpt><trkpt lon="6.068751" lat="51.295011"><ele>-12.6</ele><time>2022-06-19T07:55:46.000Z</time></trkpt><trkpt lon="6.068645" lat="51.294982"><ele>-12.6</ele><time>2022-06-19T07:55:47.000Z</time></trkpt><trkpt lon="6.068533" lat="51.294954"><ele>-12.6</ele><time>2022-06-19T07:55:48.000Z</time></trkpt><trkpt lon="6.068425" lat="51.29493"><ele>-12.4</ele><time>2022-06-19T07:55:49.000Z</time></trkpt><trkpt lon="6.068325" lat="51.294904"><ele>-12.4</ele><time>2022-06-19T07:55:50.000Z</time></trkpt><trkpt lon="6.068217" lat="51.294877"><ele>-12.4</ele><time>2022-06-19T07:55:51.000Z</time></trkpt><trkpt lon="6.068112" lat="51.294847"><ele>-12.2</ele><time>2022-06-19T07:55:52.000Z</time></trkpt><trkpt lon="6.067999" lat="51.294823"><ele>-12.2</ele><time>2022-06-19T07:55:53.000Z</time></trkpt><trkpt lon="6.067895" lat="51.294794"><ele>-12</ele><time>2022-06-19T07:55:54.000Z</time></trkpt><trkpt lon="6.067787" lat="51.294767"><ele>-12</ele><time>2022-06-19T07:55:55.000Z</time></trkpt><trkpt lon="6.06768" lat="51.294736"><ele>-12.2</ele><time>2022-06-19T07:55:56.000Z</time></trkpt><trkpt lon="6.067577" lat="51.294709"><ele>-12.2</ele><time>2022-06-19T07:55:57.000Z</time></trkpt><trkpt lon="6.067476" lat="51.294675"><ele>-12.4</ele><time>2022-06-19T07:55:58.000Z</time></trkpt><trkpt lon="6.067381" lat="51.294633"><ele>-12.4</ele><time>2022-06-19T07:55:59.000Z</time></trkpt><trkpt lon="6.067289" lat="51.294591"><ele>-12.4</ele><time>2022-06-19T07:56:00.000Z</time></trkpt><trkpt lon="6.067204" lat="51.294538"><ele>-12.6</ele><time>2022-06-19T07:56:01.000Z</time></trkpt><trkpt lon="6.067127" lat="51.294481"><ele>-12.6</ele><time>2022-06-19T07:56:02.000Z</time></trkpt><trkpt lon="6.067059" lat="51.29442"><ele>-12.6</ele><time>2022-06-19T07:56:03.000Z</time></trkpt><trkpt lon="6.067005" lat="51.294353"><ele>-12.8</ele><time>2022-06-19T07:56:04.000Z</time></trkpt><trkpt lon="6.066956" lat="51.294279"><ele>-12.8</ele><time>2022-06-19T07:56:05.000Z</time></trkpt><trkpt lon="6.066909" lat="51.294213"><ele>-13</ele><time>2022-06-19T07:56:06.000Z</time></trkpt><trkpt lon="6.066861" lat="51.294144"><ele>-13</ele><time>2022-06-19T07:56:07.000Z</time></trkpt><trkpt lon="6.066808" lat="51.294073"><ele>-13</ele><time>2022-06-19T07:56:08.000Z</time></trkpt><trkpt lon="6.066751" lat="51.294008"><ele>-13.2</ele><time>2022-06-19T07:56:09.000Z</time></trkpt><trkpt lon="6.066681" lat="51.293946"><ele>-13.2</ele><time>2022-06-19T07:56:10.000Z</time></trkpt><trkpt lon="6.0666" lat="51.293894"><ele>-13.4</ele><time>2022-06-19T07:56:11.000Z</time></trkpt><trkpt lon="6.066505" lat="51.293848"><ele>-13.4</ele><time>2022-06-19T07:56:12.000Z</time></trkpt><trkpt lon="6.066405" lat="51.293809"><ele>-13.4</ele><time>2022-06-19T07:56:13.000Z</time></trkpt><trkpt lon="6.066299" lat="51.293775"><ele>-13.4</ele><time>2022-06-19T07:56:14.000Z</time></trkpt><trkpt lon="6.066188" lat="51.293744"><ele>-13.4</ele><time>2022-06-19T07:56:15.000Z</time></trkpt><trkpt lon="6.066082" lat="51.293722"><ele>-13.4</ele><time>2022-06-19T07:56:16.000Z</time></trkpt><trkpt lon="6.065965" lat="51.293694"><ele>-13.4</ele><time>2022-06-19T07:56:17.000Z</time></trkpt><trkpt lon="6.065861" lat="51.293673"><ele>-13.2</ele><time>2022-06-19T07:56:18.000Z</time></trkpt><trkpt lon="6.065741" lat="51.293648"><ele>-13.2</ele><time>2022-06-19T07:56:19.000Z</time></trkpt><trkpt lon="6.065632" lat="51.293626"><ele>-13.2</ele><time>2022-06-19T07:56:20.000Z</time></trkpt><trkpt lon="6.065521" lat="51.293599"><ele>-13.4</ele><time>2022-06-19T07:56:21.000Z</time></trkpt><trkpt lon="6.065411" lat="51.293572"><ele>-13.2</ele><time>2022-06-19T07:56:22.000Z</time></trkpt><trkpt lon="6.0653" lat="51.293549"><ele>-13.2</ele><time>2022-06-19T07:56:23.000Z</time></trkpt><trkpt lon="6.06519" lat="51.293523"><ele>-13.2</ele><time>2022-06-19T07:56:24.000Z</time></trkpt><trkpt lon="6.06508" lat="51.293504"><ele>-13</ele><time>2022-06-19T07:56:25.000Z</time></trkpt><trkpt lon="6.064965" lat="51.293477"><ele>-13</ele><time>2022-06-19T07:56:26.000Z</time></trkpt><trkpt lon="6.064859" lat="51.293454"><ele>-13</ele><time>2022-06-19T07:56:27.000Z</time></trkpt><trkpt lon="6.064752" lat="51.293431"><ele>-13</ele><time>2022-06-19T07:56:28.000Z</time></trkpt><trkpt lon="6.064645" lat="51.293408"><ele>-13</ele><time>2022-06-19T07:56:29.000Z</time></trkpt><trkpt lon="6.064539" lat="51.293385"><ele>-13.2</ele><time>2022-06-19T07:56:30.000Z</time></trkpt><trkpt lon="6.064431" lat="51.293363"><ele>-13</ele><time>2022-06-19T07:56:31.000Z</time></trkpt><trkpt lon="6.064321" lat="51.293339"><ele>-13</ele><time>2022-06-19T07:56:32.000Z</time></trkpt><trkpt lon="6.064218" lat="51.293321"><ele>-13</ele><time>2022-06-19T07:56:33.000Z</time></trkpt><trkpt lon="6.064109" lat="51.293298"><ele>-13.2</ele><time>2022-06-19T07:56:34.000Z</time></trkpt><trkpt lon="6.064" lat="51.293271"><ele>-13.2</ele><time>2022-06-19T07:56:35.000Z</time></trkpt><trkpt lon="6.063893" lat="51.293248"><ele>-13</ele><time>2022-06-19T07:56:36.000Z</time></trkpt><trkpt lon="6.063785" lat="51.293225"><ele>-13</ele><time>2022-06-19T07:56:37.000Z</time></trkpt><trkpt lon="6.063677" lat="51.293202"><ele>-13</ele><time>2022-06-19T07:56:38.000Z</time></trkpt><trkpt lon="6.063566" lat="51.293179"><ele>-13</ele><time>2022-06-19T07:56:39.000Z</time></trkpt><trkpt lon="6.06346" lat="51.293156"><ele>-13</ele><time>2022-06-19T07:56:40.000Z</time></trkpt><trkpt lon="6.06335" lat="51.293133"><ele>-13</ele><time>2022-06-19T07:56:41.000Z</time></trkpt><trkpt lon="6.063243" lat="51.293111"><ele>-13</ele><time>2022-06-19T07:56:42.000Z</time></trkpt><trkpt lon="6.063133" lat="51.293084"><ele>-13</ele><time>2022-06-19T07:56:43.000Z</time></trkpt><trkpt lon="6.063028" lat="51.293061"><ele>-13</ele><time>2022-06-19T07:56:44.000Z</time></trkpt><trkpt lon="6.062924" lat="51.293042"><ele>-13.2</ele><time>2022-06-19T07:56:45.000Z</time></trkpt><trkpt lon="6.062821" lat="51.29302"><ele>-13.2</ele><time>2022-06-19T07:56:46.000Z</time></trkpt><trkpt lon="6.062711" lat="51.292996"><ele>-13.2</ele><time>2022-06-19T07:56:47.000Z</time></trkpt><trkpt lon="6.062603" lat="51.292974"><ele>-13.2</ele><time>2022-06-19T07:56:48.000Z</time></trkpt><trkpt lon="6.062492" lat="51.29295"><ele>-13.4</ele><time>2022-06-19T07:56:49.000Z</time></trkpt><trkpt lon="6.06238" lat="51.292924"><ele>-13.2</ele><time>2022-06-19T07:56:50.000Z</time></trkpt><trkpt lon="6.062268" lat="51.292901"><ele>-13.4</ele><time>2022-06-19T07:56:51.000Z</time></trkpt><trkpt lon="6.062159" lat="51.292871"><ele>-13.4</ele><time>2022-06-19T07:56:52.000Z</time></trkpt><trkpt lon="6.062047" lat="51.292843"><ele>-13.6</ele><time>2022-06-19T07:56:53.000Z</time></trkpt><trkpt lon="6.061939" lat="51.292817"><ele>-13.8</ele><time>2022-06-19T07:56:54.000Z</time></trkpt><trkpt lon="6.061831" lat="51.292794"><ele>-13.8</ele><time>2022-06-19T07:56:55.000Z</time></trkpt><trkpt lon="6.061727" lat="51.292768"><ele>-14</ele><time>2022-06-19T07:56:56.000Z</time></trkpt><trkpt lon="6.061619" lat="51.29274"><ele>-14.2</ele><time>2022-06-19T07:56:57.000Z</time></trkpt><trkpt lon="6.061516" lat="51.292718"><ele>-14.2</ele><time>2022-06-19T07:56:58.000Z</time></trkpt><trkpt lon="6.061413" lat="51.292691"><ele>-14.2</ele><time>2022-06-19T07:56:59.000Z</time></trkpt><trkpt lon="6.061306" lat="51.292664"><ele>-14.4</ele><time>2022-06-19T07:57:00.000Z</time></trkpt><trkpt lon="6.061199" lat="51.292638"><ele>-14.4</ele><time>2022-06-19T07:57:01.000Z</time></trkpt><trkpt lon="6.061092" lat="51.292608"><ele>-14.4</ele><time>2022-06-19T07:57:02.000Z</time></trkpt><trkpt lon="6.060982" lat="51.292584"><ele>-14.6</ele><time>2022-06-19T07:57:03.000Z</time></trkpt><trkpt lon="6.060876" lat="51.292561"><ele>-14.6</ele><time>2022-06-19T07:57:04.000Z</time></trkpt><trkpt lon="6.060767" lat="51.292542"><ele>-14.6</ele><time>2022-06-19T07:57:05.000Z</time></trkpt><trkpt lon="6.060658" lat="51.29252"><ele>-14.6</ele><time>2022-06-19T07:57:06.000Z</time></trkpt><trkpt lon="6.060549" lat="51.292496"><ele>-14.4</ele><time>2022-06-19T07:57:07.000Z</time></trkpt><trkpt lon="6.060443" lat="51.292473"><ele>-14.2</ele><time>2022-06-19T07:57:08.000Z</time></trkpt><trkpt lon="6.060355" lat="51.292455"><ele>-14.2</ele><time>2022-06-19T07:57:09.000Z</time></trkpt><trkpt lon="6.060226" lat="51.292428"><ele>-14.4</ele><time>2022-06-19T07:57:10.000Z</time></trkpt><trkpt lon="6.060113" lat="51.292408"><ele>-14.8</ele><time>2022-06-19T07:57:11.000Z</time></trkpt><trkpt lon="6.060008" lat="51.292386"><ele>-15</ele><time>2022-06-19T07:57:12.000Z</time></trkpt><trkpt lon="6.059906" lat="51.292363"><ele>-15</ele><time>2022-06-19T07:57:13.000Z</time></trkpt><trkpt lon="6.059809" lat="51.29234"><ele>-15</ele><time>2022-06-19T07:57:14.000Z</time></trkpt><trkpt lon="6.059716" lat="51.292313"><ele>-15</ele><time>2022-06-19T07:57:15.000Z</time></trkpt><trkpt lon="6.059625" lat="51.292294"><ele>-15</ele><time>2022-06-19T07:57:16.000Z</time></trkpt><trkpt lon="6.05953" lat="51.292294"><ele>-15</ele><time>2022-06-19T07:57:17.000Z</time></trkpt><trkpt lon="6.059443" lat="51.2923"><ele>-15</ele><time>2022-06-19T07:57:18.000Z</time></trkpt><trkpt lon="6.05935" lat="51.29232"><ele>-15</ele><time>2022-06-19T07:57:19.000Z</time></trkpt><trkpt lon="6.059275" lat="51.292339"><ele>-15</ele><time>2022-06-19T07:57:20.000Z</time></trkpt><trkpt lon="6.059205" lat="51.292362"><ele>-15</ele><time>2022-06-19T07:57:21.000Z</time></trkpt><trkpt lon="6.059143" lat="51.29238"><ele>-15.2</ele><time>2022-06-19T07:57:22.000Z</time></trkpt><trkpt lon="6.05908" lat="51.292396"><ele>-15.2</ele><time>2022-06-19T07:57:23.000Z</time></trkpt><trkpt lon="6.059023" lat="51.292411"><ele>-15.2</ele><time>2022-06-19T07:57:24.000Z</time></trkpt><trkpt lon="6.058968" lat="51.292419"><ele>-15.2</ele><time>2022-06-19T07:57:25.000Z</time></trkpt><trkpt lon="6.058918" lat="51.292419"><ele>-15.2</ele><time>2022-06-19T07:57:26.000Z</time></trkpt><trkpt lon="6.058868" lat="51.292405"><ele>-15.4</ele><time>2022-06-19T07:57:27.000Z</time></trkpt><trkpt lon="6.058823" lat="51.292374"><ele>-15.4</ele><time>2022-06-19T07:57:28.000Z</time></trkpt><trkpt lon="6.058786" lat="51.29234"><ele>-15.4</ele><time>2022-06-19T07:57:29.000Z</time></trkpt><trkpt lon="6.058756" lat="51.292303"><ele>-15.4</ele><time>2022-06-19T07:57:30.000Z</time></trkpt><trkpt lon="6.05873" lat="51.292262"><ele>-15.4</ele><time>2022-06-19T07:57:31.000Z</time></trkpt><trkpt lon="6.058711" lat="51.29222"><ele>-15.4</ele><time>2022-06-19T07:57:32.000Z</time></trkpt><trkpt lon="6.058704" lat="51.292177"><ele>-15.4</ele><time>2022-06-19T07:57:33.000Z</time></trkpt><trkpt lon="6.058705" lat="51.29213"><ele>-15.4</ele><time>2022-06-19T07:57:34.000Z</time></trkpt><trkpt lon="6.058716" lat="51.292085"><ele>-15.4</ele><time>2022-06-19T07:57:35.000Z</time></trkpt><trkpt lon="6.058738" lat="51.292039"><ele>-15.2</ele><time>2022-06-19T07:57:36.000Z</time></trkpt><trkpt lon="6.058762" lat="51.291998"><ele>-15</ele><time>2022-06-19T07:57:37.000Z</time></trkpt><trkpt lon="6.058787" lat="51.291956"><ele>-15</ele><time>2022-06-19T07:57:38.000Z</time></trkpt><trkpt lon="6.058811" lat="51.291917"><ele>-14.8</ele><time>2022-06-19T07:57:39.000Z</time></trkpt><trkpt lon="6.058833" lat="51.291882"><ele>-14.8</ele><time>2022-06-19T07:57:40.000Z</time></trkpt><trkpt lon="6.058852" lat="51.291849"><ele>-14.8</ele><time>2022-06-19T07:57:41.000Z</time></trkpt><trkpt lon="6.058866" lat="51.291821"><ele>-14.6</ele><time>2022-06-19T07:57:42.000Z</time></trkpt><trkpt lon="6.058875" lat="51.291798"><ele>-14.6</ele><time>2022-06-19T07:57:43.000Z</time></trkpt><trkpt lon="6.058878" lat="51.291775"><ele>-14.4</ele><time>2022-06-19T07:57:44.000Z</time></trkpt><trkpt lon="6.058872" lat="51.291752"><ele>-14.2</ele><time>2022-06-19T07:57:45.000Z</time></trkpt><trkpt lon="6.058856" lat="51.291734"><ele>-14.2</ele><time>2022-06-19T07:57:46.000Z</time></trkpt><trkpt lon="6.058836" lat="51.291718"><ele>-14.2</ele><time>2022-06-19T07:57:47.000Z</time></trkpt><trkpt lon="6.058808" lat="51.291706"><ele>-14.2</ele><time>2022-06-19T07:57:48.000Z</time></trkpt><trkpt lon="6.058775" lat="51.291691"><ele>-14</ele><time>2022-06-19T07:57:49.000Z</time></trkpt><trkpt lon="6.058731" lat="51.291683"><ele>-14</ele><time>2022-06-19T07:57:50.000Z</time></trkpt><trkpt lon="6.058683" lat="51.291672"><ele>-14</ele><time>2022-06-19T07:57:51.000Z</time></trkpt><trkpt lon="6.058632" lat="51.291664"><ele>-14.2</ele><time>2022-06-19T07:57:52.000Z</time></trkpt><trkpt lon="6.058581" lat="51.291653"><ele>-14.2</ele><time>2022-06-19T07:57:53.000Z</time></trkpt><trkpt lon="6.058527" lat="51.291642"><ele>-14.2</ele><time>2022-06-19T07:57:54.000Z</time></trkpt><trkpt lon="6.058471" lat="51.29163"><ele>-14.2</ele><time>2022-06-19T07:57:55.000Z</time></trkpt><trkpt lon="6.058412" lat="51.291615"><ele>-14.2</ele><time>2022-06-19T07:57:56.000Z</time></trkpt><trkpt lon="6.05836" lat="51.291602"><ele>-14.2</ele><time>2022-06-19T07:57:57.000Z</time></trkpt><trkpt lon="6.058288" lat="51.291584"><ele>-14.2</ele><time>2022-06-19T07:57:58.000Z</time></trkpt><trkpt lon="6.058228" lat="51.291566"><ele>-14</ele><time>2022-06-19T07:57:59.000Z</time></trkpt><trkpt lon="6.058163" lat="51.29155"><ele>-14</ele><time>2022-06-19T07:58:00.000Z</time></trkpt><trkpt lon="6.058099" lat="51.291535"><ele>-14</ele><time>2022-06-19T07:58:01.000Z</time></trkpt><trkpt lon="6.058034" lat="51.291516"><ele>-14</ele><time>2022-06-19T07:58:02.000Z</time></trkpt><trkpt lon="6.05797" lat="51.291501"><ele>-13.8</ele><time>2022-06-19T07:58:03.000Z</time></trkpt><trkpt lon="6.057903" lat="51.291481"><ele>-13.8</ele><time>2022-06-19T07:58:04.000Z</time></trkpt><trkpt lon="6.05784" lat="51.291462"><ele>-14</ele><time>2022-06-19T07:58:05.000Z</time></trkpt><trkpt lon="6.057775" lat="51.291447"><ele>-14</ele><time>2022-06-19T07:58:06.000Z</time></trkpt><trkpt lon="6.05771" lat="51.291432"><ele>-14</ele><time>2022-06-19T07:58:07.000Z</time></trkpt><trkpt lon="6.057647" lat="51.291417"><ele>-14</ele><time>2022-06-19T07:58:08.000Z</time></trkpt><trkpt lon="6.05759" lat="51.291398"><ele>-14</ele><time>2022-06-19T07:58:09.000Z</time></trkpt><trkpt lon="6.057534" lat="51.291382"><ele>-14</ele><time>2022-06-19T07:58:10.000Z</time></trkpt><trkpt lon="6.057481" lat="51.291367"><ele>-13.8</ele><time>2022-06-19T07:58:11.000Z</time></trkpt><trkpt lon="6.057433" lat="51.291355"><ele>-13.8</ele><time>2022-06-19T07:58:12.000Z</time></trkpt><trkpt lon="6.057386" lat="51.291344"><ele>-13.8</ele><time>2022-06-19T07:58:13.000Z</time></trkpt><trkpt lon="6.057345" lat="51.291336"><ele>-13.8</ele><time>2022-06-19T07:58:14.000Z</time></trkpt><trkpt lon="6.057303" lat="51.291329"><ele>-13.8</ele><time>2022-06-19T07:58:15.000Z</time></trkpt><trkpt lon="6.057267" lat="51.291325"><ele>-13.6</ele><time>2022-06-19T07:58:16.000Z</time></trkpt><trkpt lon="6.057231" lat="51.291314"><ele>-13.6</ele><time>2022-06-19T07:58:17.000Z</time></trkpt><trkpt lon="6.057194" lat="51.29131"><ele>-13.4</ele><time>2022-06-19T07:58:18.000Z</time></trkpt><trkpt lon="6.057159" lat="51.291306"><ele>-13.4</ele><time>2022-06-19T07:58:19.000Z</time></trkpt><trkpt lon="6.05713" lat="51.291302"><ele>-13.4</ele><time>2022-06-19T07:58:20.000Z</time></trkpt><trkpt lon="6.057101" lat="51.291294"><ele>-13.4</ele><time>2022-06-19T07:58:21.000Z</time></trkpt><trkpt lon="6.057079" lat="51.29129"><ele>-13.4</ele><time>2022-06-19T07:58:22.000Z</time></trkpt><trkpt lon="6.05686" lat="51.291362"><ele>-13</ele><time>2022-06-19T08:29:05.000Z</time></trkpt><trkpt lon="6.056847" lat="51.291377"><ele>-12.8</ele><time>2022-06-19T08:29:06.000Z</time></trkpt><trkpt lon="6.05683" lat="51.291393"><ele>-12.8</ele><time>2022-06-19T08:29:07.000Z</time></trkpt><trkpt lon="6.056813" lat="51.291412"><ele>-12.8</ele><time>2022-06-19T08:29:08.000Z</time></trkpt><trkpt lon="6.05679" lat="51.291431"><ele>-12.8</ele><time>2022-06-19T08:29:09.000Z</time></trkpt><trkpt lon="6.056769" lat="51.291446"><ele>-12.8</ele><time>2022-06-19T08:29:10.000Z</time></trkpt><trkpt lon="6.056744" lat="51.291465"><ele>-12.8</ele><time>2022-06-19T08:29:11.000Z</time></trkpt><trkpt lon="6.056717" lat="51.291484"><ele>-12.6</ele><time>2022-06-19T08:29:12.000Z</time></trkpt><trkpt lon="6.056688" lat="51.2915"><ele>-12.6</ele><time>2022-06-19T08:29:13.000Z</time></trkpt><trkpt lon="6.056651" lat="51.291507"><ele>-12.6</ele><time>2022-06-19T08:29:14.000Z</time></trkpt><trkpt lon="6.056603" lat="51.291508"><ele>-12.6</ele><time>2022-06-19T08:29:15.000Z</time></trkpt><trkpt lon="6.056551" lat="51.291504"><ele>-12.6</ele><time>2022-06-19T08:29:16.000Z</time></trkpt><trkpt lon="6.056502" lat="51.291497"><ele>-12.6</ele><time>2022-06-19T08:29:17.000Z</time></trkpt><trkpt lon="6.056444" lat="51.291485"><ele>-12.4</ele><time>2022-06-19T08:29:18.000Z</time></trkpt><trkpt lon="6.056381" lat="51.291474"><ele>-12.4</ele><time>2022-06-19T08:29:19.000Z</time></trkpt><trkpt lon="6.056317" lat="51.291462"><ele>-12.4</ele><time>2022-06-19T08:29:20.000Z</time></trkpt><trkpt lon="6.056247" lat="51.291451"><ele>-12.2</ele><time>2022-06-19T08:29:21.000Z</time></trkpt><trkpt lon="6.056177" lat="51.291436"><ele>-12.2</ele><time>2022-06-19T08:29:22.000Z</time></trkpt><trkpt lon="6.056105" lat="51.291424"><ele>-12</ele><time>2022-06-19T08:29:23.000Z</time></trkpt><trkpt lon="6.05604" lat="51.291413"><ele>-12</ele><time>2022-06-19T08:29:24.000Z</time></trkpt><trkpt lon="6.055967" lat="51.291398"><ele>-12</ele><time>2022-06-19T08:29:25.000Z</time></trkpt><trkpt lon="6.0559" lat="51.291379"><ele>-12</ele><time>2022-06-19T08:29:26.000Z</time></trkpt><trkpt lon="6.055836" lat="51.291357"><ele>-11.8</ele><time>2022-06-19T08:29:27.000Z</time></trkpt><trkpt lon="6.055773" lat="51.291338"><ele>-11.8</ele><time>2022-06-19T08:29:28.000Z</time></trkpt><trkpt lon="6.055704" lat="51.291323"><ele>-11.8</ele><time>2022-06-19T08:29:29.000Z</time></trkpt><trkpt lon="6.055627" lat="51.291306"><ele>-11.8</ele><time>2022-06-19T08:29:30.000Z</time></trkpt><trkpt lon="6.055551" lat="51.291287"><ele>-11.8</ele><time>2022-06-19T08:29:31.000Z</time></trkpt><trkpt lon="6.055469" lat="51.291275"><ele>-12</ele><time>2022-06-19T08:29:32.000Z</time></trkpt><trkpt lon="6.055388" lat="51.291261"><ele>-12</ele><time>2022-06-19T08:29:33.000Z</time></trkpt><trkpt lon="6.055302" lat="51.291249"><ele>-12</ele><time>2022-06-19T08:29:34.000Z</time></trkpt><trkpt lon="6.055217" lat="51.29123"><ele>-12.2</ele><time>2022-06-19T08:29:35.000Z</time></trkpt><trkpt lon="6.055131" lat="51.291215"><ele>-12.2</ele><time>2022-06-19T08:29:36.000Z</time></trkpt><trkpt lon="6.055042" lat="51.291199"><ele>-12.2</ele><time>2022-06-19T08:29:37.000Z</time></trkpt><trkpt lon="6.054956" lat="51.29118"><ele>-12.2</ele><time>2022-06-19T08:29:38.000Z</time></trkpt><trkpt lon="6.054866" lat="51.291161"><ele>-12.2</ele><time>2022-06-19T08:29:39.000Z</time></trkpt><trkpt lon="6.054773" lat="51.291138"><ele>-12.4</ele><time>2022-06-19T08:29:40.000Z</time></trkpt><trkpt lon="6.054677" lat="51.291119"><ele>-12.4</ele><time>2022-06-19T08:29:41.000Z</time></trkpt><trkpt lon="6.054583" lat="51.291093"><ele>-12.2</ele><time>2022-06-19T08:29:42.000Z</time></trkpt><trkpt lon="6.054491" lat="51.291066"><ele>-12.2</ele><time>2022-06-19T08:29:43.000Z</time></trkpt><trkpt lon="6.054397" lat="51.291039"><ele>-12.2</ele><time>2022-06-19T08:29:44.000Z</time></trkpt><trkpt lon="6.054308" lat="51.291009"><ele>-12.4</ele><time>2022-06-19T08:29:45.000Z</time></trkpt><trkpt lon="6.054214" lat="51.290982"><ele>-12.4</ele><time>2022-06-19T08:29:46.000Z</time></trkpt><trkpt lon="6.05412" lat="51.290952"><ele>-12.6</ele><time>2022-06-19T08:29:47.000Z</time></trkpt><trkpt lon="6.054024" lat="51.290925"><ele>-12.6</ele><time>2022-06-19T08:29:48.000Z</time></trkpt><trkpt lon="6.053931" lat="51.290895"><ele>-12.6</ele><time>2022-06-19T08:29:49.000Z</time></trkpt><trkpt lon="6.053842" lat="51.29086"><ele>-12.6</ele><time>2022-06-19T08:29:50.000Z</time></trkpt><trkpt lon="6.053752" lat="51.290826"><ele>-12.6</ele><time>2022-06-19T08:29:51.000Z</time></trkpt><trkpt lon="6.053672" lat="51.290798"><ele>-12.6</ele><time>2022-06-19T08:29:52.000Z</time></trkpt><trkpt lon="6.053592" lat="51.290766"><ele>-12.6</ele><time>2022-06-19T08:29:53.000Z</time></trkpt><trkpt lon="6.053498" lat="51.290731"><ele>-12.8</ele><time>2022-06-19T08:29:54.000Z</time></trkpt><trkpt lon="6.053415" lat="51.290696"><ele>-13</ele><time>2022-06-19T08:29:55.000Z</time></trkpt><trkpt lon="6.053337" lat="51.290655"><ele>-13.2</ele><time>2022-06-19T08:29:56.000Z</time></trkpt><trkpt lon="6.05326" lat="51.290616"><ele>-13</ele><time>2022-06-19T08:29:57.000Z</time></trkpt><trkpt lon="6.053187" lat="51.290574"><ele>-13</ele><time>2022-06-19T08:29:58.000Z</time></trkpt><trkpt lon="6.053114" lat="51.290533"><ele>-12.8</ele><time>2022-06-19T08:29:59.000Z</time></trkpt><trkpt lon="6.053039" lat="51.29049"><ele>-12.8</ele><time>2022-06-19T08:30:00.000Z</time></trkpt><trkpt lon="6.052967" lat="51.290445"><ele>-12.6</ele><time>2022-06-19T08:30:01.000Z</time></trkpt><trkpt lon="6.052894" lat="51.290403"><ele>-12.6</ele><time>2022-06-19T08:30:02.000Z</time></trkpt><trkpt lon="6.052822" lat="51.290364"><ele>-12.6</ele><time>2022-06-19T08:30:03.000Z</time></trkpt><trkpt lon="6.052746" lat="51.290323"><ele>-12.6</ele><time>2022-06-19T08:30:04.000Z</time></trkpt><trkpt lon="6.05267" lat="51.290281"><ele>-12.4</ele><time>2022-06-19T08:30:05.000Z</time></trkpt><trkpt lon="6.05259" lat="51.290242"><ele>-12.6</ele><time>2022-06-19T08:30:06.000Z</time></trkpt><trkpt lon="6.052519" lat="51.290204"><ele>-12.6</ele><time>2022-06-19T08:30:07.000Z</time></trkpt><trkpt lon="6.052448" lat="51.290167"><ele>-12.4</ele><time>2022-06-19T08:30:08.000Z</time></trkpt><trkpt lon="6.052373" lat="51.290129"><ele>-12.2</ele><time>2022-06-19T08:30:09.000Z</time></trkpt><trkpt lon="6.052297" lat="51.29009"><ele>-12.2</ele><time>2022-06-19T08:30:10.000Z</time></trkpt><trkpt lon="6.052223" lat="51.290056"><ele>-12</ele><time>2022-06-19T08:30:11.000Z</time></trkpt><trkpt lon="6.052144" lat="51.290017"><ele>-11.8</ele><time>2022-06-19T08:30:12.000Z</time></trkpt><trkpt lon="6.052066" lat="51.289979"><ele>-11.8</ele><time>2022-06-19T08:30:13.000Z</time></trkpt><trkpt lon="6.051989" lat="51.289941"><ele>-11.6</ele><time>2022-06-19T08:30:14.000Z</time></trkpt><trkpt lon="6.051909" lat="51.289903"><ele>-11.6</ele><time>2022-06-19T08:30:15.000Z</time></trkpt><trkpt lon="6.051832" lat="51.289865"><ele>-11.8</ele><time>2022-06-19T08:30:16.000Z</time></trkpt><trkpt lon="6.051756" lat="51.289832"><ele>-11.6</ele><time>2022-06-19T08:30:17.000Z</time></trkpt><trkpt lon="6.051687" lat="51.289802"><ele>-11.6</ele><time>2022-06-19T08:30:18.000Z</time></trkpt><trkpt lon="6.051594" lat="51.289759"><ele>-11.6</ele><time>2022-06-19T08:30:19.000Z</time></trkpt><trkpt lon="6.051513" lat="51.289719"><ele>-11.6</ele><time>2022-06-19T08:30:20.000Z</time></trkpt><trkpt lon="6.05143" lat="51.289689"><ele>-11.6</ele><time>2022-06-19T08:30:21.000Z</time></trkpt><trkpt lon="6.051344" lat="51.289659"><ele>-11.6</ele><time>2022-06-19T08:30:22.000Z</time></trkpt><trkpt lon="6.051264" lat="51.289624"><ele>-11.8</ele><time>2022-06-19T08:30:23.000Z</time></trkpt><trkpt lon="6.051185" lat="51.289597"><ele>-11.6</ele><time>2022-06-19T08:30:24.000Z</time></trkpt><trkpt lon="6.051107" lat="51.289567"><ele>-11.6</ele><time>2022-06-19T08:30:25.000Z</time></trkpt><trkpt lon="6.051033" lat="51.289534"><ele>-11.8</ele><time>2022-06-19T08:30:26.000Z</time></trkpt><trkpt lon="6.050953" lat="51.289502"><ele>-11.6</ele><time>2022-06-19T08:30:27.000Z</time></trkpt><trkpt lon="6.050872" lat="51.289471"><ele>-11.6</ele><time>2022-06-19T08:30:28.000Z</time></trkpt><trkpt lon="6.050797" lat="51.289442"><ele>-11.4</ele><time>2022-06-19T08:30:29.000Z</time></trkpt><trkpt lon="6.050717" lat="51.289411"><ele>-11.4</ele><time>2022-06-19T08:30:30.000Z</time></trkpt><trkpt lon="6.050636" lat="51.289377"><ele>-11.6</ele><time>2022-06-19T08:30:31.000Z</time></trkpt><trkpt lon="6.050547" lat="51.289346"><ele>-11.6</ele><time>2022-06-19T08:30:32.000Z</time></trkpt><trkpt lon="6.050456" lat="51.289308"><ele>-11.6</ele><time>2022-06-19T08:30:33.000Z</time></trkpt><trkpt lon="6.050366" lat="51.28927"><ele>-11.4</ele><time>2022-06-19T08:30:34.000Z</time></trkpt><trkpt lon="6.050282" lat="51.289236"><ele>-11.4</ele><time>2022-06-19T08:30:35.000Z</time></trkpt><trkpt lon="6.050196" lat="51.289205"><ele>-11.4</ele><time>2022-06-19T08:30:36.000Z</time></trkpt><trkpt lon="6.050118" lat="51.289171"><ele>-11.2</ele><time>2022-06-19T08:30:37.000Z</time></trkpt><trkpt lon="6.050046" lat="51.289144"><ele>-11.2</ele><time>2022-06-19T08:30:38.000Z</time></trkpt><trkpt lon="6.049975" lat="51.289121"><ele>-11</ele><time>2022-06-19T08:30:39.000Z</time></trkpt><trkpt lon="6.049894" lat="51.289086"><ele>-11</ele><time>2022-06-19T08:30:40.000Z</time></trkpt><trkpt lon="6.049809" lat="51.289056"><ele>-11</ele><time>2022-06-19T08:30:41.000Z</time></trkpt><trkpt lon="6.049715" lat="51.289022"><ele>-11</ele><time>2022-06-19T08:30:42.000Z</time></trkpt><trkpt lon="6.049621" lat="51.288987"><ele>-11</ele><time>2022-06-19T08:30:43.000Z</time></trkpt><trkpt lon="6.04953" lat="51.288956"><ele>-11</ele><time>2022-06-19T08:30:44.000Z</time></trkpt><trkpt lon="6.049441" lat="51.288926"><ele>-11.2</ele><time>2022-06-19T08:30:45.000Z</time></trkpt><trkpt lon="6.049355" lat="51.288896"><ele>-11.2</ele><time>2022-06-19T08:30:46.000Z</time></trkpt><trkpt lon="6.049264" lat="51.288865"><ele>-11.2</ele><time>2022-06-19T08:30:47.000Z</time></trkpt><trkpt lon="6.049172" lat="51.288839"><ele>-11</ele><time>2022-06-19T08:30:48.000Z</time></trkpt><trkpt lon="6.049068" lat="51.288812"><ele>-11</ele><time>2022-06-19T08:30:49.000Z</time></trkpt><trkpt lon="6.048967" lat="51.288785"><ele>-11.2</ele><time>2022-06-19T08:30:50.000Z</time></trkpt><trkpt lon="6.048874" lat="51.288762"><ele>-11.2</ele><time>2022-06-19T08:30:51.000Z</time></trkpt><trkpt lon="6.048782" lat="51.288735"><ele>-11.2</ele><time>2022-06-19T08:30:52.000Z</time></trkpt><trkpt lon="6.04869" lat="51.288705"><ele>-11.2</ele><time>2022-06-19T08:30:53.000Z</time></trkpt><trkpt lon="6.048597" lat="51.288674"><ele>-11.2</ele><time>2022-06-19T08:30:54.000Z</time></trkpt><trkpt lon="6.048499" lat="51.28864"><ele>-11.4</ele><time>2022-06-19T08:30:55.000Z</time></trkpt><trkpt lon="6.048408" lat="51.28861"><ele>-11.4</ele><time>2022-06-19T08:30:56.000Z</time></trkpt><trkpt lon="6.048307" lat="51.288583"><ele>-11.4</ele><time>2022-06-19T08:30:57.000Z</time></trkpt><trkpt lon="6.048207" lat="51.288549"><ele>-11.6</ele><time>2022-06-19T08:30:58.000Z</time></trkpt><trkpt lon="6.048103" lat="51.288514"><ele>-11.6</ele><time>2022-06-19T08:30:59.000Z</time></trkpt><trkpt lon="6.048003" lat="51.288484"><ele>-11.4</ele><time>2022-06-19T08:31:00.000Z</time></trkpt><trkpt lon="6.047909" lat="51.288449"><ele>-11.6</ele><time>2022-06-19T08:31:01.000Z</time></trkpt><trkpt lon="6.047815" lat="51.288419"><ele>-11.6</ele><time>2022-06-19T08:31:02.000Z</time></trkpt><trkpt lon="6.047721" lat="51.288384"><ele>-11.6</ele><time>2022-06-19T08:31:03.000Z</time></trkpt><trkpt lon="6.047626" lat="51.288354"><ele>-11.8</ele><time>2022-06-19T08:31:04.000Z</time></trkpt><trkpt lon="6.047536" lat="51.288327"><ele>-11.8</ele><time>2022-06-19T08:31:05.000Z</time></trkpt><trkpt lon="6.047451" lat="51.288297"><ele>-12</ele><time>2022-06-19T08:31:06.000Z</time></trkpt><trkpt lon="6.04737" lat="51.288266"><ele>-12.2</ele><time>2022-06-19T08:31:07.000Z</time></trkpt><trkpt lon="6.047296" lat="51.288239"><ele>-12.4</ele><time>2022-06-19T08:31:08.000Z</time></trkpt><trkpt lon="6.047218" lat="51.288212"><ele>-12.6</ele><time>2022-06-19T08:31:09.000Z</time></trkpt><trkpt lon="6.047142" lat="51.288186"><ele>-12.6</ele><time>2022-06-19T08:31:10.000Z</time></trkpt><trkpt lon="6.04707" lat="51.288159"><ele>-12.8</ele><time>2022-06-19T08:31:11.000Z</time></trkpt><trkpt lon="6.046992" lat="51.288132"><ele>-12.8</ele><time>2022-06-19T08:31:12.000Z</time></trkpt><trkpt lon="6.046901" lat="51.288106"><ele>-13</ele><time>2022-06-19T08:31:13.000Z</time></trkpt><trkpt lon="6.046814" lat="51.288075"><ele>-13.2</ele><time>2022-06-19T08:31:14.000Z</time></trkpt><trkpt lon="6.04672" lat="51.288063"><ele>-13.4</ele><time>2022-06-19T08:31:15.000Z</time></trkpt><trkpt lon="6.046624" lat="51.288063"><ele>-13.6</ele><time>2022-06-19T08:31:16.000Z</time></trkpt><trkpt lon="6.046528" lat="51.288056"><ele>-13.6</ele><time>2022-06-19T08:31:17.000Z</time></trkpt><trkpt lon="6.046444" lat="51.288048"><ele>-13.8</ele><time>2022-06-19T08:31:18.000Z</time></trkpt><trkpt lon="6.046357" lat="51.288031"><ele>-13.8</ele><time>2022-06-19T08:31:19.000Z</time></trkpt><trkpt lon="6.046262" lat="51.28801"><ele>-13.6</ele><time>2022-06-19T08:31:20.000Z</time></trkpt><trkpt lon="6.046175" lat="51.287987"><ele>-13.4</ele><time>2022-06-19T08:31:21.000Z</time></trkpt><trkpt lon="6.046088" lat="51.287954"><ele>-13</ele><time>2022-06-19T08:31:22.000Z</time></trkpt><trkpt lon="6.046008" lat="51.287917"><ele>-12.8</ele><time>2022-06-19T08:31:23.000Z</time></trkpt><trkpt lon="6.045932" lat="51.287882"><ele>-12.6</ele><time>2022-06-19T08:31:24.000Z</time></trkpt><trkpt lon="6.045833" lat="51.287839"><ele>-12.6</ele><time>2022-06-19T08:31:25.000Z</time></trkpt><trkpt lon="6.045749" lat="51.287801"><ele>-12.4</ele><time>2022-06-19T08:31:26.000Z</time></trkpt><trkpt lon="6.045669" lat="51.287766"><ele>-12.4</ele><time>2022-06-19T08:31:27.000Z</time></trkpt><trkpt lon="6.045597" lat="51.287728"><ele>-12.2</ele><time>2022-06-19T08:31:28.000Z</time></trkpt><trkpt lon="6.045534" lat="51.287683"><ele>-12.2</ele><time>2022-06-19T08:31:29.000Z</time></trkpt><trkpt lon="6.045484" lat="51.28763"><ele>-12.2</ele><time>2022-06-19T08:31:30.000Z</time></trkpt><trkpt lon="6.045432" lat="51.287576"><ele>-12.2</ele><time>2022-06-19T08:31:31.000Z</time></trkpt><trkpt lon="6.045365" lat="51.287523"><ele>-12.2</ele><time>2022-06-19T08:31:32.000Z</time></trkpt><trkpt lon="6.045291" lat="51.287477"><ele>-12</ele><time>2022-06-19T08:31:33.000Z</time></trkpt><trkpt lon="6.045213" lat="51.287431"><ele>-11.8</ele><time>2022-06-19T08:31:34.000Z</time></trkpt><trkpt lon="6.045136" lat="51.287389"><ele>-11.8</ele><time>2022-06-19T08:31:35.000Z</time></trkpt><trkpt lon="6.045055" lat="51.287343"><ele>-11.8</ele><time>2022-06-19T08:31:36.000Z</time></trkpt><trkpt lon="6.044979" lat="51.287301"><ele>-11.8</ele><time>2022-06-19T08:31:37.000Z</time></trkpt><trkpt lon="6.044903" lat="51.287257"><ele>-11.6</ele><time>2022-06-19T08:31:38.000Z</time></trkpt><trkpt lon="6.044822" lat="51.28721"><ele>-11.8</ele><time>2022-06-19T08:31:39.000Z</time></trkpt><trkpt lon="6.044743" lat="51.287164"><ele>-11.8</ele><time>2022-06-19T08:31:40.000Z</time></trkpt><trkpt lon="6.044666" lat="51.287122"><ele>-12</ele><time>2022-06-19T08:31:41.000Z</time></trkpt><trkpt lon="6.044588" lat="51.287076"><ele>-12</ele><time>2022-06-19T08:31:42.000Z</time></trkpt><trkpt lon="6.04451" lat="51.287027"><ele>-12</ele><time>2022-06-19T08:31:43.000Z</time></trkpt><trkpt lon="6.044434" lat="51.286981"><ele>-12.2</ele><time>2022-06-19T08:31:44.000Z</time></trkpt><trkpt lon="6.044354" lat="51.286932"><ele>-12.2</ele><time>2022-06-19T08:31:45.000Z</time></trkpt><trkpt lon="6.044272" lat="51.286879"><ele>-12.4</ele><time>2022-06-19T08:31:46.000Z</time></trkpt><trkpt lon="6.044188" lat="51.286829"><ele>-12.6</ele><time>2022-06-19T08:31:47.000Z</time></trkpt><trkpt lon="6.044101" lat="51.286779"><ele>-12.6</ele><time>2022-06-19T08:31:48.000Z</time></trkpt><trkpt lon="6.044015" lat="51.28673"><ele>-12.6</ele><time>2022-06-19T08:31:49.000Z</time></trkpt><trkpt lon="6.043929" lat="51.28668"><ele>-12.8</ele><time>2022-06-19T08:31:50.000Z</time></trkpt><trkpt lon="6.043841" lat="51.28663"><ele>-12.6</ele><time>2022-06-19T08:31:51.000Z</time></trkpt><trkpt lon="6.043752" lat="51.286581"><ele>-12.6</ele><time>2022-06-19T08:31:52.000Z</time></trkpt><trkpt lon="6.043667" lat="51.286532"><ele>-12.6</ele><time>2022-06-19T08:31:53.000Z</time></trkpt><trkpt lon="6.043578" lat="51.286482"><ele>-12.8</ele><time>2022-06-19T08:31:54.000Z</time></trkpt><trkpt lon="6.043495" lat="51.286436"><ele>-12.8</ele><time>2022-06-19T08:31:55.000Z</time></trkpt><trkpt lon="6.043413" lat="51.286387"><ele>-13</ele><time>2022-06-19T08:31:56.000Z</time></trkpt><trkpt lon="6.043329" lat="51.286337"><ele>-13.2</ele><time>2022-06-19T08:31:57.000Z</time></trkpt><trkpt lon="6.043242" lat="51.286291"><ele>-13.2</ele><time>2022-06-19T08:31:58.000Z</time></trkpt><trkpt lon="6.043157" lat="51.286245"><ele>-13.2</ele><time>2022-06-19T08:31:59.000Z</time></trkpt><trkpt lon="6.043073" lat="51.286196"><ele>-13.2</ele><time>2022-06-19T08:32:00.000Z</time></trkpt><trkpt lon="6.042991" lat="51.28615"><ele>-13.2</ele><time>2022-06-19T08:32:01.000Z</time></trkpt><trkpt lon="6.042911" lat="51.2861"><ele>-13.2</ele><time>2022-06-19T08:32:02.000Z</time></trkpt><trkpt lon="6.042831" lat="51.286054"><ele>-13.2</ele><time>2022-06-19T08:32:03.000Z</time></trkpt><trkpt lon="6.042755" lat="51.286005"><ele>-13.2</ele><time>2022-06-19T08:32:04.000Z</time></trkpt><trkpt lon="6.042683" lat="51.28596"><ele>-13.2</ele><time>2022-06-19T08:32:05.000Z</time></trkpt><trkpt lon="6.04261" lat="51.285917"><ele>-13.2</ele><time>2022-06-19T08:32:06.000Z</time></trkpt><trkpt lon="6.042537" lat="51.285871"><ele>-13.2</ele><time>2022-06-19T08:32:07.000Z</time></trkpt><trkpt lon="6.042464" lat="51.285829"><ele>-13.2</ele><time>2022-06-19T08:32:08.000Z</time></trkpt><trkpt lon="6.042392" lat="51.285784"><ele>-13.2</ele><time>2022-06-19T08:32:09.000Z</time></trkpt><trkpt lon="6.042317" lat="51.285741"><ele>-13.2</ele><time>2022-06-19T08:32:10.000Z</time></trkpt><trkpt lon="6.04224" lat="51.2857"><ele>-13.2</ele><time>2022-06-19T08:32:11.000Z</time></trkpt><trkpt lon="6.04216" lat="51.285654"><ele>-13.2</ele><time>2022-06-19T08:32:12.000Z</time></trkpt><trkpt lon="6.042079" lat="51.285612"><ele>-13.2</ele><time>2022-06-19T08:32:13.000Z</time></trkpt><trkpt lon="6.041998" lat="51.285566"><ele>-13.2</ele><time>2022-06-19T08:32:14.000Z</time></trkpt><trkpt lon="6.041915" lat="51.285517"><ele>-13.2</ele><time>2022-06-19T08:32:15.000Z</time></trkpt><trkpt lon="6.041831" lat="51.285471"><ele>-13.4</ele><time>2022-06-19T08:32:16.000Z</time></trkpt><trkpt lon="6.041746" lat="51.285425"><ele>-13.4</ele><time>2022-06-19T08:32:17.000Z</time></trkpt><trkpt lon="6.041656" lat="51.285379"><ele>-13.6</ele><time>2022-06-19T08:32:18.000Z</time></trkpt><trkpt lon="6.04157" lat="51.285333"><ele>-13.6</ele><time>2022-06-19T08:32:19.000Z</time></trkpt><trkpt lon="6.041489" lat="51.285291"><ele>-13.8</ele><time>2022-06-19T08:32:20.000Z</time></trkpt><trkpt lon="6.041406" lat="51.285245"><ele>-13.8</ele><time>2022-06-19T08:32:21.000Z</time></trkpt><trkpt lon="6.041325" lat="51.2852"><ele>-14</ele><time>2022-06-19T08:32:22.000Z</time></trkpt><trkpt lon="6.041246" lat="51.285155"><ele>-14.2</ele><time>2022-06-19T08:32:23.000Z</time></trkpt><trkpt lon="6.041164" lat="51.285112"><ele>-14.4</ele><time>2022-06-19T08:32:24.000Z</time></trkpt><trkpt lon="6.041087" lat="51.28507"><ele>-14.4</ele><time>2022-06-19T08:32:25.000Z</time></trkpt><trkpt lon="6.041006" lat="51.285032"><ele>-14.6</ele><time>2022-06-19T08:32:26.000Z</time></trkpt><trkpt lon="6.040928" lat="51.28499"><ele>-14.8</ele><time>2022-06-19T08:32:27.000Z</time></trkpt><trkpt lon="6.040844" lat="51.284948"><ele>-14.8</ele><time>2022-06-19T08:32:28.000Z</time></trkpt><trkpt lon="6.040757" lat="51.284904"><ele>-15</ele><time>2022-06-19T08:32:29.000Z</time></trkpt><trkpt lon="6.040667" lat="51.284857"><ele>-15.2</ele><time>2022-06-19T08:32:30.000Z</time></trkpt><trkpt lon="6.040578" lat="51.284803"><ele>-15.2</ele><time>2022-06-19T08:32:31.000Z</time></trkpt><trkpt lon="6.040487" lat="51.284754"><ele>-15.2</ele><time>2022-06-19T08:32:32.000Z</time></trkpt><trkpt lon="6.040395" lat="51.284708"><ele>-15.2</ele><time>2022-06-19T08:32:33.000Z</time></trkpt><trkpt lon="6.040302" lat="51.284659"><ele>-15.4</ele><time>2022-06-19T08:32:34.000Z</time></trkpt><trkpt lon="6.040205" lat="51.284609"><ele>-15.4</ele><time>2022-06-19T08:32:35.000Z</time></trkpt><trkpt lon="6.040109" lat="51.284559"><ele>-15.4</ele><time>2022-06-19T08:32:36.000Z</time></trkpt><trkpt lon="6.040015" lat="51.28451"><ele>-15.6</ele><time>2022-06-19T08:32:37.000Z</time></trkpt><trkpt lon="6.039918" lat="51.28446"><ele>-15.6</ele><time>2022-06-19T08:32:38.000Z</time></trkpt><trkpt lon="6.039826" lat="51.284414"><ele>-16</ele><time>2022-06-19T08:32:39.000Z</time></trkpt><trkpt lon="6.039731" lat="51.284364"><ele>-16</ele><time>2022-06-19T08:32:40.000Z</time></trkpt><trkpt lon="6.03964" lat="51.284319"><ele>-16</ele><time>2022-06-19T08:32:41.000Z</time></trkpt><trkpt lon="6.039548" lat="51.284269"><ele>-16</ele><time>2022-06-19T08:32:42.000Z</time></trkpt><trkpt lon="6.039458" lat="51.28422"><ele>-16</ele><time>2022-06-19T08:32:43.000Z</time></trkpt><trkpt lon="6.039368" lat="51.28417"><ele>-16</ele><time>2022-06-19T08:32:44.000Z</time></trkpt><trkpt lon="6.039278" lat="51.284126"><ele>-16</ele><time>2022-06-19T08:32:45.000Z</time></trkpt><trkpt lon="6.039179" lat="51.284078"><ele>-16.2</ele><time>2022-06-19T08:32:46.000Z</time></trkpt><trkpt lon="6.039081" lat="51.284033"><ele>-16.2</ele><time>2022-06-19T08:32:47.000Z</time></trkpt><trkpt lon="6.03899" lat="51.283993"><ele>-16.2</ele><time>2022-06-19T08:32:48.000Z</time></trkpt><trkpt lon="6.038891" lat="51.283944"><ele>-16.2</ele><time>2022-06-19T08:32:49.000Z</time></trkpt><trkpt lon="6.038796" lat="51.283902"><ele>-16.2</ele><time>2022-06-19T08:32:50.000Z</time></trkpt><trkpt lon="6.038699" lat="51.28386"><ele>-16.2</ele><time>2022-06-19T08:32:51.000Z</time></trkpt><trkpt lon="6.038607" lat="51.283822"><ele>-16.2</ele><time>2022-06-19T08:32:52.000Z</time></trkpt><trkpt lon="6.038516" lat="51.283781"><ele>-16.2</ele><time>2022-06-19T08:32:53.000Z</time></trkpt><trkpt lon="6.038428" lat="51.283739"><ele>-16.2</ele><time>2022-06-19T08:32:54.000Z</time></trkpt><trkpt lon="6.038339" lat="51.283701"><ele>-16.2</ele><time>2022-06-19T08:32:55.000Z</time></trkpt><trkpt lon="6.038255" lat="51.283663"><ele>-16</ele><time>2022-06-19T08:32:56.000Z</time></trkpt><trkpt lon="6.038166" lat="51.283628"><ele>-16</ele><time>2022-06-19T08:32:57.000Z</time></trkpt><trkpt lon="6.038075" lat="51.28359"><ele>-16</ele><time>2022-06-19T08:32:58.000Z</time></trkpt><trkpt lon="6.037984" lat="51.283559"><ele>-16</ele><time>2022-06-19T08:32:59.000Z</time></trkpt><trkpt lon="6.037895" lat="51.283532"><ele>-15.8</ele><time>2022-06-19T08:33:00.000Z</time></trkpt><trkpt lon="6.037818" lat="51.283511"><ele>-15.8</ele><time>2022-06-19T08:33:01.000Z</time></trkpt><trkpt lon="6.037709" lat="51.283476"><ele>-15.4</ele><time>2022-06-19T08:33:02.000Z</time></trkpt><trkpt lon="6.037614" lat="51.283452"><ele>-15.4</ele><time>2022-06-19T08:33:03.000Z</time></trkpt><trkpt lon="6.037519" lat="51.283425"><ele>-15.2</ele><time>2022-06-19T08:33:04.000Z</time></trkpt><trkpt lon="6.037422" lat="51.283395"><ele>-15.2</ele><time>2022-06-19T08:33:05.000Z</time></trkpt><trkpt lon="6.037327" lat="51.283368"><ele>-15</ele><time>2022-06-19T08:33:06.000Z</time></trkpt><trkpt lon="6.037234" lat="51.283345"><ele>-14.8</ele><time>2022-06-19T08:33:07.000Z</time></trkpt><trkpt lon="6.037144" lat="51.283315"><ele>-14.6</ele><time>2022-06-19T08:33:08.000Z</time></trkpt><trkpt lon="6.037054" lat="51.283288"><ele>-14.4</ele><time>2022-06-19T08:33:09.000Z</time></trkpt><trkpt lon="6.036974" lat="51.283265"><ele>-14.2</ele><time>2022-06-19T08:33:10.000Z</time></trkpt><trkpt lon="6.036892" lat="51.283239"><ele>-14</ele><time>2022-06-19T08:33:11.000Z</time></trkpt><trkpt lon="6.036809" lat="51.283211"><ele>-13.8</ele><time>2022-06-19T08:33:12.000Z</time></trkpt><trkpt lon="6.036726" lat="51.283189"><ele>-13.6</ele><time>2022-06-19T08:33:13.000Z</time></trkpt><trkpt lon="6.036642" lat="51.283158"><ele>-13.6</ele><time>2022-06-19T08:33:14.000Z</time></trkpt><trkpt lon="6.03656" lat="51.283128"><ele>-13.4</ele><time>2022-06-19T08:33:15.000Z</time></trkpt><trkpt lon="6.036478" lat="51.283101"><ele>-13.2</ele><time>2022-06-19T08:33:16.000Z</time></trkpt><trkpt lon="6.036396" lat="51.283074"><ele>-13.2</ele><time>2022-06-19T08:33:17.000Z</time></trkpt><trkpt lon="6.036317" lat="51.283049"><ele>-13</ele><time>2022-06-19T08:33:18.000Z</time></trkpt><trkpt lon="6.036234" lat="51.283018"><ele>-12.8</ele><time>2022-06-19T08:33:19.000Z</time></trkpt><trkpt lon="6.036154" lat="51.282983"><ele>-12.6</ele><time>2022-06-19T08:33:20.000Z</time></trkpt><trkpt lon="6.036079" lat="51.282956"><ele>-12.6</ele><time>2022-06-19T08:33:21.000Z</time></trkpt><trkpt lon="6.036006" lat="51.282918"><ele>-12.4</ele><time>2022-06-19T08:33:22.000Z</time></trkpt><trkpt lon="6.035945" lat="51.282884"><ele>-12.2</ele><time>2022-06-19T08:33:23.000Z</time></trkpt><trkpt lon="6.035885" lat="51.28285"><ele>-12</ele><time>2022-06-19T08:33:24.000Z</time></trkpt><trkpt lon="6.035826" lat="51.282819"><ele>-11.8</ele><time>2022-06-19T08:33:25.000Z</time></trkpt><trkpt lon="6.035783" lat="51.282787"><ele>-11.8</ele><time>2022-06-19T08:33:26.000Z</time></trkpt><trkpt lon="6.035728" lat="51.282743"><ele>-11.8</ele><time>2022-06-19T08:33:27.000Z</time></trkpt><trkpt lon="6.03567" lat="51.282706"><ele>-11.8</ele><time>2022-06-19T08:33:28.000Z</time></trkpt><trkpt lon="6.035615" lat="51.282662"><ele>-11.8</ele><time>2022-06-19T08:33:29.000Z</time></trkpt><trkpt lon="6.03556" lat="51.282621"><ele>-12</ele><time>2022-06-19T08:33:30.000Z</time></trkpt><trkpt lon="6.035503" lat="51.282576"><ele>-12</ele><time>2022-06-19T08:33:31.000Z</time></trkpt><trkpt lon="6.035445" lat="51.28253"><ele>-12.2</ele><time>2022-06-19T08:33:32.000Z</time></trkpt><trkpt lon="6.035372" lat="51.28248"><ele>-12.4</ele><time>2022-06-19T08:33:33.000Z</time></trkpt><trkpt lon="6.035308" lat="51.28243"><ele>-12.4</ele><time>2022-06-19T08:33:34.000Z</time></trkpt><trkpt lon="6.035251" lat="51.28238"><ele>-12.4</ele><time>2022-06-19T08:33:35.000Z</time></trkpt><trkpt lon="6.035195" lat="51.282331"><ele>-12.2</ele><time>2022-06-19T08:33:36.000Z</time></trkpt><trkpt lon="6.035132" lat="51.282285"><ele>-12.2</ele><time>2022-06-19T08:33:37.000Z</time></trkpt><trkpt lon="6.035043" lat="51.282229"><ele>-12.2</ele><time>2022-06-19T08:33:38.000Z</time></trkpt><trkpt lon="6.034968" lat="51.282175"><ele>-12.2</ele><time>2022-06-19T08:33:39.000Z</time></trkpt><trkpt lon="6.034865" lat="51.282125"><ele>-12.4</ele><time>2022-06-19T08:33:40.000Z</time></trkpt><trkpt lon="6.034766" lat="51.282075"><ele>-12.6</ele><time>2022-06-19T08:33:41.000Z</time></trkpt><trkpt lon="6.034676" lat="51.282026"><ele>-12.8</ele><time>2022-06-19T08:33:42.000Z</time></trkpt><trkpt lon="6.034588" lat="51.281977"><ele>-13</ele><time>2022-06-19T08:33:43.000Z</time></trkpt><trkpt lon="6.034506" lat="51.281928"><ele>-13.2</ele><time>2022-06-19T08:33:44.000Z</time></trkpt><trkpt lon="6.034409" lat="51.281873"><ele>-13.2</ele><time>2022-06-19T08:33:45.000Z</time></trkpt><trkpt lon="6.034331" lat="51.281832"><ele>-13.2</ele><time>2022-06-19T08:33:46.000Z</time></trkpt><trkpt lon="6.034244" lat="51.281778"><ele>-13.4</ele><time>2022-06-19T08:33:47.000Z</time></trkpt><trkpt lon="6.034152" lat="51.281725"><ele>-13.4</ele><time>2022-06-19T08:33:48.000Z</time></trkpt><trkpt lon="6.034061" lat="51.281671"><ele>-13.4</ele><time>2022-06-19T08:33:49.000Z</time></trkpt><trkpt lon="6.033966" lat="51.281614"><ele>-13.4</ele><time>2022-06-19T08:33:50.000Z</time></trkpt><trkpt lon="6.033883" lat="51.281553"><ele>-13.4</ele><time>2022-06-19T08:33:51.000Z</time></trkpt><trkpt lon="6.033797" lat="51.281493"><ele>-13.4</ele><time>2022-06-19T08:33:52.000Z</time></trkpt><trkpt lon="6.033731" lat="51.28144"><ele>-13.6</ele><time>2022-06-19T08:33:53.000Z</time></trkpt><trkpt lon="6.033656" lat="51.281383"><ele>-13.8</ele><time>2022-06-19T08:33:54.000Z</time></trkpt><trkpt lon="6.033569" lat="51.281319"><ele>-14.2</ele><time>2022-06-19T08:33:55.000Z</time></trkpt><trkpt lon="6.033488" lat="51.281264"><ele>-14.4</ele><time>2022-06-19T08:33:56.000Z</time></trkpt><trkpt lon="6.03339" lat="51.281199"><ele>-14.6</ele><time>2022-06-19T08:33:57.000Z</time></trkpt><trkpt lon="6.033307" lat="51.281142"><ele>-14.8</ele><time>2022-06-19T08:33:58.000Z</time></trkpt><trkpt lon="6.033215" lat="51.281087"><ele>-14.8</ele><time>2022-06-19T08:33:59.000Z</time></trkpt><trkpt lon="6.033127" lat="51.281034"><ele>-15</ele><time>2022-06-19T08:34:00.000Z</time></trkpt><trkpt lon="6.033048" lat="51.280984"><ele>-15.2</ele><time>2022-06-19T08:34:01.000Z</time></trkpt><trkpt lon="6.032966" lat="51.280931"><ele>-15.4</ele><time>2022-06-19T08:34:02.000Z</time></trkpt><trkpt lon="6.032889" lat="51.280882"><ele>-15.4</ele><time>2022-06-19T08:34:03.000Z</time></trkpt><trkpt lon="6.032819" lat="51.280834"><ele>-15.4</ele><time>2022-06-19T08:34:04.000Z</time></trkpt><trkpt lon="6.032754" lat="51.280787"><ele>-15.4</ele><time>2022-06-19T08:34:05.000Z</time></trkpt><trkpt lon="6.03269" lat="51.280742"><ele>-15.6</ele><time>2022-06-19T08:34:06.000Z</time></trkpt><trkpt lon="6.032619" lat="51.280699"><ele>-15.6</ele><time>2022-06-19T08:34:07.000Z</time></trkpt><trkpt lon="6.032551" lat="51.280658"><ele>-15.8</ele><time>2022-06-19T08:34:08.000Z</time></trkpt><trkpt lon="6.032477" lat="51.280614"><ele>-15.8</ele><time>2022-06-19T08:34:09.000Z</time></trkpt><trkpt lon="6.03241" lat="51.280568"><ele>-15.8</ele><time>2022-06-19T08:34:10.000Z</time></trkpt><trkpt lon="6.032351" lat="51.280527"><ele>-15.6</ele><time>2022-06-19T08:34:11.000Z</time></trkpt><trkpt lon="6.03229" lat="51.280477"><ele>-15.6</ele><time>2022-06-19T08:34:12.000Z</time></trkpt><trkpt lon="6.032232" lat="51.280432"><ele>-15.6</ele><time>2022-06-19T08:34:13.000Z</time></trkpt><trkpt lon="6.032176" lat="51.280389"><ele>-15.8</ele><time>2022-06-19T08:34:14.000Z</time></trkpt><trkpt lon="6.032115" lat="51.28034"><ele>-15.8</ele><time>2022-06-19T08:34:15.000Z</time></trkpt><trkpt lon="6.032057" lat="51.280287"><ele>-15.8</ele><time>2022-06-19T08:34:16.000Z</time></trkpt><trkpt lon="6.031995" lat="51.280244"><ele>-15.8</ele><time>2022-06-19T08:34:17.000Z</time></trkpt><trkpt lon="6.031936" lat="51.280208"><ele>-15.8</ele><time>2022-06-19T08:34:18.000Z</time></trkpt><trkpt lon="6.031876" lat="51.280169"><ele>-15.6</ele><time>2022-06-19T08:34:19.000Z</time></trkpt><trkpt lon="6.031818" lat="51.280134"><ele>-15.6</ele><time>2022-06-19T08:34:20.000Z</time></trkpt><trkpt lon="6.03175" lat="51.280088"><ele>-15.6</ele><time>2022-06-19T08:34:21.000Z</time></trkpt><trkpt lon="6.031675" lat="51.280034"><ele>-15.6</ele><time>2022-06-19T08:34:22.000Z</time></trkpt><trkpt lon="6.031615" lat="51.279985"><ele>-15.6</ele><time>2022-06-19T08:34:23.000Z</time></trkpt><trkpt lon="6.031562" lat="51.279943"><ele>-15.4</ele><time>2022-06-19T08:34:24.000Z</time></trkpt><trkpt lon="6.031512" lat="51.279905"><ele>-15.4</ele><time>2022-06-19T08:34:25.000Z</time></trkpt><trkpt lon="6.031466" lat="51.27987"><ele>-15.6</ele><time>2022-06-19T08:34:26.000Z</time></trkpt><trkpt lon="6.031415" lat="51.279828"><ele>-15.6</ele><time>2022-06-19T08:34:27.000Z</time></trkpt><trkpt lon="6.031337" lat="51.279791"><ele>-15.6</ele><time>2022-06-19T08:34:28.000Z</time></trkpt><trkpt lon="6.031272" lat="51.279744"><ele>-15.4</ele><time>2022-06-19T08:34:29.000Z</time></trkpt><trkpt lon="6.031223" lat="51.279704"><ele>-15.4</ele><time>2022-06-19T08:34:30.000Z</time></trkpt><trkpt lon="6.031142" lat="51.279664"><ele>-15.2</ele><time>2022-06-19T08:34:31.000Z</time></trkpt><trkpt lon="6.031061" lat="51.279623"><ele>-15.2</ele><time>2022-06-19T08:34:32.000Z</time></trkpt><trkpt lon="6.030994" lat="51.279574"><ele>-15.2</ele><time>2022-06-19T08:34:33.000Z</time></trkpt><trkpt lon="6.030941" lat="51.279538"><ele>-15</ele><time>2022-06-19T08:34:34.000Z</time></trkpt><trkpt lon="6.030891" lat="51.279505"><ele>-14.8</ele><time>2022-06-19T08:34:35.000Z</time></trkpt><trkpt lon="6.030822" lat="51.27947"><ele>-14.6</ele><time>2022-06-19T08:34:36.000Z</time></trkpt><trkpt lon="6.030762" lat="51.279435"><ele>-14.6</ele><time>2022-06-19T08:34:37.000Z</time></trkpt><trkpt lon="6.030699" lat="51.279403"><ele>-14.6</ele><time>2022-06-19T08:34:38.000Z</time></trkpt><trkpt lon="6.030637" lat="51.279363"><ele>-14.6</ele><time>2022-06-19T08:34:39.000Z</time></trkpt><trkpt lon="6.030572" lat="51.279321"><ele>-14.6</ele><time>2022-06-19T08:34:40.000Z</time></trkpt><trkpt lon="6.030469" lat="51.279261"><ele>-14.6</ele><time>2022-06-19T08:34:41.000Z</time></trkpt><trkpt lon="6.030361" lat="51.279181"><ele>-14.6</ele><time>2022-06-19T08:34:42.000Z</time></trkpt><trkpt lon="6.030278" lat="51.279113"><ele>-14.6</ele><time>2022-06-19T08:34:43.000Z</time></trkpt><trkpt lon="6.030191" lat="51.279032"><ele>-14.8</ele><time>2022-06-19T08:34:44.000Z</time></trkpt><trkpt lon="6.030105" lat="51.278953"><ele>-15</ele><time>2022-06-19T08:34:45.000Z</time></trkpt><trkpt lon="6.030013" lat="51.278861"><ele>-15.2</ele><time>2022-06-19T08:34:46.000Z</time></trkpt><trkpt lon="6.029937" lat="51.278788"><ele>-15.2</ele><time>2022-06-19T08:34:47.000Z</time></trkpt><trkpt lon="6.029865" lat="51.27871"><ele>-15.2</ele><time>2022-06-19T08:34:48.000Z</time></trkpt><trkpt lon="6.029801" lat="51.278639"><ele>-15.2</ele><time>2022-06-19T08:34:49.000Z</time></trkpt><trkpt lon="6.029737" lat="51.27857"><ele>-15.4</ele><time>2022-06-19T08:34:50.000Z</time></trkpt><trkpt lon="6.029685" lat="51.278502"><ele>-15.4</ele><time>2022-06-19T08:34:51.000Z</time></trkpt><trkpt lon="6.029628" lat="51.278436"><ele>-15.4</ele><time>2022-06-19T08:34:52.000Z</time></trkpt><trkpt lon="6.029561" lat="51.278361"><ele>-15.6</ele><time>2022-06-19T08:34:53.000Z</time></trkpt><trkpt lon="6.029502" lat="51.278299"><ele>-15.6</ele><time>2022-06-19T08:34:54.000Z</time></trkpt><trkpt lon="6.029436" lat="51.278225"><ele>-15.6</ele><time>2022-06-19T08:34:55.000Z</time></trkpt><trkpt lon="6.029375" lat="51.278158"><ele>-15.6</ele><time>2022-06-19T08:34:56.000Z</time></trkpt><trkpt lon="6.02931" lat="51.278082"><ele>-15.8</ele><time>2022-06-19T08:34:57.000Z</time></trkpt><trkpt lon="6.029247" lat="51.278006"><ele>-15.8</ele><time>2022-06-19T08:34:58.000Z</time></trkpt><trkpt lon="6.029168" lat="51.277918"><ele>-15.8</ele><time>2022-06-19T08:34:59.000Z</time></trkpt><trkpt lon="6.029099" lat="51.277831"><ele>-16</ele><time>2022-06-19T08:35:00.000Z</time></trkpt><trkpt lon="6.029031" lat="51.277751"><ele>-16.2</ele><time>2022-06-19T08:35:01.000Z</time></trkpt><trkpt lon="6.028968" lat="51.277675"><ele>-16.2</ele><time>2022-06-19T08:35:02.000Z</time></trkpt><trkpt lon="6.028907" lat="51.277603"><ele>-16.4</ele><time>2022-06-19T08:35:03.000Z</time></trkpt><trkpt lon="6.02884" lat="51.277529"><ele>-16.4</ele><time>2022-06-19T08:35:04.000Z</time></trkpt><trkpt lon="6.028774" lat="51.277456"><ele>-16.4</ele><time>2022-06-19T08:35:05.000Z</time></trkpt><trkpt lon="6.028708" lat="51.277392"><ele>-16.2</ele><time>2022-06-19T08:35:06.000Z</time></trkpt><trkpt lon="6.028634" lat="51.277327"><ele>-16.2</ele><time>2022-06-19T08:35:07.000Z</time></trkpt><trkpt lon="6.028561" lat="51.277268"><ele>-16.2</ele><time>2022-06-19T08:35:08.000Z</time></trkpt><trkpt lon="6.028477" lat="51.277209"><ele>-16.2</ele><time>2022-06-19T08:35:09.000Z</time></trkpt><trkpt lon="6.028402" lat="51.277159"><ele>-16</ele><time>2022-06-19T08:35:10.000Z</time></trkpt><trkpt lon="6.028328" lat="51.277111"><ele>-16</ele><time>2022-06-19T08:35:11.000Z</time></trkpt><trkpt lon="6.028251" lat="51.277059"><ele>-15.8</ele><time>2022-06-19T08:35:12.000Z</time></trkpt><trkpt lon="6.028177" lat="51.277009"><ele>-16</ele><time>2022-06-19T08:35:13.000Z</time></trkpt><trkpt lon="6.028103" lat="51.276956"><ele>-16</ele><time>2022-06-19T08:35:14.000Z</time></trkpt><trkpt lon="6.028031" lat="51.276907"><ele>-16</ele><time>2022-06-19T08:35:15.000Z</time></trkpt><trkpt lon="6.027958" lat="51.276853"><ele>-15.8</ele><time>2022-06-19T08:35:16.000Z</time></trkpt><trkpt lon="6.027887" lat="51.2768"><ele>-15.8</ele><time>2022-06-19T08:35:17.000Z</time></trkpt><trkpt lon="6.027813" lat="51.276747"><ele>-15.8</ele><time>2022-06-19T08:35:18.000Z</time></trkpt><trkpt lon="6.027742" lat="51.276693"><ele>-15.8</ele><time>2022-06-19T08:35:19.000Z</time></trkpt><trkpt lon="6.02767" lat="51.276643"><ele>-15.8</ele><time>2022-06-19T08:35:20.000Z</time></trkpt><trkpt lon="6.027603" lat="51.276601"><ele>-15.6</ele><time>2022-06-19T08:35:21.000Z</time></trkpt><trkpt lon="6.02754" lat="51.276555"><ele>-15.4</ele><time>2022-06-19T08:35:22.000Z</time></trkpt><trkpt lon="6.027483" lat="51.276513"><ele>-15</ele><time>2022-06-19T08:35:23.000Z</time></trkpt><trkpt lon="6.027413" lat="51.276471"><ele>-15</ele><time>2022-06-19T08:35:24.000Z</time></trkpt><trkpt lon="6.027348" lat="51.276433"><ele>-14.8</ele><time>2022-06-19T08:35:25.000Z</time></trkpt><trkpt lon="6.027278" lat="51.276396"><ele>-14.8</ele><time>2022-06-19T08:35:26.000Z</time></trkpt><trkpt lon="6.0272" lat="51.276353"><ele>-14.8</ele><time>2022-06-19T08:35:27.000Z</time></trkpt><trkpt lon="6.027126" lat="51.276318"><ele>-14.8</ele><time>2022-06-19T08:35:28.000Z</time></trkpt><trkpt lon="6.027044" lat="51.27628"><ele>-14.6</ele><time>2022-06-19T08:35:29.000Z</time></trkpt><trkpt lon="6.02697" lat="51.276246"><ele>-14.6</ele><time>2022-06-19T08:35:30.000Z</time></trkpt><trkpt lon="6.026892" lat="51.276213"><ele>-14.6</ele><time>2022-06-19T08:35:31.000Z</time></trkpt><trkpt lon="6.026821" lat="51.276178"><ele>-14.6</ele><time>2022-06-19T08:35:32.000Z</time></trkpt><trkpt lon="6.026741" lat="51.276157"><ele>-14.6</ele><time>2022-06-19T08:35:33.000Z</time></trkpt><trkpt lon="6.026656" lat="51.276121"><ele>-14.6</ele><time>2022-06-19T08:35:34.000Z</time></trkpt><trkpt lon="6.02657" lat="51.276089"><ele>-14.6</ele><time>2022-06-19T08:35:35.000Z</time></trkpt><trkpt lon="6.026463" lat="51.276056"><ele>-14.4</ele><time>2022-06-19T08:35:36.000Z</time></trkpt><trkpt lon="6.026377" lat="51.276025"><ele>-14.4</ele><time>2022-06-19T08:35:37.000Z</time></trkpt><trkpt lon="6.026299" lat="51.275995"><ele>-14.2</ele><time>2022-06-19T08:35:38.000Z</time></trkpt><trkpt lon="6.026225" lat="51.275964"><ele>-14.2</ele><time>2022-06-19T08:35:39.000Z</time></trkpt><trkpt lon="6.026149" lat="51.275933"><ele>-14</ele><time>2022-06-19T08:35:40.000Z</time></trkpt><trkpt lon="6.026069" lat="51.275903"><ele>-14</ele><time>2022-06-19T08:35:41.000Z</time></trkpt><trkpt lon="6.025985" lat="51.275869"><ele>-14</ele><time>2022-06-19T08:35:42.000Z</time></trkpt><trkpt lon="6.025901" lat="51.27583"><ele>-14</ele><time>2022-06-19T08:35:43.000Z</time></trkpt><trkpt lon="6.025806" lat="51.275788"><ele>-14</ele><time>2022-06-19T08:35:44.000Z</time></trkpt><trkpt lon="6.025708" lat="51.275746"><ele>-13.8</ele><time>2022-06-19T08:35:45.000Z</time></trkpt><trkpt lon="6.025604" lat="51.275704"><ele>-13.8</ele><time>2022-06-19T08:35:46.000Z</time></trkpt><trkpt lon="6.025502" lat="51.275652"><ele>-13.8</ele><time>2022-06-19T08:35:47.000Z</time></trkpt><trkpt lon="6.025413" lat="51.275594"><ele>-13.6</ele><time>2022-06-19T08:35:48.000Z</time></trkpt><trkpt lon="6.025335" lat="51.275537"><ele>-13.8</ele><time>2022-06-19T08:35:49.000Z</time></trkpt><trkpt lon="6.025255" lat="51.275484"><ele>-13.6</ele><time>2022-06-19T08:35:50.000Z</time></trkpt><trkpt lon="6.025143" lat="51.275426"><ele>-13.6</ele><time>2022-06-19T08:35:51.000Z</time></trkpt><trkpt lon="6.025031" lat="51.275377"><ele>-13.4</ele><time>2022-06-19T08:35:52.000Z</time></trkpt><trkpt lon="6.024927" lat="51.275327"><ele>-13.4</ele><time>2022-06-19T08:35:53.000Z</time></trkpt><trkpt lon="6.024834" lat="51.275289"><ele>-13.4</ele><time>2022-06-19T08:35:54.000Z</time></trkpt><trkpt lon="6.024743" lat="51.275247"><ele>-13.2</ele><time>2022-06-19T08:35:55.000Z</time></trkpt><trkpt lon="6.024648" lat="51.275206"><ele>-13.2</ele><time>2022-06-19T08:35:56.000Z</time></trkpt><trkpt lon="6.024556" lat="51.275163"><ele>-13.2</ele><time>2022-06-19T08:35:57.000Z</time></trkpt><trkpt lon="6.024456" lat="51.275118"><ele>-13.2</ele><time>2022-06-19T08:35:58.000Z</time></trkpt><trkpt lon="6.024366" lat="51.275079"><ele>-13.2</ele><time>2022-06-19T08:35:59.000Z</time></trkpt><trkpt lon="6.024284" lat="51.275038"><ele>-13.2</ele><time>2022-06-19T08:36:00.000Z</time></trkpt><trkpt lon="6.0242" lat="51.274997"><ele>-13.2</ele><time>2022-06-19T08:36:01.000Z</time></trkpt><trkpt lon="6.024077" lat="51.274946"><ele>-13.2</ele><time>2022-06-19T08:36:02.000Z</time></trkpt><trkpt lon="6.023964" lat="51.2749"><ele>-13</ele><time>2022-06-19T08:36:03.000Z</time></trkpt><trkpt lon="6.023859" lat="51.274858"><ele>-13</ele><time>2022-06-19T08:36:04.000Z</time></trkpt><trkpt lon="6.023758" lat="51.274812"><ele>-13</ele><time>2022-06-19T08:36:05.000Z</time></trkpt><trkpt lon="6.023664" lat="51.274766"><ele>-13</ele><time>2022-06-19T08:36:06.000Z</time></trkpt><trkpt lon="6.023571" lat="51.274717"><ele>-13</ele><time>2022-06-19T08:36:07.000Z</time></trkpt><trkpt lon="6.023486" lat="51.274675"><ele>-12.8</ele><time>2022-06-19T08:36:08.000Z</time></trkpt><trkpt lon="6.023408" lat="51.274629"><ele>-12.8</ele><time>2022-06-19T08:36:09.000Z</time></trkpt><trkpt lon="6.023329" lat="51.274579"><ele>-12.8</ele><time>2022-06-19T08:36:10.000Z</time></trkpt><trkpt lon="6.023247" lat="51.274534"><ele>-12.8</ele><time>2022-06-19T08:36:11.000Z</time></trkpt><trkpt lon="6.023167" lat="51.274488"><ele>-12.8</ele><time>2022-06-19T08:36:12.000Z</time></trkpt><trkpt lon="6.02309" lat="51.27444"><ele>-12.6</ele><time>2022-06-19T08:36:13.000Z</time></trkpt><trkpt lon="6.023004" lat="51.274389"><ele>-12.6</ele><time>2022-06-19T08:36:14.000Z</time></trkpt><trkpt lon="6.022917" lat="51.274339"><ele>-12.8</ele><time>2022-06-19T08:36:15.000Z</time></trkpt><trkpt lon="6.022833" lat="51.274291"><ele>-12.6</ele><time>2022-06-19T08:36:16.000Z</time></trkpt><trkpt lon="6.022742" lat="51.27424"><ele>-12.6</ele><time>2022-06-19T08:36:17.000Z</time></trkpt><trkpt lon="6.022653" lat="51.274195"><ele>-12.6</ele><time>2022-06-19T08:36:18.000Z</time></trkpt><trkpt lon="6.022559" lat="51.274146"><ele>-12.6</ele><time>2022-06-19T08:36:19.000Z</time></trkpt><trkpt lon="6.022465" lat="51.274095"><ele>-12.6</ele><time>2022-06-19T08:36:20.000Z</time></trkpt><trkpt lon="6.022379" lat="51.274046"><ele>-12.6</ele><time>2022-06-19T08:36:21.000Z</time></trkpt><trkpt lon="6.022292" lat="51.273997"><ele>-12.8</ele><time>2022-06-19T08:36:22.000Z</time></trkpt><trkpt lon="6.022204" lat="51.273947"><ele>-13</ele><time>2022-06-19T08:36:23.000Z</time></trkpt><trkpt lon="6.022117" lat="51.273897"><ele>-13</ele><time>2022-06-19T08:36:24.000Z</time></trkpt><trkpt lon="6.022028" lat="51.273847"><ele>-13</ele><time>2022-06-19T08:36:25.000Z</time></trkpt><trkpt lon="6.021941" lat="51.273798"><ele>-13</ele><time>2022-06-19T08:36:26.000Z</time></trkpt><trkpt lon="6.021854" lat="51.273748"><ele>-13</ele><time>2022-06-19T08:36:27.000Z</time></trkpt><trkpt lon="6.021769" lat="51.273699"><ele>-13.2</ele><time>2022-06-19T08:36:28.000Z</time></trkpt><trkpt lon="6.021684" lat="51.273652"><ele>-13</ele><time>2022-06-19T08:36:29.000Z</time></trkpt><trkpt lon="6.021608" lat="51.273607"><ele>-13</ele><time>2022-06-19T08:36:30.000Z</time></trkpt><trkpt lon="6.021518" lat="51.273554"><ele>-13.2</ele><time>2022-06-19T08:36:31.000Z</time></trkpt><trkpt lon="6.021431" lat="51.273504"><ele>-13.2</ele><time>2022-06-19T08:36:32.000Z</time></trkpt><trkpt lon="6.021344" lat="51.27345"><ele>-13.2</ele><time>2022-06-19T08:36:33.000Z</time></trkpt><trkpt lon="6.021255" lat="51.2734"><ele>-13.2</ele><time>2022-06-19T08:36:34.000Z</time></trkpt><trkpt lon="6.021174" lat="51.273351"><ele>-13.2</ele><time>2022-06-19T08:36:35.000Z</time></trkpt><trkpt lon="6.021093" lat="51.273301"><ele>-13.2</ele><time>2022-06-19T08:36:36.000Z</time></trkpt><trkpt lon="6.021011" lat="51.273248"><ele>-13.4</ele><time>2022-06-19T08:36:37.000Z</time></trkpt><trkpt lon="6.02093" lat="51.2732"><ele>-13.2</ele><time>2022-06-19T08:36:38.000Z</time></trkpt><trkpt lon="6.020846" lat="51.273145"><ele>-13.2</ele><time>2022-06-19T08:36:39.000Z</time></trkpt><trkpt lon="6.020763" lat="51.273092"><ele>-13.4</ele><time>2022-06-19T08:36:40.000Z</time></trkpt><trkpt lon="6.020679" lat="51.273038"><ele>-13.4</ele><time>2022-06-19T08:36:41.000Z</time></trkpt><trkpt lon="6.020599" lat="51.272985"><ele>-13.4</ele><time>2022-06-19T08:36:42.000Z</time></trkpt><trkpt lon="6.020522" lat="51.272932"><ele>-13.4</ele><time>2022-06-19T08:36:43.000Z</time></trkpt><trkpt lon="6.020447" lat="51.272878"><ele>-13.4</ele><time>2022-06-19T08:36:44.000Z</time></trkpt><trkpt lon="6.020375" lat="51.272821"><ele>-13.4</ele><time>2022-06-19T08:36:45.000Z</time></trkpt><trkpt lon="6.020305" lat="51.272771"><ele>-13.4</ele><time>2022-06-19T08:36:46.000Z</time></trkpt><trkpt lon="6.020234" lat="51.272718"><ele>-13.6</ele><time>2022-06-19T08:36:47.000Z</time></trkpt><trkpt lon="6.020167" lat="51.272676"><ele>-13.6</ele><time>2022-06-19T08:36:48.000Z</time></trkpt><trkpt lon="6.020105" lat="51.272634"><ele>-13.8</ele><time>2022-06-19T08:36:49.000Z</time></trkpt><trkpt lon="6.020046" lat="51.272596"><ele>-13.8</ele><time>2022-06-19T08:36:50.000Z</time></trkpt><trkpt lon="6.019993" lat="51.272565"><ele>-13.8</ele><time>2022-06-19T08:36:51.000Z</time></trkpt><trkpt lon="6.01994" lat="51.272526"><ele>-13.8</ele><time>2022-06-19T08:36:52.000Z</time></trkpt><trkpt lon="6.019873" lat="51.272482"><ele>-13.8</ele><time>2022-06-19T08:36:53.000Z</time></trkpt><trkpt lon="6.019809" lat="51.272443"><ele>-13.8</ele><time>2022-06-19T08:36:54.000Z</time></trkpt><trkpt lon="6.019742" lat="51.272405"><ele>-13.8</ele><time>2022-06-19T08:36:55.000Z</time></trkpt><trkpt lon="6.019677" lat="51.272363"><ele>-13.8</ele><time>2022-06-19T08:36:56.000Z</time></trkpt><trkpt lon="6.01961" lat="51.272321"><ele>-13.8</ele><time>2022-06-19T08:36:57.000Z</time></trkpt><trkpt lon="6.019544" lat="51.272283"><ele>-13.6</ele><time>2022-06-19T08:36:58.000Z</time></trkpt><trkpt lon="6.019479" lat="51.272241"><ele>-13.4</ele><time>2022-06-19T08:36:59.000Z</time></trkpt><trkpt lon="6.019415" lat="51.272202"><ele>-13.4</ele><time>2022-06-19T08:37:00.000Z</time></trkpt><trkpt lon="6.01935" lat="51.272165"><ele>-13.2</ele><time>2022-06-19T08:37:01.000Z</time></trkpt><trkpt lon="6.019295" lat="51.272123"><ele>-13</ele><time>2022-06-19T08:37:02.000Z</time></trkpt><trkpt lon="6.019251" lat="51.272084"><ele>-13</ele><time>2022-06-19T08:37:03.000Z</time></trkpt><trkpt lon="6.01922" lat="51.27204"><ele>-12.8</ele><time>2022-06-19T08:37:04.000Z</time></trkpt><trkpt lon="6.019189" lat="51.271989"><ele>-13</ele><time>2022-06-19T08:37:05.000Z</time></trkpt><trkpt lon="6.019147" lat="51.271939"><ele>-13.2</ele><time>2022-06-19T08:37:06.000Z</time></trkpt><trkpt lon="6.019077" lat="51.271876"><ele>-13.4</ele><time>2022-06-19T08:37:07.000Z</time></trkpt><trkpt lon="6.018997" lat="51.27181"><ele>-13.8</ele><time>2022-06-19T08:37:08.000Z</time></trkpt><trkpt lon="6.018909" lat="51.271746"><ele>-14.2</ele><time>2022-06-19T08:37:09.000Z</time></trkpt><trkpt lon="6.018824" lat="51.271681"><ele>-14.4</ele><time>2022-06-19T08:37:10.000Z</time></trkpt><trkpt lon="6.018744" lat="51.271617"><ele>-14.8</ele><time>2022-06-19T08:37:11.000Z</time></trkpt><trkpt lon="6.018662" lat="51.271547"><ele>-15</ele><time>2022-06-19T08:37:12.000Z</time></trkpt><trkpt lon="6.018585" lat="51.271483"><ele>-15</ele><time>2022-06-19T08:37:13.000Z</time></trkpt><trkpt lon="6.018516" lat="51.271427"><ele>-15.2</ele><time>2022-06-19T08:37:14.000Z</time></trkpt><trkpt lon="6.018431" lat="51.271358"><ele>-15.2</ele><time>2022-06-19T08:37:15.000Z</time></trkpt><trkpt lon="6.018355" lat="51.271293"><ele>-15.4</ele><time>2022-06-19T08:37:16.000Z</time></trkpt><trkpt lon="6.018282" lat="51.271227"><ele>-15.6</ele><time>2022-06-19T08:37:17.000Z</time></trkpt><trkpt lon="6.018211" lat="51.271162"><ele>-15.6</ele><time>2022-06-19T08:37:18.000Z</time></trkpt><trkpt lon="6.018142" lat="51.271097"><ele>-15.6</ele><time>2022-06-19T08:37:19.000Z</time></trkpt><trkpt lon="6.018075" lat="51.271033"><ele>-15.6</ele><time>2022-06-19T08:37:20.000Z</time></trkpt><trkpt lon="6.01801" lat="51.270967"><ele>-15.4</ele><time>2022-06-19T08:37:21.000Z</time></trkpt><trkpt lon="6.017946" lat="51.270902"><ele>-15.4</ele><time>2022-06-19T08:37:22.000Z</time></trkpt><trkpt lon="6.017887" lat="51.270838"><ele>-15.2</ele><time>2022-06-19T08:37:23.000Z</time></trkpt><trkpt lon="6.017824" lat="51.270777"><ele>-15.2</ele><time>2022-06-19T08:37:24.000Z</time></trkpt><trkpt lon="6.017762" lat="51.270716"><ele>-15.2</ele><time>2022-06-19T08:37:25.000Z</time></trkpt><trkpt lon="6.017705" lat="51.270654"><ele>-15.2</ele><time>2022-06-19T08:37:26.000Z</time></trkpt><trkpt lon="6.017646" lat="51.270593"><ele>-15.2</ele><time>2022-06-19T08:37:27.000Z</time></trkpt><trkpt lon="6.017593" lat="51.270541"><ele>-15</ele><time>2022-06-19T08:37:28.000Z</time></trkpt><trkpt lon="6.017534" lat="51.270483"><ele>-15</ele><time>2022-06-19T08:37:29.000Z</time></trkpt><trkpt lon="6.017475" lat="51.270422"><ele>-14.8</ele><time>2022-06-19T08:37:30.000Z</time></trkpt><trkpt lon="6.017413" lat="51.27036"><ele>-14.8</ele><time>2022-06-19T08:37:31.000Z</time></trkpt><trkpt lon="6.017352" lat="51.2703"><ele>-14.8</ele><time>2022-06-19T08:37:32.000Z</time></trkpt><trkpt lon="6.017293" lat="51.270235"><ele>-14.8</ele><time>2022-06-19T08:37:33.000Z</time></trkpt><trkpt lon="6.017239" lat="51.270174"><ele>-14.8</ele><time>2022-06-19T08:37:34.000Z</time></trkpt><trkpt lon="6.017191" lat="51.270114"><ele>-14.8</ele><time>2022-06-19T08:37:35.000Z</time></trkpt><trkpt lon="6.017139" lat="51.270053"><ele>-14.8</ele><time>2022-06-19T08:37:36.000Z</time></trkpt><trkpt lon="6.017084" lat="51.269987"><ele>-14.6</ele><time>2022-06-19T08:37:37.000Z</time></trkpt><trkpt lon="6.017035" lat="51.269925"><ele>-14.6</ele><time>2022-06-19T08:37:38.000Z</time></trkpt><trkpt lon="6.016982" lat="51.269861"><ele>-14.6</ele><time>2022-06-19T08:37:39.000Z</time></trkpt><trkpt lon="6.016928" lat="51.2698"><ele>-14.4</ele><time>2022-06-19T08:37:40.000Z</time></trkpt><trkpt lon="6.016878" lat="51.269737"><ele>-14.4</ele><time>2022-06-19T08:37:41.000Z</time></trkpt><trkpt lon="6.016831" lat="51.269679"><ele>-14.4</ele><time>2022-06-19T08:37:42.000Z</time></trkpt><trkpt lon="6.016783" lat="51.269625"><ele>-14.2</ele><time>2022-06-19T08:37:43.000Z</time></trkpt><trkpt lon="6.016745" lat="51.269575"><ele>-14.2</ele><time>2022-06-19T08:37:44.000Z</time></trkpt><trkpt lon="6.016706" lat="51.269529"><ele>-14.2</ele><time>2022-06-19T08:37:45.000Z</time></trkpt><trkpt lon="6.016669" lat="51.269491"><ele>-14.2</ele><time>2022-06-19T08:37:46.000Z</time></trkpt><trkpt lon="6.016625" lat="51.269456"><ele>-14</ele><time>2022-06-19T08:37:47.000Z</time></trkpt><trkpt lon="6.016576" lat="51.269429"><ele>-14</ele><time>2022-06-19T08:37:48.000Z</time></trkpt><trkpt lon="6.016518" lat="51.269413"><ele>-14</ele><time>2022-06-19T08:37:49.000Z</time></trkpt><trkpt lon="6.016455" lat="51.269417"><ele>-13.8</ele><time>2022-06-19T08:37:50.000Z</time></trkpt><trkpt lon="6.016393" lat="51.269428"><ele>-13.8</ele><time>2022-06-19T08:37:51.000Z</time></trkpt><trkpt lon="6.016328" lat="51.269439"><ele>-13.6</ele><time>2022-06-19T08:37:52.000Z</time></trkpt><trkpt lon="6.01626" lat="51.269455"><ele>-13.4</ele><time>2022-06-19T08:37:53.000Z</time></trkpt><trkpt lon="6.016191" lat="51.269476"><ele>-13.2</ele><time>2022-06-19T08:37:54.000Z</time></trkpt><trkpt lon="6.016119" lat="51.2695"><ele>-12.8</ele><time>2022-06-19T08:37:55.000Z</time></trkpt><trkpt lon="6.016041" lat="51.26953"><ele>-12.6</ele><time>2022-06-19T08:37:56.000Z</time></trkpt><trkpt lon="6.015967" lat="51.269556"><ele>-12.2</ele><time>2022-06-19T08:37:57.000Z</time></trkpt><trkpt lon="6.015891" lat="51.269582"><ele>-12</ele><time>2022-06-19T08:37:58.000Z</time></trkpt><trkpt lon="6.015809" lat="51.269611"><ele>-11.8</ele><time>2022-06-19T08:37:59.000Z</time></trkpt><trkpt lon="6.015733" lat="51.269637"><ele>-11.6</ele><time>2022-06-19T08:38:00.000Z</time></trkpt><trkpt lon="6.015656" lat="51.269664"><ele>-11.4</ele><time>2022-06-19T08:38:01.000Z</time></trkpt><trkpt lon="6.015582" lat="51.26969"><ele>-11.2</ele><time>2022-06-19T08:38:02.000Z</time></trkpt><trkpt lon="6.015507" lat="51.26971"><ele>-11</ele><time>2022-06-19T08:38:03.000Z</time></trkpt><trkpt lon="6.015434" lat="51.269722"><ele>-10.8</ele><time>2022-06-19T08:38:04.000Z</time></trkpt><trkpt lon="6.015359" lat="51.269733"><ele>-10.8</ele><time>2022-06-19T08:38:05.000Z</time></trkpt><trkpt lon="6.015282" lat="51.269733"><ele>-10.8</ele><time>2022-06-19T08:38:06.000Z</time></trkpt><trkpt lon="6.015207" lat="51.269733"><ele>-10.8</ele><time>2022-06-19T08:38:07.000Z</time></trkpt><trkpt lon="6.01513" lat="51.269741"><ele>-10.6</ele><time>2022-06-19T08:38:08.000Z</time></trkpt><trkpt lon="6.015049" lat="51.269748"><ele>-10.6</ele><time>2022-06-19T08:38:09.000Z</time></trkpt><trkpt lon="6.01497" lat="51.269756"><ele>-10.4</ele><time>2022-06-19T08:38:10.000Z</time></trkpt><trkpt lon="6.014897" lat="51.269753"><ele>-10.4</ele><time>2022-06-19T08:38:11.000Z</time></trkpt><trkpt lon="6.014835" lat="51.269738"><ele>-10.4</ele><time>2022-06-19T08:38:12.000Z</time></trkpt><trkpt lon="6.014786" lat="51.269704"><ele>-10.2</ele><time>2022-06-19T08:38:13.000Z</time></trkpt><trkpt lon="6.01474" lat="51.269666"><ele>-10.2</ele><time>2022-06-19T08:38:14.000Z</time></trkpt><trkpt lon="6.014686" lat="51.269628"><ele>-10.4</ele><time>2022-06-19T08:38:15.000Z</time></trkpt><trkpt lon="6.014627" lat="51.269585"><ele>-10.4</ele><time>2022-06-19T08:38:16.000Z</time></trkpt><trkpt lon="6.01457" lat="51.269536"><ele>-10.4</ele><time>2022-06-19T08:38:17.000Z</time></trkpt><trkpt lon="6.014515" lat="51.269495"><ele>-10.4</ele><time>2022-06-19T08:38:18.000Z</time></trkpt><trkpt lon="6.014458" lat="51.269456"><ele>-10.4</ele><time>2022-06-19T08:38:19.000Z</time></trkpt><trkpt lon="6.014409" lat="51.269425"><ele>-10.4</ele><time>2022-06-19T08:38:20.000Z</time></trkpt><trkpt lon="6.01436" lat="51.269387"><ele>-10.4</ele><time>2022-06-19T08:38:21.000Z</time></trkpt><trkpt lon="6.014305" lat="51.269347"><ele>-10.4</ele><time>2022-06-19T08:38:22.000Z</time></trkpt><trkpt lon="6.014244" lat="51.2693"><ele>-10.4</ele><time>2022-06-19T08:38:23.000Z</time></trkpt><trkpt lon="6.014177" lat="51.269243"><ele>-10.4</ele><time>2022-06-19T08:38:24.000Z</time></trkpt><trkpt lon="6.014121" lat="51.269193"><ele>-10.2</ele><time>2022-06-19T08:38:25.000Z</time></trkpt><trkpt lon="6.014029" lat="51.26914"><ele>-10.2</ele><time>2022-06-19T08:38:26.000Z</time></trkpt><trkpt lon="6.013967" lat="51.26909"><ele>-10.2</ele><time>2022-06-19T08:38:27.000Z</time></trkpt><trkpt lon="6.013908" lat="51.269044"><ele>-10.2</ele><time>2022-06-19T08:38:28.000Z</time></trkpt><trkpt lon="6.013865" lat="51.269008"><ele>-10.2</ele><time>2022-06-19T08:38:29.000Z</time></trkpt><trkpt lon="6.013817" lat="51.268967"><ele>-10</ele><time>2022-06-19T08:38:30.000Z</time></trkpt><trkpt lon="6.013749" lat="51.268915"><ele>-10</ele><time>2022-06-19T08:38:31.000Z</time></trkpt><trkpt lon="6.013697" lat="51.26887"><ele>-10</ele><time>2022-06-19T08:38:32.000Z</time></trkpt><trkpt lon="6.01364" lat="51.268819"><ele>-10</ele><time>2022-06-19T08:38:33.000Z</time></trkpt><trkpt lon="6.013584" lat="51.268771"><ele>-10</ele><time>2022-06-19T08:38:34.000Z</time></trkpt><trkpt lon="6.013526" lat="51.268723"><ele>-10</ele><time>2022-06-19T08:38:35.000Z</time></trkpt><trkpt lon="6.013471" lat="51.268679"><ele>-10</ele><time>2022-06-19T08:38:36.000Z</time></trkpt><trkpt lon="6.013408" lat="51.268628"><ele>-10</ele><time>2022-06-19T08:38:37.000Z</time></trkpt><trkpt lon="6.013347" lat="51.268588"><ele>-10</ele><time>2022-06-19T08:38:38.000Z</time></trkpt><trkpt lon="6.013293" lat="51.268553"><ele>-10</ele><time>2022-06-19T08:38:39.000Z</time></trkpt><trkpt lon="6.013241" lat="51.268514"><ele>-10</ele><time>2022-06-19T08:38:40.000Z</time></trkpt><trkpt lon="6.01317" lat="51.268476"><ele>-10</ele><time>2022-06-19T08:38:41.000Z</time></trkpt><trkpt lon="6.013106" lat="51.268442"><ele>-10.2</ele><time>2022-06-19T08:38:42.000Z</time></trkpt><trkpt lon="6.013032" lat="51.268407"><ele>-10.2</ele><time>2022-06-19T08:38:43.000Z</time></trkpt><trkpt lon="6.01296" lat="51.268368"><ele>-10</ele><time>2022-06-19T08:38:44.000Z</time></trkpt><trkpt lon="6.012903" lat="51.268338"><ele>-10</ele><time>2022-06-19T08:38:45.000Z</time></trkpt><trkpt lon="6.012837" lat="51.268308"><ele>-10.2</ele><time>2022-06-19T08:38:46.000Z</time></trkpt><trkpt lon="6.012784" lat="51.268271"><ele>-10.2</ele><time>2022-06-19T08:38:47.000Z</time></trkpt><trkpt lon="6.012709" lat="51.268241"><ele>-10.2</ele><time>2022-06-19T08:38:48.000Z</time></trkpt><trkpt lon="6.012631" lat="51.268197"><ele>-10.4</ele><time>2022-06-19T08:38:49.000Z</time></trkpt><trkpt lon="6.012541" lat="51.268144"><ele>-10.4</ele><time>2022-06-19T08:38:50.000Z</time></trkpt><trkpt lon="6.012456" lat="51.268091"><ele>-10.4</ele><time>2022-06-19T08:38:51.000Z</time></trkpt><trkpt lon="6.012388" lat="51.268043"><ele>-10.4</ele><time>2022-06-19T08:38:52.000Z</time></trkpt><trkpt lon="6.012312" lat="51.268003"><ele>-10.2</ele><time>2022-06-19T08:38:53.000Z</time></trkpt><trkpt lon="6.01225" lat="51.267966"><ele>-10.2</ele><time>2022-06-19T08:38:54.000Z</time></trkpt><trkpt lon="6.012171" lat="51.267945"><ele>-10.2</ele><time>2022-06-19T08:38:55.000Z</time></trkpt><trkpt lon="6.012101" lat="51.267926"><ele>-10.2</ele><time>2022-06-19T08:38:56.000Z</time></trkpt><trkpt lon="6.012022" lat="51.267903"><ele>-10.2</ele><time>2022-06-19T08:38:57.000Z</time></trkpt><trkpt lon="6.011955" lat="51.267895"><ele>-10.2</ele><time>2022-06-19T08:38:58.000Z</time></trkpt><trkpt lon="6.011881" lat="51.267884"><ele>-10.4</ele><time>2022-06-19T08:38:59.000Z</time></trkpt><trkpt lon="6.011792" lat="51.267862"><ele>-10.4</ele><time>2022-06-19T08:39:00.000Z</time></trkpt><trkpt lon="6.011727" lat="51.267846"><ele>-10.4</ele><time>2022-06-19T08:39:01.000Z</time></trkpt><trkpt lon="6.011668" lat="51.26783"><ele>-10.4</ele><time>2022-06-19T08:39:02.000Z</time></trkpt><trkpt lon="6.011611" lat="51.267805"><ele>-10.4</ele><time>2022-06-19T08:39:03.000Z</time></trkpt><trkpt lon="6.011521" lat="51.267759"><ele>-10.6</ele><time>2022-06-19T08:39:04.000Z</time></trkpt><trkpt lon="6.011486" lat="51.267717"><ele>-10.8</ele><time>2022-06-19T08:39:05.000Z</time></trkpt><trkpt lon="6.011461" lat="51.267661"><ele>-10.8</ele><time>2022-06-19T08:39:06.000Z</time></trkpt><trkpt lon="6.01144" lat="51.267607"><ele>-11</ele><time>2022-06-19T08:39:07.000Z</time></trkpt><trkpt lon="6.011419" lat="51.267549"><ele>-11.2</ele><time>2022-06-19T08:39:08.000Z</time></trkpt><trkpt lon="6.011415" lat="51.267503"><ele>-11.2</ele><time>2022-06-19T08:39:09.000Z</time></trkpt><trkpt lon="6.011407" lat="51.267461"><ele>-11.4</ele><time>2022-06-19T08:39:10.000Z</time></trkpt><trkpt lon="6.01137" lat="51.267416"><ele>-11.6</ele><time>2022-06-19T08:39:11.000Z</time></trkpt><trkpt lon="6.011364" lat="51.267383"><ele>-11.6</ele><time>2022-06-19T08:39:12.000Z</time></trkpt><trkpt lon="6.011335" lat="51.267347"><ele>-11.8</ele><time>2022-06-19T08:39:13.000Z</time></trkpt><trkpt lon="6.011337" lat="51.267309"><ele>-12</ele><time>2022-06-19T08:39:14.000Z</time></trkpt><trkpt lon="6.011296" lat="51.267281"><ele>-12</ele><time>2022-06-19T08:39:15.000Z</time></trkpt><trkpt lon="6.011232" lat="51.267269"><ele>-12.2</ele><time>2022-06-19T08:39:16.000Z</time></trkpt><trkpt lon="6.011169" lat="51.267258"><ele>-12.4</ele><time>2022-06-19T08:39:17.000Z</time></trkpt><trkpt lon="6.011053" lat="51.267254"><ele>-12.6</ele><time>2022-06-19T08:39:18.000Z</time></trkpt><trkpt lon="6.010998" lat="51.267268"><ele>-13</ele><time>2022-06-19T08:39:19.000Z</time></trkpt><trkpt lon="6.010971" lat="51.267288"><ele>-13.2</ele><time>2022-06-19T08:39:20.000Z</time></trkpt><trkpt lon="6.010945" lat="51.267302"><ele>-13.6</ele><time>2022-06-19T08:39:21.000Z</time></trkpt><trkpt lon="6.010899" lat="51.267318"><ele>-14</ele><time>2022-06-19T08:39:22.000Z</time></trkpt><trkpt lon="6.010858" lat="51.267329"><ele>-14.4</ele><time>2022-06-19T08:39:23.000Z</time></trkpt><trkpt lon="6.01081" lat="51.267345"><ele>-14.6</ele><time>2022-06-19T08:39:24.000Z</time></trkpt><trkpt lon="6.010774" lat="51.267349"><ele>-14.8</ele><time>2022-06-19T08:39:25.000Z</time></trkpt><trkpt lon="6.010746" lat="51.267342"><ele>-14.8</ele><time>2022-06-19T08:39:26.000Z</time></trkpt><trkpt lon="6.010721" lat="51.267327"><ele>-14.8</ele><time>2022-06-19T08:39:27.000Z</time></trkpt><trkpt lon="6.010689" lat="51.267304"><ele>-14.6</ele><time>2022-06-19T08:39:28.000Z</time></trkpt><trkpt lon="6.010648" lat="51.267289"><ele>-14.4</ele><time>2022-06-19T08:39:29.000Z</time></trkpt><trkpt lon="6.010618" lat="51.267267"><ele>-14</ele><time>2022-06-19T08:39:30.000Z</time></trkpt><trkpt lon="6.010569" lat="51.267225"><ele>-13.8</ele><time>2022-06-19T08:39:31.000Z</time></trkpt><trkpt lon="6.01054" lat="51.267195"><ele>-13.6</ele><time>2022-06-19T08:39:32.000Z</time></trkpt><trkpt lon="6.010485" lat="51.267134"><ele>-13.2</ele><time>2022-06-19T08:39:33.000Z</time></trkpt><trkpt lon="6.01043" lat="51.267067"><ele>-12.8</ele><time>2022-06-19T08:39:34.000Z</time></trkpt><trkpt lon="6.010361" lat="51.266985"><ele>-12.6</ele><time>2022-06-19T08:39:35.000Z</time></trkpt><trkpt lon="6.01029" lat="51.26694"><ele>-12.2</ele><time>2022-06-19T08:39:36.000Z</time></trkpt><trkpt lon="6.010215" lat="51.266911"><ele>-11.8</ele><time>2022-06-19T08:39:37.000Z</time></trkpt><trkpt lon="6.010159" lat="51.266887"><ele>-11.4</ele><time>2022-06-19T08:39:38.000Z</time></trkpt><trkpt lon="6.010092" lat="51.26685"><ele>-11.2</ele><time>2022-06-19T08:39:39.000Z</time></trkpt><trkpt lon="6.010029" lat="51.266799"><ele>-11</ele><time>2022-06-19T08:39:40.000Z</time></trkpt><trkpt lon="6.009947" lat="51.266748"><ele>-11</ele><time>2022-06-19T08:39:41.000Z</time></trkpt><trkpt lon="6.009865" lat="51.26669"><ele>-11</ele><time>2022-06-19T08:39:42.000Z</time></trkpt><trkpt lon="6.009782" lat="51.266645"><ele>-11</ele><time>2022-06-19T08:39:43.000Z</time></trkpt><trkpt lon="6.009686" lat="51.266611"><ele>-11</ele><time>2022-06-19T08:39:44.000Z</time></trkpt><trkpt lon="6.009589" lat="51.266577"><ele>-10.8</ele><time>2022-06-19T08:39:45.000Z</time></trkpt><trkpt lon="6.009499" lat="51.266542"><ele>-10.8</ele><time>2022-06-19T08:39:46.000Z</time></trkpt><trkpt lon="6.009405" lat="51.266506"><ele>-10.8</ele><time>2022-06-19T08:39:47.000Z</time></trkpt><trkpt lon="6.009302" lat="51.266469"><ele>-10.8</ele><time>2022-06-19T08:39:48.000Z</time></trkpt><trkpt lon="6.009217" lat="51.266435"><ele>-10.8</ele><time>2022-06-19T08:39:49.000Z</time></trkpt><trkpt lon="6.009143" lat="51.266401"><ele>-10.8</ele><time>2022-06-19T08:39:50.000Z</time></trkpt><trkpt lon="6.009071" lat="51.266366"><ele>-10.8</ele><time>2022-06-19T08:39:51.000Z</time></trkpt><trkpt lon="6.008992" lat="51.26634"><ele>-10.6</ele><time>2022-06-19T08:39:52.000Z</time></trkpt><trkpt lon="6.008916" lat="51.266317"><ele>-10.6</ele><time>2022-06-19T08:39:53.000Z</time></trkpt><trkpt lon="6.008832" lat="51.266301"><ele>-10.6</ele><time>2022-06-19T08:39:54.000Z</time></trkpt><trkpt lon="6.008729" lat="51.266285"><ele>-10.6</ele><time>2022-06-19T08:39:55.000Z</time></trkpt><trkpt lon="6.008643" lat="51.266274"><ele>-10.4</ele><time>2022-06-19T08:39:56.000Z</time></trkpt><trkpt lon="6.008569" lat="51.266259"><ele>-10.2</ele><time>2022-06-19T08:39:57.000Z</time></trkpt><trkpt lon="6.008517" lat="51.266224"><ele>-10.2</ele><time>2022-06-19T08:39:58.000Z</time></trkpt><trkpt lon="6.008473" lat="51.266165"><ele>-10</ele><time>2022-06-19T08:39:59.000Z</time></trkpt><trkpt lon="6.008429" lat="51.266109"><ele>-10</ele><time>2022-06-19T08:40:00.000Z</time></trkpt><trkpt lon="6.008375" lat="51.26605"><ele>-10</ele><time>2022-06-19T08:40:01.000Z</time></trkpt><trkpt lon="6.008313" lat="51.265997"><ele>-10</ele><time>2022-06-19T08:40:02.000Z</time></trkpt><trkpt lon="6.008239" lat="51.265943"><ele>-10</ele><time>2022-06-19T08:40:03.000Z</time></trkpt><trkpt lon="6.008162" lat="51.26589"><ele>-10</ele><time>2022-06-19T08:40:04.000Z</time></trkpt><trkpt lon="6.008085" lat="51.26584"><ele>-10</ele><time>2022-06-19T08:40:05.000Z</time></trkpt><trkpt lon="6.008007" lat="51.265793"><ele>-10</ele><time>2022-06-19T08:40:06.000Z</time></trkpt><trkpt lon="6.007918" lat="51.265745"><ele>-10</ele><time>2022-06-19T08:40:07.000Z</time></trkpt><trkpt lon="6.007835" lat="51.265696"><ele>-10</ele><time>2022-06-19T08:40:08.000Z</time></trkpt><trkpt lon="6.007749" lat="51.265647"><ele>-10.2</ele><time>2022-06-19T08:40:09.000Z</time></trkpt><trkpt lon="6.007669" lat="51.265593"><ele>-10.2</ele><time>2022-06-19T08:40:10.000Z</time></trkpt><trkpt lon="6.007601" lat="51.265551"><ele>-10.2</ele><time>2022-06-19T08:40:11.000Z</time></trkpt><trkpt lon="6.007515" lat="51.265496"><ele>-10.2</ele><time>2022-06-19T08:40:12.000Z</time></trkpt><trkpt lon="6.007439" lat="51.265448"><ele>-10.2</ele><time>2022-06-19T08:40:13.000Z</time></trkpt><trkpt lon="6.00737" lat="51.265401"><ele>-10.2</ele><time>2022-06-19T08:40:14.000Z</time></trkpt><trkpt lon="6.007279" lat="51.265337"><ele>-10</ele><time>2022-06-19T08:40:15.000Z</time></trkpt><trkpt lon="6.007207" lat="51.265289"><ele>-10</ele><time>2022-06-19T08:40:16.000Z</time></trkpt><trkpt lon="6.00713" lat="51.265233"><ele>-10</ele><time>2022-06-19T08:40:17.000Z</time></trkpt><trkpt lon="6.007056" lat="51.265184"><ele>-10</ele><time>2022-06-19T08:40:18.000Z</time></trkpt><trkpt lon="6.006988" lat="51.265133"><ele>-10</ele><time>2022-06-19T08:40:19.000Z</time></trkpt><trkpt lon="6.006923" lat="51.265082"><ele>-9.8</ele><time>2022-06-19T08:40:20.000Z</time></trkpt><trkpt lon="6.00685" lat="51.265025"><ele>-9.8</ele><time>2022-06-19T08:40:21.000Z</time></trkpt><trkpt lon="6.006789" lat="51.264978"><ele>-9.8</ele><time>2022-06-19T08:40:22.000Z</time></trkpt><trkpt lon="6.006717" lat="51.264925"><ele>-9.8</ele><time>2022-06-19T08:40:23.000Z</time></trkpt><trkpt lon="6.006652" lat="51.264874"><ele>-9.8</ele><time>2022-06-19T08:40:24.000Z</time></trkpt><trkpt lon="6.00658" lat="51.264819"><ele>-9.8</ele><time>2022-06-19T08:40:25.000Z</time></trkpt><trkpt lon="6.006515" lat="51.264768"><ele>-9.8</ele><time>2022-06-19T08:40:26.000Z</time></trkpt><trkpt lon="6.006442" lat="51.264711"><ele>-9.8</ele><time>2022-06-19T08:40:27.000Z</time></trkpt><trkpt lon="6.006382" lat="51.26466"><ele>-9.8</ele><time>2022-06-19T08:40:28.000Z</time></trkpt><trkpt lon="6.006309" lat="51.264601"><ele>-9.8</ele><time>2022-06-19T08:40:29.000Z</time></trkpt><trkpt lon="6.006243" lat="51.264549"><ele>-9.6</ele><time>2022-06-19T08:40:30.000Z</time></trkpt><trkpt lon="6.006175" lat="51.264491"><ele>-9.6</ele><time>2022-06-19T08:40:31.000Z</time></trkpt><trkpt lon="6.006107" lat="51.264436"><ele>-9.6</ele><time>2022-06-19T08:40:32.000Z</time></trkpt><trkpt lon="6.00604" lat="51.264376"><ele>-9.4</ele><time>2022-06-19T08:40:33.000Z</time></trkpt><trkpt lon="6.005985" lat="51.264322"><ele>-9.4</ele><time>2022-06-19T08:40:34.000Z</time></trkpt><trkpt lon="6.005924" lat="51.264258"><ele>-9.6</ele><time>2022-06-19T08:40:35.000Z</time></trkpt><trkpt lon="6.005869" lat="51.264202"><ele>-9.4</ele><time>2022-06-19T08:40:36.000Z</time></trkpt><trkpt lon="6.005808" lat="51.264136"><ele>-9.4</ele><time>2022-06-19T08:40:37.000Z</time></trkpt><trkpt lon="6.005761" lat="51.26408"><ele>-9.4</ele><time>2022-06-19T08:40:38.000Z</time></trkpt><trkpt lon="6.005709" lat="51.264015"><ele>-9.4</ele><time>2022-06-19T08:40:39.000Z</time></trkpt><trkpt lon="6.005663" lat="51.263954"><ele>-9.4</ele><time>2022-06-19T08:40:40.000Z</time></trkpt><trkpt lon="6.005616" lat="51.263886"><ele>-9.4</ele><time>2022-06-19T08:40:41.000Z</time></trkpt><trkpt lon="6.005572" lat="51.263822"><ele>-9.4</ele><time>2022-06-19T08:40:42.000Z</time></trkpt><trkpt lon="6.005528" lat="51.263758"><ele>-9.4</ele><time>2022-06-19T08:40:43.000Z</time></trkpt><trkpt lon="6.00549" lat="51.263698"><ele>-9.4</ele><time>2022-06-19T08:40:44.000Z</time></trkpt><trkpt lon="6.005445" lat="51.26363"><ele>-9.4</ele><time>2022-06-19T08:40:45.000Z</time></trkpt><trkpt lon="6.005406" lat="51.263571"><ele>-9.4</ele><time>2022-06-19T08:40:46.000Z</time></trkpt><trkpt lon="6.00536" lat="51.263507"><ele>-9.4</ele><time>2022-06-19T08:40:47.000Z</time></trkpt><trkpt lon="6.005322" lat="51.263453"><ele>-9.4</ele><time>2022-06-19T08:40:48.000Z</time></trkpt><trkpt lon="6.005273" lat="51.263382"><ele>-9.4</ele><time>2022-06-19T08:40:49.000Z</time></trkpt><trkpt lon="6.00523" lat="51.263314"><ele>-9.4</ele><time>2022-06-19T08:40:50.000Z</time></trkpt><trkpt lon="6.005189" lat="51.263241"><ele>-9.4</ele><time>2022-06-19T08:40:51.000Z</time></trkpt><trkpt lon="6.005152" lat="51.263174"><ele>-9.4</ele><time>2022-06-19T08:40:52.000Z</time></trkpt><trkpt lon="6.005105" lat="51.263099"><ele>-9.4</ele><time>2022-06-19T08:40:53.000Z</time></trkpt><trkpt lon="6.005061" lat="51.263033"><ele>-9.4</ele><time>2022-06-19T08:40:54.000Z</time></trkpt><trkpt lon="6.005013" lat="51.262962"><ele>-9.4</ele><time>2022-06-19T08:40:55.000Z</time></trkpt><trkpt lon="6.004969" lat="51.262897"><ele>-9.6</ele><time>2022-06-19T08:40:56.000Z</time></trkpt><trkpt lon="6.00492" lat="51.262828"><ele>-9.6</ele><time>2022-06-19T08:40:57.000Z</time></trkpt><trkpt lon="6.004878" lat="51.262767"><ele>-9.6</ele><time>2022-06-19T08:40:58.000Z</time></trkpt><trkpt lon="6.004837" lat="51.262703"><ele>-9.6</ele><time>2022-06-19T08:40:59.000Z</time></trkpt><trkpt lon="6.004796" lat="51.262635"><ele>-9.6</ele><time>2022-06-19T08:41:00.000Z</time></trkpt><trkpt lon="6.004758" lat="51.262569"><ele>-9.6</ele><time>2022-06-19T08:41:01.000Z</time></trkpt><trkpt lon="6.004719" lat="51.262502"><ele>-9.8</ele><time>2022-06-19T08:41:02.000Z</time></trkpt><trkpt lon="6.004683" lat="51.262436"><ele>-9.8</ele><time>2022-06-19T08:41:03.000Z</time></trkpt><trkpt lon="6.004646" lat="51.262371"><ele>-10</ele><time>2022-06-19T08:41:04.000Z</time></trkpt><trkpt lon="6.004609" lat="51.262305"><ele>-10</ele><time>2022-06-19T08:41:05.000Z</time></trkpt><trkpt lon="6.004568" lat="51.26223"><ele>-10.2</ele><time>2022-06-19T08:41:06.000Z</time></trkpt><trkpt lon="6.004525" lat="51.262153"><ele>-10.2</ele><time>2022-06-19T08:41:07.000Z</time></trkpt><trkpt lon="6.004485" lat="51.262084"><ele>-10.4</ele><time>2022-06-19T08:41:08.000Z</time></trkpt><trkpt lon="6.004448" lat="51.262008"><ele>-10.4</ele><time>2022-06-19T08:41:09.000Z</time></trkpt><trkpt lon="6.004414" lat="51.261938"><ele>-10.6</ele><time>2022-06-19T08:41:10.000Z</time></trkpt><trkpt lon="6.004382" lat="51.261873"><ele>-10.6</ele><time>2022-06-19T08:41:11.000Z</time></trkpt><trkpt lon="6.004354" lat="51.261801"><ele>-10.6</ele><time>2022-06-19T08:41:12.000Z</time></trkpt><trkpt lon="6.004326" lat="51.261736"><ele>-10.6</ele><time>2022-06-19T08:41:13.000Z</time></trkpt><trkpt lon="6.004304" lat="51.261663"><ele>-10.6</ele><time>2022-06-19T08:41:14.000Z</time></trkpt><trkpt lon="6.004278" lat="51.261595"><ele>-10.6</ele><time>2022-06-19T08:41:15.000Z</time></trkpt><trkpt lon="6.004252" lat="51.261523"><ele>-10.6</ele><time>2022-06-19T08:41:16.000Z</time></trkpt><trkpt lon="6.004227" lat="51.261454"><ele>-10.6</ele><time>2022-06-19T08:41:17.000Z</time></trkpt><trkpt lon="6.004206" lat="51.261384"><ele>-10.4</ele><time>2022-06-19T08:41:18.000Z</time></trkpt><trkpt lon="6.004184" lat="51.261313"><ele>-10.4</ele><time>2022-06-19T08:41:19.000Z</time></trkpt><trkpt lon="6.004161" lat="51.261244"><ele>-10.6</ele><time>2022-06-19T08:41:20.000Z</time></trkpt><trkpt lon="6.004137" lat="51.261175"><ele>-10.6</ele><time>2022-06-19T08:41:21.000Z</time></trkpt><trkpt lon="6.004116" lat="51.261107"><ele>-10.4</ele><time>2022-06-19T08:41:22.000Z</time></trkpt><trkpt lon="6.004097" lat="51.261034"><ele>-10.4</ele><time>2022-06-19T08:41:23.000Z</time></trkpt><trkpt lon="6.00408" lat="51.260965"><ele>-10.6</ele><time>2022-06-19T08:41:24.000Z</time></trkpt><trkpt lon="6.004065" lat="51.260897"><ele>-10.6</ele><time>2022-06-19T08:41:25.000Z</time></trkpt><trkpt lon="6.004049" lat="51.260836"><ele>-10.6</ele><time>2022-06-19T08:41:26.000Z</time></trkpt><trkpt lon="6.004039" lat="51.260774"><ele>-10.8</ele><time>2022-06-19T08:41:27.000Z</time></trkpt><trkpt lon="6.004032" lat="51.260713"><ele>-10.8</ele><time>2022-06-19T08:41:28.000Z</time></trkpt><trkpt lon="6.004025" lat="51.260654"><ele>-11</ele><time>2022-06-19T08:41:29.000Z</time></trkpt><trkpt lon="6.00402" lat="51.260588"><ele>-11.2</ele><time>2022-06-19T08:41:30.000Z</time></trkpt><trkpt lon="6.004018" lat="51.260519"><ele>-11.6</ele><time>2022-06-19T08:41:31.000Z</time></trkpt><trkpt lon="6.004018" lat="51.260443"><ele>-12</ele><time>2022-06-19T08:41:32.000Z</time></trkpt><trkpt lon="6.004023" lat="51.260359"><ele>-12.4</ele><time>2022-06-19T08:41:33.000Z</time></trkpt><trkpt lon="6.00403" lat="51.260267"><ele>-13</ele><time>2022-06-19T08:41:34.000Z</time></trkpt><trkpt lon="6.004037" lat="51.260178"><ele>-13.6</ele><time>2022-06-19T08:41:35.000Z</time></trkpt><trkpt lon="6.004046" lat="51.260085"><ele>-14.2</ele><time>2022-06-19T08:41:36.000Z</time></trkpt><trkpt lon="6.004056" lat="51.259989"><ele>-14.6</ele><time>2022-06-19T08:41:37.000Z</time></trkpt><trkpt lon="6.004069" lat="51.259894"><ele>-14.8</ele><time>2022-06-19T08:41:38.000Z</time></trkpt><trkpt lon="6.004079" lat="51.259805"><ele>-15.2</ele><time>2022-06-19T08:41:39.000Z</time></trkpt><trkpt lon="6.00409" lat="51.259707"><ele>-15.4</ele><time>2022-06-19T08:41:40.000Z</time></trkpt><trkpt lon="6.004098" lat="51.259615"><ele>-15.4</ele><time>2022-06-19T08:41:41.000Z</time></trkpt><trkpt lon="6.004106" lat="51.259524"><ele>-15.6</ele><time>2022-06-19T08:41:42.000Z</time></trkpt><trkpt lon="6.004113" lat="51.259438"><ele>-15.6</ele><time>2022-06-19T08:41:43.000Z</time></trkpt><trkpt lon="6.004113" lat="51.259348"><ele>-15.6</ele><time>2022-06-19T08:41:44.000Z</time></trkpt><trkpt lon="6.004109" lat="51.259263"><ele>-15.8</ele><time>2022-06-19T08:41:45.000Z</time></trkpt><trkpt lon="6.004102" lat="51.259176"><ele>-15.8</ele><time>2022-06-19T08:41:46.000Z</time></trkpt><trkpt lon="6.004092" lat="51.259092"><ele>-15.8</ele><time>2022-06-19T08:41:47.000Z</time></trkpt><trkpt lon="6.004076" lat="51.259013"><ele>-16</ele><time>2022-06-19T08:41:48.000Z</time></trkpt><trkpt lon="6.004049" lat="51.258937"><ele>-16.2</ele><time>2022-06-19T08:41:49.000Z</time></trkpt><trkpt lon="6.004009" lat="51.258856"><ele>-16.2</ele><time>2022-06-19T08:41:50.000Z</time></trkpt><trkpt lon="6.003971" lat="51.258783"><ele>-16.4</ele><time>2022-06-19T08:41:51.000Z</time></trkpt><trkpt lon="6.003928" lat="51.258703"><ele>-16.4</ele><time>2022-06-19T08:41:52.000Z</time></trkpt><trkpt lon="6.003888" lat="51.258623"><ele>-16.2</ele><time>2022-06-19T08:41:53.000Z</time></trkpt><trkpt lon="6.003848" lat="51.258552"><ele>-16.2</ele><time>2022-06-19T08:41:54.000Z</time></trkpt><trkpt lon="6.003809" lat="51.258478"><ele>-16.2</ele><time>2022-06-19T08:41:55.000Z</time></trkpt><trkpt lon="6.003771" lat="51.258403"><ele>-16.2</ele><time>2022-06-19T08:41:56.000Z</time></trkpt><trkpt lon="6.003737" lat="51.258331"><ele>-16.2</ele><time>2022-06-19T08:41:57.000Z</time></trkpt><trkpt lon="6.003703" lat="51.258257"><ele>-16.2</ele><time>2022-06-19T08:41:58.000Z</time></trkpt><trkpt lon="6.003667" lat="51.258188"><ele>-16.2</ele><time>2022-06-19T08:41:59.000Z</time></trkpt><trkpt lon="6.003631" lat="51.258116"><ele>-16.2</ele><time>2022-06-19T08:42:00.000Z</time></trkpt><trkpt lon="6.003596" lat="51.258047"><ele>-16.2</ele><time>2022-06-19T08:42:01.000Z</time></trkpt><trkpt lon="6.003556" lat="51.257979"><ele>-16.2</ele><time>2022-06-19T08:42:02.000Z</time></trkpt><trkpt lon="6.0035" lat="51.257913"><ele>-16.4</ele><time>2022-06-19T08:42:03.000Z</time></trkpt><trkpt lon="6.003425" lat="51.257856"><ele>-16.6</ele><time>2022-06-19T08:42:04.000Z</time></trkpt><trkpt lon="6.003337" lat="51.257806"><ele>-16.8</ele><time>2022-06-19T08:42:05.000Z</time></trkpt><trkpt lon="6.003243" lat="51.257764"><ele>-17</ele><time>2022-06-19T08:42:06.000Z</time></trkpt><trkpt lon="6.003147" lat="51.257725"><ele>-17</ele><time>2022-06-19T08:42:07.000Z</time></trkpt><trkpt lon="6.003056" lat="51.257688"><ele>-17</ele><time>2022-06-19T08:42:08.000Z</time></trkpt><trkpt lon="6.002964" lat="51.257653"><ele>-17</ele><time>2022-06-19T08:42:09.000Z</time></trkpt><trkpt lon="6.002876" lat="51.257616"><ele>-17</ele><time>2022-06-19T08:42:10.000Z</time></trkpt><trkpt lon="6.002777" lat="51.257584"><ele>-17</ele><time>2022-06-19T08:42:11.000Z</time></trkpt><trkpt lon="6.002677" lat="51.257558"><ele>-16.8</ele><time>2022-06-19T08:42:12.000Z</time></trkpt><trkpt lon="6.002566" lat="51.257546"><ele>-17</ele><time>2022-06-19T08:42:13.000Z</time></trkpt><trkpt lon="6.002451" lat="51.257549"><ele>-17</ele><time>2022-06-19T08:42:14.000Z</time></trkpt><trkpt lon="6.002336" lat="51.25756"><ele>-16.8</ele><time>2022-06-19T08:42:15.000Z</time></trkpt><trkpt lon="6.002222" lat="51.257583"><ele>-16.8</ele><time>2022-06-19T08:42:16.000Z</time></trkpt><trkpt lon="6.002109" lat="51.25761"><ele>-16.8</ele><time>2022-06-19T08:42:17.000Z</time></trkpt><trkpt lon="6.001998" lat="51.257633"><ele>-16.8</ele><time>2022-06-19T08:42:18.000Z</time></trkpt><trkpt lon="6.001892" lat="51.257659"><ele>-16.6</ele><time>2022-06-19T08:42:19.000Z</time></trkpt><trkpt lon="6.001785" lat="51.257685"><ele>-16.6</ele><time>2022-06-19T08:42:20.000Z</time></trkpt><trkpt lon="6.001676" lat="51.257712"><ele>-16.4</ele><time>2022-06-19T08:42:21.000Z</time></trkpt><trkpt lon="6.001573" lat="51.257739"><ele>-16.2</ele><time>2022-06-19T08:42:22.000Z</time></trkpt><trkpt lon="6.00147" lat="51.257766"><ele>-16</ele><time>2022-06-19T08:42:23.000Z</time></trkpt><trkpt lon="6.001368" lat="51.257793"><ele>-15.8</ele><time>2022-06-19T08:42:24.000Z</time></trkpt><trkpt lon="6.001269" lat="51.257819"><ele>-15.8</ele><time>2022-06-19T08:42:25.000Z</time></trkpt><trkpt lon="6.001178" lat="51.257839"><ele>-15.6</ele><time>2022-06-19T08:42:26.000Z</time></trkpt><trkpt lon="6.001095" lat="51.257865"><ele>-15.6</ele><time>2022-06-19T08:42:27.000Z</time></trkpt><trkpt lon="6.001018" lat="51.257895"><ele>-15.4</ele><time>2022-06-19T08:42:28.000Z</time></trkpt><trkpt lon="6.00095" lat="51.257933"><ele>-15.4</ele><time>2022-06-19T08:42:29.000Z</time></trkpt><trkpt lon="6.000884" lat="51.257968"><ele>-15.2</ele><time>2022-06-19T08:42:30.000Z</time></trkpt><trkpt lon="6.0008" lat="51.25798"><ele>-15.2</ele><time>2022-06-19T08:42:31.000Z</time></trkpt><trkpt lon="6.000703" lat="51.257969"><ele>-15.2</ele><time>2022-06-19T08:42:32.000Z</time></trkpt><trkpt lon="6.000613" lat="51.257943"><ele>-15</ele><time>2022-06-19T08:42:33.000Z</time></trkpt><trkpt lon="6.000523" lat="51.257913"><ele>-15</ele><time>2022-06-19T08:42:34.000Z</time></trkpt><trkpt lon="6.000426" lat="51.257882"><ele>-14.8</ele><time>2022-06-19T08:42:35.000Z</time></trkpt><trkpt lon="6.000329" lat="51.257859"><ele>-14.8</ele><time>2022-06-19T08:42:36.000Z</time></trkpt><trkpt lon="6.000237" lat="51.257832"><ele>-14.6</ele><time>2022-06-19T08:42:37.000Z</time></trkpt><trkpt lon="6.00015" lat="51.25781"><ele>-14.6</ele><time>2022-06-19T08:42:38.000Z</time></trkpt><trkpt lon="6.000056" lat="51.257783"><ele>-14.4</ele><time>2022-06-19T08:42:39.000Z</time></trkpt><trkpt lon="5.999961" lat="51.25776"><ele>-14.4</ele><time>2022-06-19T08:42:40.000Z</time></trkpt><trkpt lon="5.99987" lat="51.257737"><ele>-14.4</ele><time>2022-06-19T08:42:41.000Z</time></trkpt><trkpt lon="5.99978" lat="51.25771"><ele>-14.2</ele><time>2022-06-19T08:42:42.000Z</time></trkpt><trkpt lon="5.999695" lat="51.257688"><ele>-14.2</ele><time>2022-06-19T08:42:43.000Z</time></trkpt><trkpt lon="5.999603" lat="51.257661"><ele>-14</ele><time>2022-06-19T08:42:44.000Z</time></trkpt><trkpt lon="5.999511" lat="51.257638"><ele>-14</ele><time>2022-06-19T08:42:45.000Z</time></trkpt><trkpt lon="5.999419" lat="51.257611"><ele>-13.8</ele><time>2022-06-19T08:42:46.000Z</time></trkpt><trkpt lon="5.999331" lat="51.257581"><ele>-13.8</ele><time>2022-06-19T08:42:47.000Z</time></trkpt><trkpt lon="5.999244" lat="51.257554"><ele>-13.8</ele><time>2022-06-19T08:42:48.000Z</time></trkpt><trkpt lon="5.999154" lat="51.25752"><ele>-13.8</ele><time>2022-06-19T08:42:49.000Z</time></trkpt><trkpt lon="5.999064" lat="51.257486"><ele>-13.8</ele><time>2022-06-19T08:42:50.000Z</time></trkpt><trkpt lon="5.998973" lat="51.257448"><ele>-13.8</ele><time>2022-06-19T08:42:51.000Z</time></trkpt><trkpt lon="5.998885" lat="51.257409"><ele>-13.8</ele><time>2022-06-19T08:42:52.000Z</time></trkpt><trkpt lon="5.998802" lat="51.257369"><ele>-13.6</ele><time>2022-06-19T08:42:53.000Z</time></trkpt><trkpt lon="5.998714" lat="51.257326"><ele>-13.8</ele><time>2022-06-19T08:42:54.000Z</time></trkpt><trkpt lon="5.99863" lat="51.25728"><ele>-13.6</ele><time>2022-06-19T08:42:55.000Z</time></trkpt><trkpt lon="5.998545" lat="51.257242"><ele>-13.6</ele><time>2022-06-19T08:42:56.000Z</time></trkpt><trkpt lon="5.998462" lat="51.2572"><ele>-13.6</ele><time>2022-06-19T08:42:57.000Z</time></trkpt><trkpt lon="5.998377" lat="51.257162"><ele>-13.6</ele><time>2022-06-19T08:42:58.000Z</time></trkpt><trkpt lon="5.998291" lat="51.25712"><ele>-13.6</ele><time>2022-06-19T08:42:59.000Z</time></trkpt><trkpt lon="5.998203" lat="51.257074"><ele>-13.6</ele><time>2022-06-19T08:43:00.000Z</time></trkpt><trkpt lon="5.998116" lat="51.257028"><ele>-13.6</ele><time>2022-06-19T08:43:01.000Z</time></trkpt><trkpt lon="5.998028" lat="51.256982"><ele>-13.6</ele><time>2022-06-19T08:43:02.000Z</time></trkpt><trkpt lon="5.997937" lat="51.256936"><ele>-13.6</ele><time>2022-06-19T08:43:03.000Z</time></trkpt><trkpt lon="5.99785" lat="51.256891"><ele>-13.6</ele><time>2022-06-19T08:43:04.000Z</time></trkpt><trkpt lon="5.997761" lat="51.256845"><ele>-13.6</ele><time>2022-06-19T08:43:05.000Z</time></trkpt><trkpt lon="5.997673" lat="51.256799"><ele>-13.6</ele><time>2022-06-19T08:43:06.000Z</time></trkpt><trkpt lon="5.997584" lat="51.25675"><ele>-13.6</ele><time>2022-06-19T08:43:07.000Z</time></trkpt><trkpt lon="5.997491" lat="51.256704"><ele>-13.8</ele><time>2022-06-19T08:43:08.000Z</time></trkpt><trkpt lon="5.997401" lat="51.256652"><ele>-13.8</ele><time>2022-06-19T08:43:09.000Z</time></trkpt><trkpt lon="5.997309" lat="51.256602"><ele>-14</ele><time>2022-06-19T08:43:10.000Z</time></trkpt><trkpt lon="5.997209" lat="51.256547"><ele>-14.2</ele><time>2022-06-19T08:43:11.000Z</time></trkpt><trkpt lon="5.99711" lat="51.256494"><ele>-14.2</ele><time>2022-06-19T08:43:12.000Z</time></trkpt><trkpt lon="5.997009" lat="51.256441"><ele>-14.4</ele><time>2022-06-19T08:43:13.000Z</time></trkpt><trkpt lon="5.996912" lat="51.256388"><ele>-14.6</ele><time>2022-06-19T08:43:14.000Z</time></trkpt><trkpt lon="5.996816" lat="51.256334"><ele>-14.8</ele><time>2022-06-19T08:43:15.000Z</time></trkpt><trkpt lon="5.996723" lat="51.256277"><ele>-15.2</ele><time>2022-06-19T08:43:16.000Z</time></trkpt><trkpt lon="5.996637" lat="51.256221"><ele>-15.4</ele><time>2022-06-19T08:43:17.000Z</time></trkpt><trkpt lon="5.99655" lat="51.256155"><ele>-15.6</ele><time>2022-06-19T08:43:18.000Z</time></trkpt><trkpt lon="5.996467" lat="51.256093"><ele>-15.6</ele><time>2022-06-19T08:43:19.000Z</time></trkpt><trkpt lon="5.996391" lat="51.25603"><ele>-15.8</ele><time>2022-06-19T08:43:20.000Z</time></trkpt><trkpt lon="5.996317" lat="51.255964"><ele>-16</ele><time>2022-06-19T08:43:21.000Z</time></trkpt><trkpt lon="5.996247" lat="51.2559"><ele>-16</ele><time>2022-06-19T08:43:22.000Z</time></trkpt><trkpt lon="5.99618" lat="51.255835"><ele>-16.2</ele><time>2022-06-19T08:43:23.000Z</time></trkpt><trkpt lon="5.996117" lat="51.255773"><ele>-16</ele><time>2022-06-19T08:43:24.000Z</time></trkpt><trkpt lon="5.996055" lat="51.255709"><ele>-16</ele><time>2022-06-19T08:43:25.000Z</time></trkpt><trkpt lon="5.995994" lat="51.255644"><ele>-16</ele><time>2022-06-19T08:43:26.000Z</time></trkpt><trkpt lon="5.99593" lat="51.255575"><ele>-16</ele><time>2022-06-19T08:43:27.000Z</time></trkpt><trkpt lon="5.995866" lat="51.255511"><ele>-16.2</ele><time>2022-06-19T08:43:28.000Z</time></trkpt><trkpt lon="5.995799" lat="51.255439"><ele>-16.2</ele><time>2022-06-19T08:43:29.000Z</time></trkpt><trkpt lon="5.995734" lat="51.25537"><ele>-16.2</ele><time>2022-06-19T08:43:30.000Z</time></trkpt><trkpt lon="5.995668" lat="51.255297"><ele>-16.4</ele><time>2022-06-19T08:43:31.000Z</time></trkpt><trkpt lon="5.995604" lat="51.255225"><ele>-16.4</ele><time>2022-06-19T08:43:32.000Z</time></trkpt><trkpt lon="5.995539" lat="51.255154"><ele>-16.4</ele><time>2022-06-19T08:43:33.000Z</time></trkpt><trkpt lon="5.995466" lat="51.255075"><ele>-16.4</ele><time>2022-06-19T08:43:34.000Z</time></trkpt><trkpt lon="5.995403" lat="51.255002"><ele>-16.2</ele><time>2022-06-19T08:43:35.000Z</time></trkpt><trkpt lon="5.995335" lat="51.254927"><ele>-16.2</ele><time>2022-06-19T08:43:36.000Z</time></trkpt><trkpt lon="5.995275" lat="51.254856"><ele>-16.2</ele><time>2022-06-19T08:43:37.000Z</time></trkpt><trkpt lon="5.99521" lat="51.254782"><ele>-16</ele><time>2022-06-19T08:43:38.000Z</time></trkpt><trkpt lon="5.99516" lat="51.25471"><ele>-15.8</ele><time>2022-06-19T08:43:39.000Z</time></trkpt><trkpt lon="5.995108" lat="51.254637"><ele>-15.6</ele><time>2022-06-19T08:43:40.000Z</time></trkpt><trkpt lon="5.995063" lat="51.254565"><ele>-15.4</ele><time>2022-06-19T08:43:41.000Z</time></trkpt><trkpt lon="5.99502" lat="51.254499"><ele>-15.4</ele><time>2022-06-19T08:43:42.000Z</time></trkpt><trkpt lon="5.994976" lat="51.254434"><ele>-15.2</ele><time>2022-06-19T08:43:43.000Z</time></trkpt><trkpt lon="5.994934" lat="51.25437"><ele>-15</ele><time>2022-06-19T08:43:44.000Z</time></trkpt><trkpt lon="5.994893" lat="51.254311"><ele>-14.8</ele><time>2022-06-19T08:43:45.000Z</time></trkpt><trkpt lon="5.99484" lat="51.254251"><ele>-14.6</ele><time>2022-06-19T08:43:46.000Z</time></trkpt><trkpt lon="5.994786" lat="51.254191"><ele>-14.6</ele><time>2022-06-19T08:43:47.000Z</time></trkpt><trkpt lon="5.99473" lat="51.254125"><ele>-14.4</ele><time>2022-06-19T08:43:48.000Z</time></trkpt><trkpt lon="5.994673" lat="51.25406"><ele>-14.4</ele><time>2022-06-19T08:43:49.000Z</time></trkpt><trkpt lon="5.994615" lat="51.253992"><ele>-14.4</ele><time>2022-06-19T08:43:50.000Z</time></trkpt><trkpt lon="5.994556" lat="51.253925"><ele>-14.4</ele><time>2022-06-19T08:43:51.000Z</time></trkpt><trkpt lon="5.994493" lat="51.253851"><ele>-14.6</ele><time>2022-06-19T08:43:52.000Z</time></trkpt><trkpt lon="5.994435" lat="51.253778"><ele>-14.6</ele><time>2022-06-19T08:43:53.000Z</time></trkpt><trkpt lon="5.994373" lat="51.253702"><ele>-14.6</ele><time>2022-06-19T08:43:54.000Z</time></trkpt><trkpt lon="5.994311" lat="51.253625"><ele>-14.6</ele><time>2022-06-19T08:43:55.000Z</time></trkpt><trkpt lon="5.994248" lat="51.253554"><ele>-14.6</ele><time>2022-06-19T08:43:56.000Z</time></trkpt><trkpt lon="5.99418" lat="51.253485"><ele>-14.6</ele><time>2022-06-19T08:43:57.000Z</time></trkpt><trkpt lon="5.994113" lat="51.25342"><ele>-14.8</ele><time>2022-06-19T08:43:58.000Z</time></trkpt><trkpt lon="5.994044" lat="51.253355"><ele>-14.8</ele><time>2022-06-19T08:43:59.000Z</time></trkpt><trkpt lon="5.993974" lat="51.25329"><ele>-14.6</ele><time>2022-06-19T08:44:00.000Z</time></trkpt><trkpt lon="5.993905" lat="51.253225"><ele>-14.6</ele><time>2022-06-19T08:44:01.000Z</time></trkpt><trkpt lon="5.993839" lat="51.253157"><ele>-14.6</ele><time>2022-06-19T08:44:02.000Z</time></trkpt><trkpt lon="5.993773" lat="51.253091"><ele>-14.4</ele><time>2022-06-19T08:44:03.000Z</time></trkpt><trkpt lon="5.99371" lat="51.253023"><ele>-14.4</ele><time>2022-06-19T08:44:04.000Z</time></trkpt><trkpt lon="5.993652" lat="51.25296"><ele>-14.4</ele><time>2022-06-19T08:44:05.000Z</time></trkpt><trkpt lon="5.99359" lat="51.252886"><ele>-14.6</ele><time>2022-06-19T08:44:06.000Z</time></trkpt><trkpt lon="5.993526" lat="51.252813"><ele>-14.8</ele><time>2022-06-19T08:44:07.000Z</time></trkpt><trkpt lon="5.993461" lat="51.252738"><ele>-15</ele><time>2022-06-19T08:44:08.000Z</time></trkpt><trkpt lon="5.993392" lat="51.252657"><ele>-15.4</ele><time>2022-06-19T08:44:09.000Z</time></trkpt><trkpt lon="5.993321" lat="51.252582"><ele>-15.8</ele><time>2022-06-19T08:44:10.000Z</time></trkpt><trkpt lon="5.993251" lat="51.252501"><ele>-16</ele><time>2022-06-19T08:44:11.000Z</time></trkpt><trkpt lon="5.993184" lat="51.252421"><ele>-16</ele><time>2022-06-19T08:44:12.000Z</time></trkpt><trkpt lon="5.993121" lat="51.252349"><ele>-16</ele><time>2022-06-19T08:44:13.000Z</time></trkpt><trkpt lon="5.99306" lat="51.252281"><ele>-15.8</ele><time>2022-06-19T08:44:14.000Z</time></trkpt><trkpt lon="5.992998" lat="51.25221"><ele>-15.6</ele><time>2022-06-19T08:44:15.000Z</time></trkpt><trkpt lon="5.99294" lat="51.252142"><ele>-15.4</ele><time>2022-06-19T08:44:16.000Z</time></trkpt><trkpt lon="5.99288" lat="51.252077"><ele>-15</ele><time>2022-06-19T08:44:17.000Z</time></trkpt><trkpt lon="5.992821" lat="51.252008"><ele>-14.8</ele><time>2022-06-19T08:44:18.000Z</time></trkpt><trkpt lon="5.992765" lat="51.251944"><ele>-14.6</ele><time>2022-06-19T08:44:19.000Z</time></trkpt><trkpt lon="5.992708" lat="51.251875"><ele>-14.6</ele><time>2022-06-19T08:44:20.000Z</time></trkpt><trkpt lon="5.99265" lat="51.251806"><ele>-14.4</ele><time>2022-06-19T08:44:21.000Z</time></trkpt><trkpt lon="5.992593" lat="51.251738"><ele>-14.4</ele><time>2022-06-19T08:44:22.000Z</time></trkpt><trkpt lon="5.992535" lat="51.251669"><ele>-14.4</ele><time>2022-06-19T08:44:23.000Z</time></trkpt><trkpt lon="5.992479" lat="51.251601"><ele>-14.4</ele><time>2022-06-19T08:44:24.000Z</time></trkpt><trkpt lon="5.992422" lat="51.251534"><ele>-14.4</ele><time>2022-06-19T08:44:25.000Z</time></trkpt><trkpt lon="5.992362" lat="51.251463"><ele>-14.4</ele><time>2022-06-19T08:44:26.000Z</time></trkpt><trkpt lon="5.992303" lat="51.251394"><ele>-14.4</ele><time>2022-06-19T08:44:27.000Z</time></trkpt><trkpt lon="5.992245" lat="51.251325"><ele>-14.4</ele><time>2022-06-19T08:44:28.000Z</time></trkpt><trkpt lon="5.992183" lat="51.251253"><ele>-14.2</ele><time>2022-06-19T08:44:29.000Z</time></trkpt><trkpt lon="5.992121" lat="51.251181"><ele>-14.2</ele><time>2022-06-19T08:44:30.000Z</time></trkpt><trkpt lon="5.992058" lat="51.25111"><ele>-14</ele><time>2022-06-19T08:44:31.000Z</time></trkpt><trkpt lon="5.991987" lat="51.251054"><ele>-14</ele><time>2022-06-19T08:44:32.000Z</time></trkpt><trkpt lon="5.991926" lat="51.250985"><ele>-14</ele><time>2022-06-19T08:44:33.000Z</time></trkpt><trkpt lon="5.991883" lat="51.250918"><ele>-14</ele><time>2022-06-19T08:44:34.000Z</time></trkpt><trkpt lon="5.991827" lat="51.250856"><ele>-14</ele><time>2022-06-19T08:44:35.000Z</time></trkpt><trkpt lon="5.991775" lat="51.250795"><ele>-14</ele><time>2022-06-19T08:44:36.000Z</time></trkpt><trkpt lon="5.99172" lat="51.25073"><ele>-14</ele><time>2022-06-19T08:44:37.000Z</time></trkpt><trkpt lon="5.991663" lat="51.250669"><ele>-14</ele><time>2022-06-19T08:44:38.000Z</time></trkpt><trkpt lon="5.991606" lat="51.250605"><ele>-14</ele><time>2022-06-19T08:44:39.000Z</time></trkpt><trkpt lon="5.991543" lat="51.250543"><ele>-13.8</ele><time>2022-06-19T08:44:40.000Z</time></trkpt><trkpt lon="5.991484" lat="51.250479"><ele>-13.8</ele><time>2022-06-19T08:44:41.000Z</time></trkpt><trkpt lon="5.991427" lat="51.250418"><ele>-13.8</ele><time>2022-06-19T08:44:42.000Z</time></trkpt><trkpt lon="5.991367" lat="51.25035"><ele>-13.8</ele><time>2022-06-19T08:44:43.000Z</time></trkpt><trkpt lon="5.991308" lat="51.25028"><ele>-13.8</ele><time>2022-06-19T08:44:44.000Z</time></trkpt><trkpt lon="5.991248" lat="51.250211"><ele>-13.8</ele><time>2022-06-19T08:44:45.000Z</time></trkpt><trkpt lon="5.99119" lat="51.250139"><ele>-13.8</ele><time>2022-06-19T08:44:46.000Z</time></trkpt><trkpt lon="5.991128" lat="51.250067"><ele>-13.8</ele><time>2022-06-19T08:44:47.000Z</time></trkpt><trkpt lon="5.991064" lat="51.249994"><ele>-13.8</ele><time>2022-06-19T08:44:48.000Z</time></trkpt><trkpt lon="5.991002" lat="51.249921"><ele>-13.8</ele><time>2022-06-19T08:44:49.000Z</time></trkpt><trkpt lon="5.990938" lat="51.249849"><ele>-13.8</ele><time>2022-06-19T08:44:50.000Z</time></trkpt><trkpt lon="5.990876" lat="51.249777"><ele>-13.8</ele><time>2022-06-19T08:44:51.000Z</time></trkpt><trkpt lon="5.990817" lat="51.249704"><ele>-14</ele><time>2022-06-19T08:44:52.000Z</time></trkpt><trkpt lon="5.990758" lat="51.249632"><ele>-14</ele><time>2022-06-19T08:44:53.000Z</time></trkpt><trkpt lon="5.990701" lat="51.249563"><ele>-14</ele><time>2022-06-19T08:44:54.000Z</time></trkpt><trkpt lon="5.990646" lat="51.249495"><ele>-14</ele><time>2022-06-19T08:44:55.000Z</time></trkpt><trkpt lon="5.990588" lat="51.249426"><ele>-14</ele><time>2022-06-19T08:44:56.000Z</time></trkpt><trkpt lon="5.990531" lat="51.249357"><ele>-14</ele><time>2022-06-19T08:44:57.000Z</time></trkpt><trkpt lon="5.990475" lat="51.249291"><ele>-14</ele><time>2022-06-19T08:44:58.000Z</time></trkpt><trkpt lon="5.990412" lat="51.249221"><ele>-14</ele><time>2022-06-19T08:44:59.000Z</time></trkpt><trkpt lon="5.990349" lat="51.249148"><ele>-14</ele><time>2022-06-19T08:45:00.000Z</time></trkpt><trkpt lon="5.99029" lat="51.24908"><ele>-14.2</ele><time>2022-06-19T08:45:01.000Z</time></trkpt><trkpt lon="5.990229" lat="51.249007"><ele>-14.2</ele><time>2022-06-19T08:45:02.000Z</time></trkpt><trkpt lon="5.990169" lat="51.248938"><ele>-14</ele><time>2022-06-19T08:45:03.000Z</time></trkpt><trkpt lon="5.990109" lat="51.248868"><ele>-14</ele><time>2022-06-19T08:45:04.000Z</time></trkpt><trkpt lon="5.99005" lat="51.2488"><ele>-13.8</ele><time>2022-06-19T08:45:05.000Z</time></trkpt><trkpt lon="5.98999" lat="51.248728"><ele>-13.8</ele><time>2022-06-19T08:45:06.000Z</time></trkpt><trkpt lon="5.98993" lat="51.248659"><ele>-13.8</ele><time>2022-06-19T08:45:07.000Z</time></trkpt><trkpt lon="5.98987" lat="51.24859"><ele>-13.6</ele><time>2022-06-19T08:45:08.000Z</time></trkpt><trkpt lon="5.989812" lat="51.248522"><ele>-13.6</ele><time>2022-06-19T08:45:09.000Z</time></trkpt><trkpt lon="5.989755" lat="51.248453"><ele>-13.6</ele><time>2022-06-19T08:45:10.000Z</time></trkpt><trkpt lon="5.989696" lat="51.248384"><ele>-13.6</ele><time>2022-06-19T08:45:11.000Z</time></trkpt><trkpt lon="5.989635" lat="51.248315"><ele>-13.8</ele><time>2022-06-19T08:45:12.000Z</time></trkpt><trkpt lon="5.989573" lat="51.248247"><ele>-13.8</ele><time>2022-06-19T08:45:13.000Z</time></trkpt><trkpt lon="5.989507" lat="51.248182"><ele>-13.8</ele><time>2022-06-19T08:45:14.000Z</time></trkpt><trkpt lon="5.989438" lat="51.248123"><ele>-13.6</ele><time>2022-06-19T08:45:15.000Z</time></trkpt><trkpt lon="5.989364" lat="51.248057"><ele>-13.6</ele><time>2022-06-19T08:45:16.000Z</time></trkpt><trkpt lon="5.98929" lat="51.247992"><ele>-13.6</ele><time>2022-06-19T08:45:17.000Z</time></trkpt><trkpt lon="5.989216" lat="51.247927"><ele>-13.6</ele><time>2022-06-19T08:45:18.000Z</time></trkpt><trkpt lon="5.989144" lat="51.247862"><ele>-13.6</ele><time>2022-06-19T08:45:19.000Z</time></trkpt><trkpt lon="5.989073" lat="51.247793"><ele>-13.6</ele><time>2022-06-19T08:45:20.000Z</time></trkpt><trkpt lon="5.989003" lat="51.247728"><ele>-13.6</ele><time>2022-06-19T08:45:21.000Z</time></trkpt><trkpt lon="5.988934" lat="51.247664"><ele>-13.4</ele><time>2022-06-19T08:45:22.000Z</time></trkpt><trkpt lon="5.988865" lat="51.2476"><ele>-13.4</ele><time>2022-06-19T08:45:23.000Z</time></trkpt><trkpt lon="5.988797" lat="51.247538"><ele>-13.2</ele><time>2022-06-19T08:45:24.000Z</time></trkpt><trkpt lon="5.988731" lat="51.247474"><ele>-13.2</ele><time>2022-06-19T08:45:25.000Z</time></trkpt><trkpt lon="5.988668" lat="51.247411"><ele>-13.2</ele><time>2022-06-19T08:45:26.000Z</time></trkpt><trkpt lon="5.988602" lat="51.247339"><ele>-13.2</ele><time>2022-06-19T08:45:27.000Z</time></trkpt><trkpt lon="5.988543" lat="51.247267"><ele>-13.2</ele><time>2022-06-19T08:45:28.000Z</time></trkpt><trkpt lon="5.988488" lat="51.247202"><ele>-13</ele><time>2022-06-19T08:45:29.000Z</time></trkpt><trkpt lon="5.988432" lat="51.24713"><ele>-13</ele><time>2022-06-19T08:45:30.000Z</time></trkpt><trkpt lon="5.988378" lat="51.247063"><ele>-13</ele><time>2022-06-19T08:45:31.000Z</time></trkpt><trkpt lon="5.98832" lat="51.246994"><ele>-13</ele><time>2022-06-19T08:45:32.000Z</time></trkpt><trkpt lon="5.988261" lat="51.24692"><ele>-13</ele><time>2022-06-19T08:45:33.000Z</time></trkpt><trkpt lon="5.988205" lat="51.246851"><ele>-13</ele><time>2022-06-19T08:45:34.000Z</time></trkpt><trkpt lon="5.988147" lat="51.246779"><ele>-12.8</ele><time>2022-06-19T08:45:35.000Z</time></trkpt><trkpt lon="5.98809" lat="51.246714"><ele>-12.8</ele><time>2022-06-19T08:45:36.000Z</time></trkpt><trkpt lon="5.988033" lat="51.246641"><ele>-12.8</ele><time>2022-06-19T08:45:37.000Z</time></trkpt><trkpt lon="5.987978" lat="51.246573"><ele>-12.8</ele><time>2022-06-19T08:45:38.000Z</time></trkpt><trkpt lon="5.987923" lat="51.2465"><ele>-12.8</ele><time>2022-06-19T08:45:39.000Z</time></trkpt><trkpt lon="5.987867" lat="51.246432"><ele>-12.8</ele><time>2022-06-19T08:45:40.000Z</time></trkpt><trkpt lon="5.98781" lat="51.246363"><ele>-12.8</ele><time>2022-06-19T08:45:41.000Z</time></trkpt><trkpt lon="5.987753" lat="51.246294"><ele>-12.8</ele><time>2022-06-19T08:45:42.000Z</time></trkpt><trkpt lon="5.987695" lat="51.246226"><ele>-12.8</ele><time>2022-06-19T08:45:43.000Z</time></trkpt><trkpt lon="5.987634" lat="51.246157"><ele>-12.6</ele><time>2022-06-19T08:45:44.000Z</time></trkpt><trkpt lon="5.987571" lat="51.246089"><ele>-12.6</ele><time>2022-06-19T08:45:45.000Z</time></trkpt><trkpt lon="5.987504" lat="51.246023"><ele>-12.6</ele><time>2022-06-19T08:45:46.000Z</time></trkpt><trkpt lon="5.987437" lat="51.245955"><ele>-12.4</ele><time>2022-06-19T08:45:47.000Z</time></trkpt><trkpt lon="5.987373" lat="51.24589"><ele>-12.4</ele><time>2022-06-19T08:45:48.000Z</time></trkpt><trkpt lon="5.987302" lat="51.245817"><ele>-12.4</ele><time>2022-06-19T08:45:49.000Z</time></trkpt><trkpt lon="5.987233" lat="51.245748"><ele>-12.6</ele><time>2022-06-19T08:45:50.000Z</time></trkpt><trkpt lon="5.987166" lat="51.245683"><ele>-12.6</ele><time>2022-06-19T08:45:51.000Z</time></trkpt><trkpt lon="5.9871" lat="51.245615"><ele>-12.6</ele><time>2022-06-19T08:45:52.000Z</time></trkpt><trkpt lon="5.987035" lat="51.245548"><ele>-12.6</ele><time>2022-06-19T08:45:53.000Z</time></trkpt><trkpt lon="5.98697" lat="51.245479"><ele>-12.6</ele><time>2022-06-19T08:45:54.000Z</time></trkpt><trkpt lon="5.986902" lat="51.245413"><ele>-12.6</ele><time>2022-06-19T08:45:55.000Z</time></trkpt><trkpt lon="5.986837" lat="51.245345"><ele>-12.6</ele><time>2022-06-19T08:45:56.000Z</time></trkpt><trkpt lon="5.986773" lat="51.245276"><ele>-12.6</ele><time>2022-06-19T08:45:57.000Z</time></trkpt><trkpt lon="5.986707" lat="51.245207"><ele>-12.6</ele><time>2022-06-19T08:45:58.000Z</time></trkpt><trkpt lon="5.986643" lat="51.245139"><ele>-12.4</ele><time>2022-06-19T08:45:59.000Z</time></trkpt><trkpt lon="5.986578" lat="51.24507"><ele>-12.4</ele><time>2022-06-19T08:46:00.000Z</time></trkpt><trkpt lon="5.986518" lat="51.245002"><ele>-12.4</ele><time>2022-06-19T08:46:01.000Z</time></trkpt><trkpt lon="5.98646" lat="51.244929"><ele>-12.4</ele><time>2022-06-19T08:46:02.000Z</time></trkpt><trkpt lon="5.986405" lat="51.244856"><ele>-12.4</ele><time>2022-06-19T08:46:03.000Z</time></trkpt><trkpt lon="5.986355" lat="51.244784"><ele>-12.2</ele><time>2022-06-19T08:46:04.000Z</time></trkpt><trkpt lon="5.986309" lat="51.244716"><ele>-12.2</ele><time>2022-06-19T08:46:05.000Z</time></trkpt><trkpt lon="5.986265" lat="51.244646"><ele>-12.2</ele><time>2022-06-19T08:46:06.000Z</time></trkpt><trkpt lon="5.986222" lat="51.244575"><ele>-12</ele><time>2022-06-19T08:46:07.000Z</time></trkpt><trkpt lon="5.986178" lat="51.244505"><ele>-12</ele><time>2022-06-19T08:46:08.000Z</time></trkpt><trkpt lon="5.986133" lat="51.244429"><ele>-12</ele><time>2022-06-19T08:46:09.000Z</time></trkpt><trkpt lon="5.98609" lat="51.244353"><ele>-12</ele><time>2022-06-19T08:46:10.000Z</time></trkpt><trkpt lon="5.98605" lat="51.244274"><ele>-12</ele><time>2022-06-19T08:46:11.000Z</time></trkpt><trkpt lon="5.986006" lat="51.244196"><ele>-12</ele><time>2022-06-19T08:46:12.000Z</time></trkpt><trkpt lon="5.985962" lat="51.244121"><ele>-12</ele><time>2022-06-19T08:46:13.000Z</time></trkpt><trkpt lon="5.985916" lat="51.244043"><ele>-11.8</ele><time>2022-06-19T08:46:14.000Z</time></trkpt><trkpt lon="5.98587" lat="51.243967"><ele>-11.8</ele><time>2022-06-19T08:46:15.000Z</time></trkpt><trkpt lon="5.985823" lat="51.243895"><ele>-11.8</ele><time>2022-06-19T08:46:16.000Z</time></trkpt><trkpt lon="5.985776" lat="51.243822"><ele>-11.8</ele><time>2022-06-19T08:46:17.000Z</time></trkpt><trkpt lon="5.985725" lat="51.243746"><ele>-11.6</ele><time>2022-06-19T08:46:18.000Z</time></trkpt><trkpt lon="5.98567" lat="51.243674"><ele>-11.6</ele><time>2022-06-19T08:46:19.000Z</time></trkpt><trkpt lon="5.98561" lat="51.243604"><ele>-11.6</ele><time>2022-06-19T08:46:20.000Z</time></trkpt><trkpt lon="5.985547" lat="51.243536"><ele>-11.4</ele><time>2022-06-19T08:46:21.000Z</time></trkpt><trkpt lon="5.985478" lat="51.243467"><ele>-11.4</ele><time>2022-06-19T08:46:22.000Z</time></trkpt><trkpt lon="5.985406" lat="51.243403"><ele>-11.4</ele><time>2022-06-19T08:46:23.000Z</time></trkpt><trkpt lon="5.985331" lat="51.243338"><ele>-11.4</ele><time>2022-06-19T08:46:24.000Z</time></trkpt><trkpt lon="5.985256" lat="51.243273"><ele>-11.2</ele><time>2022-06-19T08:46:25.000Z</time></trkpt><trkpt lon="5.985179" lat="51.243208"><ele>-11.2</ele><time>2022-06-19T08:46:26.000Z</time></trkpt><trkpt lon="5.985103" lat="51.243144"><ele>-11</ele><time>2022-06-19T08:46:27.000Z</time></trkpt><trkpt lon="5.985029" lat="51.243078"><ele>-11</ele><time>2022-06-19T08:46:28.000Z</time></trkpt><trkpt lon="5.984957" lat="51.24301"><ele>-11</ele><time>2022-06-19T08:46:29.000Z</time></trkpt><trkpt lon="5.984891" lat="51.242945"><ele>-11</ele><time>2022-06-19T08:46:30.000Z</time></trkpt><trkpt lon="5.984817" lat="51.242872"><ele>-11</ele><time>2022-06-19T08:46:31.000Z</time></trkpt><trkpt lon="5.984751" lat="51.242804"><ele>-10.8</ele><time>2022-06-19T08:46:32.000Z</time></trkpt><trkpt lon="5.984686" lat="51.242736"><ele>-10.8</ele><time>2022-06-19T08:46:33.000Z</time></trkpt><trkpt lon="5.98462" lat="51.242666"><ele>-11</ele><time>2022-06-19T08:46:34.000Z</time></trkpt><trkpt lon="5.984556" lat="51.242599"><ele>-11</ele><time>2022-06-19T08:46:35.000Z</time></trkpt><trkpt lon="5.984492" lat="51.242529"><ele>-10.8</ele><time>2022-06-19T08:46:36.000Z</time></trkpt><trkpt lon="5.984429" lat="51.242461"><ele>-10.8</ele><time>2022-06-19T08:46:37.000Z</time></trkpt><trkpt lon="5.984364" lat="51.242392"><ele>-10.6</ele><time>2022-06-19T08:46:38.000Z</time></trkpt><trkpt lon="5.984299" lat="51.242323"><ele>-10.6</ele><time>2022-06-19T08:46:39.000Z</time></trkpt><trkpt lon="5.984234" lat="51.242251"><ele>-10.6</ele><time>2022-06-19T08:46:40.000Z</time></trkpt><trkpt lon="5.984168" lat="51.242183"><ele>-10.6</ele><time>2022-06-19T08:46:41.000Z</time></trkpt><trkpt lon="5.984102" lat="51.242109"><ele>-10.6</ele><time>2022-06-19T08:46:42.000Z</time></trkpt><trkpt lon="5.984037" lat="51.242041"><ele>-10.6</ele><time>2022-06-19T08:46:43.000Z</time></trkpt><trkpt lon="5.983976" lat="51.241971"><ele>-10.6</ele><time>2022-06-19T08:46:44.000Z</time></trkpt><trkpt lon="5.983913" lat="51.241892"><ele>-10.6</ele><time>2022-06-19T08:46:45.000Z</time></trkpt><trkpt lon="5.983856" lat="51.24182"><ele>-10.6</ele><time>2022-06-19T08:46:46.000Z</time></trkpt><trkpt lon="5.983802" lat="51.241747"><ele>-10.6</ele><time>2022-06-19T08:46:47.000Z</time></trkpt><trkpt lon="5.983747" lat="51.241671"><ele>-10.6</ele><time>2022-06-19T08:46:48.000Z</time></trkpt><trkpt lon="5.983695" lat="51.241595"><ele>-10.6</ele><time>2022-06-19T08:46:49.000Z</time></trkpt><trkpt lon="5.983643" lat="51.241522"><ele>-10.6</ele><time>2022-06-19T08:46:50.000Z</time></trkpt><trkpt lon="5.983591" lat="51.241445"><ele>-10.6</ele><time>2022-06-19T08:46:51.000Z</time></trkpt><trkpt lon="5.98354" lat="51.241369"><ele>-10.6</ele><time>2022-06-19T08:46:52.000Z</time></trkpt><trkpt lon="5.983488" lat="51.241293"><ele>-10.8</ele><time>2022-06-19T08:46:53.000Z</time></trkpt><trkpt lon="5.983437" lat="51.241221"><ele>-10.8</ele><time>2022-06-19T08:46:54.000Z</time></trkpt><trkpt lon="5.983387" lat="51.241141"><ele>-10.8</ele><time>2022-06-19T08:46:55.000Z</time></trkpt><trkpt lon="5.983333" lat="51.241068"><ele>-10.8</ele><time>2022-06-19T08:46:56.000Z</time></trkpt><trkpt lon="5.983286" lat="51.240993"><ele>-10.8</ele><time>2022-06-19T08:46:57.000Z</time></trkpt><trkpt lon="5.983236" lat="51.240916"><ele>-10.8</ele><time>2022-06-19T08:46:58.000Z</time></trkpt><trkpt lon="5.983189" lat="51.240839"><ele>-10.8</ele><time>2022-06-19T08:46:59.000Z</time></trkpt><trkpt lon="5.983145" lat="51.240767"><ele>-10.8</ele><time>2022-06-19T08:47:00.000Z</time></trkpt><trkpt lon="5.983104" lat="51.240693"><ele>-10.8</ele><time>2022-06-19T08:47:01.000Z</time></trkpt><trkpt lon="5.983061" lat="51.240618"><ele>-10.6</ele><time>2022-06-19T08:47:02.000Z</time></trkpt><trkpt lon="5.98302" lat="51.240543"><ele>-10.6</ele><time>2022-06-19T08:47:03.000Z</time></trkpt><trkpt lon="5.982977" lat="51.240466"><ele>-10.6</ele><time>2022-06-19T08:47:04.000Z</time></trkpt><trkpt lon="5.982933" lat="51.240394"><ele>-10.6</ele><time>2022-06-19T08:47:05.000Z</time></trkpt><trkpt lon="5.982891" lat="51.240317"><ele>-10.6</ele><time>2022-06-19T08:47:06.000Z</time></trkpt><trkpt lon="5.98285" lat="51.240245"><ele>-10.6</ele><time>2022-06-19T08:47:07.000Z</time></trkpt><trkpt lon="5.982808" lat="51.240168"><ele>-10.6</ele><time>2022-06-19T08:47:08.000Z</time></trkpt><trkpt lon="5.982768" lat="51.240096"><ele>-10.6</ele><time>2022-06-19T08:47:09.000Z</time></trkpt><trkpt lon="5.982729" lat="51.240029"><ele>-10.6</ele><time>2022-06-19T08:47:10.000Z</time></trkpt><trkpt lon="5.982688" lat="51.239954"><ele>-10.6</ele><time>2022-06-19T08:47:11.000Z</time></trkpt><trkpt lon="5.982648" lat="51.239886"><ele>-10.6</ele><time>2022-06-19T08:47:12.000Z</time></trkpt><trkpt lon="5.982609" lat="51.239814"><ele>-10.6</ele><time>2022-06-19T08:47:13.000Z</time></trkpt><trkpt lon="5.982568" lat="51.239741"><ele>-10.6</ele><time>2022-06-19T08:47:14.000Z</time></trkpt><trkpt lon="5.982527" lat="51.239669"><ele>-10.6</ele><time>2022-06-19T08:47:15.000Z</time></trkpt><trkpt lon="5.982486" lat="51.239592"><ele>-10.6</ele><time>2022-06-19T08:47:16.000Z</time></trkpt><trkpt lon="5.982441" lat="51.239512"><ele>-10.6</ele><time>2022-06-19T08:47:17.000Z</time></trkpt><trkpt lon="5.982395" lat="51.239435"><ele>-10.6</ele><time>2022-06-19T08:47:18.000Z</time></trkpt><trkpt lon="5.98234" lat="51.239354"><ele>-10.8</ele><time>2022-06-19T08:47:19.000Z</time></trkpt><trkpt lon="5.98228" lat="51.239275"><ele>-10.6</ele><time>2022-06-19T08:47:20.000Z</time></trkpt><trkpt lon="5.98222" lat="51.239199"><ele>-10.4</ele><time>2022-06-19T08:47:21.000Z</time></trkpt><trkpt lon="5.982153" lat="51.239126"><ele>-10.2</ele><time>2022-06-19T08:47:22.000Z</time></trkpt><trkpt lon="5.982094" lat="51.239067"><ele>-10.2</ele><time>2022-06-19T08:47:23.000Z</time></trkpt><trkpt lon="5.982014" lat="51.238991"><ele>-10.2</ele><time>2022-06-19T08:47:24.000Z</time></trkpt><trkpt lon="5.981938" lat="51.238924"><ele>-10.2</ele><time>2022-06-19T08:47:25.000Z</time></trkpt><trkpt lon="5.981872" lat="51.238867"><ele>-10.4</ele><time>2022-06-19T08:47:26.000Z</time></trkpt><trkpt lon="5.981795" lat="51.238802"><ele>-10.4</ele><time>2022-06-19T08:47:27.000Z</time></trkpt><trkpt lon="5.981724" lat="51.238737"><ele>-10.4</ele><time>2022-06-19T08:47:28.000Z</time></trkpt><trkpt lon="5.981652" lat="51.23868"><ele>-10.4</ele><time>2022-06-19T08:47:29.000Z</time></trkpt><trkpt lon="5.981581" lat="51.238617"><ele>-10.6</ele><time>2022-06-19T08:47:30.000Z</time></trkpt><trkpt lon="5.981504" lat="51.238558"><ele>-10.6</ele><time>2022-06-19T08:47:31.000Z</time></trkpt><trkpt lon="5.981428" lat="51.238496"><ele>-10.6</ele><time>2022-06-19T08:47:32.000Z</time></trkpt><trkpt lon="5.981355" lat="51.238432"><ele>-10.6</ele><time>2022-06-19T08:47:33.000Z</time></trkpt><trkpt lon="5.98128" lat="51.23837"><ele>-10.8</ele><time>2022-06-19T08:47:34.000Z</time></trkpt><trkpt lon="5.981206" lat="51.23831"><ele>-10.8</ele><time>2022-06-19T08:47:35.000Z</time></trkpt><trkpt lon="5.98113" lat="51.238246"><ele>-10.8</ele><time>2022-06-19T08:47:36.000Z</time></trkpt><trkpt lon="5.981054" lat="51.238184"><ele>-10.8</ele><time>2022-06-19T08:47:37.000Z</time></trkpt><trkpt lon="5.980977" lat="51.238119"><ele>-10.8</ele><time>2022-06-19T08:47:38.000Z</time></trkpt><trkpt lon="5.980904" lat="51.238058"><ele>-10.8</ele><time>2022-06-19T08:47:39.000Z</time></trkpt><trkpt lon="5.980833" lat="51.237996"><ele>-10.8</ele><time>2022-06-19T08:47:40.000Z</time></trkpt><trkpt lon="5.98076" lat="51.237932"><ele>-10.8</ele><time>2022-06-19T08:47:41.000Z</time></trkpt><trkpt lon="5.980685" lat="51.237868"><ele>-10.8</ele><time>2022-06-19T08:47:42.000Z</time></trkpt><trkpt lon="5.980609" lat="51.237807"><ele>-10.8</ele><time>2022-06-19T08:47:43.000Z</time></trkpt><trkpt lon="5.980534" lat="51.237742"><ele>-10.8</ele><time>2022-06-19T08:47:44.000Z</time></trkpt><trkpt lon="5.980461" lat="51.237681"><ele>-10.8</ele><time>2022-06-19T08:47:45.000Z</time></trkpt><trkpt lon="5.980388" lat="51.23762"><ele>-10.6</ele><time>2022-06-19T08:47:46.000Z</time></trkpt><trkpt lon="5.980314" lat="51.237555"><ele>-10.6</ele><time>2022-06-19T08:47:47.000Z</time></trkpt><trkpt lon="5.980243" lat="51.237495"><ele>-10.6</ele><time>2022-06-19T08:47:48.000Z</time></trkpt><trkpt lon="5.980164" lat="51.237433"><ele>-10.6</ele><time>2022-06-19T08:47:49.000Z</time></trkpt><trkpt lon="5.98009" lat="51.237372"><ele>-10.6</ele><time>2022-06-19T08:47:50.000Z</time></trkpt><trkpt lon="5.980013" lat="51.237306"><ele>-10.6</ele><time>2022-06-19T08:47:51.000Z</time></trkpt><trkpt lon="5.979938" lat="51.237246"><ele>-10.6</ele><time>2022-06-19T08:47:52.000Z</time></trkpt><trkpt lon="5.979859" lat="51.237188"><ele>-10.6</ele><time>2022-06-19T08:47:53.000Z</time></trkpt><trkpt lon="5.979779" lat="51.237128"><ele>-10.6</ele><time>2022-06-19T08:47:54.000Z</time></trkpt><trkpt lon="5.979697" lat="51.237066"><ele>-10.6</ele><time>2022-06-19T08:47:55.000Z</time></trkpt><trkpt lon="5.979619" lat="51.237005"><ele>-10.6</ele><time>2022-06-19T08:47:56.000Z</time></trkpt><trkpt lon="5.979542" lat="51.236948"><ele>-10.6</ele><time>2022-06-19T08:47:57.000Z</time></trkpt><trkpt lon="5.979466" lat="51.236887"><ele>-10.6</ele><time>2022-06-19T08:47:58.000Z</time></trkpt><trkpt lon="5.979393" lat="51.236826"><ele>-10.6</ele><time>2022-06-19T08:47:59.000Z</time></trkpt><trkpt lon="5.979315" lat="51.236768"><ele>-10.6</ele><time>2022-06-19T08:48:00.000Z</time></trkpt><trkpt lon="5.979238" lat="51.236708"><ele>-10.4</ele><time>2022-06-19T08:48:01.000Z</time></trkpt><trkpt lon="5.979157" lat="51.236647"><ele>-10.4</ele><time>2022-06-19T08:48:02.000Z</time></trkpt><trkpt lon="5.979081" lat="51.236585"><ele>-10.4</ele><time>2022-06-19T08:48:03.000Z</time></trkpt><trkpt lon="5.979006" lat="51.236526"><ele>-10.6</ele><time>2022-06-19T08:48:04.000Z</time></trkpt><trkpt lon="5.978929" lat="51.236464"><ele>-10.6</ele><time>2022-06-19T08:48:05.000Z</time></trkpt><trkpt lon="5.978861" lat="51.236402"><ele>-10.6</ele><time>2022-06-19T08:48:06.000Z</time></trkpt><trkpt lon="5.978793" lat="51.236342"><ele>-10.8</ele><time>2022-06-19T08:48:07.000Z</time></trkpt><trkpt lon="5.978722" lat="51.236274"><ele>-10.8</ele><time>2022-06-19T08:48:08.000Z</time></trkpt><trkpt lon="5.978652" lat="51.236209"><ele>-10.8</ele><time>2022-06-19T08:48:09.000Z</time></trkpt><trkpt lon="5.978582" lat="51.236145"><ele>-10.8</ele><time>2022-06-19T08:48:10.000Z</time></trkpt><trkpt lon="5.978512" lat="51.236074"><ele>-11</ele><time>2022-06-19T08:48:11.000Z</time></trkpt><trkpt lon="5.978441" lat="51.23601"><ele>-11.2</ele><time>2022-06-19T08:48:12.000Z</time></trkpt><trkpt lon="5.978376" lat="51.235941"><ele>-11.4</ele><time>2022-06-19T08:48:13.000Z</time></trkpt><trkpt lon="5.97831" lat="51.235876"><ele>-11.6</ele><time>2022-06-19T08:48:14.000Z</time></trkpt><trkpt lon="5.978245" lat="51.235811"><ele>-11.6</ele><time>2022-06-19T08:48:15.000Z</time></trkpt><trkpt lon="5.978177" lat="51.23575"><ele>-11.6</ele><time>2022-06-19T08:48:16.000Z</time></trkpt><trkpt lon="5.978114" lat="51.235686"><ele>-11.8</ele><time>2022-06-19T08:48:17.000Z</time></trkpt><trkpt lon="5.978057" lat="51.235621"><ele>-11.8</ele><time>2022-06-19T08:48:18.000Z</time></trkpt><trkpt lon="5.97801" lat="51.235555"><ele>-11.8</ele><time>2022-06-19T08:48:19.000Z</time></trkpt><trkpt lon="5.977972" lat="51.235492"><ele>-11.8</ele><time>2022-06-19T08:48:20.000Z</time></trkpt><trkpt lon="5.977939" lat="51.235416"><ele>-11.8</ele><time>2022-06-19T08:48:21.000Z</time></trkpt><trkpt lon="5.977914" lat="51.235347"><ele>-12</ele><time>2022-06-19T08:48:22.000Z</time></trkpt><trkpt lon="5.977886" lat="51.235274"><ele>-12</ele><time>2022-06-19T08:48:23.000Z</time></trkpt><trkpt lon="5.97786" lat="51.235202"><ele>-12</ele><time>2022-06-19T08:48:24.000Z</time></trkpt><trkpt lon="5.977831" lat="51.235129"><ele>-12</ele><time>2022-06-19T08:48:25.000Z</time></trkpt><trkpt lon="5.977804" lat="51.23506"><ele>-12.2</ele><time>2022-06-19T08:48:26.000Z</time></trkpt><trkpt lon="5.977781" lat="51.234995"><ele>-12.2</ele><time>2022-06-19T08:48:27.000Z</time></trkpt><trkpt lon="5.977756" lat="51.234931"><ele>-12.2</ele><time>2022-06-19T08:48:28.000Z</time></trkpt><trkpt lon="5.97773" lat="51.234866"><ele>-12.4</ele><time>2022-06-19T08:48:29.000Z</time></trkpt><trkpt lon="5.977705" lat="51.234812"><ele>-12.6</ele><time>2022-06-19T08:48:30.000Z</time></trkpt><trkpt lon="5.977661" lat="51.234734"><ele>-12.8</ele><time>2022-06-19T08:48:31.000Z</time></trkpt><trkpt lon="5.977614" lat="51.234673"><ele>-12.8</ele><time>2022-06-19T08:48:32.000Z</time></trkpt><trkpt lon="5.977561" lat="51.234611"><ele>-12.8</ele><time>2022-06-19T08:48:33.000Z</time></trkpt><trkpt lon="5.977502" lat="51.234549"><ele>-12.8</ele><time>2022-06-19T08:48:34.000Z</time></trkpt><trkpt lon="5.977438" lat="51.234483"><ele>-12.8</ele><time>2022-06-19T08:48:35.000Z</time></trkpt><trkpt lon="5.977381" lat="51.234424"><ele>-12.6</ele><time>2022-06-19T08:48:36.000Z</time></trkpt><trkpt lon="5.97733" lat="51.234354"><ele>-12.6</ele><time>2022-06-19T08:48:37.000Z</time></trkpt><trkpt lon="5.977283" lat="51.234286"><ele>-12.6</ele><time>2022-06-19T08:48:38.000Z</time></trkpt><trkpt lon="5.977235" lat="51.23422"><ele>-12.6</ele><time>2022-06-19T08:48:39.000Z</time></trkpt><trkpt lon="5.977183" lat="51.234153"><ele>-12.6</ele><time>2022-06-19T08:48:40.000Z</time></trkpt><trkpt lon="5.977124" lat="51.234091"><ele>-12.8</ele><time>2022-06-19T08:48:41.000Z</time></trkpt><trkpt lon="5.977061" lat="51.234032"><ele>-12.8</ele><time>2022-06-19T08:48:42.000Z</time></trkpt><trkpt lon="5.976993" lat="51.233968"><ele>-12.8</ele><time>2022-06-19T08:48:43.000Z</time></trkpt><trkpt lon="5.976924" lat="51.233908"><ele>-13</ele><time>2022-06-19T08:48:44.000Z</time></trkpt><trkpt lon="5.976856" lat="51.233847"><ele>-12.8</ele><time>2022-06-19T08:48:45.000Z</time></trkpt><trkpt lon="5.976789" lat="51.233789"><ele>-13</ele><time>2022-06-19T08:48:46.000Z</time></trkpt><trkpt lon="5.976714" lat="51.233724"><ele>-13</ele><time>2022-06-19T08:48:47.000Z</time></trkpt><trkpt lon="5.976645" lat="51.233668"><ele>-13.2</ele><time>2022-06-19T08:48:48.000Z</time></trkpt><trkpt lon="5.976573" lat="51.23361"><ele>-13.4</ele><time>2022-06-19T08:48:49.000Z</time></trkpt><trkpt lon="5.976511" lat="51.233556"><ele>-13.4</ele><time>2022-06-19T08:48:50.000Z</time></trkpt><trkpt lon="5.976436" lat="51.233492"><ele>-13.4</ele><time>2022-06-19T08:48:51.000Z</time></trkpt><trkpt lon="5.97637" lat="51.233436"><ele>-13.6</ele><time>2022-06-19T08:48:52.000Z</time></trkpt><trkpt lon="5.976302" lat="51.233374"><ele>-13.8</ele><time>2022-06-19T08:48:53.000Z</time></trkpt><trkpt lon="5.976242" lat="51.233312"><ele>-13.8</ele><time>2022-06-19T08:48:54.000Z</time></trkpt><trkpt lon="5.976178" lat="51.233242"><ele>-14</ele><time>2022-06-19T08:48:55.000Z</time></trkpt><trkpt lon="5.976121" lat="51.23318"><ele>-14.2</ele><time>2022-06-19T08:48:56.000Z</time></trkpt><trkpt lon="5.976064" lat="51.233116"><ele>-14.2</ele><time>2022-06-19T08:48:57.000Z</time></trkpt><trkpt lon="5.976013" lat="51.233057"><ele>-14.4</ele><time>2022-06-19T08:48:58.000Z</time></trkpt><trkpt lon="5.975965" lat="51.233"><ele>-14.6</ele><time>2022-06-19T08:48:59.000Z</time></trkpt><trkpt lon="5.975917" lat="51.232945"><ele>-14.6</ele><time>2022-06-19T08:49:00.000Z</time></trkpt><trkpt lon="5.975879" lat="51.232893"><ele>-14.8</ele><time>2022-06-19T08:49:01.000Z</time></trkpt><trkpt lon="5.975854" lat="51.232846"><ele>-14.8</ele><time>2022-06-19T08:49:02.000Z</time></trkpt><trkpt lon="5.975867" lat="51.232799"><ele>-14.8</ele><time>2022-06-19T08:49:03.000Z</time></trkpt><trkpt lon="5.975884" lat="51.232751"><ele>-14.8</ele><time>2022-06-19T08:49:04.000Z</time></trkpt><trkpt lon="5.975938" lat="51.232711"><ele>-15</ele><time>2022-06-19T08:49:05.000Z</time></trkpt><trkpt lon="5.976004" lat="51.232666"><ele>-15.2</ele><time>2022-06-19T08:49:06.000Z</time></trkpt><trkpt lon="5.97607" lat="51.232621"><ele>-15.6</ele><time>2022-06-19T08:49:07.000Z</time></trkpt><trkpt lon="5.976133" lat="51.232568"><ele>-15.6</ele><time>2022-06-19T08:49:08.000Z</time></trkpt><trkpt lon="5.976188" lat="51.232523"><ele>-15.8</ele><time>2022-06-19T08:49:09.000Z</time></trkpt><trkpt lon="5.976237" lat="51.232478"><ele>-15.8</ele><time>2022-06-19T08:49:10.000Z</time></trkpt><trkpt lon="5.976261" lat="51.232435"><ele>-16</ele><time>2022-06-19T08:49:11.000Z</time></trkpt><trkpt lon="5.976263" lat="51.232385"><ele>-16</ele><time>2022-06-19T08:49:12.000Z</time></trkpt><trkpt lon="5.97622" lat="51.232351"><ele>-16.2</ele><time>2022-06-19T08:49:13.000Z</time></trkpt><trkpt lon="5.976142" lat="51.232323"><ele>-16.2</ele><time>2022-06-19T08:49:14.000Z</time></trkpt><trkpt lon="5.976042" lat="51.232304"><ele>-16.4</ele><time>2022-06-19T08:49:15.000Z</time></trkpt><trkpt lon="5.97593" lat="51.232289"><ele>-16.4</ele><time>2022-06-19T08:49:16.000Z</time></trkpt><trkpt lon="5.975813" lat="51.232273"><ele>-16.6</ele><time>2022-06-19T08:49:17.000Z</time></trkpt><trkpt lon="5.975703" lat="51.232255"><ele>-16.6</ele><time>2022-06-19T08:49:18.000Z</time></trkpt><trkpt lon="5.975596" lat="51.232236"><ele>-16.8</ele><time>2022-06-19T08:49:19.000Z</time></trkpt><trkpt lon="5.975486" lat="51.232207"><ele>-16.8</ele><time>2022-06-19T08:49:20.000Z</time></trkpt><trkpt lon="5.975375" lat="51.232179"><ele>-17</ele><time>2022-06-19T08:49:21.000Z</time></trkpt><trkpt lon="5.975271" lat="51.232149"><ele>-17</ele><time>2022-06-19T08:49:22.000Z</time></trkpt><trkpt lon="5.975164" lat="51.232118"><ele>-17</ele><time>2022-06-19T08:49:23.000Z</time></trkpt><trkpt lon="5.97506" lat="51.232083"><ele>-17.2</ele><time>2022-06-19T08:49:24.000Z</time></trkpt><trkpt lon="5.974958" lat="51.23205"><ele>-17.2</ele><time>2022-06-19T08:49:25.000Z</time></trkpt><trkpt lon="5.974856" lat="51.232015"><ele>-17.4</ele><time>2022-06-19T08:49:26.000Z</time></trkpt><trkpt lon="5.974756" lat="51.23198"><ele>-17.4</ele><time>2022-06-19T08:49:27.000Z</time></trkpt><trkpt lon="5.974653" lat="51.231942"><ele>-17.4</ele><time>2022-06-19T08:49:28.000Z</time></trkpt><trkpt lon="5.974549" lat="51.231904"><ele>-17.6</ele><time>2022-06-19T08:49:29.000Z</time></trkpt><trkpt lon="5.974447" lat="51.231862"><ele>-17.6</ele><time>2022-06-19T08:49:30.000Z</time></trkpt><trkpt lon="5.974349" lat="51.231816"><ele>-17.6</ele><time>2022-06-19T08:49:31.000Z</time></trkpt><trkpt lon="5.97425" lat="51.231775"><ele>-17.4</ele><time>2022-06-19T08:49:32.000Z</time></trkpt><trkpt lon="5.974154" lat="51.231725"><ele>-17.4</ele><time>2022-06-19T08:49:33.000Z</time></trkpt><trkpt lon="5.97406" lat="51.23168"><ele>-17.4</ele><time>2022-06-19T08:49:34.000Z</time></trkpt><trkpt lon="5.973968" lat="51.23163"><ele>-17.6</ele><time>2022-06-19T08:49:35.000Z</time></trkpt><trkpt lon="5.973877" lat="51.231584"><ele>-17.6</ele><time>2022-06-19T08:49:36.000Z</time></trkpt><trkpt lon="5.97379" lat="51.231531"><ele>-17.6</ele><time>2022-06-19T08:49:37.000Z</time></trkpt><trkpt lon="5.973698" lat="51.231485"><ele>-17.6</ele><time>2022-06-19T08:49:38.000Z</time></trkpt><trkpt lon="5.973605" lat="51.231436"><ele>-17.6</ele><time>2022-06-19T08:49:39.000Z</time></trkpt><trkpt lon="5.973513" lat="51.231394"><ele>-17.8</ele><time>2022-06-19T08:49:40.000Z</time></trkpt><trkpt lon="5.97342" lat="51.231351"><ele>-17.8</ele><time>2022-06-19T08:49:41.000Z</time></trkpt><trkpt lon="5.973328" lat="51.231307"><ele>-17.8</ele><time>2022-06-19T08:49:42.000Z</time></trkpt><trkpt lon="5.973235" lat="51.231257"><ele>-17.8</ele><time>2022-06-19T08:49:43.000Z</time></trkpt><trkpt lon="5.97314" lat="51.231206"><ele>-17.8</ele><time>2022-06-19T08:49:44.000Z</time></trkpt><trkpt lon="5.973048" lat="51.231157"><ele>-17.8</ele><time>2022-06-19T08:49:45.000Z</time></trkpt><trkpt lon="5.972958" lat="51.231112"><ele>-17.6</ele><time>2022-06-19T08:49:46.000Z</time></trkpt><trkpt lon="5.972864" lat="51.231061"><ele>-17.6</ele><time>2022-06-19T08:49:47.000Z</time></trkpt><trkpt lon="5.972777" lat="51.231012"><ele>-17.4</ele><time>2022-06-19T08:49:48.000Z</time></trkpt><trkpt lon="5.972689" lat="51.230962"><ele>-17.2</ele><time>2022-06-19T08:49:49.000Z</time></trkpt><trkpt lon="5.972605" lat="51.230913"><ele>-17.2</ele><time>2022-06-19T08:49:50.000Z</time></trkpt><trkpt lon="5.97252" lat="51.230867"><ele>-17.2</ele><time>2022-06-19T08:49:51.000Z</time></trkpt><trkpt lon="5.972436" lat="51.230822"><ele>-17.2</ele><time>2022-06-19T08:49:52.000Z</time></trkpt><trkpt lon="5.972349" lat="51.230776"><ele>-17</ele><time>2022-06-19T08:49:53.000Z</time></trkpt><trkpt lon="5.97226" lat="51.23073"><ele>-17</ele><time>2022-06-19T08:49:54.000Z</time></trkpt><trkpt lon="5.972174" lat="51.230685"><ele>-16.8</ele><time>2022-06-19T08:49:55.000Z</time></trkpt><trkpt lon="5.972084" lat="51.230635"><ele>-16.8</ele><time>2022-06-19T08:49:56.000Z</time></trkpt><trkpt lon="5.971997" lat="51.230588"><ele>-16.6</ele><time>2022-06-19T08:49:57.000Z</time></trkpt><trkpt lon="5.971917" lat="51.230543"><ele>-16.4</ele><time>2022-06-19T08:49:58.000Z</time></trkpt><trkpt lon="5.971838" lat="51.230493"><ele>-16</ele><time>2022-06-19T08:49:59.000Z</time></trkpt><trkpt lon="5.97176" lat="51.230448"><ele>-15.8</ele><time>2022-06-19T08:50:00.000Z</time></trkpt><trkpt lon="5.971682" lat="51.230398"><ele>-15.4</ele><time>2022-06-19T08:50:01.000Z</time></trkpt><trkpt lon="5.971607" lat="51.230347"><ele>-15.2</ele><time>2022-06-19T08:50:02.000Z</time></trkpt><trkpt lon="5.971525" lat="51.230291"><ele>-15</ele><time>2022-06-19T08:50:03.000Z</time></trkpt><trkpt lon="5.971449" lat="51.230234"><ele>-14.8</ele><time>2022-06-19T08:50:04.000Z</time></trkpt><trkpt lon="5.971375" lat="51.230178"><ele>-14.6</ele><time>2022-06-19T08:50:05.000Z</time></trkpt><trkpt lon="5.971303" lat="51.23012"><ele>-14.6</ele><time>2022-06-19T08:50:06.000Z</time></trkpt><trkpt lon="5.971233" lat="51.230059"><ele>-14.4</ele><time>2022-06-19T08:50:07.000Z</time></trkpt><trkpt lon="5.971162" lat="51.230001"><ele>-14.4</ele><time>2022-06-19T08:50:08.000Z</time></trkpt><trkpt lon="5.971097" lat="51.22994"><ele>-14.4</ele><time>2022-06-19T08:50:09.000Z</time></trkpt><trkpt lon="5.971037" lat="51.229885"><ele>-14.2</ele><time>2022-06-19T08:50:10.000Z</time></trkpt><trkpt lon="5.970967" lat="51.229826"><ele>-14</ele><time>2022-06-19T08:50:11.000Z</time></trkpt><trkpt lon="5.970905" lat="51.229772"><ele>-14</ele><time>2022-06-19T08:50:12.000Z</time></trkpt><trkpt lon="5.970843" lat="51.229722"><ele>-13.8</ele><time>2022-06-19T08:50:13.000Z</time></trkpt><trkpt lon="5.970774" lat="51.22968"><ele>-13.6</ele><time>2022-06-19T08:50:14.000Z</time></trkpt><trkpt lon="5.970691" lat="51.229653"><ele>-13.6</ele><time>2022-06-19T08:50:15.000Z</time></trkpt><trkpt lon="5.970607" lat="51.229626"><ele>-13.4</ele><time>2022-06-19T08:50:16.000Z</time></trkpt><trkpt lon="5.970525" lat="51.229618"><ele>-13.2</ele><time>2022-06-19T08:50:17.000Z</time></trkpt><trkpt lon="5.970444" lat="51.229629"><ele>-13.2</ele><time>2022-06-19T08:50:18.000Z</time></trkpt><trkpt lon="5.970359" lat="51.229659"><ele>-13.2</ele><time>2022-06-19T08:50:19.000Z</time></trkpt><trkpt lon="5.970267" lat="51.229693"><ele>-13.2</ele><time>2022-06-19T08:50:20.000Z</time></trkpt><trkpt lon="5.970164" lat="51.229731"><ele>-13.2</ele><time>2022-06-19T08:50:21.000Z</time></trkpt><trkpt lon="5.970058" lat="51.229773"><ele>-13.2</ele><time>2022-06-19T08:50:22.000Z</time></trkpt><trkpt lon="5.969955" lat="51.229811"><ele>-13.4</ele><time>2022-06-19T08:50:23.000Z</time></trkpt><trkpt lon="5.969854" lat="51.229849"><ele>-13.6</ele><time>2022-06-19T08:50:24.000Z</time></trkpt><trkpt lon="5.969754" lat="51.229887"><ele>-13.8</ele><time>2022-06-19T08:50:25.000Z</time></trkpt><trkpt lon="5.969654" lat="51.229926"><ele>-13.8</ele><time>2022-06-19T08:50:26.000Z</time></trkpt><trkpt lon="5.969553" lat="51.22996"><ele>-14</ele><time>2022-06-19T08:50:27.000Z</time></trkpt><trkpt lon="5.969447" lat="51.229991"><ele>-14</ele><time>2022-06-19T08:50:28.000Z</time></trkpt><trkpt lon="5.96934" lat="51.230021"><ele>-14</ele><time>2022-06-19T08:50:29.000Z</time></trkpt><trkpt lon="5.969236" lat="51.230044"><ele>-14</ele><time>2022-06-19T08:50:30.000Z</time></trkpt><trkpt lon="5.969123" lat="51.230068"><ele>-14</ele><time>2022-06-19T08:50:31.000Z</time></trkpt><trkpt lon="5.969011" lat="51.230094"><ele>-14</ele><time>2022-06-19T08:50:32.000Z</time></trkpt><trkpt lon="5.9689" lat="51.230117"><ele>-13.8</ele><time>2022-06-19T08:50:33.000Z</time></trkpt><trkpt lon="5.968788" lat="51.230136"><ele>-13.8</ele><time>2022-06-19T08:50:34.000Z</time></trkpt><trkpt lon="5.968678" lat="51.230155"><ele>-13.8</ele><time>2022-06-19T08:50:35.000Z</time></trkpt><trkpt lon="5.968569" lat="51.230174"><ele>-13.6</ele><time>2022-06-19T08:50:36.000Z</time></trkpt><trkpt lon="5.968461" lat="51.23019"><ele>-13.6</ele><time>2022-06-19T08:50:37.000Z</time></trkpt><trkpt lon="5.968353" lat="51.230209"><ele>-13.4</ele><time>2022-06-19T08:50:38.000Z</time></trkpt><trkpt lon="5.968245" lat="51.230228"><ele>-13.2</ele><time>2022-06-19T08:50:39.000Z</time></trkpt><trkpt lon="5.968143" lat="51.230243"><ele>-13</ele><time>2022-06-19T08:50:40.000Z</time></trkpt><trkpt lon="5.968036" lat="51.230266"><ele>-13</ele><time>2022-06-19T08:50:41.000Z</time></trkpt><trkpt lon="5.967931" lat="51.230281"><ele>-13</ele><time>2022-06-19T08:50:42.000Z</time></trkpt><trkpt lon="5.967824" lat="51.2303"><ele>-13</ele><time>2022-06-19T08:50:43.000Z</time></trkpt><trkpt lon="5.967715" lat="51.230316"><ele>-13</ele><time>2022-06-19T08:50:44.000Z</time></trkpt><trkpt lon="5.96761" lat="51.230334"><ele>-13</ele><time>2022-06-19T08:50:45.000Z</time></trkpt><trkpt lon="5.967498" lat="51.23035"><ele>-13</ele><time>2022-06-19T08:50:46.000Z</time></trkpt><trkpt lon="5.967386" lat="51.230369"><ele>-13</ele><time>2022-06-19T08:50:47.000Z</time></trkpt><trkpt lon="5.967276" lat="51.230384"><ele>-13</ele><time>2022-06-19T08:50:48.000Z</time></trkpt><trkpt lon="5.967161" lat="51.230403"><ele>-13</ele><time>2022-06-19T08:50:49.000Z</time></trkpt><trkpt lon="5.967047" lat="51.230423"><ele>-13.2</ele><time>2022-06-19T08:50:50.000Z</time></trkpt><trkpt lon="5.966933" lat="51.230442"><ele>-13.2</ele><time>2022-06-19T08:50:51.000Z</time></trkpt><trkpt lon="5.96682" lat="51.230457"><ele>-13.2</ele><time>2022-06-19T08:50:52.000Z</time></trkpt><trkpt lon="5.966703" lat="51.230476"><ele>-13.2</ele><time>2022-06-19T08:50:53.000Z</time></trkpt><trkpt lon="5.966589" lat="51.230487"><ele>-13.2</ele><time>2022-06-19T08:50:54.000Z</time></trkpt><trkpt lon="5.966472" lat="51.230499"><ele>-13.4</ele><time>2022-06-19T08:50:55.000Z</time></trkpt><trkpt lon="5.966349" lat="51.230503"><ele>-13.2</ele><time>2022-06-19T08:50:56.000Z</time></trkpt><trkpt lon="5.966226" lat="51.230507"><ele>-13.2</ele><time>2022-06-19T08:50:57.000Z</time></trkpt><trkpt lon="5.96611" lat="51.230503"><ele>-13.4</ele><time>2022-06-19T08:50:58.000Z</time></trkpt><trkpt lon="5.965992" lat="51.230496"><ele>-13.4</ele><time>2022-06-19T08:50:59.000Z</time></trkpt><trkpt lon="5.965871" lat="51.230485"><ele>-13.4</ele><time>2022-06-19T08:51:00.000Z</time></trkpt><trkpt lon="5.965751" lat="51.230469"><ele>-13.4</ele><time>2022-06-19T08:51:01.000Z</time></trkpt><trkpt lon="5.965636" lat="51.230454"><ele>-13.4</ele><time>2022-06-19T08:51:02.000Z</time></trkpt><trkpt lon="5.965529" lat="51.230439"><ele>-13.4</ele><time>2022-06-19T08:51:03.000Z</time></trkpt><trkpt lon="5.965415" lat="51.230421"><ele>-13.4</ele><time>2022-06-19T08:51:04.000Z</time></trkpt><trkpt lon="5.965298" lat="51.230401"><ele>-13.4</ele><time>2022-06-19T08:51:05.000Z</time></trkpt><trkpt lon="5.965188" lat="51.230381"><ele>-13.4</ele><time>2022-06-19T08:51:06.000Z</time></trkpt><trkpt lon="5.96508" lat="51.230363"><ele>-13.4</ele><time>2022-06-19T08:51:07.000Z</time></trkpt><trkpt lon="5.964971" lat="51.230343"><ele>-13.4</ele><time>2022-06-19T08:51:08.000Z</time></trkpt><trkpt lon="5.964866" lat="51.230325"><ele>-13.4</ele><time>2022-06-19T08:51:09.000Z</time></trkpt><trkpt lon="5.964758" lat="51.230309"><ele>-13.2</ele><time>2022-06-19T08:51:10.000Z</time></trkpt><trkpt lon="5.964653" lat="51.23029"><ele>-13.2</ele><time>2022-06-19T08:51:11.000Z</time></trkpt><trkpt lon="5.964548" lat="51.230271"><ele>-13.2</ele><time>2022-06-19T08:51:12.000Z</time></trkpt><trkpt lon="5.964445" lat="51.230252"><ele>-13.2</ele><time>2022-06-19T08:51:13.000Z</time></trkpt><trkpt lon="5.964344" lat="51.230233"><ele>-13.2</ele><time>2022-06-19T08:51:14.000Z</time></trkpt><trkpt lon="5.964249" lat="51.230214"><ele>-13</ele><time>2022-06-19T08:51:15.000Z</time></trkpt><trkpt lon="5.964158" lat="51.230187"><ele>-13</ele><time>2022-06-19T08:51:16.000Z</time></trkpt><trkpt lon="5.964077" lat="51.230157"><ele>-12.8</ele><time>2022-06-19T08:51:17.000Z</time></trkpt><trkpt lon="5.964003" lat="51.230123"><ele>-12.8</ele><time>2022-06-19T08:51:18.000Z</time></trkpt><trkpt lon="5.963932" lat="51.230092"><ele>-12.6</ele><time>2022-06-19T08:51:19.000Z</time></trkpt><trkpt lon="5.963864" lat="51.230066"><ele>-12.6</ele><time>2022-06-19T08:51:20.000Z</time></trkpt><trkpt lon="5.963789" lat="51.23005"><ele>-12.6</ele><time>2022-06-19T08:51:21.000Z</time></trkpt><trkpt lon="5.963721" lat="51.230045"><ele>-12.4</ele><time>2022-06-19T08:51:22.000Z</time></trkpt><trkpt lon="5.96366" lat="51.230053"><ele>-12.4</ele><time>2022-06-19T08:51:23.000Z</time></trkpt><trkpt lon="5.963616" lat="51.230071"><ele>-12.4</ele><time>2022-06-19T08:51:24.000Z</time></trkpt><trkpt lon="5.963583" lat="51.230098"><ele>-12.4</ele><time>2022-06-19T08:51:25.000Z</time></trkpt><trkpt lon="5.963561" lat="51.230115"><ele>-12.4</ele><time>2022-06-19T08:51:26.000Z</time></trkpt><trkpt lon="5.963536" lat="51.230121"><ele>-12.2</ele><time>2022-06-19T08:51:27.000Z</time></trkpt><trkpt lon="5.963522" lat="51.230122"><ele>-11.8</ele><time>2022-06-19T08:51:38.000Z</time></trkpt><trkpt lon="5.963484" lat="51.230116"><ele>-11.8</ele><time>2022-06-19T08:51:39.000Z</time></trkpt><trkpt lon="5.963445" lat="51.23011"><ele>-11.8</ele><time>2022-06-19T08:51:40.000Z</time></trkpt><trkpt lon="5.963411" lat="51.230096"><ele>-11.8</ele><time>2022-06-19T08:51:41.000Z</time></trkpt><trkpt lon="5.96339" lat="51.230076"><ele>-11.8</ele><time>2022-06-19T08:51:42.000Z</time></trkpt><trkpt lon="5.963392" lat="51.230043"><ele>-11.8</ele><time>2022-06-19T08:51:43.000Z</time></trkpt><trkpt lon="5.963398" lat="51.230001"><ele>-12</ele><time>2022-06-19T08:51:44.000Z</time></trkpt><trkpt lon="5.963403" lat="51.229952"><ele>-12</ele><time>2022-06-19T08:51:45.000Z</time></trkpt><trkpt lon="5.963408" lat="51.229891"><ele>-12</ele><time>2022-06-19T08:51:46.000Z</time></trkpt><trkpt lon="5.963415" lat="51.22983"><ele>-12</ele><time>2022-06-19T08:51:47.000Z</time></trkpt><trkpt lon="5.963422" lat="51.229769"><ele>-12</ele><time>2022-06-19T08:51:48.000Z</time></trkpt><trkpt lon="5.963428" lat="51.229706"><ele>-11.8</ele><time>2022-06-19T08:51:49.000Z</time></trkpt><trkpt lon="5.963433" lat="51.229639"><ele>-11.8</ele><time>2022-06-19T08:51:50.000Z</time></trkpt><trkpt lon="5.963438" lat="51.229574"><ele>-11.8</ele><time>2022-06-19T08:51:51.000Z</time></trkpt><trkpt lon="5.96344" lat="51.229513"><ele>-11.8</ele><time>2022-06-19T08:51:52.000Z</time></trkpt><trkpt lon="5.96344" lat="51.229452"><ele>-12</ele><time>2022-06-19T08:51:53.000Z</time></trkpt><trkpt lon="5.96344" lat="51.229384"><ele>-12</ele><time>2022-06-19T08:51:54.000Z</time></trkpt><trkpt lon="5.96344" lat="51.229318"><ele>-12</ele><time>2022-06-19T08:51:55.000Z</time></trkpt><trkpt lon="5.963442" lat="51.22926"><ele>-11.8</ele><time>2022-06-19T08:51:56.000Z</time></trkpt><trkpt lon="5.963443" lat="51.229197"><ele>-12</ele><time>2022-06-19T08:51:57.000Z</time></trkpt><trkpt lon="5.963445" lat="51.229133"><ele>-12</ele><time>2022-06-19T08:51:58.000Z</time></trkpt><trkpt lon="5.963447" lat="51.229074"><ele>-12</ele><time>2022-06-19T08:51:59.000Z</time></trkpt><trkpt lon="5.963448" lat="51.229014"><ele>-12</ele><time>2022-06-19T08:52:00.000Z</time></trkpt><trkpt lon="5.96345" lat="51.228949"><ele>-12.2</ele><time>2022-06-19T08:52:01.000Z</time></trkpt><trkpt lon="5.96345" lat="51.228888"><ele>-12.2</ele><time>2022-06-19T08:52:02.000Z</time></trkpt><trkpt lon="5.96345" lat="51.228819"><ele>-12.2</ele><time>2022-06-19T08:52:03.000Z</time></trkpt><trkpt lon="5.963449" lat="51.228754"><ele>-12.2</ele><time>2022-06-19T08:52:04.000Z</time></trkpt><trkpt lon="5.96345" lat="51.228689"><ele>-12.2</ele><time>2022-06-19T08:52:05.000Z</time></trkpt><trkpt lon="5.96345" lat="51.22862"><ele>-12.2</ele><time>2022-06-19T08:52:06.000Z</time></trkpt><trkpt lon="5.96345" lat="51.228555"><ele>-12.4</ele><time>2022-06-19T08:52:07.000Z</time></trkpt><trkpt lon="5.963453" lat="51.228487"><ele>-12.4</ele><time>2022-06-19T08:52:08.000Z</time></trkpt><trkpt lon="5.963456" lat="51.228423"><ele>-12.4</ele><time>2022-06-19T08:52:09.000Z</time></trkpt><trkpt lon="5.963462" lat="51.228357"><ele>-12.4</ele><time>2022-06-19T08:52:10.000Z</time></trkpt><trkpt lon="5.963472" lat="51.228281"><ele>-12.4</ele><time>2022-06-19T08:52:11.000Z</time></trkpt><trkpt lon="5.963483" lat="51.228209"><ele>-12.6</ele><time>2022-06-19T08:52:12.000Z</time></trkpt><trkpt lon="5.963499" lat="51.228137"><ele>-12.8</ele><time>2022-06-19T08:52:13.000Z</time></trkpt><trkpt lon="5.963522" lat="51.228065"><ele>-13</ele><time>2022-06-19T08:52:14.000Z</time></trkpt><trkpt lon="5.963549" lat="51.227995"><ele>-13</ele><time>2022-06-19T08:52:15.000Z</time></trkpt><trkpt lon="5.963576" lat="51.227929"><ele>-12.8</ele><time>2022-06-19T08:52:16.000Z</time></trkpt><trkpt lon="5.963609" lat="51.227858"><ele>-12.8</ele><time>2022-06-19T08:52:17.000Z</time></trkpt><trkpt lon="5.963644" lat="51.227789"><ele>-12.8</ele><time>2022-06-19T08:52:18.000Z</time></trkpt><trkpt lon="5.963684" lat="51.227724"><ele>-12.8</ele><time>2022-06-19T08:52:19.000Z</time></trkpt><trkpt lon="5.963721" lat="51.227663"><ele>-12.8</ele><time>2022-06-19T08:52:20.000Z</time></trkpt><trkpt lon="5.963753" lat="51.227603"><ele>-12.8</ele><time>2022-06-19T08:52:21.000Z</time></trkpt><trkpt lon="5.963784" lat="51.227548"><ele>-12.8</ele><time>2022-06-19T08:52:22.000Z</time></trkpt><trkpt lon="5.963818" lat="51.227495"><ele>-12.8</ele><time>2022-06-19T08:52:23.000Z</time></trkpt><trkpt lon="5.963837" lat="51.227442"><ele>-12.8</ele><time>2022-06-19T08:52:24.000Z</time></trkpt><trkpt lon="5.963829" lat="51.227387"><ele>-12.6</ele><time>2022-06-19T08:52:25.000Z</time></trkpt><trkpt lon="5.963793" lat="51.227335"><ele>-12.6</ele><time>2022-06-19T08:52:26.000Z</time></trkpt><trkpt lon="5.963718" lat="51.227285"><ele>-12.8</ele><time>2022-06-19T08:52:27.000Z</time></trkpt><trkpt lon="5.963636" lat="51.227243"><ele>-13</ele><time>2022-06-19T08:52:28.000Z</time></trkpt><trkpt lon="5.963553" lat="51.227197"><ele>-13.2</ele><time>2022-06-19T08:52:29.000Z</time></trkpt><trkpt lon="5.963468" lat="51.227149"><ele>-13.2</ele><time>2022-06-19T08:52:30.000Z</time></trkpt><trkpt lon="5.963384" lat="51.227102"><ele>-13.2</ele><time>2022-06-19T08:52:31.000Z</time></trkpt><trkpt lon="5.963301" lat="51.227052"><ele>-13.2</ele><time>2022-06-19T08:52:32.000Z</time></trkpt><trkpt lon="5.963214" lat="51.226999"><ele>-13.4</ele><time>2022-06-19T08:52:33.000Z</time></trkpt><trkpt lon="5.963126" lat="51.226949"><ele>-13.4</ele><time>2022-06-19T08:52:34.000Z</time></trkpt><trkpt lon="5.963039" lat="51.226896"><ele>-13.6</ele><time>2022-06-19T08:52:35.000Z</time></trkpt><trkpt lon="5.962956" lat="51.226843"><ele>-13.6</ele><time>2022-06-19T08:52:36.000Z</time></trkpt><trkpt lon="5.962869" lat="51.226789"><ele>-13.6</ele><time>2022-06-19T08:52:37.000Z</time></trkpt><trkpt lon="5.962781" lat="51.226739"><ele>-13.6</ele><time>2022-06-19T08:52:38.000Z</time></trkpt><trkpt lon="5.962691" lat="51.226686"><ele>-13.6</ele><time>2022-06-19T08:52:39.000Z</time></trkpt><trkpt lon="5.962603" lat="51.226634"><ele>-13.6</ele><time>2022-06-19T08:52:40.000Z</time></trkpt><trkpt lon="5.962514" lat="51.226579"><ele>-13.6</ele><time>2022-06-19T08:52:41.000Z</time></trkpt><trkpt lon="5.962426" lat="51.226526"><ele>-13.6</ele><time>2022-06-19T08:52:42.000Z</time></trkpt><trkpt lon="5.962339" lat="51.226473"><ele>-13.6</ele><time>2022-06-19T08:52:43.000Z</time></trkpt><trkpt lon="5.962254" lat="51.22642"><ele>-13.6</ele><time>2022-06-19T08:52:44.000Z</time></trkpt><trkpt lon="5.962169" lat="51.226367"><ele>-13.6</ele><time>2022-06-19T08:52:45.000Z</time></trkpt><trkpt lon="5.962085" lat="51.226318"><ele>-13.6</ele><time>2022-06-19T08:52:46.000Z</time></trkpt><trkpt lon="5.961994" lat="51.226263"><ele>-13.4</ele><time>2022-06-19T08:52:47.000Z</time></trkpt><trkpt lon="5.961902" lat="51.226215"><ele>-13.4</ele><time>2022-06-19T08:52:48.000Z</time></trkpt><trkpt lon="5.961812" lat="51.226164"><ele>-13.6</ele><time>2022-06-19T08:52:49.000Z</time></trkpt><trkpt lon="5.961723" lat="51.226114"><ele>-13.6</ele><time>2022-06-19T08:52:50.000Z</time></trkpt><trkpt lon="5.961645" lat="51.226065"><ele>-13.6</ele><time>2022-06-19T08:52:51.000Z</time></trkpt><trkpt lon="5.961569" lat="51.226016"><ele>-13.6</ele><time>2022-06-19T08:52:52.000Z</time></trkpt><trkpt lon="5.961495" lat="51.225966"><ele>-13.4</ele><time>2022-06-19T08:52:53.000Z</time></trkpt><trkpt lon="5.961422" lat="51.225916"><ele>-13.4</ele><time>2022-06-19T08:52:54.000Z</time></trkpt><trkpt lon="5.961345" lat="51.22587"><ele>-13.4</ele><time>2022-06-19T08:52:55.000Z</time></trkpt><trkpt lon="5.961253" lat="51.225825"><ele>-13.4</ele><time>2022-06-19T08:52:56.000Z</time></trkpt><trkpt lon="5.961153" lat="51.225785"><ele>-13.2</ele><time>2022-06-19T08:52:57.000Z</time></trkpt><trkpt lon="5.961047" lat="51.225759"><ele>-13.4</ele><time>2022-06-19T08:52:58.000Z</time></trkpt><trkpt lon="5.960934" lat="51.225743"><ele>-13.4</ele><time>2022-06-19T08:52:59.000Z</time></trkpt><trkpt lon="5.960813" lat="51.225746"><ele>-13.6</ele><time>2022-06-19T08:53:00.000Z</time></trkpt><trkpt lon="5.960696" lat="51.225764"><ele>-13.8</ele><time>2022-06-19T08:53:01.000Z</time></trkpt><trkpt lon="5.960574" lat="51.225791"><ele>-14</ele><time>2022-06-19T08:53:02.000Z</time></trkpt><trkpt lon="5.960457" lat="51.225825"><ele>-14</ele><time>2022-06-19T08:53:03.000Z</time></trkpt><trkpt lon="5.960342" lat="51.225856"><ele>-13.8</ele><time>2022-06-19T08:53:04.000Z</time></trkpt><trkpt lon="5.96023" lat="51.225889"><ele>-13.8</ele><time>2022-06-19T08:53:05.000Z</time></trkpt><trkpt lon="5.960113" lat="51.225921"><ele>-13.6</ele><time>2022-06-19T08:53:06.000Z</time></trkpt><trkpt lon="5.960001" lat="51.225948"><ele>-13.6</ele><time>2022-06-19T08:53:07.000Z</time></trkpt><trkpt lon="5.959886" lat="51.225967"><ele>-13.4</ele><time>2022-06-19T08:53:08.000Z</time></trkpt><trkpt lon="5.959771" lat="51.225975"><ele>-13.4</ele><time>2022-06-19T08:53:09.000Z</time></trkpt><trkpt lon="5.959666" lat="51.225971"><ele>-13.4</ele><time>2022-06-19T08:53:10.000Z</time></trkpt><trkpt lon="5.959568" lat="51.225953"><ele>-13.4</ele><time>2022-06-19T08:53:11.000Z</time></trkpt><trkpt lon="5.959476" lat="51.225919"><ele>-13.2</ele><time>2022-06-19T08:53:12.000Z</time></trkpt><trkpt lon="5.959389" lat="51.22587"><ele>-13.2</ele><time>2022-06-19T08:53:13.000Z</time></trkpt><trkpt lon="5.959304" lat="51.225824"><ele>-13</ele><time>2022-06-19T08:53:14.000Z</time></trkpt><trkpt lon="5.959225" lat="51.22578"><ele>-12.8</ele><time>2022-06-19T08:53:15.000Z</time></trkpt><trkpt lon="5.95914" lat="51.225733"><ele>-12.6</ele><time>2022-06-19T08:53:16.000Z</time></trkpt><trkpt lon="5.959049" lat="51.225683"><ele>-12.4</ele><time>2022-06-19T08:53:17.000Z</time></trkpt><trkpt lon="5.958972" lat="51.225633"><ele>-12.2</ele><time>2022-06-19T08:53:18.000Z</time></trkpt><trkpt lon="5.958917" lat="51.22558"><ele>-12</ele><time>2022-06-19T08:53:19.000Z</time></trkpt><trkpt lon="5.95891" lat="51.22552"><ele>-11.8</ele><time>2022-06-19T08:53:20.000Z</time></trkpt><trkpt lon="5.95894" lat="51.225456"><ele>-11.8</ele><time>2022-06-19T08:53:21.000Z</time></trkpt><trkpt lon="5.959" lat="51.225399"><ele>-11.6</ele><time>2022-06-19T08:53:22.000Z</time></trkpt><trkpt lon="5.95908" lat="51.225347"><ele>-11.6</ele><time>2022-06-19T08:53:23.000Z</time></trkpt><trkpt lon="5.959161" lat="51.225297"><ele>-11.6</ele><time>2022-06-19T08:53:24.000Z</time></trkpt><trkpt lon="5.959238" lat="51.225247"><ele>-11.4</ele><time>2022-06-19T08:53:25.000Z</time></trkpt><trkpt lon="5.959312" lat="51.225202"><ele>-11.4</ele><time>2022-06-19T08:53:26.000Z</time></trkpt><trkpt lon="5.959378" lat="51.225149"><ele>-11.2</ele><time>2022-06-19T08:53:27.000Z</time></trkpt><trkpt lon="5.959454" lat="51.225092"><ele>-11.2</ele><time>2022-06-19T08:53:28.000Z</time></trkpt><trkpt lon="5.959528" lat="51.225038"><ele>-11.2</ele><time>2022-06-19T08:53:29.000Z</time></trkpt><trkpt lon="5.959596" lat="51.224986"><ele>-11.4</ele><time>2022-06-19T08:53:30.000Z</time></trkpt><trkpt lon="5.959658" lat="51.224936"><ele>-11.4</ele><time>2022-06-19T08:53:31.000Z</time></trkpt><trkpt lon="5.959721" lat="51.224887"><ele>-11.2</ele><time>2022-06-19T08:53:32.000Z</time></trkpt><trkpt lon="5.95979" lat="51.22484"><ele>-11.2</ele><time>2022-06-19T08:53:33.000Z</time></trkpt><trkpt lon="5.959854" lat="51.224794"><ele>-11</ele><time>2022-06-19T08:53:34.000Z</time></trkpt><trkpt lon="5.959906" lat="51.224749"><ele>-11</ele><time>2022-06-19T08:53:35.000Z</time></trkpt><trkpt lon="5.959946" lat="51.224695"><ele>-11</ele><time>2022-06-19T08:53:36.000Z</time></trkpt><trkpt lon="5.959934" lat="51.224652"><ele>-11</ele><time>2022-06-19T08:53:37.000Z</time></trkpt><trkpt lon="5.9599" lat="51.224603"><ele>-11</ele><time>2022-06-19T08:53:38.000Z</time></trkpt><trkpt lon="5.959845" lat="51.224555"><ele>-11</ele><time>2022-06-19T08:53:39.000Z</time></trkpt><trkpt lon="5.95978" lat="51.224515"><ele>-10.8</ele><time>2022-06-19T08:53:40.000Z</time></trkpt><trkpt lon="5.959712" lat="51.224469"><ele>-10.8</ele><time>2022-06-19T08:53:41.000Z</time></trkpt><trkpt lon="5.959641" lat="51.224421"><ele>-10.8</ele><time>2022-06-19T08:53:42.000Z</time></trkpt><trkpt lon="5.95956" lat="51.224381"><ele>-10.8</ele><time>2022-06-19T08:53:43.000Z</time></trkpt><trkpt lon="5.959482" lat="51.224332"><ele>-11</ele><time>2022-06-19T08:53:44.000Z</time></trkpt><trkpt lon="5.959395" lat="51.224283"><ele>-11</ele><time>2022-06-19T08:53:45.000Z</time></trkpt><trkpt lon="5.959303" lat="51.224234"><ele>-11</ele><time>2022-06-19T08:53:46.000Z</time></trkpt><trkpt lon="5.959208" lat="51.224184"><ele>-11</ele><time>2022-06-19T08:53:47.000Z</time></trkpt><trkpt lon="5.959109" lat="51.224138"><ele>-11.2</ele><time>2022-06-19T08:53:48.000Z</time></trkpt><trkpt lon="5.959017" lat="51.224088"><ele>-11.2</ele><time>2022-06-19T08:53:49.000Z</time></trkpt><trkpt lon="5.958919" lat="51.224031"><ele>-11</ele><time>2022-06-19T08:53:50.000Z</time></trkpt><trkpt lon="5.958826" lat="51.223978"><ele>-11.2</ele><time>2022-06-19T08:53:51.000Z</time></trkpt><trkpt lon="5.958733" lat="51.223921"><ele>-11.2</ele><time>2022-06-19T08:53:52.000Z</time></trkpt><trkpt lon="5.958642" lat="51.22386"><ele>-11.4</ele><time>2022-06-19T08:53:53.000Z</time></trkpt><trkpt lon="5.958548" lat="51.223799"><ele>-11.4</ele><time>2022-06-19T08:53:54.000Z</time></trkpt><trkpt lon="5.958455" lat="51.223734"><ele>-11.2</ele><time>2022-06-19T08:53:55.000Z</time></trkpt><trkpt lon="5.958367" lat="51.223676"><ele>-11.2</ele><time>2022-06-19T08:53:56.000Z</time></trkpt><trkpt lon="5.958277" lat="51.223619"><ele>-11.2</ele><time>2022-06-19T08:53:57.000Z</time></trkpt><trkpt lon="5.958186" lat="51.223566"><ele>-11</ele><time>2022-06-19T08:53:58.000Z</time></trkpt><trkpt lon="5.958093" lat="51.223509"><ele>-11</ele><time>2022-06-19T08:53:59.000Z</time></trkpt><trkpt lon="5.958" lat="51.223455"><ele>-11</ele><time>2022-06-19T08:54:00.000Z</time></trkpt><trkpt lon="5.95791" lat="51.223398"><ele>-11.2</ele><time>2022-06-19T08:54:01.000Z</time></trkpt><trkpt lon="5.957824" lat="51.223341"><ele>-11.2</ele><time>2022-06-19T08:54:02.000Z</time></trkpt><trkpt lon="5.957734" lat="51.223283"><ele>-11.2</ele><time>2022-06-19T08:54:03.000Z</time></trkpt><trkpt lon="5.957646" lat="51.223226"><ele>-11.2</ele><time>2022-06-19T08:54:04.000Z</time></trkpt><trkpt lon="5.957558" lat="51.223169"><ele>-11.2</ele><time>2022-06-19T08:54:05.000Z</time></trkpt><trkpt lon="5.957468" lat="51.223113"><ele>-11.2</ele><time>2022-06-19T08:54:06.000Z</time></trkpt><trkpt lon="5.957372" lat="51.223051"><ele>-11</ele><time>2022-06-19T08:54:07.000Z</time></trkpt><trkpt lon="5.957284" lat="51.222994"><ele>-11</ele><time>2022-06-19T08:54:08.000Z</time></trkpt><trkpt lon="5.957197" lat="51.222941"><ele>-10.8</ele><time>2022-06-19T08:54:09.000Z</time></trkpt><trkpt lon="5.957108" lat="51.222887"><ele>-10.8</ele><time>2022-06-19T08:54:10.000Z</time></trkpt><trkpt lon="5.957021" lat="51.222837"><ele>-10.6</ele><time>2022-06-19T08:54:11.000Z</time></trkpt><trkpt lon="5.956932" lat="51.222784"><ele>-10.8</ele><time>2022-06-19T08:54:12.000Z</time></trkpt><trkpt lon="5.956846" lat="51.222727"><ele>-10.8</ele><time>2022-06-19T08:54:13.000Z</time></trkpt><trkpt lon="5.956761" lat="51.222673"><ele>-10.6</ele><time>2022-06-19T08:54:14.000Z</time></trkpt><trkpt lon="5.95668" lat="51.222623"><ele>-10.6</ele><time>2022-06-19T08:54:15.000Z</time></trkpt><trkpt lon="5.956611" lat="51.222574"><ele>-10.4</ele><time>2022-06-19T08:54:16.000Z</time></trkpt><trkpt lon="5.95654" lat="51.222528"><ele>-10.2</ele><time>2022-06-19T08:54:17.000Z</time></trkpt><trkpt lon="5.956467" lat="51.222482"><ele>-10.2</ele><time>2022-06-19T08:54:18.000Z</time></trkpt><trkpt lon="5.956394" lat="51.222436"><ele>-10.2</ele><time>2022-06-19T08:54:19.000Z</time></trkpt><trkpt lon="5.956324" lat="51.222391"><ele>-10</ele><time>2022-06-19T08:54:20.000Z</time></trkpt><trkpt lon="5.956257" lat="51.222345"><ele>-10</ele><time>2022-06-19T08:54:21.000Z</time></trkpt><trkpt lon="5.956192" lat="51.222304"><ele>-9.8</ele><time>2022-06-19T08:54:22.000Z</time></trkpt><trkpt lon="5.95613" lat="51.222273"><ele>-9.4</ele><time>2022-06-19T08:54:23.000Z</time></trkpt><trkpt lon="5.956066" lat="51.222238"><ele>-9.2</ele><time>2022-06-19T08:54:24.000Z</time></trkpt><trkpt lon="5.955994" lat="51.222211"><ele>-9</ele><time>2022-06-19T08:54:25.000Z</time></trkpt><trkpt lon="5.955921" lat="51.222199"><ele>-8.8</ele><time>2022-06-19T08:54:26.000Z</time></trkpt><trkpt lon="5.955852" lat="51.222191"><ele>-8.6</ele><time>2022-06-19T08:54:27.000Z</time></trkpt><trkpt lon="5.955781" lat="51.222172"><ele>-8.6</ele><time>2022-06-19T08:54:28.000Z</time></trkpt><trkpt lon="5.955714" lat="51.222157"><ele>-8.6</ele><time>2022-06-19T08:54:29.000Z</time></trkpt><trkpt lon="5.955644" lat="51.22214"><ele>-8.6</ele><time>2022-06-19T08:54:30.000Z</time></trkpt><trkpt lon="5.955555" lat="51.222123"><ele>-8.6</ele><time>2022-06-19T08:54:31.000Z</time></trkpt><trkpt lon="5.955472" lat="51.222112"><ele>-8.6</ele><time>2022-06-19T08:54:32.000Z</time></trkpt><trkpt lon="5.955371" lat="51.222104"><ele>-8.4</ele><time>2022-06-19T08:54:33.000Z</time></trkpt><trkpt lon="5.955265" lat="51.222099"><ele>-8.4</ele><time>2022-06-19T08:54:34.000Z</time></trkpt><trkpt lon="5.955156" lat="51.222099"><ele>-8.6</ele><time>2022-06-19T08:54:35.000Z</time></trkpt><trkpt lon="5.95505" lat="51.222096"><ele>-8.8</ele><time>2022-06-19T08:54:36.000Z</time></trkpt><trkpt lon="5.954943" lat="51.222092"><ele>-8.8</ele><time>2022-06-19T08:54:37.000Z</time></trkpt><trkpt lon="5.954832" lat="51.222084"><ele>-9</ele><time>2022-06-19T08:54:38.000Z</time></trkpt><trkpt lon="5.954713" lat="51.22208"><ele>-9</ele><time>2022-06-19T08:54:39.000Z</time></trkpt><trkpt lon="5.954593" lat="51.222077"><ele>-9</ele><time>2022-06-19T08:54:40.000Z</time></trkpt><trkpt lon="5.954475" lat="51.222069"><ele>-9</ele><time>2022-06-19T08:54:41.000Z</time></trkpt><trkpt lon="5.954361" lat="51.222065"><ele>-9</ele><time>2022-06-19T08:54:42.000Z</time></trkpt><trkpt lon="5.954249" lat="51.222061"><ele>-9</ele><time>2022-06-19T08:54:43.000Z</time></trkpt><trkpt lon="5.954134" lat="51.222054"><ele>-9</ele><time>2022-06-19T08:54:44.000Z</time></trkpt><trkpt lon="5.954023" lat="51.222054"><ele>-9</ele><time>2022-06-19T08:54:45.000Z</time></trkpt><trkpt lon="5.953912" lat="51.222054"><ele>-8.8</ele><time>2022-06-19T08:54:46.000Z</time></trkpt><trkpt lon="5.953801" lat="51.222054"><ele>-8.6</ele><time>2022-06-19T08:54:47.000Z</time></trkpt><trkpt lon="5.953692" lat="51.222054"><ele>-8.6</ele><time>2022-06-19T08:54:48.000Z</time></trkpt><trkpt lon="5.953584" lat="51.222057"><ele>-8.4</ele><time>2022-06-19T08:54:49.000Z</time></trkpt><trkpt lon="5.953481" lat="51.222057"><ele>-8.6</ele><time>2022-06-19T08:54:50.000Z</time></trkpt><trkpt lon="5.953376" lat="51.222054"><ele>-8.6</ele><time>2022-06-19T08:54:51.000Z</time></trkpt><trkpt lon="5.95327" lat="51.222054"><ele>-8.6</ele><time>2022-06-19T08:54:52.000Z</time></trkpt><trkpt lon="5.953164" lat="51.22205"><ele>-8.6</ele><time>2022-06-19T08:54:53.000Z</time></trkpt><trkpt lon="5.953057" lat="51.222042"><ele>-8.8</ele><time>2022-06-19T08:54:54.000Z</time></trkpt><trkpt lon="5.952951" lat="51.222038"><ele>-8.8</ele><time>2022-06-19T08:54:55.000Z</time></trkpt><trkpt lon="5.952849" lat="51.222027"><ele>-8.8</ele><time>2022-06-19T08:54:56.000Z</time></trkpt><trkpt lon="5.952746" lat="51.222016"><ele>-8.8</ele><time>2022-06-19T08:54:57.000Z</time></trkpt><trkpt lon="5.952648" lat="51.221998"><ele>-9</ele><time>2022-06-19T08:54:58.000Z</time></trkpt><trkpt lon="5.952541" lat="51.221978"><ele>-9</ele><time>2022-06-19T08:54:59.000Z</time></trkpt><trkpt lon="5.952441" lat="51.221963"><ele>-9</ele><time>2022-06-19T08:55:00.000Z</time></trkpt><trkpt lon="5.952328" lat="51.221955"><ele>-9.2</ele><time>2022-06-19T08:55:01.000Z</time></trkpt><trkpt lon="5.952211" lat="51.221947"><ele>-9.2</ele><time>2022-06-19T08:55:02.000Z</time></trkpt><trkpt lon="5.952094" lat="51.221943"><ele>-9.4</ele><time>2022-06-19T08:55:03.000Z</time></trkpt><trkpt lon="5.951981" lat="51.221936"><ele>-9.6</ele><time>2022-06-19T08:55:04.000Z</time></trkpt><trkpt lon="5.95187" lat="51.221932"><ele>-9.6</ele><time>2022-06-19T08:55:05.000Z</time></trkpt><trkpt lon="5.95176" lat="51.221924"><ele>-9.6</ele><time>2022-06-19T08:55:06.000Z</time></trkpt><trkpt lon="5.951648" lat="51.22192"><ele>-9.6</ele><time>2022-06-19T08:55:07.000Z</time></trkpt><trkpt lon="5.951542" lat="51.22192"><ele>-9.6</ele><time>2022-06-19T08:55:08.000Z</time></trkpt><trkpt lon="5.951424" lat="51.221916"><ele>-9.6</ele><time>2022-06-19T08:55:09.000Z</time></trkpt><trkpt lon="5.951317" lat="51.221913"><ele>-9.6</ele><time>2022-06-19T08:55:10.000Z</time></trkpt><trkpt lon="5.95121" lat="51.22192"><ele>-9.8</ele><time>2022-06-19T08:55:11.000Z</time></trkpt><trkpt lon="5.951109" lat="51.221938"><ele>-9.8</ele><time>2022-06-19T08:55:12.000Z</time></trkpt><trkpt lon="5.951015" lat="51.221964"><ele>-10</ele><time>2022-06-19T08:55:13.000Z</time></trkpt><trkpt lon="5.950918" lat="51.221987"><ele>-10</ele><time>2022-06-19T08:55:14.000Z</time></trkpt><trkpt lon="5.950818" lat="51.222003"><ele>-10</ele><time>2022-06-19T08:55:15.000Z</time></trkpt><trkpt lon="5.950719" lat="51.222008"><ele>-10</ele><time>2022-06-19T08:55:16.000Z</time></trkpt><trkpt lon="5.95062" lat="51.221986"><ele>-9.8</ele><time>2022-06-19T08:55:17.000Z</time></trkpt><trkpt lon="5.950532" lat="51.221948"><ele>-9.8</ele><time>2022-06-19T08:55:18.000Z</time></trkpt><trkpt lon="5.950455" lat="51.221899"><ele>-9.8</ele><time>2022-06-19T08:55:19.000Z</time></trkpt><trkpt lon="5.950387" lat="51.221844"><ele>-9.8</ele><time>2022-06-19T08:55:20.000Z</time></trkpt><trkpt lon="5.950322" lat="51.221779"><ele>-10</ele><time>2022-06-19T08:55:21.000Z</time></trkpt><trkpt lon="5.950264" lat="51.221713"><ele>-10.2</ele><time>2022-06-19T08:55:22.000Z</time></trkpt><trkpt lon="5.950211" lat="51.221646"><ele>-10.2</ele><time>2022-06-19T08:55:23.000Z</time></trkpt><trkpt lon="5.95016" lat="51.221578"><ele>-10.4</ele><time>2022-06-19T08:55:24.000Z</time></trkpt><trkpt lon="5.950109" lat="51.221513"><ele>-10.4</ele><time>2022-06-19T08:55:25.000Z</time></trkpt><trkpt lon="5.950058" lat="51.221445"><ele>-10.4</ele><time>2022-06-19T08:55:26.000Z</time></trkpt><trkpt lon="5.950007" lat="51.221377"><ele>-10.6</ele><time>2022-06-19T08:55:27.000Z</time></trkpt><trkpt lon="5.949955" lat="51.221312"><ele>-10.6</ele><time>2022-06-19T08:55:28.000Z</time></trkpt><trkpt lon="5.949905" lat="51.221246"><ele>-10.8</ele><time>2022-06-19T08:55:29.000Z</time></trkpt><trkpt lon="5.949855" lat="51.221179"><ele>-10.8</ele><time>2022-06-19T08:55:30.000Z</time></trkpt><trkpt lon="5.949801" lat="51.221109"><ele>-10.8</ele><time>2022-06-19T08:55:31.000Z</time></trkpt><trkpt lon="5.949749" lat="51.221038"><ele>-10.8</ele><time>2022-06-19T08:55:32.000Z</time></trkpt><trkpt lon="5.949696" lat="51.220967"><ele>-10.8</ele><time>2022-06-19T08:55:33.000Z</time></trkpt><trkpt lon="5.949638" lat="51.220892"><ele>-10.8</ele><time>2022-06-19T08:55:34.000Z</time></trkpt><trkpt lon="5.949578" lat="51.220821"><ele>-10.8</ele><time>2022-06-19T08:55:35.000Z</time></trkpt><trkpt lon="5.949513" lat="51.220748"><ele>-10.6</ele><time>2022-06-19T08:55:36.000Z</time></trkpt><trkpt lon="5.949445" lat="51.220678"><ele>-10.4</ele><time>2022-06-19T08:55:37.000Z</time></trkpt><trkpt lon="5.949378" lat="51.220613"><ele>-10.2</ele><time>2022-06-19T08:55:38.000Z</time></trkpt><trkpt lon="5.949312" lat="51.220549"><ele>-10.2</ele><time>2022-06-19T08:55:39.000Z</time></trkpt><trkpt lon="5.949246" lat="51.220483"><ele>-10</ele><time>2022-06-19T08:55:40.000Z</time></trkpt><trkpt lon="5.949183" lat="51.220422"><ele>-10.2</ele><time>2022-06-19T08:55:41.000Z</time></trkpt><trkpt lon="5.949128" lat="51.220362"><ele>-10.4</ele><time>2022-06-19T08:55:42.000Z</time></trkpt><trkpt lon="5.949077" lat="51.2203"><ele>-10.2</ele><time>2022-06-19T08:55:43.000Z</time></trkpt><trkpt lon="5.949027" lat="51.220236"><ele>-10.2</ele><time>2022-06-19T08:55:44.000Z</time></trkpt><trkpt lon="5.948977" lat="51.220161"><ele>-10.4</ele><time>2022-06-19T08:55:45.000Z</time></trkpt><trkpt lon="5.948938" lat="51.22008"><ele>-10.6</ele><time>2022-06-19T08:55:46.000Z</time></trkpt><trkpt lon="5.94891" lat="51.219999"><ele>-10.4</ele><time>2022-06-19T08:55:47.000Z</time></trkpt><trkpt lon="5.948886" lat="51.219915"><ele>-10.4</ele><time>2022-06-19T08:55:48.000Z</time></trkpt><trkpt lon="5.948862" lat="51.219835"><ele>-10.6</ele><time>2022-06-19T08:55:49.000Z</time></trkpt><trkpt lon="5.948847" lat="51.219756"><ele>-10.6</ele><time>2022-06-19T08:55:50.000Z</time></trkpt><trkpt lon="5.948836" lat="51.219683"><ele>-10.6</ele><time>2022-06-19T08:55:51.000Z</time></trkpt><trkpt lon="5.948824" lat="51.219603"><ele>-10.6</ele><time>2022-06-19T08:55:52.000Z</time></trkpt><trkpt lon="5.948811" lat="51.219527"><ele>-10.8</ele><time>2022-06-19T08:55:53.000Z</time></trkpt><trkpt lon="5.948791" lat="51.219448"><ele>-11</ele><time>2022-06-19T08:55:54.000Z</time></trkpt><trkpt lon="5.948767" lat="51.219374"><ele>-11.2</ele><time>2022-06-19T08:55:55.000Z</time></trkpt><trkpt lon="5.948738" lat="51.219303"><ele>-11.4</ele><time>2022-06-19T08:55:56.000Z</time></trkpt><trkpt lon="5.948697" lat="51.219238"><ele>-11.4</ele><time>2022-06-19T08:55:57.000Z</time></trkpt><trkpt lon="5.948643" lat="51.219176"><ele>-11.4</ele><time>2022-06-19T08:55:58.000Z</time></trkpt><trkpt lon="5.948575" lat="51.21911"><ele>-11.4</ele><time>2022-06-19T08:55:59.000Z</time></trkpt><trkpt lon="5.948503" lat="51.21905"><ele>-11.2</ele><time>2022-06-19T08:56:00.000Z</time></trkpt><trkpt lon="5.948426" lat="51.218988"><ele>-11.2</ele><time>2022-06-19T08:56:01.000Z</time></trkpt><trkpt lon="5.948342" lat="51.218935"><ele>-11</ele><time>2022-06-19T08:56:02.000Z</time></trkpt><trkpt lon="5.948255" lat="51.218874"><ele>-10.8</ele><time>2022-06-19T08:56:03.000Z</time></trkpt><trkpt lon="5.94816" lat="51.218816"><ele>-11</ele><time>2022-06-19T08:56:04.000Z</time></trkpt><trkpt lon="5.948078" lat="51.218753"><ele>-10.8</ele><time>2022-06-19T08:56:05.000Z</time></trkpt><trkpt lon="5.947997" lat="51.218691"><ele>-10.8</ele><time>2022-06-19T08:56:06.000Z</time></trkpt><trkpt lon="5.94792" lat="51.218633"><ele>-10.8</ele><time>2022-06-19T08:56:07.000Z</time></trkpt><trkpt lon="5.947843" lat="51.218569"><ele>-10.8</ele><time>2022-06-19T08:56:08.000Z</time></trkpt><trkpt lon="5.947767" lat="51.218509"><ele>-10.8</ele><time>2022-06-19T08:56:09.000Z</time></trkpt><trkpt lon="5.947687" lat="51.218446"><ele>-10.8</ele><time>2022-06-19T08:56:10.000Z</time></trkpt><trkpt lon="5.947612" lat="51.218385"><ele>-10.8</ele><time>2022-06-19T08:56:11.000Z</time></trkpt><trkpt lon="5.947529" lat="51.218321"><ele>-10.6</ele><time>2022-06-19T08:56:12.000Z</time></trkpt><trkpt lon="5.947446" lat="51.218263"><ele>-10.8</ele><time>2022-06-19T08:56:13.000Z</time></trkpt><trkpt lon="5.947371" lat="51.218205"><ele>-10.8</ele><time>2022-06-19T08:56:14.000Z</time></trkpt><trkpt lon="5.947292" lat="51.218145"><ele>-10.6</ele><time>2022-06-19T08:56:15.000Z</time></trkpt><trkpt lon="5.947208" lat="51.218077"><ele>-10.6</ele><time>2022-06-19T08:56:16.000Z</time></trkpt><trkpt lon="5.947118" lat="51.218019"><ele>-10.6</ele><time>2022-06-19T08:56:17.000Z</time></trkpt><trkpt lon="5.947038" lat="51.21796"><ele>-10.6</ele><time>2022-06-19T08:56:18.000Z</time></trkpt><trkpt lon="5.946956" lat="51.217895"><ele>-10.6</ele><time>2022-06-19T08:56:19.000Z</time></trkpt><trkpt lon="5.946873" lat="51.217833"><ele>-10.6</ele><time>2022-06-19T08:56:20.000Z</time></trkpt><trkpt lon="5.946794" lat="51.217776"><ele>-10.6</ele><time>2022-06-19T08:56:21.000Z</time></trkpt><trkpt lon="5.946701" lat="51.217711"><ele>-10.4</ele><time>2022-06-19T08:56:22.000Z</time></trkpt><trkpt lon="5.946619" lat="51.217651"><ele>-10.6</ele><time>2022-06-19T08:56:23.000Z</time></trkpt><trkpt lon="5.946533" lat="51.217588"><ele>-10.8</ele><time>2022-06-19T08:56:24.000Z</time></trkpt><trkpt lon="5.946459" lat="51.217525"><ele>-10.8</ele><time>2022-06-19T08:56:25.000Z</time></trkpt><trkpt lon="5.946384" lat="51.217459"><ele>-11</ele><time>2022-06-19T08:56:26.000Z</time></trkpt><trkpt lon="5.946314" lat="51.217394"><ele>-11</ele><time>2022-06-19T08:56:27.000Z</time></trkpt><trkpt lon="5.946247" lat="51.217326"><ele>-11</ele><time>2022-06-19T08:56:28.000Z</time></trkpt><trkpt lon="5.94618" lat="51.21726"><ele>-10.8</ele><time>2022-06-19T08:56:29.000Z</time></trkpt><trkpt lon="5.946123" lat="51.217198"><ele>-10.8</ele><time>2022-06-19T08:56:30.000Z</time></trkpt><trkpt lon="5.946056" lat="51.21712"><ele>-10.8</ele><time>2022-06-19T08:56:31.000Z</time></trkpt><trkpt lon="5.945998" lat="51.217053"><ele>-10.8</ele><time>2022-06-19T08:56:32.000Z</time></trkpt><trkpt lon="5.945935" lat="51.216982"><ele>-10.8</ele><time>2022-06-19T08:56:33.000Z</time></trkpt><trkpt lon="5.945873" lat="51.216909"><ele>-11</ele><time>2022-06-19T08:56:34.000Z</time></trkpt><trkpt lon="5.945811" lat="51.216842"><ele>-11</ele><time>2022-06-19T08:56:35.000Z</time></trkpt><trkpt lon="5.945749" lat="51.216772"><ele>-11</ele><time>2022-06-19T08:56:36.000Z</time></trkpt><trkpt lon="5.945688" lat="51.216701"><ele>-11.2</ele><time>2022-06-19T08:56:37.000Z</time></trkpt><trkpt lon="5.945628" lat="51.21663"><ele>-11.4</ele><time>2022-06-19T08:56:38.000Z</time></trkpt><trkpt lon="5.94557" lat="51.216566"><ele>-11.4</ele><time>2022-06-19T08:56:39.000Z</time></trkpt><trkpt lon="5.945502" lat="51.216492"><ele>-11.4</ele><time>2022-06-19T08:56:40.000Z</time></trkpt><trkpt lon="5.945438" lat="51.216421"><ele>-11.4</ele><time>2022-06-19T08:56:41.000Z</time></trkpt><trkpt lon="5.945374" lat="51.216353"><ele>-11.4</ele><time>2022-06-19T08:56:42.000Z</time></trkpt><trkpt lon="5.945307" lat="51.216284"><ele>-11.4</ele><time>2022-06-19T08:56:43.000Z</time></trkpt><trkpt lon="5.945237" lat="51.216215"><ele>-11.4</ele><time>2022-06-19T08:56:44.000Z</time></trkpt><trkpt lon="5.945164" lat="51.21615"><ele>-11.4</ele><time>2022-06-19T08:56:45.000Z</time></trkpt><trkpt lon="5.945092" lat="51.216085"><ele>-11.2</ele><time>2022-06-19T08:56:46.000Z</time></trkpt><trkpt lon="5.94502" lat="51.216024"><ele>-11</ele><time>2022-06-19T08:56:47.000Z</time></trkpt><trkpt lon="5.944952" lat="51.215963"><ele>-10.8</ele><time>2022-06-19T08:56:48.000Z</time></trkpt><trkpt lon="5.944887" lat="51.215899"><ele>-10.8</ele><time>2022-06-19T08:56:49.000Z</time></trkpt><trkpt lon="5.944826" lat="51.215836"><ele>-10.8</ele><time>2022-06-19T08:56:50.000Z</time></trkpt><trkpt lon="5.944768" lat="51.215779"><ele>-10.6</ele><time>2022-06-19T08:56:51.000Z</time></trkpt><trkpt lon="5.9447" lat="51.215712"><ele>-10.6</ele><time>2022-06-19T08:56:52.000Z</time></trkpt><trkpt lon="5.944638" lat="51.21565"><ele>-10.8</ele><time>2022-06-19T08:56:53.000Z</time></trkpt><trkpt lon="5.944575" lat="51.21559"><ele>-10.8</ele><time>2022-06-19T08:56:54.000Z</time></trkpt><trkpt lon="5.944505" lat="51.215532"><ele>-10.8</ele><time>2022-06-19T08:56:55.000Z</time></trkpt><trkpt lon="5.944433" lat="51.215475"><ele>-10.6</ele><time>2022-06-19T08:56:56.000Z</time></trkpt><trkpt lon="5.94436" lat="51.215422"><ele>-10.6</ele><time>2022-06-19T08:56:57.000Z</time></trkpt><trkpt lon="5.944281" lat="51.215374"><ele>-10.6</ele><time>2022-06-19T08:56:58.000Z</time></trkpt><trkpt lon="5.944192" lat="51.215326"><ele>-10.6</ele><time>2022-06-19T08:56:59.000Z</time></trkpt><trkpt lon="5.94411" lat="51.215277"><ele>-10.6</ele><time>2022-06-19T08:57:00.000Z</time></trkpt><trkpt lon="5.944023" lat="51.215227"><ele>-10.6</ele><time>2022-06-19T08:57:01.000Z</time></trkpt><trkpt lon="5.943936" lat="51.215177"><ele>-10.6</ele><time>2022-06-19T08:57:02.000Z</time></trkpt><trkpt lon="5.943854" lat="51.215129"><ele>-10.8</ele><time>2022-06-19T08:57:03.000Z</time></trkpt><trkpt lon="5.94377" lat="51.215084"><ele>-10.8</ele><time>2022-06-19T08:57:04.000Z</time></trkpt><trkpt lon="5.943681" lat="51.215034"><ele>-10.8</ele><time>2022-06-19T08:57:05.000Z</time></trkpt><trkpt lon="5.943596" lat="51.214979"><ele>-10.8</ele><time>2022-06-19T08:57:06.000Z</time></trkpt><trkpt lon="5.943512" lat="51.214921"><ele>-10.8</ele><time>2022-06-19T08:57:07.000Z</time></trkpt><trkpt lon="5.943445" lat="51.214868"><ele>-10.8</ele><time>2022-06-19T08:57:08.000Z</time></trkpt><trkpt lon="5.943392" lat="51.214815"><ele>-10.8</ele><time>2022-06-19T08:57:09.000Z</time></trkpt><trkpt lon="5.943348" lat="51.214762"><ele>-10.8</ele><time>2022-06-19T08:57:10.000Z</time></trkpt><trkpt lon="5.943316" lat="51.214716"><ele>-10.8</ele><time>2022-06-19T08:57:11.000Z</time></trkpt><trkpt lon="5.943296" lat="51.214669"><ele>-10.8</ele><time>2022-06-19T08:57:12.000Z</time></trkpt><trkpt lon="5.943284" lat="51.214624"><ele>-10.6</ele><time>2022-06-19T08:57:13.000Z</time></trkpt><trkpt lon="5.943266" lat="51.214582"><ele>-10.6</ele><time>2022-06-19T08:57:14.000Z</time></trkpt><trkpt lon="5.943244" lat="51.214536"><ele>-10.6</ele><time>2022-06-19T08:57:15.000Z</time></trkpt><trkpt lon="5.943218" lat="51.214498"><ele>-10.6</ele><time>2022-06-19T08:57:16.000Z</time></trkpt><trkpt lon="5.943186" lat="51.214467"><ele>-10.6</ele><time>2022-06-19T08:57:17.000Z</time></trkpt><trkpt lon="5.943161" lat="51.214437"><ele>-10.6</ele><time>2022-06-19T08:57:18.000Z</time></trkpt><trkpt lon="5.943141" lat="51.214414"><ele>-10.6</ele><time>2022-06-19T08:57:19.000Z</time></trkpt><trkpt lon="5.943126" lat="51.214391"><ele>-10.6</ele><time>2022-06-19T08:57:20.000Z</time></trkpt><trkpt lon="5.943112" lat="51.214379"><ele>-10.6</ele><time>2022-06-19T08:57:21.000Z</time></trkpt><trkpt lon="5.943089" lat="51.214371"><ele>-10.6</ele><time>2022-06-19T08:57:22.000Z</time></trkpt><trkpt lon="5.943056" lat="51.214367"><ele>-10.8</ele><time>2022-06-19T08:57:23.000Z</time></trkpt><trkpt lon="5.943013" lat="51.214374"><ele>-10.8</ele><time>2022-06-19T08:57:24.000Z</time></trkpt><trkpt lon="5.942956" lat="51.214386"><ele>-10.8</ele><time>2022-06-19T08:57:25.000Z</time></trkpt><trkpt lon="5.942889" lat="51.214401"><ele>-11</ele><time>2022-06-19T08:57:26.000Z</time></trkpt><trkpt lon="5.942818" lat="51.214415"><ele>-11.2</ele><time>2022-06-19T08:57:27.000Z</time></trkpt><trkpt lon="5.942726" lat="51.214431"><ele>-11.2</ele><time>2022-06-19T08:57:28.000Z</time></trkpt><trkpt lon="5.942639" lat="51.214446"><ele>-11.4</ele><time>2022-06-19T08:57:29.000Z</time></trkpt><trkpt lon="5.942544" lat="51.214469"><ele>-11.2</ele><time>2022-06-19T08:57:30.000Z</time></trkpt><trkpt lon="5.942455" lat="51.214498"><ele>-11.2</ele><time>2022-06-19T08:57:31.000Z</time></trkpt><trkpt lon="5.94237" lat="51.214536"><ele>-11.2</ele><time>2022-06-19T08:57:32.000Z</time></trkpt><trkpt lon="5.942286" lat="51.214583"><ele>-11.4</ele><time>2022-06-19T08:57:33.000Z</time></trkpt><trkpt lon="5.942205" lat="51.214628"><ele>-11.6</ele><time>2022-06-19T08:57:34.000Z</time></trkpt><trkpt lon="5.942116" lat="51.214671"><ele>-11.6</ele><time>2022-06-19T08:57:35.000Z</time></trkpt><trkpt lon="5.942025" lat="51.214717"><ele>-11.4</ele><time>2022-06-19T08:57:36.000Z</time></trkpt><trkpt lon="5.941936" lat="51.214759"><ele>-11.4</ele><time>2022-06-19T08:57:37.000Z</time></trkpt><trkpt lon="5.941853" lat="51.214804"><ele>-11.6</ele><time>2022-06-19T08:57:38.000Z</time></trkpt><trkpt lon="5.94177" lat="51.21485"><ele>-11.6</ele><time>2022-06-19T08:57:39.000Z</time></trkpt><trkpt lon="5.941692" lat="51.214892"><ele>-11.6</ele><time>2022-06-19T08:57:40.000Z</time></trkpt><trkpt lon="5.941611" lat="51.21493"><ele>-11.4</ele><time>2022-06-19T08:57:41.000Z</time></trkpt><trkpt lon="5.941531" lat="51.214969"><ele>-11.2</ele><time>2022-06-19T08:57:42.000Z</time></trkpt><trkpt lon="5.941457" lat="51.215006"><ele>-10.8</ele><time>2022-06-19T08:57:43.000Z</time></trkpt><trkpt lon="5.941386" lat="51.215048"><ele>-10.6</ele><time>2022-06-19T08:57:44.000Z</time></trkpt><trkpt lon="5.94132" lat="51.215086"><ele>-10.4</ele><time>2022-06-19T08:57:45.000Z</time></trkpt><trkpt lon="5.941251" lat="51.215119"><ele>-10</ele><time>2022-06-19T08:57:46.000Z</time></trkpt><trkpt lon="5.941168" lat="51.215141"><ele>-9.8</ele><time>2022-06-19T08:57:47.000Z</time></trkpt><trkpt lon="5.941084" lat="51.215149"><ele>-9.6</ele><time>2022-06-19T08:57:48.000Z</time></trkpt><trkpt lon="5.941007" lat="51.215145"><ele>-9.6</ele><time>2022-06-19T08:57:49.000Z</time></trkpt><trkpt lon="5.940939" lat="51.21513"><ele>-9.4</ele><time>2022-06-19T08:57:50.000Z</time></trkpt><trkpt lon="5.940877" lat="51.215108"><ele>-9.2</ele><time>2022-06-19T08:57:51.000Z</time></trkpt><trkpt lon="5.940815" lat="51.215074"><ele>-9</ele><time>2022-06-19T08:57:52.000Z</time></trkpt><trkpt lon="5.940754" lat="51.215043"><ele>-9</ele><time>2022-06-19T08:57:53.000Z</time></trkpt><trkpt lon="5.940679" lat="51.21501"><ele>-9</ele><time>2022-06-19T08:57:54.000Z</time></trkpt><trkpt lon="5.940605" lat="51.214975"><ele>-8.8</ele><time>2022-06-19T08:57:55.000Z</time></trkpt><trkpt lon="5.940529" lat="51.21494"><ele>-8.6</ele><time>2022-06-19T08:57:56.000Z</time></trkpt><trkpt lon="5.940461" lat="51.214914"><ele>-8.4</ele><time>2022-06-19T08:57:57.000Z</time></trkpt><trkpt lon="5.940365" lat="51.214876"><ele>-8.4</ele><time>2022-06-19T08:57:58.000Z</time></trkpt><trkpt lon="5.940272" lat="51.21483"><ele>-8.2</ele><time>2022-06-19T08:57:59.000Z</time></trkpt><trkpt lon="5.940186" lat="51.214781"><ele>-8.2</ele><time>2022-06-19T08:58:00.000Z</time></trkpt><trkpt lon="5.940096" lat="51.214735"><ele>-8.2</ele><time>2022-06-19T08:58:01.000Z</time></trkpt><trkpt lon="5.940003" lat="51.214684"><ele>-8</ele><time>2022-06-19T08:58:02.000Z</time></trkpt><trkpt lon="5.939914" lat="51.214643"><ele>-8</ele><time>2022-06-19T08:58:03.000Z</time></trkpt><trkpt lon="5.939822" lat="51.214602"><ele>-7.8</ele><time>2022-06-19T08:58:04.000Z</time></trkpt><trkpt lon="5.939731" lat="51.214563"><ele>-7.8</ele><time>2022-06-19T08:58:05.000Z</time></trkpt><trkpt lon="5.939639" lat="51.214524"><ele>-7.6</ele><time>2022-06-19T08:58:06.000Z</time></trkpt><trkpt lon="5.93955" lat="51.214487"><ele>-7.6</ele><time>2022-06-19T08:58:07.000Z</time></trkpt><trkpt lon="5.939465" lat="51.214449"><ele>-7.6</ele><time>2022-06-19T08:58:08.000Z</time></trkpt><trkpt lon="5.939381" lat="51.214403"><ele>-7.6</ele><time>2022-06-19T08:58:09.000Z</time></trkpt><trkpt lon="5.939297" lat="51.214357"><ele>-7.6</ele><time>2022-06-19T08:58:10.000Z</time></trkpt><trkpt lon="5.939209" lat="51.214316"><ele>-7.8</ele><time>2022-06-19T08:58:11.000Z</time></trkpt><trkpt lon="5.939118" lat="51.214273"><ele>-7.8</ele><time>2022-06-19T08:58:12.000Z</time></trkpt><trkpt lon="5.93903" lat="51.214228"><ele>-7.8</ele><time>2022-06-19T08:58:13.000Z</time></trkpt><trkpt lon="5.93894" lat="51.214181"><ele>-8</ele><time>2022-06-19T08:58:14.000Z</time></trkpt><trkpt lon="5.938851" lat="51.214128"><ele>-8</ele><time>2022-06-19T08:58:15.000Z</time></trkpt><trkpt lon="5.938758" lat="51.214075"><ele>-8</ele><time>2022-06-19T08:58:16.000Z</time></trkpt><trkpt lon="5.938663" lat="51.214036"><ele>-8</ele><time>2022-06-19T08:58:17.000Z</time></trkpt><trkpt lon="5.93857" lat="51.213987"><ele>-8.2</ele><time>2022-06-19T08:58:18.000Z</time></trkpt><trkpt lon="5.938482" lat="51.213943"><ele>-8.2</ele><time>2022-06-19T08:58:19.000Z</time></trkpt><trkpt lon="5.938385" lat="51.213892"><ele>-8.2</ele><time>2022-06-19T08:58:20.000Z</time></trkpt><trkpt lon="5.938295" lat="51.213844"><ele>-8.4</ele><time>2022-06-19T08:58:21.000Z</time></trkpt><trkpt lon="5.938201" lat="51.213793"><ele>-8.4</ele><time>2022-06-19T08:58:22.000Z</time></trkpt><trkpt lon="5.938108" lat="51.213741"><ele>-8.4</ele><time>2022-06-19T08:58:23.000Z</time></trkpt><trkpt lon="5.938014" lat="51.213691"><ele>-8.4</ele><time>2022-06-19T08:58:24.000Z</time></trkpt><trkpt lon="5.937922" lat="51.213641"><ele>-8.6</ele><time>2022-06-19T08:58:25.000Z</time></trkpt><trkpt lon="5.937832" lat="51.2136"><ele>-8.6</ele><time>2022-06-19T08:58:26.000Z</time></trkpt><trkpt lon="5.937733" lat="51.213554"><ele>-8.6</ele><time>2022-06-19T08:58:27.000Z</time></trkpt><trkpt lon="5.937628" lat="51.213517"><ele>-8.8</ele><time>2022-06-19T08:58:28.000Z</time></trkpt><trkpt lon="5.937525" lat="51.213479"><ele>-8.8</ele><time>2022-06-19T08:58:29.000Z</time></trkpt><trkpt lon="5.937437" lat="51.213445"><ele>-8.8</ele><time>2022-06-19T08:58:30.000Z</time></trkpt><trkpt lon="5.93733" lat="51.213399"><ele>-9</ele><time>2022-06-19T08:58:31.000Z</time></trkpt><trkpt lon="5.937237" lat="51.213357"><ele>-9</ele><time>2022-06-19T08:58:32.000Z</time></trkpt><trkpt lon="5.937146" lat="51.213312"><ele>-9.2</ele><time>2022-06-19T08:58:33.000Z</time></trkpt><trkpt lon="5.937056" lat="51.213269"><ele>-9.4</ele><time>2022-06-19T08:58:34.000Z</time></trkpt><trkpt lon="5.936971" lat="51.213228"><ele>-9.6</ele><time>2022-06-19T08:58:35.000Z</time></trkpt><trkpt lon="5.936884" lat="51.213182"><ele>-9.8</ele><time>2022-06-19T08:58:36.000Z</time></trkpt><trkpt lon="5.936807" lat="51.213136"><ele>-10</ele><time>2022-06-19T08:58:37.000Z</time></trkpt><trkpt lon="5.936742" lat="51.213087"><ele>-10</ele><time>2022-06-19T08:58:38.000Z</time></trkpt><trkpt lon="5.93669" lat="51.213033"><ele>-10</ele><time>2022-06-19T08:58:39.000Z</time></trkpt><trkpt lon="5.936664" lat="51.212976"><ele>-10</ele><time>2022-06-19T08:58:40.000Z</time></trkpt><trkpt lon="5.936663" lat="51.212923"><ele>-10</ele><time>2022-06-19T08:58:41.000Z</time></trkpt><trkpt lon="5.936691" lat="51.21287"><ele>-10</ele><time>2022-06-19T08:58:42.000Z</time></trkpt><trkpt lon="5.936752" lat="51.212824"><ele>-10</ele><time>2022-06-19T08:58:43.000Z</time></trkpt><trkpt lon="5.936844" lat="51.212781"><ele>-10</ele><time>2022-06-19T08:58:44.000Z</time></trkpt><trkpt lon="5.936944" lat="51.212739"><ele>-10</ele><time>2022-06-19T08:58:45.000Z</time></trkpt><trkpt lon="5.937044" lat="51.212701"><ele>-10</ele><time>2022-06-19T08:58:46.000Z</time></trkpt><trkpt lon="5.937138" lat="51.212668"><ele>-9.8</ele><time>2022-06-19T08:58:47.000Z</time></trkpt><trkpt lon="5.93724" lat="51.212632"><ele>-9.8</ele><time>2022-06-19T08:58:48.000Z</time></trkpt><trkpt lon="5.937332" lat="51.212598"><ele>-9.8</ele><time>2022-06-19T08:58:49.000Z</time></trkpt><trkpt lon="5.937427" lat="51.212564"><ele>-9.6</ele><time>2022-06-19T08:58:50.000Z</time></trkpt><trkpt lon="5.937521" lat="51.21253"><ele>-9.6</ele><time>2022-06-19T08:58:51.000Z</time></trkpt><trkpt lon="5.937615" lat="51.212499"><ele>-9.4</ele><time>2022-06-19T08:58:52.000Z</time></trkpt><trkpt lon="5.937712" lat="51.212464"><ele>-9.4</ele><time>2022-06-19T08:58:53.000Z</time></trkpt><trkpt lon="5.937809" lat="51.212426"><ele>-9.4</ele><time>2022-06-19T08:58:54.000Z</time></trkpt><trkpt lon="5.937902" lat="51.212392"><ele>-9.4</ele><time>2022-06-19T08:58:55.000Z</time></trkpt><trkpt lon="5.937999" lat="51.212358"><ele>-9.4</ele><time>2022-06-19T08:58:56.000Z</time></trkpt><trkpt lon="5.938091" lat="51.212323"><ele>-9.4</ele><time>2022-06-19T08:58:57.000Z</time></trkpt><trkpt lon="5.938186" lat="51.212293"><ele>-9.4</ele><time>2022-06-19T08:58:58.000Z</time></trkpt><trkpt lon="5.938268" lat="51.212266"><ele>-9.4</ele><time>2022-06-19T08:58:59.000Z</time></trkpt><trkpt lon="5.938373" lat="51.212239"><ele>-9.2</ele><time>2022-06-19T08:59:00.000Z</time></trkpt><trkpt lon="5.938476" lat="51.212217"><ele>-9</ele><time>2022-06-19T08:59:01.000Z</time></trkpt><trkpt lon="5.938585" lat="51.212204"><ele>-9</ele><time>2022-06-19T08:59:02.000Z</time></trkpt><trkpt lon="5.938694" lat="51.212193"><ele>-9</ele><time>2022-06-19T08:59:03.000Z</time></trkpt><trkpt lon="5.938805" lat="51.212185"><ele>-9</ele><time>2022-06-19T08:59:04.000Z</time></trkpt><trkpt lon="5.938906" lat="51.212171"><ele>-9</ele><time>2022-06-19T08:59:05.000Z</time></trkpt><trkpt lon="5.939008" lat="51.212144"><ele>-9.2</ele><time>2022-06-19T08:59:06.000Z</time></trkpt><trkpt lon="5.939092" lat="51.212104"><ele>-9.2</ele><time>2022-06-19T08:59:07.000Z</time></trkpt><trkpt lon="5.939175" lat="51.212057"><ele>-9.2</ele><time>2022-06-19T08:59:08.000Z</time></trkpt><trkpt lon="5.939253" lat="51.212005"><ele>-9.2</ele><time>2022-06-19T08:59:09.000Z</time></trkpt><trkpt lon="5.939329" lat="51.211957"><ele>-9.2</ele><time>2022-06-19T08:59:10.000Z</time></trkpt><trkpt lon="5.939401" lat="51.211908"><ele>-9.2</ele><time>2022-06-19T08:59:11.000Z</time></trkpt><trkpt lon="5.93947" lat="51.211862"><ele>-9</ele><time>2022-06-19T08:59:12.000Z</time></trkpt><trkpt lon="5.939524" lat="51.211815"><ele>-9</ele><time>2022-06-19T08:59:13.000Z</time></trkpt><trkpt lon="5.93958" lat="51.211752"><ele>-9</ele><time>2022-06-19T08:59:14.000Z</time></trkpt><trkpt lon="5.939609" lat="51.21169"><ele>-9</ele><time>2022-06-19T08:59:15.000Z</time></trkpt><trkpt lon="5.939624" lat="51.211619"><ele>-9</ele><time>2022-06-19T08:59:16.000Z</time></trkpt><trkpt lon="5.939639" lat="51.211558"><ele>-9</ele><time>2022-06-19T08:59:17.000Z</time></trkpt><trkpt lon="5.939659" lat="51.211489"><ele>-9</ele><time>2022-06-19T08:59:18.000Z</time></trkpt><trkpt lon="5.939684" lat="51.211424"><ele>-9</ele><time>2022-06-19T08:59:19.000Z</time></trkpt><trkpt lon="5.939721" lat="51.211363"><ele>-9</ele><time>2022-06-19T08:59:20.000Z</time></trkpt><trkpt lon="5.939765" lat="51.211314"><ele>-9</ele><time>2022-06-19T08:59:21.000Z</time></trkpt><trkpt lon="5.939838" lat="51.211259"><ele>-8.8</ele><time>2022-06-19T08:59:22.000Z</time></trkpt><trkpt lon="5.939911" lat="51.211221"><ele>-8.8</ele><time>2022-06-19T08:59:23.000Z</time></trkpt><trkpt lon="5.939984" lat="51.21119"><ele>-8.8</ele><time>2022-06-19T08:59:24.000Z</time></trkpt><trkpt lon="5.940051" lat="51.211157"><ele>-8.8</ele><time>2022-06-19T08:59:25.000Z</time></trkpt><trkpt lon="5.940115" lat="51.211129"><ele>-8.6</ele><time>2022-06-19T08:59:26.000Z</time></trkpt><trkpt lon="5.940159" lat="51.211099"><ele>-8.4</ele><time>2022-06-19T08:59:27.000Z</time></trkpt><trkpt lon="5.940173" lat="51.211053"><ele>-8.4</ele><time>2022-06-19T08:59:28.000Z</time></trkpt><trkpt lon="5.940157" lat="51.211015"><ele>-8.2</ele><time>2022-06-19T08:59:29.000Z</time></trkpt><trkpt lon="5.940118" lat="51.210977"><ele>-8.2</ele><time>2022-06-19T08:59:30.000Z</time></trkpt><trkpt lon="5.940058" lat="51.210935"><ele>-8.2</ele><time>2022-06-19T08:59:31.000Z</time></trkpt><trkpt lon="5.939994" lat="51.210889"><ele>-8.4</ele><time>2022-06-19T08:59:32.000Z</time></trkpt><trkpt lon="5.939927" lat="51.210836"><ele>-8.6</ele><time>2022-06-19T08:59:33.000Z</time></trkpt><trkpt lon="5.939855" lat="51.210783"><ele>-8.6</ele><time>2022-06-19T08:59:34.000Z</time></trkpt><trkpt lon="5.939779" lat="51.210729"><ele>-8.8</ele><time>2022-06-19T08:59:35.000Z</time></trkpt><trkpt lon="5.939702" lat="51.210672"><ele>-8.8</ele><time>2022-06-19T08:59:36.000Z</time></trkpt><trkpt lon="5.939619" lat="51.210622"><ele>-8.8</ele><time>2022-06-19T08:59:37.000Z</time></trkpt><trkpt lon="5.939537" lat="51.210569"><ele>-8.8</ele><time>2022-06-19T08:59:38.000Z</time></trkpt><trkpt lon="5.939461" lat="51.210518"><ele>-8.8</ele><time>2022-06-19T08:59:39.000Z</time></trkpt><trkpt lon="5.939385" lat="51.210472"><ele>-8.8</ele><time>2022-06-19T08:59:40.000Z</time></trkpt><trkpt lon="5.939308" lat="51.210428"><ele>-9</ele><time>2022-06-19T08:59:41.000Z</time></trkpt><trkpt lon="5.939237" lat="51.210386"><ele>-9</ele><time>2022-06-19T08:59:42.000Z</time></trkpt><trkpt lon="5.939163" lat="51.210345"><ele>-9</ele><time>2022-06-19T08:59:43.000Z</time></trkpt><trkpt lon="5.939085" lat="51.210298"><ele>-9.2</ele><time>2022-06-19T08:59:44.000Z</time></trkpt><trkpt lon="5.939012" lat="51.210259"><ele>-9.2</ele><time>2022-06-19T08:59:45.000Z</time></trkpt><trkpt lon="5.93894" lat="51.210219"><ele>-9.2</ele><time>2022-06-19T08:59:46.000Z</time></trkpt><trkpt lon="5.938866" lat="51.210176"><ele>-9</ele><time>2022-06-19T08:59:47.000Z</time></trkpt><trkpt lon="5.938792" lat="51.210137"><ele>-9</ele><time>2022-06-19T08:59:48.000Z</time></trkpt><trkpt lon="5.938719" lat="51.210103"><ele>-9</ele><time>2022-06-19T08:59:49.000Z</time></trkpt><trkpt lon="5.938648" lat="51.21007"><ele>-9</ele><time>2022-06-19T08:59:50.000Z</time></trkpt><trkpt lon="5.93857" lat="51.210034"><ele>-9</ele><time>2022-06-19T08:59:51.000Z</time></trkpt><trkpt lon="5.93849" lat="51.210008"><ele>-9</ele><time>2022-06-19T08:59:52.000Z</time></trkpt><trkpt lon="5.93841" lat="51.209985"><ele>-9</ele><time>2022-06-19T08:59:53.000Z</time></trkpt><trkpt lon="5.938339" lat="51.209954"><ele>-8.8</ele><time>2022-06-19T08:59:54.000Z</time></trkpt><trkpt lon="5.938287" lat="51.209913"><ele>-8.8</ele><time>2022-06-19T08:59:55.000Z</time></trkpt><trkpt lon="5.938253" lat="51.209864"><ele>-8.8</ele><time>2022-06-19T08:59:56.000Z</time></trkpt><trkpt lon="5.938239" lat="51.20981"><ele>-8.8</ele><time>2022-06-19T08:59:57.000Z</time></trkpt><trkpt lon="5.938254" lat="51.209748"><ele>-8.8</ele><time>2022-06-19T08:59:58.000Z</time></trkpt><trkpt lon="5.938271" lat="51.209686"><ele>-9</ele><time>2022-06-19T08:59:59.000Z</time></trkpt><trkpt lon="5.938278" lat="51.209614"><ele>-9</ele><time>2022-06-19T09:00:00.000Z</time></trkpt><trkpt lon="5.93827" lat="51.20954"><ele>-9.2</ele><time>2022-06-19T09:00:01.000Z</time></trkpt><trkpt lon="5.938241" lat="51.209467"><ele>-9.2</ele><time>2022-06-19T09:00:02.000Z</time></trkpt><trkpt lon="5.938196" lat="51.209403"><ele>-9.4</ele><time>2022-06-19T09:00:03.000Z</time></trkpt><trkpt lon="5.938142" lat="51.209341"><ele>-9.4</ele><time>2022-06-19T09:00:04.000Z</time></trkpt><trkpt lon="5.938085" lat="51.20929"><ele>-9.4</ele><time>2022-06-19T09:00:05.000Z</time></trkpt><trkpt lon="5.93802" lat="51.209238"><ele>-9.6</ele><time>2022-06-19T09:00:06.000Z</time></trkpt><trkpt lon="5.937945" lat="51.2092"><ele>-9.8</ele><time>2022-06-19T09:00:07.000Z</time></trkpt><trkpt lon="5.937858" lat="51.209161"><ele>-9.8</ele><time>2022-06-19T09:00:08.000Z</time></trkpt><trkpt lon="5.937776" lat="51.209119"><ele>-10</ele><time>2022-06-19T09:00:09.000Z</time></trkpt><trkpt lon="5.937703" lat="51.209067"><ele>-10</ele><time>2022-06-19T09:00:10.000Z</time></trkpt><trkpt lon="5.937631" lat="51.209006"><ele>-10</ele><time>2022-06-19T09:00:11.000Z</time></trkpt><trkpt lon="5.937557" lat="51.208942"><ele>-10.2</ele><time>2022-06-19T09:00:12.000Z</time></trkpt><trkpt lon="5.937482" lat="51.20888"><ele>-10.2</ele><time>2022-06-19T09:00:13.000Z</time></trkpt><trkpt lon="5.937404" lat="51.208822"><ele>-10.4</ele><time>2022-06-19T09:00:14.000Z</time></trkpt><trkpt lon="5.937331" lat="51.208765"><ele>-10.6</ele><time>2022-06-19T09:00:15.000Z</time></trkpt><trkpt lon="5.937265" lat="51.208704"><ele>-10.8</ele><time>2022-06-19T09:00:16.000Z</time></trkpt><trkpt lon="5.937209" lat="51.208639"><ele>-10.8</ele><time>2022-06-19T09:00:17.000Z</time></trkpt><trkpt lon="5.93715" lat="51.208583"><ele>-10.8</ele><time>2022-06-19T09:00:18.000Z</time></trkpt><trkpt lon="5.937082" lat="51.208528"><ele>-10.8</ele><time>2022-06-19T09:00:19.000Z</time></trkpt><trkpt lon="5.937002" lat="51.208471"><ele>-10.8</ele><time>2022-06-19T09:00:20.000Z</time></trkpt><trkpt lon="5.93693" lat="51.208416"><ele>-11</ele><time>2022-06-19T09:00:21.000Z</time></trkpt><trkpt lon="5.936856" lat="51.208361"><ele>-11</ele><time>2022-06-19T09:00:22.000Z</time></trkpt><trkpt lon="5.936788" lat="51.208315"><ele>-11</ele><time>2022-06-19T09:00:23.000Z</time></trkpt><trkpt lon="5.936721" lat="51.208265"><ele>-11</ele><time>2022-06-19T09:00:24.000Z</time></trkpt><trkpt lon="5.936659" lat="51.208216"><ele>-11</ele><time>2022-06-19T09:00:25.000Z</time></trkpt><trkpt lon="5.936591" lat="51.208166"><ele>-11.2</ele><time>2022-06-19T09:00:26.000Z</time></trkpt><trkpt lon="5.936522" lat="51.208116"><ele>-11.2</ele><time>2022-06-19T09:00:27.000Z</time></trkpt><trkpt lon="5.936451" lat="51.208062"><ele>-11.2</ele><time>2022-06-19T09:00:28.000Z</time></trkpt><trkpt lon="5.936381" lat="51.208009"><ele>-11.4</ele><time>2022-06-19T09:00:29.000Z</time></trkpt><trkpt lon="5.936328" lat="51.20797"><ele>-11.4</ele><time>2022-06-19T09:00:30.000Z</time></trkpt><trkpt lon="5.936233" lat="51.2079"><ele>-11.4</ele><time>2022-06-19T09:00:31.000Z</time></trkpt><trkpt lon="5.936169" lat="51.207853"><ele>-11.4</ele><time>2022-06-19T09:00:32.000Z</time></trkpt><trkpt lon="5.936086" lat="51.207789"><ele>-11.4</ele><time>2022-06-19T09:00:33.000Z</time></trkpt><trkpt lon="5.936015" lat="51.207738"><ele>-11.4</ele><time>2022-06-19T09:00:34.000Z</time></trkpt><trkpt lon="5.935952" lat="51.207686"><ele>-11.2</ele><time>2022-06-19T09:00:35.000Z</time></trkpt><trkpt lon="5.935895" lat="51.207645"><ele>-11.2</ele><time>2022-06-19T09:00:36.000Z</time></trkpt><trkpt lon="5.93582" lat="51.207586"><ele>-11</ele><time>2022-06-19T09:00:37.000Z</time></trkpt><trkpt lon="5.935763" lat="51.207542"><ele>-11</ele><time>2022-06-19T09:00:38.000Z</time></trkpt><trkpt lon="5.935691" lat="51.207487"><ele>-11</ele><time>2022-06-19T09:00:39.000Z</time></trkpt><trkpt lon="5.93564" lat="51.207448"><ele>-10.8</ele><time>2022-06-19T09:00:40.000Z</time></trkpt><trkpt lon="5.935577" lat="51.207399"><ele>-10.8</ele><time>2022-06-19T09:00:41.000Z</time></trkpt><trkpt lon="5.935526" lat="51.20736"><ele>-10.8</ele><time>2022-06-19T09:00:42.000Z</time></trkpt><trkpt lon="5.935452" lat="51.207301"><ele>-10.6</ele><time>2022-06-19T09:00:43.000Z</time></trkpt><trkpt lon="5.935385" lat="51.207254"><ele>-10.6</ele><time>2022-06-19T09:00:44.000Z</time></trkpt><trkpt lon="5.935315" lat="51.207197"><ele>-10.6</ele><time>2022-06-19T09:00:45.000Z</time></trkpt><trkpt lon="5.935257" lat="51.207152"><ele>-10.4</ele><time>2022-06-19T09:00:46.000Z</time></trkpt><trkpt lon="5.935176" lat="51.207087"><ele>-10.4</ele><time>2022-06-19T09:00:47.000Z</time></trkpt><trkpt lon="5.935107" lat="51.207029"><ele>-10.4</ele><time>2022-06-19T09:00:48.000Z</time></trkpt><trkpt lon="5.935037" lat="51.206972"><ele>-10.4</ele><time>2022-06-19T09:00:49.000Z</time></trkpt><trkpt lon="5.934981" lat="51.206924"><ele>-10.2</ele><time>2022-06-19T09:00:50.000Z</time></trkpt><trkpt lon="5.934899" lat="51.206858"><ele>-10.2</ele><time>2022-06-19T09:00:51.000Z</time></trkpt><trkpt lon="5.934834" lat="51.206802"><ele>-10.2</ele><time>2022-06-19T09:00:52.000Z</time></trkpt><trkpt lon="5.934767" lat="51.206737"><ele>-10.2</ele><time>2022-06-19T09:00:53.000Z</time></trkpt><trkpt lon="5.934702" lat="51.206667"><ele>-10</ele><time>2022-06-19T09:00:54.000Z</time></trkpt><trkpt lon="5.93464" lat="51.206602"><ele>-10</ele><time>2022-06-19T09:00:55.000Z</time></trkpt><trkpt lon="5.934586" lat="51.206545"><ele>-10</ele><time>2022-06-19T09:00:56.000Z</time></trkpt><trkpt lon="5.934522" lat="51.206473"><ele>-10</ele><time>2022-06-19T09:00:57.000Z</time></trkpt><trkpt lon="5.934476" lat="51.206411"><ele>-10</ele><time>2022-06-19T09:00:58.000Z</time></trkpt><trkpt lon="5.934416" lat="51.206336"><ele>-10</ele><time>2022-06-19T09:00:59.000Z</time></trkpt><trkpt lon="5.934374" lat="51.206275"><ele>-9.8</ele><time>2022-06-19T09:01:00.000Z</time></trkpt><trkpt lon="5.934323" lat="51.20619"><ele>-9.8</ele><time>2022-06-19T09:01:01.000Z</time></trkpt><trkpt lon="5.934284" lat="51.20611"><ele>-9.8</ele><time>2022-06-19T09:01:02.000Z</time></trkpt><trkpt lon="5.934246" lat="51.206037"><ele>-9.8</ele><time>2022-06-19T09:01:03.000Z</time></trkpt><trkpt lon="5.934215" lat="51.205971"><ele>-9.8</ele><time>2022-06-19T09:01:04.000Z</time></trkpt><trkpt lon="5.934181" lat="51.205893"><ele>-9.8</ele><time>2022-06-19T09:01:05.000Z</time></trkpt><trkpt lon="5.934155" lat="51.205834"><ele>-9.8</ele><time>2022-06-19T09:01:06.000Z</time></trkpt><trkpt lon="5.934123" lat="51.205748"><ele>-9.8</ele><time>2022-06-19T09:01:07.000Z</time></trkpt><trkpt lon="5.934098" lat="51.205686"><ele>-10</ele><time>2022-06-19T09:01:08.000Z</time></trkpt><trkpt lon="5.934068" lat="51.205604"><ele>-10</ele><time>2022-06-19T09:01:09.000Z</time></trkpt><trkpt lon="5.934049" lat="51.205542"><ele>-10.2</ele><time>2022-06-19T09:01:10.000Z</time></trkpt><trkpt lon="5.934022" lat="51.205462"><ele>-10.2</ele><time>2022-06-19T09:01:11.000Z</time></trkpt><trkpt lon="5.933998" lat="51.205406"><ele>-10.2</ele><time>2022-06-19T09:01:12.000Z</time></trkpt><trkpt lon="5.933961" lat="51.205325"><ele>-10.2</ele><time>2022-06-19T09:01:13.000Z</time></trkpt><trkpt lon="5.933931" lat="51.205259"><ele>-10.2</ele><time>2022-06-19T09:01:14.000Z</time></trkpt><trkpt lon="5.933893" lat="51.205184"><ele>-10.2</ele><time>2022-06-19T09:01:15.000Z</time></trkpt><trkpt lon="5.933862" lat="51.205123"><ele>-10.2</ele><time>2022-06-19T09:01:16.000Z</time></trkpt><trkpt lon="5.933815" lat="51.205035"><ele>-10.4</ele><time>2022-06-19T09:01:17.000Z</time></trkpt><trkpt lon="5.933776" lat="51.204973"><ele>-10.4</ele><time>2022-06-19T09:01:18.000Z</time></trkpt><trkpt lon="5.933722" lat="51.204896"><ele>-10.4</ele><time>2022-06-19T09:01:19.000Z</time></trkpt><trkpt lon="5.933682" lat="51.204842"><ele>-10.4</ele><time>2022-06-19T09:01:20.000Z</time></trkpt><trkpt lon="5.933617" lat="51.204759"><ele>-10.4</ele><time>2022-06-19T09:01:21.000Z</time></trkpt><trkpt lon="5.933565" lat="51.2047"><ele>-10.4</ele><time>2022-06-19T09:01:22.000Z</time></trkpt><trkpt lon="5.93349" lat="51.204623"><ele>-10.4</ele><time>2022-06-19T09:01:23.000Z</time></trkpt><trkpt lon="5.933416" lat="51.204558"><ele>-10.4</ele><time>2022-06-19T09:01:24.000Z</time></trkpt><trkpt lon="5.933336" lat="51.204497"><ele>-10.4</ele><time>2022-06-19T09:01:25.000Z</time></trkpt><trkpt lon="5.933256" lat="51.204443"><ele>-10.2</ele><time>2022-06-19T09:01:26.000Z</time></trkpt><trkpt lon="5.933178" lat="51.204386"><ele>-10.2</ele><time>2022-06-19T09:01:27.000Z</time></trkpt><trkpt lon="5.933097" lat="51.204328"><ele>-10.2</ele><time>2022-06-19T09:01:28.000Z</time></trkpt><trkpt lon="5.933022" lat="51.204277"><ele>-10.2</ele><time>2022-06-19T09:01:29.000Z</time></trkpt><trkpt lon="5.932937" lat="51.204219"><ele>-10</ele><time>2022-06-19T09:01:30.000Z</time></trkpt><trkpt lon="5.932851" lat="51.20416"><ele>-10</ele><time>2022-06-19T09:01:31.000Z</time></trkpt><trkpt lon="5.932767" lat="51.204107"><ele>-10</ele><time>2022-06-19T09:01:32.000Z</time></trkpt><trkpt lon="5.932684" lat="51.204054"><ele>-10</ele><time>2022-06-19T09:01:33.000Z</time></trkpt><trkpt lon="5.932603" lat="51.204"><ele>-9.8</ele><time>2022-06-19T09:01:34.000Z</time></trkpt><trkpt lon="5.932522" lat="51.203943"><ele>-9.8</ele><time>2022-06-19T09:01:35.000Z</time></trkpt><trkpt lon="5.932444" lat="51.20389"><ele>-9.8</ele><time>2022-06-19T09:01:36.000Z</time></trkpt><trkpt lon="5.932369" lat="51.20384"><ele>-9.8</ele><time>2022-06-19T09:01:37.000Z</time></trkpt><trkpt lon="5.932297" lat="51.20379"><ele>-9.8</ele><time>2022-06-19T09:01:38.000Z</time></trkpt><trkpt lon="5.932229" lat="51.203746"><ele>-9.8</ele><time>2022-06-19T09:01:39.000Z</time></trkpt><trkpt lon="5.932164" lat="51.203702"><ele>-9.8</ele><time>2022-06-19T09:01:40.000Z</time></trkpt><trkpt lon="5.932089" lat="51.203646"><ele>-9.8</ele><time>2022-06-19T09:01:41.000Z</time></trkpt><trkpt lon="5.932014" lat="51.203592"><ele>-10</ele><time>2022-06-19T09:01:42.000Z</time></trkpt><trkpt lon="5.931938" lat="51.203543"><ele>-10</ele><time>2022-06-19T09:01:43.000Z</time></trkpt><trkpt lon="5.931863" lat="51.20349"><ele>-10</ele><time>2022-06-19T09:01:44.000Z</time></trkpt><trkpt lon="5.931786" lat="51.203436"><ele>-10.2</ele><time>2022-06-19T09:01:45.000Z</time></trkpt><trkpt lon="5.931722" lat="51.203389"><ele>-10.2</ele><time>2022-06-19T09:01:46.000Z</time></trkpt><trkpt lon="5.931642" lat="51.20333"><ele>-10.2</ele><time>2022-06-19T09:01:47.000Z</time></trkpt><trkpt lon="5.931559" lat="51.203264"><ele>-10.2</ele><time>2022-06-19T09:01:48.000Z</time></trkpt><trkpt lon="5.931481" lat="51.203203"><ele>-10.2</ele><time>2022-06-19T09:01:49.000Z</time></trkpt><trkpt lon="5.931397" lat="51.203142"><ele>-10.2</ele><time>2022-06-19T09:01:50.000Z</time></trkpt><trkpt lon="5.931318" lat="51.203079"><ele>-10.4</ele><time>2022-06-19T09:01:51.000Z</time></trkpt><trkpt lon="5.93124" lat="51.20301"><ele>-10.4</ele><time>2022-06-19T09:01:52.000Z</time></trkpt><trkpt lon="5.931161" lat="51.202952"><ele>-10.4</ele><time>2022-06-19T09:01:53.000Z</time></trkpt><trkpt lon="5.931083" lat="51.202891"><ele>-10.4</ele><time>2022-06-19T09:01:54.000Z</time></trkpt><trkpt lon="5.931006" lat="51.202833"><ele>-10.4</ele><time>2022-06-19T09:01:55.000Z</time></trkpt><trkpt lon="5.930935" lat="51.202772"><ele>-10.4</ele><time>2022-06-19T09:01:56.000Z</time></trkpt><trkpt lon="5.930869" lat="51.202707"><ele>-10.4</ele><time>2022-06-19T09:01:57.000Z</time></trkpt><trkpt lon="5.9308" lat="51.202642"><ele>-10.4</ele><time>2022-06-19T09:01:58.000Z</time></trkpt><trkpt lon="5.930733" lat="51.202577"><ele>-10.6</ele><time>2022-06-19T09:01:59.000Z</time></trkpt><trkpt lon="5.930667" lat="51.202516"><ele>-10.6</ele><time>2022-06-19T09:02:00.000Z</time></trkpt><trkpt lon="5.930602" lat="51.202452"><ele>-10.6</ele><time>2022-06-19T09:02:01.000Z</time></trkpt><trkpt lon="5.930536" lat="51.202384"><ele>-10.6</ele><time>2022-06-19T09:02:02.000Z</time></trkpt><trkpt lon="5.93047" lat="51.202318"><ele>-10.8</ele><time>2022-06-19T09:02:03.000Z</time></trkpt><trkpt lon="5.930405" lat="51.20225"><ele>-10.8</ele><time>2022-06-19T09:02:04.000Z</time></trkpt><trkpt lon="5.930341" lat="51.20218"><ele>-10.8</ele><time>2022-06-19T09:02:05.000Z</time></trkpt><trkpt lon="5.930281" lat="51.202116"><ele>-10.8</ele><time>2022-06-19T09:02:06.000Z</time></trkpt><trkpt lon="5.930206" lat="51.202046"><ele>-10.8</ele><time>2022-06-19T09:02:07.000Z</time></trkpt><trkpt lon="5.930138" lat="51.201978"><ele>-11</ele><time>2022-06-19T09:02:08.000Z</time></trkpt><trkpt lon="5.930064" lat="51.201902"><ele>-11</ele><time>2022-06-19T09:02:09.000Z</time></trkpt><trkpt lon="5.929993" lat="51.201833"><ele>-11</ele><time>2022-06-19T09:02:10.000Z</time></trkpt><trkpt lon="5.929925" lat="51.201765"><ele>-11</ele><time>2022-06-19T09:02:11.000Z</time></trkpt><trkpt lon="5.929854" lat="51.201693"><ele>-11.2</ele><time>2022-06-19T09:02:12.000Z</time></trkpt><trkpt lon="5.929787" lat="51.201629"><ele>-11.2</ele><time>2022-06-19T09:02:13.000Z</time></trkpt><trkpt lon="5.929708" lat="51.201561"><ele>-11.2</ele><time>2022-06-19T09:02:14.000Z</time></trkpt><trkpt lon="5.929632" lat="51.20149"><ele>-11</ele><time>2022-06-19T09:02:15.000Z</time></trkpt><trkpt lon="5.929566" lat="51.201426"><ele>-11</ele><time>2022-06-19T09:02:16.000Z</time></trkpt><trkpt lon="5.929498" lat="51.201364"><ele>-11</ele><time>2022-06-19T09:02:17.000Z</time></trkpt><trkpt lon="5.929432" lat="51.201296"><ele>-11</ele><time>2022-06-19T09:02:18.000Z</time></trkpt><trkpt lon="5.929364" lat="51.201234"><ele>-11</ele><time>2022-06-19T09:02:19.000Z</time></trkpt><trkpt lon="5.929292" lat="51.201168"><ele>-11</ele><time>2022-06-19T09:02:20.000Z</time></trkpt><trkpt lon="5.929217" lat="51.201105"><ele>-11</ele><time>2022-06-19T09:02:21.000Z</time></trkpt><trkpt lon="5.929143" lat="51.201041"><ele>-11.2</ele><time>2022-06-19T09:02:22.000Z</time></trkpt><trkpt lon="5.929068" lat="51.200976"><ele>-11.2</ele><time>2022-06-19T09:02:23.000Z</time></trkpt><trkpt lon="5.928993" lat="51.200915"><ele>-11.2</ele><time>2022-06-19T09:02:24.000Z</time></trkpt><trkpt lon="5.928917" lat="51.200849"><ele>-11.2</ele><time>2022-06-19T09:02:25.000Z</time></trkpt><trkpt lon="5.928844" lat="51.200778"><ele>-11</ele><time>2022-06-19T09:02:26.000Z</time></trkpt><trkpt lon="5.928762" lat="51.200712"><ele>-11</ele><time>2022-06-19T09:02:27.000Z</time></trkpt><trkpt lon="5.928689" lat="51.200655"><ele>-11</ele><time>2022-06-19T09:02:28.000Z</time></trkpt><trkpt lon="5.928613" lat="51.200593"><ele>-10.8</ele><time>2022-06-19T09:02:29.000Z</time></trkpt><trkpt lon="5.928547" lat="51.200534"><ele>-10.8</ele><time>2022-06-19T09:02:30.000Z</time></trkpt><trkpt lon="5.928471" lat="51.200467"><ele>-10.8</ele><time>2022-06-19T09:02:31.000Z</time></trkpt><trkpt lon="5.928406" lat="51.200404"><ele>-10.8</ele><time>2022-06-19T09:02:32.000Z</time></trkpt><trkpt lon="5.928337" lat="51.200338"><ele>-10.8</ele><time>2022-06-19T09:02:33.000Z</time></trkpt><trkpt lon="5.928269" lat="51.200275"><ele>-10.8</ele><time>2022-06-19T09:02:34.000Z</time></trkpt><trkpt lon="5.928196" lat="51.200212"><ele>-10.6</ele><time>2022-06-19T09:02:35.000Z</time></trkpt><trkpt lon="5.928127" lat="51.200151"><ele>-10.6</ele><time>2022-06-19T09:02:36.000Z</time></trkpt><trkpt lon="5.92806" lat="51.20009"><ele>-10.6</ele><time>2022-06-19T09:02:37.000Z</time></trkpt><trkpt lon="5.928004" lat="51.200036"><ele>-10.6</ele><time>2022-06-19T09:02:38.000Z</time></trkpt><trkpt lon="5.927935" lat="51.199968"><ele>-10.6</ele><time>2022-06-19T09:02:39.000Z</time></trkpt><trkpt lon="5.927873" lat="51.199903"><ele>-10.4</ele><time>2022-06-19T09:02:40.000Z</time></trkpt><trkpt lon="5.92781" lat="51.199838"><ele>-10.4</ele><time>2022-06-19T09:02:41.000Z</time></trkpt><trkpt lon="5.927749" lat="51.19978"><ele>-10.4</ele><time>2022-06-19T09:02:42.000Z</time></trkpt><trkpt lon="5.927693" lat="51.199714"><ele>-10.4</ele><time>2022-06-19T09:02:43.000Z</time></trkpt><trkpt lon="5.927637" lat="51.199648"><ele>-10.4</ele><time>2022-06-19T09:02:44.000Z</time></trkpt><trkpt lon="5.927582" lat="51.199576"><ele>-10.4</ele><time>2022-06-19T09:02:45.000Z</time></trkpt><trkpt lon="5.927523" lat="51.199506"><ele>-10.6</ele><time>2022-06-19T09:02:46.000Z</time></trkpt><trkpt lon="5.927465" lat="51.199434"><ele>-10.6</ele><time>2022-06-19T09:02:47.000Z</time></trkpt><trkpt lon="5.92741" lat="51.199363"><ele>-10.6</ele><time>2022-06-19T09:02:48.000Z</time></trkpt><trkpt lon="5.927355" lat="51.199289"><ele>-10.6</ele><time>2022-06-19T09:02:49.000Z</time></trkpt><trkpt lon="5.927303" lat="51.199227"><ele>-10.6</ele><time>2022-06-19T09:02:50.000Z</time></trkpt><trkpt lon="5.927244" lat="51.199152"><ele>-10.6</ele><time>2022-06-19T09:02:51.000Z</time></trkpt><trkpt lon="5.927187" lat="51.19908"><ele>-10.6</ele><time>2022-06-19T09:02:52.000Z</time></trkpt><trkpt lon="5.927132" lat="51.199014"><ele>-10.6</ele><time>2022-06-19T09:02:53.000Z</time></trkpt><trkpt lon="5.927077" lat="51.198944"><ele>-10.6</ele><time>2022-06-19T09:02:54.000Z</time></trkpt><trkpt lon="5.92702" lat="51.198874"><ele>-10.6</ele><time>2022-06-19T09:02:55.000Z</time></trkpt><trkpt lon="5.926968" lat="51.198803"><ele>-10.6</ele><time>2022-06-19T09:02:56.000Z</time></trkpt><trkpt lon="5.92691" lat="51.198736"><ele>-10.6</ele><time>2022-06-19T09:02:57.000Z</time></trkpt><trkpt lon="5.926858" lat="51.198667"><ele>-10.6</ele><time>2022-06-19T09:02:58.000Z</time></trkpt><trkpt lon="5.926805" lat="51.1986"><ele>-10.6</ele><time>2022-06-19T09:02:59.000Z</time></trkpt><trkpt lon="5.926753" lat="51.198532"><ele>-10.6</ele><time>2022-06-19T09:03:00.000Z</time></trkpt><trkpt lon="5.926694" lat="51.198462"><ele>-10.6</ele><time>2022-06-19T09:03:01.000Z</time></trkpt><trkpt lon="5.926637" lat="51.198394"><ele>-10.6</ele><time>2022-06-19T09:03:02.000Z</time></trkpt><trkpt lon="5.926586" lat="51.198333"><ele>-10.6</ele><time>2022-06-19T09:03:03.000Z</time></trkpt><trkpt lon="5.926521" lat="51.198253"><ele>-10.8</ele><time>2022-06-19T09:03:04.000Z</time></trkpt><trkpt lon="5.926465" lat="51.198185"><ele>-10.8</ele><time>2022-06-19T09:03:05.000Z</time></trkpt><trkpt lon="5.92641" lat="51.198108"><ele>-10.6</ele><time>2022-06-19T09:03:06.000Z</time></trkpt><trkpt lon="5.926356" lat="51.198034"><ele>-10.6</ele><time>2022-06-19T09:03:07.000Z</time></trkpt><trkpt lon="5.926302" lat="51.197962"><ele>-10.6</ele><time>2022-06-19T09:03:08.000Z</time></trkpt><trkpt lon="5.926252" lat="51.19789"><ele>-10.6</ele><time>2022-06-19T09:03:09.000Z</time></trkpt><trkpt lon="5.926201" lat="51.197819"><ele>-10.6</ele><time>2022-06-19T09:03:10.000Z</time></trkpt><trkpt lon="5.92615" lat="51.197745"><ele>-10.6</ele><time>2022-06-19T09:03:11.000Z</time></trkpt><trkpt lon="5.9261" lat="51.197676"><ele>-10.6</ele><time>2022-06-19T09:03:12.000Z</time></trkpt><trkpt lon="5.926046" lat="51.197603"><ele>-10.4</ele><time>2022-06-19T09:03:13.000Z</time></trkpt><trkpt lon="5.925996" lat="51.197536"><ele>-10.4</ele><time>2022-06-19T09:03:14.000Z</time></trkpt><trkpt lon="5.925945" lat="51.197462"><ele>-10.4</ele><time>2022-06-19T09:03:15.000Z</time></trkpt><trkpt lon="5.925895" lat="51.19739"><ele>-10.4</ele><time>2022-06-19T09:03:16.000Z</time></trkpt><trkpt lon="5.925845" lat="51.197317"><ele>-10.2</ele><time>2022-06-19T09:03:17.000Z</time></trkpt><trkpt lon="5.925797" lat="51.197249"><ele>-10.2</ele><time>2022-06-19T09:03:18.000Z</time></trkpt><trkpt lon="5.925749" lat="51.19718"><ele>-10.2</ele><time>2022-06-19T09:03:19.000Z</time></trkpt><trkpt lon="5.925704" lat="51.19711"><ele>-10.2</ele><time>2022-06-19T09:03:20.000Z</time></trkpt><trkpt lon="5.925652" lat="51.197035"><ele>-10</ele><time>2022-06-19T09:03:21.000Z</time></trkpt><trkpt lon="5.925599" lat="51.196963"><ele>-10</ele><time>2022-06-19T09:03:22.000Z</time></trkpt><trkpt lon="5.925552" lat="51.196891"><ele>-10</ele><time>2022-06-19T09:03:23.000Z</time></trkpt><trkpt lon="5.925504" lat="51.196819"><ele>-10</ele><time>2022-06-19T09:03:24.000Z</time></trkpt><trkpt lon="5.925457" lat="51.196745"><ele>-10</ele><time>2022-06-19T09:03:25.000Z</time></trkpt><trkpt lon="5.925407" lat="51.19667"><ele>-10</ele><time>2022-06-19T09:03:26.000Z</time></trkpt><trkpt lon="5.925357" lat="51.196597"><ele>-10.2</ele><time>2022-06-19T09:03:27.000Z</time></trkpt><trkpt lon="5.925309" lat="51.196525"><ele>-10.2</ele><time>2022-06-19T09:03:28.000Z</time></trkpt><trkpt lon="5.925258" lat="51.196454"><ele>-10.2</ele><time>2022-06-19T09:03:29.000Z</time></trkpt><trkpt lon="5.925219" lat="51.196397"><ele>-10.2</ele><time>2022-06-19T09:03:30.000Z</time></trkpt><trkpt lon="5.925154" lat="51.196308"><ele>-10.2</ele><time>2022-06-19T09:03:31.000Z</time></trkpt><trkpt lon="5.925103" lat="51.196234"><ele>-10.2</ele><time>2022-06-19T09:03:32.000Z</time></trkpt><trkpt lon="5.925053" lat="51.196157"><ele>-10.2</ele><time>2022-06-19T09:03:33.000Z</time></trkpt><trkpt lon="5.925003" lat="51.196085"><ele>-10.2</ele><time>2022-06-19T09:03:34.000Z</time></trkpt><trkpt lon="5.924953" lat="51.196009"><ele>-10.2</ele><time>2022-06-19T09:03:35.000Z</time></trkpt><trkpt lon="5.924904" lat="51.195934"><ele>-10.2</ele><time>2022-06-19T09:03:36.000Z</time></trkpt><trkpt lon="5.924853" lat="51.19586"><ele>-10.2</ele><time>2022-06-19T09:03:37.000Z</time></trkpt><trkpt lon="5.924803" lat="51.195784"><ele>-10.2</ele><time>2022-06-19T09:03:38.000Z</time></trkpt><trkpt lon="5.924754" lat="51.195707"><ele>-10.2</ele><time>2022-06-19T09:03:39.000Z</time></trkpt><trkpt lon="5.924703" lat="51.195635"><ele>-10.2</ele><time>2022-06-19T09:03:40.000Z</time></trkpt><trkpt lon="5.924653" lat="51.195558"><ele>-10.2</ele><time>2022-06-19T09:03:41.000Z</time></trkpt><trkpt lon="5.924601" lat="51.195486"><ele>-10.2</ele><time>2022-06-19T09:03:42.000Z</time></trkpt><trkpt lon="5.924552" lat="51.195411"><ele>-10</ele><time>2022-06-19T09:03:43.000Z</time></trkpt><trkpt lon="5.9245" lat="51.195334"><ele>-10</ele><time>2022-06-19T09:03:44.000Z</time></trkpt><trkpt lon="5.924448" lat="51.195261"><ele>-10</ele><time>2022-06-19T09:03:45.000Z</time></trkpt><trkpt lon="5.924396" lat="51.195186"><ele>-10</ele><time>2022-06-19T09:03:46.000Z</time></trkpt><trkpt lon="5.924341" lat="51.195108"><ele>-10</ele><time>2022-06-19T09:03:47.000Z</time></trkpt><trkpt lon="5.924288" lat="51.195039"><ele>-10</ele><time>2022-06-19T09:03:48.000Z</time></trkpt><trkpt lon="5.924228" lat="51.194964"><ele>-10</ele><time>2022-06-19T09:03:49.000Z</time></trkpt><trkpt lon="5.92417" lat="51.194887"><ele>-10</ele><time>2022-06-19T09:03:50.000Z</time></trkpt><trkpt lon="5.924112" lat="51.194819"><ele>-10.2</ele><time>2022-06-19T09:03:51.000Z</time></trkpt><trkpt lon="5.924054" lat="51.194744"><ele>-10.2</ele><time>2022-06-19T09:03:52.000Z</time></trkpt><trkpt lon="5.923998" lat="51.194675"><ele>-10.2</ele><time>2022-06-19T09:03:53.000Z</time></trkpt><trkpt lon="5.923938" lat="51.194597"><ele>-10</ele><time>2022-06-19T09:03:54.000Z</time></trkpt><trkpt lon="5.92388" lat="51.194525"><ele>-10.2</ele><time>2022-06-19T09:03:55.000Z</time></trkpt><trkpt lon="5.92382" lat="51.194456"><ele>-10.2</ele><time>2022-06-19T09:03:56.000Z</time></trkpt><trkpt lon="5.923758" lat="51.194384"><ele>-10.2</ele><time>2022-06-19T09:03:57.000Z</time></trkpt><trkpt lon="5.923696" lat="51.194316"><ele>-10.2</ele><time>2022-06-19T09:03:58.000Z</time></trkpt><trkpt lon="5.923633" lat="51.194244"><ele>-10.2</ele><time>2022-06-19T09:03:59.000Z</time></trkpt><trkpt lon="5.923571" lat="51.194175"><ele>-10.2</ele><time>2022-06-19T09:04:00.000Z</time></trkpt><trkpt lon="5.923504" lat="51.194102"><ele>-10.2</ele><time>2022-06-19T09:04:01.000Z</time></trkpt><trkpt lon="5.923437" lat="51.194033"><ele>-10.4</ele><time>2022-06-19T09:04:02.000Z</time></trkpt><trkpt lon="5.923371" lat="51.193964"><ele>-10.4</ele><time>2022-06-19T09:04:03.000Z</time></trkpt><trkpt lon="5.923301" lat="51.193895"><ele>-10.2</ele><time>2022-06-19T09:04:04.000Z</time></trkpt><trkpt lon="5.923234" lat="51.193827"><ele>-10.4</ele><time>2022-06-19T09:04:05.000Z</time></trkpt><trkpt lon="5.923166" lat="51.193762"><ele>-10.4</ele><time>2022-06-19T09:04:06.000Z</time></trkpt><trkpt lon="5.923096" lat="51.193694"><ele>-10.4</ele><time>2022-06-19T09:04:07.000Z</time></trkpt><trkpt lon="5.923024" lat="51.193628"><ele>-10.4</ele><time>2022-06-19T09:04:08.000Z</time></trkpt><trkpt lon="5.92295" lat="51.193559"><ele>-10.4</ele><time>2022-06-19T09:04:09.000Z</time></trkpt><trkpt lon="5.92288" lat="51.193498"><ele>-10.4</ele><time>2022-06-19T09:04:10.000Z</time></trkpt><trkpt lon="5.9228" lat="51.19343"><ele>-10.2</ele><time>2022-06-19T09:04:11.000Z</time></trkpt><trkpt lon="5.922727" lat="51.193365"><ele>-10.2</ele><time>2022-06-19T09:04:12.000Z</time></trkpt><trkpt lon="5.922651" lat="51.193304"><ele>-10.2</ele><time>2022-06-19T09:04:13.000Z</time></trkpt><trkpt lon="5.922575" lat="51.193243"><ele>-10.2</ele><time>2022-06-19T09:04:14.000Z</time></trkpt><trkpt lon="5.922499" lat="51.193183"><ele>-10.4</ele><time>2022-06-19T09:04:15.000Z</time></trkpt><trkpt lon="5.92242" lat="51.193117"><ele>-10.2</ele><time>2022-06-19T09:04:16.000Z</time></trkpt><trkpt lon="5.922344" lat="51.19306"><ele>-10.2</ele><time>2022-06-19T09:04:17.000Z</time></trkpt><trkpt lon="5.922273" lat="51.193003"><ele>-10.2</ele><time>2022-06-19T09:04:18.000Z</time></trkpt><trkpt lon="5.922203" lat="51.192949"><ele>-10.2</ele><time>2022-06-19T09:04:19.000Z</time></trkpt><trkpt lon="5.922122" lat="51.192889"><ele>-10.2</ele><time>2022-06-19T09:04:20.000Z</time></trkpt><trkpt lon="5.922042" lat="51.192831"><ele>-10.2</ele><time>2022-06-19T09:04:21.000Z</time></trkpt><trkpt lon="5.92197" lat="51.192776"><ele>-10.2</ele><time>2022-06-19T09:04:22.000Z</time></trkpt><trkpt lon="5.921897" lat="51.192715"><ele>-10.4</ele><time>2022-06-19T09:04:23.000Z</time></trkpt><trkpt lon="5.921814" lat="51.192652"><ele>-10.4</ele><time>2022-06-19T09:04:24.000Z</time></trkpt><trkpt lon="5.92173" lat="51.192591"><ele>-10.2</ele><time>2022-06-19T09:04:25.000Z</time></trkpt><trkpt lon="5.921643" lat="51.192531"><ele>-10.2</ele><time>2022-06-19T09:04:26.000Z</time></trkpt><trkpt lon="5.921551" lat="51.192472"><ele>-10.2</ele><time>2022-06-19T09:04:27.000Z</time></trkpt><trkpt lon="5.921461" lat="51.192415"><ele>-10.2</ele><time>2022-06-19T09:04:28.000Z</time></trkpt><trkpt lon="5.921373" lat="51.192358"><ele>-10.2</ele><time>2022-06-19T09:04:29.000Z</time></trkpt><trkpt lon="5.921291" lat="51.192303"><ele>-10.2</ele><time>2022-06-19T09:04:30.000Z</time></trkpt><trkpt lon="5.921202" lat="51.192243"><ele>-10.2</ele><time>2022-06-19T09:04:31.000Z</time></trkpt><trkpt lon="5.921123" lat="51.19219"><ele>-10.2</ele><time>2022-06-19T09:04:32.000Z</time></trkpt><trkpt lon="5.921032" lat="51.19213"><ele>-10.2</ele><time>2022-06-19T09:04:33.000Z</time></trkpt><trkpt lon="5.920946" lat="51.192073"><ele>-10.2</ele><time>2022-06-19T09:04:34.000Z</time></trkpt><trkpt lon="5.920856" lat="51.192011"><ele>-10</ele><time>2022-06-19T09:04:35.000Z</time></trkpt><trkpt lon="5.92077" lat="51.191955"><ele>-10</ele><time>2022-06-19T09:04:36.000Z</time></trkpt><trkpt lon="5.920681" lat="51.1919"><ele>-10</ele><time>2022-06-19T09:04:37.000Z</time></trkpt><trkpt lon="5.920595" lat="51.191843"><ele>-10</ele><time>2022-06-19T09:04:38.000Z</time></trkpt><trkpt lon="5.92051" lat="51.19179"><ele>-10</ele><time>2022-06-19T09:04:39.000Z</time></trkpt><trkpt lon="5.920428" lat="51.191737"><ele>-9.8</ele><time>2022-06-19T09:04:40.000Z</time></trkpt><trkpt lon="5.920343" lat="51.191679"><ele>-9.8</ele><time>2022-06-19T09:04:41.000Z</time></trkpt><trkpt lon="5.920261" lat="51.191626"><ele>-9.8</ele><time>2022-06-19T09:04:42.000Z</time></trkpt><trkpt lon="5.920178" lat="51.19157"><ele>-9.6</ele><time>2022-06-19T09:04:43.000Z</time></trkpt><trkpt lon="5.920092" lat="51.191514"><ele>-9.6</ele><time>2022-06-19T09:04:44.000Z</time></trkpt><trkpt lon="5.920011" lat="51.191462"><ele>-9.4</ele><time>2022-06-19T09:04:45.000Z</time></trkpt><trkpt lon="5.919935" lat="51.191409"><ele>-9.4</ele><time>2022-06-19T09:04:46.000Z</time></trkpt><trkpt lon="5.919846" lat="51.191347"><ele>-9.4</ele><time>2022-06-19T09:04:47.000Z</time></trkpt><trkpt lon="5.919764" lat="51.191294"><ele>-9.4</ele><time>2022-06-19T09:04:48.000Z</time></trkpt><trkpt lon="5.919678" lat="51.191241"><ele>-9.2</ele><time>2022-06-19T09:04:49.000Z</time></trkpt><trkpt lon="5.919595" lat="51.191189"><ele>-9.2</ele><time>2022-06-19T09:04:50.000Z</time></trkpt><trkpt lon="5.919509" lat="51.191134"><ele>-9.2</ele><time>2022-06-19T09:04:51.000Z</time></trkpt><trkpt lon="5.919433" lat="51.191083"><ele>-9</ele><time>2022-06-19T09:04:52.000Z</time></trkpt><trkpt lon="5.91934" lat="51.191024"><ele>-9</ele><time>2022-06-19T09:04:53.000Z</time></trkpt><trkpt lon="5.919256" lat="51.190968"><ele>-8.8</ele><time>2022-06-19T09:04:54.000Z</time></trkpt><trkpt lon="5.919172" lat="51.190913"><ele>-8.8</ele><time>2022-06-19T09:04:55.000Z</time></trkpt><trkpt lon="5.919089" lat="51.190855"><ele>-8.6</ele><time>2022-06-19T09:04:56.000Z</time></trkpt><trkpt lon="5.919006" lat="51.190805"><ele>-8.6</ele><time>2022-06-19T09:04:57.000Z</time></trkpt><trkpt lon="5.918925" lat="51.19075"><ele>-8.4</ele><time>2022-06-19T09:04:58.000Z</time></trkpt><trkpt lon="5.918841" lat="51.190694"><ele>-8.4</ele><time>2022-06-19T09:04:59.000Z</time></trkpt><trkpt lon="5.918762" lat="51.190643"><ele>-8.2</ele><time>2022-06-19T09:05:00.000Z</time></trkpt><trkpt lon="5.918677" lat="51.190588"><ele>-8.2</ele><time>2022-06-19T09:05:01.000Z</time></trkpt><trkpt lon="5.918593" lat="51.190538"><ele>-8</ele><time>2022-06-19T09:05:02.000Z</time></trkpt><trkpt lon="5.918511" lat="51.190485"><ele>-7.8</ele><time>2022-06-19T09:05:03.000Z</time></trkpt><trkpt lon="5.918431" lat="51.190438"><ele>-7.6</ele><time>2022-06-19T09:05:04.000Z</time></trkpt><trkpt lon="5.918346" lat="51.190378"><ele>-7.4</ele><time>2022-06-19T09:05:05.000Z</time></trkpt><trkpt lon="5.918273" lat="51.190319"><ele>-7.2</ele><time>2022-06-19T09:05:06.000Z</time></trkpt><trkpt lon="5.9182" lat="51.190256"><ele>-7</ele><time>2022-06-19T09:05:07.000Z</time></trkpt><trkpt lon="5.918138" lat="51.190198"><ele>-6.8</ele><time>2022-06-19T09:05:08.000Z</time></trkpt><trkpt lon="5.918074" lat="51.19014"><ele>-6.6</ele><time>2022-06-19T09:05:09.000Z</time></trkpt><trkpt lon="5.918011" lat="51.190083"><ele>-6.4</ele><time>2022-06-19T09:05:10.000Z</time></trkpt><trkpt lon="5.917948" lat="51.190025"><ele>-6.2</ele><time>2022-06-19T09:05:11.000Z</time></trkpt><trkpt lon="5.917891" lat="51.189971"><ele>-6.2</ele><time>2022-06-19T09:05:12.000Z</time></trkpt><trkpt lon="5.917824" lat="51.18991"><ele>-6</ele><time>2022-06-19T09:05:13.000Z</time></trkpt><trkpt lon="5.917763" lat="51.189856"><ele>-5.8</ele><time>2022-06-19T09:05:14.000Z</time></trkpt><trkpt lon="5.917697" lat="51.189798"><ele>-5.8</ele><time>2022-06-19T09:05:15.000Z</time></trkpt><trkpt lon="5.917638" lat="51.189747"><ele>-5.8</ele><time>2022-06-19T09:05:16.000Z</time></trkpt><trkpt lon="5.917576" lat="51.189692"><ele>-5.6</ele><time>2022-06-19T09:05:17.000Z</time></trkpt><trkpt lon="5.91752" lat="51.189641"><ele>-5.4</ele><time>2022-06-19T09:05:18.000Z</time></trkpt><trkpt lon="5.917456" lat="51.189585"><ele>-5.4</ele><time>2022-06-19T09:05:19.000Z</time></trkpt><trkpt lon="5.917403" lat="51.189537"><ele>-5.4</ele><time>2022-06-19T09:05:20.000Z</time></trkpt><trkpt lon="5.917342" lat="51.189482"><ele>-5.2</ele><time>2022-06-19T09:05:21.000Z</time></trkpt><trkpt lon="5.917292" lat="51.189435"><ele>-5.2</ele><time>2022-06-19T09:05:22.000Z</time></trkpt><trkpt lon="5.917233" lat="51.189397"><ele>-5.2</ele><time>2022-06-19T09:05:23.000Z</time></trkpt><trkpt lon="5.917176" lat="51.189368"><ele>-5</ele><time>2022-06-19T09:05:24.000Z</time></trkpt><trkpt lon="5.917107" lat="51.189354"><ele>-5.2</ele><time>2022-06-19T09:05:25.000Z</time></trkpt><trkpt lon="5.917041" lat="51.189358"><ele>-5.2</ele><time>2022-06-19T09:05:26.000Z</time></trkpt><trkpt lon="5.916979" lat="51.189379"><ele>-5.2</ele><time>2022-06-19T09:05:27.000Z</time></trkpt><trkpt lon="5.916897" lat="51.189418"><ele>-5.2</ele><time>2022-06-19T09:05:28.000Z</time></trkpt><trkpt lon="5.916813" lat="51.189469"><ele>-5.2</ele><time>2022-06-19T09:05:29.000Z</time></trkpt><trkpt lon="5.916739" lat="51.189516"><ele>-5.2</ele><time>2022-06-19T09:05:30.000Z</time></trkpt><trkpt lon="5.916641" lat="51.189586"><ele>-5</ele><time>2022-06-19T09:05:31.000Z</time></trkpt><trkpt lon="5.916553" lat="51.18965"><ele>-5</ele><time>2022-06-19T09:05:32.000Z</time></trkpt><trkpt lon="5.916478" lat="51.1897"><ele>-5</ele><time>2022-06-19T09:05:33.000Z</time></trkpt><trkpt lon="5.916383" lat="51.189768"><ele>-5</ele><time>2022-06-19T09:05:34.000Z</time></trkpt><trkpt lon="5.9163" lat="51.189824"><ele>-5</ele><time>2022-06-19T09:05:35.000Z</time></trkpt><trkpt lon="5.916216" lat="51.189881"><ele>-5</ele><time>2022-06-19T09:05:36.000Z</time></trkpt><trkpt lon="5.916138" lat="51.189935"><ele>-4.8</ele><time>2022-06-19T09:05:37.000Z</time></trkpt><trkpt lon="5.916055" lat="51.189992"><ele>-4.8</ele><time>2022-06-19T09:05:38.000Z</time></trkpt><trkpt lon="5.915977" lat="51.19004"><ele>-4.8</ele><time>2022-06-19T09:05:39.000Z</time></trkpt><trkpt lon="5.915893" lat="51.190092"><ele>-4.8</ele><time>2022-06-19T09:05:40.000Z</time></trkpt><trkpt lon="5.915815" lat="51.190143"><ele>-5</ele><time>2022-06-19T09:05:41.000Z</time></trkpt><trkpt lon="5.915728" lat="51.190194"><ele>-4.8</ele><time>2022-06-19T09:05:42.000Z</time></trkpt><trkpt lon="5.915648" lat="51.190245"><ele>-4.8</ele><time>2022-06-19T09:05:43.000Z</time></trkpt><trkpt lon="5.915559" lat="51.190298"><ele>-4.8</ele><time>2022-06-19T09:05:44.000Z</time></trkpt><trkpt lon="5.915483" lat="51.190344"><ele>-4.8</ele><time>2022-06-19T09:05:45.000Z</time></trkpt><trkpt lon="5.915398" lat="51.190396"><ele>-4.8</ele><time>2022-06-19T09:05:46.000Z</time></trkpt><trkpt lon="5.915318" lat="51.190445"><ele>-4.6</ele><time>2022-06-19T09:05:47.000Z</time></trkpt><trkpt lon="5.915233" lat="51.190496"><ele>-4.6</ele><time>2022-06-19T09:05:48.000Z</time></trkpt><trkpt lon="5.915158" lat="51.190546"><ele>-4.8</ele><time>2022-06-19T09:05:49.000Z</time></trkpt><trkpt lon="5.915069" lat="51.190602"><ele>-4.8</ele><time>2022-06-19T09:05:50.000Z</time></trkpt><trkpt lon="5.914984" lat="51.190654"><ele>-5</ele><time>2022-06-19T09:05:51.000Z</time></trkpt><trkpt lon="5.914896" lat="51.190707"><ele>-5</ele><time>2022-06-19T09:05:52.000Z</time></trkpt><trkpt lon="5.914811" lat="51.190755"><ele>-4.8</ele><time>2022-06-19T09:05:53.000Z</time></trkpt><trkpt lon="5.914709" lat="51.19081"><ele>-4.8</ele><time>2022-06-19T09:05:54.000Z</time></trkpt><trkpt lon="5.914618" lat="51.190858"><ele>-4.8</ele><time>2022-06-19T09:05:55.000Z</time></trkpt><trkpt lon="5.914526" lat="51.190905"><ele>-4.8</ele><time>2022-06-19T09:05:56.000Z</time></trkpt><trkpt lon="5.914445" lat="51.190947"><ele>-4.8</ele><time>2022-06-19T09:05:57.000Z</time></trkpt><trkpt lon="5.914349" lat="51.190993"><ele>-4.8</ele><time>2022-06-19T09:05:58.000Z</time></trkpt><trkpt lon="5.914266" lat="51.191033"><ele>-4.8</ele><time>2022-06-19T09:05:59.000Z</time></trkpt><trkpt lon="5.914176" lat="51.191076"><ele>-4.6</ele><time>2022-06-19T09:06:00.000Z</time></trkpt><trkpt lon="5.914091" lat="51.191117"><ele>-4.6</ele><time>2022-06-19T09:06:01.000Z</time></trkpt><trkpt lon="5.914006" lat="51.191158"><ele>-4.6</ele><time>2022-06-19T09:06:02.000Z</time></trkpt><trkpt lon="5.913916" lat="51.191196"><ele>-4.8</ele><time>2022-06-19T09:06:03.000Z</time></trkpt><trkpt lon="5.913815" lat="51.191237"><ele>-4.6</ele><time>2022-06-19T09:06:04.000Z</time></trkpt><trkpt lon="5.91373" lat="51.191269"><ele>-4.8</ele><time>2022-06-19T09:06:05.000Z</time></trkpt><trkpt lon="5.913637" lat="51.191309"><ele>-4.8</ele><time>2022-06-19T09:06:06.000Z</time></trkpt><trkpt lon="5.913556" lat="51.191348"><ele>-4.8</ele><time>2022-06-19T09:06:07.000Z</time></trkpt><trkpt lon="5.913459" lat="51.191397"><ele>-4.8</ele><time>2022-06-19T09:06:08.000Z</time></trkpt><trkpt lon="5.913375" lat="51.191438"><ele>-4.8</ele><time>2022-06-19T09:06:09.000Z</time></trkpt><trkpt lon="5.913273" lat="51.191487"><ele>-4.8</ele><time>2022-06-19T09:06:10.000Z</time></trkpt><trkpt lon="5.913179" lat="51.191529"><ele>-4.6</ele><time>2022-06-19T09:06:11.000Z</time></trkpt><trkpt lon="5.91308" lat="51.191576"><ele>-4.6</ele><time>2022-06-19T09:06:12.000Z</time></trkpt><trkpt lon="5.912991" lat="51.191612"><ele>-4.6</ele><time>2022-06-19T09:06:13.000Z</time></trkpt><trkpt lon="5.912887" lat="51.191656"><ele>-4.6</ele><time>2022-06-19T09:06:14.000Z</time></trkpt><trkpt lon="5.912793" lat="51.191697"><ele>-4.6</ele><time>2022-06-19T09:06:15.000Z</time></trkpt><trkpt lon="5.912694" lat="51.191747"><ele>-4.8</ele><time>2022-06-19T09:06:16.000Z</time></trkpt><trkpt lon="5.912602" lat="51.191791"><ele>-4.8</ele><time>2022-06-19T09:06:17.000Z</time></trkpt><trkpt lon="5.912502" lat="51.191839"><ele>-4.8</ele><time>2022-06-19T09:06:18.000Z</time></trkpt><trkpt lon="5.912414" lat="51.191882"><ele>-4.8</ele><time>2022-06-19T09:06:19.000Z</time></trkpt><trkpt lon="5.912313" lat="51.191923"><ele>-4.8</ele><time>2022-06-19T09:06:20.000Z</time></trkpt><trkpt lon="5.912222" lat="51.191963"><ele>-4.8</ele><time>2022-06-19T09:06:21.000Z</time></trkpt><trkpt lon="5.912125" lat="51.192003"><ele>-5</ele><time>2022-06-19T09:06:22.000Z</time></trkpt><trkpt lon="5.912037" lat="51.192042"><ele>-5</ele><time>2022-06-19T09:06:23.000Z</time></trkpt><trkpt lon="5.911938" lat="51.192086"><ele>-4.8</ele><time>2022-06-19T09:06:24.000Z</time></trkpt><trkpt lon="5.911858" lat="51.192127"><ele>-4.8</ele><time>2022-06-19T09:06:25.000Z</time></trkpt><trkpt lon="5.911762" lat="51.192178"><ele>-4.8</ele><time>2022-06-19T09:06:26.000Z</time></trkpt><trkpt lon="5.911672" lat="51.192223"><ele>-4.8</ele><time>2022-06-19T09:06:27.000Z</time></trkpt><trkpt lon="5.911582" lat="51.192267"><ele>-4.8</ele><time>2022-06-19T09:06:28.000Z</time></trkpt><trkpt lon="5.911492" lat="51.192307"><ele>-4.8</ele><time>2022-06-19T09:06:29.000Z</time></trkpt><trkpt lon="5.911402" lat="51.192348"><ele>-4.8</ele><time>2022-06-19T09:06:30.000Z</time></trkpt><trkpt lon="5.911316" lat="51.192386"><ele>-4.6</ele><time>2022-06-19T09:06:31.000Z</time></trkpt><trkpt lon="5.911231" lat="51.192431"><ele>-4.6</ele><time>2022-06-19T09:06:32.000Z</time></trkpt><trkpt lon="5.911156" lat="51.192477"><ele>-4.6</ele><time>2022-06-19T09:06:33.000Z</time></trkpt><trkpt lon="5.911095" lat="51.192525"><ele>-4.6</ele><time>2022-06-19T09:06:34.000Z</time></trkpt><trkpt lon="5.911041" lat="51.192579"><ele>-4.6</ele><time>2022-06-19T09:06:35.000Z</time></trkpt><trkpt lon="5.910993" lat="51.192622"><ele>-4.4</ele><time>2022-06-19T09:06:36.000Z</time></trkpt><trkpt lon="5.910943" lat="51.192664"><ele>-4.4</ele><time>2022-06-19T09:06:37.000Z</time></trkpt><trkpt lon="5.910886" lat="51.192699"><ele>-4.4</ele><time>2022-06-19T09:06:38.000Z</time></trkpt><trkpt lon="5.910823" lat="51.192724"><ele>-4.4</ele><time>2022-06-19T09:06:39.000Z</time></trkpt><trkpt lon="5.910748" lat="51.192744"><ele>-4.4</ele><time>2022-06-19T09:06:40.000Z</time></trkpt><trkpt lon="5.910663" lat="51.192764"><ele>-4.4</ele><time>2022-06-19T09:06:41.000Z</time></trkpt><trkpt lon="5.910582" lat="51.192794"><ele>-4.4</ele><time>2022-06-19T09:06:42.000Z</time></trkpt><trkpt lon="5.910493" lat="51.192828"><ele>-4.4</ele><time>2022-06-19T09:06:43.000Z</time></trkpt><trkpt lon="5.91039" lat="51.192855"><ele>-4.4</ele><time>2022-06-19T09:06:44.000Z</time></trkpt><trkpt lon="5.910281" lat="51.192874"><ele>-4.4</ele><time>2022-06-19T09:06:45.000Z</time></trkpt><trkpt lon="5.910168" lat="51.192889"><ele>-4.2</ele><time>2022-06-19T09:06:46.000Z</time></trkpt><trkpt lon="5.910047" lat="51.192898"><ele>-4.2</ele><time>2022-06-19T09:06:47.000Z</time></trkpt><trkpt lon="5.909933" lat="51.192905"><ele>-4.2</ele><time>2022-06-19T09:06:48.000Z</time></trkpt><trkpt lon="5.909819" lat="51.192912"><ele>-4.2</ele><time>2022-06-19T09:06:49.000Z</time></trkpt><trkpt lon="5.909714" lat="51.19291"><ele>-4.2</ele><time>2022-06-19T09:06:50.000Z</time></trkpt><trkpt lon="5.909592" lat="51.192899"><ele>-4.2</ele><time>2022-06-19T09:06:51.000Z</time></trkpt><trkpt lon="5.909465" lat="51.192887"><ele>-4.4</ele><time>2022-06-19T09:06:52.000Z</time></trkpt><trkpt lon="5.909351" lat="51.192868"><ele>-4.4</ele><time>2022-06-19T09:06:53.000Z</time></trkpt><trkpt lon="5.909237" lat="51.192849"><ele>-4.4</ele><time>2022-06-19T09:06:54.000Z</time></trkpt><trkpt lon="5.90913" lat="51.192834"><ele>-4.4</ele><time>2022-06-19T09:06:55.000Z</time></trkpt><trkpt lon="5.90902" lat="51.192811"><ele>-4.4</ele><time>2022-06-19T09:06:56.000Z</time></trkpt><trkpt lon="5.908913" lat="51.192791"><ele>-4.6</ele><time>2022-06-19T09:06:57.000Z</time></trkpt><trkpt lon="5.908809" lat="51.192769"><ele>-4.6</ele><time>2022-06-19T09:06:58.000Z</time></trkpt><trkpt lon="5.908703" lat="51.19275"><ele>-4.6</ele><time>2022-06-19T09:06:59.000Z</time></trkpt><trkpt lon="5.908599" lat="51.192745"><ele>-4.8</ele><time>2022-06-19T09:07:00.000Z</time></trkpt><trkpt lon="5.908497" lat="51.192745"><ele>-4.8</ele><time>2022-06-19T09:07:01.000Z</time></trkpt><trkpt lon="5.908394" lat="51.192745"><ele>-4.8</ele><time>2022-06-19T09:07:02.000Z</time></trkpt><trkpt lon="5.908291" lat="51.192742"><ele>-4.8</ele><time>2022-06-19T09:07:03.000Z</time></trkpt><trkpt lon="5.908191" lat="51.192738"><ele>-4.8</ele><time>2022-06-19T09:07:04.000Z</time></trkpt><trkpt lon="5.908094" lat="51.192734"><ele>-5</ele><time>2022-06-19T09:07:05.000Z</time></trkpt><trkpt lon="5.908005" lat="51.192726"><ele>-4.8</ele><time>2022-06-19T09:07:06.000Z</time></trkpt><trkpt lon="5.907925" lat="51.192719"><ele>-4.8</ele><time>2022-06-19T09:07:07.000Z</time></trkpt><trkpt lon="5.907856" lat="51.192704"><ele>-4.8</ele><time>2022-06-19T09:07:08.000Z</time></trkpt><trkpt lon="5.907799" lat="51.192677"><ele>-4.8</ele><time>2022-06-19T09:07:09.000Z</time></trkpt><trkpt lon="5.907758" lat="51.19264"><ele>-4.8</ele><time>2022-06-19T09:07:10.000Z</time></trkpt><trkpt lon="5.907747" lat="51.192586"><ele>-4.8</ele><time>2022-06-19T09:07:11.000Z</time></trkpt><trkpt lon="5.907757" lat="51.192533"><ele>-4.8</ele><time>2022-06-19T09:07:12.000Z</time></trkpt><trkpt lon="5.907771" lat="51.192465"><ele>-4.8</ele><time>2022-06-19T09:07:13.000Z</time></trkpt><trkpt lon="5.907786" lat="51.192397"><ele>-4.8</ele><time>2022-06-19T09:07:14.000Z</time></trkpt><trkpt lon="5.907803" lat="51.192324"><ele>-5</ele><time>2022-06-19T09:07:15.000Z</time></trkpt><trkpt lon="5.907818" lat="51.192248"><ele>-5</ele><time>2022-06-19T09:07:16.000Z</time></trkpt><trkpt lon="5.907836" lat="51.192175"><ele>-5</ele><time>2022-06-19T09:07:17.000Z</time></trkpt><trkpt lon="5.907856" lat="51.192099"><ele>-5</ele><time>2022-06-19T09:07:18.000Z</time></trkpt><trkpt lon="5.907875" lat="51.192019"><ele>-5.2</ele><time>2022-06-19T09:07:19.000Z</time></trkpt><trkpt lon="5.907893" lat="51.191943"><ele>-5.2</ele><time>2022-06-19T09:07:20.000Z</time></trkpt><trkpt lon="5.907911" lat="51.191867"><ele>-5.2</ele><time>2022-06-19T09:07:21.000Z</time></trkpt><trkpt lon="5.907934" lat="51.191792"><ele>-5.2</ele><time>2022-06-19T09:07:22.000Z</time></trkpt><trkpt lon="5.907962" lat="51.191713"><ele>-5.4</ele><time>2022-06-19T09:07:23.000Z</time></trkpt><trkpt lon="5.907992" lat="51.191639"><ele>-5.4</ele><time>2022-06-19T09:07:24.000Z</time></trkpt><trkpt lon="5.908034" lat="51.191553"><ele>-5.4</ele><time>2022-06-19T09:07:25.000Z</time></trkpt><trkpt lon="5.90808" lat="51.191477"><ele>-5.4</ele><time>2022-06-19T09:07:26.000Z</time></trkpt><trkpt lon="5.908134" lat="51.191401"><ele>-5.4</ele><time>2022-06-19T09:07:27.000Z</time></trkpt><trkpt lon="5.908184" lat="51.191332"><ele>-5.4</ele><time>2022-06-19T09:07:28.000Z</time></trkpt><trkpt lon="5.908241" lat="51.19126"><ele>-5.4</ele><time>2022-06-19T09:07:29.000Z</time></trkpt><trkpt lon="5.908298" lat="51.191191"><ele>-5.4</ele><time>2022-06-19T09:07:30.000Z</time></trkpt><trkpt lon="5.908354" lat="51.191122"><ele>-5.4</ele><time>2022-06-19T09:07:31.000Z</time></trkpt><trkpt lon="5.908405" lat="51.191053"><ele>-5.4</ele><time>2022-06-19T09:07:32.000Z</time></trkpt><trkpt lon="5.90846" lat="51.190988"><ele>-5.2</ele><time>2022-06-19T09:07:33.000Z</time></trkpt><trkpt lon="5.908516" lat="51.190923"><ele>-5.2</ele><time>2022-06-19T09:07:34.000Z</time></trkpt><trkpt lon="5.908567" lat="51.190856"><ele>-5.2</ele><time>2022-06-19T09:07:35.000Z</time></trkpt><trkpt lon="5.908623" lat="51.190791"><ele>-5</ele><time>2022-06-19T09:07:36.000Z</time></trkpt><trkpt lon="5.908675" lat="51.190725"><ele>-5</ele><time>2022-06-19T09:07:37.000Z</time></trkpt><trkpt lon="5.908728" lat="51.190661"><ele>-5.2</ele><time>2022-06-19T09:07:38.000Z</time></trkpt><trkpt lon="5.908778" lat="51.1906"><ele>-5.2</ele><time>2022-06-19T09:07:39.000Z</time></trkpt><trkpt lon="5.908832" lat="51.190527"><ele>-5.2</ele><time>2022-06-19T09:07:40.000Z</time></trkpt><trkpt lon="5.908884" lat="51.190454"><ele>-5</ele><time>2022-06-19T09:07:41.000Z</time></trkpt><trkpt lon="5.908935" lat="51.190388"><ele>-5</ele><time>2022-06-19T09:07:42.000Z</time></trkpt><trkpt lon="5.908987" lat="51.190317"><ele>-5</ele><time>2022-06-19T09:07:43.000Z</time></trkpt><trkpt lon="5.909037" lat="51.190249"><ele>-5</ele><time>2022-06-19T09:07:44.000Z</time></trkpt><trkpt lon="5.909087" lat="51.19018"><ele>-4.8</ele><time>2022-06-19T09:07:45.000Z</time></trkpt><trkpt lon="5.909133" lat="51.190115"><ele>-4.8</ele><time>2022-06-19T09:07:46.000Z</time></trkpt><trkpt lon="5.909183" lat="51.19005"><ele>-4.8</ele><time>2022-06-19T09:07:47.000Z</time></trkpt><trkpt lon="5.909238" lat="51.189985"><ele>-4.8</ele><time>2022-06-19T09:07:48.000Z</time></trkpt><trkpt lon="5.909296" lat="51.189925"><ele>-4.6</ele><time>2022-06-19T09:07:49.000Z</time></trkpt><trkpt lon="5.90936" lat="51.18987"><ele>-4.6</ele><time>2022-06-19T09:07:50.000Z</time></trkpt><trkpt lon="5.909433" lat="51.189828"><ele>-4.8</ele><time>2022-06-19T09:07:51.000Z</time></trkpt><trkpt lon="5.909515" lat="51.18979"><ele>-4.8</ele><time>2022-06-19T09:07:52.000Z</time></trkpt><trkpt lon="5.909606" lat="51.18976"><ele>-4.8</ele><time>2022-06-19T09:07:53.000Z</time></trkpt><trkpt lon="5.90971" lat="51.189732"><ele>-4.8</ele><time>2022-06-19T09:07:54.000Z</time></trkpt><trkpt lon="5.909817" lat="51.189702"><ele>-4.8</ele><time>2022-06-19T09:07:55.000Z</time></trkpt><trkpt lon="5.909927" lat="51.189671"><ele>-5</ele><time>2022-06-19T09:07:56.000Z</time></trkpt><trkpt lon="5.910039" lat="51.189641"><ele>-5</ele><time>2022-06-19T09:07:57.000Z</time></trkpt><trkpt lon="5.910152" lat="51.189614"><ele>-5.2</ele><time>2022-06-19T09:07:58.000Z</time></trkpt><trkpt lon="5.910262" lat="51.189584"><ele>-5.4</ele><time>2022-06-19T09:07:59.000Z</time></trkpt><trkpt lon="5.910371" lat="51.189553"><ele>-5.6</ele><time>2022-06-19T09:08:00.000Z</time></trkpt><trkpt lon="5.910477" lat="51.189527"><ele>-5.8</ele><time>2022-06-19T09:08:01.000Z</time></trkpt><trkpt lon="5.910589" lat="51.189496"><ele>-6</ele><time>2022-06-19T09:08:02.000Z</time></trkpt><trkpt lon="5.91069" lat="51.189465"><ele>-6</ele><time>2022-06-19T09:08:03.000Z</time></trkpt><trkpt lon="5.910791" lat="51.189438"><ele>-6</ele><time>2022-06-19T09:08:04.000Z</time></trkpt><trkpt lon="5.910891" lat="51.189409"><ele>-6</ele><time>2022-06-19T09:08:05.000Z</time></trkpt><trkpt lon="5.910989" lat="51.189382"><ele>-6</ele><time>2022-06-19T09:08:06.000Z</time></trkpt><trkpt lon="5.911112" lat="51.189349"><ele>-6</ele><time>2022-06-19T09:08:07.000Z</time></trkpt><trkpt lon="5.911233" lat="51.189313"><ele>-6</ele><time>2022-06-19T09:08:08.000Z</time></trkpt><trkpt lon="5.911346" lat="51.189283"><ele>-6</ele><time>2022-06-19T09:08:09.000Z</time></trkpt><trkpt lon="5.911461" lat="51.189253"><ele>-6</ele><time>2022-06-19T09:08:10.000Z</time></trkpt><trkpt lon="5.911576" lat="51.189221"><ele>-6.2</ele><time>2022-06-19T09:08:11.000Z</time></trkpt><trkpt lon="5.911686" lat="51.189194"><ele>-6.2</ele><time>2022-06-19T09:08:12.000Z</time></trkpt><trkpt lon="5.91179" lat="51.189164"><ele>-6.2</ele><time>2022-06-19T09:08:13.000Z</time></trkpt><trkpt lon="5.911894" lat="51.189134"><ele>-6.2</ele><time>2022-06-19T09:08:14.000Z</time></trkpt><trkpt lon="5.911995" lat="51.189099"><ele>-6</ele><time>2022-06-19T09:08:15.000Z</time></trkpt><trkpt lon="5.912093" lat="51.189061"><ele>-6</ele><time>2022-06-19T09:08:16.000Z</time></trkpt><trkpt lon="5.912183" lat="51.18902"><ele>-6</ele><time>2022-06-19T09:08:17.000Z</time></trkpt><trkpt lon="5.912261" lat="51.188974"><ele>-6</ele><time>2022-06-19T09:08:18.000Z</time></trkpt><trkpt lon="5.912322" lat="51.188913"><ele>-6</ele><time>2022-06-19T09:08:19.000Z</time></trkpt><trkpt lon="5.912369" lat="51.188845"><ele>-6</ele><time>2022-06-19T09:08:20.000Z</time></trkpt><trkpt lon="5.912407" lat="51.188769"><ele>-6</ele><time>2022-06-19T09:08:21.000Z</time></trkpt><trkpt lon="5.912434" lat="51.188696"><ele>-5.8</ele><time>2022-06-19T09:08:22.000Z</time></trkpt><trkpt lon="5.912459" lat="51.188624"><ele>-5.8</ele><time>2022-06-19T09:08:23.000Z</time></trkpt><trkpt lon="5.912484" lat="51.188551"><ele>-5.8</ele><time>2022-06-19T09:08:24.000Z</time></trkpt><trkpt lon="5.912508" lat="51.188479"><ele>-5.8</ele><time>2022-06-19T09:08:25.000Z</time></trkpt><trkpt lon="5.912529" lat="51.188407"><ele>-5.6</ele><time>2022-06-19T09:08:26.000Z</time></trkpt><trkpt lon="5.912553" lat="51.188334"><ele>-5.6</ele><time>2022-06-19T09:08:27.000Z</time></trkpt><trkpt lon="5.912581" lat="51.188269"><ele>-5.4</ele><time>2022-06-19T09:08:28.000Z</time></trkpt><trkpt lon="5.912613" lat="51.188206"><ele>-5.4</ele><time>2022-06-19T09:08:29.000Z</time></trkpt><trkpt lon="5.912649" lat="51.188144"><ele>-5.4</ele><time>2022-06-19T09:08:30.000Z</time></trkpt><trkpt lon="5.91269" lat="51.188087"><ele>-5.2</ele><time>2022-06-19T09:08:31.000Z</time></trkpt><trkpt lon="5.912739" lat="51.188025"><ele>-5.2</ele><time>2022-06-19T09:08:32.000Z</time></trkpt><trkpt lon="5.912781" lat="51.187971"><ele>-5</ele><time>2022-06-19T09:08:33.000Z</time></trkpt><trkpt lon="5.912821" lat="51.187919"><ele>-5</ele><time>2022-06-19T09:08:34.000Z</time></trkpt><trkpt lon="5.912865" lat="51.18786"><ele>-4.8</ele><time>2022-06-19T09:08:35.000Z</time></trkpt><trkpt lon="5.912911" lat="51.187807"><ele>-4.8</ele><time>2022-06-19T09:08:36.000Z</time></trkpt><trkpt lon="5.912959" lat="51.187753"><ele>-4.8</ele><time>2022-06-19T09:08:37.000Z</time></trkpt><trkpt lon="5.913004" lat="51.1877"><ele>-4.8</ele><time>2022-06-19T09:08:38.000Z</time></trkpt><trkpt lon="5.913046" lat="51.187654"><ele>-4.8</ele><time>2022-06-19T09:08:39.000Z</time></trkpt><trkpt lon="5.913086" lat="51.187608"><ele>-4.6</ele><time>2022-06-19T09:08:40.000Z</time></trkpt><trkpt lon="5.913121" lat="51.18757"><ele>-4.6</ele><time>2022-06-19T09:08:41.000Z</time></trkpt><trkpt lon="5.913144" lat="51.187536"><ele>-4.6</ele><time>2022-06-19T09:08:42.000Z</time></trkpt><trkpt lon="5.913152" lat="51.187501"><ele>-4.8</ele><time>2022-06-19T09:08:43.000Z</time></trkpt><trkpt lon="5.913139" lat="51.18747"><ele>-4.8</ele><time>2022-06-19T09:08:44.000Z</time></trkpt><trkpt lon="5.913087" lat="51.187447"><ele>-5</ele><time>2022-06-19T09:08:45.000Z</time></trkpt><trkpt lon="5.91301" lat="51.187424"><ele>-5</ele><time>2022-06-19T09:08:46.000Z</time></trkpt><trkpt lon="5.912926" lat="51.187398"><ele>-5.2</ele><time>2022-06-19T09:08:47.000Z</time></trkpt><trkpt lon="5.912832" lat="51.187364"><ele>-5.2</ele><time>2022-06-19T09:08:48.000Z</time></trkpt><trkpt lon="5.912728" lat="51.187329"><ele>-5.2</ele><time>2022-06-19T09:08:49.000Z</time></trkpt><trkpt lon="5.912626" lat="51.187296"><ele>-5.2</ele><time>2022-06-19T09:08:50.000Z</time></trkpt><trkpt lon="5.912513" lat="51.187261"><ele>-5.2</ele><time>2022-06-19T09:08:51.000Z</time></trkpt><trkpt lon="5.912409" lat="51.187219"><ele>-5</ele><time>2022-06-19T09:08:52.000Z</time></trkpt><trkpt lon="5.912299" lat="51.187177"><ele>-5</ele><time>2022-06-19T09:08:53.000Z</time></trkpt><trkpt lon="5.912191" lat="51.187132"><ele>-5</ele><time>2022-06-19T09:08:54.000Z</time></trkpt><trkpt lon="5.912087" lat="51.187091"><ele>-5.2</ele><time>2022-06-19T09:08:55.000Z</time></trkpt><trkpt lon="5.911986" lat="51.187052"><ele>-5.2</ele><time>2022-06-19T09:08:56.000Z</time></trkpt><trkpt lon="5.911867" lat="51.187006"><ele>-5.2</ele><time>2022-06-19T09:08:57.000Z</time></trkpt><trkpt lon="5.911759" lat="51.18696"><ele>-5.2</ele><time>2022-06-19T09:08:58.000Z</time></trkpt><trkpt lon="5.911651" lat="51.186918"><ele>-5.2</ele><time>2022-06-19T09:08:59.000Z</time></trkpt><trkpt lon="5.911538" lat="51.186872"><ele>-5.2</ele><time>2022-06-19T09:09:00.000Z</time></trkpt><trkpt lon="5.911427" lat="51.18683"><ele>-5.2</ele><time>2022-06-19T09:09:01.000Z</time></trkpt><trkpt lon="5.911319" lat="51.186788"><ele>-5.4</ele><time>2022-06-19T09:09:02.000Z</time></trkpt><trkpt lon="5.911217" lat="51.186747"><ele>-5.4</ele><time>2022-06-19T09:09:03.000Z</time></trkpt><trkpt lon="5.911113" lat="51.186708"><ele>-5.6</ele><time>2022-06-19T09:09:04.000Z</time></trkpt><trkpt lon="5.91101" lat="51.18667"><ele>-5.6</ele><time>2022-06-19T09:09:05.000Z</time></trkpt><trkpt lon="5.910908" lat="51.186628"><ele>-5.8</ele><time>2022-06-19T09:09:06.000Z</time></trkpt><trkpt lon="5.910806" lat="51.186586"><ele>-5.8</ele><time>2022-06-19T09:09:07.000Z</time></trkpt><trkpt lon="5.910708" lat="51.18654"><ele>-5.8</ele><time>2022-06-19T09:09:08.000Z</time></trkpt><trkpt lon="5.910608" lat="51.186498"><ele>-5.8</ele><time>2022-06-19T09:09:09.000Z</time></trkpt><trkpt lon="5.910506" lat="51.186456"><ele>-5.8</ele><time>2022-06-19T09:09:10.000Z</time></trkpt><trkpt lon="5.91041" lat="51.186411"><ele>-5.8</ele><time>2022-06-19T09:09:11.000Z</time></trkpt><trkpt lon="5.910309" lat="51.186369"><ele>-5.8</ele><time>2022-06-19T09:09:12.000Z</time></trkpt><trkpt lon="5.910205" lat="51.186326"><ele>-5.8</ele><time>2022-06-19T09:09:13.000Z</time></trkpt><trkpt lon="5.910099" lat="51.186284"><ele>-5.8</ele><time>2022-06-19T09:09:14.000Z</time></trkpt><trkpt lon="5.909999" lat="51.186242"><ele>-5.8</ele><time>2022-06-19T09:09:15.000Z</time></trkpt><trkpt lon="5.909903" lat="51.186198"><ele>-6</ele><time>2022-06-19T09:09:16.000Z</time></trkpt><trkpt lon="5.909803" lat="51.186151"><ele>-6</ele><time>2022-06-19T09:09:17.000Z</time></trkpt><trkpt lon="5.909705" lat="51.186105"><ele>-6</ele><time>2022-06-19T09:09:18.000Z</time></trkpt><trkpt lon="5.909604" lat="51.186059"><ele>-6.2</ele><time>2022-06-19T09:09:19.000Z</time></trkpt><trkpt lon="5.909508" lat="51.186014"><ele>-6.2</ele><time>2022-06-19T09:09:20.000Z</time></trkpt><trkpt lon="5.909408" lat="51.185968"><ele>-6.2</ele><time>2022-06-19T09:09:21.000Z</time></trkpt><trkpt lon="5.909314" lat="51.185919"><ele>-6.4</ele><time>2022-06-19T09:09:22.000Z</time></trkpt><trkpt lon="5.909221" lat="51.185873"><ele>-6.4</ele><time>2022-06-19T09:09:23.000Z</time></trkpt><trkpt lon="5.909123" lat="51.185819"><ele>-6.4</ele><time>2022-06-19T09:09:24.000Z</time></trkpt><trkpt lon="5.90903" lat="51.18577"><ele>-6.2</ele><time>2022-06-19T09:09:25.000Z</time></trkpt><trkpt lon="5.908933" lat="51.185716"><ele>-6.4</ele><time>2022-06-19T09:09:26.000Z</time></trkpt><trkpt lon="5.90884" lat="51.185659"><ele>-6.2</ele><time>2022-06-19T09:09:27.000Z</time></trkpt><trkpt lon="5.908749" lat="51.185602"><ele>-6.2</ele><time>2022-06-19T09:09:28.000Z</time></trkpt><trkpt lon="5.90866" lat="51.185545"><ele>-6.4</ele><time>2022-06-19T09:09:29.000Z</time></trkpt><trkpt lon="5.908569" lat="51.185487"><ele>-6.4</ele><time>2022-06-19T09:09:30.000Z</time></trkpt><trkpt lon="5.908479" lat="51.185426"><ele>-6.4</ele><time>2022-06-19T09:09:31.000Z</time></trkpt><trkpt lon="5.908389" lat="51.185369"><ele>-6.4</ele><time>2022-06-19T09:09:32.000Z</time></trkpt><trkpt lon="5.908301" lat="51.185308"><ele>-6.4</ele><time>2022-06-19T09:09:33.000Z</time></trkpt><trkpt lon="5.908216" lat="51.185252"><ele>-6.4</ele><time>2022-06-19T09:09:34.000Z</time></trkpt><trkpt lon="5.908126" lat="51.185194"><ele>-6.6</ele><time>2022-06-19T09:09:35.000Z</time></trkpt><trkpt lon="5.908036" lat="51.185137"><ele>-6.6</ele><time>2022-06-19T09:09:36.000Z</time></trkpt><trkpt lon="5.907947" lat="51.185079"><ele>-6.6</ele><time>2022-06-19T09:09:37.000Z</time></trkpt><trkpt lon="5.907859" lat="51.185019"><ele>-6.6</ele><time>2022-06-19T09:09:38.000Z</time></trkpt><trkpt lon="5.907777" lat="51.184965"><ele>-6.6</ele><time>2022-06-19T09:09:39.000Z</time></trkpt><trkpt lon="5.907681" lat="51.184904"><ele>-6.6</ele><time>2022-06-19T09:09:40.000Z</time></trkpt><trkpt lon="5.907594" lat="51.184849"><ele>-6.8</ele><time>2022-06-19T09:09:41.000Z</time></trkpt><trkpt lon="5.907502" lat="51.18479"><ele>-6.8</ele><time>2022-06-19T09:09:42.000Z</time></trkpt><trkpt lon="5.907411" lat="51.184733"><ele>-6.8</ele><time>2022-06-19T09:09:43.000Z</time></trkpt><trkpt lon="5.907317" lat="51.184675"><ele>-6.8</ele><time>2022-06-19T09:09:44.000Z</time></trkpt><trkpt lon="5.907222" lat="51.184621"><ele>-6.8</ele><time>2022-06-19T09:09:45.000Z</time></trkpt><trkpt lon="5.907128" lat="51.184569"><ele>-6.8</ele><time>2022-06-19T09:09:46.000Z</time></trkpt><trkpt lon="5.907026" lat="51.184518"><ele>-7</ele><time>2022-06-19T09:09:47.000Z</time></trkpt><trkpt lon="5.906928" lat="51.184465"><ele>-7</ele><time>2022-06-19T09:09:48.000Z</time></trkpt><trkpt lon="5.906829" lat="51.184412"><ele>-7</ele><time>2022-06-19T09:09:49.000Z</time></trkpt><trkpt lon="5.90673" lat="51.184358"><ele>-7</ele><time>2022-06-19T09:09:50.000Z</time></trkpt><trkpt lon="5.906627" lat="51.184308"><ele>-7.2</ele><time>2022-06-19T09:09:51.000Z</time></trkpt><trkpt lon="5.906528" lat="51.184259"><ele>-7.2</ele><time>2022-06-19T09:09:52.000Z</time></trkpt><trkpt lon="5.90643" lat="51.184209"><ele>-7.2</ele><time>2022-06-19T09:09:53.000Z</time></trkpt><trkpt lon="5.906329" lat="51.184157"><ele>-7.2</ele><time>2022-06-19T09:09:54.000Z</time></trkpt><trkpt lon="5.90623" lat="51.184106"><ele>-7.2</ele><time>2022-06-19T09:09:55.000Z</time></trkpt><trkpt lon="5.906134" lat="51.184054"><ele>-7.4</ele><time>2022-06-19T09:09:56.000Z</time></trkpt><trkpt lon="5.906036" lat="51.184003"><ele>-7.4</ele><time>2022-06-19T09:09:57.000Z</time></trkpt><trkpt lon="5.905939" lat="51.183953"><ele>-7.4</ele><time>2022-06-19T09:09:58.000Z</time></trkpt><trkpt lon="5.905846" lat="51.183908"><ele>-7.4</ele><time>2022-06-19T09:09:59.000Z</time></trkpt><trkpt lon="5.905763" lat="51.183857"><ele>-7.4</ele><time>2022-06-19T09:10:00.000Z</time></trkpt><trkpt lon="5.905669" lat="51.183809"><ele>-7.6</ele><time>2022-06-19T09:10:01.000Z</time></trkpt><trkpt lon="5.905575" lat="51.183763"><ele>-7.6</ele><time>2022-06-19T09:10:02.000Z</time></trkpt><trkpt lon="5.905481" lat="51.183725"><ele>-7.6</ele><time>2022-06-19T09:10:03.000Z</time></trkpt><trkpt lon="5.90539" lat="51.183679"><ele>-7.4</ele><time>2022-06-19T09:10:04.000Z</time></trkpt><trkpt lon="5.9053" lat="51.183637"><ele>-7.4</ele><time>2022-06-19T09:10:05.000Z</time></trkpt><trkpt lon="5.905205" lat="51.183595"><ele>-7.4</ele><time>2022-06-19T09:10:06.000Z</time></trkpt><trkpt lon="5.905104" lat="51.18356"><ele>-7.4</ele><time>2022-06-19T09:10:07.000Z</time></trkpt><trkpt lon="5.905001" lat="51.183526"><ele>-7.6</ele><time>2022-06-19T09:10:08.000Z</time></trkpt><trkpt lon="5.904909" lat="51.183486"><ele>-7.6</ele><time>2022-06-19T09:10:09.000Z</time></trkpt><trkpt lon="5.90482" lat="51.183434"><ele>-7.6</ele><time>2022-06-19T09:10:10.000Z</time></trkpt><trkpt lon="5.904749" lat="51.183388"><ele>-7.6</ele><time>2022-06-19T09:10:11.000Z</time></trkpt><trkpt lon="5.904678" lat="51.183328"><ele>-7.6</ele><time>2022-06-19T09:10:12.000Z</time></trkpt><trkpt lon="5.904612" lat="51.183264"><ele>-7.6</ele><time>2022-06-19T09:10:13.000Z</time></trkpt><trkpt lon="5.904535" lat="51.183206"><ele>-7.8</ele><time>2022-06-19T09:10:14.000Z</time></trkpt><trkpt lon="5.904442" lat="51.183149"><ele>-8</ele><time>2022-06-19T09:10:15.000Z</time></trkpt><trkpt lon="5.904341" lat="51.183092"><ele>-8</ele><time>2022-06-19T09:10:16.000Z</time></trkpt><trkpt lon="5.904237" lat="51.183038"><ele>-8</ele><time>2022-06-19T09:10:17.000Z</time></trkpt><trkpt lon="5.904135" lat="51.182987"><ele>-8.2</ele><time>2022-06-19T09:10:18.000Z</time></trkpt><trkpt lon="5.904026" lat="51.182932"><ele>-8.2</ele><time>2022-06-19T09:10:19.000Z</time></trkpt><trkpt lon="5.90392" lat="51.182878"><ele>-8.2</ele><time>2022-06-19T09:10:20.000Z</time></trkpt><trkpt lon="5.903815" lat="51.182826"><ele>-8.4</ele><time>2022-06-19T09:10:21.000Z</time></trkpt><trkpt lon="5.903704" lat="51.182771"><ele>-8.4</ele><time>2022-06-19T09:10:22.000Z</time></trkpt><trkpt lon="5.903598" lat="51.182722"><ele>-8.4</ele><time>2022-06-19T09:10:23.000Z</time></trkpt><trkpt lon="5.903494" lat="51.182667"><ele>-8.6</ele><time>2022-06-19T09:10:24.000Z</time></trkpt><trkpt lon="5.903386" lat="51.182612"><ele>-8.6</ele><time>2022-06-19T09:10:25.000Z</time></trkpt><trkpt lon="5.903275" lat="51.182557"><ele>-8.6</ele><time>2022-06-19T09:10:26.000Z</time></trkpt><trkpt lon="5.903167" lat="51.182504"><ele>-8.6</ele><time>2022-06-19T09:10:27.000Z</time></trkpt><trkpt lon="5.90306" lat="51.182451"><ele>-8.8</ele><time>2022-06-19T09:10:28.000Z</time></trkpt><trkpt lon="5.902952" lat="51.182397"><ele>-8.8</ele><time>2022-06-19T09:10:29.000Z</time></trkpt><trkpt lon="5.902844" lat="51.182344"><ele>-8.8</ele><time>2022-06-19T09:10:30.000Z</time></trkpt><trkpt lon="5.902737" lat="51.182294"><ele>-8.8</ele><time>2022-06-19T09:10:31.000Z</time></trkpt><trkpt lon="5.902629" lat="51.182241"><ele>-9</ele><time>2022-06-19T09:10:32.000Z</time></trkpt><trkpt lon="5.902521" lat="51.182191"><ele>-9.2</ele><time>2022-06-19T09:10:33.000Z</time></trkpt><trkpt lon="5.90241" lat="51.182145"><ele>-9.2</ele><time>2022-06-19T09:10:34.000Z</time></trkpt><trkpt lon="5.902299" lat="51.1821"><ele>-9.2</ele><time>2022-06-19T09:10:35.000Z</time></trkpt><trkpt lon="5.902186" lat="51.182051"><ele>-9.4</ele><time>2022-06-19T09:10:36.000Z</time></trkpt><trkpt lon="5.902087" lat="51.182011"><ele>-9.4</ele><time>2022-06-19T09:10:37.000Z</time></trkpt><trkpt lon="5.901957" lat="51.181959"><ele>-9.4</ele><time>2022-06-19T09:10:38.000Z</time></trkpt><trkpt lon="5.901841" lat="51.181913"><ele>-9.6</ele><time>2022-06-19T09:10:39.000Z</time></trkpt><trkpt lon="5.901727" lat="51.181874"><ele>-9.6</ele><time>2022-06-19T09:10:40.000Z</time></trkpt><trkpt lon="5.901615" lat="51.181833"><ele>-9.6</ele><time>2022-06-19T09:10:41.000Z</time></trkpt><trkpt lon="5.901501" lat="51.181787"><ele>-9.6</ele><time>2022-06-19T09:10:42.000Z</time></trkpt><trkpt lon="5.901395" lat="51.181745"><ele>-9.8</ele><time>2022-06-19T09:10:43.000Z</time></trkpt><trkpt lon="5.901284" lat="51.181703"><ele>-9.6</ele><time>2022-06-19T09:10:44.000Z</time></trkpt><trkpt lon="5.901178" lat="51.181662"><ele>-9.6</ele><time>2022-06-19T09:10:45.000Z</time></trkpt><trkpt lon="5.901067" lat="51.181623"><ele>-9.6</ele><time>2022-06-19T09:10:46.000Z</time></trkpt><trkpt lon="5.900959" lat="51.181577"><ele>-9.4</ele><time>2022-06-19T09:10:47.000Z</time></trkpt><trkpt lon="5.900851" lat="51.181535"><ele>-9.2</ele><time>2022-06-19T09:10:48.000Z</time></trkpt><trkpt lon="5.900745" lat="51.181493"><ele>-9.2</ele><time>2022-06-19T09:10:49.000Z</time></trkpt><trkpt lon="5.90064" lat="51.181448"><ele>-9.2</ele><time>2022-06-19T09:10:50.000Z</time></trkpt><trkpt lon="5.900532" lat="51.181406"><ele>-9</ele><time>2022-06-19T09:10:51.000Z</time></trkpt><trkpt lon="5.900423" lat="51.18136"><ele>-9</ele><time>2022-06-19T09:10:52.000Z</time></trkpt><trkpt lon="5.900312" lat="51.181322"><ele>-8.8</ele><time>2022-06-19T09:10:53.000Z</time></trkpt><trkpt lon="5.900199" lat="51.18128"><ele>-8.8</ele><time>2022-06-19T09:10:54.000Z</time></trkpt><trkpt lon="5.900089" lat="51.181238"><ele>-8.6</ele><time>2022-06-19T09:10:55.000Z</time></trkpt><trkpt lon="5.89998" lat="51.181193"><ele>-8.6</ele><time>2022-06-19T09:10:56.000Z</time></trkpt><trkpt lon="5.89987" lat="51.18115"><ele>-8.6</ele><time>2022-06-19T09:10:57.000Z</time></trkpt><trkpt lon="5.899758" lat="51.181108"><ele>-8.6</ele><time>2022-06-19T09:10:58.000Z</time></trkpt><trkpt lon="5.89965" lat="51.181071"><ele>-8.6</ele><time>2022-06-19T09:10:59.000Z</time></trkpt><trkpt lon="5.89953" lat="51.181028"><ele>-8.6</ele><time>2022-06-19T09:11:00.000Z</time></trkpt><trkpt lon="5.899417" lat="51.180994"><ele>-8.4</ele><time>2022-06-19T09:11:01.000Z</time></trkpt><trkpt lon="5.899295" lat="51.180959"><ele>-8.4</ele><time>2022-06-19T09:11:02.000Z</time></trkpt><trkpt lon="5.899177" lat="51.180925"><ele>-8.4</ele><time>2022-06-19T09:11:03.000Z</time></trkpt><trkpt lon="5.899064" lat="51.180891"><ele>-8.4</ele><time>2022-06-19T09:11:04.000Z</time></trkpt><trkpt lon="5.898949" lat="51.180856"><ele>-8.4</ele><time>2022-06-19T09:11:05.000Z</time></trkpt><trkpt lon="5.898835" lat="51.180818"><ele>-8.4</ele><time>2022-06-19T09:11:06.000Z</time></trkpt><trkpt lon="5.898724" lat="51.180784"><ele>-8.4</ele><time>2022-06-19T09:11:07.000Z</time></trkpt><trkpt lon="5.898605" lat="51.180753"><ele>-8.4</ele><time>2022-06-19T09:11:08.000Z</time></trkpt><trkpt lon="5.89849" lat="51.180718"><ele>-8.4</ele><time>2022-06-19T09:11:09.000Z</time></trkpt><trkpt lon="5.898378" lat="51.180684"><ele>-8.4</ele><time>2022-06-19T09:11:10.000Z</time></trkpt><trkpt lon="5.898274" lat="51.180655"><ele>-8.4</ele><time>2022-06-19T09:11:11.000Z</time></trkpt><trkpt lon="5.898161" lat="51.180623"><ele>-8.4</ele><time>2022-06-19T09:11:12.000Z</time></trkpt><trkpt lon="5.898046" lat="51.180592"><ele>-8.6</ele><time>2022-06-19T09:11:13.000Z</time></trkpt><trkpt lon="5.897933" lat="51.180559"><ele>-8.6</ele><time>2022-06-19T09:11:14.000Z</time></trkpt><trkpt lon="5.897821" lat="51.180528"><ele>-8.6</ele><time>2022-06-19T09:11:15.000Z</time></trkpt><trkpt lon="5.897701" lat="51.18049"><ele>-8.6</ele><time>2022-06-19T09:11:16.000Z</time></trkpt><trkpt lon="5.897585" lat="51.180459"><ele>-8.8</ele><time>2022-06-19T09:11:17.000Z</time></trkpt><trkpt lon="5.897469" lat="51.180425"><ele>-8.6</ele><time>2022-06-19T09:11:18.000Z</time></trkpt><trkpt lon="5.897346" lat="51.180398"><ele>-8.6</ele><time>2022-06-19T09:11:19.000Z</time></trkpt><trkpt lon="5.897226" lat="51.180367"><ele>-8.6</ele><time>2022-06-19T09:11:20.000Z</time></trkpt><trkpt lon="5.897108" lat="51.180341"><ele>-8.6</ele><time>2022-06-19T09:11:21.000Z</time></trkpt><trkpt lon="5.896993" lat="51.180315"><ele>-8.8</ele><time>2022-06-19T09:11:22.000Z</time></trkpt><trkpt lon="5.896873" lat="51.180289"><ele>-8.6</ele><time>2022-06-19T09:11:23.000Z</time></trkpt><trkpt lon="5.896747" lat="51.180261"><ele>-8.6</ele><time>2022-06-19T09:11:24.000Z</time></trkpt><trkpt lon="5.896628" lat="51.180231"><ele>-8.6</ele><time>2022-06-19T09:11:25.000Z</time></trkpt><trkpt lon="5.896509" lat="51.180201"><ele>-8.6</ele><time>2022-06-19T09:11:26.000Z</time></trkpt><trkpt lon="5.896388" lat="51.18017"><ele>-8.8</ele><time>2022-06-19T09:11:27.000Z</time></trkpt><trkpt lon="5.896265" lat="51.180142"><ele>-8.8</ele><time>2022-06-19T09:11:28.000Z</time></trkpt><trkpt lon="5.896145" lat="51.180108"><ele>-8.8</ele><time>2022-06-19T09:11:29.000Z</time></trkpt><trkpt lon="5.896025" lat="51.180078"><ele>-8.8</ele><time>2022-06-19T09:11:30.000Z</time></trkpt><trkpt lon="5.895905" lat="51.180047"><ele>-8.8</ele><time>2022-06-19T09:11:31.000Z</time></trkpt><trkpt lon="5.895784" lat="51.180017"><ele>-9</ele><time>2022-06-19T09:11:32.000Z</time></trkpt><trkpt lon="5.895663" lat="51.179986"><ele>-9</ele><time>2022-06-19T09:11:33.000Z</time></trkpt><trkpt lon="5.895544" lat="51.17996"><ele>-9</ele><time>2022-06-19T09:11:34.000Z</time></trkpt><trkpt lon="5.895421" lat="51.179929"><ele>-9</ele><time>2022-06-19T09:11:35.000Z</time></trkpt><trkpt lon="5.895306" lat="51.179902"><ele>-9</ele><time>2022-06-19T09:11:36.000Z</time></trkpt><trkpt lon="5.895196" lat="51.179876"><ele>-9</ele><time>2022-06-19T09:11:37.000Z</time></trkpt><trkpt lon="5.895077" lat="51.179849"><ele>-9</ele><time>2022-06-19T09:11:38.000Z</time></trkpt><trkpt lon="5.89496" lat="51.179822"><ele>-9</ele><time>2022-06-19T09:11:39.000Z</time></trkpt><trkpt lon="5.894845" lat="51.179791"><ele>-9</ele><time>2022-06-19T09:11:40.000Z</time></trkpt><trkpt lon="5.89473" lat="51.179764"><ele>-9</ele><time>2022-06-19T09:11:41.000Z</time></trkpt><trkpt lon="5.894615" lat="51.179738"><ele>-9</ele><time>2022-06-19T09:11:42.000Z</time></trkpt><trkpt lon="5.894499" lat="51.179711"><ele>-9</ele><time>2022-06-19T09:11:43.000Z</time></trkpt><trkpt lon="5.894381" lat="51.179684"><ele>-9</ele><time>2022-06-19T09:11:44.000Z</time></trkpt><trkpt lon="5.894263" lat="51.179661"><ele>-9</ele><time>2022-06-19T09:11:45.000Z</time></trkpt><trkpt lon="5.894147" lat="51.179643"><ele>-9</ele><time>2022-06-19T09:11:46.000Z</time></trkpt><trkpt lon="5.894019" lat="51.179627"><ele>-9.2</ele><time>2022-06-19T09:11:47.000Z</time></trkpt><trkpt lon="5.893894" lat="51.179601"><ele>-9.2</ele><time>2022-06-19T09:11:48.000Z</time></trkpt><trkpt lon="5.893767" lat="51.179574"><ele>-9.2</ele><time>2022-06-19T09:11:49.000Z</time></trkpt><trkpt lon="5.893648" lat="51.179544"><ele>-9.2</ele><time>2022-06-19T09:11:50.000Z</time></trkpt><trkpt lon="5.89353" lat="51.17951"><ele>-9.2</ele><time>2022-06-19T09:11:51.000Z</time></trkpt><trkpt lon="5.893412" lat="51.179479"><ele>-9.2</ele><time>2022-06-19T09:11:52.000Z</time></trkpt><trkpt lon="5.893305" lat="51.17944"><ele>-9.2</ele><time>2022-06-19T09:11:53.000Z</time></trkpt><trkpt lon="5.8932" lat="51.1794"><ele>-9.2</ele><time>2022-06-19T09:11:54.000Z</time></trkpt><trkpt lon="5.893075" lat="51.179354"><ele>-9.2</ele><time>2022-06-19T09:11:55.000Z</time></trkpt><trkpt lon="5.892958" lat="51.179315"><ele>-9.2</ele><time>2022-06-19T09:11:56.000Z</time></trkpt><trkpt lon="5.892835" lat="51.17928"><ele>-9.2</ele><time>2022-06-19T09:11:57.000Z</time></trkpt><trkpt lon="5.892715" lat="51.179254"><ele>-9.2</ele><time>2022-06-19T09:11:58.000Z</time></trkpt><trkpt lon="5.892592" lat="51.179223"><ele>-9.2</ele><time>2022-06-19T09:11:59.000Z</time></trkpt><trkpt lon="5.892469" lat="51.179196"><ele>-9.4</ele><time>2022-06-19T09:12:00.000Z</time></trkpt><trkpt lon="5.892361" lat="51.179171"><ele>-9.4</ele><time>2022-06-19T09:12:01.000Z</time></trkpt><trkpt lon="5.892242" lat="51.17914"><ele>-9.6</ele><time>2022-06-19T09:12:02.000Z</time></trkpt><trkpt lon="5.892127" lat="51.179113"><ele>-9.6</ele><time>2022-06-19T09:12:03.000Z</time></trkpt><trkpt lon="5.892011" lat="51.179082"><ele>-9.6</ele><time>2022-06-19T09:12:04.000Z</time></trkpt><trkpt lon="5.8919" lat="51.179051"><ele>-9.6</ele><time>2022-06-19T09:12:05.000Z</time></trkpt><trkpt lon="5.891794" lat="51.179025"><ele>-9.6</ele><time>2022-06-19T09:12:06.000Z</time></trkpt><trkpt lon="5.891687" lat="51.178994"><ele>-9.6</ele><time>2022-06-19T09:12:07.000Z</time></trkpt><trkpt lon="5.891581" lat="51.178968"><ele>-9.6</ele><time>2022-06-19T09:12:08.000Z</time></trkpt><trkpt lon="5.891477" lat="51.178944"><ele>-9.6</ele><time>2022-06-19T09:12:09.000Z</time></trkpt><trkpt lon="5.891375" lat="51.178921"><ele>-9.8</ele><time>2022-06-19T09:12:10.000Z</time></trkpt><trkpt lon="5.891269" lat="51.178906"><ele>-9.8</ele><time>2022-06-19T09:12:11.000Z</time></trkpt><trkpt lon="5.891163" lat="51.178891"><ele>-9.8</ele><time>2022-06-19T09:12:12.000Z</time></trkpt><trkpt lon="5.891057" lat="51.178872"><ele>-9.8</ele><time>2022-06-19T09:12:13.000Z</time></trkpt><trkpt lon="5.890946" lat="51.178849"><ele>-9.8</ele><time>2022-06-19T09:12:14.000Z</time></trkpt><trkpt lon="5.890834" lat="51.178822"><ele>-9.8</ele><time>2022-06-19T09:12:15.000Z</time></trkpt><trkpt lon="5.890721" lat="51.178796"><ele>-9.8</ele><time>2022-06-19T09:12:16.000Z</time></trkpt><trkpt lon="5.890615" lat="51.178773"><ele>-9.8</ele><time>2022-06-19T09:12:17.000Z</time></trkpt><trkpt lon="5.890507" lat="51.17875"><ele>-9.8</ele><time>2022-06-19T09:12:18.000Z</time></trkpt><trkpt lon="5.890401" lat="51.178724"><ele>-10</ele><time>2022-06-19T09:12:19.000Z</time></trkpt><trkpt lon="5.890286" lat="51.178696"><ele>-10.2</ele><time>2022-06-19T09:12:20.000Z</time></trkpt><trkpt lon="5.890176" lat="51.17867"><ele>-10.2</ele><time>2022-06-19T09:12:21.000Z</time></trkpt><trkpt lon="5.890059" lat="51.178643"><ele>-10.2</ele><time>2022-06-19T09:12:22.000Z</time></trkpt><trkpt lon="5.889951" lat="51.178614"><ele>-10</ele><time>2022-06-19T09:12:23.000Z</time></trkpt><trkpt lon="5.889831" lat="51.178587"><ele>-10</ele><time>2022-06-19T09:12:24.000Z</time></trkpt><trkpt lon="5.889713" lat="51.178561"><ele>-10</ele><time>2022-06-19T09:12:25.000Z</time></trkpt><trkpt lon="5.889589" lat="51.178536"><ele>-10</ele><time>2022-06-19T09:12:26.000Z</time></trkpt><trkpt lon="5.88947" lat="51.178506"><ele>-10.2</ele><time>2022-06-19T09:12:27.000Z</time></trkpt><trkpt lon="5.889351" lat="51.178483"><ele>-10.2</ele><time>2022-06-19T09:12:28.000Z</time></trkpt><trkpt lon="5.889233" lat="51.17846"><ele>-10.2</ele><time>2022-06-19T09:12:29.000Z</time></trkpt><trkpt lon="5.889117" lat="51.178434"><ele>-10.2</ele><time>2022-06-19T09:12:30.000Z</time></trkpt><trkpt lon="5.888998" lat="51.17841"><ele>-10.2</ele><time>2022-06-19T09:12:31.000Z</time></trkpt><trkpt lon="5.888881" lat="51.178383"><ele>-10.2</ele><time>2022-06-19T09:12:32.000Z</time></trkpt><trkpt lon="5.888768" lat="51.178358"><ele>-10.4</ele><time>2022-06-19T09:12:33.000Z</time></trkpt><trkpt lon="5.888649" lat="51.17833"><ele>-10.4</ele><time>2022-06-19T09:12:34.000Z</time></trkpt><trkpt lon="5.888528" lat="51.178307"><ele>-10.4</ele><time>2022-06-19T09:12:35.000Z</time></trkpt><trkpt lon="5.888414" lat="51.178277"><ele>-10.4</ele><time>2022-06-19T09:12:36.000Z</time></trkpt><trkpt lon="5.888298" lat="51.17825"><ele>-10.4</ele><time>2022-06-19T09:12:37.000Z</time></trkpt><trkpt lon="5.888181" lat="51.178223"><ele>-10.4</ele><time>2022-06-19T09:12:38.000Z</time></trkpt><trkpt lon="5.888064" lat="51.178197"><ele>-10.2</ele><time>2022-06-19T09:12:39.000Z</time></trkpt><trkpt lon="5.887946" lat="51.17817"><ele>-10.4</ele><time>2022-06-19T09:12:40.000Z</time></trkpt><trkpt lon="5.887822" lat="51.178143"><ele>-10.6</ele><time>2022-06-19T09:12:41.000Z</time></trkpt><trkpt lon="5.887706" lat="51.178118"><ele>-11</ele><time>2022-06-19T09:12:42.000Z</time></trkpt><trkpt lon="5.887588" lat="51.178092"><ele>-11</ele><time>2022-06-19T09:12:43.000Z</time></trkpt><trkpt lon="5.887468" lat="51.178061"><ele>-11.2</ele><time>2022-06-19T09:12:44.000Z</time></trkpt><trkpt lon="5.887343" lat="51.178033"><ele>-11.2</ele><time>2022-06-19T09:12:45.000Z</time></trkpt><trkpt lon="5.887222" lat="51.178006"><ele>-11.4</ele><time>2022-06-19T09:12:46.000Z</time></trkpt><trkpt lon="5.887102" lat="51.177979"><ele>-11.4</ele><time>2022-06-19T09:12:47.000Z</time></trkpt><trkpt lon="5.886984" lat="51.177952"><ele>-11.4</ele><time>2022-06-19T09:12:48.000Z</time></trkpt><trkpt lon="5.886868" lat="51.177926"><ele>-11.4</ele><time>2022-06-19T09:12:49.000Z</time></trkpt><trkpt lon="5.886754" lat="51.177899"><ele>-11.4</ele><time>2022-06-19T09:12:50.000Z</time></trkpt><trkpt lon="5.886645" lat="51.177869"><ele>-11.4</ele><time>2022-06-19T09:12:51.000Z</time></trkpt><trkpt lon="5.886531" lat="51.177842"><ele>-11.2</ele><time>2022-06-19T09:12:52.000Z</time></trkpt><trkpt lon="5.886419" lat="51.177815"><ele>-11.2</ele><time>2022-06-19T09:12:53.000Z</time></trkpt><trkpt lon="5.886302" lat="51.177789"><ele>-11.2</ele><time>2022-06-19T09:12:54.000Z</time></trkpt><trkpt lon="5.88619" lat="51.177762"><ele>-11.2</ele><time>2022-06-19T09:12:55.000Z</time></trkpt><trkpt lon="5.886076" lat="51.177731"><ele>-11.2</ele><time>2022-06-19T09:12:56.000Z</time></trkpt><trkpt lon="5.885965" lat="51.177705"><ele>-11.2</ele><time>2022-06-19T09:12:57.000Z</time></trkpt><trkpt lon="5.885855" lat="51.177674"><ele>-11.2</ele><time>2022-06-19T09:12:58.000Z</time></trkpt><trkpt lon="5.885748" lat="51.177648"><ele>-11</ele><time>2022-06-19T09:12:59.000Z</time></trkpt><trkpt lon="5.885638" lat="51.177614"><ele>-11</ele><time>2022-06-19T09:13:00.000Z</time></trkpt><trkpt lon="5.885529" lat="51.177582"><ele>-11</ele><time>2022-06-19T09:13:01.000Z</time></trkpt><trkpt lon="5.885428" lat="51.177549"><ele>-10.8</ele><time>2022-06-19T09:13:02.000Z</time></trkpt><trkpt lon="5.88533" lat="51.177519"><ele>-10.8</ele><time>2022-06-19T09:13:03.000Z</time></trkpt><trkpt lon="5.88523" lat="51.177487"><ele>-10.6</ele><time>2022-06-19T09:13:04.000Z</time></trkpt><trkpt lon="5.885141" lat="51.17745"><ele>-10.6</ele><time>2022-06-19T09:13:05.000Z</time></trkpt><trkpt lon="5.885052" lat="51.177415"><ele>-10.4</ele><time>2022-06-19T09:13:06.000Z</time></trkpt><trkpt lon="5.884973" lat="51.177377"><ele>-10.4</ele><time>2022-06-19T09:13:07.000Z</time></trkpt><trkpt lon="5.884894" lat="51.177339"><ele>-10.2</ele><time>2022-06-19T09:13:08.000Z</time></trkpt><trkpt lon="5.88481" lat="51.177305"><ele>-10.2</ele><time>2022-06-19T09:13:09.000Z</time></trkpt><trkpt lon="5.884733" lat="51.177268"><ele>-10.2</ele><time>2022-06-19T09:13:10.000Z</time></trkpt><trkpt lon="5.88466" lat="51.17724"><ele>-10</ele><time>2022-06-19T09:13:11.000Z</time></trkpt><trkpt lon="5.884592" lat="51.177235"><ele>-9.8</ele><time>2022-06-19T09:13:12.000Z</time></trkpt><trkpt lon="5.884532" lat="51.177238"><ele>-9.6</ele><time>2022-06-19T09:13:13.000Z</time></trkpt><trkpt lon="5.884478" lat="51.177239"><ele>-9.4</ele><time>2022-06-19T09:13:14.000Z</time></trkpt><trkpt lon="5.88442" lat="51.177227"><ele>-9.4</ele><time>2022-06-19T09:13:15.000Z</time></trkpt><trkpt lon="5.884357" lat="51.177205"><ele>-9.4</ele><time>2022-06-19T09:13:16.000Z</time></trkpt><trkpt lon="5.884306" lat="51.177171"><ele>-9.4</ele><time>2022-06-19T09:13:17.000Z</time></trkpt><trkpt lon="5.884278" lat="51.177133"><ele>-9.4</ele><time>2022-06-19T09:13:18.000Z</time></trkpt><trkpt lon="5.884252" lat="51.177091"><ele>-9.4</ele><time>2022-06-19T09:13:19.000Z</time></trkpt><trkpt lon="5.884218" lat="51.177053"><ele>-9.4</ele><time>2022-06-19T09:13:20.000Z</time></trkpt><trkpt lon="5.88414" lat="51.177026"><ele>-9.6</ele><time>2022-06-19T09:13:21.000Z</time></trkpt><trkpt lon="5.884037" lat="51.176999"><ele>-9.8</ele><time>2022-06-19T09:13:22.000Z</time></trkpt><trkpt lon="5.88393" lat="51.176966"><ele>-9.8</ele><time>2022-06-19T09:13:23.000Z</time></trkpt><trkpt lon="5.883809" lat="51.176931"><ele>-10</ele><time>2022-06-19T09:13:24.000Z</time></trkpt><trkpt lon="5.883685" lat="51.176896"><ele>-10.2</ele><time>2022-06-19T09:13:25.000Z</time></trkpt><trkpt lon="5.883566" lat="51.176859"><ele>-10.2</ele><time>2022-06-19T09:13:26.000Z</time></trkpt><trkpt lon="5.883437" lat="51.176825"><ele>-10.2</ele><time>2022-06-19T09:13:27.000Z</time></trkpt><trkpt lon="5.883308" lat="51.176793"><ele>-10.4</ele><time>2022-06-19T09:13:28.000Z</time></trkpt><trkpt lon="5.883182" lat="51.176763"><ele>-10.4</ele><time>2022-06-19T09:13:29.000Z</time></trkpt><trkpt lon="5.883081" lat="51.176742"><ele>-10.4</ele><time>2022-06-19T09:13:30.000Z</time></trkpt><trkpt lon="5.882941" lat="51.176712"><ele>-10.4</ele><time>2022-06-19T09:13:31.000Z</time></trkpt><trkpt lon="5.882811" lat="51.176682"><ele>-10.2</ele><time>2022-06-19T09:13:32.000Z</time></trkpt><trkpt lon="5.882702" lat="51.176655"><ele>-10</ele><time>2022-06-19T09:13:33.000Z</time></trkpt><trkpt lon="5.882612" lat="51.176637"><ele>-10</ele><time>2022-06-19T09:13:34.000Z</time></trkpt><trkpt lon="5.882522" lat="51.176614"><ele>-9.8</ele><time>2022-06-19T09:13:35.000Z</time></trkpt><trkpt lon="5.882434" lat="51.176591"><ele>-9.6</ele><time>2022-06-19T09:13:36.000Z</time></trkpt><trkpt lon="5.882348" lat="51.176568"><ele>-9.6</ele><time>2022-06-19T09:13:37.000Z</time></trkpt><trkpt lon="5.882257" lat="51.176553"><ele>-9.6</ele><time>2022-06-19T09:13:38.000Z</time></trkpt><trkpt lon="5.882153" lat="51.176533"><ele>-9.6</ele><time>2022-06-19T09:13:39.000Z</time></trkpt><trkpt lon="5.882035" lat="51.176514"><ele>-9.8</ele><time>2022-06-19T09:13:40.000Z</time></trkpt><trkpt lon="5.881915" lat="51.176496"><ele>-9.8</ele><time>2022-06-19T09:13:41.000Z</time></trkpt><trkpt lon="5.881785" lat="51.176472"><ele>-9.6</ele><time>2022-06-19T09:13:42.000Z</time></trkpt><trkpt lon="5.881658" lat="51.176453"><ele>-9.4</ele><time>2022-06-19T09:13:43.000Z</time></trkpt><trkpt lon="5.881531" lat="51.176434"><ele>-9.4</ele><time>2022-06-19T09:13:44.000Z</time></trkpt><trkpt lon="5.881405" lat="51.176415"><ele>-9.2</ele><time>2022-06-19T09:13:45.000Z</time></trkpt><trkpt lon="5.881275" lat="51.1764"><ele>-9.2</ele><time>2022-06-19T09:13:46.000Z</time></trkpt><trkpt lon="5.881145" lat="51.176381"><ele>-9.2</ele><time>2022-06-19T09:13:47.000Z</time></trkpt><trkpt lon="5.881019" lat="51.176358"><ele>-9.6</ele><time>2022-06-19T09:13:48.000Z</time></trkpt><trkpt lon="5.880896" lat="51.176339"><ele>-9.8</ele><time>2022-06-19T09:13:49.000Z</time></trkpt><trkpt lon="5.880768" lat="51.176316"><ele>-10.2</ele><time>2022-06-19T09:13:50.000Z</time></trkpt><trkpt lon="5.880647" lat="51.176293"><ele>-10.6</ele><time>2022-06-19T09:13:51.000Z</time></trkpt><trkpt lon="5.880524" lat="51.176274"><ele>-10.8</ele><time>2022-06-19T09:13:52.000Z</time></trkpt><trkpt lon="5.880408" lat="51.176256"><ele>-11.2</ele><time>2022-06-19T09:13:53.000Z</time></trkpt><trkpt lon="5.880289" lat="51.176235"><ele>-11.4</ele><time>2022-06-19T09:13:54.000Z</time></trkpt><trkpt lon="5.880152" lat="51.176214"><ele>-11.8</ele><time>2022-06-19T09:13:55.000Z</time></trkpt><trkpt lon="5.880012" lat="51.176194"><ele>-12</ele><time>2022-06-19T09:13:56.000Z</time></trkpt><trkpt lon="5.879885" lat="51.176175"><ele>-12.2</ele><time>2022-06-19T09:13:57.000Z</time></trkpt><trkpt lon="5.879751" lat="51.176156"><ele>-12.4</ele><time>2022-06-19T09:13:58.000Z</time></trkpt><trkpt lon="5.879618" lat="51.176129"><ele>-12.4</ele><time>2022-06-19T09:13:59.000Z</time></trkpt><trkpt lon="5.879492" lat="51.176106"><ele>-12.4</ele><time>2022-06-19T09:14:00.000Z</time></trkpt><trkpt lon="5.879364" lat="51.176084"><ele>-12.8</ele><time>2022-06-19T09:14:01.000Z</time></trkpt><trkpt lon="5.879226" lat="51.176064"><ele>-12.8</ele><time>2022-06-19T09:14:02.000Z</time></trkpt><trkpt lon="5.879097" lat="51.176041"><ele>-13</ele><time>2022-06-19T09:14:03.000Z</time></trkpt><trkpt lon="5.878972" lat="51.176019"><ele>-13</ele><time>2022-06-19T09:14:04.000Z</time></trkpt><trkpt lon="5.878848" lat="51.175996"><ele>-13</ele><time>2022-06-19T09:14:05.000Z</time></trkpt><trkpt lon="5.878721" lat="51.175973"><ele>-13.2</ele><time>2022-06-19T09:14:06.000Z</time></trkpt><trkpt lon="5.878602" lat="51.17595"><ele>-13.2</ele><time>2022-06-19T09:14:07.000Z</time></trkpt><trkpt lon="5.878477" lat="51.175927"><ele>-13.2</ele><time>2022-06-19T09:14:08.000Z</time></trkpt><trkpt lon="5.878351" lat="51.175908"><ele>-13.2</ele><time>2022-06-19T09:14:09.000Z</time></trkpt><trkpt lon="5.87823" lat="51.175893"><ele>-13.4</ele><time>2022-06-19T09:14:10.000Z</time></trkpt><trkpt lon="5.878097" lat="51.175877"><ele>-13.6</ele><time>2022-06-19T09:14:11.000Z</time></trkpt><trkpt lon="5.877964" lat="51.175862"><ele>-13.6</ele><time>2022-06-19T09:14:12.000Z</time></trkpt><trkpt lon="5.877831" lat="51.17585"><ele>-13.8</ele><time>2022-06-19T09:14:13.000Z</time></trkpt><trkpt lon="5.877702" lat="51.175839"><ele>-14</ele><time>2022-06-19T09:14:14.000Z</time></trkpt><trkpt lon="5.877574" lat="51.175831"><ele>-14</ele><time>2022-06-19T09:14:15.000Z</time></trkpt><trkpt lon="5.877448" lat="51.175824"><ele>-14</ele><time>2022-06-19T09:14:16.000Z</time></trkpt><trkpt lon="5.877308" lat="51.175816"><ele>-14</ele><time>2022-06-19T09:14:17.000Z</time></trkpt><trkpt lon="5.877178" lat="51.175816"><ele>-14</ele><time>2022-06-19T09:14:18.000Z</time></trkpt><trkpt lon="5.877053" lat="51.175816"><ele>-14</ele><time>2022-06-19T09:14:19.000Z</time></trkpt><trkpt lon="5.87692" lat="51.175819"><ele>-13.8</ele><time>2022-06-19T09:14:20.000Z</time></trkpt><trkpt lon="5.876805" lat="51.175823"><ele>-13.8</ele><time>2022-06-19T09:14:21.000Z</time></trkpt><trkpt lon="5.876655" lat="51.175831"><ele>-13.8</ele><time>2022-06-19T09:14:22.000Z</time></trkpt><trkpt lon="5.876522" lat="51.175838"><ele>-13.8</ele><time>2022-06-19T09:14:23.000Z</time></trkpt><trkpt lon="5.876394" lat="51.175842"><ele>-13.8</ele><time>2022-06-19T09:14:24.000Z</time></trkpt><trkpt lon="5.876255" lat="51.175853"><ele>-13.8</ele><time>2022-06-19T09:14:25.000Z</time></trkpt><trkpt lon="5.876124" lat="51.175865"><ele>-14</ele><time>2022-06-19T09:14:26.000Z</time></trkpt><trkpt lon="5.875993" lat="51.175873"><ele>-14.2</ele><time>2022-06-19T09:14:27.000Z</time></trkpt><trkpt lon="5.875864" lat="51.17588"><ele>-14.2</ele><time>2022-06-19T09:14:28.000Z</time></trkpt><trkpt lon="5.875735" lat="51.175888"><ele>-14.2</ele><time>2022-06-19T09:14:29.000Z</time></trkpt><trkpt lon="5.875604" lat="51.175895"><ele>-14</ele><time>2022-06-19T09:14:30.000Z</time></trkpt><trkpt lon="5.875475" lat="51.175903"><ele>-13.8</ele><time>2022-06-19T09:14:31.000Z</time></trkpt><trkpt lon="5.87535" lat="51.175911"><ele>-13.8</ele><time>2022-06-19T09:14:32.000Z</time></trkpt><trkpt lon="5.875224" lat="51.175915"><ele>-13.6</ele><time>2022-06-19T09:14:33.000Z</time></trkpt><trkpt lon="5.875094" lat="51.175926"><ele>-13.8</ele><time>2022-06-19T09:14:34.000Z</time></trkpt><trkpt lon="5.874963" lat="51.175934"><ele>-14</ele><time>2022-06-19T09:14:35.000Z</time></trkpt><trkpt lon="5.874831" lat="51.175945"><ele>-14.2</ele><time>2022-06-19T09:14:36.000Z</time></trkpt><trkpt lon="5.8747" lat="51.175953"><ele>-14.2</ele><time>2022-06-19T09:14:37.000Z</time></trkpt><trkpt lon="5.874569" lat="51.17596"><ele>-14.2</ele><time>2022-06-19T09:14:38.000Z</time></trkpt><trkpt lon="5.874441" lat="51.175968"><ele>-14.2</ele><time>2022-06-19T09:14:39.000Z</time></trkpt><trkpt lon="5.874319" lat="51.175976"><ele>-14.2</ele><time>2022-06-19T09:14:40.000Z</time></trkpt><trkpt lon="5.874196" lat="51.175983"><ele>-14.2</ele><time>2022-06-19T09:14:41.000Z</time></trkpt><trkpt lon="5.874078" lat="51.17599"><ele>-14</ele><time>2022-06-19T09:14:42.000Z</time></trkpt><trkpt lon="5.87395" lat="51.175995"><ele>-14</ele><time>2022-06-19T09:14:43.000Z</time></trkpt><trkpt lon="5.87384" lat="51.175998"><ele>-13.8</ele><time>2022-06-19T09:14:44.000Z</time></trkpt><trkpt lon="5.873721" lat="51.175999"><ele>-13.8</ele><time>2022-06-19T09:14:45.000Z</time></trkpt><trkpt lon="5.873613" lat="51.176002"><ele>-13.6</ele><time>2022-06-19T09:14:46.000Z</time></trkpt><trkpt lon="5.873512" lat="51.176003"><ele>-13.4</ele><time>2022-06-19T09:14:47.000Z</time></trkpt><trkpt lon="5.87341" lat="51.176006"><ele>-13.2</ele><time>2022-06-19T09:14:48.000Z</time></trkpt><trkpt lon="5.873315" lat="51.17601"><ele>-13</ele><time>2022-06-19T09:14:49.000Z</time></trkpt><trkpt lon="5.873227" lat="51.176014"><ele>-13</ele><time>2022-06-19T09:14:50.000Z</time></trkpt><trkpt lon="5.873141" lat="51.176021"><ele>-12.8</ele><time>2022-06-19T09:14:51.000Z</time></trkpt><trkpt lon="5.873063" lat="51.176029"><ele>-12.6</ele><time>2022-06-19T09:14:52.000Z</time></trkpt><trkpt lon="5.872985" lat="51.176037"><ele>-12.6</ele><time>2022-06-19T09:14:53.000Z</time></trkpt><trkpt lon="5.872913" lat="51.176052"><ele>-12.6</ele><time>2022-06-19T09:14:54.000Z</time></trkpt><trkpt lon="5.872844" lat="51.176071"><ele>-12.4</ele><time>2022-06-19T09:14:55.000Z</time></trkpt><trkpt lon="5.872781" lat="51.176093"><ele>-12.4</ele><time>2022-06-19T09:14:56.000Z</time></trkpt><trkpt lon="5.872725" lat="51.176127"><ele>-12.4</ele><time>2022-06-19T09:14:57.000Z</time></trkpt><trkpt lon="5.872673" lat="51.176158"><ele>-12.2</ele><time>2022-06-19T09:14:58.000Z</time></trkpt><trkpt lon="5.872615" lat="51.176189"><ele>-12.2</ele><time>2022-06-19T09:14:59.000Z</time></trkpt><trkpt lon="5.872547" lat="51.176212"><ele>-12</ele><time>2022-06-19T09:15:00.000Z</time></trkpt><trkpt lon="5.872466" lat="51.176227"><ele>-12.2</ele><time>2022-06-19T09:15:01.000Z</time></trkpt><trkpt lon="5.872377" lat="51.176231"><ele>-12.2</ele><time>2022-06-19T09:15:02.000Z</time></trkpt><trkpt lon="5.872281" lat="51.176224"><ele>-12.2</ele><time>2022-06-19T09:15:03.000Z</time></trkpt><trkpt lon="5.872181" lat="51.176216"><ele>-12.2</ele><time>2022-06-19T09:15:04.000Z</time></trkpt><trkpt lon="5.872075" lat="51.176212"><ele>-12.2</ele><time>2022-06-19T09:15:05.000Z</time></trkpt><trkpt lon="5.871962" lat="51.176216"><ele>-12.2</ele><time>2022-06-19T09:15:06.000Z</time></trkpt><trkpt lon="5.871849" lat="51.176227"><ele>-12.4</ele><time>2022-06-19T09:15:07.000Z</time></trkpt><trkpt lon="5.871732" lat="51.176242"><ele>-12.4</ele><time>2022-06-19T09:15:08.000Z</time></trkpt><trkpt lon="5.871614" lat="51.176257"><ele>-12.6</ele><time>2022-06-19T09:15:09.000Z</time></trkpt><trkpt lon="5.871493" lat="51.176269"><ele>-12.8</ele><time>2022-06-19T09:15:10.000Z</time></trkpt><trkpt lon="5.871379" lat="51.176283"><ele>-12.8</ele><time>2022-06-19T09:15:11.000Z</time></trkpt><trkpt lon="5.871249" lat="51.1763"><ele>-12.8</ele><time>2022-06-19T09:15:12.000Z</time></trkpt><trkpt lon="5.871126" lat="51.176311"><ele>-13</ele><time>2022-06-19T09:15:13.000Z</time></trkpt><trkpt lon="5.871002" lat="51.176323"><ele>-13.2</ele><time>2022-06-19T09:15:14.000Z</time></trkpt><trkpt lon="5.87088" lat="51.176334"><ele>-13.2</ele><time>2022-06-19T09:15:15.000Z</time></trkpt><trkpt lon="5.870751" lat="51.176345"><ele>-13.2</ele><time>2022-06-19T09:15:16.000Z</time></trkpt><trkpt lon="5.870624" lat="51.176357"><ele>-13.4</ele><time>2022-06-19T09:15:17.000Z</time></trkpt><trkpt lon="5.8705" lat="51.176372"><ele>-13.6</ele><time>2022-06-19T09:15:18.000Z</time></trkpt><trkpt lon="5.870373" lat="51.176384"><ele>-13.8</ele><time>2022-06-19T09:15:19.000Z</time></trkpt><trkpt lon="5.870251" lat="51.176391"><ele>-13.8</ele><time>2022-06-19T09:15:20.000Z</time></trkpt><trkpt lon="5.870132" lat="51.176403"><ele>-13.6</ele><time>2022-06-19T09:15:21.000Z</time></trkpt><trkpt lon="5.870016" lat="51.176407"><ele>-13.6</ele><time>2022-06-19T09:15:22.000Z</time></trkpt><trkpt lon="5.869899" lat="51.176407"><ele>-13.8</ele><time>2022-06-19T09:15:23.000Z</time></trkpt><trkpt lon="5.86978" lat="51.176407"><ele>-13.8</ele><time>2022-06-19T09:15:24.000Z</time></trkpt><trkpt lon="5.869661" lat="51.176403"><ele>-13.6</ele><time>2022-06-19T09:15:25.000Z</time></trkpt><trkpt lon="5.869549" lat="51.176399"><ele>-13.6</ele><time>2022-06-19T09:15:26.000Z</time></trkpt><trkpt lon="5.869441" lat="51.176388"><ele>-13.4</ele><time>2022-06-19T09:15:27.000Z</time></trkpt><trkpt lon="5.869337" lat="51.176367"><ele>-13.4</ele><time>2022-06-19T09:15:28.000Z</time></trkpt><trkpt lon="5.869232" lat="51.176346"><ele>-13.6</ele><time>2022-06-19T09:15:29.000Z</time></trkpt><trkpt lon="5.869121" lat="51.17634"><ele>-13.6</ele><time>2022-06-19T09:15:30.000Z</time></trkpt><trkpt lon="5.869011" lat="51.176335"><ele>-13.8</ele><time>2022-06-19T09:15:31.000Z</time></trkpt><trkpt lon="5.868897" lat="51.176331"><ele>-14</ele><time>2022-06-19T09:15:32.000Z</time></trkpt><trkpt lon="5.868785" lat="51.176327"><ele>-13.8</ele><time>2022-06-19T09:15:33.000Z</time></trkpt><trkpt lon="5.868666" lat="51.176323"><ele>-13.8</ele><time>2022-06-19T09:15:34.000Z</time></trkpt><trkpt lon="5.868555" lat="51.176316"><ele>-13.8</ele><time>2022-06-19T09:15:35.000Z</time></trkpt><trkpt lon="5.868441" lat="51.176308"><ele>-14</ele><time>2022-06-19T09:15:36.000Z</time></trkpt><trkpt lon="5.86832" lat="51.1763"><ele>-14.2</ele><time>2022-06-19T09:15:37.000Z</time></trkpt><trkpt lon="5.868202" lat="51.176293"><ele>-14.2</ele><time>2022-06-19T09:15:38.000Z</time></trkpt><trkpt lon="5.868087" lat="51.176281"><ele>-14.2</ele><time>2022-06-19T09:15:39.000Z</time></trkpt><trkpt lon="5.867972" lat="51.17627"><ele>-14.2</ele><time>2022-06-19T09:15:40.000Z</time></trkpt><trkpt lon="5.867859" lat="51.176255"><ele>-14</ele><time>2022-06-19T09:15:41.000Z</time></trkpt><trkpt lon="5.86774" lat="51.176247"><ele>-13.8</ele><time>2022-06-19T09:15:42.000Z</time></trkpt><trkpt lon="5.86762" lat="51.176239"><ele>-13.8</ele><time>2022-06-19T09:15:43.000Z</time></trkpt><trkpt lon="5.867506" lat="51.176232"><ele>-13.8</ele><time>2022-06-19T09:15:44.000Z</time></trkpt><trkpt lon="5.867396" lat="51.17622"><ele>-13.8</ele><time>2022-06-19T09:15:45.000Z</time></trkpt><trkpt lon="5.86728" lat="51.176209"><ele>-13.6</ele><time>2022-06-19T09:15:46.000Z</time></trkpt><trkpt lon="5.867158" lat="51.176201"><ele>-13.6</ele><time>2022-06-19T09:15:47.000Z</time></trkpt><trkpt lon="5.867025" lat="51.176193"><ele>-13.6</ele><time>2022-06-19T09:15:48.000Z</time></trkpt><trkpt lon="5.866891" lat="51.176182"><ele>-13.6</ele><time>2022-06-19T09:15:49.000Z</time></trkpt><trkpt lon="5.866764" lat="51.176167"><ele>-13.4</ele><time>2022-06-19T09:15:50.000Z</time></trkpt><trkpt lon="5.866645" lat="51.17616"><ele>-13.4</ele><time>2022-06-19T09:15:51.000Z</time></trkpt><trkpt lon="5.866515" lat="51.176148"><ele>-13.4</ele><time>2022-06-19T09:15:52.000Z</time></trkpt><trkpt lon="5.866395" lat="51.176136"><ele>-13.4</ele><time>2022-06-19T09:15:53.000Z</time></trkpt><trkpt lon="5.866278" lat="51.176125"><ele>-13.2</ele><time>2022-06-19T09:15:54.000Z</time></trkpt><trkpt lon="5.866172" lat="51.17611"><ele>-13.2</ele><time>2022-06-19T09:15:55.000Z</time></trkpt><trkpt lon="5.866059" lat="51.176094"><ele>-13</ele><time>2022-06-19T09:15:56.000Z</time></trkpt><trkpt lon="5.865951" lat="51.176079"><ele>-13</ele><time>2022-06-19T09:15:57.000Z</time></trkpt><trkpt lon="5.865838" lat="51.176068"><ele>-13</ele><time>2022-06-19T09:15:58.000Z</time></trkpt><trkpt lon="5.865725" lat="51.17606"><ele>-13</ele><time>2022-06-19T09:15:59.000Z</time></trkpt><trkpt lon="5.865628" lat="51.17605"><ele>-12.8</ele><time>2022-06-19T09:16:00.000Z</time></trkpt><trkpt lon="5.865511" lat="51.176038"><ele>-12.8</ele><time>2022-06-19T09:16:01.000Z</time></trkpt><trkpt lon="5.865391" lat="51.176022"><ele>-12.6</ele><time>2022-06-19T09:16:02.000Z</time></trkpt><trkpt lon="5.865292" lat="51.176011"><ele>-12.6</ele><time>2022-06-19T09:16:03.000Z</time></trkpt><trkpt lon="5.86517" lat="51.176003"><ele>-12.4</ele><time>2022-06-19T09:16:04.000Z</time></trkpt><trkpt lon="5.865062" lat="51.175991"><ele>-12.4</ele><time>2022-06-19T09:16:05.000Z</time></trkpt><trkpt lon="5.864958" lat="51.175984"><ele>-12.2</ele><time>2022-06-19T09:16:06.000Z</time></trkpt><trkpt lon="5.864851" lat="51.175972"><ele>-12</ele><time>2022-06-19T09:16:07.000Z</time></trkpt><trkpt lon="5.864745" lat="51.175961"><ele>-11.8</ele><time>2022-06-19T09:16:08.000Z</time></trkpt><trkpt lon="5.864637" lat="51.175953"><ele>-11.6</ele><time>2022-06-19T09:16:09.000Z</time></trkpt><trkpt lon="5.864533" lat="51.175942"><ele>-11.4</ele><time>2022-06-19T09:16:10.000Z</time></trkpt><trkpt lon="5.864431" lat="51.175927"><ele>-11.2</ele><time>2022-06-19T09:16:11.000Z</time></trkpt><trkpt lon="5.864326" lat="51.175912"><ele>-11.2</ele><time>2022-06-19T09:16:12.000Z</time></trkpt><trkpt lon="5.86422" lat="51.175893"><ele>-11</ele><time>2022-06-19T09:16:13.000Z</time></trkpt><trkpt lon="5.864119" lat="51.17587"><ele>-10.8</ele><time>2022-06-19T09:16:14.000Z</time></trkpt><trkpt lon="5.864017" lat="51.175839"><ele>-10.6</ele><time>2022-06-19T09:16:15.000Z</time></trkpt><trkpt lon="5.863926" lat="51.175809"><ele>-10.4</ele><time>2022-06-19T09:16:16.000Z</time></trkpt><trkpt lon="5.863842" lat="51.175767"><ele>-10.2</ele><time>2022-06-19T09:16:17.000Z</time></trkpt><trkpt lon="5.863773" lat="51.175721"><ele>-10</ele><time>2022-06-19T09:16:18.000Z</time></trkpt><trkpt lon="5.863718" lat="51.175676"><ele>-10</ele><time>2022-06-19T09:16:19.000Z</time></trkpt><trkpt lon="5.863668" lat="51.175622"><ele>-9.8</ele><time>2022-06-19T09:16:20.000Z</time></trkpt><trkpt lon="5.863628" lat="51.175571"><ele>-9.6</ele><time>2022-06-19T09:16:21.000Z</time></trkpt><trkpt lon="5.863588" lat="51.175512"><ele>-9.6</ele><time>2022-06-19T09:16:22.000Z</time></trkpt><trkpt lon="5.86355" lat="51.175456"><ele>-9.4</ele><time>2022-06-19T09:16:23.000Z</time></trkpt><trkpt lon="5.863514" lat="51.1754"><ele>-9.2</ele><time>2022-06-19T09:16:24.000Z</time></trkpt><trkpt lon="5.863478" lat="51.175339"><ele>-9.2</ele><time>2022-06-19T09:16:25.000Z</time></trkpt><trkpt lon="5.863441" lat="51.175276"><ele>-9</ele><time>2022-06-19T09:16:26.000Z</time></trkpt><trkpt lon="5.863409" lat="51.175214"><ele>-9</ele><time>2022-06-19T09:16:27.000Z</time></trkpt><trkpt lon="5.863374" lat="51.175153"><ele>-8.8</ele><time>2022-06-19T09:16:28.000Z</time></trkpt><trkpt lon="5.863337" lat="51.175088"><ele>-8.6</ele><time>2022-06-19T09:16:29.000Z</time></trkpt><trkpt lon="5.863304" lat="51.175036"><ele>-8.6</ele><time>2022-06-19T09:16:30.000Z</time></trkpt><trkpt lon="5.863259" lat="51.174968"><ele>-8.6</ele><time>2022-06-19T09:16:31.000Z</time></trkpt><trkpt lon="5.863215" lat="51.174905"><ele>-8.4</ele><time>2022-06-19T09:16:32.000Z</time></trkpt><trkpt lon="5.863172" lat="51.174845"><ele>-8.2</ele><time>2022-06-19T09:16:33.000Z</time></trkpt><trkpt lon="5.863124" lat="51.174784"><ele>-8.2</ele><time>2022-06-19T09:16:34.000Z</time></trkpt><trkpt lon="5.863073" lat="51.174723"><ele>-8</ele><time>2022-06-19T09:16:35.000Z</time></trkpt><trkpt lon="5.863022" lat="51.174665"><ele>-7.8</ele><time>2022-06-19T09:16:36.000Z</time></trkpt><trkpt lon="5.86297" lat="51.174608"><ele>-7.6</ele><time>2022-06-19T09:16:37.000Z</time></trkpt><trkpt lon="5.862917" lat="51.174547"><ele>-7.4</ele><time>2022-06-19T09:16:38.000Z</time></trkpt><trkpt lon="5.862865" lat="51.174486"><ele>-7.2</ele><time>2022-06-19T09:16:39.000Z</time></trkpt><trkpt lon="5.862813" lat="51.174425"><ele>-7.2</ele><time>2022-06-19T09:16:40.000Z</time></trkpt><trkpt lon="5.862761" lat="51.17436"><ele>-7.2</ele><time>2022-06-19T09:16:41.000Z</time></trkpt><trkpt lon="5.86271" lat="51.174299"><ele>-7</ele><time>2022-06-19T09:16:42.000Z</time></trkpt><trkpt lon="5.862658" lat="51.174234"><ele>-7</ele><time>2022-06-19T09:16:43.000Z</time></trkpt><trkpt lon="5.862603" lat="51.174173"><ele>-7.2</ele><time>2022-06-19T09:16:44.000Z</time></trkpt><trkpt lon="5.86255" lat="51.174108"><ele>-7</ele><time>2022-06-19T09:16:45.000Z</time></trkpt><trkpt lon="5.862499" lat="51.174044"><ele>-7</ele><time>2022-06-19T09:16:46.000Z</time></trkpt><trkpt lon="5.862449" lat="51.173979"><ele>-6.8</ele><time>2022-06-19T09:16:47.000Z</time></trkpt><trkpt lon="5.862398" lat="51.173917"><ele>-6.8</ele><time>2022-06-19T09:16:48.000Z</time></trkpt><trkpt lon="5.862348" lat="51.173857"><ele>-6.6</ele><time>2022-06-19T09:16:49.000Z</time></trkpt><trkpt lon="5.862299" lat="51.173795"><ele>-6.4</ele><time>2022-06-19T09:16:50.000Z</time></trkpt><trkpt lon="5.862253" lat="51.173736"><ele>-6.4</ele><time>2022-06-19T09:16:51.000Z</time></trkpt><trkpt lon="5.862202" lat="51.173674"><ele>-6.4</ele><time>2022-06-19T09:16:52.000Z</time></trkpt><trkpt lon="5.862152" lat="51.173609"><ele>-6.4</ele><time>2022-06-19T09:16:53.000Z</time></trkpt><trkpt lon="5.862096" lat="51.173547"><ele>-6.2</ele><time>2022-06-19T09:16:54.000Z</time></trkpt><trkpt lon="5.862036" lat="51.173486"><ele>-6.4</ele><time>2022-06-19T09:16:55.000Z</time></trkpt><trkpt lon="5.861965" lat="51.173433"><ele>-6.4</ele><time>2022-06-19T09:16:56.000Z</time></trkpt><trkpt lon="5.861884" lat="51.173383"><ele>-6.2</ele><time>2022-06-19T09:16:57.000Z</time></trkpt><trkpt lon="5.861794" lat="51.173338"><ele>-6.4</ele><time>2022-06-19T09:16:58.000Z</time></trkpt><trkpt lon="5.861693" lat="51.173295"><ele>-6.6</ele><time>2022-06-19T09:16:59.000Z</time></trkpt><trkpt lon="5.861589" lat="51.173258"><ele>-6.8</ele><time>2022-06-19T09:17:00.000Z</time></trkpt><trkpt lon="5.861483" lat="51.173224"><ele>-6.8</ele><time>2022-06-19T09:17:01.000Z</time></trkpt><trkpt lon="5.861359" lat="51.173203"><ele>-7</ele><time>2022-06-19T09:17:02.000Z</time></trkpt><trkpt lon="5.861236" lat="51.173195"><ele>-7.2</ele><time>2022-06-19T09:17:03.000Z</time></trkpt><trkpt lon="5.861111" lat="51.173195"><ele>-7.4</ele><time>2022-06-19T09:17:04.000Z</time></trkpt><trkpt lon="5.860987" lat="51.173199"><ele>-7.4</ele><time>2022-06-19T09:17:05.000Z</time></trkpt><trkpt lon="5.860863" lat="51.173217"><ele>-7.6</ele><time>2022-06-19T09:17:06.000Z</time></trkpt><trkpt lon="5.860741" lat="51.17324"><ele>-7.8</ele><time>2022-06-19T09:17:07.000Z</time></trkpt><trkpt lon="5.860624" lat="51.173274"><ele>-7.8</ele><time>2022-06-19T09:17:08.000Z</time></trkpt><trkpt lon="5.860516" lat="51.173312"><ele>-7.8</ele><time>2022-06-19T09:17:09.000Z</time></trkpt><trkpt lon="5.860413" lat="51.173354"><ele>-8</ele><time>2022-06-19T09:17:10.000Z</time></trkpt><trkpt lon="5.860313" lat="51.173395"><ele>-8</ele><time>2022-06-19T09:17:11.000Z</time></trkpt><trkpt lon="5.860212" lat="51.173441"><ele>-8</ele><time>2022-06-19T09:17:12.000Z</time></trkpt><trkpt lon="5.860113" lat="51.173483"><ele>-7.8</ele><time>2022-06-19T09:17:13.000Z</time></trkpt><trkpt lon="5.860013" lat="51.173533"><ele>-7.6</ele><time>2022-06-19T09:17:14.000Z</time></trkpt><trkpt lon="5.859914" lat="51.173579"><ele>-7.6</ele><time>2022-06-19T09:17:15.000Z</time></trkpt><trkpt lon="5.859831" lat="51.173622"><ele>-7.2</ele><time>2022-06-19T09:17:16.000Z</time></trkpt><trkpt lon="5.859722" lat="51.173674"><ele>-7</ele><time>2022-06-19T09:17:17.000Z</time></trkpt><trkpt lon="5.85962" lat="51.173723"><ele>-6.8</ele><time>2022-06-19T09:17:18.000Z</time></trkpt><trkpt lon="5.859519" lat="51.173766"><ele>-6.6</ele><time>2022-06-19T09:17:19.000Z</time></trkpt><trkpt lon="5.859422" lat="51.173804"><ele>-6.6</ele><time>2022-06-19T09:17:20.000Z</time></trkpt><trkpt lon="5.859329" lat="51.173846"><ele>-6.8</ele><time>2022-06-19T09:17:21.000Z</time></trkpt><trkpt lon="5.859234" lat="51.173888"><ele>-7</ele><time>2022-06-19T09:17:22.000Z</time></trkpt><trkpt lon="5.859136" lat="51.173934"><ele>-7.2</ele><time>2022-06-19T09:17:23.000Z</time></trkpt><trkpt lon="5.859039" lat="51.173979"><ele>-7.4</ele><time>2022-06-19T09:17:24.000Z</time></trkpt><trkpt lon="5.858943" lat="51.174023"><ele>-7.4</ele><time>2022-06-19T09:17:25.000Z</time></trkpt><trkpt lon="5.858839" lat="51.174071"><ele>-7.6</ele><time>2022-06-19T09:17:26.000Z</time></trkpt><trkpt lon="5.858736" lat="51.174117"><ele>-7.6</ele><time>2022-06-19T09:17:27.000Z</time></trkpt><trkpt lon="5.858633" lat="51.174159"><ele>-7.6</ele><time>2022-06-19T09:17:28.000Z</time></trkpt><trkpt lon="5.858528" lat="51.174201"><ele>-7.6</ele><time>2022-06-19T09:17:29.000Z</time></trkpt><trkpt lon="5.858417" lat="51.174237"><ele>-7.6</ele><time>2022-06-19T09:17:30.000Z</time></trkpt><trkpt lon="5.858306" lat="51.174274"><ele>-7.6</ele><time>2022-06-19T09:17:31.000Z</time></trkpt><trkpt lon="5.858189" lat="51.174308"><ele>-7.4</ele><time>2022-06-19T09:17:32.000Z</time></trkpt><trkpt lon="5.858076" lat="51.174342"><ele>-7.6</ele><time>2022-06-19T09:17:33.000Z</time></trkpt><trkpt lon="5.857957" lat="51.174377"><ele>-7.6</ele><time>2022-06-19T09:17:34.000Z</time></trkpt><trkpt lon="5.857836" lat="51.174403"><ele>-7.6</ele><time>2022-06-19T09:17:35.000Z</time></trkpt><trkpt lon="5.857715" lat="51.174426"><ele>-7.8</ele><time>2022-06-19T09:17:36.000Z</time></trkpt><trkpt lon="5.85759" lat="51.174446"><ele>-8</ele><time>2022-06-19T09:17:37.000Z</time></trkpt><trkpt lon="5.857462" lat="51.174454"><ele>-8</ele><time>2022-06-19T09:17:38.000Z</time></trkpt><trkpt lon="5.857337" lat="51.174457"><ele>-8</ele><time>2022-06-19T09:17:39.000Z</time></trkpt><trkpt lon="5.857215" lat="51.174458"><ele>-8</ele><time>2022-06-19T09:17:40.000Z</time></trkpt><trkpt lon="5.857088" lat="51.17445"><ele>-8</ele><time>2022-06-19T09:17:41.000Z</time></trkpt><trkpt lon="5.856965" lat="51.174439"><ele>-8.2</ele><time>2022-06-19T09:17:42.000Z</time></trkpt><trkpt lon="5.856855" lat="51.174422"><ele>-8.2</ele><time>2022-06-19T09:17:43.000Z</time></trkpt><trkpt lon="5.856725" lat="51.174405"><ele>-8.2</ele><time>2022-06-19T09:17:44.000Z</time></trkpt><trkpt lon="5.856611" lat="51.174387"><ele>-8.4</ele><time>2022-06-19T09:17:45.000Z</time></trkpt><trkpt lon="5.856486" lat="51.174367"><ele>-8.4</ele><time>2022-06-19T09:17:46.000Z</time></trkpt><trkpt lon="5.856367" lat="51.174344"><ele>-8.4</ele><time>2022-06-19T09:17:47.000Z</time></trkpt><trkpt lon="5.856246" lat="51.174328"><ele>-8.4</ele><time>2022-06-19T09:17:48.000Z</time></trkpt><trkpt lon="5.85613" lat="51.174306"><ele>-8.6</ele><time>2022-06-19T09:17:49.000Z</time></trkpt><trkpt lon="5.856011" lat="51.174283"><ele>-8.6</ele><time>2022-06-19T09:17:50.000Z</time></trkpt><trkpt lon="5.855905" lat="51.174257"><ele>-8.6</ele><time>2022-06-19T09:17:51.000Z</time></trkpt><trkpt lon="5.855788" lat="51.174229"><ele>-8.4</ele><time>2022-06-19T09:17:52.000Z</time></trkpt><trkpt lon="5.85568" lat="51.174203"><ele>-8.4</ele><time>2022-06-19T09:17:53.000Z</time></trkpt><trkpt lon="5.855569" lat="51.174176"><ele>-8.4</ele><time>2022-06-19T09:17:54.000Z</time></trkpt><trkpt lon="5.855463" lat="51.17415"><ele>-8.4</ele><time>2022-06-19T09:17:55.000Z</time></trkpt><trkpt lon="5.855351" lat="51.174123"><ele>-8.2</ele><time>2022-06-19T09:17:56.000Z</time></trkpt><trkpt lon="5.855241" lat="51.174092"><ele>-8.2</ele><time>2022-06-19T09:17:57.000Z</time></trkpt><trkpt lon="5.855133" lat="51.174058"><ele>-8.2</ele><time>2022-06-19T09:17:58.000Z</time></trkpt><trkpt lon="5.855026" lat="51.174028"><ele>-8</ele><time>2022-06-19T09:17:59.000Z</time></trkpt><trkpt lon="5.85492" lat="51.17399"><ele>-8</ele><time>2022-06-19T09:18:00.000Z</time></trkpt><trkpt lon="5.854824" lat="51.173955"><ele>-7.8</ele><time>2022-06-19T09:18:01.000Z</time></trkpt><trkpt lon="5.854705" lat="51.17392"><ele>-7.8</ele><time>2022-06-19T09:18:02.000Z</time></trkpt><trkpt lon="5.854597" lat="51.173882"><ele>-7.8</ele><time>2022-06-19T09:18:03.000Z</time></trkpt><trkpt lon="5.854492" lat="51.173849"><ele>-7.8</ele><time>2022-06-19T09:18:04.000Z</time></trkpt><trkpt lon="5.854376" lat="51.17381"><ele>-7.6</ele><time>2022-06-19T09:18:05.000Z</time></trkpt><trkpt lon="5.854271" lat="51.173777"><ele>-7.4</ele><time>2022-06-19T09:18:06.000Z</time></trkpt><trkpt lon="5.854168" lat="51.17374"><ele>-7.4</ele><time>2022-06-19T09:18:07.000Z</time></trkpt><trkpt lon="5.854059" lat="51.1737"><ele>-7.4</ele><time>2022-06-19T09:18:08.000Z</time></trkpt><trkpt lon="5.853952" lat="51.173662"><ele>-7.6</ele><time>2022-06-19T09:18:09.000Z</time></trkpt><trkpt lon="5.853845" lat="51.173623"><ele>-7.8</ele><time>2022-06-19T09:18:10.000Z</time></trkpt><trkpt lon="5.85374" lat="51.173581"><ele>-8</ele><time>2022-06-19T09:18:11.000Z</time></trkpt><trkpt lon="5.853632" lat="51.173539"><ele>-8</ele><time>2022-06-19T09:18:12.000Z</time></trkpt><trkpt lon="5.853524" lat="51.173501"><ele>-8.2</ele><time>2022-06-19T09:18:13.000Z</time></trkpt><trkpt lon="5.853416" lat="51.173459"><ele>-8</ele><time>2022-06-19T09:18:14.000Z</time></trkpt><trkpt lon="5.853307" lat="51.173421"><ele>-8</ele><time>2022-06-19T09:18:15.000Z</time></trkpt><trkpt lon="5.853198" lat="51.173383"><ele>-8.2</ele><time>2022-06-19T09:18:16.000Z</time></trkpt><trkpt lon="5.853088" lat="51.173346"><ele>-8.6</ele><time>2022-06-19T09:18:17.000Z</time></trkpt><trkpt lon="5.852972" lat="51.173307"><ele>-8.8</ele><time>2022-06-19T09:18:18.000Z</time></trkpt><trkpt lon="5.852875" lat="51.173271"><ele>-9</ele><time>2022-06-19T09:18:19.000Z</time></trkpt><trkpt lon="5.85274" lat="51.17323"><ele>-9.4</ele><time>2022-06-19T09:18:20.000Z</time></trkpt><trkpt lon="5.852613" lat="51.1732"><ele>-9.4</ele><time>2022-06-19T09:18:21.000Z</time></trkpt><trkpt lon="5.852492" lat="51.17317"><ele>-9.6</ele><time>2022-06-19T09:18:22.000Z</time></trkpt><trkpt lon="5.852362" lat="51.173142"><ele>-9.8</ele><time>2022-06-19T09:18:23.000Z</time></trkpt><trkpt lon="5.852257" lat="51.173116"><ele>-9.8</ele><time>2022-06-19T09:18:24.000Z</time></trkpt><trkpt lon="5.852129" lat="51.173081"><ele>-9.8</ele><time>2022-06-19T09:18:25.000Z</time></trkpt><trkpt lon="5.851995" lat="51.173044"><ele>-10</ele><time>2022-06-19T09:18:26.000Z</time></trkpt><trkpt lon="5.85187" lat="51.173009"><ele>-10</ele><time>2022-06-19T09:18:27.000Z</time></trkpt><trkpt lon="5.851747" lat="51.172975"><ele>-10.2</ele><time>2022-06-19T09:18:28.000Z</time></trkpt><trkpt lon="5.851629" lat="51.172941"><ele>-10.4</ele><time>2022-06-19T09:18:29.000Z</time></trkpt><trkpt lon="5.851511" lat="51.172906"><ele>-10.4</ele><time>2022-06-19T09:18:30.000Z</time></trkpt><trkpt lon="5.851397" lat="51.172868"><ele>-10.4</ele><time>2022-06-19T09:18:31.000Z</time></trkpt><trkpt lon="5.851279" lat="51.172837"><ele>-10.6</ele><time>2022-06-19T09:18:32.000Z</time></trkpt><trkpt lon="5.85116" lat="51.172806"><ele>-10.6</ele><time>2022-06-19T09:18:33.000Z</time></trkpt><trkpt lon="5.85104" lat="51.172776"><ele>-10.8</ele><time>2022-06-19T09:18:34.000Z</time></trkpt><trkpt lon="5.850923" lat="51.172746"><ele>-10.8</ele><time>2022-06-19T09:18:35.000Z</time></trkpt><trkpt lon="5.8508" lat="51.172711"><ele>-10.8</ele><time>2022-06-19T09:18:36.000Z</time></trkpt><trkpt lon="5.850684" lat="51.172681"><ele>-10.8</ele><time>2022-06-19T09:18:37.000Z</time></trkpt><trkpt lon="5.850572" lat="51.172654"><ele>-10.8</ele><time>2022-06-19T09:18:38.000Z</time></trkpt><trkpt lon="5.850456" lat="51.172621"><ele>-10.6</ele><time>2022-06-19T09:18:39.000Z</time></trkpt><trkpt lon="5.850336" lat="51.172593"><ele>-10.6</ele><time>2022-06-19T09:18:40.000Z</time></trkpt><trkpt lon="5.850221" lat="51.172567"><ele>-10.6</ele><time>2022-06-19T09:18:41.000Z</time></trkpt><trkpt lon="5.850101" lat="51.172551"><ele>-10.4</ele><time>2022-06-19T09:18:42.000Z</time></trkpt><trkpt lon="5.849979" lat="51.172535"><ele>-10.4</ele><time>2022-06-19T09:18:43.000Z</time></trkpt><trkpt lon="5.849857" lat="51.172531"><ele>-10.6</ele><time>2022-06-19T09:18:44.000Z</time></trkpt><trkpt lon="5.849725" lat="51.172527"><ele>-10.6</ele><time>2022-06-19T09:18:45.000Z</time></trkpt><trkpt lon="5.84959" lat="51.172524"><ele>-10.6</ele><time>2022-06-19T09:18:46.000Z</time></trkpt><trkpt lon="5.849457" lat="51.17252"><ele>-10.6</ele><time>2022-06-19T09:18:47.000Z</time></trkpt><trkpt lon="5.849329" lat="51.172516"><ele>-10.6</ele><time>2022-06-19T09:18:48.000Z</time></trkpt><trkpt lon="5.849198" lat="51.172512"><ele>-10.6</ele><time>2022-06-19T09:18:49.000Z</time></trkpt><trkpt lon="5.849074" lat="51.172508"><ele>-10.4</ele><time>2022-06-19T09:18:50.000Z</time></trkpt><trkpt lon="5.848962" lat="51.172505"><ele>-10.4</ele><time>2022-06-19T09:18:51.000Z</time></trkpt><trkpt lon="5.848839" lat="51.172501"><ele>-10.2</ele><time>2022-06-19T09:18:52.000Z</time></trkpt><trkpt lon="5.848723" lat="51.172497"><ele>-10.2</ele><time>2022-06-19T09:18:53.000Z</time></trkpt><trkpt lon="5.848598" lat="51.172493"><ele>-10</ele><time>2022-06-19T09:18:54.000Z</time></trkpt><trkpt lon="5.848476" lat="51.172486"><ele>-10</ele><time>2022-06-19T09:18:55.000Z</time></trkpt><trkpt lon="5.848354" lat="51.172474"><ele>-10</ele><time>2022-06-19T09:18:56.000Z</time></trkpt><trkpt lon="5.848233" lat="51.172463"><ele>-9.8</ele><time>2022-06-19T09:18:57.000Z</time></trkpt><trkpt lon="5.848111" lat="51.172451"><ele>-9.8</ele><time>2022-06-19T09:18:58.000Z</time></trkpt><trkpt lon="5.847987" lat="51.172433"><ele>-9.8</ele><time>2022-06-19T09:18:59.000Z</time></trkpt><trkpt lon="5.847866" lat="51.172417"><ele>-9.8</ele><time>2022-06-19T09:19:00.000Z</time></trkpt><trkpt lon="5.847751" lat="51.172399"><ele>-9.8</ele><time>2022-06-19T09:19:01.000Z</time></trkpt><trkpt lon="5.847631" lat="51.172379"><ele>-9.8</ele><time>2022-06-19T09:19:02.000Z</time></trkpt><trkpt lon="5.847516" lat="51.172356"><ele>-9.8</ele><time>2022-06-19T09:19:03.000Z</time></trkpt><trkpt lon="5.847401" lat="51.172333"><ele>-9.8</ele><time>2022-06-19T09:19:04.000Z</time></trkpt><trkpt lon="5.847285" lat="51.172311"><ele>-9.8</ele><time>2022-06-19T09:19:05.000Z</time></trkpt><trkpt lon="5.84717" lat="51.17228"><ele>-9.8</ele><time>2022-06-19T09:19:06.000Z</time></trkpt><trkpt lon="5.847058" lat="51.17225"><ele>-9.8</ele><time>2022-06-19T09:19:07.000Z</time></trkpt><trkpt lon="5.846948" lat="51.17222"><ele>-9.8</ele><time>2022-06-19T09:19:08.000Z</time></trkpt><trkpt lon="5.846829" lat="51.172185"><ele>-9.8</ele><time>2022-06-19T09:19:09.000Z</time></trkpt><trkpt lon="5.846716" lat="51.172155"><ele>-9.8</ele><time>2022-06-19T09:19:10.000Z</time></trkpt><trkpt lon="5.846605" lat="51.172113"><ele>-9.8</ele><time>2022-06-19T09:19:11.000Z</time></trkpt><trkpt lon="5.846493" lat="51.172075"><ele>-9.8</ele><time>2022-06-19T09:19:12.000Z</time></trkpt><trkpt lon="5.846381" lat="51.172036"><ele>-9.6</ele><time>2022-06-19T09:19:13.000Z</time></trkpt><trkpt lon="5.846275" lat="51.171992"><ele>-9.6</ele><time>2022-06-19T09:19:14.000Z</time></trkpt><trkpt lon="5.846163" lat="51.171949"><ele>-9.8</ele><time>2022-06-19T09:19:15.000Z</time></trkpt><trkpt lon="5.846057" lat="51.171907"><ele>-9.6</ele><time>2022-06-19T09:19:16.000Z</time></trkpt><trkpt lon="5.845949" lat="51.171864"><ele>-9.8</ele><time>2022-06-19T09:19:17.000Z</time></trkpt><trkpt lon="5.845842" lat="51.171823"><ele>-10</ele><time>2022-06-19T09:19:18.000Z</time></trkpt><trkpt lon="5.845728" lat="51.171788"><ele>-10</ele><time>2022-06-19T09:19:19.000Z</time></trkpt><trkpt lon="5.84561" lat="51.171761"><ele>-10</ele><time>2022-06-19T09:19:20.000Z</time></trkpt><trkpt lon="5.845489" lat="51.171746"><ele>-10</ele><time>2022-06-19T09:19:21.000Z</time></trkpt><trkpt lon="5.845368" lat="51.171738"><ele>-10.2</ele><time>2022-06-19T09:19:22.000Z</time></trkpt><trkpt lon="5.845241" lat="51.171738"><ele>-10.2</ele><time>2022-06-19T09:19:23.000Z</time></trkpt><trkpt lon="5.84512" lat="51.171749"><ele>-10.2</ele><time>2022-06-19T09:19:24.000Z</time></trkpt><trkpt lon="5.844996" lat="51.171764"><ele>-10.2</ele><time>2022-06-19T09:19:25.000Z</time></trkpt><trkpt lon="5.844876" lat="51.171783"><ele>-10.2</ele><time>2022-06-19T09:19:26.000Z</time></trkpt><trkpt lon="5.844753" lat="51.171802"><ele>-10.2</ele><time>2022-06-19T09:19:27.000Z</time></trkpt><trkpt lon="5.844628" lat="51.171821"><ele>-10.4</ele><time>2022-06-19T09:19:28.000Z</time></trkpt><trkpt lon="5.844505" lat="51.17184"><ele>-10.4</ele><time>2022-06-19T09:19:29.000Z</time></trkpt><trkpt lon="5.844416" lat="51.171851"><ele>-10.4</ele><time>2022-06-19T09:19:30.000Z</time></trkpt><trkpt lon="5.844271" lat="51.171863"><ele>-10.4</ele><time>2022-06-19T09:19:31.000Z</time></trkpt><trkpt lon="5.844135" lat="51.17186"><ele>-10.2</ele><time>2022-06-19T09:19:32.000Z</time></trkpt><trkpt lon="5.844013" lat="51.171852"><ele>-10.2</ele><time>2022-06-19T09:19:33.000Z</time></trkpt><trkpt lon="5.843891" lat="51.171845"><ele>-10</ele><time>2022-06-19T09:19:34.000Z</time></trkpt><trkpt lon="5.843766" lat="51.171837"><ele>-10</ele><time>2022-06-19T09:19:35.000Z</time></trkpt><trkpt lon="5.843647" lat="51.171826"><ele>-9.8</ele><time>2022-06-19T09:19:36.000Z</time></trkpt><trkpt lon="5.843526" lat="51.171814"><ele>-9.8</ele><time>2022-06-19T09:19:37.000Z</time></trkpt><trkpt lon="5.843406" lat="51.171803"><ele>-9.6</ele><time>2022-06-19T09:19:38.000Z</time></trkpt><trkpt lon="5.843285" lat="51.171795"><ele>-9.6</ele><time>2022-06-19T09:19:39.000Z</time></trkpt><trkpt lon="5.843171" lat="51.171784"><ele>-9.6</ele><time>2022-06-19T09:19:40.000Z</time></trkpt><trkpt lon="5.843049" lat="51.171769"><ele>-9.6</ele><time>2022-06-19T09:19:41.000Z</time></trkpt><trkpt lon="5.84293" lat="51.171757"><ele>-9.4</ele><time>2022-06-19T09:19:42.000Z</time></trkpt><trkpt lon="5.842816" lat="51.171742"><ele>-9.4</ele><time>2022-06-19T09:19:43.000Z</time></trkpt><trkpt lon="5.842704" lat="51.171727"><ele>-9.4</ele><time>2022-06-19T09:19:44.000Z</time></trkpt><trkpt lon="5.842594" lat="51.171715"><ele>-9.4</ele><time>2022-06-19T09:19:45.000Z</time></trkpt><trkpt lon="5.842495" lat="51.171701"><ele>-9.2</ele><time>2022-06-19T09:19:46.000Z</time></trkpt><trkpt lon="5.842392" lat="51.171688"><ele>-9.2</ele><time>2022-06-19T09:19:47.000Z</time></trkpt><trkpt lon="5.842298" lat="51.171674"><ele>-9.2</ele><time>2022-06-19T09:19:48.000Z</time></trkpt><trkpt lon="5.842206" lat="51.171662"><ele>-9</ele><time>2022-06-19T09:19:49.000Z</time></trkpt><trkpt lon="5.84211" lat="51.171647"><ele>-9</ele><time>2022-06-19T09:19:50.000Z</time></trkpt><trkpt lon="5.842022" lat="51.171635"><ele>-9</ele><time>2022-06-19T09:19:51.000Z</time></trkpt><trkpt lon="5.841941" lat="51.17162"><ele>-8.8</ele><time>2022-06-19T09:19:52.000Z</time></trkpt><trkpt lon="5.841872" lat="51.171608"><ele>-8.8</ele><time>2022-06-19T09:19:53.000Z</time></trkpt><trkpt lon="5.841818" lat="51.171597"><ele>-8.6</ele><time>2022-06-19T09:19:54.000Z</time></trkpt><trkpt lon="5.841779" lat="51.171585"><ele>-8.6</ele><time>2022-06-19T09:19:55.000Z</time></trkpt><trkpt lon="5.841754" lat="51.171578"><ele>-8.4</ele><time>2022-06-19T09:19:56.000Z</time></trkpt><trkpt lon="5.841731" lat="51.171574"><ele>-8.4</ele><time>2022-06-19T09:19:57.000Z</time></trkpt><trkpt lon="5.841712" lat="51.171581"><ele>-8.4</ele><time>2022-06-19T09:19:58.000Z</time></trkpt><trkpt lon="5.841701" lat="51.171592"><ele>-8.4</ele><time>2022-06-19T09:19:59.000Z</time></trkpt><trkpt lon="5.841685" lat="51.171611"><ele>-8.2</ele><time>2022-06-19T09:20:00.000Z</time></trkpt><trkpt lon="5.841665" lat="51.171634"><ele>-8.2</ele><time>2022-06-19T09:20:01.000Z</time></trkpt><trkpt lon="5.841638" lat="51.171657"><ele>-8.2</ele><time>2022-06-19T09:20:02.000Z</time></trkpt><trkpt lon="5.841604" lat="51.171684"><ele>-8.2</ele><time>2022-06-19T09:20:03.000Z</time></trkpt><trkpt lon="5.841571" lat="51.171717"><ele>-8.2</ele><time>2022-06-19T09:20:04.000Z</time></trkpt><trkpt lon="5.841546" lat="51.171756"><ele>-8.4</ele><time>2022-06-19T09:20:05.000Z</time></trkpt><trkpt lon="5.841516" lat="51.171801"><ele>-8.6</ele><time>2022-06-19T09:20:06.000Z</time></trkpt><trkpt lon="5.841484" lat="51.171854"><ele>-8.6</ele><time>2022-06-19T09:20:07.000Z</time></trkpt><trkpt lon="5.841447" lat="51.171911"><ele>-8.8</ele><time>2022-06-19T09:20:08.000Z</time></trkpt><trkpt lon="5.841406" lat="51.171973"><ele>-8.8</ele><time>2022-06-19T09:20:09.000Z</time></trkpt><trkpt lon="5.841365" lat="51.172033"><ele>-8.8</ele><time>2022-06-19T09:20:10.000Z</time></trkpt><trkpt lon="5.841325" lat="51.172101"><ele>-9</ele><time>2022-06-19T09:20:11.000Z</time></trkpt><trkpt lon="5.841288" lat="51.172166"><ele>-9</ele><time>2022-06-19T09:20:12.000Z</time></trkpt><trkpt lon="5.841251" lat="51.172236"><ele>-9</ele><time>2022-06-19T09:20:13.000Z</time></trkpt><trkpt lon="5.841216" lat="51.172304"><ele>-9</ele><time>2022-06-19T09:20:14.000Z</time></trkpt><trkpt lon="5.841185" lat="51.172371"><ele>-9</ele><time>2022-06-19T09:20:15.000Z</time></trkpt><trkpt lon="5.841156" lat="51.17244"><ele>-9.2</ele><time>2022-06-19T09:20:16.000Z</time></trkpt><trkpt lon="5.84113" lat="51.172514"><ele>-9.4</ele><time>2022-06-19T09:20:17.000Z</time></trkpt><trkpt lon="5.841106" lat="51.172583"><ele>-9.2</ele><time>2022-06-19T09:20:18.000Z</time></trkpt><trkpt lon="5.841084" lat="51.172651"><ele>-9.2</ele><time>2022-06-19T09:20:19.000Z</time></trkpt><trkpt lon="5.841061" lat="51.172724"><ele>-9</ele><time>2022-06-19T09:20:20.000Z</time></trkpt><trkpt lon="5.841039" lat="51.172797"><ele>-9</ele><time>2022-06-19T09:20:21.000Z</time></trkpt><trkpt lon="5.841017" lat="51.172872"><ele>-9.2</ele><time>2022-06-19T09:20:22.000Z</time></trkpt><trkpt lon="5.840995" lat="51.172945"><ele>-9.2</ele><time>2022-06-19T09:20:23.000Z</time></trkpt><trkpt lon="5.840973" lat="51.17302"><ele>-9.2</ele><time>2022-06-19T09:20:24.000Z</time></trkpt><trkpt lon="5.840949" lat="51.173098"><ele>-9.2</ele><time>2022-06-19T09:20:25.000Z</time></trkpt><trkpt lon="5.840926" lat="51.173174"><ele>-9.2</ele><time>2022-06-19T09:20:26.000Z</time></trkpt><trkpt lon="5.840902" lat="51.173247"><ele>-9.4</ele><time>2022-06-19T09:20:27.000Z</time></trkpt><trkpt lon="5.840876" lat="51.173323"><ele>-9.4</ele><time>2022-06-19T09:20:28.000Z</time></trkpt><trkpt lon="5.840846" lat="51.173396"><ele>-9.4</ele><time>2022-06-19T09:20:29.000Z</time></trkpt><trkpt lon="5.840808" lat="51.173471"><ele>-9.6</ele><time>2022-06-19T09:20:30.000Z</time></trkpt><trkpt lon="5.840763" lat="51.173544"><ele>-9.6</ele><time>2022-06-19T09:20:31.000Z</time></trkpt><trkpt lon="5.840712" lat="51.173617"><ele>-9.8</ele><time>2022-06-19T09:20:32.000Z</time></trkpt><trkpt lon="5.840656" lat="51.17368"><ele>-9.8</ele><time>2022-06-19T09:20:33.000Z</time></trkpt><trkpt lon="5.840591" lat="51.173749"><ele>-9.8</ele><time>2022-06-19T09:20:34.000Z</time></trkpt><trkpt lon="5.84052" lat="51.173815"><ele>-9.6</ele><time>2022-06-19T09:20:35.000Z</time></trkpt><trkpt lon="5.840451" lat="51.173876"><ele>-9.6</ele><time>2022-06-19T09:20:36.000Z</time></trkpt><trkpt lon="5.840378" lat="51.173937"><ele>-9.6</ele><time>2022-06-19T09:20:37.000Z</time></trkpt><trkpt lon="5.840299" lat="51.173994"><ele>-9.6</ele><time>2022-06-19T09:20:38.000Z</time></trkpt><trkpt lon="5.840215" lat="51.174048"><ele>-9.6</ele><time>2022-06-19T09:20:39.000Z</time></trkpt><trkpt lon="5.840129" lat="51.174101"><ele>-9.8</ele><time>2022-06-19T09:20:40.000Z</time></trkpt><trkpt lon="5.840038" lat="51.174147"><ele>-9.8</ele><time>2022-06-19T09:20:41.000Z</time></trkpt><trkpt lon="5.839944" lat="51.174197"><ele>-10</ele><time>2022-06-19T09:20:42.000Z</time></trkpt><trkpt lon="5.839848" lat="51.174239"><ele>-10.2</ele><time>2022-06-19T09:20:43.000Z</time></trkpt><trkpt lon="5.839752" lat="51.174277"><ele>-10.4</ele><time>2022-06-19T09:20:44.000Z</time></trkpt><trkpt lon="5.839655" lat="51.174312"><ele>-10.4</ele><time>2022-06-19T09:20:45.000Z</time></trkpt><trkpt lon="5.839557" lat="51.174346"><ele>-10.4</ele><time>2022-06-19T09:20:46.000Z</time></trkpt><trkpt lon="5.839457" lat="51.174381"><ele>-10.6</ele><time>2022-06-19T09:20:47.000Z</time></trkpt><trkpt lon="5.839355" lat="51.174411"><ele>-10.6</ele><time>2022-06-19T09:20:48.000Z</time></trkpt><trkpt lon="5.839254" lat="51.174442"><ele>-10.4</ele><time>2022-06-19T09:20:49.000Z</time></trkpt><trkpt lon="5.839152" lat="51.174476"><ele>-10.4</ele><time>2022-06-19T09:20:50.000Z</time></trkpt><trkpt lon="5.839053" lat="51.174505"><ele>-10.4</ele><time>2022-06-19T09:20:51.000Z</time></trkpt><trkpt lon="5.838944" lat="51.174544"><ele>-10.2</ele><time>2022-06-19T09:20:52.000Z</time></trkpt><trkpt lon="5.838841" lat="51.174586"><ele>-10.2</ele><time>2022-06-19T09:20:53.000Z</time></trkpt><trkpt lon="5.838741" lat="51.174628"><ele>-10.2</ele><time>2022-06-19T09:20:54.000Z</time></trkpt><trkpt lon="5.838649" lat="51.174669"><ele>-10.2</ele><time>2022-06-19T09:20:55.000Z</time></trkpt><trkpt lon="5.838563" lat="51.174713"><ele>-10</ele><time>2022-06-19T09:20:56.000Z</time></trkpt><trkpt lon="5.838472" lat="51.174765"><ele>-10</ele><time>2022-06-19T09:20:57.000Z</time></trkpt><trkpt lon="5.838388" lat="51.174811"><ele>-10</ele><time>2022-06-19T09:20:58.000Z</time></trkpt><trkpt lon="5.83831" lat="51.17486"><ele>-10</ele><time>2022-06-19T09:20:59.000Z</time></trkpt><trkpt lon="5.838234" lat="51.174906"><ele>-10</ele><time>2022-06-19T09:21:00.000Z</time></trkpt><trkpt lon="5.83816" lat="51.174953"><ele>-10</ele><time>2022-06-19T09:21:01.000Z</time></trkpt><trkpt lon="5.83809" lat="51.174995"><ele>-10</ele><time>2022-06-19T09:21:02.000Z</time></trkpt><trkpt lon="5.838021" lat="51.175036"><ele>-9.8</ele><time>2022-06-19T09:21:03.000Z</time></trkpt><trkpt lon="5.837957" lat="51.175078"><ele>-9.8</ele><time>2022-06-19T09:21:04.000Z</time></trkpt><trkpt lon="5.837895" lat="51.175113"><ele>-9.8</ele><time>2022-06-19T09:21:05.000Z</time></trkpt><trkpt lon="5.83784" lat="51.175147"><ele>-9.8</ele><time>2022-06-19T09:21:06.000Z</time></trkpt><trkpt lon="5.837795" lat="51.175177"><ele>-9.6</ele><time>2022-06-19T09:21:07.000Z</time></trkpt><trkpt lon="5.837759" lat="51.175201"><ele>-9.6</ele><time>2022-06-19T09:21:08.000Z</time></trkpt><trkpt lon="5.837734" lat="51.17522"><ele>-9.4</ele><time>2022-06-19T09:21:09.000Z</time></trkpt><trkpt lon="5.837717" lat="51.175239"><ele>-9.4</ele><time>2022-06-19T09:21:10.000Z</time></trkpt><trkpt lon="5.837712" lat="51.175262"><ele>-9.2</ele><time>2022-06-19T09:21:11.000Z</time></trkpt><trkpt lon="5.837728" lat="51.175288"><ele>-9</ele><time>2022-06-19T09:21:12.000Z</time></trkpt><trkpt lon="5.837759" lat="51.175311"><ele>-9</ele><time>2022-06-19T09:21:13.000Z</time></trkpt><trkpt lon="5.837797" lat="51.175334"><ele>-9</ele><time>2022-06-19T09:21:14.000Z</time></trkpt><trkpt lon="5.837836" lat="51.175357"><ele>-9</ele><time>2022-06-19T09:21:15.000Z</time></trkpt><trkpt lon="5.837873" lat="51.17538"><ele>-9</ele><time>2022-06-19T09:21:16.000Z</time></trkpt><trkpt lon="5.837903" lat="51.175403"><ele>-9</ele><time>2022-06-19T09:21:17.000Z</time></trkpt><trkpt lon="5.837916" lat="51.175422"><ele>-9.2</ele><time>2022-06-19T09:21:18.000Z</time></trkpt><trkpt lon="5.83791" lat="51.175441"><ele>-9.2</ele><time>2022-06-19T09:21:19.000Z</time></trkpt><trkpt lon="5.837892" lat="51.175453"><ele>-9.2</ele><time>2022-06-19T09:21:20.000Z</time></trkpt><trkpt lon="5.837872" lat="51.175468"><ele>-9.2</ele><time>2022-06-19T09:21:21.000Z</time></trkpt><trkpt lon="5.837852" lat="51.175487"><ele>-9</ele><time>2022-06-19T09:21:22.000Z</time></trkpt><trkpt lon="5.837829" lat="51.17551"><ele>-9</ele><time>2022-06-19T09:21:23.000Z</time></trkpt><trkpt lon="5.837804" lat="51.175533"><ele>-9</ele><time>2022-06-19T09:21:24.000Z</time></trkpt><trkpt lon="5.837777" lat="51.175556"><ele>-9</ele><time>2022-06-19T09:21:25.000Z</time></trkpt><trkpt lon="5.837737" lat="51.175575"><ele>-9</ele><time>2022-06-19T09:21:26.000Z</time></trkpt><trkpt lon="5.837688" lat="51.175575"><ele>-9</ele><time>2022-06-19T09:21:27.000Z</time></trkpt><trkpt lon="5.837632" lat="51.175568"><ele>-9</ele><time>2022-06-19T09:21:28.000Z</time></trkpt><trkpt lon="5.837569" lat="51.175564"><ele>-9.2</ele><time>2022-06-19T09:21:29.000Z</time></trkpt><trkpt lon="5.837505" lat="51.175575"><ele>-9.2</ele><time>2022-06-19T09:21:30.000Z</time></trkpt><trkpt lon="5.837442" lat="51.175594"><ele>-9.2</ele><time>2022-06-19T09:21:31.000Z</time></trkpt><trkpt lon="5.83739" lat="51.175619"><ele>-9.2</ele><time>2022-06-19T09:21:32.000Z</time></trkpt><trkpt lon="5.837346" lat="51.175651"><ele>-9.2</ele><time>2022-06-19T09:21:33.000Z</time></trkpt><trkpt lon="5.837306" lat="51.175685"><ele>-9.2</ele><time>2022-06-19T09:21:34.000Z</time></trkpt><trkpt lon="5.837261" lat="51.175712"><ele>-9.2</ele><time>2022-06-19T09:21:35.000Z</time></trkpt><trkpt lon="5.837203" lat="51.175731"><ele>-9.2</ele><time>2022-06-19T09:21:36.000Z</time></trkpt><trkpt lon="5.837134" lat="51.175732"><ele>-9.2</ele><time>2022-06-19T09:21:37.000Z</time></trkpt><trkpt lon="5.837061" lat="51.175717"><ele>-9.2</ele><time>2022-06-19T09:21:38.000Z</time></trkpt><trkpt lon="5.836988" lat="51.17569"><ele>-9.2</ele><time>2022-06-19T09:21:39.000Z</time></trkpt><trkpt lon="5.836907" lat="51.175653"><ele>-9.2</ele><time>2022-06-19T09:21:40.000Z</time></trkpt><trkpt lon="5.836823" lat="51.175615"><ele>-9.2</ele><time>2022-06-19T09:21:41.000Z</time></trkpt><trkpt lon="5.836731" lat="51.175576"><ele>-9.2</ele><time>2022-06-19T09:21:42.000Z</time></trkpt><trkpt lon="5.836635" lat="51.175534"><ele>-9.2</ele><time>2022-06-19T09:21:43.000Z</time></trkpt><trkpt lon="5.836539" lat="51.175496"><ele>-9.2</ele><time>2022-06-19T09:21:44.000Z</time></trkpt><trkpt lon="5.836439" lat="51.175454"><ele>-9</ele><time>2022-06-19T09:21:45.000Z</time></trkpt><trkpt lon="5.836341" lat="51.175408"><ele>-9</ele><time>2022-06-19T09:21:46.000Z</time></trkpt><trkpt lon="5.836239" lat="51.175366"><ele>-9</ele><time>2022-06-19T09:21:47.000Z</time></trkpt><trkpt lon="5.836137" lat="51.175324"><ele>-9</ele><time>2022-06-19T09:21:48.000Z</time></trkpt><trkpt lon="5.836034" lat="51.175279"><ele>-9</ele><time>2022-06-19T09:21:49.000Z</time></trkpt><trkpt lon="5.835932" lat="51.175236"><ele>-9</ele><time>2022-06-19T09:21:50.000Z</time></trkpt><trkpt lon="5.83583" lat="51.175195"><ele>-9.2</ele><time>2022-06-19T09:21:51.000Z</time></trkpt><trkpt lon="5.835729" lat="51.175154"><ele>-9.2</ele><time>2022-06-19T09:21:52.000Z</time></trkpt><trkpt lon="5.835625" lat="51.175107"><ele>-9.2</ele><time>2022-06-19T09:21:53.000Z</time></trkpt><trkpt lon="5.835527" lat="51.175058"><ele>-9</ele><time>2022-06-19T09:21:54.000Z</time></trkpt><trkpt lon="5.835428" lat="51.175017"><ele>-9</ele><time>2022-06-19T09:21:55.000Z</time></trkpt><trkpt lon="5.835329" lat="51.174973"><ele>-9</ele><time>2022-06-19T09:21:56.000Z</time></trkpt><trkpt lon="5.835222" lat="51.174928"><ele>-9</ele><time>2022-06-19T09:21:57.000Z</time></trkpt><trkpt lon="5.835125" lat="51.174879"><ele>-9</ele><time>2022-06-19T09:21:58.000Z</time></trkpt><trkpt lon="5.835029" lat="51.174832"><ele>-9</ele><time>2022-06-19T09:21:59.000Z</time></trkpt><trkpt lon="5.834946" lat="51.17478"><ele>-9</ele><time>2022-06-19T09:22:00.000Z</time></trkpt><trkpt lon="5.834863" lat="51.174722"><ele>-9</ele><time>2022-06-19T09:22:01.000Z</time></trkpt><trkpt lon="5.834787" lat="51.174662"><ele>-9</ele><time>2022-06-19T09:22:02.000Z</time></trkpt><trkpt lon="5.834707" lat="51.174604"><ele>-9</ele><time>2022-06-19T09:22:03.000Z</time></trkpt><trkpt lon="5.834615" lat="51.174554"><ele>-9</ele><time>2022-06-19T09:22:04.000Z</time></trkpt><trkpt lon="5.834515" lat="51.174508"><ele>-9</ele><time>2022-06-19T09:22:05.000Z</time></trkpt><trkpt lon="5.834414" lat="51.174467"><ele>-8.8</ele><time>2022-06-19T09:22:06.000Z</time></trkpt><trkpt lon="5.834307" lat="51.174424"><ele>-8.8</ele><time>2022-06-19T09:22:07.000Z</time></trkpt><trkpt lon="5.834204" lat="51.17438"><ele>-8.8</ele><time>2022-06-19T09:22:08.000Z</time></trkpt><trkpt lon="5.834102" lat="51.174333"><ele>-8.8</ele><time>2022-06-19T09:22:09.000Z</time></trkpt><trkpt lon="5.833999" lat="51.174291"><ele>-8.8</ele><time>2022-06-19T09:22:10.000Z</time></trkpt><trkpt lon="5.833897" lat="51.174249"><ele>-8.8</ele><time>2022-06-19T09:22:11.000Z</time></trkpt><trkpt lon="5.83379" lat="51.174203"><ele>-8.8</ele><time>2022-06-19T09:22:12.000Z</time></trkpt><trkpt lon="5.833687" lat="51.174161"><ele>-8.8</ele><time>2022-06-19T09:22:13.000Z</time></trkpt><trkpt lon="5.833585" lat="51.174116"><ele>-8.6</ele><time>2022-06-19T09:22:14.000Z</time></trkpt><trkpt lon="5.833478" lat="51.17407"><ele>-8.6</ele><time>2022-06-19T09:22:15.000Z</time></trkpt><trkpt lon="5.833378" lat="51.174028"><ele>-8.6</ele><time>2022-06-19T09:22:16.000Z</time></trkpt><trkpt lon="5.833277" lat="51.173982"><ele>-8.8</ele><time>2022-06-19T09:22:17.000Z</time></trkpt><trkpt lon="5.833181" lat="51.173939"><ele>-9</ele><time>2022-06-19T09:22:18.000Z</time></trkpt><trkpt lon="5.833076" lat="51.173894"><ele>-9</ele><time>2022-06-19T09:22:19.000Z</time></trkpt><trkpt lon="5.832975" lat="51.173845"><ele>-9</ele><time>2022-06-19T09:22:20.000Z</time></trkpt><trkpt lon="5.832873" lat="51.173803"><ele>-9</ele><time>2022-06-19T09:22:21.000Z</time></trkpt><trkpt lon="5.832772" lat="51.173757"><ele>-9</ele><time>2022-06-19T09:22:22.000Z</time></trkpt><trkpt lon="5.83267" lat="51.173711"><ele>-9</ele><time>2022-06-19T09:22:23.000Z</time></trkpt><trkpt lon="5.832576" lat="51.173668"><ele>-8.8</ele><time>2022-06-19T09:22:24.000Z</time></trkpt><trkpt lon="5.832472" lat="51.173621"><ele>-8.8</ele><time>2022-06-19T09:22:25.000Z</time></trkpt><trkpt lon="5.832368" lat="51.173578"><ele>-8.8</ele><time>2022-06-19T09:22:26.000Z</time></trkpt><trkpt lon="5.832267" lat="51.173532"><ele>-8.8</ele><time>2022-06-19T09:22:27.000Z</time></trkpt><trkpt lon="5.832166" lat="51.17349"><ele>-9</ele><time>2022-06-19T09:22:28.000Z</time></trkpt><trkpt lon="5.832067" lat="51.173448"><ele>-9.2</ele><time>2022-06-19T09:22:29.000Z</time></trkpt><trkpt lon="5.831973" lat="51.173408"><ele>-9.4</ele><time>2022-06-19T09:22:30.000Z</time></trkpt><trkpt lon="5.831869" lat="51.17336"><ele>-9.2</ele><time>2022-06-19T09:22:31.000Z</time></trkpt><trkpt lon="5.831772" lat="51.173318"><ele>-9.2</ele><time>2022-06-19T09:22:32.000Z</time></trkpt><trkpt lon="5.831674" lat="51.173276"><ele>-9.2</ele><time>2022-06-19T09:22:33.000Z</time></trkpt><trkpt lon="5.831576" lat="51.173236"><ele>-9</ele><time>2022-06-19T09:22:34.000Z</time></trkpt><trkpt lon="5.831476" lat="51.173192"><ele>-9</ele><time>2022-06-19T09:22:35.000Z</time></trkpt><trkpt lon="5.831378" lat="51.173154"><ele>-9</ele><time>2022-06-19T09:22:36.000Z</time></trkpt><trkpt lon="5.831283" lat="51.173112"><ele>-9</ele><time>2022-06-19T09:22:37.000Z</time></trkpt><trkpt lon="5.831193" lat="51.173075"><ele>-8.8</ele><time>2022-06-19T09:22:38.000Z</time></trkpt><trkpt lon="5.831098" lat="51.17304"><ele>-9</ele><time>2022-06-19T09:22:39.000Z</time></trkpt><trkpt lon="5.831005" lat="51.172998"><ele>-9</ele><time>2022-06-19T09:22:40.000Z</time></trkpt><trkpt lon="5.830921" lat="51.172963"><ele>-9</ele><time>2022-06-19T09:22:41.000Z</time></trkpt><trkpt lon="5.830841" lat="51.172933"><ele>-9</ele><time>2022-06-19T09:22:42.000Z</time></trkpt><trkpt lon="5.830762" lat="51.172906"><ele>-9</ele><time>2022-06-19T09:22:43.000Z</time></trkpt><trkpt lon="5.83068" lat="51.172894"><ele>-9</ele><time>2022-06-19T09:22:44.000Z</time></trkpt><trkpt lon="5.830605" lat="51.172893"><ele>-9</ele><time>2022-06-19T09:22:45.000Z</time></trkpt><trkpt lon="5.83055" lat="51.172924"><ele>-9</ele><time>2022-06-19T09:22:46.000Z</time></trkpt><trkpt lon="5.830493" lat="51.172976"><ele>-9</ele><time>2022-06-19T09:22:47.000Z</time></trkpt><trkpt lon="5.830445" lat="51.173029"><ele>-9</ele><time>2022-06-19T09:22:48.000Z</time></trkpt><trkpt lon="5.830401" lat="51.173087"><ele>-9.2</ele><time>2022-06-19T09:22:49.000Z</time></trkpt><trkpt lon="5.830362" lat="51.173141"><ele>-9.2</ele><time>2022-06-19T09:22:50.000Z</time></trkpt><trkpt lon="5.830314" lat="51.173207"><ele>-9.2</ele><time>2022-06-19T09:22:51.000Z</time></trkpt><trkpt lon="5.830261" lat="51.173269"><ele>-9</ele><time>2022-06-19T09:22:52.000Z</time></trkpt><trkpt lon="5.83021" lat="51.173327"><ele>-9</ele><time>2022-06-19T09:22:53.000Z</time></trkpt><trkpt lon="5.830168" lat="51.173375"><ele>-9</ele><time>2022-06-19T09:22:54.000Z</time></trkpt><trkpt lon="5.830108" lat="51.173445"><ele>-9</ele><time>2022-06-19T09:22:55.000Z</time></trkpt><trkpt lon="5.830055" lat="51.173509"><ele>-8.8</ele><time>2022-06-19T09:22:56.000Z</time></trkpt><trkpt lon="5.830007" lat="51.173575"><ele>-8.6</ele><time>2022-06-19T09:22:57.000Z</time></trkpt><trkpt lon="5.829962" lat="51.173627"><ele>-8.6</ele><time>2022-06-19T09:22:58.000Z</time></trkpt><trkpt lon="5.829911" lat="51.173693"><ele>-8.4</ele><time>2022-06-19T09:22:59.000Z</time></trkpt><trkpt lon="5.829867" lat="51.173742"><ele>-8.4</ele><time>2022-06-19T09:23:00.000Z</time></trkpt><trkpt lon="5.829812" lat="51.173796"><ele>-8.4</ele><time>2022-06-19T09:23:01.000Z</time></trkpt><trkpt lon="5.82975" lat="51.173841"><ele>-8.4</ele><time>2022-06-19T09:23:02.000Z</time></trkpt><trkpt lon="5.82967" lat="51.173869"><ele>-8.4</ele><time>2022-06-19T09:23:03.000Z</time></trkpt><trkpt lon="5.829583" lat="51.173881"><ele>-8.4</ele><time>2022-06-19T09:23:04.000Z</time></trkpt><trkpt lon="5.829483" lat="51.173882"><ele>-8.6</ele><time>2022-06-19T09:23:05.000Z</time></trkpt><trkpt lon="5.82939" lat="51.173871"><ele>-8.8</ele><time>2022-06-19T09:23:06.000Z</time></trkpt><trkpt lon="5.829277" lat="51.173855"><ele>-8.8</ele><time>2022-06-19T09:23:07.000Z</time></trkpt><trkpt lon="5.829172" lat="51.173834"><ele>-8.8</ele><time>2022-06-19T09:23:08.000Z</time></trkpt><trkpt lon="5.829055" lat="51.173813"><ele>-8.8</ele><time>2022-06-19T09:23:09.000Z</time></trkpt><trkpt lon="5.828946" lat="51.173792"><ele>-8.8</ele><time>2022-06-19T09:23:10.000Z</time></trkpt><trkpt lon="5.828828" lat="51.173768"><ele>-8.6</ele><time>2022-06-19T09:23:11.000Z</time></trkpt><trkpt lon="5.828715" lat="51.173749"><ele>-8.6</ele><time>2022-06-19T09:23:12.000Z</time></trkpt><trkpt lon="5.828603" lat="51.173726"><ele>-8.4</ele><time>2022-06-19T09:23:13.000Z</time></trkpt><trkpt lon="5.828492" lat="51.173701"><ele>-8.4</ele><time>2022-06-19T09:23:14.000Z</time></trkpt><trkpt lon="5.828377" lat="51.173677"><ele>-8.2</ele><time>2022-06-19T09:23:15.000Z</time></trkpt><trkpt lon="5.828266" lat="51.173654"><ele>-8.2</ele><time>2022-06-19T09:23:16.000Z</time></trkpt><trkpt lon="5.828151" lat="51.173627"><ele>-8.2</ele><time>2022-06-19T09:23:17.000Z</time></trkpt><trkpt lon="5.828043" lat="51.173601"><ele>-8.2</ele><time>2022-06-19T09:23:18.000Z</time></trkpt><trkpt lon="5.827926" lat="51.173573"><ele>-8.2</ele><time>2022-06-19T09:23:19.000Z</time></trkpt><trkpt lon="5.827821" lat="51.173548"><ele>-8.2</ele><time>2022-06-19T09:23:20.000Z</time></trkpt><trkpt lon="5.827704" lat="51.17352"><ele>-8.4</ele><time>2022-06-19T09:23:21.000Z</time></trkpt><trkpt lon="5.827594" lat="51.173493"><ele>-8.4</ele><time>2022-06-19T09:23:22.000Z</time></trkpt><trkpt lon="5.827486" lat="51.173463"><ele>-8.6</ele><time>2022-06-19T09:23:23.000Z</time></trkpt><trkpt lon="5.827391" lat="51.173436"><ele>-8.4</ele><time>2022-06-19T09:23:24.000Z</time></trkpt><trkpt lon="5.827271" lat="51.173403"><ele>-8.6</ele><time>2022-06-19T09:23:25.000Z</time></trkpt><trkpt lon="5.827167" lat="51.173373"><ele>-8.6</ele><time>2022-06-19T09:23:26.000Z</time></trkpt><trkpt lon="5.827052" lat="51.173341"><ele>-8.4</ele><time>2022-06-19T09:23:27.000Z</time></trkpt><trkpt lon="5.826941" lat="51.173315"><ele>-8.4</ele><time>2022-06-19T09:23:28.000Z</time></trkpt><trkpt lon="5.826826" lat="51.173287"><ele>-8.4</ele><time>2022-06-19T09:23:29.000Z</time></trkpt><trkpt lon="5.826711" lat="51.173257"><ele>-8.4</ele><time>2022-06-19T09:23:30.000Z</time></trkpt><trkpt lon="5.826602" lat="51.17323"><ele>-8.4</ele><time>2022-06-19T09:23:31.000Z</time></trkpt><trkpt lon="5.826492" lat="51.173203"><ele>-8.4</ele><time>2022-06-19T09:23:32.000Z</time></trkpt><trkpt lon="5.826381" lat="51.173173"><ele>-8.2</ele><time>2022-06-19T09:23:33.000Z</time></trkpt><trkpt lon="5.826272" lat="51.173151"><ele>-8.4</ele><time>2022-06-19T09:23:34.000Z</time></trkpt><trkpt lon="5.82616" lat="51.173123"><ele>-8.4</ele><time>2022-06-19T09:23:35.000Z</time></trkpt><trkpt lon="5.826053" lat="51.173093"><ele>-8.4</ele><time>2022-06-19T09:23:36.000Z</time></trkpt><trkpt lon="5.825952" lat="51.173067"><ele>-8.4</ele><time>2022-06-19T09:23:37.000Z</time></trkpt><trkpt lon="5.825852" lat="51.173041"><ele>-8.2</ele><time>2022-06-19T09:23:38.000Z</time></trkpt><trkpt lon="5.825748" lat="51.173016"><ele>-8.2</ele><time>2022-06-19T09:23:39.000Z</time></trkpt><trkpt lon="5.825654" lat="51.172999"><ele>-8</ele><time>2022-06-19T09:23:40.000Z</time></trkpt><trkpt lon="5.825529" lat="51.172978"><ele>-8</ele><time>2022-06-19T09:23:41.000Z</time></trkpt><trkpt lon="5.825412" lat="51.172963"><ele>-7.8</ele><time>2022-06-19T09:23:42.000Z</time></trkpt><trkpt lon="5.825292" lat="51.172951"><ele>-7.8</ele><time>2022-06-19T09:23:43.000Z</time></trkpt><trkpt lon="5.825173" lat="51.17294"><ele>-7.8</ele><time>2022-06-19T09:23:44.000Z</time></trkpt><trkpt lon="5.82505" lat="51.172932"><ele>-7.6</ele><time>2022-06-19T09:23:45.000Z</time></trkpt><trkpt lon="5.824935" lat="51.172928"><ele>-7.6</ele><time>2022-06-19T09:23:46.000Z</time></trkpt><trkpt lon="5.824808" lat="51.17292"><ele>-7.6</ele><time>2022-06-19T09:23:47.000Z</time></trkpt><trkpt lon="5.824693" lat="51.172917"><ele>-7.6</ele><time>2022-06-19T09:23:48.000Z</time></trkpt><trkpt lon="5.82457" lat="51.172905"><ele>-7.6</ele><time>2022-06-19T09:23:49.000Z</time></trkpt><trkpt lon="5.824452" lat="51.172901"><ele>-7.6</ele><time>2022-06-19T09:23:50.000Z</time></trkpt><trkpt lon="5.824336" lat="51.172901"><ele>-7.8</ele><time>2022-06-19T09:23:51.000Z</time></trkpt><trkpt lon="5.824213" lat="51.172905"><ele>-7.8</ele><time>2022-06-19T09:23:52.000Z</time></trkpt><trkpt lon="5.824099" lat="51.172909"><ele>-7.8</ele><time>2022-06-19T09:23:53.000Z</time></trkpt><trkpt lon="5.823993" lat="51.172912"><ele>-7.6</ele><time>2022-06-19T09:23:54.000Z</time></trkpt><trkpt lon="5.823878" lat="51.17292"><ele>-7.6</ele><time>2022-06-19T09:23:55.000Z</time></trkpt><trkpt lon="5.823774" lat="51.172928"><ele>-7.4</ele><time>2022-06-19T09:23:56.000Z</time></trkpt><trkpt lon="5.823677" lat="51.172932"><ele>-7.4</ele><time>2022-06-19T09:23:57.000Z</time></trkpt><trkpt lon="5.823596" lat="51.172935"><ele>-7.2</ele><time>2022-06-19T09:23:58.000Z</time></trkpt><trkpt lon="5.823516" lat="51.172935"><ele>-7.2</ele><time>2022-06-19T09:23:59.000Z</time></trkpt><trkpt lon="5.823454" lat="51.172932"><ele>-7.2</ele><time>2022-06-19T09:24:00.000Z</time></trkpt><trkpt lon="5.823392" lat="51.172917"><ele>-7</ele><time>2022-06-19T09:24:01.000Z</time></trkpt><trkpt lon="5.823348" lat="51.172896"><ele>-6.8</ele><time>2022-06-19T09:24:02.000Z</time></trkpt><trkpt lon="5.823311" lat="51.172857"><ele>-6.8</ele><time>2022-06-19T09:24:03.000Z</time></trkpt><trkpt lon="5.823288" lat="51.172808"><ele>-6.8</ele><time>2022-06-19T09:24:04.000Z</time></trkpt><trkpt lon="5.823275" lat="51.172759"><ele>-6.8</ele><time>2022-06-19T09:24:05.000Z</time></trkpt><trkpt lon="5.823264" lat="51.172694"><ele>-6.8</ele><time>2022-06-19T09:24:06.000Z</time></trkpt><trkpt lon="5.823256" lat="51.172631"><ele>-6.8</ele><time>2022-06-19T09:24:07.000Z</time></trkpt><trkpt lon="5.823244" lat="51.17256"><ele>-6.8</ele><time>2022-06-19T09:24:08.000Z</time></trkpt><trkpt lon="5.823221" lat="51.172488"><ele>-7</ele><time>2022-06-19T09:24:09.000Z</time></trkpt><trkpt lon="5.823191" lat="51.172415"><ele>-7</ele><time>2022-06-19T09:24:10.000Z</time></trkpt><trkpt lon="5.823161" lat="51.17234"><ele>-7</ele><time>2022-06-19T09:24:11.000Z</time></trkpt><trkpt lon="5.823129" lat="51.172262"><ele>-7</ele><time>2022-06-19T09:24:12.000Z</time></trkpt><trkpt lon="5.823099" lat="51.172186"><ele>-7</ele><time>2022-06-19T09:24:13.000Z</time></trkpt><trkpt lon="5.823071" lat="51.17211"><ele>-7</ele><time>2022-06-19T09:24:14.000Z</time></trkpt><trkpt lon="5.823043" lat="51.172042"><ele>-6.8</ele><time>2022-06-19T09:24:15.000Z</time></trkpt><trkpt lon="5.823013" lat="51.171961"><ele>-6.8</ele><time>2022-06-19T09:24:16.000Z</time></trkpt><trkpt lon="5.822989" lat="51.171881"><ele>-6.8</ele><time>2022-06-19T09:24:17.000Z</time></trkpt><trkpt lon="5.82297" lat="51.171805"><ele>-6.8</ele><time>2022-06-19T09:24:18.000Z</time></trkpt><trkpt lon="5.822951" lat="51.17173"><ele>-6.8</ele><time>2022-06-19T09:24:19.000Z</time></trkpt><trkpt lon="5.822932" lat="51.171652"><ele>-6.8</ele><time>2022-06-19T09:24:20.000Z</time></trkpt><trkpt lon="5.822917" lat="51.17158"><ele>-6.8</ele><time>2022-06-19T09:24:21.000Z</time></trkpt><trkpt lon="5.822899" lat="51.171503"><ele>-6.8</ele><time>2022-06-19T09:24:22.000Z</time></trkpt><trkpt lon="5.822883" lat="51.171433"><ele>-6.8</ele><time>2022-06-19T09:24:23.000Z</time></trkpt><trkpt lon="5.822864" lat="51.171351"><ele>-6.6</ele><time>2022-06-19T09:24:24.000Z</time></trkpt><trkpt lon="5.822848" lat="51.171283"><ele>-6.8</ele><time>2022-06-19T09:24:25.000Z</time></trkpt><trkpt lon="5.822832" lat="51.171204"><ele>-6.6</ele><time>2022-06-19T09:24:26.000Z</time></trkpt><trkpt lon="5.822819" lat="51.171126"><ele>-6.6</ele><time>2022-06-19T09:24:27.000Z</time></trkpt><trkpt lon="5.822804" lat="51.171054"><ele>-6.6</ele><time>2022-06-19T09:24:28.000Z</time></trkpt><trkpt lon="5.82279" lat="51.170987"><ele>-6.6</ele><time>2022-06-19T09:24:29.000Z</time></trkpt><trkpt lon="5.822772" lat="51.170906"><ele>-6.6</ele><time>2022-06-19T09:24:30.000Z</time></trkpt><trkpt lon="5.822756" lat="51.170833"><ele>-6.6</ele><time>2022-06-19T09:24:31.000Z</time></trkpt><trkpt lon="5.822739" lat="51.170763"><ele>-6.6</ele><time>2022-06-19T09:24:32.000Z</time></trkpt><trkpt lon="5.822728" lat="51.170699"><ele>-6.6</ele><time>2022-06-19T09:24:33.000Z</time></trkpt><trkpt lon="5.822712" lat="51.170629"><ele>-6.4</ele><time>2022-06-19T09:24:34.000Z</time></trkpt><trkpt lon="5.822698" lat="51.170572"><ele>-6.4</ele><time>2022-06-19T09:24:35.000Z</time></trkpt><trkpt lon="5.822682" lat="51.170511"><ele>-6.4</ele><time>2022-06-19T09:24:36.000Z</time></trkpt><trkpt lon="5.822672" lat="51.170457"><ele>-6.4</ele><time>2022-06-19T09:24:37.000Z</time></trkpt><trkpt lon="5.822667" lat="51.1704"><ele>-6.4</ele><time>2022-06-19T09:24:38.000Z</time></trkpt><trkpt lon="5.82266" lat="51.170349"><ele>-6.4</ele><time>2022-06-19T09:24:39.000Z</time></trkpt><trkpt lon="5.822644" lat="51.170294"><ele>-6.4</ele><time>2022-06-19T09:24:40.000Z</time></trkpt><trkpt lon="5.822609" lat="51.170247"><ele>-6.6</ele><time>2022-06-19T09:24:41.000Z</time></trkpt><trkpt lon="5.822558" lat="51.17021"><ele>-6.6</ele><time>2022-06-19T09:24:42.000Z</time></trkpt><trkpt lon="5.822474" lat="51.170171"><ele>-6.6</ele><time>2022-06-19T09:24:43.000Z</time></trkpt><trkpt lon="5.822383" lat="51.170144"><ele>-6.8</ele><time>2022-06-19T09:24:44.000Z</time></trkpt><trkpt lon="5.822278" lat="51.170121"><ele>-7</ele><time>2022-06-19T09:24:45.000Z</time></trkpt><trkpt lon="5.822165" lat="51.170094"><ele>-7</ele><time>2022-06-19T09:24:46.000Z</time></trkpt><trkpt lon="5.822057" lat="51.17007"><ele>-7.2</ele><time>2022-06-19T09:24:47.000Z</time></trkpt><trkpt lon="5.821932" lat="51.170041"><ele>-7.2</ele><time>2022-06-19T09:24:48.000Z</time></trkpt><trkpt lon="5.821817" lat="51.170022"><ele>-7.2</ele><time>2022-06-19T09:24:49.000Z</time></trkpt><trkpt lon="5.821697" lat="51.170003"><ele>-7.2</ele><time>2022-06-19T09:24:50.000Z</time></trkpt><trkpt lon="5.821576" lat="51.169991"><ele>-7.2</ele><time>2022-06-19T09:24:51.000Z</time></trkpt><trkpt lon="5.821448" lat="51.169987"><ele>-7.2</ele><time>2022-06-19T09:24:52.000Z</time></trkpt><trkpt lon="5.821324" lat="51.169987"><ele>-7.2</ele><time>2022-06-19T09:24:53.000Z</time></trkpt><trkpt lon="5.821195" lat="51.169994"><ele>-7.2</ele><time>2022-06-19T09:24:54.000Z</time></trkpt><trkpt lon="5.821067" lat="51.169994"><ele>-7</ele><time>2022-06-19T09:24:55.000Z</time></trkpt><trkpt lon="5.820952" lat="51.169994"><ele>-7</ele><time>2022-06-19T09:24:56.000Z</time></trkpt><trkpt lon="5.820815" lat="51.169987"><ele>-6.8</ele><time>2022-06-19T09:24:57.000Z</time></trkpt><trkpt lon="5.820689" lat="51.169976"><ele>-6.6</ele><time>2022-06-19T09:24:58.000Z</time></trkpt><trkpt lon="5.82057" lat="51.169961"><ele>-6.4</ele><time>2022-06-19T09:24:59.000Z</time></trkpt><trkpt lon="5.82045" lat="51.169938"><ele>-6.4</ele><time>2022-06-19T09:25:00.000Z</time></trkpt><trkpt lon="5.820334" lat="51.169908"><ele>-6.2</ele><time>2022-06-19T09:25:01.000Z</time></trkpt><trkpt lon="5.82022" lat="51.169873"><ele>-6.2</ele><time>2022-06-19T09:25:02.000Z</time></trkpt><trkpt lon="5.820112" lat="51.169831"><ele>-6</ele><time>2022-06-19T09:25:03.000Z</time></trkpt><trkpt lon="5.820008" lat="51.169789"><ele>-6</ele><time>2022-06-19T09:25:04.000Z</time></trkpt><trkpt lon="5.819907" lat="51.169744"><ele>-5.8</ele><time>2022-06-19T09:25:05.000Z</time></trkpt><trkpt lon="5.819808" lat="51.169702"><ele>-5.6</ele><time>2022-06-19T09:25:06.000Z</time></trkpt><trkpt lon="5.819708" lat="51.169664"><ele>-5.6</ele><time>2022-06-19T09:25:07.000Z</time></trkpt><trkpt lon="5.819609" lat="51.169618"><ele>-5.6</ele><time>2022-06-19T09:25:08.000Z</time></trkpt><trkpt lon="5.81951" lat="51.16958"><ele>-5.4</ele><time>2022-06-19T09:25:09.000Z</time></trkpt><trkpt lon="5.81941" lat="51.169535"><ele>-5.4</ele><time>2022-06-19T09:25:10.000Z</time></trkpt><trkpt lon="5.819309" lat="51.169489"><ele>-5.2</ele><time>2022-06-19T09:25:11.000Z</time></trkpt><trkpt lon="5.819206" lat="51.169444"><ele>-5</ele><time>2022-06-19T09:25:12.000Z</time></trkpt><trkpt lon="5.819101" lat="51.1694"><ele>-5</ele><time>2022-06-19T09:25:13.000Z</time></trkpt><trkpt lon="5.818998" lat="51.169358"><ele>-5</ele><time>2022-06-19T09:25:14.000Z</time></trkpt><trkpt lon="5.818895" lat="51.169313"><ele>-4.8</ele><time>2022-06-19T09:25:15.000Z</time></trkpt><trkpt lon="5.818789" lat="51.169274"><ele>-4.8</ele><time>2022-06-19T09:25:16.000Z</time></trkpt><trkpt lon="5.818685" lat="51.169236"><ele>-4.6</ele><time>2022-06-19T09:25:17.000Z</time></trkpt><trkpt lon="5.818578" lat="51.169198"><ele>-4.4</ele><time>2022-06-19T09:25:18.000Z</time></trkpt><trkpt lon="5.818472" lat="51.169164"><ele>-4.4</ele><time>2022-06-19T09:25:19.000Z</time></trkpt><trkpt lon="5.818371" lat="51.169135"><ele>-4.2</ele><time>2022-06-19T09:25:20.000Z</time></trkpt><trkpt lon="5.818257" lat="51.169103"><ele>-4.2</ele><time>2022-06-19T09:25:21.000Z</time></trkpt><trkpt lon="5.818142" lat="51.169076"><ele>-4.2</ele><time>2022-06-19T09:25:22.000Z</time></trkpt><trkpt lon="5.818033" lat="51.169057"><ele>-4</ele><time>2022-06-19T09:25:23.000Z</time></trkpt><trkpt lon="5.817921" lat="51.169037"><ele>-3.8</ele><time>2022-06-19T09:25:24.000Z</time></trkpt><trkpt lon="5.817815" lat="51.169022"><ele>-3.8</ele><time>2022-06-19T09:25:25.000Z</time></trkpt><trkpt lon="5.817706" lat="51.16901"><ele>-3.8</ele><time>2022-06-19T09:25:26.000Z</time></trkpt><trkpt lon="5.817602" lat="51.168999"><ele>-3.6</ele><time>2022-06-19T09:25:27.000Z</time></trkpt><trkpt lon="5.817497" lat="51.168991"><ele>-3.6</ele><time>2022-06-19T09:25:28.000Z</time></trkpt><trkpt lon="5.817395" lat="51.16898"><ele>-3.4</ele><time>2022-06-19T09:25:29.000Z</time></trkpt><trkpt lon="5.817288" lat="51.168969"><ele>-3.4</ele><time>2022-06-19T09:25:30.000Z</time></trkpt><trkpt lon="5.817173" lat="51.168957"><ele>-3.4</ele><time>2022-06-19T09:25:31.000Z</time></trkpt><trkpt lon="5.817051" lat="51.168946"><ele>-3.4</ele><time>2022-06-19T09:25:32.000Z</time></trkpt><trkpt lon="5.816927" lat="51.168938"><ele>-3.2</ele><time>2022-06-19T09:25:33.000Z</time></trkpt><trkpt lon="5.816803" lat="51.168927"><ele>-3.2</ele><time>2022-06-19T09:25:34.000Z</time></trkpt><trkpt lon="5.816672" lat="51.168912"><ele>-3.2</ele><time>2022-06-19T09:25:35.000Z</time></trkpt><trkpt lon="5.816538" lat="51.168904"><ele>-3</ele><time>2022-06-19T09:25:36.000Z</time></trkpt><trkpt lon="5.816404" lat="51.168896"><ele>-3</ele><time>2022-06-19T09:25:37.000Z</time></trkpt><trkpt lon="5.816269" lat="51.168888"><ele>-3</ele><time>2022-06-19T09:25:38.000Z</time></trkpt><trkpt lon="5.816135" lat="51.168877"><ele>-3</ele><time>2022-06-19T09:25:39.000Z</time></trkpt><trkpt lon="5.816001" lat="51.168877"><ele>-3</ele><time>2022-06-19T09:25:40.000Z</time></trkpt><trkpt lon="5.815877" lat="51.168869"><ele>-3.2</ele><time>2022-06-19T09:25:41.000Z</time></trkpt><trkpt lon="5.815752" lat="51.168862"><ele>-3.2</ele><time>2022-06-19T09:25:42.000Z</time></trkpt><trkpt lon="5.815632" lat="51.16885"><ele>-3.2</ele><time>2022-06-19T09:25:43.000Z</time></trkpt><trkpt lon="5.815508" lat="51.168843"><ele>-3.2</ele><time>2022-06-19T09:25:44.000Z</time></trkpt><trkpt lon="5.815381" lat="51.168831"><ele>-3.2</ele><time>2022-06-19T09:25:45.000Z</time></trkpt><trkpt lon="5.815256" lat="51.168823"><ele>-3.2</ele><time>2022-06-19T09:25:46.000Z</time></trkpt><trkpt lon="5.815124" lat="51.168812"><ele>-3.2</ele><time>2022-06-19T09:25:47.000Z</time></trkpt><trkpt lon="5.814993" lat="51.168804"><ele>-3.4</ele><time>2022-06-19T09:25:48.000Z</time></trkpt><trkpt lon="5.814859" lat="51.168797"><ele>-3.4</ele><time>2022-06-19T09:25:49.000Z</time></trkpt><trkpt lon="5.814733" lat="51.168786"><ele>-3.4</ele><time>2022-06-19T09:25:50.000Z</time></trkpt><trkpt lon="5.814603" lat="51.16877"><ele>-3.4</ele><time>2022-06-19T09:25:51.000Z</time></trkpt><trkpt lon="5.814472" lat="51.168751"><ele>-3.4</ele><time>2022-06-19T09:25:52.000Z</time></trkpt><trkpt lon="5.814343" lat="51.168732"><ele>-3.6</ele><time>2022-06-19T09:25:53.000Z</time></trkpt><trkpt lon="5.814213" lat="51.168713"><ele>-3.6</ele><time>2022-06-19T09:25:54.000Z</time></trkpt><trkpt lon="5.814087" lat="51.168687"><ele>-3.6</ele><time>2022-06-19T09:25:55.000Z</time></trkpt><trkpt lon="5.81396" lat="51.168656"><ele>-3.8</ele><time>2022-06-19T09:25:56.000Z</time></trkpt><trkpt lon="5.81384" lat="51.168622"><ele>-3.8</ele><time>2022-06-19T09:25:57.000Z</time></trkpt><trkpt lon="5.813719" lat="51.168587"><ele>-3.8</ele><time>2022-06-19T09:25:58.000Z</time></trkpt><trkpt lon="5.813604" lat="51.168554"><ele>-3.8</ele><time>2022-06-19T09:25:59.000Z</time></trkpt><trkpt lon="5.813486" lat="51.168519"><ele>-4</ele><time>2022-06-19T09:26:00.000Z</time></trkpt><trkpt lon="5.813376" lat="51.168486"><ele>-4</ele><time>2022-06-19T09:26:01.000Z</time></trkpt><trkpt lon="5.81326" lat="51.168451"><ele>-4</ele><time>2022-06-19T09:26:02.000Z</time></trkpt><trkpt lon="5.813143" lat="51.16842"><ele>-4</ele><time>2022-06-19T09:26:03.000Z</time></trkpt><trkpt lon="5.813031" lat="51.168389"><ele>-4</ele><time>2022-06-19T09:26:04.000Z</time></trkpt><trkpt lon="5.812923" lat="51.168355"><ele>-4</ele><time>2022-06-19T09:26:05.000Z</time></trkpt><trkpt lon="5.812816" lat="51.168317"><ele>-4.2</ele><time>2022-06-19T09:26:06.000Z</time></trkpt><trkpt lon="5.812714" lat="51.168277"><ele>-4.2</ele><time>2022-06-19T09:26:07.000Z</time></trkpt><trkpt lon="5.812601" lat="51.168241"><ele>-4.2</ele><time>2022-06-19T09:26:08.000Z</time></trkpt><trkpt lon="5.812489" lat="51.168208"><ele>-4</ele><time>2022-06-19T09:26:09.000Z</time></trkpt><trkpt lon="5.812359" lat="51.168179"><ele>-4.2</ele><time>2022-06-19T09:26:10.000Z</time></trkpt><trkpt lon="5.812236" lat="51.168153"><ele>-4.2</ele><time>2022-06-19T09:26:11.000Z</time></trkpt><trkpt lon="5.812111" lat="51.168126"><ele>-4.2</ele><time>2022-06-19T09:26:12.000Z</time></trkpt><trkpt lon="5.811988" lat="51.1681"><ele>-4.2</ele><time>2022-06-19T09:26:13.000Z</time></trkpt><trkpt lon="5.811866" lat="51.168072"><ele>-4</ele><time>2022-06-19T09:26:14.000Z</time></trkpt><trkpt lon="5.811755" lat="51.16805"><ele>-4</ele><time>2022-06-19T09:26:15.000Z</time></trkpt><trkpt lon="5.811639" lat="51.168027"><ele>-4</ele><time>2022-06-19T09:26:16.000Z</time></trkpt><trkpt lon="5.811529" lat="51.168004"><ele>-3.8</ele><time>2022-06-19T09:26:17.000Z</time></trkpt><trkpt lon="5.811427" lat="51.167977"><ele>-3.8</ele><time>2022-06-19T09:26:18.000Z</time></trkpt><trkpt lon="5.811318" lat="51.167954"><ele>-3.8</ele><time>2022-06-19T09:26:19.000Z</time></trkpt><trkpt lon="5.811204" lat="51.167931"><ele>-3.8</ele><time>2022-06-19T09:26:20.000Z</time></trkpt><trkpt lon="5.811094" lat="51.16791"><ele>-3.6</ele><time>2022-06-19T09:26:21.000Z</time></trkpt><trkpt lon="5.810969" lat="51.167885"><ele>-3.6</ele><time>2022-06-19T09:26:22.000Z</time></trkpt><trkpt lon="5.810855" lat="51.167866"><ele>-3.8</ele><time>2022-06-19T09:26:23.000Z</time></trkpt><trkpt lon="5.810743" lat="51.167847"><ele>-3.8</ele><time>2022-06-19T09:26:24.000Z</time></trkpt><trkpt lon="5.810633" lat="51.167836"><ele>-3.6</ele><time>2022-06-19T09:26:25.000Z</time></trkpt><trkpt lon="5.81052" lat="51.167813"><ele>-3.6</ele><time>2022-06-19T09:26:26.000Z</time></trkpt><trkpt lon="5.810413" lat="51.167794"><ele>-3.4</ele><time>2022-06-19T09:26:27.000Z</time></trkpt><trkpt lon="5.810306" lat="51.167771"><ele>-3.4</ele><time>2022-06-19T09:26:28.000Z</time></trkpt><trkpt lon="5.810206" lat="51.167756"><ele>-3.2</ele><time>2022-06-19T09:26:29.000Z</time></trkpt><trkpt lon="5.810123" lat="51.16774"><ele>-3.2</ele><time>2022-06-19T09:26:30.000Z</time></trkpt><trkpt lon="5.809987" lat="51.16771"><ele>-3.2</ele><time>2022-06-19T09:26:31.000Z</time></trkpt><trkpt lon="5.809881" lat="51.167687"><ele>-3.2</ele><time>2022-06-19T09:26:32.000Z</time></trkpt><trkpt lon="5.809772" lat="51.167661"><ele>-3.2</ele><time>2022-06-19T09:26:33.000Z</time></trkpt><trkpt lon="5.809658" lat="51.167634"><ele>-3.2</ele><time>2022-06-19T09:26:34.000Z</time></trkpt><trkpt lon="5.809539" lat="51.167596"><ele>-3.2</ele><time>2022-06-19T09:26:35.000Z</time></trkpt><trkpt lon="5.809427" lat="51.167563"><ele>-3.2</ele><time>2022-06-19T09:26:36.000Z</time></trkpt><trkpt lon="5.809315" lat="51.167527"><ele>-3.2</ele><time>2022-06-19T09:26:37.000Z</time></trkpt><trkpt lon="5.809193" lat="51.167485"><ele>-3.2</ele><time>2022-06-19T09:26:38.000Z</time></trkpt><trkpt lon="5.809086" lat="51.167444"><ele>-3.2</ele><time>2022-06-19T09:26:39.000Z</time></trkpt><trkpt lon="5.808977" lat="51.167397"><ele>-3</ele><time>2022-06-19T09:26:40.000Z</time></trkpt><trkpt lon="5.808884" lat="51.167347"><ele>-3</ele><time>2022-06-19T09:26:41.000Z</time></trkpt><trkpt lon="5.808787" lat="51.167295"><ele>-3</ele><time>2022-06-19T09:26:42.000Z</time></trkpt><trkpt lon="5.808693" lat="51.167241"><ele>-3</ele><time>2022-06-19T09:26:43.000Z</time></trkpt><trkpt lon="5.808599" lat="51.167185"><ele>-2.8</ele><time>2022-06-19T09:26:44.000Z</time></trkpt><trkpt lon="5.808502" lat="51.167127"><ele>-2.8</ele><time>2022-06-19T09:26:45.000Z</time></trkpt><trkpt lon="5.808407" lat="51.16707"><ele>-2.8</ele><time>2022-06-19T09:26:46.000Z</time></trkpt><trkpt lon="5.808319" lat="51.167009"><ele>-2.8</ele><time>2022-06-19T09:26:47.000Z</time></trkpt><trkpt lon="5.808232" lat="51.166952"><ele>-2.6</ele><time>2022-06-19T09:26:48.000Z</time></trkpt><trkpt lon="5.808139" lat="51.166895"><ele>-2.6</ele><time>2022-06-19T09:26:49.000Z</time></trkpt><trkpt lon="5.808052" lat="51.166836"><ele>-2.6</ele><time>2022-06-19T09:26:50.000Z</time></trkpt><trkpt lon="5.807964" lat="51.166779"><ele>-2.4</ele><time>2022-06-19T09:26:51.000Z</time></trkpt><trkpt lon="5.807873" lat="51.166717"><ele>-2.4</ele><time>2022-06-19T09:26:52.000Z</time></trkpt><trkpt lon="5.807785" lat="51.166663"><ele>-2.4</ele><time>2022-06-19T09:26:53.000Z</time></trkpt><trkpt lon="5.807697" lat="51.166605"><ele>-2.6</ele><time>2022-06-19T09:26:54.000Z</time></trkpt><trkpt lon="5.807617" lat="51.16655"><ele>-2.6</ele><time>2022-06-19T09:26:55.000Z</time></trkpt><trkpt lon="5.807528" lat="51.166494"><ele>-2.4</ele><time>2022-06-19T09:26:56.000Z</time></trkpt><trkpt lon="5.807444" lat="51.166439"><ele>-2.4</ele><time>2022-06-19T09:26:57.000Z</time></trkpt><trkpt lon="5.807354" lat="51.16638"><ele>-2.4</ele><time>2022-06-19T09:26:58.000Z</time></trkpt><trkpt lon="5.807272" lat="51.166325"><ele>-2.4</ele><time>2022-06-19T09:26:59.000Z</time></trkpt><trkpt lon="5.80719" lat="51.166264"><ele>-2.4</ele><time>2022-06-19T09:27:00.000Z</time></trkpt><trkpt lon="5.80711" lat="51.166208"><ele>-2.4</ele><time>2022-06-19T09:27:01.000Z</time></trkpt><trkpt lon="5.807026" lat="51.166147"><ele>-2.2</ele><time>2022-06-19T09:27:02.000Z</time></trkpt><trkpt lon="5.806949" lat="51.16609"><ele>-2.2</ele><time>2022-06-19T09:27:03.000Z</time></trkpt><trkpt lon="5.806876" lat="51.16604"><ele>-2.2</ele><time>2022-06-19T09:27:04.000Z</time></trkpt><trkpt lon="5.806802" lat="51.165986"><ele>-2.2</ele><time>2022-06-19T09:27:05.000Z</time></trkpt><trkpt lon="5.806731" lat="51.165938"><ele>-2.2</ele><time>2022-06-19T09:27:06.000Z</time></trkpt><trkpt lon="5.806666" lat="51.165887"><ele>-2</ele><time>2022-06-19T09:27:07.000Z</time></trkpt><trkpt lon="5.806603" lat="51.165839"><ele>-2</ele><time>2022-06-19T09:27:08.000Z</time></trkpt><trkpt lon="5.806539" lat="51.165793"><ele>-2</ele><time>2022-06-19T09:27:09.000Z</time></trkpt><trkpt lon="5.806475" lat="51.165742"><ele>-1.8</ele><time>2022-06-19T09:27:10.000Z</time></trkpt><trkpt lon="5.806417" lat="51.165695"><ele>-1.8</ele><time>2022-06-19T09:27:11.000Z</time></trkpt><trkpt lon="5.806355" lat="51.165643"><ele>-1.8</ele><time>2022-06-19T09:27:12.000Z</time></trkpt><trkpt lon="5.806299" lat="51.165587"><ele>-1.8</ele><time>2022-06-19T09:27:13.000Z</time></trkpt><trkpt lon="5.806238" lat="51.165533"><ele>-1.8</ele><time>2022-06-19T09:27:14.000Z</time></trkpt><trkpt lon="5.80618" lat="51.165477"><ele>-1.8</ele><time>2022-06-19T09:27:15.000Z</time></trkpt><trkpt lon="5.806118" lat="51.165415"><ele>-1.8</ele><time>2022-06-19T09:27:16.000Z</time></trkpt><trkpt lon="5.806055" lat="51.165355"><ele>-1.8</ele><time>2022-06-19T09:27:17.000Z</time></trkpt><trkpt lon="5.805993" lat="51.165285"><ele>-1.8</ele><time>2022-06-19T09:27:18.000Z</time></trkpt><trkpt lon="5.805927" lat="51.165224"><ele>-1.8</ele><time>2022-06-19T09:27:19.000Z</time></trkpt><trkpt lon="5.805858" lat="51.165159"><ele>-1.6</ele><time>2022-06-19T09:27:20.000Z</time></trkpt><trkpt lon="5.805794" lat="51.165097"><ele>-1.6</ele><time>2022-06-19T09:27:21.000Z</time></trkpt><trkpt lon="5.805722" lat="51.16503"><ele>-1.6</ele><time>2022-06-19T09:27:22.000Z</time></trkpt><trkpt lon="5.805653" lat="51.16496"><ele>-1.4</ele><time>2022-06-19T09:27:23.000Z</time></trkpt><trkpt lon="5.805583" lat="51.1649"><ele>-1.4</ele><time>2022-06-19T09:27:24.000Z</time></trkpt><trkpt lon="5.80552" lat="51.164841"><ele>-1.4</ele><time>2022-06-19T09:27:25.000Z</time></trkpt><trkpt lon="5.805451" lat="51.164774"><ele>-1.2</ele><time>2022-06-19T09:27:26.000Z</time></trkpt><trkpt lon="5.805381" lat="51.164713"><ele>-1.2</ele><time>2022-06-19T09:27:27.000Z</time></trkpt><trkpt lon="5.805304" lat="51.164648"><ele>-1.2</ele><time>2022-06-19T09:27:28.000Z</time></trkpt><trkpt lon="5.805224" lat="51.164592"><ele>-1</ele><time>2022-06-19T09:27:29.000Z</time></trkpt><trkpt lon="5.805126" lat="51.164527"><ele>-1</ele><time>2022-06-19T09:27:30.000Z</time></trkpt><trkpt lon="5.805035" lat="51.164471"><ele>-0.8</ele><time>2022-06-19T09:27:31.000Z</time></trkpt><trkpt lon="5.804942" lat="51.164413"><ele>-0.8</ele><time>2022-06-19T09:27:32.000Z</time></trkpt><trkpt lon="5.804853" lat="51.164357"><ele>-0.8</ele><time>2022-06-19T09:27:33.000Z</time></trkpt><trkpt lon="5.804763" lat="51.164301"><ele>-0.6</ele><time>2022-06-19T09:27:34.000Z</time></trkpt><trkpt lon="5.804675" lat="51.164247"><ele>-0.6</ele><time>2022-06-19T09:27:35.000Z</time></trkpt><trkpt lon="5.80459" lat="51.164194"><ele>-0.4</ele><time>2022-06-19T09:27:36.000Z</time></trkpt><trkpt lon="5.804501" lat="51.164142"><ele>-0.4</ele><time>2022-06-19T09:27:37.000Z</time></trkpt><trkpt lon="5.804411" lat="51.164087"><ele>-0.2</ele><time>2022-06-19T09:27:38.000Z</time></trkpt><trkpt lon="5.804322" lat="51.164033"><ele>-0.2</ele><time>2022-06-19T09:27:39.000Z</time></trkpt><trkpt lon="5.80424" lat="51.163977"><ele>0</ele><time>2022-06-19T09:27:40.000Z</time></trkpt><trkpt lon="5.80416" lat="51.163921"><ele>0</ele><time>2022-06-19T09:27:41.000Z</time></trkpt><trkpt lon="5.804074" lat="51.163866"><ele>0</ele><time>2022-06-19T09:27:42.000Z</time></trkpt><trkpt lon="5.80399" lat="51.163812"><ele>0.2</ele><time>2022-06-19T09:27:43.000Z</time></trkpt><trkpt lon="5.803908" lat="51.163759"><ele>0.2</ele><time>2022-06-19T09:27:44.000Z</time></trkpt><trkpt lon="5.803832" lat="51.163711"><ele>0.2</ele><time>2022-06-19T09:27:45.000Z</time></trkpt><trkpt lon="5.80375" lat="51.163656"><ele>0.4</ele><time>2022-06-19T09:27:46.000Z</time></trkpt><trkpt lon="5.80368" lat="51.163604"><ele>0.4</ele><time>2022-06-19T09:27:47.000Z</time></trkpt><trkpt lon="5.803607" lat="51.163549"><ele>0.6</ele><time>2022-06-19T09:27:48.000Z</time></trkpt><trkpt lon="5.80354" lat="51.1635"><ele>0.6</ele><time>2022-06-19T09:27:49.000Z</time></trkpt><trkpt lon="5.803473" lat="51.16345"><ele>0.8</ele><time>2022-06-19T09:27:50.000Z</time></trkpt><trkpt lon="5.803419" lat="51.163413"><ele>0.8</ele><time>2022-06-19T09:27:51.000Z</time></trkpt><trkpt lon="5.80336" lat="51.16336"><ele>1</ele><time>2022-06-19T09:27:52.000Z</time></trkpt><trkpt lon="5.803318" lat="51.163315"><ele>1</ele><time>2022-06-19T09:27:53.000Z</time></trkpt><trkpt lon="5.803289" lat="51.163255"><ele>1</ele><time>2022-06-19T09:27:54.000Z</time></trkpt><trkpt lon="5.803275" lat="51.163202"><ele>1</ele><time>2022-06-19T09:27:55.000Z</time></trkpt><trkpt lon="5.803256" lat="51.163134"><ele>1</ele><time>2022-06-19T09:27:56.000Z</time></trkpt><trkpt lon="5.803224" lat="51.163071"><ele>0.8</ele><time>2022-06-19T09:27:57.000Z</time></trkpt><trkpt lon="5.803183" lat="51.163004"><ele>0.8</ele><time>2022-06-19T09:27:58.000Z</time></trkpt><trkpt lon="5.803146" lat="51.162941"><ele>0.8</ele><time>2022-06-19T09:27:59.000Z</time></trkpt><trkpt lon="5.803108" lat="51.162875"><ele>0.6</ele><time>2022-06-19T09:28:00.000Z</time></trkpt><trkpt lon="5.803073" lat="51.162813"><ele>0.6</ele><time>2022-06-19T09:28:01.000Z</time></trkpt><trkpt lon="5.803034" lat="51.162752"><ele>0.6</ele><time>2022-06-19T09:28:02.000Z</time></trkpt><trkpt lon="5.803004" lat="51.162704"><ele>0.6</ele><time>2022-06-19T09:28:03.000Z</time></trkpt><trkpt lon="5.80297" lat="51.162661"><ele>0.4</ele><time>2022-06-19T09:28:04.000Z</time></trkpt><trkpt lon="5.802941" lat="51.162618"><ele>0.4</ele><time>2022-06-19T09:28:05.000Z</time></trkpt><trkpt lon="5.802922" lat="51.162576"><ele>0.4</ele><time>2022-06-19T09:28:06.000Z</time></trkpt><trkpt lon="5.802919" lat="51.162534"><ele>0.4</ele><time>2022-06-19T09:28:07.000Z</time></trkpt><trkpt lon="5.802929" lat="51.162497"><ele>0.4</ele><time>2022-06-19T09:28:08.000Z</time></trkpt><trkpt lon="5.802964" lat="51.162458"><ele>0.2</ele><time>2022-06-19T09:28:09.000Z</time></trkpt><trkpt lon="5.80302" lat="51.162427"><ele>0.2</ele><time>2022-06-19T09:28:10.000Z</time></trkpt><trkpt lon="5.803091" lat="51.162393"><ele>0.2</ele><time>2022-06-19T09:28:11.000Z</time></trkpt><trkpt lon="5.803172" lat="51.162351"><ele>0</ele><time>2022-06-19T09:28:12.000Z</time></trkpt><trkpt lon="5.803255" lat="51.162307"><ele>0</ele><time>2022-06-19T09:28:13.000Z</time></trkpt><trkpt lon="5.803346" lat="51.162256"><ele>-0.2</ele><time>2022-06-19T09:28:14.000Z</time></trkpt><trkpt lon="5.803431" lat="51.162204"><ele>-0.4</ele><time>2022-06-19T09:28:15.000Z</time></trkpt><trkpt lon="5.803528" lat="51.162149"><ele>-0.4</ele><time>2022-06-19T09:28:16.000Z</time></trkpt><trkpt lon="5.803625" lat="51.1621"><ele>-0.2</ele><time>2022-06-19T09:28:17.000Z</time></trkpt><trkpt lon="5.803736" lat="51.162057"><ele>-0.2</ele><time>2022-06-19T09:28:18.000Z</time></trkpt><trkpt lon="5.803847" lat="51.162024"><ele>-0.2</ele><time>2022-06-19T09:28:19.000Z</time></trkpt><trkpt lon="5.803951" lat="51.16199"><ele>-0.2</ele><time>2022-06-19T09:28:20.000Z</time></trkpt><trkpt lon="5.804065" lat="51.161945"><ele>-0.2</ele><time>2022-06-19T09:28:21.000Z</time></trkpt><trkpt lon="5.804169" lat="51.161889"><ele>-0.2</ele><time>2022-06-19T09:28:22.000Z</time></trkpt><trkpt lon="5.804262" lat="51.161833"><ele>0</ele><time>2022-06-19T09:28:23.000Z</time></trkpt><trkpt lon="5.804351" lat="51.161772"><ele>0</ele><time>2022-06-19T09:28:24.000Z</time></trkpt><trkpt lon="5.80443" lat="51.161713"><ele>0.2</ele><time>2022-06-19T09:28:25.000Z</time></trkpt><trkpt lon="5.804516" lat="51.161655"><ele>0.4</ele><time>2022-06-19T09:28:26.000Z</time></trkpt><trkpt lon="5.804598" lat="51.161593"><ele>0.6</ele><time>2022-06-19T09:28:27.000Z</time></trkpt><trkpt lon="5.804685" lat="51.161535"><ele>0.6</ele><time>2022-06-19T09:28:28.000Z</time></trkpt><trkpt lon="5.804767" lat="51.161482"><ele>0.8</ele><time>2022-06-19T09:28:29.000Z</time></trkpt><trkpt lon="5.804826" lat="51.16144"><ele>0.8</ele><time>2022-06-19T09:28:30.000Z</time></trkpt><trkpt lon="5.804919" lat="51.161376"><ele>0.8</ele><time>2022-06-19T09:28:31.000Z</time></trkpt><trkpt lon="5.804998" lat="51.161321"><ele>0.8</ele><time>2022-06-19T09:28:32.000Z</time></trkpt><trkpt lon="5.805075" lat="51.161268"><ele>0.8</ele><time>2022-06-19T09:28:33.000Z</time></trkpt><trkpt lon="5.80515" lat="51.161215"><ele>1</ele><time>2022-06-19T09:28:34.000Z</time></trkpt><trkpt lon="5.805222" lat="51.161167"><ele>1</ele><time>2022-06-19T09:28:35.000Z</time></trkpt><trkpt lon="5.805291" lat="51.161123"><ele>1.2</ele><time>2022-06-19T09:28:36.000Z</time></trkpt><trkpt lon="5.805355" lat="51.161077"><ele>1.2</ele><time>2022-06-19T09:28:37.000Z</time></trkpt><trkpt lon="5.805415" lat="51.161033"><ele>1.2</ele><time>2022-06-19T09:28:38.000Z</time></trkpt><trkpt lon="5.805473" lat="51.160991"><ele>1.2</ele><time>2022-06-19T09:28:39.000Z</time></trkpt><trkpt lon="5.805527" lat="51.160943"><ele>1.2</ele><time>2022-06-19T09:28:40.000Z</time></trkpt><trkpt lon="5.805561" lat="51.160903"><ele>1.4</ele><time>2022-06-19T09:28:41.000Z</time></trkpt><trkpt lon="5.805575" lat="51.160856"><ele>1.4</ele><time>2022-06-19T09:28:42.000Z</time></trkpt><trkpt lon="5.805568" lat="51.16081"><ele>1.2</ele><time>2022-06-19T09:28:43.000Z</time></trkpt><trkpt lon="5.805545" lat="51.160763"><ele>1.2</ele><time>2022-06-19T09:28:44.000Z</time></trkpt><trkpt lon="5.805494" lat="51.160716"><ele>1</ele><time>2022-06-19T09:28:45.000Z</time></trkpt><trkpt lon="5.805414" lat="51.160676"><ele>1</ele><time>2022-06-19T09:28:46.000Z</time></trkpt><trkpt lon="5.805327" lat="51.160624"><ele>1</ele><time>2022-06-19T09:28:47.000Z</time></trkpt><trkpt lon="5.805226" lat="51.160581"><ele>1.2</ele><time>2022-06-19T09:28:48.000Z</time></trkpt><trkpt lon="5.805122" lat="51.160539"><ele>1.2</ele><time>2022-06-19T09:28:49.000Z</time></trkpt><trkpt lon="5.805019" lat="51.160493"><ele>1.2</ele><time>2022-06-19T09:28:50.000Z</time></trkpt><trkpt lon="5.804918" lat="51.16045"><ele>1.2</ele><time>2022-06-19T09:28:51.000Z</time></trkpt><trkpt lon="5.804808" lat="51.160402"><ele>1.2</ele><time>2022-06-19T09:28:52.000Z</time></trkpt><trkpt lon="5.804714" lat="51.160358"><ele>1.4</ele><time>2022-06-19T09:28:53.000Z</time></trkpt><trkpt lon="5.804612" lat="51.160314"><ele>1.4</ele><time>2022-06-19T09:28:54.000Z</time></trkpt><trkpt lon="5.804518" lat="51.160274"><ele>1.6</ele><time>2022-06-19T09:28:55.000Z</time></trkpt><trkpt lon="5.804422" lat="51.160238"><ele>1.6</ele><time>2022-06-19T09:28:56.000Z</time></trkpt><trkpt lon="5.804336" lat="51.160202"><ele>1.6</ele><time>2022-06-19T09:28:57.000Z</time></trkpt><trkpt lon="5.804233" lat="51.160161"><ele>1.6</ele><time>2022-06-19T09:28:58.000Z</time></trkpt><trkpt lon="5.804139" lat="51.160121"><ele>1.6</ele><time>2022-06-19T09:28:59.000Z</time></trkpt><trkpt lon="5.80404" lat="51.160081"><ele>1.4</ele><time>2022-06-19T09:29:00.000Z</time></trkpt><trkpt lon="5.803947" lat="51.160038"><ele>1.4</ele><time>2022-06-19T09:29:01.000Z</time></trkpt><trkpt lon="5.803843" lat="51.159991"><ele>1.4</ele><time>2022-06-19T09:29:02.000Z</time></trkpt><trkpt lon="5.803739" lat="51.159941"><ele>1.4</ele><time>2022-06-19T09:29:03.000Z</time></trkpt><trkpt lon="5.803633" lat="51.159894"><ele>1.4</ele><time>2022-06-19T09:29:04.000Z</time></trkpt><trkpt lon="5.803531" lat="51.159846"><ele>1.4</ele><time>2022-06-19T09:29:05.000Z</time></trkpt><trkpt lon="5.803423" lat="51.159795"><ele>1.4</ele><time>2022-06-19T09:29:06.000Z</time></trkpt><trkpt lon="5.803326" lat="51.159745"><ele>1.4</ele><time>2022-06-19T09:29:07.000Z</time></trkpt><trkpt lon="5.803219" lat="51.159693"><ele>1.4</ele><time>2022-06-19T09:29:08.000Z</time></trkpt><trkpt lon="5.803121" lat="51.159641"><ele>1.4</ele><time>2022-06-19T09:29:09.000Z</time></trkpt><trkpt lon="5.803021" lat="51.159589"><ele>1.4</ele><time>2022-06-19T09:29:10.000Z</time></trkpt><trkpt lon="5.802929" lat="51.159538"><ele>1.2</ele><time>2022-06-19T09:29:11.000Z</time></trkpt><trkpt lon="5.802837" lat="51.159476"><ele>1.2</ele><time>2022-06-19T09:29:12.000Z</time></trkpt><trkpt lon="5.802755" lat="51.159421"><ele>1.2</ele><time>2022-06-19T09:29:13.000Z</time></trkpt><trkpt lon="5.802666" lat="51.159357"><ele>1.2</ele><time>2022-06-19T09:29:14.000Z</time></trkpt><trkpt lon="5.802583" lat="51.1593"><ele>1.2</ele><time>2022-06-19T09:29:15.000Z</time></trkpt><trkpt lon="5.802487" lat="51.159236"><ele>1</ele><time>2022-06-19T09:29:16.000Z</time></trkpt><trkpt lon="5.802403" lat="51.159179"><ele>0.8</ele><time>2022-06-19T09:29:17.000Z</time></trkpt><trkpt lon="5.80231" lat="51.159113"><ele>0.8</ele><time>2022-06-19T09:29:18.000Z</time></trkpt><trkpt lon="5.802231" lat="51.159056"><ele>0.6</ele><time>2022-06-19T09:29:19.000Z</time></trkpt><trkpt lon="5.802144" lat="51.158997"><ele>0.6</ele><time>2022-06-19T09:29:20.000Z</time></trkpt><trkpt lon="5.802057" lat="51.15894"><ele>0.6</ele><time>2022-06-19T09:29:21.000Z</time></trkpt><trkpt lon="5.801969" lat="51.158881"><ele>0.6</ele><time>2022-06-19T09:29:22.000Z</time></trkpt><trkpt lon="5.801888" lat="51.158822"><ele>0.4</ele><time>2022-06-19T09:29:23.000Z</time></trkpt><trkpt lon="5.8018" lat="51.158762"><ele>0.2</ele><time>2022-06-19T09:29:24.000Z</time></trkpt><trkpt lon="5.801722" lat="51.15871"><ele>0</ele><time>2022-06-19T09:29:25.000Z</time></trkpt><trkpt lon="5.801631" lat="51.158645"><ele>-0.2</ele><time>2022-06-19T09:29:26.000Z</time></trkpt><trkpt lon="5.801549" lat="51.158588"><ele>-0.4</ele><time>2022-06-19T09:29:27.000Z</time></trkpt><trkpt lon="5.801454" lat="51.158521"><ele>-0.6</ele><time>2022-06-19T09:29:28.000Z</time></trkpt><trkpt lon="5.801372" lat="51.158464"><ele>-0.8</ele><time>2022-06-19T09:29:29.000Z</time></trkpt><trkpt lon="5.801281" lat="51.158404"><ele>-0.8</ele><time>2022-06-19T09:29:30.000Z</time></trkpt><trkpt lon="5.801205" lat="51.158345"><ele>-0.8</ele><time>2022-06-19T09:29:31.000Z</time></trkpt><trkpt lon="5.801113" lat="51.158274"><ele>-0.8</ele><time>2022-06-19T09:29:32.000Z</time></trkpt><trkpt lon="5.801032" lat="51.158216"><ele>-0.8</ele><time>2022-06-19T09:29:33.000Z</time></trkpt><trkpt lon="5.800944" lat="51.158157"><ele>-0.8</ele><time>2022-06-19T09:29:34.000Z</time></trkpt><trkpt lon="5.800863" lat="51.158104"><ele>-0.8</ele><time>2022-06-19T09:29:35.000Z</time></trkpt><trkpt lon="5.800772" lat="51.158041"><ele>-0.8</ele><time>2022-06-19T09:29:36.000Z</time></trkpt><trkpt lon="5.800698" lat="51.157985"><ele>-0.8</ele><time>2022-06-19T09:29:37.000Z</time></trkpt><trkpt lon="5.800609" lat="51.157918"><ele>-0.8</ele><time>2022-06-19T09:29:38.000Z</time></trkpt><trkpt lon="5.800528" lat="51.157859"><ele>-0.8</ele><time>2022-06-19T09:29:39.000Z</time></trkpt><trkpt lon="5.800434" lat="51.157793"><ele>-0.8</ele><time>2022-06-19T09:29:40.000Z</time></trkpt><trkpt lon="5.800352" lat="51.157734"><ele>-0.8</ele><time>2022-06-19T09:29:41.000Z</time></trkpt><trkpt lon="5.800264" lat="51.157671"><ele>-0.8</ele><time>2022-06-19T09:29:42.000Z</time></trkpt><trkpt lon="5.800183" lat="51.157613"><ele>-1</ele><time>2022-06-19T09:29:43.000Z</time></trkpt><trkpt lon="5.800093" lat="51.157546"><ele>-1.2</ele><time>2022-06-19T09:29:44.000Z</time></trkpt><trkpt lon="5.800014" lat="51.157486"><ele>-1.4</ele><time>2022-06-19T09:29:45.000Z</time></trkpt><trkpt lon="5.799921" lat="51.157417"><ele>-1.6</ele><time>2022-06-19T09:29:46.000Z</time></trkpt><trkpt lon="5.799838" lat="51.157357"><ele>-1.8</ele><time>2022-06-19T09:29:47.000Z</time></trkpt><trkpt lon="5.799748" lat="51.157294"><ele>-1.8</ele><time>2022-06-19T09:29:48.000Z</time></trkpt><trkpt lon="5.799669" lat="51.15724"><ele>-1.8</ele><time>2022-06-19T09:29:49.000Z</time></trkpt><trkpt lon="5.799578" lat="51.157175"><ele>-1.6</ele><time>2022-06-19T09:29:50.000Z</time></trkpt><trkpt lon="5.799499" lat="51.157122"><ele>-1.6</ele><time>2022-06-19T09:29:51.000Z</time></trkpt><trkpt lon="5.799408" lat="51.15706"><ele>-1.8</ele><time>2022-06-19T09:29:52.000Z</time></trkpt><trkpt lon="5.799326" lat="51.157006"><ele>-1.8</ele><time>2022-06-19T09:29:53.000Z</time></trkpt><trkpt lon="5.799238" lat="51.156947"><ele>-1.8</ele><time>2022-06-19T09:29:54.000Z</time></trkpt><trkpt lon="5.799166" lat="51.156894"><ele>-1.8</ele><time>2022-06-19T09:29:55.000Z</time></trkpt><trkpt lon="5.799075" lat="51.156826"><ele>-1.8</ele><time>2022-06-19T09:29:56.000Z</time></trkpt><trkpt lon="5.798996" lat="51.156771"><ele>-1.8</ele><time>2022-06-19T09:29:57.000Z</time></trkpt><trkpt lon="5.798903" lat="51.156706"><ele>-1.8</ele><time>2022-06-19T09:29:58.000Z</time></trkpt><trkpt lon="5.79882" lat="51.156652"><ele>-1.8</ele><time>2022-06-19T09:29:59.000Z</time></trkpt><trkpt lon="5.798722" lat="51.156587"><ele>-1.8</ele><time>2022-06-19T09:30:00.000Z</time></trkpt><trkpt lon="5.798638" lat="51.156541"><ele>-1.8</ele><time>2022-06-19T09:30:01.000Z</time></trkpt><trkpt lon="5.798528" lat="51.156484"><ele>-2</ele><time>2022-06-19T09:30:02.000Z</time></trkpt><trkpt lon="5.798422" lat="51.156438"><ele>-2</ele><time>2022-06-19T09:30:03.000Z</time></trkpt><trkpt lon="5.798305" lat="51.156392"><ele>-2</ele><time>2022-06-19T09:30:04.000Z</time></trkpt><trkpt lon="5.798204" lat="51.156358"><ele>-2.2</ele><time>2022-06-19T09:30:05.000Z</time></trkpt><trkpt lon="5.798078" lat="51.156316"><ele>-2.2</ele><time>2022-06-19T09:30:06.000Z</time></trkpt><trkpt lon="5.797971" lat="51.156288"><ele>-2.4</ele><time>2022-06-19T09:30:07.000Z</time></trkpt><trkpt lon="5.797839" lat="51.156259"><ele>-2.6</ele><time>2022-06-19T09:30:08.000Z</time></trkpt><trkpt lon="5.797719" lat="51.156241"><ele>-2.6</ele><time>2022-06-19T09:30:09.000Z</time></trkpt><trkpt lon="5.797583" lat="51.156224"><ele>-2.8</ele><time>2022-06-19T09:30:10.000Z</time></trkpt><trkpt lon="5.797465" lat="51.156206"><ele>-3</ele><time>2022-06-19T09:30:11.000Z</time></trkpt><trkpt lon="5.797334" lat="51.156186"><ele>-3.2</ele><time>2022-06-19T09:30:12.000Z</time></trkpt><trkpt lon="5.797215" lat="51.156168"><ele>-3.4</ele><time>2022-06-19T09:30:13.000Z</time></trkpt><trkpt lon="5.797084" lat="51.156148"><ele>-3.6</ele><time>2022-06-19T09:30:14.000Z</time></trkpt><trkpt lon="5.796975" lat="51.15613"><ele>-3.8</ele><time>2022-06-19T09:30:15.000Z</time></trkpt><trkpt lon="5.796841" lat="51.156113"><ele>-3.8</ele><time>2022-06-19T09:30:16.000Z</time></trkpt><trkpt lon="5.796724" lat="51.156095"><ele>-3.8</ele><time>2022-06-19T09:30:17.000Z</time></trkpt><trkpt lon="5.796603" lat="51.156075"><ele>-4</ele><time>2022-06-19T09:30:18.000Z</time></trkpt><trkpt lon="5.796498" lat="51.156058"><ele>-4</ele><time>2022-06-19T09:30:19.000Z</time></trkpt><trkpt lon="5.796372" lat="51.156041"><ele>-4</ele><time>2022-06-19T09:30:20.000Z</time></trkpt><trkpt lon="5.79626" lat="51.156027"><ele>-4.2</ele><time>2022-06-19T09:30:21.000Z</time></trkpt><trkpt lon="5.796132" lat="51.156007"><ele>-4.2</ele><time>2022-06-19T09:30:22.000Z</time></trkpt><trkpt lon="5.79602" lat="51.155992"><ele>-4.4</ele><time>2022-06-19T09:30:23.000Z</time></trkpt><trkpt lon="5.795892" lat="51.15598"><ele>-4.6</ele><time>2022-06-19T09:30:24.000Z</time></trkpt><trkpt lon="5.795783" lat="51.15597"><ele>-4.8</ele><time>2022-06-19T09:30:25.000Z</time></trkpt><trkpt lon="5.795646" lat="51.15596"><ele>-5</ele><time>2022-06-19T09:30:26.000Z</time></trkpt><trkpt lon="5.795536" lat="51.155957"><ele>-5</ele><time>2022-06-19T09:30:27.000Z</time></trkpt><trkpt lon="5.795404" lat="51.155953"><ele>-5</ele><time>2022-06-19T09:30:28.000Z</time></trkpt><trkpt lon="5.795286" lat="51.155949"><ele>-5</ele><time>2022-06-19T09:30:29.000Z</time></trkpt><trkpt lon="5.795159" lat="51.155949"><ele>-5</ele><time>2022-06-19T09:30:30.000Z</time></trkpt><trkpt lon="5.79504" lat="51.155945"><ele>-5.2</ele><time>2022-06-19T09:30:31.000Z</time></trkpt><trkpt lon="5.794906" lat="51.155945"><ele>-5.2</ele><time>2022-06-19T09:30:32.000Z</time></trkpt><trkpt lon="5.794789" lat="51.155945"><ele>-5.2</ele><time>2022-06-19T09:30:33.000Z</time></trkpt><trkpt lon="5.794663" lat="51.155941"><ele>-5.4</ele><time>2022-06-19T09:30:34.000Z</time></trkpt><trkpt lon="5.794546" lat="51.155938"><ele>-5.4</ele><time>2022-06-19T09:30:35.000Z</time></trkpt><trkpt lon="5.794411" lat="51.155937"><ele>-5.4</ele><time>2022-06-19T09:30:36.000Z</time></trkpt><trkpt lon="5.794289" lat="51.155937"><ele>-5.6</ele><time>2022-06-19T09:30:37.000Z</time></trkpt><trkpt lon="5.794161" lat="51.155934"><ele>-5.6</ele><time>2022-06-19T09:30:38.000Z</time></trkpt><trkpt lon="5.794044" lat="51.15593"><ele>-5.8</ele><time>2022-06-19T09:30:39.000Z</time></trkpt><trkpt lon="5.793916" lat="51.155926"><ele>-5.8</ele><time>2022-06-19T09:30:40.000Z</time></trkpt><trkpt lon="5.793802" lat="51.155926"><ele>-6</ele><time>2022-06-19T09:30:41.000Z</time></trkpt><trkpt lon="5.793673" lat="51.155926"><ele>-5.8</ele><time>2022-06-19T09:30:42.000Z</time></trkpt><trkpt lon="5.793559" lat="51.155922"><ele>-5.8</ele><time>2022-06-19T09:30:43.000Z</time></trkpt><trkpt lon="5.793433" lat="51.155918"><ele>-6</ele><time>2022-06-19T09:30:44.000Z</time></trkpt><trkpt lon="5.793312" lat="51.155909"><ele>-6</ele><time>2022-06-19T09:30:45.000Z</time></trkpt><trkpt lon="5.793192" lat="51.155899"><ele>-6.2</ele><time>2022-06-19T09:30:46.000Z</time></trkpt><trkpt lon="5.793076" lat="51.155885"><ele>-6.2</ele><time>2022-06-19T09:30:47.000Z</time></trkpt><trkpt lon="5.792962" lat="51.155863"><ele>-6.2</ele><time>2022-06-19T09:30:48.000Z</time></trkpt><trkpt lon="5.792848" lat="51.155829"><ele>-6.4</ele><time>2022-06-19T09:30:49.000Z</time></trkpt><trkpt lon="5.792735" lat="51.155794"><ele>-6.4</ele><time>2022-06-19T09:30:50.000Z</time></trkpt><trkpt lon="5.792627" lat="51.155752"><ele>-6.6</ele><time>2022-06-19T09:30:51.000Z</time></trkpt><trkpt lon="5.792521" lat="51.15571"><ele>-6.6</ele><time>2022-06-19T09:30:52.000Z</time></trkpt><trkpt lon="5.792421" lat="51.155666"><ele>-6.8</ele><time>2022-06-19T09:30:53.000Z</time></trkpt><trkpt lon="5.792319" lat="51.15562"><ele>-6.8</ele><time>2022-06-19T09:30:54.000Z</time></trkpt><trkpt lon="5.792216" lat="51.155573"><ele>-7</ele><time>2022-06-19T09:30:55.000Z</time></trkpt><trkpt lon="5.792112" lat="51.155527"><ele>-7</ele><time>2022-06-19T09:30:56.000Z</time></trkpt><trkpt lon="5.792012" lat="51.155481"><ele>-7</ele><time>2022-06-19T09:30:57.000Z</time></trkpt><trkpt lon="5.791912" lat="51.155432"><ele>-7</ele><time>2022-06-19T09:30:58.000Z</time></trkpt><trkpt lon="5.791812" lat="51.155386"><ele>-7</ele><time>2022-06-19T09:30:59.000Z</time></trkpt><trkpt lon="5.791712" lat="51.155336"><ele>-7</ele><time>2022-06-19T09:31:00.000Z</time></trkpt><trkpt lon="5.791616" lat="51.155286"><ele>-7.2</ele><time>2022-06-19T09:31:01.000Z</time></trkpt><trkpt lon="5.791527" lat="51.155241"><ele>-7.2</ele><time>2022-06-19T09:31:02.000Z</time></trkpt><trkpt lon="5.791441" lat="51.155193"><ele>-7.2</ele><time>2022-06-19T09:31:03.000Z</time></trkpt><trkpt lon="5.791356" lat="51.155145"><ele>-7.2</ele><time>2022-06-19T09:31:04.000Z</time></trkpt><trkpt lon="5.791278" lat="51.155096"><ele>-7.2</ele><time>2022-06-19T09:31:05.000Z</time></trkpt><trkpt lon="5.791204" lat="51.155046"><ele>-7.2</ele><time>2022-06-19T09:31:06.000Z</time></trkpt><trkpt lon="5.791134" lat="51.154989"><ele>-7.2</ele><time>2022-06-19T09:31:07.000Z</time></trkpt><trkpt lon="5.791066" lat="51.154932"><ele>-7.4</ele><time>2022-06-19T09:31:08.000Z</time></trkpt><trkpt lon="5.791003" lat="51.154872"><ele>-7.4</ele><time>2022-06-19T09:31:09.000Z</time></trkpt><trkpt lon="5.790942" lat="51.154815"><ele>-7.4</ele><time>2022-06-19T09:31:10.000Z</time></trkpt><trkpt lon="5.790877" lat="51.154749"><ele>-7.4</ele><time>2022-06-19T09:31:11.000Z</time></trkpt><trkpt lon="5.790812" lat="51.15468"><ele>-7.4</ele><time>2022-06-19T09:31:12.000Z</time></trkpt><trkpt lon="5.790738" lat="51.154617"><ele>-7.4</ele><time>2022-06-19T09:31:13.000Z</time></trkpt><trkpt lon="5.790658" lat="51.154547"><ele>-7.4</ele><time>2022-06-19T09:31:14.000Z</time></trkpt><trkpt lon="5.790572" lat="51.154482"><ele>-7.4</ele><time>2022-06-19T09:31:15.000Z</time></trkpt><trkpt lon="5.790488" lat="51.154417"><ele>-7.4</ele><time>2022-06-19T09:31:16.000Z</time></trkpt><trkpt lon="5.790402" lat="51.154356"><ele>-7.4</ele><time>2022-06-19T09:31:17.000Z</time></trkpt><trkpt lon="5.790314" lat="51.154291"><ele>-7.4</ele><time>2022-06-19T09:31:18.000Z</time></trkpt><trkpt lon="5.790233" lat="51.15423"><ele>-7.4</ele><time>2022-06-19T09:31:19.000Z</time></trkpt><trkpt lon="5.790151" lat="51.154169"><ele>-7.2</ele><time>2022-06-19T09:31:20.000Z</time></trkpt><trkpt lon="5.790071" lat="51.154112"><ele>-7</ele><time>2022-06-19T09:31:21.000Z</time></trkpt><trkpt lon="5.789991" lat="51.154058"><ele>-7</ele><time>2022-06-19T09:31:22.000Z</time></trkpt><trkpt lon="5.789912" lat="51.154002"><ele>-7</ele><time>2022-06-19T09:31:23.000Z</time></trkpt><trkpt lon="5.789833" lat="51.153948"><ele>-7</ele><time>2022-06-19T09:31:24.000Z</time></trkpt><trkpt lon="5.789756" lat="51.153898"><ele>-7</ele><time>2022-06-19T09:31:25.000Z</time></trkpt><trkpt lon="5.789679" lat="51.153848"><ele>-7</ele><time>2022-06-19T09:31:26.000Z</time></trkpt><trkpt lon="5.789604" lat="51.153795"><ele>-7</ele><time>2022-06-19T09:31:27.000Z</time></trkpt><trkpt lon="5.789528" lat="51.153746"><ele>-7.2</ele><time>2022-06-19T09:31:28.000Z</time></trkpt><trkpt lon="5.789451" lat="51.153696"><ele>-7.2</ele><time>2022-06-19T09:31:29.000Z</time></trkpt><trkpt lon="5.789375" lat="51.153643"><ele>-7.2</ele><time>2022-06-19T09:31:30.000Z</time></trkpt><trkpt lon="5.789299" lat="51.15359"><ele>-7.2</ele><time>2022-06-19T09:31:31.000Z</time></trkpt><trkpt lon="5.789219" lat="51.153536"><ele>-7.2</ele><time>2022-06-19T09:31:32.000Z</time></trkpt><trkpt lon="5.789139" lat="51.153482"><ele>-7</ele><time>2022-06-19T09:31:33.000Z</time></trkpt><trkpt lon="5.78906" lat="51.153429"><ele>-7</ele><time>2022-06-19T09:31:34.000Z</time></trkpt><trkpt lon="5.788981" lat="51.153372"><ele>-7</ele><time>2022-06-19T09:31:35.000Z</time></trkpt><trkpt lon="5.788902" lat="51.153318"><ele>-6.8</ele><time>2022-06-19T09:31:36.000Z</time></trkpt><trkpt lon="5.788825" lat="51.153269"><ele>-6.8</ele><time>2022-06-19T09:31:37.000Z</time></trkpt><trkpt lon="5.788743" lat="51.153216"><ele>-6.8</ele><time>2022-06-19T09:31:38.000Z</time></trkpt><trkpt lon="5.788659" lat="51.153162"><ele>-6.8</ele><time>2022-06-19T09:31:39.000Z</time></trkpt><trkpt lon="5.788572" lat="51.153104"><ele>-6.8</ele><time>2022-06-19T09:31:40.000Z</time></trkpt><trkpt lon="5.788482" lat="51.153044"><ele>-7</ele><time>2022-06-19T09:31:41.000Z</time></trkpt><trkpt lon="5.78839" lat="51.152979"><ele>-7</ele><time>2022-06-19T09:31:42.000Z</time></trkpt><trkpt lon="5.788293" lat="51.152918"><ele>-7</ele><time>2022-06-19T09:31:43.000Z</time></trkpt><trkpt lon="5.788195" lat="51.15286"><ele>-7.2</ele><time>2022-06-19T09:31:44.000Z</time></trkpt><trkpt lon="5.788093" lat="51.152803"><ele>-7.2</ele><time>2022-06-19T09:31:45.000Z</time></trkpt><trkpt lon="5.787991" lat="51.152754"><ele>-7.2</ele><time>2022-06-19T09:31:46.000Z</time></trkpt><trkpt lon="5.787888" lat="51.152704"><ele>-7.2</ele><time>2022-06-19T09:31:47.000Z</time></trkpt><trkpt lon="5.787786" lat="51.152658"><ele>-7.2</ele><time>2022-06-19T09:31:48.000Z</time></trkpt><trkpt lon="5.787687" lat="51.15261"><ele>-7</ele><time>2022-06-19T09:31:49.000Z</time></trkpt><trkpt lon="5.78758" lat="51.152563"><ele>-6.8</ele><time>2022-06-19T09:31:50.000Z</time></trkpt><trkpt lon="5.787479" lat="51.152517"><ele>-6.6</ele><time>2022-06-19T09:31:51.000Z</time></trkpt><trkpt lon="5.787378" lat="51.152471"><ele>-6.4</ele><time>2022-06-19T09:31:52.000Z</time></trkpt><trkpt lon="5.787278" lat="51.152425"><ele>-6.2</ele><time>2022-06-19T09:31:53.000Z</time></trkpt><trkpt lon="5.787183" lat="51.15238"><ele>-6.2</ele><time>2022-06-19T09:31:54.000Z</time></trkpt><trkpt lon="5.787091" lat="51.152328"><ele>-6</ele><time>2022-06-19T09:31:55.000Z</time></trkpt><trkpt lon="5.786999" lat="51.152277"><ele>-5.8</ele><time>2022-06-19T09:31:56.000Z</time></trkpt><trkpt lon="5.786919" lat="51.15222"><ele>-5.8</ele><time>2022-06-19T09:31:57.000Z</time></trkpt><trkpt lon="5.786848" lat="51.152163"><ele>-5.6</ele><time>2022-06-19T09:31:58.000Z</time></trkpt><trkpt lon="5.786782" lat="51.152104"><ele>-5.4</ele><time>2022-06-19T09:31:59.000Z</time></trkpt><trkpt lon="5.786714" lat="51.152037"><ele>-5.4</ele><time>2022-06-19T09:32:00.000Z</time></trkpt><trkpt lon="5.78665" lat="51.151972"><ele>-5.4</ele><time>2022-06-19T09:32:01.000Z</time></trkpt><trkpt lon="5.78659" lat="51.151904"><ele>-5.2</ele><time>2022-06-19T09:32:02.000Z</time></trkpt><trkpt lon="5.786531" lat="51.151839"><ele>-5.2</ele><time>2022-06-19T09:32:03.000Z</time></trkpt><trkpt lon="5.78647" lat="51.151771"><ele>-5</ele><time>2022-06-19T09:32:04.000Z</time></trkpt><trkpt lon="5.786409" lat="51.151701"><ele>-5</ele><time>2022-06-19T09:32:05.000Z</time></trkpt><trkpt lon="5.786349" lat="51.151633"><ele>-4.8</ele><time>2022-06-19T09:32:06.000Z</time></trkpt><trkpt lon="5.786289" lat="51.151568"><ele>-4.8</ele><time>2022-06-19T09:32:07.000Z</time></trkpt><trkpt lon="5.786226" lat="51.151499"><ele>-4.6</ele><time>2022-06-19T09:32:08.000Z</time></trkpt><trkpt lon="5.786164" lat="51.151431"><ele>-4.6</ele><time>2022-06-19T09:32:09.000Z</time></trkpt><trkpt lon="5.7861" lat="51.151365"><ele>-4.4</ele><time>2022-06-19T09:32:10.000Z</time></trkpt><trkpt lon="5.786037" lat="51.151297"><ele>-4.4</ele><time>2022-06-19T09:32:11.000Z</time></trkpt><trkpt lon="5.785969" lat="51.151228"><ele>-4.4</ele><time>2022-06-19T09:32:12.000Z</time></trkpt><trkpt lon="5.785896" lat="51.151167"><ele>-4.4</ele><time>2022-06-19T09:32:13.000Z</time></trkpt><trkpt lon="5.785823" lat="51.151103"><ele>-4.2</ele><time>2022-06-19T09:32:14.000Z</time></trkpt><trkpt lon="5.785745" lat="51.151045"><ele>-4.2</ele><time>2022-06-19T09:32:15.000Z</time></trkpt><trkpt lon="5.785668" lat="51.150988"><ele>-4</ele><time>2022-06-19T09:32:16.000Z</time></trkpt><trkpt lon="5.785591" lat="51.150931"><ele>-4</ele><time>2022-06-19T09:32:17.000Z</time></trkpt><trkpt lon="5.785514" lat="51.15087"><ele>-3.8</ele><time>2022-06-19T09:32:18.000Z</time></trkpt><trkpt lon="5.785438" lat="51.150812"><ele>-3.8</ele><time>2022-06-19T09:32:19.000Z</time></trkpt><trkpt lon="5.785366" lat="51.150755"><ele>-3.6</ele><time>2022-06-19T09:32:20.000Z</time></trkpt><trkpt lon="5.785289" lat="51.15069"><ele>-3.6</ele><time>2022-06-19T09:32:21.000Z</time></trkpt><trkpt lon="5.785211" lat="51.150633"><ele>-3.4</ele><time>2022-06-19T09:32:22.000Z</time></trkpt><trkpt lon="5.785132" lat="51.150572"><ele>-3.2</ele><time>2022-06-19T09:32:23.000Z</time></trkpt><trkpt lon="5.785053" lat="51.150515"><ele>-3.2</ele><time>2022-06-19T09:32:24.000Z</time></trkpt><trkpt lon="5.784976" lat="51.150454"><ele>-3.2</ele><time>2022-06-19T09:32:25.000Z</time></trkpt><trkpt lon="5.784897" lat="51.150389"><ele>-3.2</ele><time>2022-06-19T09:32:26.000Z</time></trkpt><trkpt lon="5.784816" lat="51.150327"><ele>-3.2</ele><time>2022-06-19T09:32:27.000Z</time></trkpt><trkpt lon="5.78474" lat="51.150272"><ele>-3</ele><time>2022-06-19T09:32:28.000Z</time></trkpt><trkpt lon="5.784661" lat="51.150212"><ele>-3</ele><time>2022-06-19T09:32:29.000Z</time></trkpt><trkpt lon="5.784579" lat="51.150152"><ele>-2.8</ele><time>2022-06-19T09:32:30.000Z</time></trkpt><trkpt lon="5.784497" lat="51.150091"><ele>-2.8</ele><time>2022-06-19T09:32:31.000Z</time></trkpt><trkpt lon="5.784418" lat="51.150029"><ele>-2.8</ele><time>2022-06-19T09:32:32.000Z</time></trkpt><trkpt lon="5.784339" lat="51.149965"><ele>-2.8</ele><time>2022-06-19T09:32:33.000Z</time></trkpt><trkpt lon="5.784258" lat="51.149908"><ele>-2.6</ele><time>2022-06-19T09:32:34.000Z</time></trkpt><trkpt lon="5.784177" lat="51.149847"><ele>-2.8</ele><time>2022-06-19T09:32:35.000Z</time></trkpt><trkpt lon="5.784098" lat="51.14979"><ele>-2.8</ele><time>2022-06-19T09:32:36.000Z</time></trkpt><trkpt lon="5.784016" lat="51.149729"><ele>-2.6</ele><time>2022-06-19T09:32:37.000Z</time></trkpt><trkpt lon="5.783936" lat="51.149668"><ele>-2.6</ele><time>2022-06-19T09:32:38.000Z</time></trkpt><trkpt lon="5.783856" lat="51.149611"><ele>-2.6</ele><time>2022-06-19T09:32:39.000Z</time></trkpt><trkpt lon="5.783776" lat="51.149549"><ele>-2.4</ele><time>2022-06-19T09:32:40.000Z</time></trkpt><trkpt lon="5.783694" lat="51.149488"><ele>-2.4</ele><time>2022-06-19T09:32:41.000Z</time></trkpt><trkpt lon="5.783611" lat="51.149428"><ele>-2.4</ele><time>2022-06-19T09:32:42.000Z</time></trkpt><trkpt lon="5.783527" lat="51.149371"><ele>-2.4</ele><time>2022-06-19T09:32:43.000Z</time></trkpt><trkpt lon="5.783437" lat="51.149317"><ele>-2.4</ele><time>2022-06-19T09:32:44.000Z</time></trkpt><trkpt lon="5.783345" lat="51.149259"><ele>-2.4</ele><time>2022-06-19T09:32:45.000Z</time></trkpt><trkpt lon="5.783252" lat="51.149206"><ele>-2.2</ele><time>2022-06-19T09:32:46.000Z</time></trkpt><trkpt lon="5.783158" lat="51.149153"><ele>-2.2</ele><time>2022-06-19T09:32:47.000Z</time></trkpt><trkpt lon="5.783063" lat="51.149103"><ele>-2.2</ele><time>2022-06-19T09:32:48.000Z</time></trkpt><trkpt lon="5.78297" lat="51.14905"><ele>-2.2</ele><time>2022-06-19T09:32:49.000Z</time></trkpt><trkpt lon="5.782877" lat="51.148997"><ele>-2</ele><time>2022-06-19T09:32:50.000Z</time></trkpt><trkpt lon="5.782783" lat="51.148943"><ele>-1.8</ele><time>2022-06-19T09:32:51.000Z</time></trkpt><trkpt lon="5.78269" lat="51.148889"><ele>-1.8</ele><time>2022-06-19T09:32:52.000Z</time></trkpt><trkpt lon="5.782596" lat="51.148836"><ele>-1.8</ele><time>2022-06-19T09:32:53.000Z</time></trkpt><trkpt lon="5.782503" lat="51.148782"><ele>-1.6</ele><time>2022-06-19T09:32:54.000Z</time></trkpt><trkpt lon="5.78241" lat="51.148729"><ele>-1.6</ele><time>2022-06-19T09:32:55.000Z</time></trkpt><trkpt lon="5.782315" lat="51.148675"><ele>-1.6</ele><time>2022-06-19T09:32:56.000Z</time></trkpt><trkpt lon="5.782221" lat="51.148618"><ele>-1.6</ele><time>2022-06-19T09:32:57.000Z</time></trkpt><trkpt lon="5.782126" lat="51.148565"><ele>-1.6</ele><time>2022-06-19T09:32:58.000Z</time></trkpt><trkpt lon="5.782032" lat="51.148512"><ele>-1.4</ele><time>2022-06-19T09:32:59.000Z</time></trkpt><trkpt lon="5.781939" lat="51.14846"><ele>-1.4</ele><time>2022-06-19T09:33:00.000Z</time></trkpt><trkpt lon="5.781845" lat="51.148401"><ele>-1.4</ele><time>2022-06-19T09:33:01.000Z</time></trkpt><trkpt lon="5.781755" lat="51.148348"><ele>-1.2</ele><time>2022-06-19T09:33:02.000Z</time></trkpt><trkpt lon="5.781664" lat="51.148291"><ele>-1.2</ele><time>2022-06-19T09:33:03.000Z</time></trkpt><trkpt lon="5.781573" lat="51.148233"><ele>-1.2</ele><time>2022-06-19T09:33:04.000Z</time></trkpt><trkpt lon="5.781481" lat="51.14818"><ele>-1</ele><time>2022-06-19T09:33:05.000Z</time></trkpt><trkpt lon="5.781388" lat="51.148127"><ele>-1</ele><time>2022-06-19T09:33:06.000Z</time></trkpt><trkpt lon="5.781296" lat="51.148069"><ele>-1</ele><time>2022-06-19T09:33:07.000Z</time></trkpt><trkpt lon="5.781205" lat="51.148016"><ele>-0.8</ele><time>2022-06-19T09:33:08.000Z</time></trkpt><trkpt lon="5.781114" lat="51.147962"><ele>-0.6</ele><time>2022-06-19T09:33:09.000Z</time></trkpt><trkpt lon="5.781028" lat="51.147909"><ele>-0.6</ele><time>2022-06-19T09:33:10.000Z</time></trkpt><trkpt lon="5.780941" lat="51.147856"><ele>-0.4</ele><time>2022-06-19T09:33:11.000Z</time></trkpt><trkpt lon="5.780856" lat="51.147806"><ele>-0.2</ele><time>2022-06-19T09:33:12.000Z</time></trkpt><trkpt lon="5.780769" lat="51.147756"><ele>0</ele><time>2022-06-19T09:33:13.000Z</time></trkpt><trkpt lon="5.780683" lat="51.147707"><ele>0</ele><time>2022-06-19T09:33:14.000Z</time></trkpt><trkpt lon="5.780594" lat="51.147653"><ele>0</ele><time>2022-06-19T09:33:15.000Z</time></trkpt><trkpt lon="5.780506" lat="51.147603"><ele>0.2</ele><time>2022-06-19T09:33:16.000Z</time></trkpt><trkpt lon="5.780417" lat="51.147551"><ele>0.2</ele><time>2022-06-19T09:33:17.000Z</time></trkpt><trkpt lon="5.780326" lat="51.147498"><ele>0.2</ele><time>2022-06-19T09:33:18.000Z</time></trkpt><trkpt lon="5.780232" lat="51.147448"><ele>0.2</ele><time>2022-06-19T09:33:19.000Z</time></trkpt><trkpt lon="5.780135" lat="51.147394"><ele>0.2</ele><time>2022-06-19T09:33:20.000Z</time></trkpt><trkpt lon="5.780036" lat="51.147344"><ele>0.2</ele><time>2022-06-19T09:33:21.000Z</time></trkpt><trkpt lon="5.779941" lat="51.147294"><ele>0.4</ele><time>2022-06-19T09:33:22.000Z</time></trkpt><trkpt lon="5.779847" lat="51.147245"><ele>0.4</ele><time>2022-06-19T09:33:23.000Z</time></trkpt><trkpt lon="5.779752" lat="51.147192"><ele>0.4</ele><time>2022-06-19T09:33:24.000Z</time></trkpt><trkpt lon="5.779659" lat="51.147146"><ele>0.4</ele><time>2022-06-19T09:33:25.000Z</time></trkpt><trkpt lon="5.779566" lat="51.1471"><ele>0.4</ele><time>2022-06-19T09:33:26.000Z</time></trkpt><trkpt lon="5.779472" lat="51.147054"><ele>0.4</ele><time>2022-06-19T09:33:27.000Z</time></trkpt><trkpt lon="5.779381" lat="51.147008"><ele>0.4</ele><time>2022-06-19T09:33:28.000Z</time></trkpt><trkpt lon="5.779289" lat="51.146963"><ele>0.4</ele><time>2022-06-19T09:33:29.000Z</time></trkpt><trkpt lon="5.779196" lat="51.146914"><ele>0.4</ele><time>2022-06-19T09:33:30.000Z</time></trkpt><trkpt lon="5.779103" lat="51.146871"><ele>0.4</ele><time>2022-06-19T09:33:31.000Z</time></trkpt><trkpt lon="5.779001" lat="51.146829"><ele>0.2</ele><time>2022-06-19T09:33:32.000Z</time></trkpt><trkpt lon="5.778891" lat="51.146794"><ele>0.2</ele><time>2022-06-19T09:33:33.000Z</time></trkpt><trkpt lon="5.778773" lat="51.146771"><ele>0</ele><time>2022-06-19T09:33:34.000Z</time></trkpt><trkpt lon="5.778655" lat="51.146752"><ele>-0.2</ele><time>2022-06-19T09:33:35.000Z</time></trkpt><trkpt lon="5.778534" lat="51.146733"><ele>-0.2</ele><time>2022-06-19T09:33:36.000Z</time></trkpt><trkpt lon="5.778412" lat="51.146718"><ele>-0.4</ele><time>2022-06-19T09:33:37.000Z</time></trkpt><trkpt lon="5.778292" lat="51.146702"><ele>-0.4</ele><time>2022-06-19T09:33:38.000Z</time></trkpt><trkpt lon="5.778173" lat="51.146683"><ele>-0.4</ele><time>2022-06-19T09:33:39.000Z</time></trkpt><trkpt lon="5.778055" lat="51.146668"><ele>-0.4</ele><time>2022-06-19T09:33:40.000Z</time></trkpt><trkpt lon="5.777932" lat="51.146649"><ele>-0.4</ele><time>2022-06-19T09:33:41.000Z</time></trkpt><trkpt lon="5.777809" lat="51.146626"><ele>-0.6</ele><time>2022-06-19T09:33:42.000Z</time></trkpt><trkpt lon="5.777686" lat="51.146607"><ele>-0.6</ele><time>2022-06-19T09:33:43.000Z</time></trkpt><trkpt lon="5.777561" lat="51.146584"><ele>-0.6</ele><time>2022-06-19T09:33:44.000Z</time></trkpt><trkpt lon="5.777435" lat="51.146558"><ele>-0.4</ele><time>2022-06-19T09:33:45.000Z</time></trkpt><trkpt lon="5.777309" lat="51.146535"><ele>-0.6</ele><time>2022-06-19T09:33:46.000Z</time></trkpt><trkpt lon="5.777177" lat="51.146516"><ele>-0.6</ele><time>2022-06-19T09:33:47.000Z</time></trkpt><trkpt lon="5.777046" lat="51.146493"><ele>-0.6</ele><time>2022-06-19T09:33:48.000Z</time></trkpt><trkpt lon="5.776914" lat="51.146474"><ele>-0.4</ele><time>2022-06-19T09:33:49.000Z</time></trkpt><trkpt lon="5.776787" lat="51.146451"><ele>-0.4</ele><time>2022-06-19T09:33:50.000Z</time></trkpt><trkpt lon="5.77666" lat="51.146432"><ele>-0.4</ele><time>2022-06-19T09:33:51.000Z</time></trkpt><trkpt lon="5.776537" lat="51.146413"><ele>-0.4</ele><time>2022-06-19T09:33:52.000Z</time></trkpt><trkpt lon="5.776415" lat="51.14639"><ele>-0.2</ele><time>2022-06-19T09:33:53.000Z</time></trkpt><trkpt lon="5.776297" lat="51.146368"><ele>0</ele><time>2022-06-19T09:33:54.000Z</time></trkpt><trkpt lon="5.776167" lat="51.146348"><ele>0</ele><time>2022-06-19T09:33:55.000Z</time></trkpt><trkpt lon="5.77604" lat="51.146332"><ele>0</ele><time>2022-06-19T09:33:56.000Z</time></trkpt><trkpt lon="5.775912" lat="51.14631"><ele>-0.2</ele><time>2022-06-19T09:33:57.000Z</time></trkpt><trkpt lon="5.775781" lat="51.14629"><ele>-0.2</ele><time>2022-06-19T09:33:58.000Z</time></trkpt><trkpt lon="5.77565" lat="51.146267"><ele>-0.2</ele><time>2022-06-19T09:33:59.000Z</time></trkpt><trkpt lon="5.775521" lat="51.146248"><ele>-0.2</ele><time>2022-06-19T09:34:00.000Z</time></trkpt><trkpt lon="5.775396" lat="51.146226"><ele>-0.2</ele><time>2022-06-19T09:34:01.000Z</time></trkpt><trkpt lon="5.77527" lat="51.146203"><ele>-0.2</ele><time>2022-06-19T09:34:02.000Z</time></trkpt><trkpt lon="5.775149" lat="51.14618"><ele>0</ele><time>2022-06-19T09:34:03.000Z</time></trkpt><trkpt lon="5.775028" lat="51.146161"><ele>0</ele><time>2022-06-19T09:34:04.000Z</time></trkpt><trkpt lon="5.774912" lat="51.146142"><ele>0</ele><time>2022-06-19T09:34:05.000Z</time></trkpt><trkpt lon="5.774799" lat="51.146123"><ele>0</ele><time>2022-06-19T09:34:06.000Z</time></trkpt><trkpt lon="5.774686" lat="51.146104"><ele>0</ele><time>2022-06-19T09:34:07.000Z</time></trkpt><trkpt lon="5.774572" lat="51.146088"><ele>0</ele><time>2022-06-19T09:34:08.000Z</time></trkpt><trkpt lon="5.774462" lat="51.14607"><ele>0</ele><time>2022-06-19T09:34:09.000Z</time></trkpt><trkpt lon="5.774352" lat="51.14605"><ele>0</ele><time>2022-06-19T09:34:10.000Z</time></trkpt><trkpt lon="5.774241" lat="51.146031"><ele>0</ele><time>2022-06-19T09:34:11.000Z</time></trkpt><trkpt lon="5.774135" lat="51.146012"><ele>0</ele><time>2022-06-19T09:34:12.000Z</time></trkpt><trkpt lon="5.77403" lat="51.145997"><ele>0</ele><time>2022-06-19T09:34:13.000Z</time></trkpt><trkpt lon="5.773924" lat="51.145978"><ele>0</ele><time>2022-06-19T09:34:14.000Z</time></trkpt><trkpt lon="5.773823" lat="51.145955"><ele>0</ele><time>2022-06-19T09:34:15.000Z</time></trkpt><trkpt lon="5.773726" lat="51.145921"><ele>0</ele><time>2022-06-19T09:34:16.000Z</time></trkpt><trkpt lon="5.773643" lat="51.145879"><ele>0</ele><time>2022-06-19T09:34:17.000Z</time></trkpt><trkpt lon="5.773574" lat="51.145823"><ele>0</ele><time>2022-06-19T09:34:18.000Z</time></trkpt><trkpt lon="5.773517" lat="51.14576"><ele>0</ele><time>2022-06-19T09:34:19.000Z</time></trkpt><trkpt lon="5.773461" lat="51.145686"><ele>-0.2</ele><time>2022-06-19T09:34:20.000Z</time></trkpt><trkpt lon="5.773408" lat="51.145615"><ele>-0.2</ele><time>2022-06-19T09:34:21.000Z</time></trkpt><trkpt lon="5.773351" lat="51.14554"><ele>-0.2</ele><time>2022-06-19T09:34:22.000Z</time></trkpt><trkpt lon="5.7733" lat="51.145469"><ele>-0.2</ele><time>2022-06-19T09:34:23.000Z</time></trkpt><trkpt lon="5.773247" lat="51.145396"><ele>-0.2</ele><time>2022-06-19T09:34:24.000Z</time></trkpt><trkpt lon="5.773197" lat="51.145324"><ele>-0.2</ele><time>2022-06-19T09:34:25.000Z</time></trkpt><trkpt lon="5.773148" lat="51.14525"><ele>-0.2</ele><time>2022-06-19T09:34:26.000Z</time></trkpt><trkpt lon="5.773097" lat="51.145179"><ele>-0.2</ele><time>2022-06-19T09:34:27.000Z</time></trkpt><trkpt lon="5.773044" lat="51.145105"><ele>-0.2</ele><time>2022-06-19T09:34:28.000Z</time></trkpt><trkpt lon="5.772993" lat="51.145036"><ele>-0.2</ele><time>2022-06-19T09:34:29.000Z</time></trkpt><trkpt lon="5.772944" lat="51.144975"><ele>-0.2</ele><time>2022-06-19T09:34:30.000Z</time></trkpt><trkpt lon="5.772889" lat="51.1449"><ele>-0.2</ele><time>2022-06-19T09:34:31.000Z</time></trkpt><trkpt lon="5.772835" lat="51.144827"><ele>-0.2</ele><time>2022-06-19T09:34:32.000Z</time></trkpt><trkpt lon="5.772783" lat="51.144755"><ele>-0.2</ele><time>2022-06-19T09:34:33.000Z</time></trkpt><trkpt lon="5.772731" lat="51.144682"><ele>-0.4</ele><time>2022-06-19T09:34:34.000Z</time></trkpt><trkpt lon="5.772679" lat="51.144614"><ele>-0.4</ele><time>2022-06-19T09:34:35.000Z</time></trkpt><trkpt lon="5.772629" lat="51.144542"><ele>-0.6</ele><time>2022-06-19T09:34:36.000Z</time></trkpt><trkpt lon="5.772577" lat="51.144473"><ele>-0.6</ele><time>2022-06-19T09:34:37.000Z</time></trkpt><trkpt lon="5.772527" lat="51.144408"><ele>-0.6</ele><time>2022-06-19T09:34:38.000Z</time></trkpt><trkpt lon="5.772483" lat="51.144343"><ele>-0.8</ele><time>2022-06-19T09:34:39.000Z</time></trkpt><trkpt lon="5.772441" lat="51.144285"><ele>-0.8</ele><time>2022-06-19T09:34:40.000Z</time></trkpt><trkpt lon="5.772406" lat="51.144232"><ele>-0.6</ele><time>2022-06-19T09:34:41.000Z</time></trkpt><trkpt lon="5.772375" lat="51.144182"><ele>-0.6</ele><time>2022-06-19T09:34:42.000Z</time></trkpt><trkpt lon="5.772346" lat="51.14414"><ele>-0.6</ele><time>2022-06-19T09:34:43.000Z</time></trkpt><trkpt lon="5.772318" lat="51.144098"><ele>-0.6</ele><time>2022-06-19T09:34:44.000Z</time></trkpt><trkpt lon="5.772291" lat="51.144059"><ele>-0.6</ele><time>2022-06-19T09:34:45.000Z</time></trkpt><trkpt lon="5.772251" lat="51.144032"><ele>-0.6</ele><time>2022-06-19T09:34:46.000Z</time></trkpt><trkpt lon="5.772202" lat="51.144021"><ele>-0.6</ele><time>2022-06-19T09:34:47.000Z</time></trkpt><trkpt lon="5.772132" lat="51.14402"><ele>-0.6</ele><time>2022-06-19T09:34:48.000Z</time></trkpt><trkpt lon="5.772053" lat="51.144027"><ele>-0.6</ele><time>2022-06-19T09:34:49.000Z</time></trkpt><trkpt lon="5.771962" lat="51.144035"><ele>-0.8</ele><time>2022-06-19T09:34:50.000Z</time></trkpt><trkpt lon="5.77186" lat="51.144043"><ele>-0.8</ele><time>2022-06-19T09:34:51.000Z</time></trkpt><trkpt lon="5.771753" lat="51.144043"><ele>-1</ele><time>2022-06-19T09:34:52.000Z</time></trkpt><trkpt lon="5.771634" lat="51.144047"><ele>-1</ele><time>2022-06-19T09:34:53.000Z</time></trkpt><trkpt lon="5.771511" lat="51.14405"><ele>-1.2</ele><time>2022-06-19T09:34:54.000Z</time></trkpt><trkpt lon="5.771386" lat="51.144058"><ele>-1.4</ele><time>2022-06-19T09:34:55.000Z</time></trkpt><trkpt lon="5.771257" lat="51.144066"><ele>-1.6</ele><time>2022-06-19T09:34:56.000Z</time></trkpt><trkpt lon="5.771127" lat="51.144073"><ele>-1.6</ele><time>2022-06-19T09:34:57.000Z</time></trkpt><trkpt lon="5.770994" lat="51.144081"><ele>-1.6</ele><time>2022-06-19T09:34:58.000Z</time></trkpt><trkpt lon="5.770862" lat="51.144085"><ele>-1.6</ele><time>2022-06-19T09:34:59.000Z</time></trkpt><trkpt lon="5.77073" lat="51.144096"><ele>-1.6</ele><time>2022-06-19T09:35:00.000Z</time></trkpt><trkpt lon="5.770599" lat="51.144104"><ele>-1.6</ele><time>2022-06-19T09:35:01.000Z</time></trkpt><trkpt lon="5.770465" lat="51.144111"><ele>-1.6</ele><time>2022-06-19T09:35:02.000Z</time></trkpt><trkpt lon="5.770336" lat="51.144119"><ele>-1.6</ele><time>2022-06-19T09:35:03.000Z</time></trkpt><trkpt lon="5.770209" lat="51.144127"><ele>-1.6</ele><time>2022-06-19T09:35:04.000Z</time></trkpt><trkpt lon="5.77009" lat="51.144134"><ele>-1.6</ele><time>2022-06-19T09:35:05.000Z</time></trkpt><trkpt lon="5.76999" lat="51.144138"><ele>-1.4</ele><time>2022-06-19T09:35:06.000Z</time></trkpt><trkpt lon="5.769909" lat="51.144142"><ele>-1.4</ele><time>2022-06-19T09:35:07.000Z</time></trkpt><trkpt lon="5.769827" lat="51.144149"><ele>-1.4</ele><time>2022-06-19T09:35:08.000Z</time></trkpt><trkpt lon="5.76974" lat="51.14415"><ele>-1.4</ele><time>2022-06-19T09:35:09.000Z</time></trkpt><trkpt lon="5.769646" lat="51.144157"><ele>-1.4</ele><time>2022-06-19T09:35:10.000Z</time></trkpt><trkpt lon="5.769556" lat="51.144165"><ele>-1.4</ele><time>2022-06-19T09:35:11.000Z</time></trkpt><trkpt lon="5.769468" lat="51.144169"><ele>-1.4</ele><time>2022-06-19T09:35:12.000Z</time></trkpt><trkpt lon="5.769381" lat="51.144176"><ele>-1.4</ele><time>2022-06-19T09:35:13.000Z</time></trkpt><trkpt lon="5.769292" lat="51.14418"><ele>-1.4</ele><time>2022-06-19T09:35:14.000Z</time></trkpt><trkpt lon="5.769205" lat="51.144188"><ele>-1.4</ele><time>2022-06-19T09:35:15.000Z</time></trkpt><trkpt lon="5.769117" lat="51.144192"><ele>-1.4</ele><time>2022-06-19T09:35:16.000Z</time></trkpt><trkpt lon="5.769028" lat="51.144199"><ele>-1.4</ele><time>2022-06-19T09:35:17.000Z</time></trkpt><trkpt lon="5.768937" lat="51.144207"><ele>-1.6</ele><time>2022-06-19T09:35:18.000Z</time></trkpt><trkpt lon="5.768848" lat="51.144211"><ele>-1.8</ele><time>2022-06-19T09:35:19.000Z</time></trkpt><trkpt lon="5.768753" lat="51.144218"><ele>-1.8</ele><time>2022-06-19T09:35:20.000Z</time></trkpt><trkpt lon="5.768654" lat="51.144222"><ele>-2</ele><time>2022-06-19T09:35:21.000Z</time></trkpt><trkpt lon="5.768551" lat="51.144226"><ele>-2.2</ele><time>2022-06-19T09:35:22.000Z</time></trkpt><trkpt lon="5.768437" lat="51.14423"><ele>-2.2</ele><time>2022-06-19T09:35:23.000Z</time></trkpt><trkpt lon="5.768319" lat="51.144237"><ele>-2.4</ele><time>2022-06-19T09:35:24.000Z</time></trkpt><trkpt lon="5.768196" lat="51.144245"><ele>-2.4</ele><time>2022-06-19T09:35:25.000Z</time></trkpt><trkpt lon="5.768072" lat="51.144249"><ele>-2.4</ele><time>2022-06-19T09:35:26.000Z</time></trkpt><trkpt lon="5.767946" lat="51.144256"><ele>-2.4</ele><time>2022-06-19T09:35:27.000Z</time></trkpt><trkpt lon="5.767824" lat="51.14426"><ele>-2.4</ele><time>2022-06-19T09:35:28.000Z</time></trkpt><trkpt lon="5.767697" lat="51.144271"><ele>-2.6</ele><time>2022-06-19T09:35:29.000Z</time></trkpt><trkpt lon="5.767571" lat="51.144279"><ele>-2.6</ele><time>2022-06-19T09:35:30.000Z</time></trkpt><trkpt lon="5.767444" lat="51.144283"><ele>-2.6</ele><time>2022-06-19T09:35:31.000Z</time></trkpt><trkpt lon="5.767321" lat="51.144294"><ele>-2.4</ele><time>2022-06-19T09:35:32.000Z</time></trkpt><trkpt lon="5.767194" lat="51.144302"><ele>-2.4</ele><time>2022-06-19T09:35:33.000Z</time></trkpt><trkpt lon="5.767065" lat="51.14431"><ele>-2.4</ele><time>2022-06-19T09:35:34.000Z</time></trkpt><trkpt lon="5.766941" lat="51.144317"><ele>-2.4</ele><time>2022-06-19T09:35:35.000Z</time></trkpt><trkpt lon="5.766809" lat="51.144325"><ele>-2.4</ele><time>2022-06-19T09:35:36.000Z</time></trkpt><trkpt lon="5.76668" lat="51.144332"><ele>-2.4</ele><time>2022-06-19T09:35:37.000Z</time></trkpt><trkpt lon="5.766548" lat="51.144337"><ele>-2.2</ele><time>2022-06-19T09:35:38.000Z</time></trkpt><trkpt lon="5.766416" lat="51.144348"><ele>-2.2</ele><time>2022-06-19T09:35:39.000Z</time></trkpt><trkpt lon="5.766282" lat="51.144355"><ele>-2</ele><time>2022-06-19T09:35:40.000Z</time></trkpt><trkpt lon="5.766148" lat="51.144363"><ele>-1.8</ele><time>2022-06-19T09:35:41.000Z</time></trkpt><trkpt lon="5.766013" lat="51.144367"><ele>-1.8</ele><time>2022-06-19T09:35:42.000Z</time></trkpt><trkpt lon="5.765878" lat="51.144375"><ele>-1.6</ele><time>2022-06-19T09:35:43.000Z</time></trkpt><trkpt lon="5.765746" lat="51.144382"><ele>-1.6</ele><time>2022-06-19T09:35:44.000Z</time></trkpt><trkpt lon="5.765613" lat="51.14439"><ele>-1.6</ele><time>2022-06-19T09:35:45.000Z</time></trkpt><trkpt lon="5.765484" lat="51.144398"><ele>-1.4</ele><time>2022-06-19T09:35:46.000Z</time></trkpt><trkpt lon="5.765359" lat="51.144405"><ele>-1.4</ele><time>2022-06-19T09:35:47.000Z</time></trkpt><trkpt lon="5.765237" lat="51.144412"><ele>-1.6</ele><time>2022-06-19T09:35:48.000Z</time></trkpt><trkpt lon="5.765116" lat="51.144417"><ele>-1.6</ele><time>2022-06-19T09:35:49.000Z</time></trkpt><trkpt lon="5.764995" lat="51.144424"><ele>-1.6</ele><time>2022-06-19T09:35:50.000Z</time></trkpt><trkpt lon="5.764877" lat="51.144432"><ele>-1.6</ele><time>2022-06-19T09:35:51.000Z</time></trkpt><trkpt lon="5.764763" lat="51.144436"><ele>-1.6</ele><time>2022-06-19T09:35:52.000Z</time></trkpt><trkpt lon="5.764648" lat="51.144443"><ele>-1.4</ele><time>2022-06-19T09:35:53.000Z</time></trkpt><trkpt lon="5.76453" lat="51.144451"><ele>-1.4</ele><time>2022-06-19T09:35:54.000Z</time></trkpt><trkpt lon="5.764408" lat="51.144455"><ele>-1.2</ele><time>2022-06-19T09:35:55.000Z</time></trkpt><trkpt lon="5.764284" lat="51.144462"><ele>-1.2</ele><time>2022-06-19T09:35:56.000Z</time></trkpt><trkpt lon="5.76416" lat="51.14447"><ele>-1.2</ele><time>2022-06-19T09:35:57.000Z</time></trkpt><trkpt lon="5.764038" lat="51.144481"><ele>-1.2</ele><time>2022-06-19T09:35:58.000Z</time></trkpt><trkpt lon="5.763915" lat="51.144489"><ele>-1.2</ele><time>2022-06-19T09:35:59.000Z</time></trkpt><trkpt lon="5.763791" lat="51.144497"><ele>-1.2</ele><time>2022-06-19T09:36:00.000Z</time></trkpt><trkpt lon="5.763672" lat="51.144504"><ele>-1</ele><time>2022-06-19T09:36:01.000Z</time></trkpt><trkpt lon="5.76355" lat="51.144512"><ele>-1</ele><time>2022-06-19T09:36:02.000Z</time></trkpt><trkpt lon="5.763429" lat="51.144519"><ele>-1</ele><time>2022-06-19T09:36:03.000Z</time></trkpt><trkpt lon="5.763304" lat="51.144524"><ele>-1</ele><time>2022-06-19T09:36:04.000Z</time></trkpt><trkpt lon="5.76318" lat="51.144535"><ele>-1</ele><time>2022-06-19T09:36:05.000Z</time></trkpt><trkpt lon="5.763058" lat="51.144539"><ele>-0.8</ele><time>2022-06-19T09:36:06.000Z</time></trkpt><trkpt lon="5.762936" lat="51.144546"><ele>-0.8</ele><time>2022-06-19T09:36:07.000Z</time></trkpt><trkpt lon="5.762814" lat="51.144554"><ele>-0.8</ele><time>2022-06-19T09:36:08.000Z</time></trkpt><trkpt lon="5.762697" lat="51.144561"><ele>-0.8</ele><time>2022-06-19T09:36:09.000Z</time></trkpt><trkpt lon="5.762579" lat="51.144569"><ele>-0.6</ele><time>2022-06-19T09:36:10.000Z</time></trkpt><trkpt lon="5.762456" lat="51.144577"><ele>-0.6</ele><time>2022-06-19T09:36:11.000Z</time></trkpt><trkpt lon="5.762336" lat="51.144584"><ele>-0.6</ele><time>2022-06-19T09:36:12.000Z</time></trkpt><trkpt lon="5.762214" lat="51.144592"><ele>-0.6</ele><time>2022-06-19T09:36:13.000Z</time></trkpt><trkpt lon="5.762094" lat="51.1446"><ele>-0.6</ele><time>2022-06-19T09:36:14.000Z</time></trkpt><trkpt lon="5.761971" lat="51.144604"><ele>-0.6</ele><time>2022-06-19T09:36:15.000Z</time></trkpt><trkpt lon="5.761847" lat="51.144615"><ele>-0.6</ele><time>2022-06-19T09:36:16.000Z</time></trkpt><trkpt lon="5.761724" lat="51.144626"><ele>-0.6</ele><time>2022-06-19T09:36:17.000Z</time></trkpt><trkpt lon="5.761602" lat="51.144634"><ele>-0.4</ele><time>2022-06-19T09:36:18.000Z</time></trkpt><trkpt lon="5.761485" lat="51.144641"><ele>-0.4</ele><time>2022-06-19T09:36:19.000Z</time></trkpt><trkpt lon="5.761358" lat="51.144649"><ele>-0.4</ele><time>2022-06-19T09:36:20.000Z</time></trkpt><trkpt lon="5.761231" lat="51.144653"><ele>-0.2</ele><time>2022-06-19T09:36:21.000Z</time></trkpt><trkpt lon="5.761102" lat="51.144657"><ele>-0.2</ele><time>2022-06-19T09:36:22.000Z</time></trkpt><trkpt lon="5.760978" lat="51.144665"><ele>-0.4</ele><time>2022-06-19T09:36:23.000Z</time></trkpt><trkpt lon="5.760854" lat="51.144668"><ele>-0.4</ele><time>2022-06-19T09:36:24.000Z</time></trkpt><trkpt lon="5.760732" lat="51.144676"><ele>-0.2</ele><time>2022-06-19T09:36:25.000Z</time></trkpt><trkpt lon="5.760613" lat="51.14468"><ele>-0.2</ele><time>2022-06-19T09:36:26.000Z</time></trkpt><trkpt lon="5.760493" lat="51.144691"><ele>0</ele><time>2022-06-19T09:36:27.000Z</time></trkpt><trkpt lon="5.76037" lat="51.144695"><ele>0.2</ele><time>2022-06-19T09:36:28.000Z</time></trkpt><trkpt lon="5.760251" lat="51.144706"><ele>0.2</ele><time>2022-06-19T09:36:29.000Z</time></trkpt><trkpt lon="5.760139" lat="51.14471"><ele>0.4</ele><time>2022-06-19T09:36:30.000Z</time></trkpt><trkpt lon="5.760014" lat="51.144718"><ele>0.4</ele><time>2022-06-19T09:36:31.000Z</time></trkpt><trkpt lon="5.759894" lat="51.144726"><ele>0.4</ele><time>2022-06-19T09:36:32.000Z</time></trkpt><trkpt lon="5.759776" lat="51.144729"><ele>0.4</ele><time>2022-06-19T09:36:33.000Z</time></trkpt><trkpt lon="5.759653" lat="51.144733"><ele>0.4</ele><time>2022-06-19T09:36:34.000Z</time></trkpt><trkpt lon="5.759531" lat="51.144737"><ele>0.4</ele><time>2022-06-19T09:36:35.000Z</time></trkpt><trkpt lon="5.759402" lat="51.144737"><ele>0.4</ele><time>2022-06-19T09:36:36.000Z</time></trkpt><trkpt lon="5.759276" lat="51.144745"><ele>0.4</ele><time>2022-06-19T09:36:37.000Z</time></trkpt><trkpt lon="5.759149" lat="51.144749"><ele>0.4</ele><time>2022-06-19T09:36:38.000Z</time></trkpt><trkpt lon="5.759023" lat="51.144756"><ele>0.4</ele><time>2022-06-19T09:36:39.000Z</time></trkpt><trkpt lon="5.758896" lat="51.144764"><ele>0.6</ele><time>2022-06-19T09:36:40.000Z</time></trkpt><trkpt lon="5.758771" lat="51.144771"><ele>0.6</ele><time>2022-06-19T09:36:41.000Z</time></trkpt><trkpt lon="5.758646" lat="51.144779"><ele>0.6</ele><time>2022-06-19T09:36:42.000Z</time></trkpt><trkpt lon="5.758526" lat="51.144786"><ele>0.6</ele><time>2022-06-19T09:36:43.000Z</time></trkpt><trkpt lon="5.758403" lat="51.144794"><ele>0.6</ele><time>2022-06-19T09:36:44.000Z</time></trkpt><trkpt lon="5.758282" lat="51.144802"><ele>0.6</ele><time>2022-06-19T09:36:45.000Z</time></trkpt><trkpt lon="5.75816" lat="51.144809"><ele>0.6</ele><time>2022-06-19T09:36:46.000Z</time></trkpt><trkpt lon="5.758039" lat="51.144813"><ele>0.8</ele><time>2022-06-19T09:36:47.000Z</time></trkpt><trkpt lon="5.757922" lat="51.14482"><ele>0.8</ele><time>2022-06-19T09:36:48.000Z</time></trkpt><trkpt lon="5.757794" lat="51.144828"><ele>0.8</ele><time>2022-06-19T09:36:49.000Z</time></trkpt><trkpt lon="5.757671" lat="51.14484"><ele>1</ele><time>2022-06-19T09:36:50.000Z</time></trkpt><trkpt lon="5.757546" lat="51.144844"><ele>1</ele><time>2022-06-19T09:36:51.000Z</time></trkpt><trkpt lon="5.757421" lat="51.144852"><ele>1</ele><time>2022-06-19T09:36:52.000Z</time></trkpt><trkpt lon="5.757299" lat="51.144859"><ele>1</ele><time>2022-06-19T09:36:53.000Z</time></trkpt><trkpt lon="5.757174" lat="51.144867"><ele>1</ele><time>2022-06-19T09:36:54.000Z</time></trkpt><trkpt lon="5.757054" lat="51.144874"><ele>1</ele><time>2022-06-19T09:36:55.000Z</time></trkpt><trkpt lon="5.756928" lat="51.144882"><ele>1</ele><time>2022-06-19T09:36:56.000Z</time></trkpt><trkpt lon="5.756804" lat="51.14489"><ele>1.2</ele><time>2022-06-19T09:36:57.000Z</time></trkpt><trkpt lon="5.756678" lat="51.144893"><ele>1.2</ele><time>2022-06-19T09:36:58.000Z</time></trkpt><trkpt lon="5.756554" lat="51.144901"><ele>1.2</ele><time>2022-06-19T09:36:59.000Z</time></trkpt><trkpt lon="5.756429" lat="51.144909"><ele>1.2</ele><time>2022-06-19T09:37:00.000Z</time></trkpt><trkpt lon="5.756308" lat="51.144916"><ele>1.2</ele><time>2022-06-19T09:37:01.000Z</time></trkpt><trkpt lon="5.756184" lat="51.144924"><ele>1.2</ele><time>2022-06-19T09:37:02.000Z</time></trkpt><trkpt lon="5.756062" lat="51.144932"><ele>1.2</ele><time>2022-06-19T09:37:03.000Z</time></trkpt><trkpt lon="5.755945" lat="51.144939"><ele>1.2</ele><time>2022-06-19T09:37:04.000Z</time></trkpt><trkpt lon="5.755828" lat="51.144943"><ele>1.2</ele><time>2022-06-19T09:37:05.000Z</time></trkpt><trkpt lon="5.755711" lat="51.144951"><ele>1.2</ele><time>2022-06-19T09:37:06.000Z</time></trkpt><trkpt lon="5.755591" lat="51.144958"><ele>1.2</ele><time>2022-06-19T09:37:07.000Z</time></trkpt><trkpt lon="5.755472" lat="51.144966"><ele>1.2</ele><time>2022-06-19T09:37:08.000Z</time></trkpt><trkpt lon="5.755346" lat="51.144973"><ele>1.2</ele><time>2022-06-19T09:37:09.000Z</time></trkpt><trkpt lon="5.755227" lat="51.144981"><ele>1.2</ele><time>2022-06-19T09:37:10.000Z</time></trkpt><trkpt lon="5.755107" lat="51.144985"><ele>1.2</ele><time>2022-06-19T09:37:11.000Z</time></trkpt><trkpt lon="5.754993" lat="51.144992"><ele>1.4</ele><time>2022-06-19T09:37:12.000Z</time></trkpt><trkpt lon="5.754875" lat="51.144993"><ele>1.4</ele><time>2022-06-19T09:37:13.000Z</time></trkpt><trkpt lon="5.754753" lat="51.144993"><ele>1.4</ele><time>2022-06-19T09:37:14.000Z</time></trkpt><trkpt lon="5.754632" lat="51.144997"><ele>1.4</ele><time>2022-06-19T09:37:15.000Z</time></trkpt><trkpt lon="5.754511" lat="51.145011"><ele>1.4</ele><time>2022-06-19T09:37:16.000Z</time></trkpt><trkpt lon="5.754383" lat="51.145023"><ele>1.4</ele><time>2022-06-19T09:37:17.000Z</time></trkpt><trkpt lon="5.754259" lat="51.145031"><ele>1.2</ele><time>2022-06-19T09:37:18.000Z</time></trkpt><trkpt lon="5.754137" lat="51.145038"><ele>1.2</ele><time>2022-06-19T09:37:19.000Z</time></trkpt><trkpt lon="5.754019" lat="51.14505"><ele>1.2</ele><time>2022-06-19T09:37:20.000Z</time></trkpt><trkpt lon="5.753903" lat="51.145057"><ele>1.4</ele><time>2022-06-19T09:37:21.000Z</time></trkpt><trkpt lon="5.753782" lat="51.145065"><ele>1.4</ele><time>2022-06-19T09:37:22.000Z</time></trkpt><trkpt lon="5.753661" lat="51.145073"><ele>1.4</ele><time>2022-06-19T09:37:23.000Z</time></trkpt><trkpt lon="5.753539" lat="51.14508"><ele>1.2</ele><time>2022-06-19T09:37:24.000Z</time></trkpt><trkpt lon="5.753417" lat="51.145092"><ele>1.2</ele><time>2022-06-19T09:37:25.000Z</time></trkpt><trkpt lon="5.753294" lat="51.145103"><ele>1.2</ele><time>2022-06-19T09:37:26.000Z</time></trkpt><trkpt lon="5.75317" lat="51.145111"><ele>1.2</ele><time>2022-06-19T09:37:27.000Z</time></trkpt><trkpt lon="5.753044" lat="51.145115"><ele>1.2</ele><time>2022-06-19T09:37:28.000Z</time></trkpt><trkpt lon="5.75292" lat="51.145126"><ele>1.2</ele><time>2022-06-19T09:37:29.000Z</time></trkpt><trkpt lon="5.752795" lat="51.14513"><ele>1</ele><time>2022-06-19T09:37:30.000Z</time></trkpt><trkpt lon="5.75267" lat="51.145137"><ele>1</ele><time>2022-06-19T09:37:31.000Z</time></trkpt><trkpt lon="5.752546" lat="51.145145"><ele>1</ele><time>2022-06-19T09:37:32.000Z</time></trkpt><trkpt lon="5.752425" lat="51.145153"><ele>1</ele><time>2022-06-19T09:37:33.000Z</time></trkpt><trkpt lon="5.752303" lat="51.14516"><ele>1</ele><time>2022-06-19T09:37:34.000Z</time></trkpt><trkpt lon="5.752182" lat="51.145168"><ele>1</ele><time>2022-06-19T09:37:35.000Z</time></trkpt><trkpt lon="5.752057" lat="51.145176"><ele>1</ele><time>2022-06-19T09:37:36.000Z</time></trkpt><trkpt lon="5.751936" lat="51.145183"><ele>0.8</ele><time>2022-06-19T09:37:37.000Z</time></trkpt><trkpt lon="5.751809" lat="51.145187"><ele>0.8</ele><time>2022-06-19T09:37:38.000Z</time></trkpt><trkpt lon="5.751686" lat="51.145195"><ele>0.8</ele><time>2022-06-19T09:37:39.000Z</time></trkpt><trkpt lon="5.751562" lat="51.145206"><ele>0.8</ele><time>2022-06-19T09:37:40.000Z</time></trkpt><trkpt lon="5.751439" lat="51.14521"><ele>0.8</ele><time>2022-06-19T09:37:41.000Z</time></trkpt><trkpt lon="5.751318" lat="51.145218"><ele>0.8</ele><time>2022-06-19T09:37:42.000Z</time></trkpt><trkpt lon="5.751199" lat="51.145225"><ele>0.6</ele><time>2022-06-19T09:37:43.000Z</time></trkpt><trkpt lon="5.751083" lat="51.145233"><ele>0.6</ele><time>2022-06-19T09:37:44.000Z</time></trkpt><trkpt lon="5.750971" lat="51.145237"><ele>0.6</ele><time>2022-06-19T09:37:45.000Z</time></trkpt><trkpt lon="5.750858" lat="51.145237"><ele>0.6</ele><time>2022-06-19T09:37:46.000Z</time></trkpt><trkpt lon="5.750748" lat="51.145233"><ele>0.6</ele><time>2022-06-19T09:37:47.000Z</time></trkpt><trkpt lon="5.750634" lat="51.145237"><ele>0.8</ele><time>2022-06-19T09:37:48.000Z</time></trkpt><trkpt lon="5.750519" lat="51.145244"><ele>0.6</ele><time>2022-06-19T09:37:49.000Z</time></trkpt><trkpt lon="5.750397" lat="51.145252"><ele>0.6</ele><time>2022-06-19T09:37:50.000Z</time></trkpt><trkpt lon="5.750271" lat="51.14526"><ele>0.6</ele><time>2022-06-19T09:37:51.000Z</time></trkpt><trkpt lon="5.750149" lat="51.145267"><ele>0.6</ele><time>2022-06-19T09:37:52.000Z</time></trkpt><trkpt lon="5.750028" lat="51.145275"><ele>0.4</ele><time>2022-06-19T09:37:53.000Z</time></trkpt><trkpt lon="5.74991" lat="51.145282"><ele>0.4</ele><time>2022-06-19T09:37:54.000Z</time></trkpt><trkpt lon="5.749796" lat="51.145286"><ele>0.4</ele><time>2022-06-19T09:37:55.000Z</time></trkpt><trkpt lon="5.749682" lat="51.145298"><ele>0.4</ele><time>2022-06-19T09:37:56.000Z</time></trkpt><trkpt lon="5.749572" lat="51.145305"><ele>0.2</ele><time>2022-06-19T09:37:57.000Z</time></trkpt><trkpt lon="5.749461" lat="51.145313"><ele>0.2</ele><time>2022-06-19T09:37:58.000Z</time></trkpt><trkpt lon="5.749344" lat="51.145317"><ele>0.4</ele><time>2022-06-19T09:37:59.000Z</time></trkpt><trkpt lon="5.749228" lat="51.145324"><ele>0.4</ele><time>2022-06-19T09:38:00.000Z</time></trkpt><trkpt lon="5.749109" lat="51.145328"><ele>0.2</ele><time>2022-06-19T09:38:01.000Z</time></trkpt><trkpt lon="5.748992" lat="51.14534"><ele>0.4</ele><time>2022-06-19T09:38:02.000Z</time></trkpt><trkpt lon="5.748877" lat="51.145344"><ele>0.4</ele><time>2022-06-19T09:38:03.000Z</time></trkpt><trkpt lon="5.748759" lat="51.145351"><ele>0.2</ele><time>2022-06-19T09:38:04.000Z</time></trkpt><trkpt lon="5.748644" lat="51.145359"><ele>0.2</ele><time>2022-06-19T09:38:05.000Z</time></trkpt><trkpt lon="5.748523" lat="51.14537"><ele>0.2</ele><time>2022-06-19T09:38:06.000Z</time></trkpt><trkpt lon="5.748407" lat="51.145378"><ele>0</ele><time>2022-06-19T09:38:07.000Z</time></trkpt><trkpt lon="5.748293" lat="51.145389"><ele>0</ele><time>2022-06-19T09:38:08.000Z</time></trkpt><trkpt lon="5.748179" lat="51.1454"><ele>0</ele><time>2022-06-19T09:38:09.000Z</time></trkpt><trkpt lon="5.748063" lat="51.145408"><ele>0</ele><time>2022-06-19T09:38:10.000Z</time></trkpt><trkpt lon="5.747946" lat="51.145419"><ele>0.2</ele><time>2022-06-19T09:38:11.000Z</time></trkpt><trkpt lon="5.74783" lat="51.145431"><ele>0</ele><time>2022-06-19T09:38:12.000Z</time></trkpt><trkpt lon="5.747718" lat="51.145439"><ele>0.2</ele><time>2022-06-19T09:38:13.000Z</time></trkpt><trkpt lon="5.747603" lat="51.14545"><ele>0.2</ele><time>2022-06-19T09:38:14.000Z</time></trkpt><trkpt lon="5.747486" lat="51.145458"><ele>0.2</ele><time>2022-06-19T09:38:15.000Z</time></trkpt><trkpt lon="5.747369" lat="51.145469"><ele>0</ele><time>2022-06-19T09:38:16.000Z</time></trkpt><trkpt lon="5.747254" lat="51.145477"><ele>0</ele><time>2022-06-19T09:38:17.000Z</time></trkpt><trkpt lon="5.747137" lat="51.145488"><ele>0</ele><time>2022-06-19T09:38:18.000Z</time></trkpt><trkpt lon="5.747023" lat="51.1455"><ele>0</ele><time>2022-06-19T09:38:19.000Z</time></trkpt><trkpt lon="5.746905" lat="51.145507"><ele>0</ele><time>2022-06-19T09:38:20.000Z</time></trkpt><trkpt lon="5.746786" lat="51.145519"><ele>-0.2</ele><time>2022-06-19T09:38:21.000Z</time></trkpt><trkpt lon="5.746666" lat="51.145534"><ele>-0.2</ele><time>2022-06-19T09:38:22.000Z</time></trkpt><trkpt lon="5.746549" lat="51.145545"><ele>0</ele><time>2022-06-19T09:38:23.000Z</time></trkpt><trkpt lon="5.746425" lat="51.145557"><ele>0</ele><time>2022-06-19T09:38:24.000Z</time></trkpt><trkpt lon="5.746307" lat="51.145565"><ele>0</ele><time>2022-06-19T09:38:25.000Z</time></trkpt><trkpt lon="5.746186" lat="51.145576"><ele>0</ele><time>2022-06-19T09:38:26.000Z</time></trkpt><trkpt lon="5.746066" lat="51.145588"><ele>-0.2</ele><time>2022-06-19T09:38:27.000Z</time></trkpt><trkpt lon="5.745951" lat="51.145599"><ele>-0.2</ele><time>2022-06-19T09:38:28.000Z</time></trkpt><trkpt lon="5.745834" lat="51.145607"><ele>-0.2</ele><time>2022-06-19T09:38:29.000Z</time></trkpt><trkpt lon="5.74572" lat="51.145618"><ele>-0.2</ele><time>2022-06-19T09:38:30.000Z</time></trkpt><trkpt lon="5.745607" lat="51.145626"><ele>-0.4</ele><time>2022-06-19T09:38:31.000Z</time></trkpt><trkpt lon="5.745495" lat="51.145633"><ele>-0.4</ele><time>2022-06-19T09:38:32.000Z</time></trkpt><trkpt lon="5.745391" lat="51.145645"><ele>-0.4</ele><time>2022-06-19T09:38:33.000Z</time></trkpt><trkpt lon="5.745285" lat="51.145652"><ele>-0.4</ele><time>2022-06-19T09:38:34.000Z</time></trkpt><trkpt lon="5.745181" lat="51.14566"><ele>-0.4</ele><time>2022-06-19T09:38:35.000Z</time></trkpt><trkpt lon="5.74508" lat="51.145668"><ele>-0.2</ele><time>2022-06-19T09:38:36.000Z</time></trkpt><trkpt lon="5.744982" lat="51.145675"><ele>-0.2</ele><time>2022-06-19T09:38:37.000Z</time></trkpt><trkpt lon="5.744885" lat="51.145683"><ele>0</ele><time>2022-06-19T09:38:38.000Z</time></trkpt><trkpt lon="5.744789" lat="51.145691"><ele>0</ele><time>2022-06-19T09:38:39.000Z</time></trkpt><trkpt lon="5.74469" lat="51.145698"><ele>0</ele><time>2022-06-19T09:38:40.000Z</time></trkpt><trkpt lon="5.744591" lat="51.145706"><ele>0</ele><time>2022-06-19T09:38:41.000Z</time></trkpt><trkpt lon="5.744487" lat="51.145714"><ele>0</ele><time>2022-06-19T09:38:42.000Z</time></trkpt><trkpt lon="5.744386" lat="51.145721"><ele>0</ele><time>2022-06-19T09:38:43.000Z</time></trkpt><trkpt lon="5.744285" lat="51.145733"><ele>0.2</ele><time>2022-06-19T09:38:44.000Z</time></trkpt><trkpt lon="5.744188" lat="51.14574"><ele>0.2</ele><time>2022-06-19T09:38:45.000Z</time></trkpt><trkpt lon="5.744091" lat="51.145748"><ele>0.2</ele><time>2022-06-19T09:38:46.000Z</time></trkpt></trkseg></trk></gpx>